<?xml version="1.0" encoding="UTF-8" standalone="no" ?>
<gpx xmlns="http://www.topografix.com/GPX/1/1" xmlns:xsi="http://www.w3.org/2001/XMLSchema-instance" xsi:schemaLocation="http://www.topografix.com/GPX/1/1 http://www.topografix.com/GPX/1/1/gpx.xsd" version="1.1" creator="VisuGPX - https://www.visugpx.com">
  <metadata>
    <name>2016-09-20 Bike ride-Amberieux en Dombes O via St Jean</name>
    <desc><![CDATA[2016-09-20 Bike ride-Amberieux en Dombes O via St Jean]]></desc>
  </metadata>
  <wpt lat="45.928" lon="4.73697">
    <ele>172</ele>
    <name><![CDATA[2016-09-20 10:07 (Start)]]></name>
  </wpt>
  <wpt lat="45.92458" lon="4.73715">
    <ele>174</ele>
    <name><![CDATA[2016-09-20 10:07 (End)]]></name>
    <desc><![CDATA[Created by Google My Tracks on Android  Name: 2016-09-20 10:07 Activity type: biking Description: - Total distance: 46.26 km (28.7 mi) Total time: 2:15:44 Moving time: 2:12:55 Average speed: 20.45 km/h (12.7 mi/h) Average moving speed: 20.88 km/h (13.0 mi/h) Max speed: 48.80 km/h (30.3 mi/h) Average pace: 2:56 min/km (4:43 min/mi) Average moving pace: 2:52 min/km (4:37 min/mi) Fastest pace: 1:14 min/km (1:59 min/mi) Max elevation: 312 m (1023 ft) Min elevation: 159 m (523 ft) Elevation gain: 738 m (2421 ft) Max grade: 15 % Min grade: -16 % Recorded: 20/09/2016 10:07]]></desc>
  </wpt>
  <trk>
    <name><![CDATA[2016-09-20 10:07]]></name>
    <trkseg>
      <trkpt lat="45.928" lon="4.73697">
        <ele>172</ele>
        <time>2016-09-20T08:07:41.627Z</time>
      </trkpt>
      <trkpt lat="45.92799" lon="4.73685">
        <ele>172</ele>
        <time>2016-09-20T08:09:23Z</time>
      </trkpt>
      <trkpt lat="45.928" lon="4.7368">
        <ele>172</ele>
        <time>2016-09-20T08:09:24Z</time>
      </trkpt>
      <trkpt lat="45.92802" lon="4.73671">
        <ele>172</ele>
        <time>2016-09-20T08:09:26Z</time>
      </trkpt>
      <trkpt lat="45.92802" lon="4.73667">
        <ele>172</ele>
        <time>2016-09-20T08:09:27Z</time>
      </trkpt>
      <trkpt lat="45.92803" lon="4.73655">
        <ele>172</ele>
        <time>2016-09-20T08:09:32Z</time>
      </trkpt>
      <trkpt lat="45.92803" lon="4.73654">
        <ele>172</ele>
        <time>2016-09-20T08:09:33Z</time>
      </trkpt>
      <trkpt lat="45.92802" lon="4.73655">
        <ele>172</ele>
        <time>2016-09-20T08:09:34Z</time>
      </trkpt>
      <trkpt lat="45.928" lon="4.73652">
        <ele>172</ele>
        <time>2016-09-20T08:09:53Z</time>
      </trkpt>
      <trkpt lat="45.92798" lon="4.73652">
        <ele>172</ele>
        <time>2016-09-20T08:09:54Z</time>
      </trkpt>
      <trkpt lat="45.928" lon="4.7364">
        <ele>172</ele>
        <time>2016-09-20T08:10:00Z</time>
      </trkpt>
      <trkpt lat="45.92801" lon="4.73637">
        <ele>172</ele>
        <time>2016-09-20T08:10:01Z</time>
      </trkpt>
      <trkpt lat="45.92808" lon="4.73633">
        <ele>172</ele>
        <time>2016-09-20T08:10:04Z</time>
      </trkpt>
      <trkpt lat="45.92811" lon="4.73632">
        <ele>172</ele>
        <time>2016-09-20T08:10:05Z</time>
      </trkpt>
      <trkpt lat="45.92816" lon="4.73625">
        <ele>172</ele>
        <time>2016-09-20T08:10:07Z</time>
      </trkpt>
      <trkpt lat="45.92818" lon="4.73619">
        <ele>172</ele>
        <time>2016-09-20T08:10:08Z</time>
      </trkpt>
      <trkpt lat="45.92817" lon="4.73608">
        <ele>172</ele>
        <time>2016-09-20T08:10:10Z</time>
      </trkpt>
      <trkpt lat="45.92819" lon="4.73596">
        <ele>171</ele>
        <time>2016-09-20T08:10:11Z</time>
      </trkpt>
      <trkpt lat="45.9282" lon="4.73586">
        <ele>171</ele>
        <time>2016-09-20T08:10:12Z</time>
      </trkpt>
      <trkpt lat="45.9282" lon="4.73578">
        <ele>171</ele>
        <time>2016-09-20T08:10:13Z</time>
      </trkpt>
      <trkpt lat="45.92821" lon="4.7357">
        <ele>171</ele>
        <time>2016-09-20T08:10:14Z</time>
      </trkpt>
      <trkpt lat="45.92822" lon="4.73563">
        <ele>171</ele>
        <time>2016-09-20T08:10:15Z</time>
      </trkpt>
      <trkpt lat="45.92822" lon="4.73555">
        <ele>171</ele>
        <time>2016-09-20T08:10:16Z</time>
      </trkpt>
      <trkpt lat="45.92823" lon="4.73547">
        <ele>171</ele>
        <time>2016-09-20T08:10:17Z</time>
      </trkpt>
      <trkpt lat="45.92822" lon="4.7354">
        <ele>172</ele>
        <time>2016-09-20T08:10:18Z</time>
      </trkpt>
      <trkpt lat="45.92822" lon="4.73533">
        <ele>172</ele>
        <time>2016-09-20T08:10:19Z</time>
      </trkpt>
      <trkpt lat="45.92823" lon="4.73524">
        <ele>172</ele>
        <time>2016-09-20T08:10:20Z</time>
      </trkpt>
      <trkpt lat="45.92824" lon="4.73515">
        <ele>172</ele>
        <time>2016-09-20T08:10:21Z</time>
      </trkpt>
      <trkpt lat="45.92826" lon="4.73505">
        <ele>172</ele>
        <time>2016-09-20T08:10:22Z</time>
      </trkpt>
      <trkpt lat="45.92827" lon="4.73495">
        <ele>172</ele>
        <time>2016-09-20T08:10:23Z</time>
      </trkpt>
      <trkpt lat="45.92829" lon="4.73485">
        <ele>172</ele>
        <time>2016-09-20T08:10:24Z</time>
      </trkpt>
      <trkpt lat="45.92831" lon="4.73475">
        <ele>172</ele>
        <time>2016-09-20T08:10:25Z</time>
      </trkpt>
      <trkpt lat="45.92832" lon="4.73464">
        <ele>172</ele>
        <time>2016-09-20T08:10:26Z</time>
      </trkpt>
      <trkpt lat="45.92833" lon="4.73454">
        <ele>172</ele>
        <time>2016-09-20T08:10:27Z</time>
      </trkpt>
      <trkpt lat="45.92835" lon="4.73444">
        <ele>172</ele>
        <time>2016-09-20T08:10:28Z</time>
      </trkpt>
      <trkpt lat="45.92836" lon="4.73436">
        <ele>172</ele>
        <time>2016-09-20T08:10:29Z</time>
      </trkpt>
      <trkpt lat="45.92837" lon="4.73427">
        <ele>172</ele>
        <time>2016-09-20T08:10:30Z</time>
      </trkpt>
      <trkpt lat="45.92838" lon="4.73419">
        <ele>172</ele>
        <time>2016-09-20T08:10:31Z</time>
      </trkpt>
      <trkpt lat="45.92838" lon="4.7341">
        <ele>172</ele>
        <time>2016-09-20T08:10:32Z</time>
      </trkpt>
      <trkpt lat="45.92839" lon="4.73401">
        <ele>172</ele>
        <time>2016-09-20T08:10:33Z</time>
      </trkpt>
      <trkpt lat="45.9284" lon="4.73392">
        <ele>172</ele>
        <time>2016-09-20T08:10:34Z</time>
      </trkpt>
      <trkpt lat="45.92841" lon="4.73383">
        <ele>172</ele>
        <time>2016-09-20T08:10:35Z</time>
      </trkpt>
      <trkpt lat="45.92842" lon="4.73374">
        <ele>171</ele>
        <time>2016-09-20T08:10:36Z</time>
      </trkpt>
      <trkpt lat="45.92843" lon="4.73366">
        <ele>171</ele>
        <time>2016-09-20T08:10:37Z</time>
      </trkpt>
      <trkpt lat="45.92844" lon="4.73357">
        <ele>171</ele>
        <time>2016-09-20T08:10:38Z</time>
      </trkpt>
      <trkpt lat="45.92845" lon="4.73348">
        <ele>171</ele>
        <time>2016-09-20T08:10:39Z</time>
      </trkpt>
      <trkpt lat="45.92847" lon="4.73337">
        <ele>171</ele>
        <time>2016-09-20T08:10:40Z</time>
      </trkpt>
      <trkpt lat="45.92848" lon="4.73329">
        <ele>171</ele>
        <time>2016-09-20T08:10:41Z</time>
      </trkpt>
      <trkpt lat="45.92849" lon="4.73319">
        <ele>171</ele>
        <time>2016-09-20T08:10:42Z</time>
      </trkpt>
      <trkpt lat="45.9285" lon="4.7331">
        <ele>171</ele>
        <time>2016-09-20T08:10:43Z</time>
      </trkpt>
      <trkpt lat="45.92851" lon="4.73301">
        <ele>171</ele>
        <time>2016-09-20T08:10:44Z</time>
      </trkpt>
      <trkpt lat="45.92852" lon="4.73291">
        <ele>171</ele>
        <time>2016-09-20T08:10:45Z</time>
      </trkpt>
      <trkpt lat="45.92853" lon="4.73281">
        <ele>171</ele>
        <time>2016-09-20T08:10:46Z</time>
      </trkpt>
      <trkpt lat="45.92854" lon="4.73272">
        <ele>171</ele>
        <time>2016-09-20T08:10:47Z</time>
      </trkpt>
      <trkpt lat="45.92855" lon="4.73263">
        <ele>171</ele>
        <time>2016-09-20T08:10:48Z</time>
      </trkpt>
      <trkpt lat="45.92856" lon="4.73255">
        <ele>171</ele>
        <time>2016-09-20T08:10:49Z</time>
      </trkpt>
      <trkpt lat="45.92858" lon="4.73247">
        <ele>171</ele>
        <time>2016-09-20T08:10:50Z</time>
      </trkpt>
      <trkpt lat="45.92859" lon="4.73239">
        <ele>171</ele>
        <time>2016-09-20T08:10:51Z</time>
      </trkpt>
      <trkpt lat="45.9286" lon="4.73231">
        <ele>171</ele>
        <time>2016-09-20T08:10:52Z</time>
      </trkpt>
      <trkpt lat="45.92861" lon="4.73224">
        <ele>171</ele>
        <time>2016-09-20T08:10:53Z</time>
      </trkpt>
      <trkpt lat="45.92862" lon="4.73216">
        <ele>171</ele>
        <time>2016-09-20T08:10:54Z</time>
      </trkpt>
      <trkpt lat="45.92862" lon="4.73208">
        <ele>171</ele>
        <time>2016-09-20T08:10:55Z</time>
      </trkpt>
      <trkpt lat="45.92863" lon="4.732">
        <ele>171</ele>
        <time>2016-09-20T08:10:56Z</time>
      </trkpt>
      <trkpt lat="45.92863" lon="4.73192">
        <ele>171</ele>
        <time>2016-09-20T08:10:57Z</time>
      </trkpt>
      <trkpt lat="45.92864" lon="4.73184">
        <ele>171</ele>
        <time>2016-09-20T08:10:58Z</time>
      </trkpt>
      <trkpt lat="45.92866" lon="4.73175">
        <ele>171</ele>
        <time>2016-09-20T08:10:59Z</time>
      </trkpt>
      <trkpt lat="45.92867" lon="4.73166">
        <ele>171</ele>
        <time>2016-09-20T08:11:00Z</time>
      </trkpt>
      <trkpt lat="45.92868" lon="4.73158">
        <ele>171</ele>
        <time>2016-09-20T08:11:01Z</time>
      </trkpt>
      <trkpt lat="45.92869" lon="4.73149">
        <ele>171</ele>
        <time>2016-09-20T08:11:02Z</time>
      </trkpt>
      <trkpt lat="45.9287" lon="4.7314">
        <ele>171</ele>
        <time>2016-09-20T08:11:03Z</time>
      </trkpt>
      <trkpt lat="45.92872" lon="4.73131">
        <ele>171</ele>
        <time>2016-09-20T08:11:04Z</time>
      </trkpt>
      <trkpt lat="45.92873" lon="4.73122">
        <ele>171</ele>
        <time>2016-09-20T08:11:05Z</time>
      </trkpt>
      <trkpt lat="45.92875" lon="4.73114">
        <ele>172</ele>
        <time>2016-09-20T08:11:06Z</time>
      </trkpt>
      <trkpt lat="45.92877" lon="4.73107">
        <ele>172</ele>
        <time>2016-09-20T08:11:07Z</time>
      </trkpt>
      <trkpt lat="45.92879" lon="4.73099">
        <ele>172</ele>
        <time>2016-09-20T08:11:08Z</time>
      </trkpt>
      <trkpt lat="45.92881" lon="4.73091">
        <ele>172</ele>
        <time>2016-09-20T08:11:09Z</time>
      </trkpt>
      <trkpt lat="45.92884" lon="4.73085">
        <ele>172</ele>
        <time>2016-09-20T08:11:10Z</time>
      </trkpt>
      <trkpt lat="45.92887" lon="4.73078">
        <ele>172</ele>
        <time>2016-09-20T08:11:11Z</time>
      </trkpt>
      <trkpt lat="45.9289" lon="4.73071">
        <ele>172</ele>
        <time>2016-09-20T08:11:12Z</time>
      </trkpt>
      <trkpt lat="45.92894" lon="4.73064">
        <ele>172</ele>
        <time>2016-09-20T08:11:13Z</time>
      </trkpt>
      <trkpt lat="45.92897" lon="4.73057">
        <ele>172</ele>
        <time>2016-09-20T08:11:14Z</time>
      </trkpt>
      <trkpt lat="45.92901" lon="4.7305">
        <ele>172</ele>
        <time>2016-09-20T08:11:15Z</time>
      </trkpt>
      <trkpt lat="45.92906" lon="4.73043">
        <ele>172</ele>
        <time>2016-09-20T08:11:16Z</time>
      </trkpt>
      <trkpt lat="45.9291" lon="4.73036">
        <ele>172</ele>
        <time>2016-09-20T08:11:17Z</time>
      </trkpt>
      <trkpt lat="45.92914" lon="4.7303">
        <ele>172</ele>
        <time>2016-09-20T08:11:18Z</time>
      </trkpt>
      <trkpt lat="45.92918" lon="4.73023">
        <ele>172</ele>
        <time>2016-09-20T08:11:19Z</time>
      </trkpt>
      <trkpt lat="45.92924" lon="4.73014">
        <ele>172</ele>
        <time>2016-09-20T08:11:20Z</time>
      </trkpt>
      <trkpt lat="45.92929" lon="4.73008">
        <ele>172</ele>
        <time>2016-09-20T08:11:21Z</time>
      </trkpt>
      <trkpt lat="45.92934" lon="4.73002">
        <ele>171</ele>
        <time>2016-09-20T08:11:22Z</time>
      </trkpt>
      <trkpt lat="45.92938" lon="4.72998">
        <ele>171</ele>
        <time>2016-09-20T08:11:23Z</time>
      </trkpt>
      <trkpt lat="45.92943" lon="4.72992">
        <ele>171</ele>
        <time>2016-09-20T08:11:24Z</time>
      </trkpt>
      <trkpt lat="45.92947" lon="4.72988">
        <ele>171</ele>
        <time>2016-09-20T08:11:25Z</time>
      </trkpt>
      <trkpt lat="45.92951" lon="4.72983">
        <ele>171</ele>
        <time>2016-09-20T08:11:26Z</time>
      </trkpt>
      <trkpt lat="45.92955" lon="4.72978">
        <ele>171</ele>
        <time>2016-09-20T08:11:27Z</time>
      </trkpt>
      <trkpt lat="45.9296" lon="4.72974">
        <ele>171</ele>
        <time>2016-09-20T08:11:28Z</time>
      </trkpt>
      <trkpt lat="45.92964" lon="4.72969">
        <ele>171</ele>
        <time>2016-09-20T08:11:29Z</time>
      </trkpt>
      <trkpt lat="45.92968" lon="4.72964">
        <ele>171</ele>
        <time>2016-09-20T08:11:30Z</time>
      </trkpt>
      <trkpt lat="45.92972" lon="4.7296">
        <ele>171</ele>
        <time>2016-09-20T08:11:31Z</time>
      </trkpt>
      <trkpt lat="45.92975" lon="4.72956">
        <ele>171</ele>
        <time>2016-09-20T08:11:32Z</time>
      </trkpt>
      <trkpt lat="45.92981" lon="4.72948">
        <ele>171</ele>
        <time>2016-09-20T08:11:34Z</time>
      </trkpt>
      <trkpt lat="45.92984" lon="4.72945">
        <ele>171</ele>
        <time>2016-09-20T08:11:35Z</time>
      </trkpt>
      <trkpt lat="45.9299" lon="4.72937">
        <ele>171</ele>
        <time>2016-09-20T08:11:37Z</time>
      </trkpt>
      <trkpt lat="45.92993" lon="4.72933">
        <ele>171</ele>
        <time>2016-09-20T08:11:38Z</time>
      </trkpt>
      <trkpt lat="45.92999" lon="4.72925">
        <ele>171</ele>
        <time>2016-09-20T08:11:40Z</time>
      </trkpt>
      <trkpt lat="45.93003" lon="4.72921">
        <ele>171</ele>
        <time>2016-09-20T08:11:41Z</time>
      </trkpt>
      <trkpt lat="45.93006" lon="4.72917">
        <ele>171</ele>
        <time>2016-09-20T08:11:42Z</time>
      </trkpt>
      <trkpt lat="45.9301" lon="4.72914">
        <ele>171</ele>
        <time>2016-09-20T08:11:43Z</time>
      </trkpt>
      <trkpt lat="45.93017" lon="4.72907">
        <ele>172</ele>
        <time>2016-09-20T08:11:45Z</time>
      </trkpt>
      <trkpt lat="45.9302" lon="4.72903">
        <ele>172</ele>
        <time>2016-09-20T08:11:46Z</time>
      </trkpt>
      <trkpt lat="45.93026" lon="4.72896">
        <ele>172</ele>
        <time>2016-09-20T08:11:49Z</time>
      </trkpt>
      <trkpt lat="45.93026" lon="4.72892">
        <ele>172</ele>
        <time>2016-09-20T08:11:50Z</time>
      </trkpt>
      <trkpt lat="45.93032" lon="4.72883">
        <ele>172</ele>
        <time>2016-09-20T08:11:53Z</time>
      </trkpt>
      <trkpt lat="45.93034" lon="4.72881">
        <ele>172</ele>
        <time>2016-09-20T08:11:54Z</time>
      </trkpt>
      <trkpt lat="45.93037" lon="4.72878">
        <ele>172</ele>
        <time>2016-09-20T08:11:56Z</time>
      </trkpt>
      <trkpt lat="45.93037" lon="4.72877">
        <ele>172</ele>
        <time>2016-09-20T08:11:57Z</time>
      </trkpt>
      <trkpt lat="45.93038" lon="4.72876">
        <ele>172</ele>
        <time>2016-09-20T08:12:06Z</time>
      </trkpt>
      <trkpt lat="45.93039" lon="4.72874">
        <ele>172</ele>
        <time>2016-09-20T08:12:07Z</time>
      </trkpt>
      <trkpt lat="45.93045" lon="4.72869">
        <ele>172</ele>
        <time>2016-09-20T08:12:09Z</time>
      </trkpt>
      <trkpt lat="45.93047" lon="4.72867">
        <ele>172</ele>
        <time>2016-09-20T08:12:10Z</time>
      </trkpt>
      <trkpt lat="45.93052" lon="4.72861">
        <ele>172</ele>
        <time>2016-09-20T08:12:12Z</time>
      </trkpt>
      <trkpt lat="45.93056" lon="4.72858">
        <ele>172</ele>
        <time>2016-09-20T08:12:13Z</time>
      </trkpt>
      <trkpt lat="45.93064" lon="4.72854">
        <ele>172</ele>
        <time>2016-09-20T08:12:15Z</time>
      </trkpt>
      <trkpt lat="45.93067" lon="4.72852">
        <ele>172</ele>
        <time>2016-09-20T08:12:16Z</time>
      </trkpt>
      <trkpt lat="45.93075" lon="4.72848">
        <ele>172</ele>
        <time>2016-09-20T08:12:18Z</time>
      </trkpt>
      <trkpt lat="45.93079" lon="4.72847">
        <ele>173</ele>
        <time>2016-09-20T08:12:19Z</time>
      </trkpt>
      <trkpt lat="45.93083" lon="4.72846">
        <ele>173</ele>
        <time>2016-09-20T08:12:20Z</time>
      </trkpt>
      <trkpt lat="45.93089" lon="4.72844">
        <ele>172</ele>
        <time>2016-09-20T08:12:21Z</time>
      </trkpt>
      <trkpt lat="45.93093" lon="4.72829">
        <ele>172</ele>
        <time>2016-09-20T08:12:22Z</time>
      </trkpt>
      <trkpt lat="45.93096" lon="4.72818">
        <ele>172</ele>
        <time>2016-09-20T08:12:23Z</time>
      </trkpt>
      <trkpt lat="45.93102" lon="4.72813">
        <ele>172</ele>
        <time>2016-09-20T08:12:24Z</time>
      </trkpt>
      <trkpt lat="45.93108" lon="4.72806">
        <ele>171</ele>
        <time>2016-09-20T08:12:25Z</time>
      </trkpt>
      <trkpt lat="45.93114" lon="4.728">
        <ele>171</ele>
        <time>2016-09-20T08:12:26Z</time>
      </trkpt>
      <trkpt lat="45.9312" lon="4.72794">
        <ele>171</ele>
        <time>2016-09-20T08:12:27Z</time>
      </trkpt>
      <trkpt lat="45.93126" lon="4.72788">
        <ele>171</ele>
        <time>2016-09-20T08:12:28Z</time>
      </trkpt>
      <trkpt lat="45.9313" lon="4.72782">
        <ele>171</ele>
        <time>2016-09-20T08:12:29Z</time>
      </trkpt>
      <trkpt lat="45.93135" lon="4.72776">
        <ele>171</ele>
        <time>2016-09-20T08:12:30Z</time>
      </trkpt>
      <trkpt lat="45.9314" lon="4.7277">
        <ele>171</ele>
        <time>2016-09-20T08:12:31Z</time>
      </trkpt>
      <trkpt lat="45.93144" lon="4.72764">
        <ele>171</ele>
        <time>2016-09-20T08:12:32Z</time>
      </trkpt>
      <trkpt lat="45.93149" lon="4.72759">
        <ele>170</ele>
        <time>2016-09-20T08:12:33Z</time>
      </trkpt>
      <trkpt lat="45.93154" lon="4.72753">
        <ele>170</ele>
        <time>2016-09-20T08:12:34Z</time>
      </trkpt>
      <trkpt lat="45.93158" lon="4.72749">
        <ele>170</ele>
        <time>2016-09-20T08:12:35Z</time>
      </trkpt>
      <trkpt lat="45.93163" lon="4.72744">
        <ele>170</ele>
        <time>2016-09-20T08:12:36Z</time>
      </trkpt>
      <trkpt lat="45.93167" lon="4.72739">
        <ele>170</ele>
        <time>2016-09-20T08:12:37Z</time>
      </trkpt>
      <trkpt lat="45.93171" lon="4.72733">
        <ele>170</ele>
        <time>2016-09-20T08:12:38Z</time>
      </trkpt>
      <trkpt lat="45.93175" lon="4.72729">
        <ele>170</ele>
        <time>2016-09-20T08:12:39Z</time>
      </trkpt>
      <trkpt lat="45.9318" lon="4.72724">
        <ele>169</ele>
        <time>2016-09-20T08:12:40Z</time>
      </trkpt>
      <trkpt lat="45.93185" lon="4.72718">
        <ele>169</ele>
        <time>2016-09-20T08:12:41Z</time>
      </trkpt>
      <trkpt lat="45.93189" lon="4.72713">
        <ele>169</ele>
        <time>2016-09-20T08:12:42Z</time>
      </trkpt>
      <trkpt lat="45.93193" lon="4.72707">
        <ele>169</ele>
        <time>2016-09-20T08:12:43Z</time>
      </trkpt>
      <trkpt lat="45.93198" lon="4.72702">
        <ele>169</ele>
        <time>2016-09-20T08:12:44Z</time>
      </trkpt>
      <trkpt lat="45.93203" lon="4.72696">
        <ele>169</ele>
        <time>2016-09-20T08:12:45Z</time>
      </trkpt>
      <trkpt lat="45.93208" lon="4.7269">
        <ele>169</ele>
        <time>2016-09-20T08:12:46Z</time>
      </trkpt>
      <trkpt lat="45.93213" lon="4.72685">
        <ele>169</ele>
        <time>2016-09-20T08:12:47Z</time>
      </trkpt>
      <trkpt lat="45.93218" lon="4.72679">
        <ele>169</ele>
        <time>2016-09-20T08:12:48Z</time>
      </trkpt>
      <trkpt lat="45.93223" lon="4.72673">
        <ele>169</ele>
        <time>2016-09-20T08:12:49Z</time>
      </trkpt>
      <trkpt lat="45.93228" lon="4.72667">
        <ele>169</ele>
        <time>2016-09-20T08:12:50Z</time>
      </trkpt>
      <trkpt lat="45.93233" lon="4.72661">
        <ele>169</ele>
        <time>2016-09-20T08:12:51Z</time>
      </trkpt>
      <trkpt lat="45.93238" lon="4.72655">
        <ele>169</ele>
        <time>2016-09-20T08:12:52Z</time>
      </trkpt>
      <trkpt lat="45.93244" lon="4.72648">
        <ele>169</ele>
        <time>2016-09-20T08:12:53Z</time>
      </trkpt>
      <trkpt lat="45.93249" lon="4.72642">
        <ele>170</ele>
        <time>2016-09-20T08:12:54Z</time>
      </trkpt>
      <trkpt lat="45.93254" lon="4.72636">
        <ele>170</ele>
        <time>2016-09-20T08:12:55Z</time>
      </trkpt>
      <trkpt lat="45.93259" lon="4.7263">
        <ele>170</ele>
        <time>2016-09-20T08:12:56Z</time>
      </trkpt>
      <trkpt lat="45.93263" lon="4.72624">
        <ele>170</ele>
        <time>2016-09-20T08:12:57Z</time>
      </trkpt>
      <trkpt lat="45.93268" lon="4.72618">
        <ele>170</ele>
        <time>2016-09-20T08:12:58Z</time>
      </trkpt>
      <trkpt lat="45.93273" lon="4.72612">
        <ele>170</ele>
        <time>2016-09-20T08:12:59Z</time>
      </trkpt>
      <trkpt lat="45.93277" lon="4.72606">
        <ele>170</ele>
        <time>2016-09-20T08:13:00Z</time>
      </trkpt>
      <trkpt lat="45.93283" lon="4.726">
        <ele>170</ele>
        <time>2016-09-20T08:13:01Z</time>
      </trkpt>
      <trkpt lat="45.93288" lon="4.72594">
        <ele>170</ele>
        <time>2016-09-20T08:13:02Z</time>
      </trkpt>
      <trkpt lat="45.93293" lon="4.72587">
        <ele>170</ele>
        <time>2016-09-20T08:13:03Z</time>
      </trkpt>
      <trkpt lat="45.93298" lon="4.72581">
        <ele>171</ele>
        <time>2016-09-20T08:13:04Z</time>
      </trkpt>
      <trkpt lat="45.93303" lon="4.72575">
        <ele>171</ele>
        <time>2016-09-20T08:13:05Z</time>
      </trkpt>
      <trkpt lat="45.93307" lon="4.72574">
        <ele>171</ele>
        <time>2016-09-20T08:13:06Z</time>
      </trkpt>
      <trkpt lat="45.93311" lon="4.7257">
        <ele>171</ele>
        <time>2016-09-20T08:13:07Z</time>
      </trkpt>
      <trkpt lat="45.93316" lon="4.72563">
        <ele>171</ele>
        <time>2016-09-20T08:13:08Z</time>
      </trkpt>
      <trkpt lat="45.93321" lon="4.72558">
        <ele>171</ele>
        <time>2016-09-20T08:13:09Z</time>
      </trkpt>
      <trkpt lat="45.93328" lon="4.72548">
        <ele>172</ele>
        <time>2016-09-20T08:13:10Z</time>
      </trkpt>
      <trkpt lat="45.93333" lon="4.72541">
        <ele>172</ele>
        <time>2016-09-20T08:13:11Z</time>
      </trkpt>
      <trkpt lat="45.93339" lon="4.72533">
        <ele>172</ele>
        <time>2016-09-20T08:13:12Z</time>
      </trkpt>
      <trkpt lat="45.93344" lon="4.72528">
        <ele>172</ele>
        <time>2016-09-20T08:13:13Z</time>
      </trkpt>
      <trkpt lat="45.9335" lon="4.72521">
        <ele>172</ele>
        <time>2016-09-20T08:13:14Z</time>
      </trkpt>
      <trkpt lat="45.93355" lon="4.72515">
        <ele>172</ele>
        <time>2016-09-20T08:13:15Z</time>
      </trkpt>
      <trkpt lat="45.9336" lon="4.72509">
        <ele>172</ele>
        <time>2016-09-20T08:13:16Z</time>
      </trkpt>
      <trkpt lat="45.93366" lon="4.72503">
        <ele>172</ele>
        <time>2016-09-20T08:13:17Z</time>
      </trkpt>
      <trkpt lat="45.93371" lon="4.72497">
        <ele>173</ele>
        <time>2016-09-20T08:13:18Z</time>
      </trkpt>
      <trkpt lat="45.93375" lon="4.72491">
        <ele>173</ele>
        <time>2016-09-20T08:13:19Z</time>
      </trkpt>
      <trkpt lat="45.9338" lon="4.72485">
        <ele>173</ele>
        <time>2016-09-20T08:13:20Z</time>
      </trkpt>
      <trkpt lat="45.93385" lon="4.72479">
        <ele>173</ele>
        <time>2016-09-20T08:13:21Z</time>
      </trkpt>
      <trkpt lat="45.93389" lon="4.72473">
        <ele>173</ele>
        <time>2016-09-20T08:13:22Z</time>
      </trkpt>
      <trkpt lat="45.93392" lon="4.72467">
        <ele>173</ele>
        <time>2016-09-20T08:13:23Z</time>
      </trkpt>
      <trkpt lat="45.93395" lon="4.7246">
        <ele>173</ele>
        <time>2016-09-20T08:13:24Z</time>
      </trkpt>
      <trkpt lat="45.93398" lon="4.72451">
        <ele>173</ele>
        <time>2016-09-20T08:13:25Z</time>
      </trkpt>
      <trkpt lat="45.934" lon="4.72444">
        <ele>173</ele>
        <time>2016-09-20T08:13:26Z</time>
      </trkpt>
      <trkpt lat="45.93403" lon="4.72437">
        <ele>173</ele>
        <time>2016-09-20T08:13:27Z</time>
      </trkpt>
      <trkpt lat="45.93406" lon="4.7243">
        <ele>173</ele>
        <time>2016-09-20T08:13:28Z</time>
      </trkpt>
      <trkpt lat="45.9341" lon="4.72423">
        <ele>174</ele>
        <time>2016-09-20T08:13:29Z</time>
      </trkpt>
      <trkpt lat="45.93415" lon="4.72418">
        <ele>174</ele>
        <time>2016-09-20T08:13:30Z</time>
      </trkpt>
      <trkpt lat="45.9342" lon="4.72414">
        <ele>174</ele>
        <time>2016-09-20T08:13:31Z</time>
      </trkpt>
      <trkpt lat="45.93424" lon="4.72413">
        <ele>174</ele>
        <time>2016-09-20T08:13:32Z</time>
      </trkpt>
      <trkpt lat="45.93429" lon="4.72412">
        <ele>174</ele>
        <time>2016-09-20T08:13:33Z</time>
      </trkpt>
      <trkpt lat="45.93434" lon="4.7241">
        <ele>174</ele>
        <time>2016-09-20T08:13:34Z</time>
      </trkpt>
      <trkpt lat="45.93439" lon="4.72407">
        <ele>174</ele>
        <time>2016-09-20T08:13:35Z</time>
      </trkpt>
      <trkpt lat="45.93445" lon="4.72403">
        <ele>173</ele>
        <time>2016-09-20T08:13:36Z</time>
      </trkpt>
      <trkpt lat="45.9345" lon="4.724">
        <ele>173</ele>
        <time>2016-09-20T08:13:37Z</time>
      </trkpt>
      <trkpt lat="45.93456" lon="4.72394">
        <ele>173</ele>
        <time>2016-09-20T08:13:38Z</time>
      </trkpt>
      <trkpt lat="45.93462" lon="4.72386">
        <ele>173</ele>
        <time>2016-09-20T08:13:39Z</time>
      </trkpt>
      <trkpt lat="45.93466" lon="4.72379">
        <ele>173</ele>
        <time>2016-09-20T08:13:40Z</time>
      </trkpt>
      <trkpt lat="45.9347" lon="4.72372">
        <ele>173</ele>
        <time>2016-09-20T08:13:41Z</time>
      </trkpt>
      <trkpt lat="45.93475" lon="4.72366">
        <ele>173</ele>
        <time>2016-09-20T08:13:42Z</time>
      </trkpt>
      <trkpt lat="45.93479" lon="4.7236">
        <ele>173</ele>
        <time>2016-09-20T08:13:43Z</time>
      </trkpt>
      <trkpt lat="45.93483" lon="4.72352">
        <ele>173</ele>
        <time>2016-09-20T08:13:44Z</time>
      </trkpt>
      <trkpt lat="45.93486" lon="4.72347">
        <ele>173</ele>
        <time>2016-09-20T08:13:45Z</time>
      </trkpt>
      <trkpt lat="45.9349" lon="4.72343">
        <ele>173</ele>
        <time>2016-09-20T08:13:46Z</time>
      </trkpt>
      <trkpt lat="45.93495" lon="4.72337">
        <ele>173</ele>
        <time>2016-09-20T08:13:47Z</time>
      </trkpt>
      <trkpt lat="45.93499" lon="4.72331">
        <ele>173</ele>
        <time>2016-09-20T08:13:48Z</time>
      </trkpt>
      <trkpt lat="45.93503" lon="4.72326">
        <ele>173</ele>
        <time>2016-09-20T08:13:49Z</time>
      </trkpt>
      <trkpt lat="45.93508" lon="4.72319">
        <ele>173</ele>
        <time>2016-09-20T08:13:50Z</time>
      </trkpt>
      <trkpt lat="45.93513" lon="4.72312">
        <ele>173</ele>
        <time>2016-09-20T08:13:51Z</time>
      </trkpt>
      <trkpt lat="45.93517" lon="4.72306">
        <ele>173</ele>
        <time>2016-09-20T08:13:52Z</time>
      </trkpt>
      <trkpt lat="45.9352" lon="4.72298">
        <ele>172</ele>
        <time>2016-09-20T08:13:53Z</time>
      </trkpt>
      <trkpt lat="45.93523" lon="4.72291">
        <ele>172</ele>
        <time>2016-09-20T08:13:54Z</time>
      </trkpt>
      <trkpt lat="45.93526" lon="4.72284">
        <ele>172</ele>
        <time>2016-09-20T08:13:55Z</time>
      </trkpt>
      <trkpt lat="45.93528" lon="4.72278">
        <ele>172</ele>
        <time>2016-09-20T08:13:56Z</time>
      </trkpt>
      <trkpt lat="45.93531" lon="4.72271">
        <ele>172</ele>
        <time>2016-09-20T08:13:57Z</time>
      </trkpt>
      <trkpt lat="45.93534" lon="4.72264">
        <ele>172</ele>
        <time>2016-09-20T08:13:58Z</time>
      </trkpt>
      <trkpt lat="45.93537" lon="4.72258">
        <ele>172</ele>
        <time>2016-09-20T08:13:59Z</time>
      </trkpt>
      <trkpt lat="45.93539" lon="4.72251">
        <ele>172</ele>
        <time>2016-09-20T08:14:00Z</time>
      </trkpt>
      <trkpt lat="45.93542" lon="4.72245">
        <ele>172</ele>
        <time>2016-09-20T08:14:01Z</time>
      </trkpt>
      <trkpt lat="45.93544" lon="4.72239">
        <ele>172</ele>
        <time>2016-09-20T08:14:02Z</time>
      </trkpt>
      <trkpt lat="45.93547" lon="4.72233">
        <ele>172</ele>
        <time>2016-09-20T08:14:03Z</time>
      </trkpt>
      <trkpt lat="45.93551" lon="4.72228">
        <ele>172</ele>
        <time>2016-09-20T08:14:04Z</time>
      </trkpt>
      <trkpt lat="45.93556" lon="4.72225">
        <ele>173</ele>
        <time>2016-09-20T08:14:05Z</time>
      </trkpt>
      <trkpt lat="45.93561" lon="4.72225">
        <ele>173</ele>
        <time>2016-09-20T08:14:06Z</time>
      </trkpt>
      <trkpt lat="45.93565" lon="4.72227">
        <ele>173</ele>
        <time>2016-09-20T08:14:07Z</time>
      </trkpt>
      <trkpt lat="45.93569" lon="4.72231">
        <ele>173</ele>
        <time>2016-09-20T08:14:08Z</time>
      </trkpt>
      <trkpt lat="45.93573" lon="4.72235">
        <ele>173</ele>
        <time>2016-09-20T08:14:09Z</time>
      </trkpt>
      <trkpt lat="45.93577" lon="4.72239">
        <ele>173</ele>
        <time>2016-09-20T08:14:10Z</time>
      </trkpt>
      <trkpt lat="45.93582" lon="4.72244">
        <ele>173</ele>
        <time>2016-09-20T08:14:11Z</time>
      </trkpt>
      <trkpt lat="45.93586" lon="4.72247">
        <ele>173</ele>
        <time>2016-09-20T08:14:12Z</time>
      </trkpt>
      <trkpt lat="45.93589" lon="4.72251">
        <ele>173</ele>
        <time>2016-09-20T08:14:13Z</time>
      </trkpt>
      <trkpt lat="45.93593" lon="4.72255">
        <ele>173</ele>
        <time>2016-09-20T08:14:14Z</time>
      </trkpt>
      <trkpt lat="45.93598" lon="4.72259">
        <ele>173</ele>
        <time>2016-09-20T08:14:15Z</time>
      </trkpt>
      <trkpt lat="45.93602" lon="4.72264">
        <ele>173</ele>
        <time>2016-09-20T08:14:16Z</time>
      </trkpt>
      <trkpt lat="45.93607" lon="4.72268">
        <ele>172</ele>
        <time>2016-09-20T08:14:17Z</time>
      </trkpt>
      <trkpt lat="45.9361" lon="4.72271">
        <ele>172</ele>
        <time>2016-09-20T08:14:18Z</time>
      </trkpt>
      <trkpt lat="45.93615" lon="4.72276">
        <ele>172</ele>
        <time>2016-09-20T08:14:19Z</time>
      </trkpt>
      <trkpt lat="45.9362" lon="4.72282">
        <ele>172</ele>
        <time>2016-09-20T08:14:20Z</time>
      </trkpt>
      <trkpt lat="45.93625" lon="4.72287">
        <ele>172</ele>
        <time>2016-09-20T08:14:21Z</time>
      </trkpt>
      <trkpt lat="45.93629" lon="4.72291">
        <ele>172</ele>
        <time>2016-09-20T08:14:22Z</time>
      </trkpt>
      <trkpt lat="45.93634" lon="4.72295">
        <ele>172</ele>
        <time>2016-09-20T08:14:23Z</time>
      </trkpt>
      <trkpt lat="45.93638" lon="4.72298">
        <ele>172</ele>
        <time>2016-09-20T08:14:24Z</time>
      </trkpt>
      <trkpt lat="45.93643" lon="4.72301">
        <ele>172</ele>
        <time>2016-09-20T08:14:25Z</time>
      </trkpt>
      <trkpt lat="45.93647" lon="4.72305">
        <ele>172</ele>
        <time>2016-09-20T08:14:26Z</time>
      </trkpt>
      <trkpt lat="45.93651" lon="4.72308">
        <ele>172</ele>
        <time>2016-09-20T08:14:27Z</time>
      </trkpt>
      <trkpt lat="45.93655" lon="4.72313">
        <ele>172</ele>
        <time>2016-09-20T08:14:28Z</time>
      </trkpt>
      <trkpt lat="45.93661" lon="4.7232">
        <ele>172</ele>
        <time>2016-09-20T08:14:29Z</time>
      </trkpt>
      <trkpt lat="45.93666" lon="4.72324">
        <ele>171</ele>
        <time>2016-09-20T08:14:30Z</time>
      </trkpt>
      <trkpt lat="45.93671" lon="4.72328">
        <ele>171</ele>
        <time>2016-09-20T08:14:31Z</time>
      </trkpt>
      <trkpt lat="45.93675" lon="4.72332">
        <ele>171</ele>
        <time>2016-09-20T08:14:32Z</time>
      </trkpt>
      <trkpt lat="45.93679" lon="4.72336">
        <ele>171</ele>
        <time>2016-09-20T08:14:33Z</time>
      </trkpt>
      <trkpt lat="45.93683" lon="4.7234">
        <ele>171</ele>
        <time>2016-09-20T08:14:34Z</time>
      </trkpt>
      <trkpt lat="45.93689" lon="4.72346">
        <ele>171</ele>
        <time>2016-09-20T08:14:36Z</time>
      </trkpt>
      <trkpt lat="45.93695" lon="4.72347">
        <ele>171</ele>
        <time>2016-09-20T08:14:37Z</time>
      </trkpt>
      <trkpt lat="45.937" lon="4.7235">
        <ele>171</ele>
        <time>2016-09-20T08:14:38Z</time>
      </trkpt>
      <trkpt lat="45.93705" lon="4.72352">
        <ele>171</ele>
        <time>2016-09-20T08:14:39Z</time>
      </trkpt>
      <trkpt lat="45.93711" lon="4.72353">
        <ele>172</ele>
        <time>2016-09-20T08:14:40Z</time>
      </trkpt>
      <trkpt lat="45.93715" lon="4.7235">
        <ele>172</ele>
        <time>2016-09-20T08:14:41Z</time>
      </trkpt>
      <trkpt lat="45.93718" lon="4.72347">
        <ele>172</ele>
        <time>2016-09-20T08:14:42Z</time>
      </trkpt>
      <trkpt lat="45.93722" lon="4.72342">
        <ele>172</ele>
        <time>2016-09-20T08:14:43Z</time>
      </trkpt>
      <trkpt lat="45.93725" lon="4.72337">
        <ele>172</ele>
        <time>2016-09-20T08:14:44Z</time>
      </trkpt>
      <trkpt lat="45.93728" lon="4.7233">
        <ele>172</ele>
        <time>2016-09-20T08:14:45Z</time>
      </trkpt>
      <trkpt lat="45.93732" lon="4.72323">
        <ele>172</ele>
        <time>2016-09-20T08:14:46Z</time>
      </trkpt>
      <trkpt lat="45.93736" lon="4.72316">
        <ele>172</ele>
        <time>2016-09-20T08:14:47Z</time>
      </trkpt>
      <trkpt lat="45.9374" lon="4.72309">
        <ele>172</ele>
        <time>2016-09-20T08:14:48Z</time>
      </trkpt>
      <trkpt lat="45.93744" lon="4.72302">
        <ele>172</ele>
        <time>2016-09-20T08:14:49Z</time>
      </trkpt>
      <trkpt lat="45.93748" lon="4.72295">
        <ele>172</ele>
        <time>2016-09-20T08:14:50Z</time>
      </trkpt>
      <trkpt lat="45.93751" lon="4.72289">
        <ele>172</ele>
        <time>2016-09-20T08:14:51Z</time>
      </trkpt>
      <trkpt lat="45.93755" lon="4.72282">
        <ele>172</ele>
        <time>2016-09-20T08:14:52Z</time>
      </trkpt>
      <trkpt lat="45.93759" lon="4.72275">
        <ele>172</ele>
        <time>2016-09-20T08:14:53Z</time>
      </trkpt>
      <trkpt lat="45.93763" lon="4.72268">
        <ele>172</ele>
        <time>2016-09-20T08:14:54Z</time>
      </trkpt>
      <trkpt lat="45.93767" lon="4.72261">
        <ele>172</ele>
        <time>2016-09-20T08:14:55Z</time>
      </trkpt>
      <trkpt lat="45.93771" lon="4.72254">
        <ele>172</ele>
        <time>2016-09-20T08:14:56Z</time>
      </trkpt>
      <trkpt lat="45.93775" lon="4.72248">
        <ele>172</ele>
        <time>2016-09-20T08:14:57Z</time>
      </trkpt>
      <trkpt lat="45.9378" lon="4.72241">
        <ele>172</ele>
        <time>2016-09-20T08:14:58Z</time>
      </trkpt>
      <trkpt lat="45.93784" lon="4.72235">
        <ele>172</ele>
        <time>2016-09-20T08:14:59Z</time>
      </trkpt>
      <trkpt lat="45.93789" lon="4.72228">
        <ele>172</ele>
        <time>2016-09-20T08:15:00Z</time>
      </trkpt>
      <trkpt lat="45.93793" lon="4.72222">
        <ele>172</ele>
        <time>2016-09-20T08:15:01Z</time>
      </trkpt>
      <trkpt lat="45.93797" lon="4.72216">
        <ele>172</ele>
        <time>2016-09-20T08:15:02Z</time>
      </trkpt>
      <trkpt lat="45.93802" lon="4.72211">
        <ele>172</ele>
        <time>2016-09-20T08:15:03Z</time>
      </trkpt>
      <trkpt lat="45.93806" lon="4.72206">
        <ele>172</ele>
        <time>2016-09-20T08:15:04Z</time>
      </trkpt>
      <trkpt lat="45.93809" lon="4.722">
        <ele>172</ele>
        <time>2016-09-20T08:15:05Z</time>
      </trkpt>
      <trkpt lat="45.93812" lon="4.72192">
        <ele>172</ele>
        <time>2016-09-20T08:15:06Z</time>
      </trkpt>
      <trkpt lat="45.93814" lon="4.72184">
        <ele>172</ele>
        <time>2016-09-20T08:15:07Z</time>
      </trkpt>
      <trkpt lat="45.93817" lon="4.72177">
        <ele>172</ele>
        <time>2016-09-20T08:15:08Z</time>
      </trkpt>
      <trkpt lat="45.9382" lon="4.72172">
        <ele>172</ele>
        <time>2016-09-20T08:15:09Z</time>
      </trkpt>
      <trkpt lat="45.93824" lon="4.72168">
        <ele>171</ele>
        <time>2016-09-20T08:15:10Z</time>
      </trkpt>
      <trkpt lat="45.93828" lon="4.72165">
        <ele>172</ele>
        <time>2016-09-20T08:15:11Z</time>
      </trkpt>
      <trkpt lat="45.93833" lon="4.72156">
        <ele>172</ele>
        <time>2016-09-20T08:15:13Z</time>
      </trkpt>
      <trkpt lat="45.93834" lon="4.72152">
        <ele>171</ele>
        <time>2016-09-20T08:15:14Z</time>
      </trkpt>
      <trkpt lat="45.9384" lon="4.72142">
        <ele>172</ele>
        <time>2016-09-20T08:15:18Z</time>
      </trkpt>
      <trkpt lat="45.93841" lon="4.7214">
        <ele>172</ele>
        <time>2016-09-20T08:15:19Z</time>
      </trkpt>
      <trkpt lat="45.93848" lon="4.72131">
        <ele>172</ele>
        <time>2016-09-20T08:15:22Z</time>
      </trkpt>
      <trkpt lat="45.9385" lon="4.72127">
        <ele>172</ele>
        <time>2016-09-20T08:15:23Z</time>
      </trkpt>
      <trkpt lat="45.93856" lon="4.72118">
        <ele>172</ele>
        <time>2016-09-20T08:15:25Z</time>
      </trkpt>
      <trkpt lat="45.93859" lon="4.72113">
        <ele>172</ele>
        <time>2016-09-20T08:15:26Z</time>
      </trkpt>
      <trkpt lat="45.93862" lon="4.72108">
        <ele>172</ele>
        <time>2016-09-20T08:15:27Z</time>
      </trkpt>
      <trkpt lat="45.93866" lon="4.72102">
        <ele>172</ele>
        <time>2016-09-20T08:15:28Z</time>
      </trkpt>
      <trkpt lat="45.93873" lon="4.72095">
        <ele>172</ele>
        <time>2016-09-20T08:15:30Z</time>
      </trkpt>
      <trkpt lat="45.93876" lon="4.7209">
        <ele>172</ele>
        <time>2016-09-20T08:15:31Z</time>
      </trkpt>
      <trkpt lat="45.93881" lon="4.7208">
        <ele>172</ele>
        <time>2016-09-20T08:15:33Z</time>
      </trkpt>
      <trkpt lat="45.93884" lon="4.72077">
        <ele>172</ele>
        <time>2016-09-20T08:15:34Z</time>
      </trkpt>
      <trkpt lat="45.9389" lon="4.72069">
        <ele>172</ele>
        <time>2016-09-20T08:15:36Z</time>
      </trkpt>
      <trkpt lat="45.93893" lon="4.72066">
        <ele>172</ele>
        <time>2016-09-20T08:15:37Z</time>
      </trkpt>
      <trkpt lat="45.939" lon="4.72059">
        <ele>172</ele>
        <time>2016-09-20T08:15:39Z</time>
      </trkpt>
      <trkpt lat="45.93904" lon="4.72055">
        <ele>172</ele>
        <time>2016-09-20T08:15:40Z</time>
      </trkpt>
      <trkpt lat="45.93909" lon="4.72051">
        <ele>172</ele>
        <time>2016-09-20T08:15:41Z</time>
      </trkpt>
      <trkpt lat="45.93914" lon="4.72047">
        <ele>172</ele>
        <time>2016-09-20T08:15:42Z</time>
      </trkpt>
      <trkpt lat="45.93919" lon="4.72042">
        <ele>172</ele>
        <time>2016-09-20T08:15:43Z</time>
      </trkpt>
      <trkpt lat="45.93924" lon="4.72037">
        <ele>172</ele>
        <time>2016-09-20T08:15:44Z</time>
      </trkpt>
      <trkpt lat="45.93928" lon="4.72031">
        <ele>172</ele>
        <time>2016-09-20T08:15:45Z</time>
      </trkpt>
      <trkpt lat="45.93933" lon="4.72026">
        <ele>172</ele>
        <time>2016-09-20T08:15:46Z</time>
      </trkpt>
      <trkpt lat="45.93938" lon="4.72021">
        <ele>172</ele>
        <time>2016-09-20T08:15:47Z</time>
      </trkpt>
      <trkpt lat="45.93942" lon="4.72017">
        <ele>172</ele>
        <time>2016-09-20T08:15:48Z</time>
      </trkpt>
      <trkpt lat="45.93946" lon="4.72013">
        <ele>172</ele>
        <time>2016-09-20T08:15:49Z</time>
      </trkpt>
      <trkpt lat="45.93951" lon="4.72009">
        <ele>172</ele>
        <time>2016-09-20T08:15:50Z</time>
      </trkpt>
      <trkpt lat="45.93955" lon="4.72005">
        <ele>172</ele>
        <time>2016-09-20T08:15:51Z</time>
      </trkpt>
      <trkpt lat="45.9396" lon="4.72001">
        <ele>172</ele>
        <time>2016-09-20T08:15:52Z</time>
      </trkpt>
      <trkpt lat="45.93964" lon="4.71997">
        <ele>173</ele>
        <time>2016-09-20T08:15:53Z</time>
      </trkpt>
      <trkpt lat="45.93968" lon="4.71992">
        <ele>173</ele>
        <time>2016-09-20T08:15:54Z</time>
      </trkpt>
      <trkpt lat="45.93972" lon="4.71987">
        <ele>173</ele>
        <time>2016-09-20T08:15:55Z</time>
      </trkpt>
      <trkpt lat="45.93976" lon="4.71981">
        <ele>173</ele>
        <time>2016-09-20T08:15:56Z</time>
      </trkpt>
      <trkpt lat="45.9398" lon="4.71976">
        <ele>173</ele>
        <time>2016-09-20T08:15:57Z</time>
      </trkpt>
      <trkpt lat="45.93984" lon="4.71971">
        <ele>173</ele>
        <time>2016-09-20T08:15:58Z</time>
      </trkpt>
      <trkpt lat="45.93989" lon="4.71968">
        <ele>173</ele>
        <time>2016-09-20T08:15:59Z</time>
      </trkpt>
      <trkpt lat="45.93994" lon="4.71969">
        <ele>173</ele>
        <time>2016-09-20T08:16:00Z</time>
      </trkpt>
      <trkpt lat="45.93999" lon="4.7197">
        <ele>173</ele>
        <time>2016-09-20T08:16:01Z</time>
      </trkpt>
      <trkpt lat="45.94003" lon="4.71973">
        <ele>174</ele>
        <time>2016-09-20T08:16:02Z</time>
      </trkpt>
      <trkpt lat="45.94009" lon="4.71982">
        <ele>174</ele>
        <time>2016-09-20T08:16:04Z</time>
      </trkpt>
      <trkpt lat="45.94012" lon="4.71987">
        <ele>174</ele>
        <time>2016-09-20T08:16:05Z</time>
      </trkpt>
      <trkpt lat="45.94017" lon="4.71993">
        <ele>174</ele>
        <time>2016-09-20T08:16:06Z</time>
      </trkpt>
      <trkpt lat="45.9402" lon="4.71999">
        <ele>174</ele>
        <time>2016-09-20T08:16:07Z</time>
      </trkpt>
      <trkpt lat="45.94024" lon="4.72004">
        <ele>173</ele>
        <time>2016-09-20T08:16:08Z</time>
      </trkpt>
      <trkpt lat="45.94028" lon="4.7201">
        <ele>173</ele>
        <time>2016-09-20T08:16:09Z</time>
      </trkpt>
      <trkpt lat="45.9403" lon="4.72015">
        <ele>173</ele>
        <time>2016-09-20T08:16:10Z</time>
      </trkpt>
      <trkpt lat="45.94033" lon="4.72021">
        <ele>173</ele>
        <time>2016-09-20T08:16:11Z</time>
      </trkpt>
      <trkpt lat="45.94037" lon="4.72026">
        <ele>173</ele>
        <time>2016-09-20T08:16:12Z</time>
      </trkpt>
      <trkpt lat="45.9404" lon="4.7203">
        <ele>173</ele>
        <time>2016-09-20T08:16:13Z</time>
      </trkpt>
      <trkpt lat="45.94048" lon="4.72034">
        <ele>173</ele>
        <time>2016-09-20T08:16:15Z</time>
      </trkpt>
      <trkpt lat="45.94052" lon="4.72034">
        <ele>173</ele>
        <time>2016-09-20T08:16:16Z</time>
      </trkpt>
      <trkpt lat="45.94056" lon="4.72031">
        <ele>174</ele>
        <time>2016-09-20T08:16:17Z</time>
      </trkpt>
      <trkpt lat="45.94061" lon="4.72027">
        <ele>174</ele>
        <time>2016-09-20T08:16:18Z</time>
      </trkpt>
      <trkpt lat="45.94064" lon="4.72022">
        <ele>174</ele>
        <time>2016-09-20T08:16:19Z</time>
      </trkpt>
      <trkpt lat="45.94068" lon="4.72016">
        <ele>174</ele>
        <time>2016-09-20T08:16:20Z</time>
      </trkpt>
      <trkpt lat="45.94071" lon="4.7201">
        <ele>174</ele>
        <time>2016-09-20T08:16:21Z</time>
      </trkpt>
      <trkpt lat="45.94075" lon="4.72005">
        <ele>174</ele>
        <time>2016-09-20T08:16:22Z</time>
      </trkpt>
      <trkpt lat="45.9408" lon="4.72">
        <ele>175</ele>
        <time>2016-09-20T08:16:23Z</time>
      </trkpt>
      <trkpt lat="45.94084" lon="4.71996">
        <ele>175</ele>
        <time>2016-09-20T08:16:24Z</time>
      </trkpt>
      <trkpt lat="45.94088" lon="4.71992">
        <ele>175</ele>
        <time>2016-09-20T08:16:25Z</time>
      </trkpt>
      <trkpt lat="45.94092" lon="4.71988">
        <ele>174</ele>
        <time>2016-09-20T08:16:26Z</time>
      </trkpt>
      <trkpt lat="45.94096" lon="4.71984">
        <ele>174</ele>
        <time>2016-09-20T08:16:27Z</time>
      </trkpt>
      <trkpt lat="45.941" lon="4.7198">
        <ele>174</ele>
        <time>2016-09-20T08:16:28Z</time>
      </trkpt>
      <trkpt lat="45.94107" lon="4.71973">
        <ele>174</ele>
        <time>2016-09-20T08:16:30Z</time>
      </trkpt>
      <trkpt lat="45.9411" lon="4.7197">
        <ele>174</ele>
        <time>2016-09-20T08:16:31Z</time>
      </trkpt>
      <trkpt lat="45.94115" lon="4.71968">
        <ele>174</ele>
        <time>2016-09-20T08:16:32Z</time>
      </trkpt>
      <trkpt lat="45.9412" lon="4.71967">
        <ele>174</ele>
        <time>2016-09-20T08:16:33Z</time>
      </trkpt>
      <trkpt lat="45.94125" lon="4.71966">
        <ele>174</ele>
        <time>2016-09-20T08:16:34Z</time>
      </trkpt>
      <trkpt lat="45.9413" lon="4.71967">
        <ele>174</ele>
        <time>2016-09-20T08:16:35Z</time>
      </trkpt>
      <trkpt lat="45.94136" lon="4.71969">
        <ele>174</ele>
        <time>2016-09-20T08:16:36Z</time>
      </trkpt>
      <trkpt lat="45.9414" lon="4.71973">
        <ele>174</ele>
        <time>2016-09-20T08:16:37Z</time>
      </trkpt>
      <trkpt lat="45.94143" lon="4.71978">
        <ele>174</ele>
        <time>2016-09-20T08:16:38Z</time>
      </trkpt>
      <trkpt lat="45.94146" lon="4.71983">
        <ele>173</ele>
        <time>2016-09-20T08:16:39Z</time>
      </trkpt>
      <trkpt lat="45.94149" lon="4.71988">
        <ele>173</ele>
        <time>2016-09-20T08:16:40Z</time>
      </trkpt>
      <trkpt lat="45.94151" lon="4.71994">
        <ele>173</ele>
        <time>2016-09-20T08:16:41Z</time>
      </trkpt>
      <trkpt lat="45.94155" lon="4.72003">
        <ele>173</ele>
        <time>2016-09-20T08:16:43Z</time>
      </trkpt>
      <trkpt lat="45.94157" lon="4.72007">
        <ele>173</ele>
        <time>2016-09-20T08:16:44Z</time>
      </trkpt>
      <trkpt lat="45.94161" lon="4.72016">
        <ele>173</ele>
        <time>2016-09-20T08:16:46Z</time>
      </trkpt>
      <trkpt lat="45.94164" lon="4.72021">
        <ele>173</ele>
        <time>2016-09-20T08:16:47Z</time>
      </trkpt>
      <trkpt lat="45.94169" lon="4.72031">
        <ele>173</ele>
        <time>2016-09-20T08:16:49Z</time>
      </trkpt>
      <trkpt lat="45.94171" lon="4.72036">
        <ele>173</ele>
        <time>2016-09-20T08:16:50Z</time>
      </trkpt>
      <trkpt lat="45.94175" lon="4.72045">
        <ele>173</ele>
        <time>2016-09-20T08:16:52Z</time>
      </trkpt>
      <trkpt lat="45.94177" lon="4.7205">
        <ele>173</ele>
        <time>2016-09-20T08:16:53Z</time>
      </trkpt>
      <trkpt lat="45.94181" lon="4.72059">
        <ele>173</ele>
        <time>2016-09-20T08:16:55Z</time>
      </trkpt>
      <trkpt lat="45.94184" lon="4.72064">
        <ele>173</ele>
        <time>2016-09-20T08:16:56Z</time>
      </trkpt>
      <trkpt lat="45.94186" lon="4.7207">
        <ele>173</ele>
        <time>2016-09-20T08:16:57Z</time>
      </trkpt>
      <trkpt lat="45.94188" lon="4.72075">
        <ele>173</ele>
        <time>2016-09-20T08:16:58Z</time>
      </trkpt>
      <trkpt lat="45.94191" lon="4.72081">
        <ele>173</ele>
        <time>2016-09-20T08:16:59Z</time>
      </trkpt>
      <trkpt lat="45.94194" lon="4.72087">
        <ele>172</ele>
        <time>2016-09-20T08:17:00Z</time>
      </trkpt>
      <trkpt lat="45.94196" lon="4.72094">
        <ele>172</ele>
        <time>2016-09-20T08:17:01Z</time>
      </trkpt>
      <trkpt lat="45.94199" lon="4.72101">
        <ele>172</ele>
        <time>2016-09-20T08:17:02Z</time>
      </trkpt>
      <trkpt lat="45.94202" lon="4.72108">
        <ele>173</ele>
        <time>2016-09-20T08:17:03Z</time>
      </trkpt>
      <trkpt lat="45.94205" lon="4.72115">
        <ele>173</ele>
        <time>2016-09-20T08:17:04Z</time>
      </trkpt>
      <trkpt lat="45.94209" lon="4.72123">
        <ele>173</ele>
        <time>2016-09-20T08:17:05Z</time>
      </trkpt>
      <trkpt lat="45.94212" lon="4.72132">
        <ele>173</ele>
        <time>2016-09-20T08:17:06Z</time>
      </trkpt>
      <trkpt lat="45.94216" lon="4.7214">
        <ele>173</ele>
        <time>2016-09-20T08:17:07Z</time>
      </trkpt>
      <trkpt lat="45.9422" lon="4.72149">
        <ele>173</ele>
        <time>2016-09-20T08:17:08Z</time>
      </trkpt>
      <trkpt lat="45.94224" lon="4.72158">
        <ele>173</ele>
        <time>2016-09-20T08:17:09Z</time>
      </trkpt>
      <trkpt lat="45.94228" lon="4.72167">
        <ele>172</ele>
        <time>2016-09-20T08:17:10Z</time>
      </trkpt>
      <trkpt lat="45.94232" lon="4.72177">
        <ele>172</ele>
        <time>2016-09-20T08:17:11Z</time>
      </trkpt>
      <trkpt lat="45.94237" lon="4.72186">
        <ele>172</ele>
        <time>2016-09-20T08:17:12Z</time>
      </trkpt>
      <trkpt lat="45.94241" lon="4.72196">
        <ele>172</ele>
        <time>2016-09-20T08:17:13Z</time>
      </trkpt>
      <trkpt lat="45.94245" lon="4.72205">
        <ele>172</ele>
        <time>2016-09-20T08:17:14Z</time>
      </trkpt>
      <trkpt lat="45.94249" lon="4.72215">
        <ele>171</ele>
        <time>2016-09-20T08:17:15Z</time>
      </trkpt>
      <trkpt lat="45.94253" lon="4.72224">
        <ele>172</ele>
        <time>2016-09-20T08:17:16Z</time>
      </trkpt>
      <trkpt lat="45.94257" lon="4.72233">
        <ele>171</ele>
        <time>2016-09-20T08:17:17Z</time>
      </trkpt>
      <trkpt lat="45.9426" lon="4.72242">
        <ele>171</ele>
        <time>2016-09-20T08:17:18Z</time>
      </trkpt>
      <trkpt lat="45.94264" lon="4.72251">
        <ele>171</ele>
        <time>2016-09-20T08:17:19Z</time>
      </trkpt>
      <trkpt lat="45.94268" lon="4.72259">
        <ele>171</ele>
        <time>2016-09-20T08:17:20Z</time>
      </trkpt>
      <trkpt lat="45.94271" lon="4.72267">
        <ele>171</ele>
        <time>2016-09-20T08:17:21Z</time>
      </trkpt>
      <trkpt lat="45.94274" lon="4.72274">
        <ele>171</ele>
        <time>2016-09-20T08:17:22Z</time>
      </trkpt>
      <trkpt lat="45.94277" lon="4.72282">
        <ele>171</ele>
        <time>2016-09-20T08:17:23Z</time>
      </trkpt>
      <trkpt lat="45.94281" lon="4.72289">
        <ele>171</ele>
        <time>2016-09-20T08:17:24Z</time>
      </trkpt>
      <trkpt lat="45.94284" lon="4.72296">
        <ele>171</ele>
        <time>2016-09-20T08:17:25Z</time>
      </trkpt>
      <trkpt lat="45.94287" lon="4.72303">
        <ele>171</ele>
        <time>2016-09-20T08:17:26Z</time>
      </trkpt>
      <trkpt lat="45.94291" lon="4.72311">
        <ele>171</ele>
        <time>2016-09-20T08:17:27Z</time>
      </trkpt>
      <trkpt lat="45.94294" lon="4.72318">
        <ele>171</ele>
        <time>2016-09-20T08:17:28Z</time>
      </trkpt>
      <trkpt lat="45.94298" lon="4.72326">
        <ele>171</ele>
        <time>2016-09-20T08:17:29Z</time>
      </trkpt>
      <trkpt lat="45.943" lon="4.72334">
        <ele>172</ele>
        <time>2016-09-20T08:17:30Z</time>
      </trkpt>
      <trkpt lat="45.94304" lon="4.72342">
        <ele>172</ele>
        <time>2016-09-20T08:17:31Z</time>
      </trkpt>
      <trkpt lat="45.94307" lon="4.72349">
        <ele>172</ele>
        <time>2016-09-20T08:17:32Z</time>
      </trkpt>
      <trkpt lat="45.94309" lon="4.72356">
        <ele>172</ele>
        <time>2016-09-20T08:17:33Z</time>
      </trkpt>
      <trkpt lat="45.94312" lon="4.72363">
        <ele>172</ele>
        <time>2016-09-20T08:17:34Z</time>
      </trkpt>
      <trkpt lat="45.94315" lon="4.72369">
        <ele>172</ele>
        <time>2016-09-20T08:17:35Z</time>
      </trkpt>
      <trkpt lat="45.94318" lon="4.72375">
        <ele>172</ele>
        <time>2016-09-20T08:17:36Z</time>
      </trkpt>
      <trkpt lat="45.94321" lon="4.72382">
        <ele>172</ele>
        <time>2016-09-20T08:17:37Z</time>
      </trkpt>
      <trkpt lat="45.94324" lon="4.72388">
        <ele>172</ele>
        <time>2016-09-20T08:17:38Z</time>
      </trkpt>
      <trkpt lat="45.94327" lon="4.72394">
        <ele>172</ele>
        <time>2016-09-20T08:17:39Z</time>
      </trkpt>
      <trkpt lat="45.9433" lon="4.72401">
        <ele>173</ele>
        <time>2016-09-20T08:17:40Z</time>
      </trkpt>
      <trkpt lat="45.94333" lon="4.72409">
        <ele>173</ele>
        <time>2016-09-20T08:17:41Z</time>
      </trkpt>
      <trkpt lat="45.94337" lon="4.72416">
        <ele>173</ele>
        <time>2016-09-20T08:17:42Z</time>
      </trkpt>
      <trkpt lat="45.9434" lon="4.72424">
        <ele>173</ele>
        <time>2016-09-20T08:17:43Z</time>
      </trkpt>
      <trkpt lat="45.94344" lon="4.72431">
        <ele>173</ele>
        <time>2016-09-20T08:17:44Z</time>
      </trkpt>
      <trkpt lat="45.94347" lon="4.72438">
        <ele>173</ele>
        <time>2016-09-20T08:17:45Z</time>
      </trkpt>
      <trkpt lat="45.9435" lon="4.72445">
        <ele>173</ele>
        <time>2016-09-20T08:17:46Z</time>
      </trkpt>
      <trkpt lat="45.94353" lon="4.72451">
        <ele>173</ele>
        <time>2016-09-20T08:17:47Z</time>
      </trkpt>
      <trkpt lat="45.94356" lon="4.72457">
        <ele>173</ele>
        <time>2016-09-20T08:17:48Z</time>
      </trkpt>
      <trkpt lat="45.94359" lon="4.72465">
        <ele>173</ele>
        <time>2016-09-20T08:17:49Z</time>
      </trkpt>
      <trkpt lat="45.94361" lon="4.72472">
        <ele>173</ele>
        <time>2016-09-20T08:17:50Z</time>
      </trkpt>
      <trkpt lat="45.94363" lon="4.72478">
        <ele>173</ele>
        <time>2016-09-20T08:17:51Z</time>
      </trkpt>
      <trkpt lat="45.94366" lon="4.72485">
        <ele>173</ele>
        <time>2016-09-20T08:17:52Z</time>
      </trkpt>
      <trkpt lat="45.94368" lon="4.72492">
        <ele>173</ele>
        <time>2016-09-20T08:17:53Z</time>
      </trkpt>
      <trkpt lat="45.94371" lon="4.72499">
        <ele>173</ele>
        <time>2016-09-20T08:17:54Z</time>
      </trkpt>
      <trkpt lat="45.94373" lon="4.72506">
        <ele>173</ele>
        <time>2016-09-20T08:17:55Z</time>
      </trkpt>
      <trkpt lat="45.94375" lon="4.72514">
        <ele>174</ele>
        <time>2016-09-20T08:17:56Z</time>
      </trkpt>
      <trkpt lat="45.94377" lon="4.72521">
        <ele>174</ele>
        <time>2016-09-20T08:17:57Z</time>
      </trkpt>
      <trkpt lat="45.94379" lon="4.72529">
        <ele>174</ele>
        <time>2016-09-20T08:17:58Z</time>
      </trkpt>
      <trkpt lat="45.94381" lon="4.72537">
        <ele>174</ele>
        <time>2016-09-20T08:17:59Z</time>
      </trkpt>
      <trkpt lat="45.94383" lon="4.72545">
        <ele>173</ele>
        <time>2016-09-20T08:18:00Z</time>
      </trkpt>
      <trkpt lat="45.94384" lon="4.72553">
        <ele>173</ele>
        <time>2016-09-20T08:18:01Z</time>
      </trkpt>
      <trkpt lat="45.94386" lon="4.7256">
        <ele>173</ele>
        <time>2016-09-20T08:18:02Z</time>
      </trkpt>
      <trkpt lat="45.94387" lon="4.72569">
        <ele>173</ele>
        <time>2016-09-20T08:18:03Z</time>
      </trkpt>
      <trkpt lat="45.94388" lon="4.72577">
        <ele>173</ele>
        <time>2016-09-20T08:18:04Z</time>
      </trkpt>
      <trkpt lat="45.94389" lon="4.72586">
        <ele>173</ele>
        <time>2016-09-20T08:18:05Z</time>
      </trkpt>
      <trkpt lat="45.94391" lon="4.72594">
        <ele>173</ele>
        <time>2016-09-20T08:18:06Z</time>
      </trkpt>
      <trkpt lat="45.94392" lon="4.72603">
        <ele>173</ele>
        <time>2016-09-20T08:18:07Z</time>
      </trkpt>
      <trkpt lat="45.94394" lon="4.72611">
        <ele>173</ele>
        <time>2016-09-20T08:18:08Z</time>
      </trkpt>
      <trkpt lat="45.94394" lon="4.72619">
        <ele>173</ele>
        <time>2016-09-20T08:18:09Z</time>
      </trkpt>
      <trkpt lat="45.94395" lon="4.72626">
        <ele>174</ele>
        <time>2016-09-20T08:18:10Z</time>
      </trkpt>
      <trkpt lat="45.94396" lon="4.72633">
        <ele>174</ele>
        <time>2016-09-20T08:18:11Z</time>
      </trkpt>
      <trkpt lat="45.94397" lon="4.72641">
        <ele>174</ele>
        <time>2016-09-20T08:18:12Z</time>
      </trkpt>
      <trkpt lat="45.94398" lon="4.72649">
        <ele>174</ele>
        <time>2016-09-20T08:18:13Z</time>
      </trkpt>
      <trkpt lat="45.94399" lon="4.72657">
        <ele>174</ele>
        <time>2016-09-20T08:18:14Z</time>
      </trkpt>
      <trkpt lat="45.944" lon="4.72664">
        <ele>174</ele>
        <time>2016-09-20T08:18:15Z</time>
      </trkpt>
      <trkpt lat="45.94401" lon="4.72673">
        <ele>173</ele>
        <time>2016-09-20T08:18:16Z</time>
      </trkpt>
      <trkpt lat="45.94402" lon="4.7268">
        <ele>173</ele>
        <time>2016-09-20T08:18:17Z</time>
      </trkpt>
      <trkpt lat="45.94403" lon="4.72688">
        <ele>173</ele>
        <time>2016-09-20T08:18:18Z</time>
      </trkpt>
      <trkpt lat="45.94405" lon="4.72697">
        <ele>172</ele>
        <time>2016-09-20T08:18:19Z</time>
      </trkpt>
      <trkpt lat="45.94406" lon="4.72705">
        <ele>172</ele>
        <time>2016-09-20T08:18:20Z</time>
      </trkpt>
      <trkpt lat="45.94407" lon="4.72713">
        <ele>172</ele>
        <time>2016-09-20T08:18:21Z</time>
      </trkpt>
      <trkpt lat="45.94408" lon="4.7272">
        <ele>172</ele>
        <time>2016-09-20T08:18:22Z</time>
      </trkpt>
      <trkpt lat="45.94409" lon="4.72727">
        <ele>172</ele>
        <time>2016-09-20T08:18:23Z</time>
      </trkpt>
      <trkpt lat="45.9441" lon="4.72734">
        <ele>172</ele>
        <time>2016-09-20T08:18:24Z</time>
      </trkpt>
      <trkpt lat="45.94411" lon="4.72742">
        <ele>171</ele>
        <time>2016-09-20T08:18:25Z</time>
      </trkpt>
      <trkpt lat="45.94412" lon="4.72749">
        <ele>171</ele>
        <time>2016-09-20T08:18:26Z</time>
      </trkpt>
      <trkpt lat="45.94413" lon="4.72756">
        <ele>170</ele>
        <time>2016-09-20T08:18:27Z</time>
      </trkpt>
      <trkpt lat="45.94414" lon="4.72763">
        <ele>170</ele>
        <time>2016-09-20T08:18:28Z</time>
      </trkpt>
      <trkpt lat="45.94415" lon="4.7277">
        <ele>169</ele>
        <time>2016-09-20T08:18:29Z</time>
      </trkpt>
      <trkpt lat="45.94416" lon="4.72777">
        <ele>169</ele>
        <time>2016-09-20T08:18:30Z</time>
      </trkpt>
      <trkpt lat="45.94417" lon="4.72784">
        <ele>168</ele>
        <time>2016-09-20T08:18:31Z</time>
      </trkpt>
      <trkpt lat="45.94418" lon="4.72791">
        <ele>168</ele>
        <time>2016-09-20T08:18:32Z</time>
      </trkpt>
      <trkpt lat="45.94419" lon="4.72798">
        <ele>167</ele>
        <time>2016-09-20T08:18:33Z</time>
      </trkpt>
      <trkpt lat="45.9442" lon="4.72805">
        <ele>167</ele>
        <time>2016-09-20T08:18:34Z</time>
      </trkpt>
      <trkpt lat="45.94421" lon="4.72812">
        <ele>167</ele>
        <time>2016-09-20T08:18:35Z</time>
      </trkpt>
      <trkpt lat="45.94422" lon="4.72819">
        <ele>167</ele>
        <time>2016-09-20T08:18:36Z</time>
      </trkpt>
      <trkpt lat="45.94423" lon="4.72826">
        <ele>166</ele>
        <time>2016-09-20T08:18:37Z</time>
      </trkpt>
      <trkpt lat="45.94424" lon="4.72834">
        <ele>166</ele>
        <time>2016-09-20T08:18:38Z</time>
      </trkpt>
      <trkpt lat="45.94425" lon="4.7284">
        <ele>166</ele>
        <time>2016-09-20T08:18:39Z</time>
      </trkpt>
      <trkpt lat="45.94426" lon="4.72847">
        <ele>166</ele>
        <time>2016-09-20T08:18:40Z</time>
      </trkpt>
      <trkpt lat="45.94428" lon="4.72858">
        <ele>166</ele>
        <time>2016-09-20T08:18:42Z</time>
      </trkpt>
      <trkpt lat="45.94429" lon="4.72864">
        <ele>166</ele>
        <time>2016-09-20T08:18:43Z</time>
      </trkpt>
      <trkpt lat="45.9443" lon="4.72875">
        <ele>166</ele>
        <time>2016-09-20T08:18:45Z</time>
      </trkpt>
      <trkpt lat="45.94431" lon="4.72881">
        <ele>166</ele>
        <time>2016-09-20T08:18:46Z</time>
      </trkpt>
      <trkpt lat="45.94432" lon="4.72892">
        <ele>166</ele>
        <time>2016-09-20T08:18:48Z</time>
      </trkpt>
      <trkpt lat="45.94433" lon="4.72898">
        <ele>166</ele>
        <time>2016-09-20T08:18:49Z</time>
      </trkpt>
      <trkpt lat="45.94433" lon="4.72904">
        <ele>166</ele>
        <time>2016-09-20T08:18:50Z</time>
      </trkpt>
      <trkpt lat="45.94434" lon="4.72911">
        <ele>166</ele>
        <time>2016-09-20T08:18:51Z</time>
      </trkpt>
      <trkpt lat="45.94435" lon="4.72917">
        <ele>167</ele>
        <time>2016-09-20T08:18:52Z</time>
      </trkpt>
      <trkpt lat="45.94435" lon="4.72924">
        <ele>167</ele>
        <time>2016-09-20T08:18:53Z</time>
      </trkpt>
      <trkpt lat="45.94436" lon="4.72931">
        <ele>167</ele>
        <time>2016-09-20T08:18:54Z</time>
      </trkpt>
      <trkpt lat="45.94437" lon="4.72938">
        <ele>167</ele>
        <time>2016-09-20T08:18:55Z</time>
      </trkpt>
      <trkpt lat="45.94438" lon="4.72946">
        <ele>167</ele>
        <time>2016-09-20T08:18:56Z</time>
      </trkpt>
      <trkpt lat="45.94439" lon="4.72953">
        <ele>167</ele>
        <time>2016-09-20T08:18:57Z</time>
      </trkpt>
      <trkpt lat="45.94441" lon="4.72961">
        <ele>167</ele>
        <time>2016-09-20T08:18:58Z</time>
      </trkpt>
      <trkpt lat="45.94442" lon="4.72969">
        <ele>167</ele>
        <time>2016-09-20T08:18:59Z</time>
      </trkpt>
      <trkpt lat="45.94443" lon="4.72977">
        <ele>167</ele>
        <time>2016-09-20T08:19:00Z</time>
      </trkpt>
      <trkpt lat="45.94444" lon="4.72986">
        <ele>167</ele>
        <time>2016-09-20T08:19:01Z</time>
      </trkpt>
      <trkpt lat="45.94445" lon="4.72995">
        <ele>167</ele>
        <time>2016-09-20T08:19:02Z</time>
      </trkpt>
      <trkpt lat="45.94446" lon="4.73004">
        <ele>169</ele>
        <time>2016-09-20T08:19:03Z</time>
      </trkpt>
      <trkpt lat="45.94447" lon="4.73013">
        <ele>169</ele>
        <time>2016-09-20T08:19:04Z</time>
      </trkpt>
      <trkpt lat="45.94448" lon="4.73023">
        <ele>169</ele>
        <time>2016-09-20T08:19:05Z</time>
      </trkpt>
      <trkpt lat="45.9445" lon="4.73032">
        <ele>169</ele>
        <time>2016-09-20T08:19:06Z</time>
      </trkpt>
      <trkpt lat="45.94451" lon="4.73042">
        <ele>169</ele>
        <time>2016-09-20T08:19:07Z</time>
      </trkpt>
      <trkpt lat="45.94453" lon="4.73052">
        <ele>169</ele>
        <time>2016-09-20T08:19:08Z</time>
      </trkpt>
      <trkpt lat="45.94454" lon="4.73062">
        <ele>170</ele>
        <time>2016-09-20T08:19:09Z</time>
      </trkpt>
      <trkpt lat="45.94456" lon="4.73072">
        <ele>170</ele>
        <time>2016-09-20T08:19:10Z</time>
      </trkpt>
      <trkpt lat="45.94457" lon="4.73081">
        <ele>170</ele>
        <time>2016-09-20T08:19:11Z</time>
      </trkpt>
      <trkpt lat="45.94458" lon="4.73091">
        <ele>171</ele>
        <time>2016-09-20T08:19:12Z</time>
      </trkpt>
      <trkpt lat="45.94459" lon="4.731">
        <ele>171</ele>
        <time>2016-09-20T08:19:13Z</time>
      </trkpt>
      <trkpt lat="45.9446" lon="4.73108">
        <ele>172</ele>
        <time>2016-09-20T08:19:14Z</time>
      </trkpt>
      <trkpt lat="45.94461" lon="4.73116">
        <ele>172</ele>
        <time>2016-09-20T08:19:15Z</time>
      </trkpt>
      <trkpt lat="45.94462" lon="4.73124">
        <ele>172</ele>
        <time>2016-09-20T08:19:16Z</time>
      </trkpt>
      <trkpt lat="45.94463" lon="4.73133">
        <ele>172</ele>
        <time>2016-09-20T08:19:17Z</time>
      </trkpt>
      <trkpt lat="45.94464" lon="4.73141">
        <ele>172</ele>
        <time>2016-09-20T08:19:18Z</time>
      </trkpt>
      <trkpt lat="45.94465" lon="4.73149">
        <ele>172</ele>
        <time>2016-09-20T08:19:19Z</time>
      </trkpt>
      <trkpt lat="45.94467" lon="4.73157">
        <ele>172</ele>
        <time>2016-09-20T08:19:20Z</time>
      </trkpt>
      <trkpt lat="45.94468" lon="4.73165">
        <ele>172</ele>
        <time>2016-09-20T08:19:21Z</time>
      </trkpt>
      <trkpt lat="45.94469" lon="4.73172">
        <ele>174</ele>
        <time>2016-09-20T08:19:22Z</time>
      </trkpt>
      <trkpt lat="45.9447" lon="4.73179">
        <ele>174</ele>
        <time>2016-09-20T08:19:23Z</time>
      </trkpt>
      <trkpt lat="45.94471" lon="4.73187">
        <ele>174</ele>
        <time>2016-09-20T08:19:24Z</time>
      </trkpt>
      <trkpt lat="45.94472" lon="4.73194">
        <ele>174</ele>
        <time>2016-09-20T08:19:25Z</time>
      </trkpt>
      <trkpt lat="45.94473" lon="4.73202">
        <ele>174</ele>
        <time>2016-09-20T08:19:26Z</time>
      </trkpt>
      <trkpt lat="45.94474" lon="4.73209">
        <ele>175</ele>
        <time>2016-09-20T08:19:27Z</time>
      </trkpt>
      <trkpt lat="45.94474" lon="4.73216">
        <ele>175</ele>
        <time>2016-09-20T08:19:28Z</time>
      </trkpt>
      <trkpt lat="45.94475" lon="4.73224">
        <ele>175</ele>
        <time>2016-09-20T08:19:29Z</time>
      </trkpt>
      <trkpt lat="45.94476" lon="4.73231">
        <ele>175</ele>
        <time>2016-09-20T08:19:30Z</time>
      </trkpt>
      <trkpt lat="45.94477" lon="4.73237">
        <ele>175</ele>
        <time>2016-09-20T08:19:31Z</time>
      </trkpt>
      <trkpt lat="45.94479" lon="4.73249">
        <ele>175</ele>
        <time>2016-09-20T08:19:33Z</time>
      </trkpt>
      <trkpt lat="45.94481" lon="4.73255">
        <ele>176</ele>
        <time>2016-09-20T08:19:34Z</time>
      </trkpt>
      <trkpt lat="45.94482" lon="4.73262">
        <ele>177</ele>
        <time>2016-09-20T08:19:35Z</time>
      </trkpt>
      <trkpt lat="45.94483" lon="4.73269">
        <ele>177</ele>
        <time>2016-09-20T08:19:36Z</time>
      </trkpt>
      <trkpt lat="45.94484" lon="4.73276">
        <ele>177</ele>
        <time>2016-09-20T08:19:37Z</time>
      </trkpt>
      <trkpt lat="45.94484" lon="4.73283">
        <ele>177</ele>
        <time>2016-09-20T08:19:38Z</time>
      </trkpt>
      <trkpt lat="45.94485" lon="4.7329">
        <ele>177</ele>
        <time>2016-09-20T08:19:39Z</time>
      </trkpt>
      <trkpt lat="45.94486" lon="4.73297">
        <ele>177</ele>
        <time>2016-09-20T08:19:40Z</time>
      </trkpt>
      <trkpt lat="45.94486" lon="4.73303">
        <ele>177</ele>
        <time>2016-09-20T08:19:41Z</time>
      </trkpt>
      <trkpt lat="45.94487" lon="4.7331">
        <ele>177</ele>
        <time>2016-09-20T08:19:42Z</time>
      </trkpt>
      <trkpt lat="45.94488" lon="4.73317">
        <ele>177</ele>
        <time>2016-09-20T08:19:43Z</time>
      </trkpt>
      <trkpt lat="45.94489" lon="4.73323">
        <ele>177</ele>
        <time>2016-09-20T08:19:44Z</time>
      </trkpt>
      <trkpt lat="45.9449" lon="4.7333">
        <ele>177</ele>
        <time>2016-09-20T08:19:45Z</time>
      </trkpt>
      <trkpt lat="45.9449" lon="4.73337">
        <ele>178</ele>
        <time>2016-09-20T08:19:46Z</time>
      </trkpt>
      <trkpt lat="45.94491" lon="4.73344">
        <ele>178</ele>
        <time>2016-09-20T08:19:47Z</time>
      </trkpt>
      <trkpt lat="45.94492" lon="4.73352">
        <ele>178</ele>
        <time>2016-09-20T08:19:48Z</time>
      </trkpt>
      <trkpt lat="45.94492" lon="4.73358">
        <ele>178</ele>
        <time>2016-09-20T08:19:49Z</time>
      </trkpt>
      <trkpt lat="45.94493" lon="4.73365">
        <ele>179</ele>
        <time>2016-09-20T08:19:50Z</time>
      </trkpt>
      <trkpt lat="45.94494" lon="4.73373">
        <ele>179</ele>
        <time>2016-09-20T08:19:51Z</time>
      </trkpt>
      <trkpt lat="45.94494" lon="4.7338">
        <ele>179</ele>
        <time>2016-09-20T08:19:52Z</time>
      </trkpt>
      <trkpt lat="45.94495" lon="4.73387">
        <ele>179</ele>
        <time>2016-09-20T08:19:53Z</time>
      </trkpt>
      <trkpt lat="45.94496" lon="4.73394">
        <ele>179</ele>
        <time>2016-09-20T08:19:54Z</time>
      </trkpt>
      <trkpt lat="45.94496" lon="4.73402">
        <ele>180</ele>
        <time>2016-09-20T08:19:55Z</time>
      </trkpt>
      <trkpt lat="45.94496" lon="4.73409">
        <ele>180</ele>
        <time>2016-09-20T08:19:56Z</time>
      </trkpt>
      <trkpt lat="45.94497" lon="4.73416">
        <ele>180</ele>
        <time>2016-09-20T08:19:57Z</time>
      </trkpt>
      <trkpt lat="45.94497" lon="4.73423">
        <ele>181</ele>
        <time>2016-09-20T08:19:58Z</time>
      </trkpt>
      <trkpt lat="45.94497" lon="4.7343">
        <ele>181</ele>
        <time>2016-09-20T08:19:59Z</time>
      </trkpt>
      <trkpt lat="45.94497" lon="4.73437">
        <ele>181</ele>
        <time>2016-09-20T08:20:00Z</time>
      </trkpt>
      <trkpt lat="45.94497" lon="4.73444">
        <ele>181</ele>
        <time>2016-09-20T08:20:01Z</time>
      </trkpt>
      <trkpt lat="45.94497" lon="4.73451">
        <ele>182</ele>
        <time>2016-09-20T08:20:02Z</time>
      </trkpt>
      <trkpt lat="45.94498" lon="4.73464">
        <ele>182</ele>
        <time>2016-09-20T08:20:04Z</time>
      </trkpt>
      <trkpt lat="45.94498" lon="4.7347">
        <ele>182</ele>
        <time>2016-09-20T08:20:05Z</time>
      </trkpt>
      <trkpt lat="45.94499" lon="4.73478">
        <ele>182</ele>
        <time>2016-09-20T08:20:06Z</time>
      </trkpt>
      <trkpt lat="45.94499" lon="4.73485">
        <ele>182</ele>
        <time>2016-09-20T08:20:07Z</time>
      </trkpt>
      <trkpt lat="45.94499" lon="4.73492">
        <ele>183</ele>
        <time>2016-09-20T08:20:08Z</time>
      </trkpt>
      <trkpt lat="45.94498" lon="4.73499">
        <ele>183</ele>
        <time>2016-09-20T08:20:09Z</time>
      </trkpt>
      <trkpt lat="45.94498" lon="4.73505">
        <ele>183</ele>
        <time>2016-09-20T08:20:10Z</time>
      </trkpt>
      <trkpt lat="45.94498" lon="4.73513">
        <ele>184</ele>
        <time>2016-09-20T08:20:11Z</time>
      </trkpt>
      <trkpt lat="45.94497" lon="4.73521">
        <ele>184</ele>
        <time>2016-09-20T08:20:12Z</time>
      </trkpt>
      <trkpt lat="45.94496" lon="4.73528">
        <ele>184</ele>
        <time>2016-09-20T08:20:13Z</time>
      </trkpt>
      <trkpt lat="45.94497" lon="4.73535">
        <ele>184</ele>
        <time>2016-09-20T08:20:14Z</time>
      </trkpt>
      <trkpt lat="45.94497" lon="4.73541">
        <ele>184</ele>
        <time>2016-09-20T08:20:15Z</time>
      </trkpt>
      <trkpt lat="45.94497" lon="4.73548">
        <ele>185</ele>
        <time>2016-09-20T08:20:16Z</time>
      </trkpt>
      <trkpt lat="45.94497" lon="4.73554">
        <ele>185</ele>
        <time>2016-09-20T08:20:17Z</time>
      </trkpt>
      <trkpt lat="45.94496" lon="4.73567">
        <ele>185</ele>
        <time>2016-09-20T08:20:19Z</time>
      </trkpt>
      <trkpt lat="45.94497" lon="4.73573">
        <ele>185</ele>
        <time>2016-09-20T08:20:20Z</time>
      </trkpt>
      <trkpt lat="45.94497" lon="4.7358">
        <ele>185</ele>
        <time>2016-09-20T08:20:21Z</time>
      </trkpt>
      <trkpt lat="45.94496" lon="4.73587">
        <ele>185</ele>
        <time>2016-09-20T08:20:22Z</time>
      </trkpt>
      <trkpt lat="45.94495" lon="4.73595">
        <ele>185</ele>
        <time>2016-09-20T08:20:23Z</time>
      </trkpt>
      <trkpt lat="45.94495" lon="4.73602">
        <ele>185</ele>
        <time>2016-09-20T08:20:24Z</time>
      </trkpt>
      <trkpt lat="45.94495" lon="4.7361">
        <ele>186</ele>
        <time>2016-09-20T08:20:25Z</time>
      </trkpt>
      <trkpt lat="45.94494" lon="4.73617">
        <ele>186</ele>
        <time>2016-09-20T08:20:26Z</time>
      </trkpt>
      <trkpt lat="45.94493" lon="4.73625">
        <ele>186</ele>
        <time>2016-09-20T08:20:27Z</time>
      </trkpt>
      <trkpt lat="45.94492" lon="4.73632">
        <ele>186</ele>
        <time>2016-09-20T08:20:28Z</time>
      </trkpt>
      <trkpt lat="45.94491" lon="4.73639">
        <ele>186</ele>
        <time>2016-09-20T08:20:29Z</time>
      </trkpt>
      <trkpt lat="45.9449" lon="4.73646">
        <ele>186</ele>
        <time>2016-09-20T08:20:30Z</time>
      </trkpt>
      <trkpt lat="45.94489" lon="4.73654">
        <ele>185</ele>
        <time>2016-09-20T08:20:31Z</time>
      </trkpt>
      <trkpt lat="45.94487" lon="4.73661">
        <ele>185</ele>
        <time>2016-09-20T08:20:32Z</time>
      </trkpt>
      <trkpt lat="45.94486" lon="4.73669">
        <ele>185</ele>
        <time>2016-09-20T08:20:33Z</time>
      </trkpt>
      <trkpt lat="45.94485" lon="4.73676">
        <ele>186</ele>
        <time>2016-09-20T08:20:34Z</time>
      </trkpt>
      <trkpt lat="45.94484" lon="4.73684">
        <ele>186</ele>
        <time>2016-09-20T08:20:35Z</time>
      </trkpt>
      <trkpt lat="45.94483" lon="4.73691">
        <ele>186</ele>
        <time>2016-09-20T08:20:36Z</time>
      </trkpt>
      <trkpt lat="45.94482" lon="4.73699">
        <ele>186</ele>
        <time>2016-09-20T08:20:37Z</time>
      </trkpt>
      <trkpt lat="45.94482" lon="4.73707">
        <ele>186</ele>
        <time>2016-09-20T08:20:38Z</time>
      </trkpt>
      <trkpt lat="45.94481" lon="4.73714">
        <ele>186</ele>
        <time>2016-09-20T08:20:39Z</time>
      </trkpt>
      <trkpt lat="45.9448" lon="4.73721">
        <ele>186</ele>
        <time>2016-09-20T08:20:40Z</time>
      </trkpt>
      <trkpt lat="45.94478" lon="4.73733">
        <ele>186</ele>
        <time>2016-09-20T08:20:42Z</time>
      </trkpt>
      <trkpt lat="45.94477" lon="4.73739">
        <ele>186</ele>
        <time>2016-09-20T08:20:43Z</time>
      </trkpt>
      <trkpt lat="45.94475" lon="4.73751">
        <ele>186</ele>
        <time>2016-09-20T08:20:45Z</time>
      </trkpt>
      <trkpt lat="45.94474" lon="4.73757">
        <ele>186</ele>
        <time>2016-09-20T08:20:46Z</time>
      </trkpt>
      <trkpt lat="45.94475" lon="4.73769">
        <ele>186</ele>
        <time>2016-09-20T08:20:48Z</time>
      </trkpt>
      <trkpt lat="45.94477" lon="4.73774">
        <ele>186</ele>
        <time>2016-09-20T08:20:49Z</time>
      </trkpt>
      <trkpt lat="45.9448" lon="4.73779">
        <ele>186</ele>
        <time>2016-09-20T08:20:50Z</time>
      </trkpt>
      <trkpt lat="45.94485" lon="4.73781">
        <ele>186</ele>
        <time>2016-09-20T08:20:51Z</time>
      </trkpt>
      <trkpt lat="45.94489" lon="4.73785">
        <ele>186</ele>
        <time>2016-09-20T08:20:52Z</time>
      </trkpt>
      <trkpt lat="45.94494" lon="4.73788">
        <ele>186</ele>
        <time>2016-09-20T08:20:53Z</time>
      </trkpt>
      <trkpt lat="45.94498" lon="4.73791">
        <ele>186</ele>
        <time>2016-09-20T08:20:54Z</time>
      </trkpt>
      <trkpt lat="45.94502" lon="4.73795">
        <ele>186</ele>
        <time>2016-09-20T08:20:55Z</time>
      </trkpt>
      <trkpt lat="45.94506" lon="4.73799">
        <ele>186</ele>
        <time>2016-09-20T08:20:56Z</time>
      </trkpt>
      <trkpt lat="45.9451" lon="4.73802">
        <ele>186</ele>
        <time>2016-09-20T08:20:57Z</time>
      </trkpt>
      <trkpt lat="45.94515" lon="4.73806">
        <ele>186</ele>
        <time>2016-09-20T08:20:58Z</time>
      </trkpt>
      <trkpt lat="45.94519" lon="4.7381">
        <ele>186</ele>
        <time>2016-09-20T08:20:59Z</time>
      </trkpt>
      <trkpt lat="45.94523" lon="4.73813">
        <ele>186</ele>
        <time>2016-09-20T08:21:00Z</time>
      </trkpt>
      <trkpt lat="45.94527" lon="4.73817">
        <ele>186</ele>
        <time>2016-09-20T08:21:01Z</time>
      </trkpt>
      <trkpt lat="45.9453" lon="4.73821">
        <ele>186</ele>
        <time>2016-09-20T08:21:02Z</time>
      </trkpt>
      <trkpt lat="45.94534" lon="4.73825">
        <ele>186</ele>
        <time>2016-09-20T08:21:03Z</time>
      </trkpt>
      <trkpt lat="45.94538" lon="4.73828">
        <ele>186</ele>
        <time>2016-09-20T08:21:04Z</time>
      </trkpt>
      <trkpt lat="45.94542" lon="4.73831">
        <ele>186</ele>
        <time>2016-09-20T08:21:05Z</time>
      </trkpt>
      <trkpt lat="45.94546" lon="4.73834">
        <ele>186</ele>
        <time>2016-09-20T08:21:06Z</time>
      </trkpt>
      <trkpt lat="45.9455" lon="4.73837">
        <ele>186</ele>
        <time>2016-09-20T08:21:07Z</time>
      </trkpt>
      <trkpt lat="45.94553" lon="4.73841">
        <ele>186</ele>
        <time>2016-09-20T08:21:08Z</time>
      </trkpt>
      <trkpt lat="45.94557" lon="4.73846">
        <ele>186</ele>
        <time>2016-09-20T08:21:09Z</time>
      </trkpt>
      <trkpt lat="45.94562" lon="4.7385">
        <ele>186</ele>
        <time>2016-09-20T08:21:10Z</time>
      </trkpt>
      <trkpt lat="45.94565" lon="4.73853">
        <ele>186</ele>
        <time>2016-09-20T08:21:11Z</time>
      </trkpt>
      <trkpt lat="45.94572" lon="4.7386">
        <ele>186</ele>
        <time>2016-09-20T08:21:13Z</time>
      </trkpt>
      <trkpt lat="45.94576" lon="4.73864">
        <ele>186</ele>
        <time>2016-09-20T08:21:14Z</time>
      </trkpt>
      <trkpt lat="45.9458" lon="4.73868">
        <ele>186</ele>
        <time>2016-09-20T08:21:15Z</time>
      </trkpt>
      <trkpt lat="45.94584" lon="4.73873">
        <ele>187</ele>
        <time>2016-09-20T08:21:16Z</time>
      </trkpt>
      <trkpt lat="45.94588" lon="4.73877">
        <ele>187</ele>
        <time>2016-09-20T08:21:17Z</time>
      </trkpt>
      <trkpt lat="45.94591" lon="4.73882">
        <ele>187</ele>
        <time>2016-09-20T08:21:18Z</time>
      </trkpt>
      <trkpt lat="45.94595" lon="4.73885">
        <ele>187</ele>
        <time>2016-09-20T08:21:19Z</time>
      </trkpt>
      <trkpt lat="45.94599" lon="4.7389">
        <ele>187</ele>
        <time>2016-09-20T08:21:20Z</time>
      </trkpt>
      <trkpt lat="45.94603" lon="4.73894">
        <ele>187</ele>
        <time>2016-09-20T08:21:21Z</time>
      </trkpt>
      <trkpt lat="45.94606" lon="4.73899">
        <ele>187</ele>
        <time>2016-09-20T08:21:22Z</time>
      </trkpt>
      <trkpt lat="45.94613" lon="4.73907">
        <ele>187</ele>
        <time>2016-09-20T08:21:24Z</time>
      </trkpt>
      <trkpt lat="45.94616" lon="4.73911">
        <ele>187</ele>
        <time>2016-09-20T08:21:25Z</time>
      </trkpt>
      <trkpt lat="45.9462" lon="4.73915">
        <ele>187</ele>
        <time>2016-09-20T08:21:26Z</time>
      </trkpt>
      <trkpt lat="45.94623" lon="4.7392">
        <ele>187</ele>
        <time>2016-09-20T08:21:27Z</time>
      </trkpt>
      <trkpt lat="45.94627" lon="4.73924">
        <ele>187</ele>
        <time>2016-09-20T08:21:28Z</time>
      </trkpt>
      <trkpt lat="45.9463" lon="4.73928">
        <ele>187</ele>
        <time>2016-09-20T08:21:29Z</time>
      </trkpt>
      <trkpt lat="45.94634" lon="4.73933">
        <ele>187</ele>
        <time>2016-09-20T08:21:30Z</time>
      </trkpt>
      <trkpt lat="45.94637" lon="4.73937">
        <ele>187</ele>
        <time>2016-09-20T08:21:31Z</time>
      </trkpt>
      <trkpt lat="45.94643" lon="4.73944">
        <ele>187</ele>
        <time>2016-09-20T08:21:33Z</time>
      </trkpt>
      <trkpt lat="45.94646" lon="4.73949">
        <ele>187</ele>
        <time>2016-09-20T08:21:34Z</time>
      </trkpt>
      <trkpt lat="45.94651" lon="4.73955">
        <ele>187</ele>
        <time>2016-09-20T08:21:35Z</time>
      </trkpt>
      <trkpt lat="45.94655" lon="4.7396">
        <ele>187</ele>
        <time>2016-09-20T08:21:36Z</time>
      </trkpt>
      <trkpt lat="45.94659" lon="4.73965">
        <ele>187</ele>
        <time>2016-09-20T08:21:37Z</time>
      </trkpt>
      <trkpt lat="45.94662" lon="4.7397">
        <ele>187</ele>
        <time>2016-09-20T08:21:38Z</time>
      </trkpt>
      <trkpt lat="45.94666" lon="4.73975">
        <ele>187</ele>
        <time>2016-09-20T08:21:39Z</time>
      </trkpt>
      <trkpt lat="45.94669" lon="4.73979">
        <ele>187</ele>
        <time>2016-09-20T08:21:40Z</time>
      </trkpt>
      <trkpt lat="45.94672" lon="4.73984">
        <ele>187</ele>
        <time>2016-09-20T08:21:41Z</time>
      </trkpt>
      <trkpt lat="45.94675" lon="4.73989">
        <ele>187</ele>
        <time>2016-09-20T08:21:42Z</time>
      </trkpt>
      <trkpt lat="45.9468" lon="4.73998">
        <ele>187</ele>
        <time>2016-09-20T08:21:44Z</time>
      </trkpt>
      <trkpt lat="45.94682" lon="4.74003">
        <ele>187</ele>
        <time>2016-09-20T08:21:45Z</time>
      </trkpt>
      <trkpt lat="45.94686" lon="4.74007">
        <ele>187</ele>
        <time>2016-09-20T08:21:46Z</time>
      </trkpt>
      <trkpt lat="45.9469" lon="4.74012">
        <ele>187</ele>
        <time>2016-09-20T08:21:47Z</time>
      </trkpt>
      <trkpt lat="45.94694" lon="4.74017">
        <ele>187</ele>
        <time>2016-09-20T08:21:48Z</time>
      </trkpt>
      <trkpt lat="45.94698" lon="4.74022">
        <ele>187</ele>
        <time>2016-09-20T08:21:49Z</time>
      </trkpt>
      <trkpt lat="45.94701" lon="4.74026">
        <ele>187</ele>
        <time>2016-09-20T08:21:50Z</time>
      </trkpt>
      <trkpt lat="45.94705" lon="4.7403">
        <ele>187</ele>
        <time>2016-09-20T08:21:51Z</time>
      </trkpt>
      <trkpt lat="45.94711" lon="4.74038">
        <ele>187</ele>
        <time>2016-09-20T08:21:53Z</time>
      </trkpt>
      <trkpt lat="45.94715" lon="4.74043">
        <ele>187</ele>
        <time>2016-09-20T08:21:54Z</time>
      </trkpt>
      <trkpt lat="45.94718" lon="4.74047">
        <ele>187</ele>
        <time>2016-09-20T08:21:55Z</time>
      </trkpt>
      <trkpt lat="45.94722" lon="4.74052">
        <ele>187</ele>
        <time>2016-09-20T08:21:56Z</time>
      </trkpt>
      <trkpt lat="45.94725" lon="4.74057">
        <ele>188</ele>
        <time>2016-09-20T08:21:57Z</time>
      </trkpt>
      <trkpt lat="45.94728" lon="4.74061">
        <ele>188</ele>
        <time>2016-09-20T08:21:58Z</time>
      </trkpt>
      <trkpt lat="45.94732" lon="4.74066">
        <ele>188</ele>
        <time>2016-09-20T08:21:59Z</time>
      </trkpt>
      <trkpt lat="45.94735" lon="4.7407">
        <ele>188</ele>
        <time>2016-09-20T08:22:00Z</time>
      </trkpt>
      <trkpt lat="45.94739" lon="4.74075">
        <ele>188</ele>
        <time>2016-09-20T08:22:01Z</time>
      </trkpt>
      <trkpt lat="45.94742" lon="4.7408">
        <ele>188</ele>
        <time>2016-09-20T08:22:02Z</time>
      </trkpt>
      <trkpt lat="45.94746" lon="4.74085">
        <ele>189</ele>
        <time>2016-09-20T08:22:03Z</time>
      </trkpt>
      <trkpt lat="45.94749" lon="4.74089">
        <ele>188</ele>
        <time>2016-09-20T08:22:04Z</time>
      </trkpt>
      <trkpt lat="45.94752" lon="4.74094">
        <ele>189</ele>
        <time>2016-09-20T08:22:05Z</time>
      </trkpt>
      <trkpt lat="45.94756" lon="4.74098">
        <ele>189</ele>
        <time>2016-09-20T08:22:06Z</time>
      </trkpt>
      <trkpt lat="45.94761" lon="4.74107">
        <ele>189</ele>
        <time>2016-09-20T08:22:08Z</time>
      </trkpt>
      <trkpt lat="45.94765" lon="4.74112">
        <ele>189</ele>
        <time>2016-09-20T08:22:09Z</time>
      </trkpt>
      <trkpt lat="45.94768" lon="4.74116">
        <ele>189</ele>
        <time>2016-09-20T08:22:10Z</time>
      </trkpt>
      <trkpt lat="45.94771" lon="4.74121">
        <ele>189</ele>
        <time>2016-09-20T08:22:11Z</time>
      </trkpt>
      <trkpt lat="45.94778" lon="4.74129">
        <ele>189</ele>
        <time>2016-09-20T08:22:13Z</time>
      </trkpt>
      <trkpt lat="45.94781" lon="4.74134">
        <ele>189</ele>
        <time>2016-09-20T08:22:14Z</time>
      </trkpt>
      <trkpt lat="45.94787" lon="4.74143">
        <ele>189</ele>
        <time>2016-09-20T08:22:16Z</time>
      </trkpt>
      <trkpt lat="45.9479" lon="4.74147">
        <ele>189</ele>
        <time>2016-09-20T08:22:17Z</time>
      </trkpt>
      <trkpt lat="45.94793" lon="4.74153">
        <ele>189</ele>
        <time>2016-09-20T08:22:18Z</time>
      </trkpt>
      <trkpt lat="45.94796" lon="4.74158">
        <ele>189</ele>
        <time>2016-09-20T08:22:19Z</time>
      </trkpt>
      <trkpt lat="45.94799" lon="4.74162">
        <ele>189</ele>
        <time>2016-09-20T08:22:20Z</time>
      </trkpt>
      <trkpt lat="45.94803" lon="4.74169">
        <ele>189</ele>
        <time>2016-09-20T08:22:21Z</time>
      </trkpt>
      <trkpt lat="45.94807" lon="4.74176">
        <ele>189</ele>
        <time>2016-09-20T08:22:22Z</time>
      </trkpt>
      <trkpt lat="45.9481" lon="4.74182">
        <ele>189</ele>
        <time>2016-09-20T08:22:23Z</time>
      </trkpt>
      <trkpt lat="45.94815" lon="4.74191">
        <ele>189</ele>
        <time>2016-09-20T08:22:25Z</time>
      </trkpt>
      <trkpt lat="45.94818" lon="4.74196">
        <ele>189</ele>
        <time>2016-09-20T08:22:26Z</time>
      </trkpt>
      <trkpt lat="45.94821" lon="4.74202">
        <ele>189</ele>
        <time>2016-09-20T08:22:27Z</time>
      </trkpt>
      <trkpt lat="45.94823" lon="4.74208">
        <ele>188</ele>
        <time>2016-09-20T08:22:28Z</time>
      </trkpt>
      <trkpt lat="45.94825" lon="4.74212">
        <ele>188</ele>
        <time>2016-09-20T08:22:29Z</time>
      </trkpt>
      <trkpt lat="45.94828" lon="4.7422">
        <ele>188</ele>
        <time>2016-09-20T08:22:30Z</time>
      </trkpt>
      <trkpt lat="45.9483" lon="4.74227">
        <ele>188</ele>
        <time>2016-09-20T08:22:31Z</time>
      </trkpt>
      <trkpt lat="45.94834" lon="4.74234">
        <ele>190</ele>
        <time>2016-09-20T08:22:32Z</time>
      </trkpt>
      <trkpt lat="45.94837" lon="4.74239">
        <ele>189</ele>
        <time>2016-09-20T08:22:33Z</time>
      </trkpt>
      <trkpt lat="45.9484" lon="4.74245">
        <ele>189</ele>
        <time>2016-09-20T08:22:34Z</time>
      </trkpt>
      <trkpt lat="45.94844" lon="4.74251">
        <ele>190</ele>
        <time>2016-09-20T08:22:35Z</time>
      </trkpt>
      <trkpt lat="45.94847" lon="4.74257">
        <ele>190</ele>
        <time>2016-09-20T08:22:36Z</time>
      </trkpt>
      <trkpt lat="45.94851" lon="4.74263">
        <ele>190</ele>
        <time>2016-09-20T08:22:37Z</time>
      </trkpt>
      <trkpt lat="45.94854" lon="4.74269">
        <ele>190</ele>
        <time>2016-09-20T08:22:38Z</time>
      </trkpt>
      <trkpt lat="45.94857" lon="4.74275">
        <ele>190</ele>
        <time>2016-09-20T08:22:39Z</time>
      </trkpt>
      <trkpt lat="45.9486" lon="4.7428">
        <ele>190</ele>
        <time>2016-09-20T08:22:40Z</time>
      </trkpt>
      <trkpt lat="45.94863" lon="4.74286">
        <ele>191</ele>
        <time>2016-09-20T08:22:41Z</time>
      </trkpt>
      <trkpt lat="45.94866" lon="4.74293">
        <ele>191</ele>
        <time>2016-09-20T08:22:42Z</time>
      </trkpt>
      <trkpt lat="45.94868" lon="4.74299">
        <ele>191</ele>
        <time>2016-09-20T08:22:43Z</time>
      </trkpt>
      <trkpt lat="45.94871" lon="4.74304">
        <ele>191</ele>
        <time>2016-09-20T08:22:44Z</time>
      </trkpt>
      <trkpt lat="45.94874" lon="4.74311">
        <ele>191</ele>
        <time>2016-09-20T08:22:45Z</time>
      </trkpt>
      <trkpt lat="45.94877" lon="4.74315">
        <ele>191</ele>
        <time>2016-09-20T08:22:46Z</time>
      </trkpt>
      <trkpt lat="45.9488" lon="4.74321">
        <ele>191</ele>
        <time>2016-09-20T08:22:47Z</time>
      </trkpt>
      <trkpt lat="45.94883" lon="4.74326">
        <ele>191</ele>
        <time>2016-09-20T08:22:48Z</time>
      </trkpt>
      <trkpt lat="45.94886" lon="4.74331">
        <ele>191</ele>
        <time>2016-09-20T08:22:49Z</time>
      </trkpt>
      <trkpt lat="45.94889" lon="4.74337">
        <ele>191</ele>
        <time>2016-09-20T08:22:50Z</time>
      </trkpt>
      <trkpt lat="45.94892" lon="4.74342">
        <ele>191</ele>
        <time>2016-09-20T08:22:51Z</time>
      </trkpt>
      <trkpt lat="45.94895" lon="4.74348">
        <ele>191</ele>
        <time>2016-09-20T08:22:52Z</time>
      </trkpt>
      <trkpt lat="45.94898" lon="4.74354">
        <ele>191</ele>
        <time>2016-09-20T08:22:53Z</time>
      </trkpt>
      <trkpt lat="45.94901" lon="4.7436">
        <ele>191</ele>
        <time>2016-09-20T08:22:54Z</time>
      </trkpt>
      <trkpt lat="45.94905" lon="4.74366">
        <ele>191</ele>
        <time>2016-09-20T08:22:55Z</time>
      </trkpt>
      <trkpt lat="45.94907" lon="4.74372">
        <ele>191</ele>
        <time>2016-09-20T08:22:56Z</time>
      </trkpt>
      <trkpt lat="45.9491" lon="4.74378">
        <ele>191</ele>
        <time>2016-09-20T08:22:57Z</time>
      </trkpt>
      <trkpt lat="45.94913" lon="4.74383">
        <ele>191</ele>
        <time>2016-09-20T08:22:58Z</time>
      </trkpt>
      <trkpt lat="45.94916" lon="4.74389">
        <ele>191</ele>
        <time>2016-09-20T08:22:59Z</time>
      </trkpt>
      <trkpt lat="45.94919" lon="4.74395">
        <ele>192</ele>
        <time>2016-09-20T08:23:00Z</time>
      </trkpt>
      <trkpt lat="45.94922" lon="4.74401">
        <ele>192</ele>
        <time>2016-09-20T08:23:01Z</time>
      </trkpt>
      <trkpt lat="45.94925" lon="4.74407">
        <ele>192</ele>
        <time>2016-09-20T08:23:02Z</time>
      </trkpt>
      <trkpt lat="45.94928" lon="4.74413">
        <ele>192</ele>
        <time>2016-09-20T08:23:03Z</time>
      </trkpt>
      <trkpt lat="45.94931" lon="4.74418">
        <ele>192</ele>
        <time>2016-09-20T08:23:04Z</time>
      </trkpt>
      <trkpt lat="45.94934" lon="4.74424">
        <ele>192</ele>
        <time>2016-09-20T08:23:05Z</time>
      </trkpt>
      <trkpt lat="45.94937" lon="4.74429">
        <ele>192</ele>
        <time>2016-09-20T08:23:06Z</time>
      </trkpt>
      <trkpt lat="45.94942" lon="4.7444">
        <ele>192</ele>
        <time>2016-09-20T08:23:08Z</time>
      </trkpt>
      <trkpt lat="45.94945" lon="4.74445">
        <ele>192</ele>
        <time>2016-09-20T08:23:09Z</time>
      </trkpt>
      <trkpt lat="45.94948" lon="4.74452">
        <ele>192</ele>
        <time>2016-09-20T08:23:10Z</time>
      </trkpt>
      <trkpt lat="45.94952" lon="4.74458">
        <ele>192</ele>
        <time>2016-09-20T08:23:11Z</time>
      </trkpt>
      <trkpt lat="45.94955" lon="4.74464">
        <ele>193</ele>
        <time>2016-09-20T08:23:12Z</time>
      </trkpt>
      <trkpt lat="45.94958" lon="4.74469">
        <ele>193</ele>
        <time>2016-09-20T08:23:13Z</time>
      </trkpt>
      <trkpt lat="45.9496" lon="4.74475">
        <ele>193</ele>
        <time>2016-09-20T08:23:14Z</time>
      </trkpt>
      <trkpt lat="45.94963" lon="4.74481">
        <ele>193</ele>
        <time>2016-09-20T08:23:15Z</time>
      </trkpt>
      <trkpt lat="45.94967" lon="4.74487">
        <ele>193</ele>
        <time>2016-09-20T08:23:16Z</time>
      </trkpt>
      <trkpt lat="45.9497" lon="4.74493">
        <ele>193</ele>
        <time>2016-09-20T08:23:17Z</time>
      </trkpt>
      <trkpt lat="45.94975" lon="4.74503">
        <ele>193</ele>
        <time>2016-09-20T08:23:19Z</time>
      </trkpt>
      <trkpt lat="45.94978" lon="4.74509">
        <ele>193</ele>
        <time>2016-09-20T08:23:20Z</time>
      </trkpt>
      <trkpt lat="45.9498" lon="4.74514">
        <ele>193</ele>
        <time>2016-09-20T08:23:21Z</time>
      </trkpt>
      <trkpt lat="45.94983" lon="4.74519">
        <ele>193</ele>
        <time>2016-09-20T08:23:22Z</time>
      </trkpt>
      <trkpt lat="45.94986" lon="4.74524">
        <ele>193</ele>
        <time>2016-09-20T08:23:23Z</time>
      </trkpt>
      <trkpt lat="45.94989" lon="4.7453">
        <ele>193</ele>
        <time>2016-09-20T08:23:24Z</time>
      </trkpt>
      <trkpt lat="45.94992" lon="4.74535">
        <ele>193</ele>
        <time>2016-09-20T08:23:25Z</time>
      </trkpt>
      <trkpt lat="45.94995" lon="4.74541">
        <ele>193</ele>
        <time>2016-09-20T08:23:26Z</time>
      </trkpt>
      <trkpt lat="45.94998" lon="4.74546">
        <ele>193</ele>
        <time>2016-09-20T08:23:27Z</time>
      </trkpt>
      <trkpt lat="45.95001" lon="4.74552">
        <ele>194</ele>
        <time>2016-09-20T08:23:28Z</time>
      </trkpt>
      <trkpt lat="45.95003" lon="4.74557">
        <ele>194</ele>
        <time>2016-09-20T08:23:29Z</time>
      </trkpt>
      <trkpt lat="45.95006" lon="4.74562">
        <ele>194</ele>
        <time>2016-09-20T08:23:30Z</time>
      </trkpt>
      <trkpt lat="45.95009" lon="4.74568">
        <ele>194</ele>
        <time>2016-09-20T08:23:31Z</time>
      </trkpt>
      <trkpt lat="45.95012" lon="4.74573">
        <ele>194</ele>
        <time>2016-09-20T08:23:32Z</time>
      </trkpt>
      <trkpt lat="45.95015" lon="4.74578">
        <ele>194</ele>
        <time>2016-09-20T08:23:33Z</time>
      </trkpt>
      <trkpt lat="45.95018" lon="4.74583">
        <ele>194</ele>
        <time>2016-09-20T08:23:34Z</time>
      </trkpt>
      <trkpt lat="45.95021" lon="4.74589">
        <ele>194</ele>
        <time>2016-09-20T08:23:35Z</time>
      </trkpt>
      <trkpt lat="45.95024" lon="4.74595">
        <ele>194</ele>
        <time>2016-09-20T08:23:36Z</time>
      </trkpt>
      <trkpt lat="45.95027" lon="4.746">
        <ele>194</ele>
        <time>2016-09-20T08:23:37Z</time>
      </trkpt>
      <trkpt lat="45.9503" lon="4.74606">
        <ele>194</ele>
        <time>2016-09-20T08:23:38Z</time>
      </trkpt>
      <trkpt lat="45.95033" lon="4.74611">
        <ele>194</ele>
        <time>2016-09-20T08:23:39Z</time>
      </trkpt>
      <trkpt lat="45.95036" lon="4.74616">
        <ele>194</ele>
        <time>2016-09-20T08:23:40Z</time>
      </trkpt>
      <trkpt lat="45.95039" lon="4.74623">
        <ele>194</ele>
        <time>2016-09-20T08:23:41Z</time>
      </trkpt>
      <trkpt lat="45.95043" lon="4.74629">
        <ele>194</ele>
        <time>2016-09-20T08:23:42Z</time>
      </trkpt>
      <trkpt lat="45.95046" lon="4.74635">
        <ele>194</ele>
        <time>2016-09-20T08:23:43Z</time>
      </trkpt>
      <trkpt lat="45.9505" lon="4.74641">
        <ele>194</ele>
        <time>2016-09-20T08:23:44Z</time>
      </trkpt>
      <trkpt lat="45.95053" lon="4.74648">
        <ele>194</ele>
        <time>2016-09-20T08:23:45Z</time>
      </trkpt>
      <trkpt lat="45.95056" lon="4.74654">
        <ele>194</ele>
        <time>2016-09-20T08:23:46Z</time>
      </trkpt>
      <trkpt lat="45.9506" lon="4.7466">
        <ele>194</ele>
        <time>2016-09-20T08:23:47Z</time>
      </trkpt>
      <trkpt lat="45.95062" lon="4.74666">
        <ele>195</ele>
        <time>2016-09-20T08:23:48Z</time>
      </trkpt>
      <trkpt lat="45.95065" lon="4.74671">
        <ele>194</ele>
        <time>2016-09-20T08:23:49Z</time>
      </trkpt>
      <trkpt lat="45.95068" lon="4.74676">
        <ele>194</ele>
        <time>2016-09-20T08:23:50Z</time>
      </trkpt>
      <trkpt lat="45.95071" lon="4.74682">
        <ele>194</ele>
        <time>2016-09-20T08:23:51Z</time>
      </trkpt>
      <trkpt lat="45.95074" lon="4.74687">
        <ele>194</ele>
        <time>2016-09-20T08:23:52Z</time>
      </trkpt>
      <trkpt lat="45.95077" lon="4.74692">
        <ele>194</ele>
        <time>2016-09-20T08:23:53Z</time>
      </trkpt>
      <trkpt lat="45.95081" lon="4.74698">
        <ele>194</ele>
        <time>2016-09-20T08:23:54Z</time>
      </trkpt>
      <trkpt lat="45.95086" lon="4.74708">
        <ele>194</ele>
        <time>2016-09-20T08:23:56Z</time>
      </trkpt>
      <trkpt lat="45.95089" lon="4.74714">
        <ele>194</ele>
        <time>2016-09-20T08:23:57Z</time>
      </trkpt>
      <trkpt lat="45.95093" lon="4.7472">
        <ele>194</ele>
        <time>2016-09-20T08:23:58Z</time>
      </trkpt>
      <trkpt lat="45.95096" lon="4.74725">
        <ele>194</ele>
        <time>2016-09-20T08:23:59Z</time>
      </trkpt>
      <trkpt lat="45.951" lon="4.74731">
        <ele>194</ele>
        <time>2016-09-20T08:24:00Z</time>
      </trkpt>
      <trkpt lat="45.95103" lon="4.74737">
        <ele>194</ele>
        <time>2016-09-20T08:24:01Z</time>
      </trkpt>
      <trkpt lat="45.95107" lon="4.74742">
        <ele>194</ele>
        <time>2016-09-20T08:24:02Z</time>
      </trkpt>
      <trkpt lat="45.9511" lon="4.74747">
        <ele>194</ele>
        <time>2016-09-20T08:24:03Z</time>
      </trkpt>
      <trkpt lat="45.95114" lon="4.74753">
        <ele>194</ele>
        <time>2016-09-20T08:24:04Z</time>
      </trkpt>
      <trkpt lat="45.95117" lon="4.74759">
        <ele>194</ele>
        <time>2016-09-20T08:24:05Z</time>
      </trkpt>
      <trkpt lat="45.95121" lon="4.74765">
        <ele>194</ele>
        <time>2016-09-20T08:24:06Z</time>
      </trkpt>
      <trkpt lat="45.95124" lon="4.74771">
        <ele>194</ele>
        <time>2016-09-20T08:24:07Z</time>
      </trkpt>
      <trkpt lat="45.95128" lon="4.74777">
        <ele>194</ele>
        <time>2016-09-20T08:24:08Z</time>
      </trkpt>
      <trkpt lat="45.95132" lon="4.74782">
        <ele>194</ele>
        <time>2016-09-20T08:24:09Z</time>
      </trkpt>
      <trkpt lat="45.95135" lon="4.74788">
        <ele>194</ele>
        <time>2016-09-20T08:24:10Z</time>
      </trkpt>
      <trkpt lat="45.95138" lon="4.74793">
        <ele>194</ele>
        <time>2016-09-20T08:24:11Z</time>
      </trkpt>
      <trkpt lat="45.95142" lon="4.74798">
        <ele>194</ele>
        <time>2016-09-20T08:24:12Z</time>
      </trkpt>
      <trkpt lat="45.95145" lon="4.74803">
        <ele>194</ele>
        <time>2016-09-20T08:24:13Z</time>
      </trkpt>
      <trkpt lat="45.95148" lon="4.74808">
        <ele>194</ele>
        <time>2016-09-20T08:24:14Z</time>
      </trkpt>
      <trkpt lat="45.95152" lon="4.74813">
        <ele>194</ele>
        <time>2016-09-20T08:24:15Z</time>
      </trkpt>
      <trkpt lat="45.95155" lon="4.74818">
        <ele>194</ele>
        <time>2016-09-20T08:24:16Z</time>
      </trkpt>
      <trkpt lat="45.95158" lon="4.74824">
        <ele>194</ele>
        <time>2016-09-20T08:24:17Z</time>
      </trkpt>
      <trkpt lat="45.95161" lon="4.74829">
        <ele>194</ele>
        <time>2016-09-20T08:24:18Z</time>
      </trkpt>
      <trkpt lat="45.95164" lon="4.74835">
        <ele>194</ele>
        <time>2016-09-20T08:24:19Z</time>
      </trkpt>
      <trkpt lat="45.95168" lon="4.7484">
        <ele>194</ele>
        <time>2016-09-20T08:24:20Z</time>
      </trkpt>
      <trkpt lat="45.95171" lon="4.74846">
        <ele>194</ele>
        <time>2016-09-20T08:24:21Z</time>
      </trkpt>
      <trkpt lat="45.95175" lon="4.74852">
        <ele>194</ele>
        <time>2016-09-20T08:24:22Z</time>
      </trkpt>
      <trkpt lat="45.95178" lon="4.74857">
        <ele>194</ele>
        <time>2016-09-20T08:24:23Z</time>
      </trkpt>
      <trkpt lat="45.95182" lon="4.74863">
        <ele>194</ele>
        <time>2016-09-20T08:24:24Z</time>
      </trkpt>
      <trkpt lat="45.95186" lon="4.74869">
        <ele>194</ele>
        <time>2016-09-20T08:24:25Z</time>
      </trkpt>
      <trkpt lat="45.95189" lon="4.74874">
        <ele>194</ele>
        <time>2016-09-20T08:24:26Z</time>
      </trkpt>
      <trkpt lat="45.95193" lon="4.74879">
        <ele>194</ele>
        <time>2016-09-20T08:24:27Z</time>
      </trkpt>
      <trkpt lat="45.95196" lon="4.74886">
        <ele>194</ele>
        <time>2016-09-20T08:24:28Z</time>
      </trkpt>
      <trkpt lat="45.952" lon="4.74893">
        <ele>194</ele>
        <time>2016-09-20T08:24:29Z</time>
      </trkpt>
      <trkpt lat="45.95204" lon="4.74898">
        <ele>194</ele>
        <time>2016-09-20T08:24:30Z</time>
      </trkpt>
      <trkpt lat="45.95207" lon="4.74903">
        <ele>194</ele>
        <time>2016-09-20T08:24:31Z</time>
      </trkpt>
      <trkpt lat="45.95211" lon="4.74909">
        <ele>193</ele>
        <time>2016-09-20T08:24:32Z</time>
      </trkpt>
      <trkpt lat="45.95215" lon="4.74915">
        <ele>193</ele>
        <time>2016-09-20T08:24:33Z</time>
      </trkpt>
      <trkpt lat="45.95219" lon="4.7492">
        <ele>192</ele>
        <time>2016-09-20T08:24:34Z</time>
      </trkpt>
      <trkpt lat="45.95222" lon="4.74925">
        <ele>192</ele>
        <time>2016-09-20T08:24:35Z</time>
      </trkpt>
      <trkpt lat="45.95226" lon="4.7493">
        <ele>192</ele>
        <time>2016-09-20T08:24:36Z</time>
      </trkpt>
      <trkpt lat="45.95229" lon="4.74936">
        <ele>192</ele>
        <time>2016-09-20T08:24:37Z</time>
      </trkpt>
      <trkpt lat="45.95233" lon="4.74942">
        <ele>192</ele>
        <time>2016-09-20T08:24:38Z</time>
      </trkpt>
      <trkpt lat="45.95236" lon="4.74947">
        <ele>192</ele>
        <time>2016-09-20T08:24:39Z</time>
      </trkpt>
      <trkpt lat="45.95239" lon="4.74953">
        <ele>192</ele>
        <time>2016-09-20T08:24:40Z</time>
      </trkpt>
      <trkpt lat="45.95243" lon="4.74959">
        <ele>192</ele>
        <time>2016-09-20T08:24:41Z</time>
      </trkpt>
      <trkpt lat="45.95247" lon="4.74965">
        <ele>191</ele>
        <time>2016-09-20T08:24:42Z</time>
      </trkpt>
      <trkpt lat="45.95251" lon="4.7497">
        <ele>192</ele>
        <time>2016-09-20T08:24:43Z</time>
      </trkpt>
      <trkpt lat="45.95253" lon="4.74975">
        <ele>192</ele>
        <time>2016-09-20T08:24:44Z</time>
      </trkpt>
      <trkpt lat="45.95258" lon="4.74982">
        <ele>192</ele>
        <time>2016-09-20T08:24:45Z</time>
      </trkpt>
      <trkpt lat="45.95262" lon="4.74988">
        <ele>192</ele>
        <time>2016-09-20T08:24:46Z</time>
      </trkpt>
      <trkpt lat="45.95267" lon="4.74993">
        <ele>192</ele>
        <time>2016-09-20T08:24:47Z</time>
      </trkpt>
      <trkpt lat="45.95271" lon="4.74998">
        <ele>192</ele>
        <time>2016-09-20T08:24:48Z</time>
      </trkpt>
      <trkpt lat="45.95275" lon="4.75003">
        <ele>191</ele>
        <time>2016-09-20T08:24:49Z</time>
      </trkpt>
      <trkpt lat="45.95278" lon="4.75009">
        <ele>191</ele>
        <time>2016-09-20T08:24:50Z</time>
      </trkpt>
      <trkpt lat="45.95282" lon="4.75014">
        <ele>191</ele>
        <time>2016-09-20T08:24:51Z</time>
      </trkpt>
      <trkpt lat="45.95285" lon="4.7502">
        <ele>191</ele>
        <time>2016-09-20T08:24:52Z</time>
      </trkpt>
      <trkpt lat="45.95288" lon="4.75026">
        <ele>191</ele>
        <time>2016-09-20T08:24:53Z</time>
      </trkpt>
      <trkpt lat="45.95292" lon="4.75031">
        <ele>191</ele>
        <time>2016-09-20T08:24:54Z</time>
      </trkpt>
      <trkpt lat="45.95295" lon="4.75038">
        <ele>191</ele>
        <time>2016-09-20T08:24:55Z</time>
      </trkpt>
      <trkpt lat="45.95299" lon="4.75044">
        <ele>191</ele>
        <time>2016-09-20T08:24:56Z</time>
      </trkpt>
      <trkpt lat="45.95303" lon="4.7505">
        <ele>191</ele>
        <time>2016-09-20T08:24:57Z</time>
      </trkpt>
      <trkpt lat="45.95307" lon="4.75057">
        <ele>192</ele>
        <time>2016-09-20T08:24:58Z</time>
      </trkpt>
      <trkpt lat="45.95311" lon="4.75063">
        <ele>192</ele>
        <time>2016-09-20T08:24:59Z</time>
      </trkpt>
      <trkpt lat="45.95314" lon="4.75069">
        <ele>192</ele>
        <time>2016-09-20T08:25:00Z</time>
      </trkpt>
      <trkpt lat="45.95318" lon="4.75075">
        <ele>192</ele>
        <time>2016-09-20T08:25:01Z</time>
      </trkpt>
      <trkpt lat="45.95323" lon="4.75081">
        <ele>192</ele>
        <time>2016-09-20T08:25:02Z</time>
      </trkpt>
      <trkpt lat="45.95327" lon="4.75088">
        <ele>192</ele>
        <time>2016-09-20T08:25:03Z</time>
      </trkpt>
      <trkpt lat="45.95331" lon="4.75094">
        <ele>191</ele>
        <time>2016-09-20T08:25:04Z</time>
      </trkpt>
      <trkpt lat="45.95335" lon="4.75101">
        <ele>192</ele>
        <time>2016-09-20T08:25:05Z</time>
      </trkpt>
      <trkpt lat="45.95339" lon="4.75107">
        <ele>192</ele>
        <time>2016-09-20T08:25:06Z</time>
      </trkpt>
      <trkpt lat="45.95342" lon="4.75113">
        <ele>192</ele>
        <time>2016-09-20T08:25:07Z</time>
      </trkpt>
      <trkpt lat="45.95346" lon="4.75119">
        <ele>191</ele>
        <time>2016-09-20T08:25:08Z</time>
      </trkpt>
      <trkpt lat="45.9535" lon="4.75125">
        <ele>191</ele>
        <time>2016-09-20T08:25:09Z</time>
      </trkpt>
      <trkpt lat="45.95354" lon="4.75131">
        <ele>191</ele>
        <time>2016-09-20T08:25:10Z</time>
      </trkpt>
      <trkpt lat="45.95358" lon="4.75137">
        <ele>191</ele>
        <time>2016-09-20T08:25:11Z</time>
      </trkpt>
      <trkpt lat="45.95361" lon="4.75143">
        <ele>191</ele>
        <time>2016-09-20T08:25:12Z</time>
      </trkpt>
      <trkpt lat="45.95365" lon="4.7515">
        <ele>191</ele>
        <time>2016-09-20T08:25:13Z</time>
      </trkpt>
      <trkpt lat="45.95369" lon="4.75157">
        <ele>191</ele>
        <time>2016-09-20T08:25:14Z</time>
      </trkpt>
      <trkpt lat="45.95371" lon="4.75164">
        <ele>191</ele>
        <time>2016-09-20T08:25:15Z</time>
      </trkpt>
      <trkpt lat="45.95375" lon="4.7517">
        <ele>189</ele>
        <time>2016-09-20T08:25:16Z</time>
      </trkpt>
      <trkpt lat="45.95378" lon="4.75176">
        <ele>189</ele>
        <time>2016-09-20T08:25:17Z</time>
      </trkpt>
      <trkpt lat="45.95382" lon="4.75182">
        <ele>189</ele>
        <time>2016-09-20T08:25:18Z</time>
      </trkpt>
      <trkpt lat="45.95386" lon="4.75188">
        <ele>189</ele>
        <time>2016-09-20T08:25:19Z</time>
      </trkpt>
      <trkpt lat="45.9539" lon="4.75194">
        <ele>189</ele>
        <time>2016-09-20T08:25:20Z</time>
      </trkpt>
      <trkpt lat="45.95393" lon="4.752">
        <ele>189</ele>
        <time>2016-09-20T08:25:21Z</time>
      </trkpt>
      <trkpt lat="45.95397" lon="4.75207">
        <ele>189</ele>
        <time>2016-09-20T08:25:22Z</time>
      </trkpt>
      <trkpt lat="45.95401" lon="4.75213">
        <ele>188</ele>
        <time>2016-09-20T08:25:23Z</time>
      </trkpt>
      <trkpt lat="45.95404" lon="4.7522">
        <ele>188</ele>
        <time>2016-09-20T08:25:24Z</time>
      </trkpt>
      <trkpt lat="45.95408" lon="4.75226">
        <ele>188</ele>
        <time>2016-09-20T08:25:25Z</time>
      </trkpt>
      <trkpt lat="45.95412" lon="4.75233">
        <ele>189</ele>
        <time>2016-09-20T08:25:26Z</time>
      </trkpt>
      <trkpt lat="45.95416" lon="4.7524">
        <ele>189</ele>
        <time>2016-09-20T08:25:27Z</time>
      </trkpt>
      <trkpt lat="45.9542" lon="4.75247">
        <ele>189</ele>
        <time>2016-09-20T08:25:28Z</time>
      </trkpt>
      <trkpt lat="45.95424" lon="4.75253">
        <ele>189</ele>
        <time>2016-09-20T08:25:29Z</time>
      </trkpt>
      <trkpt lat="45.95426" lon="4.75259">
        <ele>189</ele>
        <time>2016-09-20T08:25:30Z</time>
      </trkpt>
      <trkpt lat="45.9543" lon="4.75266">
        <ele>189</ele>
        <time>2016-09-20T08:25:31Z</time>
      </trkpt>
      <trkpt lat="45.95433" lon="4.75273">
        <ele>189</ele>
        <time>2016-09-20T08:25:32Z</time>
      </trkpt>
      <trkpt lat="45.95437" lon="4.7528">
        <ele>188</ele>
        <time>2016-09-20T08:25:33Z</time>
      </trkpt>
      <trkpt lat="45.95441" lon="4.75286">
        <ele>188</ele>
        <time>2016-09-20T08:25:34Z</time>
      </trkpt>
      <trkpt lat="45.95445" lon="4.75292">
        <ele>188</ele>
        <time>2016-09-20T08:25:35Z</time>
      </trkpt>
      <trkpt lat="45.95449" lon="4.75298">
        <ele>188</ele>
        <time>2016-09-20T08:25:36Z</time>
      </trkpt>
      <trkpt lat="45.95453" lon="4.75305">
        <ele>188</ele>
        <time>2016-09-20T08:25:37Z</time>
      </trkpt>
      <trkpt lat="45.95457" lon="4.75312">
        <ele>188</ele>
        <time>2016-09-20T08:25:38Z</time>
      </trkpt>
      <trkpt lat="45.95462" lon="4.7532">
        <ele>188</ele>
        <time>2016-09-20T08:25:39Z</time>
      </trkpt>
      <trkpt lat="45.95465" lon="4.75327">
        <ele>188</ele>
        <time>2016-09-20T08:25:40Z</time>
      </trkpt>
      <trkpt lat="45.95469" lon="4.75334">
        <ele>186</ele>
        <time>2016-09-20T08:25:41Z</time>
      </trkpt>
      <trkpt lat="45.95473" lon="4.75341">
        <ele>186</ele>
        <time>2016-09-20T08:25:42Z</time>
      </trkpt>
      <trkpt lat="45.95477" lon="4.75348">
        <ele>186</ele>
        <time>2016-09-20T08:25:43Z</time>
      </trkpt>
      <trkpt lat="45.9548" lon="4.75355">
        <ele>186</ele>
        <time>2016-09-20T08:25:44Z</time>
      </trkpt>
      <trkpt lat="45.95483" lon="4.75363">
        <ele>186</ele>
        <time>2016-09-20T08:25:45Z</time>
      </trkpt>
      <trkpt lat="45.95487" lon="4.7537">
        <ele>185</ele>
        <time>2016-09-20T08:25:46Z</time>
      </trkpt>
      <trkpt lat="45.9549" lon="4.75379">
        <ele>185</ele>
        <time>2016-09-20T08:25:47Z</time>
      </trkpt>
      <trkpt lat="45.95493" lon="4.75386">
        <ele>185</ele>
        <time>2016-09-20T08:25:48Z</time>
      </trkpt>
      <trkpt lat="45.95496" lon="4.75393">
        <ele>185</ele>
        <time>2016-09-20T08:25:49Z</time>
      </trkpt>
      <trkpt lat="45.95499" lon="4.75401">
        <ele>185</ele>
        <time>2016-09-20T08:25:50Z</time>
      </trkpt>
      <trkpt lat="45.95501" lon="4.7541">
        <ele>186</ele>
        <time>2016-09-20T08:25:51Z</time>
      </trkpt>
      <trkpt lat="45.95504" lon="4.7542">
        <ele>185</ele>
        <time>2016-09-20T08:25:52Z</time>
      </trkpt>
      <trkpt lat="45.95506" lon="4.75428">
        <ele>186</ele>
        <time>2016-09-20T08:25:53Z</time>
      </trkpt>
      <trkpt lat="45.95507" lon="4.75435">
        <ele>186</ele>
        <time>2016-09-20T08:25:54Z</time>
      </trkpt>
      <trkpt lat="45.95507" lon="4.75442">
        <ele>186</ele>
        <time>2016-09-20T08:25:55Z</time>
      </trkpt>
      <trkpt lat="45.95507" lon="4.7545">
        <ele>186</ele>
        <time>2016-09-20T08:25:56Z</time>
      </trkpt>
      <trkpt lat="45.95505" lon="4.75458">
        <ele>186</ele>
        <time>2016-09-20T08:25:57Z</time>
      </trkpt>
      <trkpt lat="45.95503" lon="4.75464">
        <ele>186</ele>
        <time>2016-09-20T08:25:58Z</time>
      </trkpt>
      <trkpt lat="45.95503" lon="4.75471">
        <ele>186</ele>
        <time>2016-09-20T08:25:59Z</time>
      </trkpt>
      <trkpt lat="45.95504" lon="4.75478">
        <ele>186</ele>
        <time>2016-09-20T08:26:00Z</time>
      </trkpt>
      <trkpt lat="45.95507" lon="4.75484">
        <ele>186</ele>
        <time>2016-09-20T08:26:01Z</time>
      </trkpt>
      <trkpt lat="45.95511" lon="4.7549">
        <ele>186</ele>
        <time>2016-09-20T08:26:02Z</time>
      </trkpt>
      <trkpt lat="45.95516" lon="4.75495">
        <ele>186</ele>
        <time>2016-09-20T08:26:03Z</time>
      </trkpt>
      <trkpt lat="45.95521" lon="4.75499">
        <ele>186</ele>
        <time>2016-09-20T08:26:04Z</time>
      </trkpt>
      <trkpt lat="45.95526" lon="4.75503">
        <ele>185</ele>
        <time>2016-09-20T08:26:05Z</time>
      </trkpt>
      <trkpt lat="45.95532" lon="4.75508">
        <ele>185</ele>
        <time>2016-09-20T08:26:06Z</time>
      </trkpt>
      <trkpt lat="45.95535" lon="4.75514">
        <ele>186</ele>
        <time>2016-09-20T08:26:07Z</time>
      </trkpt>
      <trkpt lat="45.9554" lon="4.75519">
        <ele>186</ele>
        <time>2016-09-20T08:26:08Z</time>
      </trkpt>
      <trkpt lat="45.95544" lon="4.75524">
        <ele>186</ele>
        <time>2016-09-20T08:26:09Z</time>
      </trkpt>
      <trkpt lat="45.95549" lon="4.75529">
        <ele>186</ele>
        <time>2016-09-20T08:26:10Z</time>
      </trkpt>
      <trkpt lat="45.95554" lon="4.75533">
        <ele>186</ele>
        <time>2016-09-20T08:26:11Z</time>
      </trkpt>
      <trkpt lat="45.95558" lon="4.75538">
        <ele>186</ele>
        <time>2016-09-20T08:26:12Z</time>
      </trkpt>
      <trkpt lat="45.95563" lon="4.75543">
        <ele>186</ele>
        <time>2016-09-20T08:26:13Z</time>
      </trkpt>
      <trkpt lat="45.95567" lon="4.75547">
        <ele>186</ele>
        <time>2016-09-20T08:26:14Z</time>
      </trkpt>
      <trkpt lat="45.95571" lon="4.75552">
        <ele>186</ele>
        <time>2016-09-20T08:26:15Z</time>
      </trkpt>
      <trkpt lat="45.95574" lon="4.75557">
        <ele>186</ele>
        <time>2016-09-20T08:26:16Z</time>
      </trkpt>
      <trkpt lat="45.9558" lon="4.75563">
        <ele>186</ele>
        <time>2016-09-20T08:26:17Z</time>
      </trkpt>
      <trkpt lat="45.95585" lon="4.75568">
        <ele>188</ele>
        <time>2016-09-20T08:26:18Z</time>
      </trkpt>
      <trkpt lat="45.95589" lon="4.75574">
        <ele>187</ele>
        <time>2016-09-20T08:26:19Z</time>
      </trkpt>
      <trkpt lat="45.95592" lon="4.7558">
        <ele>187</ele>
        <time>2016-09-20T08:26:20Z</time>
      </trkpt>
      <trkpt lat="45.95595" lon="4.75587">
        <ele>187</ele>
        <time>2016-09-20T08:26:21Z</time>
      </trkpt>
      <trkpt lat="45.95598" lon="4.75593">
        <ele>187</ele>
        <time>2016-09-20T08:26:22Z</time>
      </trkpt>
      <trkpt lat="45.956" lon="4.756">
        <ele>187</ele>
        <time>2016-09-20T08:26:23Z</time>
      </trkpt>
      <trkpt lat="45.95603" lon="4.75607">
        <ele>187</ele>
        <time>2016-09-20T08:26:24Z</time>
      </trkpt>
      <trkpt lat="45.95604" lon="4.75614">
        <ele>187</ele>
        <time>2016-09-20T08:26:25Z</time>
      </trkpt>
      <trkpt lat="45.95605" lon="4.75621">
        <ele>188</ele>
        <time>2016-09-20T08:26:26Z</time>
      </trkpt>
      <trkpt lat="45.95606" lon="4.75627">
        <ele>188</ele>
        <time>2016-09-20T08:26:27Z</time>
      </trkpt>
      <trkpt lat="45.95608" lon="4.75633">
        <ele>188</ele>
        <time>2016-09-20T08:26:28Z</time>
      </trkpt>
      <trkpt lat="45.9561" lon="4.7564">
        <ele>188</ele>
        <time>2016-09-20T08:26:29Z</time>
      </trkpt>
      <trkpt lat="45.95612" lon="4.75646">
        <ele>188</ele>
        <time>2016-09-20T08:26:30Z</time>
      </trkpt>
      <trkpt lat="45.95614" lon="4.75652">
        <ele>188</ele>
        <time>2016-09-20T08:26:31Z</time>
      </trkpt>
      <trkpt lat="45.95615" lon="4.7566">
        <ele>188</ele>
        <time>2016-09-20T08:26:32Z</time>
      </trkpt>
      <trkpt lat="45.95616" lon="4.75667">
        <ele>188</ele>
        <time>2016-09-20T08:26:33Z</time>
      </trkpt>
      <trkpt lat="45.95618" lon="4.75674">
        <ele>187</ele>
        <time>2016-09-20T08:26:34Z</time>
      </trkpt>
      <trkpt lat="45.95619" lon="4.7568">
        <ele>187</ele>
        <time>2016-09-20T08:26:35Z</time>
      </trkpt>
      <trkpt lat="45.9562" lon="4.75687">
        <ele>187</ele>
        <time>2016-09-20T08:26:36Z</time>
      </trkpt>
      <trkpt lat="45.9562" lon="4.75693">
        <ele>187</ele>
        <time>2016-09-20T08:26:37Z</time>
      </trkpt>
      <trkpt lat="45.95621" lon="4.757">
        <ele>187</ele>
        <time>2016-09-20T08:26:38Z</time>
      </trkpt>
      <trkpt lat="45.95621" lon="4.75707">
        <ele>187</ele>
        <time>2016-09-20T08:26:39Z</time>
      </trkpt>
      <trkpt lat="45.95622" lon="4.75714">
        <ele>187</ele>
        <time>2016-09-20T08:26:40Z</time>
      </trkpt>
      <trkpt lat="45.95623" lon="4.75721">
        <ele>187</ele>
        <time>2016-09-20T08:26:41Z</time>
      </trkpt>
      <trkpt lat="45.95625" lon="4.75728">
        <ele>187</ele>
        <time>2016-09-20T08:26:42Z</time>
      </trkpt>
      <trkpt lat="45.95626" lon="4.75735">
        <ele>187</ele>
        <time>2016-09-20T08:26:43Z</time>
      </trkpt>
      <trkpt lat="45.95627" lon="4.75743">
        <ele>187</ele>
        <time>2016-09-20T08:26:44Z</time>
      </trkpt>
      <trkpt lat="45.95628" lon="4.7575">
        <ele>187</ele>
        <time>2016-09-20T08:26:45Z</time>
      </trkpt>
      <trkpt lat="45.95629" lon="4.75757">
        <ele>185</ele>
        <time>2016-09-20T08:26:46Z</time>
      </trkpt>
      <trkpt lat="45.9563" lon="4.75765">
        <ele>185</ele>
        <time>2016-09-20T08:26:47Z</time>
      </trkpt>
      <trkpt lat="45.95631" lon="4.75773">
        <ele>185</ele>
        <time>2016-09-20T08:26:48Z</time>
      </trkpt>
      <trkpt lat="45.95633" lon="4.75781">
        <ele>185</ele>
        <time>2016-09-20T08:26:49Z</time>
      </trkpt>
      <trkpt lat="45.95634" lon="4.75789">
        <ele>185</ele>
        <time>2016-09-20T08:26:50Z</time>
      </trkpt>
      <trkpt lat="45.95635" lon="4.75797">
        <ele>185</ele>
        <time>2016-09-20T08:26:51Z</time>
      </trkpt>
      <trkpt lat="45.95636" lon="4.75805">
        <ele>185</ele>
        <time>2016-09-20T08:26:52Z</time>
      </trkpt>
      <trkpt lat="45.95638" lon="4.75814">
        <ele>185</ele>
        <time>2016-09-20T08:26:53Z</time>
      </trkpt>
      <trkpt lat="45.9564" lon="4.75822">
        <ele>185</ele>
        <time>2016-09-20T08:26:54Z</time>
      </trkpt>
      <trkpt lat="45.95641" lon="4.7583">
        <ele>185</ele>
        <time>2016-09-20T08:26:55Z</time>
      </trkpt>
      <trkpt lat="45.95643" lon="4.75838">
        <ele>184</ele>
        <time>2016-09-20T08:26:56Z</time>
      </trkpt>
      <trkpt lat="45.95646" lon="4.75846">
        <ele>184</ele>
        <time>2016-09-20T08:26:57Z</time>
      </trkpt>
      <trkpt lat="45.95648" lon="4.75853">
        <ele>184</ele>
        <time>2016-09-20T08:26:58Z</time>
      </trkpt>
      <trkpt lat="45.9565" lon="4.75861">
        <ele>184</ele>
        <time>2016-09-20T08:26:59Z</time>
      </trkpt>
      <trkpt lat="45.95652" lon="4.75868">
        <ele>184</ele>
        <time>2016-09-20T08:27:00Z</time>
      </trkpt>
      <trkpt lat="45.95654" lon="4.75875">
        <ele>184</ele>
        <time>2016-09-20T08:27:01Z</time>
      </trkpt>
      <trkpt lat="45.95657" lon="4.75882">
        <ele>184</ele>
        <time>2016-09-20T08:27:02Z</time>
      </trkpt>
      <trkpt lat="45.9566" lon="4.7589">
        <ele>184</ele>
        <time>2016-09-20T08:27:03Z</time>
      </trkpt>
      <trkpt lat="45.95663" lon="4.75897">
        <ele>184</ele>
        <time>2016-09-20T08:27:04Z</time>
      </trkpt>
      <trkpt lat="45.95666" lon="4.75905">
        <ele>184</ele>
        <time>2016-09-20T08:27:05Z</time>
      </trkpt>
      <trkpt lat="45.95669" lon="4.75913">
        <ele>184</ele>
        <time>2016-09-20T08:27:06Z</time>
      </trkpt>
      <trkpt lat="45.95673" lon="4.7592">
        <ele>184</ele>
        <time>2016-09-20T08:27:07Z</time>
      </trkpt>
      <trkpt lat="45.95676" lon="4.75928">
        <ele>185</ele>
        <time>2016-09-20T08:27:08Z</time>
      </trkpt>
      <trkpt lat="45.95679" lon="4.75935">
        <ele>185</ele>
        <time>2016-09-20T08:27:09Z</time>
      </trkpt>
      <trkpt lat="45.95683" lon="4.75943">
        <ele>185</ele>
        <time>2016-09-20T08:27:10Z</time>
      </trkpt>
      <trkpt lat="45.95686" lon="4.7595">
        <ele>185</ele>
        <time>2016-09-20T08:27:11Z</time>
      </trkpt>
      <trkpt lat="45.95689" lon="4.75957">
        <ele>185</ele>
        <time>2016-09-20T08:27:12Z</time>
      </trkpt>
      <trkpt lat="45.95692" lon="4.75964">
        <ele>185</ele>
        <time>2016-09-20T08:27:13Z</time>
      </trkpt>
      <trkpt lat="45.95695" lon="4.75971">
        <ele>185</ele>
        <time>2016-09-20T08:27:14Z</time>
      </trkpt>
      <trkpt lat="45.95699" lon="4.75977">
        <ele>185</ele>
        <time>2016-09-20T08:27:15Z</time>
      </trkpt>
      <trkpt lat="45.95702" lon="4.75983">
        <ele>185</ele>
        <time>2016-09-20T08:27:16Z</time>
      </trkpt>
      <trkpt lat="45.95705" lon="4.75989">
        <ele>185</ele>
        <time>2016-09-20T08:27:17Z</time>
      </trkpt>
      <trkpt lat="45.95708" lon="4.76">
        <ele>185</ele>
        <time>2016-09-20T08:27:19Z</time>
      </trkpt>
      <trkpt lat="45.95711" lon="4.76005">
        <ele>184</ele>
        <time>2016-09-20T08:27:20Z</time>
      </trkpt>
      <trkpt lat="45.95713" lon="4.76011">
        <ele>184</ele>
        <time>2016-09-20T08:27:21Z</time>
      </trkpt>
      <trkpt lat="45.95716" lon="4.76017">
        <ele>184</ele>
        <time>2016-09-20T08:27:22Z</time>
      </trkpt>
      <trkpt lat="45.95719" lon="4.76024">
        <ele>184</ele>
        <time>2016-09-20T08:27:23Z</time>
      </trkpt>
      <trkpt lat="45.95722" lon="4.7603">
        <ele>184</ele>
        <time>2016-09-20T08:27:24Z</time>
      </trkpt>
      <trkpt lat="45.95725" lon="4.76036">
        <ele>184</ele>
        <time>2016-09-20T08:27:25Z</time>
      </trkpt>
      <trkpt lat="45.95727" lon="4.76042">
        <ele>184</ele>
        <time>2016-09-20T08:27:26Z</time>
      </trkpt>
      <trkpt lat="45.9573" lon="4.76048">
        <ele>184</ele>
        <time>2016-09-20T08:27:27Z</time>
      </trkpt>
      <trkpt lat="45.95733" lon="4.76054">
        <ele>184</ele>
        <time>2016-09-20T08:27:28Z</time>
      </trkpt>
      <trkpt lat="45.95735" lon="4.76061">
        <ele>184</ele>
        <time>2016-09-20T08:27:29Z</time>
      </trkpt>
      <trkpt lat="45.95737" lon="4.76067">
        <ele>184</ele>
        <time>2016-09-20T08:27:30Z</time>
      </trkpt>
      <trkpt lat="45.9574" lon="4.76073">
        <ele>185</ele>
        <time>2016-09-20T08:27:31Z</time>
      </trkpt>
      <trkpt lat="45.95743" lon="4.76079">
        <ele>185</ele>
        <time>2016-09-20T08:27:32Z</time>
      </trkpt>
      <trkpt lat="45.95745" lon="4.76085">
        <ele>185</ele>
        <time>2016-09-20T08:27:33Z</time>
      </trkpt>
      <trkpt lat="45.95747" lon="4.76091">
        <ele>185</ele>
        <time>2016-09-20T08:27:34Z</time>
      </trkpt>
      <trkpt lat="45.95751" lon="4.76098">
        <ele>186</ele>
        <time>2016-09-20T08:27:35Z</time>
      </trkpt>
      <trkpt lat="45.95753" lon="4.76104">
        <ele>186</ele>
        <time>2016-09-20T08:27:36Z</time>
      </trkpt>
      <trkpt lat="45.95755" lon="4.76111">
        <ele>186</ele>
        <time>2016-09-20T08:27:37Z</time>
      </trkpt>
      <trkpt lat="45.95756" lon="4.76118">
        <ele>186</ele>
        <time>2016-09-20T08:27:38Z</time>
      </trkpt>
      <trkpt lat="45.95756" lon="4.76126">
        <ele>186</ele>
        <time>2016-09-20T08:27:39Z</time>
      </trkpt>
      <trkpt lat="45.95757" lon="4.76133">
        <ele>186</ele>
        <time>2016-09-20T08:27:40Z</time>
      </trkpt>
      <trkpt lat="45.95758" lon="4.76139">
        <ele>186</ele>
        <time>2016-09-20T08:27:41Z</time>
      </trkpt>
      <trkpt lat="45.95758" lon="4.76146">
        <ele>186</ele>
        <time>2016-09-20T08:27:42Z</time>
      </trkpt>
      <trkpt lat="45.95759" lon="4.76152">
        <ele>186</ele>
        <time>2016-09-20T08:27:43Z</time>
      </trkpt>
      <trkpt lat="45.9576" lon="4.76159">
        <ele>186</ele>
        <time>2016-09-20T08:27:44Z</time>
      </trkpt>
      <trkpt lat="45.9576" lon="4.76165">
        <ele>185</ele>
        <time>2016-09-20T08:27:45Z</time>
      </trkpt>
      <trkpt lat="45.9576" lon="4.76172">
        <ele>185</ele>
        <time>2016-09-20T08:27:46Z</time>
      </trkpt>
      <trkpt lat="45.9576" lon="4.76179">
        <ele>185</ele>
        <time>2016-09-20T08:27:47Z</time>
      </trkpt>
      <trkpt lat="45.9576" lon="4.76185">
        <ele>186</ele>
        <time>2016-09-20T08:27:48Z</time>
      </trkpt>
      <trkpt lat="45.95761" lon="4.76198">
        <ele>186</ele>
        <time>2016-09-20T08:27:50Z</time>
      </trkpt>
      <trkpt lat="45.95761" lon="4.76205">
        <ele>186</ele>
        <time>2016-09-20T08:27:51Z</time>
      </trkpt>
      <trkpt lat="45.95762" lon="4.76212">
        <ele>186</ele>
        <time>2016-09-20T08:27:52Z</time>
      </trkpt>
      <trkpt lat="45.95762" lon="4.76219">
        <ele>186</ele>
        <time>2016-09-20T08:27:53Z</time>
      </trkpt>
      <trkpt lat="45.95763" lon="4.76225">
        <ele>186</ele>
        <time>2016-09-20T08:27:54Z</time>
      </trkpt>
      <trkpt lat="45.95763" lon="4.76232">
        <ele>186</ele>
        <time>2016-09-20T08:27:55Z</time>
      </trkpt>
      <trkpt lat="45.95763" lon="4.76239">
        <ele>185</ele>
        <time>2016-09-20T08:27:56Z</time>
      </trkpt>
      <trkpt lat="45.95763" lon="4.76247">
        <ele>185</ele>
        <time>2016-09-20T08:27:57Z</time>
      </trkpt>
      <trkpt lat="45.95763" lon="4.76255">
        <ele>185</ele>
        <time>2016-09-20T08:27:58Z</time>
      </trkpt>
      <trkpt lat="45.95763" lon="4.76262">
        <ele>185</ele>
        <time>2016-09-20T08:27:59Z</time>
      </trkpt>
      <trkpt lat="45.95763" lon="4.76271">
        <ele>185</ele>
        <time>2016-09-20T08:28:00Z</time>
      </trkpt>
      <trkpt lat="45.95764" lon="4.76278">
        <ele>186</ele>
        <time>2016-09-20T08:28:01Z</time>
      </trkpt>
      <trkpt lat="45.95765" lon="4.76286">
        <ele>186</ele>
        <time>2016-09-20T08:28:02Z</time>
      </trkpt>
      <trkpt lat="45.95765" lon="4.76293">
        <ele>186</ele>
        <time>2016-09-20T08:28:03Z</time>
      </trkpt>
      <trkpt lat="45.95766" lon="4.76301">
        <ele>186</ele>
        <time>2016-09-20T08:28:04Z</time>
      </trkpt>
      <trkpt lat="45.95764" lon="4.76306">
        <ele>185</ele>
        <time>2016-09-20T08:28:05Z</time>
      </trkpt>
      <trkpt lat="45.95764" lon="4.76319">
        <ele>185</ele>
        <time>2016-09-20T08:28:07Z</time>
      </trkpt>
      <trkpt lat="45.95765" lon="4.76327">
        <ele>185</ele>
        <time>2016-09-20T08:28:08Z</time>
      </trkpt>
      <trkpt lat="45.95766" lon="4.76334">
        <ele>185</ele>
        <time>2016-09-20T08:28:09Z</time>
      </trkpt>
      <trkpt lat="45.95766" lon="4.76341">
        <ele>186</ele>
        <time>2016-09-20T08:28:10Z</time>
      </trkpt>
      <trkpt lat="45.95767" lon="4.76349">
        <ele>186</ele>
        <time>2016-09-20T08:28:11Z</time>
      </trkpt>
      <trkpt lat="45.95768" lon="4.76356">
        <ele>186</ele>
        <time>2016-09-20T08:28:12Z</time>
      </trkpt>
      <trkpt lat="45.95769" lon="4.76364">
        <ele>186</ele>
        <time>2016-09-20T08:28:13Z</time>
      </trkpt>
      <trkpt lat="45.95769" lon="4.76372">
        <ele>186</ele>
        <time>2016-09-20T08:28:14Z</time>
      </trkpt>
      <trkpt lat="45.95769" lon="4.76379">
        <ele>186</ele>
        <time>2016-09-20T08:28:15Z</time>
      </trkpt>
      <trkpt lat="45.95769" lon="4.76386">
        <ele>186</ele>
        <time>2016-09-20T08:28:16Z</time>
      </trkpt>
      <trkpt lat="45.9577" lon="4.76394">
        <ele>186</ele>
        <time>2016-09-20T08:28:17Z</time>
      </trkpt>
      <trkpt lat="45.9577" lon="4.76401">
        <ele>186</ele>
        <time>2016-09-20T08:28:18Z</time>
      </trkpt>
      <trkpt lat="45.9577" lon="4.76408">
        <ele>186</ele>
        <time>2016-09-20T08:28:19Z</time>
      </trkpt>
      <trkpt lat="45.95771" lon="4.76416">
        <ele>186</ele>
        <time>2016-09-20T08:28:20Z</time>
      </trkpt>
      <trkpt lat="45.95773" lon="4.76423">
        <ele>186</ele>
        <time>2016-09-20T08:28:21Z</time>
      </trkpt>
      <trkpt lat="45.95774" lon="4.7643">
        <ele>186</ele>
        <time>2016-09-20T08:28:22Z</time>
      </trkpt>
      <trkpt lat="45.95775" lon="4.76438">
        <ele>186</ele>
        <time>2016-09-20T08:28:23Z</time>
      </trkpt>
      <trkpt lat="45.95775" lon="4.76444">
        <ele>186</ele>
        <time>2016-09-20T08:28:24Z</time>
      </trkpt>
      <trkpt lat="45.95776" lon="4.76452">
        <ele>186</ele>
        <time>2016-09-20T08:28:25Z</time>
      </trkpt>
      <trkpt lat="45.95777" lon="4.7646">
        <ele>186</ele>
        <time>2016-09-20T08:28:26Z</time>
      </trkpt>
      <trkpt lat="45.95778" lon="4.76467">
        <ele>186</ele>
        <time>2016-09-20T08:28:27Z</time>
      </trkpt>
      <trkpt lat="45.95779" lon="4.76474">
        <ele>186</ele>
        <time>2016-09-20T08:28:28Z</time>
      </trkpt>
      <trkpt lat="45.9578" lon="4.76481">
        <ele>186</ele>
        <time>2016-09-20T08:28:29Z</time>
      </trkpt>
      <trkpt lat="45.95781" lon="4.76487">
        <ele>186</ele>
        <time>2016-09-20T08:28:30Z</time>
      </trkpt>
      <trkpt lat="45.95782" lon="4.76494">
        <ele>186</ele>
        <time>2016-09-20T08:28:31Z</time>
      </trkpt>
      <trkpt lat="45.95783" lon="4.76501">
        <ele>186</ele>
        <time>2016-09-20T08:28:32Z</time>
      </trkpt>
      <trkpt lat="45.95784" lon="4.76508">
        <ele>186</ele>
        <time>2016-09-20T08:28:33Z</time>
      </trkpt>
      <trkpt lat="45.95785" lon="4.76515">
        <ele>187</ele>
        <time>2016-09-20T08:28:34Z</time>
      </trkpt>
      <trkpt lat="45.95785" lon="4.76521">
        <ele>187</ele>
        <time>2016-09-20T08:28:35Z</time>
      </trkpt>
      <trkpt lat="45.95787" lon="4.76528">
        <ele>187</ele>
        <time>2016-09-20T08:28:36Z</time>
      </trkpt>
      <trkpt lat="45.95788" lon="4.76536">
        <ele>187</ele>
        <time>2016-09-20T08:28:37Z</time>
      </trkpt>
      <trkpt lat="45.95789" lon="4.76543">
        <ele>187</ele>
        <time>2016-09-20T08:28:38Z</time>
      </trkpt>
      <trkpt lat="45.9579" lon="4.7655">
        <ele>187</ele>
        <time>2016-09-20T08:28:39Z</time>
      </trkpt>
      <trkpt lat="45.95791" lon="4.76558">
        <ele>187</ele>
        <time>2016-09-20T08:28:40Z</time>
      </trkpt>
      <trkpt lat="45.95793" lon="4.76565">
        <ele>187</ele>
        <time>2016-09-20T08:28:41Z</time>
      </trkpt>
      <trkpt lat="45.95794" lon="4.76573">
        <ele>187</ele>
        <time>2016-09-20T08:28:42Z</time>
      </trkpt>
      <trkpt lat="45.95795" lon="4.76581">
        <ele>187</ele>
        <time>2016-09-20T08:28:43Z</time>
      </trkpt>
      <trkpt lat="45.95796" lon="4.76589">
        <ele>187</ele>
        <time>2016-09-20T08:28:44Z</time>
      </trkpt>
      <trkpt lat="45.95798" lon="4.76596">
        <ele>187</ele>
        <time>2016-09-20T08:28:45Z</time>
      </trkpt>
      <trkpt lat="45.95799" lon="4.76604">
        <ele>187</ele>
        <time>2016-09-20T08:28:46Z</time>
      </trkpt>
      <trkpt lat="45.958" lon="4.76612">
        <ele>187</ele>
        <time>2016-09-20T08:28:47Z</time>
      </trkpt>
      <trkpt lat="45.95801" lon="4.7662">
        <ele>188</ele>
        <time>2016-09-20T08:28:48Z</time>
      </trkpt>
      <trkpt lat="45.95802" lon="4.76628">
        <ele>188</ele>
        <time>2016-09-20T08:28:49Z</time>
      </trkpt>
      <trkpt lat="45.95803" lon="4.76634">
        <ele>188</ele>
        <time>2016-09-20T08:28:50Z</time>
      </trkpt>
      <trkpt lat="45.95804" lon="4.76641">
        <ele>188</ele>
        <time>2016-09-20T08:28:51Z</time>
      </trkpt>
      <trkpt lat="45.95805" lon="4.76648">
        <ele>188</ele>
        <time>2016-09-20T08:28:52Z</time>
      </trkpt>
      <trkpt lat="45.95806" lon="4.76655">
        <ele>188</ele>
        <time>2016-09-20T08:28:53Z</time>
      </trkpt>
      <trkpt lat="45.95807" lon="4.76662">
        <ele>188</ele>
        <time>2016-09-20T08:28:54Z</time>
      </trkpt>
      <trkpt lat="45.95809" lon="4.7667">
        <ele>189</ele>
        <time>2016-09-20T08:28:55Z</time>
      </trkpt>
      <trkpt lat="45.9581" lon="4.76678">
        <ele>189</ele>
        <time>2016-09-20T08:28:56Z</time>
      </trkpt>
      <trkpt lat="45.95811" lon="4.76686">
        <ele>189</ele>
        <time>2016-09-20T08:28:57Z</time>
      </trkpt>
      <trkpt lat="45.95812" lon="4.76694">
        <ele>189</ele>
        <time>2016-09-20T08:28:58Z</time>
      </trkpt>
      <trkpt lat="45.95813" lon="4.76702">
        <ele>189</ele>
        <time>2016-09-20T08:28:59Z</time>
      </trkpt>
      <trkpt lat="45.95814" lon="4.76712">
        <ele>189</ele>
        <time>2016-09-20T08:29:00Z</time>
      </trkpt>
      <trkpt lat="45.95815" lon="4.7672">
        <ele>189</ele>
        <time>2016-09-20T08:29:01Z</time>
      </trkpt>
      <trkpt lat="45.95817" lon="4.76728">
        <ele>190</ele>
        <time>2016-09-20T08:29:02Z</time>
      </trkpt>
      <trkpt lat="45.95818" lon="4.76735">
        <ele>190</ele>
        <time>2016-09-20T08:29:03Z</time>
      </trkpt>
      <trkpt lat="45.95819" lon="4.76742">
        <ele>190</ele>
        <time>2016-09-20T08:29:04Z</time>
      </trkpt>
      <trkpt lat="45.9582" lon="4.76755">
        <ele>190</ele>
        <time>2016-09-20T08:29:06Z</time>
      </trkpt>
      <trkpt lat="45.95821" lon="4.76761">
        <ele>190</ele>
        <time>2016-09-20T08:29:07Z</time>
      </trkpt>
      <trkpt lat="45.95823" lon="4.76768">
        <ele>190</ele>
        <time>2016-09-20T08:29:08Z</time>
      </trkpt>
      <trkpt lat="45.95823" lon="4.76774">
        <ele>190</ele>
        <time>2016-09-20T08:29:09Z</time>
      </trkpt>
      <trkpt lat="45.95824" lon="4.76781">
        <ele>190</ele>
        <time>2016-09-20T08:29:10Z</time>
      </trkpt>
      <trkpt lat="45.95825" lon="4.76788">
        <ele>190</ele>
        <time>2016-09-20T08:29:11Z</time>
      </trkpt>
      <trkpt lat="45.95826" lon="4.76795">
        <ele>190</ele>
        <time>2016-09-20T08:29:12Z</time>
      </trkpt>
      <trkpt lat="45.95826" lon="4.76803">
        <ele>190</ele>
        <time>2016-09-20T08:29:13Z</time>
      </trkpt>
      <trkpt lat="45.95826" lon="4.76811">
        <ele>190</ele>
        <time>2016-09-20T08:29:14Z</time>
      </trkpt>
      <trkpt lat="45.95825" lon="4.76819">
        <ele>190</ele>
        <time>2016-09-20T08:29:15Z</time>
      </trkpt>
      <trkpt lat="45.95824" lon="4.76827">
        <ele>190</ele>
        <time>2016-09-20T08:29:16Z</time>
      </trkpt>
      <trkpt lat="45.95823" lon="4.76835">
        <ele>190</ele>
        <time>2016-09-20T08:29:17Z</time>
      </trkpt>
      <trkpt lat="45.95821" lon="4.76843">
        <ele>190</ele>
        <time>2016-09-20T08:29:18Z</time>
      </trkpt>
      <trkpt lat="45.9582" lon="4.76851">
        <ele>189</ele>
        <time>2016-09-20T08:29:19Z</time>
      </trkpt>
      <trkpt lat="45.95819" lon="4.76859">
        <ele>189</ele>
        <time>2016-09-20T08:29:20Z</time>
      </trkpt>
      <trkpt lat="45.95817" lon="4.76865">
        <ele>189</ele>
        <time>2016-09-20T08:29:21Z</time>
      </trkpt>
      <trkpt lat="45.95815" lon="4.76872">
        <ele>189</ele>
        <time>2016-09-20T08:29:22Z</time>
      </trkpt>
      <trkpt lat="45.95814" lon="4.76879">
        <ele>189</ele>
        <time>2016-09-20T08:29:23Z</time>
      </trkpt>
      <trkpt lat="45.95812" lon="4.76887">
        <ele>189</ele>
        <time>2016-09-20T08:29:24Z</time>
      </trkpt>
      <trkpt lat="45.95811" lon="4.76894">
        <ele>189</ele>
        <time>2016-09-20T08:29:25Z</time>
      </trkpt>
      <trkpt lat="45.9581" lon="4.76901">
        <ele>189</ele>
        <time>2016-09-20T08:29:26Z</time>
      </trkpt>
      <trkpt lat="45.95808" lon="4.76908">
        <ele>189</ele>
        <time>2016-09-20T08:29:27Z</time>
      </trkpt>
      <trkpt lat="45.95807" lon="4.76916">
        <ele>189</ele>
        <time>2016-09-20T08:29:28Z</time>
      </trkpt>
      <trkpt lat="45.95805" lon="4.76923">
        <ele>189</ele>
        <time>2016-09-20T08:29:29Z</time>
      </trkpt>
      <trkpt lat="45.95804" lon="4.76931">
        <ele>189</ele>
        <time>2016-09-20T08:29:30Z</time>
      </trkpt>
      <trkpt lat="45.95802" lon="4.76939">
        <ele>189</ele>
        <time>2016-09-20T08:29:31Z</time>
      </trkpt>
      <trkpt lat="45.95801" lon="4.76947">
        <ele>189</ele>
        <time>2016-09-20T08:29:32Z</time>
      </trkpt>
      <trkpt lat="45.95799" lon="4.76954">
        <ele>189</ele>
        <time>2016-09-20T08:29:33Z</time>
      </trkpt>
      <trkpt lat="45.95798" lon="4.76962">
        <ele>189</ele>
        <time>2016-09-20T08:29:34Z</time>
      </trkpt>
      <trkpt lat="45.95798" lon="4.7697">
        <ele>189</ele>
        <time>2016-09-20T08:29:35Z</time>
      </trkpt>
      <trkpt lat="45.95797" lon="4.76977">
        <ele>189</ele>
        <time>2016-09-20T08:29:36Z</time>
      </trkpt>
      <trkpt lat="45.95796" lon="4.76985">
        <ele>189</ele>
        <time>2016-09-20T08:29:37Z</time>
      </trkpt>
      <trkpt lat="45.95797" lon="4.76994">
        <ele>189</ele>
        <time>2016-09-20T08:29:38Z</time>
      </trkpt>
      <trkpt lat="45.95797" lon="4.77002">
        <ele>190</ele>
        <time>2016-09-20T08:29:39Z</time>
      </trkpt>
      <trkpt lat="45.95798" lon="4.77009">
        <ele>190</ele>
        <time>2016-09-20T08:29:40Z</time>
      </trkpt>
      <trkpt lat="45.958" lon="4.77016">
        <ele>190</ele>
        <time>2016-09-20T08:29:41Z</time>
      </trkpt>
      <trkpt lat="45.95802" lon="4.77024">
        <ele>190</ele>
        <time>2016-09-20T08:29:42Z</time>
      </trkpt>
      <trkpt lat="45.95805" lon="4.77031">
        <ele>190</ele>
        <time>2016-09-20T08:29:43Z</time>
      </trkpt>
      <trkpt lat="45.95808" lon="4.77038">
        <ele>190</ele>
        <time>2016-09-20T08:29:44Z</time>
      </trkpt>
      <trkpt lat="45.95811" lon="4.77044">
        <ele>190</ele>
        <time>2016-09-20T08:29:45Z</time>
      </trkpt>
      <trkpt lat="45.95814" lon="4.77051">
        <ele>190</ele>
        <time>2016-09-20T08:29:46Z</time>
      </trkpt>
      <trkpt lat="45.95817" lon="4.77058">
        <ele>190</ele>
        <time>2016-09-20T08:29:47Z</time>
      </trkpt>
      <trkpt lat="45.95819" lon="4.77065">
        <ele>190</ele>
        <time>2016-09-20T08:29:48Z</time>
      </trkpt>
      <trkpt lat="45.95822" lon="4.77072">
        <ele>191</ele>
        <time>2016-09-20T08:29:49Z</time>
      </trkpt>
      <trkpt lat="45.95825" lon="4.7708">
        <ele>191</ele>
        <time>2016-09-20T08:29:50Z</time>
      </trkpt>
      <trkpt lat="45.95827" lon="4.77087">
        <ele>191</ele>
        <time>2016-09-20T08:29:51Z</time>
      </trkpt>
      <trkpt lat="45.9583" lon="4.77095">
        <ele>191</ele>
        <time>2016-09-20T08:29:52Z</time>
      </trkpt>
      <trkpt lat="45.95833" lon="4.77102">
        <ele>190</ele>
        <time>2016-09-20T08:29:53Z</time>
      </trkpt>
      <trkpt lat="45.95835" lon="4.77109">
        <ele>193</ele>
        <time>2016-09-20T08:29:54Z</time>
      </trkpt>
      <trkpt lat="45.95837" lon="4.77116">
        <ele>193</ele>
        <time>2016-09-20T08:29:55Z</time>
      </trkpt>
      <trkpt lat="45.95839" lon="4.77122">
        <ele>193</ele>
        <time>2016-09-20T08:29:56Z</time>
      </trkpt>
      <trkpt lat="45.95841" lon="4.77128">
        <ele>193</ele>
        <time>2016-09-20T08:29:57Z</time>
      </trkpt>
      <trkpt lat="45.95843" lon="4.77134">
        <ele>193</ele>
        <time>2016-09-20T08:29:58Z</time>
      </trkpt>
      <trkpt lat="45.95845" lon="4.7714">
        <ele>193</ele>
        <time>2016-09-20T08:29:59Z</time>
      </trkpt>
      <trkpt lat="45.95847" lon="4.77147">
        <ele>192</ele>
        <time>2016-09-20T08:30:00Z</time>
      </trkpt>
      <trkpt lat="45.95849" lon="4.77153">
        <ele>192</ele>
        <time>2016-09-20T08:30:01Z</time>
      </trkpt>
      <trkpt lat="45.9585" lon="4.77161">
        <ele>192</ele>
        <time>2016-09-20T08:30:02Z</time>
      </trkpt>
      <trkpt lat="45.95852" lon="4.77168">
        <ele>192</ele>
        <time>2016-09-20T08:30:03Z</time>
      </trkpt>
      <trkpt lat="45.95854" lon="4.77175">
        <ele>192</ele>
        <time>2016-09-20T08:30:04Z</time>
      </trkpt>
      <trkpt lat="45.95857" lon="4.77183">
        <ele>192</ele>
        <time>2016-09-20T08:30:05Z</time>
      </trkpt>
      <trkpt lat="45.95859" lon="4.7719">
        <ele>192</ele>
        <time>2016-09-20T08:30:06Z</time>
      </trkpt>
      <trkpt lat="45.9586" lon="4.77196">
        <ele>192</ele>
        <time>2016-09-20T08:30:07Z</time>
      </trkpt>
      <trkpt lat="45.95862" lon="4.77203">
        <ele>192</ele>
        <time>2016-09-20T08:30:08Z</time>
      </trkpt>
      <trkpt lat="45.95864" lon="4.7721">
        <ele>193</ele>
        <time>2016-09-20T08:30:09Z</time>
      </trkpt>
      <trkpt lat="45.95866" lon="4.77217">
        <ele>193</ele>
        <time>2016-09-20T08:30:10Z</time>
      </trkpt>
      <trkpt lat="45.95867" lon="4.77224">
        <ele>193</ele>
        <time>2016-09-20T08:30:11Z</time>
      </trkpt>
      <trkpt lat="45.95869" lon="4.77231">
        <ele>193</ele>
        <time>2016-09-20T08:30:12Z</time>
      </trkpt>
      <trkpt lat="45.9587" lon="4.77238">
        <ele>193</ele>
        <time>2016-09-20T08:30:13Z</time>
      </trkpt>
      <trkpt lat="45.95871" lon="4.77245">
        <ele>193</ele>
        <time>2016-09-20T08:30:14Z</time>
      </trkpt>
      <trkpt lat="45.95873" lon="4.77252">
        <ele>193</ele>
        <time>2016-09-20T08:30:15Z</time>
      </trkpt>
      <trkpt lat="45.95875" lon="4.7726">
        <ele>193</ele>
        <time>2016-09-20T08:30:16Z</time>
      </trkpt>
      <trkpt lat="45.95876" lon="4.77267">
        <ele>193</ele>
        <time>2016-09-20T08:30:17Z</time>
      </trkpt>
      <trkpt lat="45.95877" lon="4.77273">
        <ele>193</ele>
        <time>2016-09-20T08:30:18Z</time>
      </trkpt>
      <trkpt lat="45.95879" lon="4.7728">
        <ele>193</ele>
        <time>2016-09-20T08:30:19Z</time>
      </trkpt>
      <trkpt lat="45.9588" lon="4.77286">
        <ele>193</ele>
        <time>2016-09-20T08:30:20Z</time>
      </trkpt>
      <trkpt lat="45.95882" lon="4.77292">
        <ele>193</ele>
        <time>2016-09-20T08:30:21Z</time>
      </trkpt>
      <trkpt lat="45.95882" lon="4.77299">
        <ele>193</ele>
        <time>2016-09-20T08:30:22Z</time>
      </trkpt>
      <trkpt lat="45.95884" lon="4.77305">
        <ele>193</ele>
        <time>2016-09-20T08:30:23Z</time>
      </trkpt>
      <trkpt lat="45.95886" lon="4.77311">
        <ele>193</ele>
        <time>2016-09-20T08:30:24Z</time>
      </trkpt>
      <trkpt lat="45.95888" lon="4.77317">
        <ele>193</ele>
        <time>2016-09-20T08:30:25Z</time>
      </trkpt>
      <trkpt lat="45.9589" lon="4.77324">
        <ele>193</ele>
        <time>2016-09-20T08:30:26Z</time>
      </trkpt>
      <trkpt lat="45.95892" lon="4.77331">
        <ele>193</ele>
        <time>2016-09-20T08:30:27Z</time>
      </trkpt>
      <trkpt lat="45.95894" lon="4.77337">
        <ele>193</ele>
        <time>2016-09-20T08:30:28Z</time>
      </trkpt>
      <trkpt lat="45.95897" lon="4.77343">
        <ele>193</ele>
        <time>2016-09-20T08:30:29Z</time>
      </trkpt>
      <trkpt lat="45.95899" lon="4.77349">
        <ele>193</ele>
        <time>2016-09-20T08:30:30Z</time>
      </trkpt>
      <trkpt lat="45.95902" lon="4.77355">
        <ele>193</ele>
        <time>2016-09-20T08:30:31Z</time>
      </trkpt>
      <trkpt lat="45.95904" lon="4.77361">
        <ele>193</ele>
        <time>2016-09-20T08:30:32Z</time>
      </trkpt>
      <trkpt lat="45.95906" lon="4.77367">
        <ele>193</ele>
        <time>2016-09-20T08:30:33Z</time>
      </trkpt>
      <trkpt lat="45.95908" lon="4.77374">
        <ele>193</ele>
        <time>2016-09-20T08:30:34Z</time>
      </trkpt>
      <trkpt lat="45.9591" lon="4.77381">
        <ele>193</ele>
        <time>2016-09-20T08:30:35Z</time>
      </trkpt>
      <trkpt lat="45.95914" lon="4.77391">
        <ele>193</ele>
        <time>2016-09-20T08:30:37Z</time>
      </trkpt>
      <trkpt lat="45.95916" lon="4.77397">
        <ele>193</ele>
        <time>2016-09-20T08:30:38Z</time>
      </trkpt>
      <trkpt lat="45.95917" lon="4.77403">
        <ele>195</ele>
        <time>2016-09-20T08:30:39Z</time>
      </trkpt>
      <trkpt lat="45.95919" lon="4.7741">
        <ele>195</ele>
        <time>2016-09-20T08:30:40Z</time>
      </trkpt>
      <trkpt lat="45.95922" lon="4.77416">
        <ele>195</ele>
        <time>2016-09-20T08:30:41Z</time>
      </trkpt>
      <trkpt lat="45.95924" lon="4.77423">
        <ele>195</ele>
        <time>2016-09-20T08:30:42Z</time>
      </trkpt>
      <trkpt lat="45.95926" lon="4.77429">
        <ele>195</ele>
        <time>2016-09-20T08:30:43Z</time>
      </trkpt>
      <trkpt lat="45.95928" lon="4.77435">
        <ele>195</ele>
        <time>2016-09-20T08:30:44Z</time>
      </trkpt>
      <trkpt lat="45.95931" lon="4.77441">
        <ele>195</ele>
        <time>2016-09-20T08:30:45Z</time>
      </trkpt>
      <trkpt lat="45.95933" lon="4.77447">
        <ele>195</ele>
        <time>2016-09-20T08:30:46Z</time>
      </trkpt>
      <trkpt lat="45.95936" lon="4.77458">
        <ele>195</ele>
        <time>2016-09-20T08:30:48Z</time>
      </trkpt>
      <trkpt lat="45.95938" lon="4.77464">
        <ele>195</ele>
        <time>2016-09-20T08:30:49Z</time>
      </trkpt>
      <trkpt lat="45.95941" lon="4.7747">
        <ele>195</ele>
        <time>2016-09-20T08:30:50Z</time>
      </trkpt>
      <trkpt lat="45.95943" lon="4.77476">
        <ele>195</ele>
        <time>2016-09-20T08:30:51Z</time>
      </trkpt>
      <trkpt lat="45.95945" lon="4.77482">
        <ele>195</ele>
        <time>2016-09-20T08:30:52Z</time>
      </trkpt>
      <trkpt lat="45.95948" lon="4.77488">
        <ele>195</ele>
        <time>2016-09-20T08:30:53Z</time>
      </trkpt>
      <trkpt lat="45.95951" lon="4.77494">
        <ele>195</ele>
        <time>2016-09-20T08:30:54Z</time>
      </trkpt>
      <trkpt lat="45.95953" lon="4.77501">
        <ele>195</ele>
        <time>2016-09-20T08:30:55Z</time>
      </trkpt>
      <trkpt lat="45.95956" lon="4.77507">
        <ele>195</ele>
        <time>2016-09-20T08:30:56Z</time>
      </trkpt>
      <trkpt lat="45.95958" lon="4.77513">
        <ele>195</ele>
        <time>2016-09-20T08:30:57Z</time>
      </trkpt>
      <trkpt lat="45.95961" lon="4.77519">
        <ele>195</ele>
        <time>2016-09-20T08:30:58Z</time>
      </trkpt>
      <trkpt lat="45.95964" lon="4.77525">
        <ele>195</ele>
        <time>2016-09-20T08:30:59Z</time>
      </trkpt>
      <trkpt lat="45.95969" lon="4.77535">
        <ele>195</ele>
        <time>2016-09-20T08:31:01Z</time>
      </trkpt>
      <trkpt lat="45.95971" lon="4.77539">
        <ele>195</ele>
        <time>2016-09-20T08:31:02Z</time>
      </trkpt>
      <trkpt lat="45.95975" lon="4.77547">
        <ele>195</ele>
        <time>2016-09-20T08:31:04Z</time>
      </trkpt>
      <trkpt lat="45.95977" lon="4.77553">
        <ele>195</ele>
        <time>2016-09-20T08:31:05Z</time>
      </trkpt>
      <trkpt lat="45.9598" lon="4.77558">
        <ele>196</ele>
        <time>2016-09-20T08:31:06Z</time>
      </trkpt>
      <trkpt lat="45.95982" lon="4.77563">
        <ele>196</ele>
        <time>2016-09-20T08:31:07Z</time>
      </trkpt>
      <trkpt lat="45.95985" lon="4.77574">
        <ele>196</ele>
        <time>2016-09-20T08:31:09Z</time>
      </trkpt>
      <trkpt lat="45.95986" lon="4.7758">
        <ele>196</ele>
        <time>2016-09-20T08:31:10Z</time>
      </trkpt>
      <trkpt lat="45.95988" lon="4.77586">
        <ele>196</ele>
        <time>2016-09-20T08:31:11Z</time>
      </trkpt>
      <trkpt lat="45.95991" lon="4.77592">
        <ele>196</ele>
        <time>2016-09-20T08:31:12Z</time>
      </trkpt>
      <trkpt lat="45.95998" lon="4.776">
        <ele>195</ele>
        <time>2016-09-20T08:31:14Z</time>
      </trkpt>
      <trkpt lat="45.96002" lon="4.77603">
        <ele>198</ele>
        <time>2016-09-20T08:31:15Z</time>
      </trkpt>
      <trkpt lat="45.96006" lon="4.77607">
        <ele>198</ele>
        <time>2016-09-20T08:31:16Z</time>
      </trkpt>
      <trkpt lat="45.9601" lon="4.77612">
        <ele>199</ele>
        <time>2016-09-20T08:31:17Z</time>
      </trkpt>
      <trkpt lat="45.96014" lon="4.77617">
        <ele>199</ele>
        <time>2016-09-20T08:31:18Z</time>
      </trkpt>
      <trkpt lat="45.96018" lon="4.77622">
        <ele>199</ele>
        <time>2016-09-20T08:31:19Z</time>
      </trkpt>
      <trkpt lat="45.96022" lon="4.77627">
        <ele>199</ele>
        <time>2016-09-20T08:31:20Z</time>
      </trkpt>
      <trkpt lat="45.96026" lon="4.77632">
        <ele>199</ele>
        <time>2016-09-20T08:31:21Z</time>
      </trkpt>
      <trkpt lat="45.9603" lon="4.77635">
        <ele>199</ele>
        <time>2016-09-20T08:31:22Z</time>
      </trkpt>
      <trkpt lat="45.96034" lon="4.7764">
        <ele>199</ele>
        <time>2016-09-20T08:31:23Z</time>
      </trkpt>
      <trkpt lat="45.9604" lon="4.77645">
        <ele>199</ele>
        <time>2016-09-20T08:31:24Z</time>
      </trkpt>
      <trkpt lat="45.96043" lon="4.7765">
        <ele>199</ele>
        <time>2016-09-20T08:31:25Z</time>
      </trkpt>
      <trkpt lat="45.96047" lon="4.77656">
        <ele>199</ele>
        <time>2016-09-20T08:31:26Z</time>
      </trkpt>
      <trkpt lat="45.96051" lon="4.77661">
        <ele>200</ele>
        <time>2016-09-20T08:31:27Z</time>
      </trkpt>
      <trkpt lat="45.96055" lon="4.77667">
        <ele>197</ele>
        <time>2016-09-20T08:31:28Z</time>
      </trkpt>
      <trkpt lat="45.96059" lon="4.77672">
        <ele>198</ele>
        <time>2016-09-20T08:31:29Z</time>
      </trkpt>
      <trkpt lat="45.96062" lon="4.77677">
        <ele>198</ele>
        <time>2016-09-20T08:31:30Z</time>
      </trkpt>
      <trkpt lat="45.96066" lon="4.77682">
        <ele>198</ele>
        <time>2016-09-20T08:31:31Z</time>
      </trkpt>
      <trkpt lat="45.96069" lon="4.77688">
        <ele>198</ele>
        <time>2016-09-20T08:31:32Z</time>
      </trkpt>
      <trkpt lat="45.96072" lon="4.77693">
        <ele>197</ele>
        <time>2016-09-20T08:31:33Z</time>
      </trkpt>
      <trkpt lat="45.96075" lon="4.77698">
        <ele>197</ele>
        <time>2016-09-20T08:31:34Z</time>
      </trkpt>
      <trkpt lat="45.96078" lon="4.77703">
        <ele>197</ele>
        <time>2016-09-20T08:31:35Z</time>
      </trkpt>
      <trkpt lat="45.96081" lon="4.77708">
        <ele>197</ele>
        <time>2016-09-20T08:31:36Z</time>
      </trkpt>
      <trkpt lat="45.96085" lon="4.77713">
        <ele>199</ele>
        <time>2016-09-20T08:31:37Z</time>
      </trkpt>
      <trkpt lat="45.96091" lon="4.77722">
        <ele>199</ele>
        <time>2016-09-20T08:31:39Z</time>
      </trkpt>
      <trkpt lat="45.96094" lon="4.77727">
        <ele>199</ele>
        <time>2016-09-20T08:31:40Z</time>
      </trkpt>
      <trkpt lat="45.96097" lon="4.77733">
        <ele>198</ele>
        <time>2016-09-20T08:31:41Z</time>
      </trkpt>
      <trkpt lat="45.961" lon="4.77738">
        <ele>198</ele>
        <time>2016-09-20T08:31:42Z</time>
      </trkpt>
      <trkpt lat="45.96102" lon="4.77743">
        <ele>198</ele>
        <time>2016-09-20T08:31:43Z</time>
      </trkpt>
      <trkpt lat="45.96106" lon="4.77749">
        <ele>198</ele>
        <time>2016-09-20T08:31:44Z</time>
      </trkpt>
      <trkpt lat="45.96108" lon="4.77754">
        <ele>197</ele>
        <time>2016-09-20T08:31:45Z</time>
      </trkpt>
      <trkpt lat="45.96112" lon="4.7776">
        <ele>197</ele>
        <time>2016-09-20T08:31:46Z</time>
      </trkpt>
      <trkpt lat="45.96115" lon="4.77765">
        <ele>197</ele>
        <time>2016-09-20T08:31:47Z</time>
      </trkpt>
      <trkpt lat="45.96119" lon="4.7777">
        <ele>197</ele>
        <time>2016-09-20T08:31:48Z</time>
      </trkpt>
      <trkpt lat="45.96125" lon="4.77777">
        <ele>197</ele>
        <time>2016-09-20T08:31:50Z</time>
      </trkpt>
      <trkpt lat="45.96128" lon="4.77782">
        <ele>198</ele>
        <time>2016-09-20T08:31:51Z</time>
      </trkpt>
      <trkpt lat="45.96134" lon="4.77788">
        <ele>198</ele>
        <time>2016-09-20T08:31:53Z</time>
      </trkpt>
      <trkpt lat="45.96138" lon="4.77793">
        <ele>198</ele>
        <time>2016-09-20T08:31:54Z</time>
      </trkpt>
      <trkpt lat="45.96144" lon="4.77802">
        <ele>198</ele>
        <time>2016-09-20T08:31:56Z</time>
      </trkpt>
      <trkpt lat="45.96148" lon="4.77806">
        <ele>198</ele>
        <time>2016-09-20T08:31:57Z</time>
      </trkpt>
      <trkpt lat="45.9615" lon="4.77812">
        <ele>198</ele>
        <time>2016-09-20T08:31:58Z</time>
      </trkpt>
      <trkpt lat="45.96153" lon="4.77818">
        <ele>198</ele>
        <time>2016-09-20T08:31:59Z</time>
      </trkpt>
      <trkpt lat="45.96156" lon="4.77825">
        <ele>198</ele>
        <time>2016-09-20T08:32:00Z</time>
      </trkpt>
      <trkpt lat="45.96159" lon="4.77831">
        <ele>199</ele>
        <time>2016-09-20T08:32:01Z</time>
      </trkpt>
      <trkpt lat="45.96164" lon="4.77841">
        <ele>198</ele>
        <time>2016-09-20T08:32:03Z</time>
      </trkpt>
      <trkpt lat="45.96168" lon="4.77847">
        <ele>200</ele>
        <time>2016-09-20T08:32:04Z</time>
      </trkpt>
      <trkpt lat="45.9617" lon="4.77852">
        <ele>201</ele>
        <time>2016-09-20T08:32:05Z</time>
      </trkpt>
      <trkpt lat="45.96172" lon="4.77859">
        <ele>201</ele>
        <time>2016-09-20T08:32:06Z</time>
      </trkpt>
      <trkpt lat="45.96177" lon="4.77865">
        <ele>201</ele>
        <time>2016-09-20T08:32:07Z</time>
      </trkpt>
      <trkpt lat="45.9618" lon="4.77871">
        <ele>201</ele>
        <time>2016-09-20T08:32:08Z</time>
      </trkpt>
      <trkpt lat="45.96183" lon="4.77876">
        <ele>201</ele>
        <time>2016-09-20T08:32:09Z</time>
      </trkpt>
      <trkpt lat="45.96186" lon="4.77881">
        <ele>201</ele>
        <time>2016-09-20T08:32:10Z</time>
      </trkpt>
      <trkpt lat="45.96191" lon="4.7789">
        <ele>201</ele>
        <time>2016-09-20T08:32:12Z</time>
      </trkpt>
      <trkpt lat="45.96194" lon="4.77895">
        <ele>201</ele>
        <time>2016-09-20T08:32:13Z</time>
      </trkpt>
      <trkpt lat="45.96199" lon="4.77904">
        <ele>201</ele>
        <time>2016-09-20T08:32:15Z</time>
      </trkpt>
      <trkpt lat="45.96203" lon="4.77909">
        <ele>202</ele>
        <time>2016-09-20T08:32:16Z</time>
      </trkpt>
      <trkpt lat="45.96207" lon="4.77915">
        <ele>202</ele>
        <time>2016-09-20T08:32:17Z</time>
      </trkpt>
      <trkpt lat="45.9621" lon="4.7792">
        <ele>199</ele>
        <time>2016-09-20T08:32:18Z</time>
      </trkpt>
      <trkpt lat="45.96214" lon="4.77926">
        <ele>199</ele>
        <time>2016-09-20T08:32:19Z</time>
      </trkpt>
      <trkpt lat="45.96218" lon="4.77931">
        <ele>200</ele>
        <time>2016-09-20T08:32:20Z</time>
      </trkpt>
      <trkpt lat="45.96221" lon="4.77936">
        <ele>200</ele>
        <time>2016-09-20T08:32:21Z</time>
      </trkpt>
      <trkpt lat="45.96225" lon="4.77941">
        <ele>200</ele>
        <time>2016-09-20T08:32:22Z</time>
      </trkpt>
      <trkpt lat="45.9623" lon="4.77947">
        <ele>200</ele>
        <time>2016-09-20T08:32:23Z</time>
      </trkpt>
      <trkpt lat="45.96234" lon="4.77952">
        <ele>200</ele>
        <time>2016-09-20T08:32:24Z</time>
      </trkpt>
      <trkpt lat="45.96238" lon="4.77956">
        <ele>199</ele>
        <time>2016-09-20T08:32:25Z</time>
      </trkpt>
      <trkpt lat="45.96242" lon="4.77959">
        <ele>199</ele>
        <time>2016-09-20T08:32:26Z</time>
      </trkpt>
      <trkpt lat="45.96246" lon="4.77963">
        <ele>199</ele>
        <time>2016-09-20T08:32:27Z</time>
      </trkpt>
      <trkpt lat="45.96251" lon="4.77968">
        <ele>204</ele>
        <time>2016-09-20T08:32:28Z</time>
      </trkpt>
      <trkpt lat="45.96255" lon="4.77972">
        <ele>203</ele>
        <time>2016-09-20T08:32:29Z</time>
      </trkpt>
      <trkpt lat="45.9626" lon="4.77976">
        <ele>203</ele>
        <time>2016-09-20T08:32:30Z</time>
      </trkpt>
      <trkpt lat="45.96264" lon="4.7798">
        <ele>202</ele>
        <time>2016-09-20T08:32:31Z</time>
      </trkpt>
      <trkpt lat="45.96268" lon="4.77985">
        <ele>202</ele>
        <time>2016-09-20T08:32:32Z</time>
      </trkpt>
      <trkpt lat="45.96272" lon="4.77989">
        <ele>202</ele>
        <time>2016-09-20T08:32:33Z</time>
      </trkpt>
      <trkpt lat="45.96276" lon="4.77992">
        <ele>203</ele>
        <time>2016-09-20T08:32:34Z</time>
      </trkpt>
      <trkpt lat="45.96281" lon="4.77996">
        <ele>203</ele>
        <time>2016-09-20T08:32:35Z</time>
      </trkpt>
      <trkpt lat="45.96287" lon="4.78001">
        <ele>199</ele>
        <time>2016-09-20T08:32:36Z</time>
      </trkpt>
      <trkpt lat="45.96293" lon="4.78008">
        <ele>199</ele>
        <time>2016-09-20T08:32:38Z</time>
      </trkpt>
      <trkpt lat="45.96296" lon="4.78011">
        <ele>199</ele>
        <time>2016-09-20T08:32:39Z</time>
      </trkpt>
      <trkpt lat="45.963" lon="4.78015">
        <ele>199</ele>
        <time>2016-09-20T08:32:40Z</time>
      </trkpt>
      <trkpt lat="45.96304" lon="4.7802">
        <ele>200</ele>
        <time>2016-09-20T08:32:41Z</time>
      </trkpt>
      <trkpt lat="45.96308" lon="4.78024">
        <ele>200</ele>
        <time>2016-09-20T08:32:42Z</time>
      </trkpt>
      <trkpt lat="45.96312" lon="4.78028">
        <ele>200</ele>
        <time>2016-09-20T08:32:43Z</time>
      </trkpt>
      <trkpt lat="45.96318" lon="4.78036">
        <ele>199</ele>
        <time>2016-09-20T08:32:45Z</time>
      </trkpt>
      <trkpt lat="45.96322" lon="4.78041">
        <ele>199</ele>
        <time>2016-09-20T08:32:46Z</time>
      </trkpt>
      <trkpt lat="45.96326" lon="4.78046">
        <ele>199</ele>
        <time>2016-09-20T08:32:47Z</time>
      </trkpt>
      <trkpt lat="45.9633" lon="4.7805">
        <ele>199</ele>
        <time>2016-09-20T08:32:48Z</time>
      </trkpt>
      <trkpt lat="45.96335" lon="4.78055">
        <ele>202</ele>
        <time>2016-09-20T08:32:49Z</time>
      </trkpt>
      <trkpt lat="45.9634" lon="4.78061">
        <ele>202</ele>
        <time>2016-09-20T08:32:50Z</time>
      </trkpt>
      <trkpt lat="45.96343" lon="4.78066">
        <ele>201</ele>
        <time>2016-09-20T08:32:51Z</time>
      </trkpt>
      <trkpt lat="45.96348" lon="4.78071">
        <ele>201</ele>
        <time>2016-09-20T08:32:52Z</time>
      </trkpt>
      <trkpt lat="45.96353" lon="4.78077">
        <ele>201</ele>
        <time>2016-09-20T08:32:53Z</time>
      </trkpt>
      <trkpt lat="45.96357" lon="4.78082">
        <ele>202</ele>
        <time>2016-09-20T08:32:54Z</time>
      </trkpt>
      <trkpt lat="45.96361" lon="4.78087">
        <ele>199</ele>
        <time>2016-09-20T08:32:55Z</time>
      </trkpt>
      <trkpt lat="45.96365" lon="4.7809">
        <ele>199</ele>
        <time>2016-09-20T08:32:56Z</time>
      </trkpt>
      <trkpt lat="45.96372" lon="4.78096">
        <ele>199</ele>
        <time>2016-09-20T08:32:58Z</time>
      </trkpt>
      <trkpt lat="45.96375" lon="4.78098">
        <ele>200</ele>
        <time>2016-09-20T08:32:59Z</time>
      </trkpt>
      <trkpt lat="45.96382" lon="4.78106">
        <ele>200</ele>
        <time>2016-09-20T08:33:01Z</time>
      </trkpt>
      <trkpt lat="45.96385" lon="4.7811">
        <ele>200</ele>
        <time>2016-09-20T08:33:02Z</time>
      </trkpt>
      <trkpt lat="45.96389" lon="4.78114">
        <ele>200</ele>
        <time>2016-09-20T08:33:03Z</time>
      </trkpt>
      <trkpt lat="45.96393" lon="4.78118">
        <ele>200</ele>
        <time>2016-09-20T08:33:04Z</time>
      </trkpt>
      <trkpt lat="45.964" lon="4.78124">
        <ele>200</ele>
        <time>2016-09-20T08:33:06Z</time>
      </trkpt>
      <trkpt lat="45.96404" lon="4.78128">
        <ele>199</ele>
        <time>2016-09-20T08:33:07Z</time>
      </trkpt>
      <trkpt lat="45.96409" lon="4.78131">
        <ele>199</ele>
        <time>2016-09-20T08:33:08Z</time>
      </trkpt>
      <trkpt lat="45.96414" lon="4.78136">
        <ele>199</ele>
        <time>2016-09-20T08:33:09Z</time>
      </trkpt>
      <trkpt lat="45.96419" lon="4.78141">
        <ele>203</ele>
        <time>2016-09-20T08:33:10Z</time>
      </trkpt>
      <trkpt lat="45.96423" lon="4.78145">
        <ele>202</ele>
        <time>2016-09-20T08:33:11Z</time>
      </trkpt>
      <trkpt lat="45.96428" lon="4.7815">
        <ele>202</ele>
        <time>2016-09-20T08:33:12Z</time>
      </trkpt>
      <trkpt lat="45.96432" lon="4.78153">
        <ele>202</ele>
        <time>2016-09-20T08:33:13Z</time>
      </trkpt>
      <trkpt lat="45.96437" lon="4.78157">
        <ele>202</ele>
        <time>2016-09-20T08:33:14Z</time>
      </trkpt>
      <trkpt lat="45.96441" lon="4.78161">
        <ele>203</ele>
        <time>2016-09-20T08:33:15Z</time>
      </trkpt>
      <trkpt lat="45.96445" lon="4.78165">
        <ele>203</ele>
        <time>2016-09-20T08:33:16Z</time>
      </trkpt>
      <trkpt lat="45.96449" lon="4.78169">
        <ele>199</ele>
        <time>2016-09-20T08:33:17Z</time>
      </trkpt>
      <trkpt lat="45.96453" lon="4.78172">
        <ele>200</ele>
        <time>2016-09-20T08:33:18Z</time>
      </trkpt>
      <trkpt lat="45.96457" lon="4.78176">
        <ele>200</ele>
        <time>2016-09-20T08:33:19Z</time>
      </trkpt>
      <trkpt lat="45.96461" lon="4.7818">
        <ele>200</ele>
        <time>2016-09-20T08:33:20Z</time>
      </trkpt>
      <trkpt lat="45.96466" lon="4.78183">
        <ele>200</ele>
        <time>2016-09-20T08:33:21Z</time>
      </trkpt>
      <trkpt lat="45.9647" lon="4.78186">
        <ele>200</ele>
        <time>2016-09-20T08:33:22Z</time>
      </trkpt>
      <trkpt lat="45.96475" lon="4.78189">
        <ele>200</ele>
        <time>2016-09-20T08:33:23Z</time>
      </trkpt>
      <trkpt lat="45.9648" lon="4.78192">
        <ele>200</ele>
        <time>2016-09-20T08:33:24Z</time>
      </trkpt>
      <trkpt lat="45.96485" lon="4.78195">
        <ele>200</ele>
        <time>2016-09-20T08:33:25Z</time>
      </trkpt>
      <trkpt lat="45.9649" lon="4.78198">
        <ele>200</ele>
        <time>2016-09-20T08:33:26Z</time>
      </trkpt>
      <trkpt lat="45.96495" lon="4.78202">
        <ele>200</ele>
        <time>2016-09-20T08:33:27Z</time>
      </trkpt>
      <trkpt lat="45.96502" lon="4.78209">
        <ele>205</ele>
        <time>2016-09-20T08:33:29Z</time>
      </trkpt>
      <trkpt lat="45.96505" lon="4.78213">
        <ele>205</ele>
        <time>2016-09-20T08:33:30Z</time>
      </trkpt>
      <trkpt lat="45.96512" lon="4.7822">
        <ele>204</ele>
        <time>2016-09-20T08:33:32Z</time>
      </trkpt>
      <trkpt lat="45.96516" lon="4.78221">
        <ele>204</ele>
        <time>2016-09-20T08:33:33Z</time>
      </trkpt>
      <trkpt lat="45.96519" lon="4.78228">
        <ele>204</ele>
        <time>2016-09-20T08:33:34Z</time>
      </trkpt>
      <trkpt lat="45.96522" lon="4.78232">
        <ele>204</ele>
        <time>2016-09-20T08:33:35Z</time>
      </trkpt>
      <trkpt lat="45.96525" lon="4.78238">
        <ele>204</ele>
        <time>2016-09-20T08:33:36Z</time>
      </trkpt>
      <trkpt lat="45.96528" lon="4.78243">
        <ele>204</ele>
        <time>2016-09-20T08:33:37Z</time>
      </trkpt>
      <trkpt lat="45.96533" lon="4.78252">
        <ele>200</ele>
        <time>2016-09-20T08:33:39Z</time>
      </trkpt>
      <trkpt lat="45.96536" lon="4.78258">
        <ele>200</ele>
        <time>2016-09-20T08:33:40Z</time>
      </trkpt>
      <trkpt lat="45.96539" lon="4.78264">
        <ele>200</ele>
        <time>2016-09-20T08:33:41Z</time>
      </trkpt>
      <trkpt lat="45.96542" lon="4.78269">
        <ele>200</ele>
        <time>2016-09-20T08:33:42Z</time>
      </trkpt>
      <trkpt lat="45.96546" lon="4.78276">
        <ele>200</ele>
        <time>2016-09-20T08:33:43Z</time>
      </trkpt>
      <trkpt lat="45.9655" lon="4.78282">
        <ele>200</ele>
        <time>2016-09-20T08:33:44Z</time>
      </trkpt>
      <trkpt lat="45.96554" lon="4.78286">
        <ele>200</ele>
        <time>2016-09-20T08:33:45Z</time>
      </trkpt>
      <trkpt lat="45.96558" lon="4.78291">
        <ele>200</ele>
        <time>2016-09-20T08:33:46Z</time>
      </trkpt>
      <trkpt lat="45.96564" lon="4.78299">
        <ele>200</ele>
        <time>2016-09-20T08:33:48Z</time>
      </trkpt>
      <trkpt lat="45.96568" lon="4.78303">
        <ele>200</ele>
        <time>2016-09-20T08:33:49Z</time>
      </trkpt>
      <trkpt lat="45.96572" lon="4.78308">
        <ele>200</ele>
        <time>2016-09-20T08:33:50Z</time>
      </trkpt>
      <trkpt lat="45.96576" lon="4.78313">
        <ele>199</ele>
        <time>2016-09-20T08:33:51Z</time>
      </trkpt>
      <trkpt lat="45.9658" lon="4.78317">
        <ele>199</ele>
        <time>2016-09-20T08:33:52Z</time>
      </trkpt>
      <trkpt lat="45.96584" lon="4.78321">
        <ele>201</ele>
        <time>2016-09-20T08:33:53Z</time>
      </trkpt>
      <trkpt lat="45.96588" lon="4.78325">
        <ele>201</ele>
        <time>2016-09-20T08:33:54Z</time>
      </trkpt>
      <trkpt lat="45.96592" lon="4.78329">
        <ele>201</ele>
        <time>2016-09-20T08:33:55Z</time>
      </trkpt>
      <trkpt lat="45.96596" lon="4.78334">
        <ele>199</ele>
        <time>2016-09-20T08:33:56Z</time>
      </trkpt>
      <trkpt lat="45.966" lon="4.78339">
        <ele>200</ele>
        <time>2016-09-20T08:33:57Z</time>
      </trkpt>
      <trkpt lat="45.96604" lon="4.78343">
        <ele>200</ele>
        <time>2016-09-20T08:33:58Z</time>
      </trkpt>
      <trkpt lat="45.96608" lon="4.78347">
        <ele>200</ele>
        <time>2016-09-20T08:33:59Z</time>
      </trkpt>
      <trkpt lat="45.96615" lon="4.78355">
        <ele>201</ele>
        <time>2016-09-20T08:34:01Z</time>
      </trkpt>
      <trkpt lat="45.96618" lon="4.78358">
        <ele>201</ele>
        <time>2016-09-20T08:34:02Z</time>
      </trkpt>
      <trkpt lat="45.96625" lon="4.78364">
        <ele>201</ele>
        <time>2016-09-20T08:34:04Z</time>
      </trkpt>
      <trkpt lat="45.96628" lon="4.78368">
        <ele>201</ele>
        <time>2016-09-20T08:34:05Z</time>
      </trkpt>
      <trkpt lat="45.96635" lon="4.78375">
        <ele>201</ele>
        <time>2016-09-20T08:34:07Z</time>
      </trkpt>
      <trkpt lat="45.96639" lon="4.78379">
        <ele>201</ele>
        <time>2016-09-20T08:34:08Z</time>
      </trkpt>
      <trkpt lat="45.96643" lon="4.78382">
        <ele>201</ele>
        <time>2016-09-20T08:34:09Z</time>
      </trkpt>
      <trkpt lat="45.96648" lon="4.78386">
        <ele>201</ele>
        <time>2016-09-20T08:34:10Z</time>
      </trkpt>
      <trkpt lat="45.96652" lon="4.7839">
        <ele>201</ele>
        <time>2016-09-20T08:34:11Z</time>
      </trkpt>
      <trkpt lat="45.96656" lon="4.78394">
        <ele>201</ele>
        <time>2016-09-20T08:34:12Z</time>
      </trkpt>
      <trkpt lat="45.9666" lon="4.78397">
        <ele>201</ele>
        <time>2016-09-20T08:34:13Z</time>
      </trkpt>
      <trkpt lat="45.96665" lon="4.78401">
        <ele>201</ele>
        <time>2016-09-20T08:34:14Z</time>
      </trkpt>
      <trkpt lat="45.96669" lon="4.78405">
        <ele>203</ele>
        <time>2016-09-20T08:34:15Z</time>
      </trkpt>
      <trkpt lat="45.96674" lon="4.78409">
        <ele>203</ele>
        <time>2016-09-20T08:34:16Z</time>
      </trkpt>
      <trkpt lat="45.96677" lon="4.78413">
        <ele>203</ele>
        <time>2016-09-20T08:34:17Z</time>
      </trkpt>
      <trkpt lat="45.96681" lon="4.78417">
        <ele>203</ele>
        <time>2016-09-20T08:34:18Z</time>
      </trkpt>
      <trkpt lat="45.96688" lon="4.78423">
        <ele>202</ele>
        <time>2016-09-20T08:34:20Z</time>
      </trkpt>
      <trkpt lat="45.96692" lon="4.78427">
        <ele>202</ele>
        <time>2016-09-20T08:34:21Z</time>
      </trkpt>
      <trkpt lat="45.96698" lon="4.78434">
        <ele>203</ele>
        <time>2016-09-20T08:34:23Z</time>
      </trkpt>
      <trkpt lat="45.96702" lon="4.78438">
        <ele>203</ele>
        <time>2016-09-20T08:34:24Z</time>
      </trkpt>
      <trkpt lat="45.96705" lon="4.78441">
        <ele>203</ele>
        <time>2016-09-20T08:34:25Z</time>
      </trkpt>
      <trkpt lat="45.96709" lon="4.78452">
        <ele>203</ele>
        <time>2016-09-20T08:34:26Z</time>
      </trkpt>
      <trkpt lat="45.96715" lon="4.7846">
        <ele>203</ele>
        <time>2016-09-20T08:34:28Z</time>
      </trkpt>
      <trkpt lat="45.9672" lon="4.78463">
        <ele>203</ele>
        <time>2016-09-20T08:34:29Z</time>
      </trkpt>
      <trkpt lat="45.96725" lon="4.78466">
        <ele>203</ele>
        <time>2016-09-20T08:34:30Z</time>
      </trkpt>
      <trkpt lat="45.96729" lon="4.7847">
        <ele>203</ele>
        <time>2016-09-20T08:34:31Z</time>
      </trkpt>
      <trkpt lat="45.96733" lon="4.78474">
        <ele>203</ele>
        <time>2016-09-20T08:34:32Z</time>
      </trkpt>
      <trkpt lat="45.96738" lon="4.78478">
        <ele>203</ele>
        <time>2016-09-20T08:34:33Z</time>
      </trkpt>
      <trkpt lat="45.96742" lon="4.78481">
        <ele>203</ele>
        <time>2016-09-20T08:34:34Z</time>
      </trkpt>
      <trkpt lat="45.96747" lon="4.78485">
        <ele>203</ele>
        <time>2016-09-20T08:34:35Z</time>
      </trkpt>
      <trkpt lat="45.96751" lon="4.78489">
        <ele>204</ele>
        <time>2016-09-20T08:34:36Z</time>
      </trkpt>
      <trkpt lat="45.96755" lon="4.78493">
        <ele>204</ele>
        <time>2016-09-20T08:34:37Z</time>
      </trkpt>
      <trkpt lat="45.9676" lon="4.78498">
        <ele>204</ele>
        <time>2016-09-20T08:34:38Z</time>
      </trkpt>
      <trkpt lat="45.96764" lon="4.78503">
        <ele>203</ele>
        <time>2016-09-20T08:34:39Z</time>
      </trkpt>
      <trkpt lat="45.96768" lon="4.78508">
        <ele>203</ele>
        <time>2016-09-20T08:34:40Z</time>
      </trkpt>
      <trkpt lat="45.96771" lon="4.78513">
        <ele>203</ele>
        <time>2016-09-20T08:34:41Z</time>
      </trkpt>
      <trkpt lat="45.96775" lon="4.78517">
        <ele>203</ele>
        <time>2016-09-20T08:34:42Z</time>
      </trkpt>
      <trkpt lat="45.96779" lon="4.78522">
        <ele>203</ele>
        <time>2016-09-20T08:34:43Z</time>
      </trkpt>
      <trkpt lat="45.96782" lon="4.78527">
        <ele>203</ele>
        <time>2016-09-20T08:34:44Z</time>
      </trkpt>
      <trkpt lat="45.96785" lon="4.78532">
        <ele>203</ele>
        <time>2016-09-20T08:34:45Z</time>
      </trkpt>
      <trkpt lat="45.96788" lon="4.78536">
        <ele>203</ele>
        <time>2016-09-20T08:34:46Z</time>
      </trkpt>
      <trkpt lat="45.96792" lon="4.78541">
        <ele>203</ele>
        <time>2016-09-20T08:34:47Z</time>
      </trkpt>
      <trkpt lat="45.96795" lon="4.78546">
        <ele>203</ele>
        <time>2016-09-20T08:34:48Z</time>
      </trkpt>
      <trkpt lat="45.96799" lon="4.78551">
        <ele>203</ele>
        <time>2016-09-20T08:34:49Z</time>
      </trkpt>
      <trkpt lat="45.96802" lon="4.78556">
        <ele>203</ele>
        <time>2016-09-20T08:34:50Z</time>
      </trkpt>
      <trkpt lat="45.96806" lon="4.78562">
        <ele>203</ele>
        <time>2016-09-20T08:34:51Z</time>
      </trkpt>
      <trkpt lat="45.96809" lon="4.78567">
        <ele>203</ele>
        <time>2016-09-20T08:34:52Z</time>
      </trkpt>
      <trkpt lat="45.96812" lon="4.78571">
        <ele>203</ele>
        <time>2016-09-20T08:34:53Z</time>
      </trkpt>
      <trkpt lat="45.96814" lon="4.78577">
        <ele>203</ele>
        <time>2016-09-20T08:34:54Z</time>
      </trkpt>
      <trkpt lat="45.96818" lon="4.78583">
        <ele>203</ele>
        <time>2016-09-20T08:34:55Z</time>
      </trkpt>
      <trkpt lat="45.96822" lon="4.78594">
        <ele>202</ele>
        <time>2016-09-20T08:34:57Z</time>
      </trkpt>
      <trkpt lat="45.96824" lon="4.78599">
        <ele>202</ele>
        <time>2016-09-20T08:34:58Z</time>
      </trkpt>
      <trkpt lat="45.96827" lon="4.78605">
        <ele>202</ele>
        <time>2016-09-20T08:34:59Z</time>
      </trkpt>
      <trkpt lat="45.9683" lon="4.7861">
        <ele>202</ele>
        <time>2016-09-20T08:35:00Z</time>
      </trkpt>
      <trkpt lat="45.96832" lon="4.78616">
        <ele>202</ele>
        <time>2016-09-20T08:35:01Z</time>
      </trkpt>
      <trkpt lat="45.96833" lon="4.78622">
        <ele>201</ele>
        <time>2016-09-20T08:35:02Z</time>
      </trkpt>
      <trkpt lat="45.96837" lon="4.78633">
        <ele>203</ele>
        <time>2016-09-20T08:35:04Z</time>
      </trkpt>
      <trkpt lat="45.96839" lon="4.78638">
        <ele>203</ele>
        <time>2016-09-20T08:35:05Z</time>
      </trkpt>
      <trkpt lat="45.96843" lon="4.78643">
        <ele>203</ele>
        <time>2016-09-20T08:35:06Z</time>
      </trkpt>
      <trkpt lat="45.96846" lon="4.78648">
        <ele>203</ele>
        <time>2016-09-20T08:35:07Z</time>
      </trkpt>
      <trkpt lat="45.96851" lon="4.78656">
        <ele>203</ele>
        <time>2016-09-20T08:35:09Z</time>
      </trkpt>
      <trkpt lat="45.96853" lon="4.78662">
        <ele>203</ele>
        <time>2016-09-20T08:35:10Z</time>
      </trkpt>
      <trkpt lat="45.96855" lon="4.78667">
        <ele>202</ele>
        <time>2016-09-20T08:35:11Z</time>
      </trkpt>
      <trkpt lat="45.96858" lon="4.78673">
        <ele>202</ele>
        <time>2016-09-20T08:35:12Z</time>
      </trkpt>
      <trkpt lat="45.96861" lon="4.7868">
        <ele>202</ele>
        <time>2016-09-20T08:35:13Z</time>
      </trkpt>
      <trkpt lat="45.96864" lon="4.78687">
        <ele>202</ele>
        <time>2016-09-20T08:35:14Z</time>
      </trkpt>
      <trkpt lat="45.96867" lon="4.78692">
        <ele>202</ele>
        <time>2016-09-20T08:35:15Z</time>
      </trkpt>
      <trkpt lat="45.96869" lon="4.78697">
        <ele>202</ele>
        <time>2016-09-20T08:35:16Z</time>
      </trkpt>
      <trkpt lat="45.96875" lon="4.78705">
        <ele>202</ele>
        <time>2016-09-20T08:35:18Z</time>
      </trkpt>
      <trkpt lat="45.96878" lon="4.78706">
        <ele>202</ele>
        <time>2016-09-20T08:35:19Z</time>
      </trkpt>
      <trkpt lat="45.96881" lon="4.78712">
        <ele>202</ele>
        <time>2016-09-20T08:35:20Z</time>
      </trkpt>
      <trkpt lat="45.96883" lon="4.78717">
        <ele>202</ele>
        <time>2016-09-20T08:35:21Z</time>
      </trkpt>
      <trkpt lat="45.96886" lon="4.78723">
        <ele>202</ele>
        <time>2016-09-20T08:35:22Z</time>
      </trkpt>
      <trkpt lat="45.96888" lon="4.7873">
        <ele>202</ele>
        <time>2016-09-20T08:35:23Z</time>
      </trkpt>
      <trkpt lat="45.96891" lon="4.78736">
        <ele>202</ele>
        <time>2016-09-20T08:35:24Z</time>
      </trkpt>
      <trkpt lat="45.96894" lon="4.78743">
        <ele>202</ele>
        <time>2016-09-20T08:35:25Z</time>
      </trkpt>
      <trkpt lat="45.96896" lon="4.7875">
        <ele>202</ele>
        <time>2016-09-20T08:35:26Z</time>
      </trkpt>
      <trkpt lat="45.96898" lon="4.78757">
        <ele>201</ele>
        <time>2016-09-20T08:35:27Z</time>
      </trkpt>
      <trkpt lat="45.969" lon="4.78763">
        <ele>201</ele>
        <time>2016-09-20T08:35:28Z</time>
      </trkpt>
      <trkpt lat="45.96906" lon="4.78768">
        <ele>201</ele>
        <time>2016-09-20T08:35:29Z</time>
      </trkpt>
      <trkpt lat="45.96909" lon="4.78774">
        <ele>201</ele>
        <time>2016-09-20T08:35:30Z</time>
      </trkpt>
      <trkpt lat="45.96912" lon="4.7878">
        <ele>201</ele>
        <time>2016-09-20T08:35:31Z</time>
      </trkpt>
      <trkpt lat="45.96915" lon="4.78786">
        <ele>201</ele>
        <time>2016-09-20T08:35:32Z</time>
      </trkpt>
      <trkpt lat="45.96917" lon="4.78792">
        <ele>203</ele>
        <time>2016-09-20T08:35:33Z</time>
      </trkpt>
      <trkpt lat="45.9692" lon="4.78798">
        <ele>203</ele>
        <time>2016-09-20T08:35:34Z</time>
      </trkpt>
      <trkpt lat="45.96922" lon="4.78804">
        <ele>203</ele>
        <time>2016-09-20T08:35:35Z</time>
      </trkpt>
      <trkpt lat="45.96925" lon="4.78809">
        <ele>203</ele>
        <time>2016-09-20T08:35:36Z</time>
      </trkpt>
      <trkpt lat="45.96928" lon="4.78815">
        <ele>202</ele>
        <time>2016-09-20T08:35:37Z</time>
      </trkpt>
      <trkpt lat="45.96931" lon="4.7882">
        <ele>202</ele>
        <time>2016-09-20T08:35:38Z</time>
      </trkpt>
      <trkpt lat="45.96934" lon="4.78825">
        <ele>202</ele>
        <time>2016-09-20T08:35:39Z</time>
      </trkpt>
      <trkpt lat="45.96938" lon="4.7883">
        <ele>202</ele>
        <time>2016-09-20T08:35:40Z</time>
      </trkpt>
      <trkpt lat="45.96941" lon="4.78835">
        <ele>202</ele>
        <time>2016-09-20T08:35:41Z</time>
      </trkpt>
      <trkpt lat="45.96945" lon="4.78839">
        <ele>202</ele>
        <time>2016-09-20T08:35:42Z</time>
      </trkpt>
      <trkpt lat="45.96948" lon="4.78844">
        <ele>202</ele>
        <time>2016-09-20T08:35:43Z</time>
      </trkpt>
      <trkpt lat="45.96954" lon="4.78852">
        <ele>203</ele>
        <time>2016-09-20T08:35:45Z</time>
      </trkpt>
      <trkpt lat="45.96957" lon="4.78856">
        <ele>203</ele>
        <time>2016-09-20T08:35:46Z</time>
      </trkpt>
      <trkpt lat="45.96961" lon="4.78861">
        <ele>203</ele>
        <time>2016-09-20T08:35:47Z</time>
      </trkpt>
      <trkpt lat="45.96965" lon="4.78865">
        <ele>203</ele>
        <time>2016-09-20T08:35:48Z</time>
      </trkpt>
      <trkpt lat="45.96968" lon="4.78869">
        <ele>203</ele>
        <time>2016-09-20T08:35:49Z</time>
      </trkpt>
      <trkpt lat="45.96972" lon="4.78874">
        <ele>203</ele>
        <time>2016-09-20T08:35:50Z</time>
      </trkpt>
      <trkpt lat="45.96976" lon="4.78879">
        <ele>203</ele>
        <time>2016-09-20T08:35:51Z</time>
      </trkpt>
      <trkpt lat="45.96979" lon="4.78883">
        <ele>203</ele>
        <time>2016-09-20T08:35:52Z</time>
      </trkpt>
      <trkpt lat="45.96985" lon="4.78892">
        <ele>203</ele>
        <time>2016-09-20T08:35:54Z</time>
      </trkpt>
      <trkpt lat="45.96989" lon="4.78895">
        <ele>203</ele>
        <time>2016-09-20T08:35:55Z</time>
      </trkpt>
      <trkpt lat="45.96995" lon="4.78902">
        <ele>204</ele>
        <time>2016-09-20T08:35:57Z</time>
      </trkpt>
      <trkpt lat="45.96998" lon="4.78906">
        <ele>204</ele>
        <time>2016-09-20T08:35:58Z</time>
      </trkpt>
      <trkpt lat="45.97005" lon="4.78914">
        <ele>205</ele>
        <time>2016-09-20T08:36:00Z</time>
      </trkpt>
      <trkpt lat="45.97007" lon="4.78918">
        <ele>204</ele>
        <time>2016-09-20T08:36:01Z</time>
      </trkpt>
      <trkpt lat="45.97013" lon="4.78927">
        <ele>205</ele>
        <time>2016-09-20T08:36:03Z</time>
      </trkpt>
      <trkpt lat="45.97016" lon="4.78931">
        <ele>205</ele>
        <time>2016-09-20T08:36:04Z</time>
      </trkpt>
      <trkpt lat="45.97022" lon="4.78941">
        <ele>205</ele>
        <time>2016-09-20T08:36:06Z</time>
      </trkpt>
      <trkpt lat="45.97025" lon="4.78945">
        <ele>205</ele>
        <time>2016-09-20T08:36:07Z</time>
      </trkpt>
      <trkpt lat="45.9703" lon="4.78954">
        <ele>205</ele>
        <time>2016-09-20T08:36:09Z</time>
      </trkpt>
      <trkpt lat="45.97033" lon="4.78958">
        <ele>205</ele>
        <time>2016-09-20T08:36:10Z</time>
      </trkpt>
      <trkpt lat="45.97037" lon="4.78968">
        <ele>205</ele>
        <time>2016-09-20T08:36:12Z</time>
      </trkpt>
      <trkpt lat="45.9704" lon="4.78972">
        <ele>205</ele>
        <time>2016-09-20T08:36:13Z</time>
      </trkpt>
      <trkpt lat="45.97046" lon="4.78978">
        <ele>205</ele>
        <time>2016-09-20T08:36:15Z</time>
      </trkpt>
      <trkpt lat="45.97048" lon="4.78982">
        <ele>205</ele>
        <time>2016-09-20T08:36:16Z</time>
      </trkpt>
      <trkpt lat="45.97051" lon="4.78993">
        <ele>205</ele>
        <time>2016-09-20T08:36:18Z</time>
      </trkpt>
      <trkpt lat="45.97053" lon="4.78999">
        <ele>205</ele>
        <time>2016-09-20T08:36:19Z</time>
      </trkpt>
      <trkpt lat="45.97055" lon="4.79006">
        <ele>203</ele>
        <time>2016-09-20T08:36:20Z</time>
      </trkpt>
      <trkpt lat="45.97057" lon="4.79013">
        <ele>203</ele>
        <time>2016-09-20T08:36:21Z</time>
      </trkpt>
      <trkpt lat="45.97059" lon="4.79021">
        <ele>203</ele>
        <time>2016-09-20T08:36:22Z</time>
      </trkpt>
      <trkpt lat="45.9706" lon="4.79028">
        <ele>203</ele>
        <time>2016-09-20T08:36:23Z</time>
      </trkpt>
      <trkpt lat="45.97062" lon="4.79034">
        <ele>203</ele>
        <time>2016-09-20T08:36:24Z</time>
      </trkpt>
      <trkpt lat="45.97063" lon="4.79041">
        <ele>203</ele>
        <time>2016-09-20T08:36:25Z</time>
      </trkpt>
      <trkpt lat="45.97065" lon="4.79048">
        <ele>203</ele>
        <time>2016-09-20T08:36:26Z</time>
      </trkpt>
      <trkpt lat="45.97067" lon="4.79056">
        <ele>203</ele>
        <time>2016-09-20T08:36:27Z</time>
      </trkpt>
      <trkpt lat="45.97068" lon="4.79063">
        <ele>203</ele>
        <time>2016-09-20T08:36:28Z</time>
      </trkpt>
      <trkpt lat="45.9707" lon="4.7907">
        <ele>204</ele>
        <time>2016-09-20T08:36:29Z</time>
      </trkpt>
      <trkpt lat="45.97072" lon="4.79077">
        <ele>204</ele>
        <time>2016-09-20T08:36:30Z</time>
      </trkpt>
      <trkpt lat="45.97073" lon="4.79084">
        <ele>204</ele>
        <time>2016-09-20T08:36:31Z</time>
      </trkpt>
      <trkpt lat="45.97075" lon="4.79093">
        <ele>204</ele>
        <time>2016-09-20T08:36:32Z</time>
      </trkpt>
      <trkpt lat="45.97078" lon="4.791">
        <ele>204</ele>
        <time>2016-09-20T08:36:33Z</time>
      </trkpt>
      <trkpt lat="45.97081" lon="4.79111">
        <ele>204</ele>
        <time>2016-09-20T08:36:35Z</time>
      </trkpt>
      <trkpt lat="45.97084" lon="4.79117">
        <ele>206</ele>
        <time>2016-09-20T08:36:36Z</time>
      </trkpt>
      <trkpt lat="45.97089" lon="4.79127">
        <ele>206</ele>
        <time>2016-09-20T08:36:38Z</time>
      </trkpt>
      <trkpt lat="45.97091" lon="4.79132">
        <ele>206</ele>
        <time>2016-09-20T08:36:39Z</time>
      </trkpt>
      <trkpt lat="45.97094" lon="4.79137">
        <ele>206</ele>
        <time>2016-09-20T08:36:40Z</time>
      </trkpt>
      <trkpt lat="45.97097" lon="4.79143">
        <ele>206</ele>
        <time>2016-09-20T08:36:41Z</time>
      </trkpt>
      <trkpt lat="45.97102" lon="4.7915">
        <ele>206</ele>
        <time>2016-09-20T08:36:42Z</time>
      </trkpt>
      <trkpt lat="45.97105" lon="4.79156">
        <ele>206</ele>
        <time>2016-09-20T08:36:43Z</time>
      </trkpt>
      <trkpt lat="45.97108" lon="4.79162">
        <ele>206</ele>
        <time>2016-09-20T08:36:44Z</time>
      </trkpt>
      <trkpt lat="45.97111" lon="4.79166">
        <ele>206</ele>
        <time>2016-09-20T08:36:45Z</time>
      </trkpt>
      <trkpt lat="45.97113" lon="4.79171">
        <ele>205</ele>
        <time>2016-09-20T08:36:46Z</time>
      </trkpt>
      <trkpt lat="45.97116" lon="4.79177">
        <ele>206</ele>
        <time>2016-09-20T08:36:47Z</time>
      </trkpt>
      <trkpt lat="45.97118" lon="4.79183">
        <ele>206</ele>
        <time>2016-09-20T08:36:48Z</time>
      </trkpt>
      <trkpt lat="45.97121" lon="4.7919">
        <ele>206</ele>
        <time>2016-09-20T08:36:49Z</time>
      </trkpt>
      <trkpt lat="45.97124" lon="4.79196">
        <ele>206</ele>
        <time>2016-09-20T08:36:50Z</time>
      </trkpt>
      <trkpt lat="45.97124" lon="4.79202">
        <ele>206</ele>
        <time>2016-09-20T08:36:51Z</time>
      </trkpt>
      <trkpt lat="45.97128" lon="4.79214">
        <ele>205</ele>
        <time>2016-09-20T08:36:53Z</time>
      </trkpt>
      <trkpt lat="45.9713" lon="4.79219">
        <ele>205</ele>
        <time>2016-09-20T08:36:54Z</time>
      </trkpt>
      <trkpt lat="45.97134" lon="4.79225">
        <ele>205</ele>
        <time>2016-09-20T08:36:55Z</time>
      </trkpt>
      <trkpt lat="45.97138" lon="4.79231">
        <ele>205</ele>
        <time>2016-09-20T08:36:56Z</time>
      </trkpt>
      <trkpt lat="45.9714" lon="4.79236">
        <ele>205</ele>
        <time>2016-09-20T08:36:57Z</time>
      </trkpt>
      <trkpt lat="45.97143" lon="4.79242">
        <ele>205</ele>
        <time>2016-09-20T08:36:58Z</time>
      </trkpt>
      <trkpt lat="45.97145" lon="4.79247">
        <ele>205</ele>
        <time>2016-09-20T08:36:59Z</time>
      </trkpt>
      <trkpt lat="45.97149" lon="4.79254">
        <ele>204</ele>
        <time>2016-09-20T08:37:00Z</time>
      </trkpt>
      <trkpt lat="45.97152" lon="4.7926">
        <ele>204</ele>
        <time>2016-09-20T08:37:01Z</time>
      </trkpt>
      <trkpt lat="45.97153" lon="4.79265">
        <ele>204</ele>
        <time>2016-09-20T08:37:02Z</time>
      </trkpt>
      <trkpt lat="45.97155" lon="4.79272">
        <ele>204</ele>
        <time>2016-09-20T08:37:03Z</time>
      </trkpt>
      <trkpt lat="45.97158" lon="4.79278">
        <ele>204</ele>
        <time>2016-09-20T08:37:04Z</time>
      </trkpt>
      <trkpt lat="45.9716" lon="4.79285">
        <ele>204</ele>
        <time>2016-09-20T08:37:05Z</time>
      </trkpt>
      <trkpt lat="45.97163" lon="4.79291">
        <ele>204</ele>
        <time>2016-09-20T08:37:06Z</time>
      </trkpt>
      <trkpt lat="45.97165" lon="4.79298">
        <ele>204</ele>
        <time>2016-09-20T08:37:07Z</time>
      </trkpt>
      <trkpt lat="45.97167" lon="4.79305">
        <ele>207</ele>
        <time>2016-09-20T08:37:08Z</time>
      </trkpt>
      <trkpt lat="45.9717" lon="4.79311">
        <ele>207</ele>
        <time>2016-09-20T08:37:09Z</time>
      </trkpt>
      <trkpt lat="45.97173" lon="4.79317">
        <ele>207</ele>
        <time>2016-09-20T08:37:10Z</time>
      </trkpt>
      <trkpt lat="45.97178" lon="4.79328">
        <ele>206</ele>
        <time>2016-09-20T08:37:12Z</time>
      </trkpt>
      <trkpt lat="45.9718" lon="4.79333">
        <ele>206</ele>
        <time>2016-09-20T08:37:13Z</time>
      </trkpt>
      <trkpt lat="45.97184" lon="4.79342">
        <ele>207</ele>
        <time>2016-09-20T08:37:15Z</time>
      </trkpt>
      <trkpt lat="45.97188" lon="4.79348">
        <ele>207</ele>
        <time>2016-09-20T08:37:16Z</time>
      </trkpt>
      <trkpt lat="45.9719" lon="4.79354">
        <ele>207</ele>
        <time>2016-09-20T08:37:17Z</time>
      </trkpt>
      <trkpt lat="45.97191" lon="4.7936">
        <ele>207</ele>
        <time>2016-09-20T08:37:18Z</time>
      </trkpt>
      <trkpt lat="45.97193" lon="4.79371">
        <ele>207</ele>
        <time>2016-09-20T08:37:20Z</time>
      </trkpt>
      <trkpt lat="45.97194" lon="4.79379">
        <ele>207</ele>
        <time>2016-09-20T08:37:21Z</time>
      </trkpt>
      <trkpt lat="45.97195" lon="4.79386">
        <ele>207</ele>
        <time>2016-09-20T08:37:22Z</time>
      </trkpt>
      <trkpt lat="45.97197" lon="4.79391">
        <ele>207</ele>
        <time>2016-09-20T08:37:23Z</time>
      </trkpt>
      <trkpt lat="45.972" lon="4.79397">
        <ele>207</ele>
        <time>2016-09-20T08:37:24Z</time>
      </trkpt>
      <trkpt lat="45.97203" lon="4.79403">
        <ele>207</ele>
        <time>2016-09-20T08:37:25Z</time>
      </trkpt>
      <trkpt lat="45.97206" lon="4.79408">
        <ele>208</ele>
        <time>2016-09-20T08:37:26Z</time>
      </trkpt>
      <trkpt lat="45.9721" lon="4.79414">
        <ele>208</ele>
        <time>2016-09-20T08:37:27Z</time>
      </trkpt>
      <trkpt lat="45.97212" lon="4.79419">
        <ele>208</ele>
        <time>2016-09-20T08:37:28Z</time>
      </trkpt>
      <trkpt lat="45.97215" lon="4.79425">
        <ele>208</ele>
        <time>2016-09-20T08:37:29Z</time>
      </trkpt>
      <trkpt lat="45.9722" lon="4.79435">
        <ele>208</ele>
        <time>2016-09-20T08:37:31Z</time>
      </trkpt>
      <trkpt lat="45.97223" lon="4.7944">
        <ele>209</ele>
        <time>2016-09-20T08:37:32Z</time>
      </trkpt>
      <trkpt lat="45.97225" lon="4.79446">
        <ele>209</ele>
        <time>2016-09-20T08:37:33Z</time>
      </trkpt>
      <trkpt lat="45.97228" lon="4.79452">
        <ele>209</ele>
        <time>2016-09-20T08:37:34Z</time>
      </trkpt>
      <trkpt lat="45.97232" lon="4.79463">
        <ele>209</ele>
        <time>2016-09-20T08:37:36Z</time>
      </trkpt>
      <trkpt lat="45.97233" lon="4.79469">
        <ele>209</ele>
        <time>2016-09-20T08:37:37Z</time>
      </trkpt>
      <trkpt lat="45.97235" lon="4.79476">
        <ele>209</ele>
        <time>2016-09-20T08:37:38Z</time>
      </trkpt>
      <trkpt lat="45.97237" lon="4.79483">
        <ele>209</ele>
        <time>2016-09-20T08:37:39Z</time>
      </trkpt>
      <trkpt lat="45.97238" lon="4.7949">
        <ele>210</ele>
        <time>2016-09-20T08:37:40Z</time>
      </trkpt>
      <trkpt lat="45.9724" lon="4.79496">
        <ele>210</ele>
        <time>2016-09-20T08:37:41Z</time>
      </trkpt>
      <trkpt lat="45.97242" lon="4.79508">
        <ele>210</ele>
        <time>2016-09-20T08:37:43Z</time>
      </trkpt>
      <trkpt lat="45.97243" lon="4.79514">
        <ele>210</ele>
        <time>2016-09-20T08:37:44Z</time>
      </trkpt>
      <trkpt lat="45.97245" lon="4.7952">
        <ele>210</ele>
        <time>2016-09-20T08:37:45Z</time>
      </trkpt>
      <trkpt lat="45.97246" lon="4.79526">
        <ele>210</ele>
        <time>2016-09-20T08:37:46Z</time>
      </trkpt>
      <trkpt lat="45.97248" lon="4.79535">
        <ele>210</ele>
        <time>2016-09-20T08:37:47Z</time>
      </trkpt>
      <trkpt lat="45.97249" lon="4.79542">
        <ele>210</ele>
        <time>2016-09-20T08:37:48Z</time>
      </trkpt>
      <trkpt lat="45.97249" lon="4.79554">
        <ele>210</ele>
        <time>2016-09-20T08:37:50Z</time>
      </trkpt>
      <trkpt lat="45.97249" lon="4.79559">
        <ele>210</ele>
        <time>2016-09-20T08:37:51Z</time>
      </trkpt>
      <trkpt lat="45.97252" lon="4.79567">
        <ele>213</ele>
        <time>2016-09-20T08:37:53Z</time>
      </trkpt>
      <trkpt lat="45.97252" lon="4.79574">
        <ele>212</ele>
        <time>2016-09-20T08:37:54Z</time>
      </trkpt>
      <trkpt lat="45.97251" lon="4.79584">
        <ele>210</ele>
        <time>2016-09-20T08:37:55Z</time>
      </trkpt>
      <trkpt lat="45.97249" lon="4.79592">
        <ele>210</ele>
        <time>2016-09-20T08:37:56Z</time>
      </trkpt>
      <trkpt lat="45.9725" lon="4.79599">
        <ele>209</ele>
        <time>2016-09-20T08:37:57Z</time>
      </trkpt>
      <trkpt lat="45.9725" lon="4.79607">
        <ele>209</ele>
        <time>2016-09-20T08:37:58Z</time>
      </trkpt>
      <trkpt lat="45.97247" lon="4.79616">
        <ele>209</ele>
        <time>2016-09-20T08:37:59Z</time>
      </trkpt>
      <trkpt lat="45.97246" lon="4.79625">
        <ele>209</ele>
        <time>2016-09-20T08:38:00Z</time>
      </trkpt>
      <trkpt lat="45.97245" lon="4.79634">
        <ele>209</ele>
        <time>2016-09-20T08:38:01Z</time>
      </trkpt>
      <trkpt lat="45.97246" lon="4.79642">
        <ele>208</ele>
        <time>2016-09-20T08:38:02Z</time>
      </trkpt>
      <trkpt lat="45.97246" lon="4.79649">
        <ele>208</ele>
        <time>2016-09-20T08:38:03Z</time>
      </trkpt>
      <trkpt lat="45.97246" lon="4.79655">
        <ele>208</ele>
        <time>2016-09-20T08:38:04Z</time>
      </trkpt>
      <trkpt lat="45.97247" lon="4.79668">
        <ele>208</ele>
        <time>2016-09-20T08:38:06Z</time>
      </trkpt>
      <trkpt lat="45.97247" lon="4.79674">
        <ele>208</ele>
        <time>2016-09-20T08:38:07Z</time>
      </trkpt>
      <trkpt lat="45.97247" lon="4.79681">
        <ele>208</ele>
        <time>2016-09-20T08:38:08Z</time>
      </trkpt>
      <trkpt lat="45.97247" lon="4.7969">
        <ele>208</ele>
        <time>2016-09-20T08:38:09Z</time>
      </trkpt>
      <trkpt lat="45.97246" lon="4.79696">
        <ele>208</ele>
        <time>2016-09-20T08:38:10Z</time>
      </trkpt>
      <trkpt lat="45.97245" lon="4.79703">
        <ele>208</ele>
        <time>2016-09-20T08:38:11Z</time>
      </trkpt>
      <trkpt lat="45.97244" lon="4.79711">
        <ele>209</ele>
        <time>2016-09-20T08:38:12Z</time>
      </trkpt>
      <trkpt lat="45.97242" lon="4.79719">
        <ele>209</ele>
        <time>2016-09-20T08:38:13Z</time>
      </trkpt>
      <trkpt lat="45.97241" lon="4.79725">
        <ele>209</ele>
        <time>2016-09-20T08:38:14Z</time>
      </trkpt>
      <trkpt lat="45.9724" lon="4.79731">
        <ele>209</ele>
        <time>2016-09-20T08:38:15Z</time>
      </trkpt>
      <trkpt lat="45.9724" lon="4.79739">
        <ele>209</ele>
        <time>2016-09-20T08:38:16Z</time>
      </trkpt>
      <trkpt lat="45.9724" lon="4.79745">
        <ele>209</ele>
        <time>2016-09-20T08:38:17Z</time>
      </trkpt>
      <trkpt lat="45.9724" lon="4.79752">
        <ele>209</ele>
        <time>2016-09-20T08:38:18Z</time>
      </trkpt>
      <trkpt lat="45.97239" lon="4.7976">
        <ele>209</ele>
        <time>2016-09-20T08:38:19Z</time>
      </trkpt>
      <trkpt lat="45.97237" lon="4.79767">
        <ele>210</ele>
        <time>2016-09-20T08:38:20Z</time>
      </trkpt>
      <trkpt lat="45.97236" lon="4.79774">
        <ele>210</ele>
        <time>2016-09-20T08:38:21Z</time>
      </trkpt>
      <trkpt lat="45.97236" lon="4.79781">
        <ele>210</ele>
        <time>2016-09-20T08:38:22Z</time>
      </trkpt>
      <trkpt lat="45.97235" lon="4.79788">
        <ele>210</ele>
        <time>2016-09-20T08:38:23Z</time>
      </trkpt>
      <trkpt lat="45.97234" lon="4.798">
        <ele>210</ele>
        <time>2016-09-20T08:38:25Z</time>
      </trkpt>
      <trkpt lat="45.97234" lon="4.79806">
        <ele>210</ele>
        <time>2016-09-20T08:38:26Z</time>
      </trkpt>
      <trkpt lat="45.97233" lon="4.79818">
        <ele>211</ele>
        <time>2016-09-20T08:38:28Z</time>
      </trkpt>
      <trkpt lat="45.97233" lon="4.79823">
        <ele>211</ele>
        <time>2016-09-20T08:38:29Z</time>
      </trkpt>
      <trkpt lat="45.97233" lon="4.79835">
        <ele>211</ele>
        <time>2016-09-20T08:38:31Z</time>
      </trkpt>
      <trkpt lat="45.97232" lon="4.7984">
        <ele>211</ele>
        <time>2016-09-20T08:38:32Z</time>
      </trkpt>
      <trkpt lat="45.97233" lon="4.79847">
        <ele>211</ele>
        <time>2016-09-20T08:38:33Z</time>
      </trkpt>
      <trkpt lat="45.97234" lon="4.79854">
        <ele>211</ele>
        <time>2016-09-20T08:38:34Z</time>
      </trkpt>
      <trkpt lat="45.97236" lon="4.79861">
        <ele>211</ele>
        <time>2016-09-20T08:38:35Z</time>
      </trkpt>
      <trkpt lat="45.97238" lon="4.79868">
        <ele>211</ele>
        <time>2016-09-20T08:38:36Z</time>
      </trkpt>
      <trkpt lat="45.97241" lon="4.79878">
        <ele>211</ele>
        <time>2016-09-20T08:38:38Z</time>
      </trkpt>
      <trkpt lat="45.97243" lon="4.79882">
        <ele>211</ele>
        <time>2016-09-20T08:38:39Z</time>
      </trkpt>
      <trkpt lat="45.97246" lon="4.79894">
        <ele>211</ele>
        <time>2016-09-20T08:38:42Z</time>
      </trkpt>
      <trkpt lat="45.97248" lon="4.79897">
        <ele>211</ele>
        <time>2016-09-20T08:38:43Z</time>
      </trkpt>
      <trkpt lat="45.97249" lon="4.79907">
        <ele>212</ele>
        <time>2016-09-20T08:38:46Z</time>
      </trkpt>
      <trkpt lat="45.9725" lon="4.7991">
        <ele>212</ele>
        <time>2016-09-20T08:38:47Z</time>
      </trkpt>
      <trkpt lat="45.97256" lon="4.79915">
        <ele>212</ele>
        <time>2016-09-20T08:38:49Z</time>
      </trkpt>
      <trkpt lat="45.9726" lon="4.79916">
        <ele>212</ele>
        <time>2016-09-20T08:38:50Z</time>
      </trkpt>
      <trkpt lat="45.97268" lon="4.79914">
        <ele>213</ele>
        <time>2016-09-20T08:38:52Z</time>
      </trkpt>
      <trkpt lat="45.97272" lon="4.79912">
        <ele>213</ele>
        <time>2016-09-20T08:38:53Z</time>
      </trkpt>
      <trkpt lat="45.97281" lon="4.7991">
        <ele>213</ele>
        <time>2016-09-20T08:38:55Z</time>
      </trkpt>
      <trkpt lat="45.97285" lon="4.7991">
        <ele>213</ele>
        <time>2016-09-20T08:38:56Z</time>
      </trkpt>
      <trkpt lat="45.97293" lon="4.7991">
        <ele>213</ele>
        <time>2016-09-20T08:38:58Z</time>
      </trkpt>
      <trkpt lat="45.97297" lon="4.7991">
        <ele>213</ele>
        <time>2016-09-20T08:38:59Z</time>
      </trkpt>
      <trkpt lat="45.97301" lon="4.7991">
        <ele>213</ele>
        <time>2016-09-20T08:39:00Z</time>
      </trkpt>
      <trkpt lat="45.97306" lon="4.79909">
        <ele>213</ele>
        <time>2016-09-20T08:39:01Z</time>
      </trkpt>
      <trkpt lat="45.97311" lon="4.79908">
        <ele>213</ele>
        <time>2016-09-20T08:39:02Z</time>
      </trkpt>
      <trkpt lat="45.97317" lon="4.79907">
        <ele>213</ele>
        <time>2016-09-20T08:39:03Z</time>
      </trkpt>
      <trkpt lat="45.97326" lon="4.79906">
        <ele>213</ele>
        <time>2016-09-20T08:39:05Z</time>
      </trkpt>
      <trkpt lat="45.9733" lon="4.79906">
        <ele>213</ele>
        <time>2016-09-20T08:39:06Z</time>
      </trkpt>
      <trkpt lat="45.97337" lon="4.79905">
        <ele>215</ele>
        <time>2016-09-20T08:39:08Z</time>
      </trkpt>
      <trkpt lat="45.97342" lon="4.79905">
        <ele>215</ele>
        <time>2016-09-20T08:39:09Z</time>
      </trkpt>
      <trkpt lat="45.97349" lon="4.79903">
        <ele>216</ele>
        <time>2016-09-20T08:39:11Z</time>
      </trkpt>
      <trkpt lat="45.97353" lon="4.79901">
        <ele>216</ele>
        <time>2016-09-20T08:39:12Z</time>
      </trkpt>
      <trkpt lat="45.9736" lon="4.79898">
        <ele>216</ele>
        <time>2016-09-20T08:39:14Z</time>
      </trkpt>
      <trkpt lat="45.97365" lon="4.79898">
        <ele>217</ele>
        <time>2016-09-20T08:39:15Z</time>
      </trkpt>
      <trkpt lat="45.97373" lon="4.79896">
        <ele>217</ele>
        <time>2016-09-20T08:39:17Z</time>
      </trkpt>
      <trkpt lat="45.97376" lon="4.79895">
        <ele>217</ele>
        <time>2016-09-20T08:39:18Z</time>
      </trkpt>
      <trkpt lat="45.97383" lon="4.79894">
        <ele>217</ele>
        <time>2016-09-20T08:39:20Z</time>
      </trkpt>
      <trkpt lat="45.97388" lon="4.79895">
        <ele>217</ele>
        <time>2016-09-20T08:39:21Z</time>
      </trkpt>
      <trkpt lat="45.97394" lon="4.79888">
        <ele>218</ele>
        <time>2016-09-20T08:39:23Z</time>
      </trkpt>
      <trkpt lat="45.974" lon="4.79891">
        <ele>218</ele>
        <time>2016-09-20T08:39:24Z</time>
      </trkpt>
      <trkpt lat="45.97408" lon="4.79892">
        <ele>217</ele>
        <time>2016-09-20T08:39:26Z</time>
      </trkpt>
      <trkpt lat="45.97412" lon="4.79893">
        <ele>217</ele>
        <time>2016-09-20T08:39:27Z</time>
      </trkpt>
      <trkpt lat="45.97421" lon="4.79892">
        <ele>219</ele>
        <time>2016-09-20T08:39:29Z</time>
      </trkpt>
      <trkpt lat="45.97425" lon="4.79893">
        <ele>220</ele>
        <time>2016-09-20T08:39:30Z</time>
      </trkpt>
      <trkpt lat="45.9743" lon="4.79892">
        <ele>220</ele>
        <time>2016-09-20T08:39:31Z</time>
      </trkpt>
      <trkpt lat="45.97435" lon="4.79892">
        <ele>220</ele>
        <time>2016-09-20T08:39:32Z</time>
      </trkpt>
      <trkpt lat="45.97443" lon="4.79892">
        <ele>220</ele>
        <time>2016-09-20T08:39:34Z</time>
      </trkpt>
      <trkpt lat="45.97448" lon="4.79892">
        <ele>220</ele>
        <time>2016-09-20T08:39:35Z</time>
      </trkpt>
      <trkpt lat="45.97456" lon="4.79889">
        <ele>221</ele>
        <time>2016-09-20T08:39:37Z</time>
      </trkpt>
      <trkpt lat="45.97459" lon="4.79889">
        <ele>221</ele>
        <time>2016-09-20T08:39:38Z</time>
      </trkpt>
      <trkpt lat="45.97468" lon="4.79889">
        <ele>221</ele>
        <time>2016-09-20T08:39:40Z</time>
      </trkpt>
      <trkpt lat="45.97471" lon="4.79889">
        <ele>221</ele>
        <time>2016-09-20T08:39:41Z</time>
      </trkpt>
      <trkpt lat="45.9748" lon="4.79888">
        <ele>221</ele>
        <time>2016-09-20T08:39:43Z</time>
      </trkpt>
      <trkpt lat="45.97485" lon="4.79887">
        <ele>221</ele>
        <time>2016-09-20T08:39:44Z</time>
      </trkpt>
      <trkpt lat="45.97492" lon="4.79887">
        <ele>221</ele>
        <time>2016-09-20T08:39:45Z</time>
      </trkpt>
      <trkpt lat="45.97496" lon="4.79887">
        <ele>221</ele>
        <time>2016-09-20T08:39:46Z</time>
      </trkpt>
      <trkpt lat="45.97504" lon="4.79891">
        <ele>221</ele>
        <time>2016-09-20T08:39:48Z</time>
      </trkpt>
      <trkpt lat="45.97508" lon="4.79892">
        <ele>221</ele>
        <time>2016-09-20T08:39:49Z</time>
      </trkpt>
      <trkpt lat="45.97516" lon="4.7989">
        <ele>221</ele>
        <time>2016-09-20T08:39:51Z</time>
      </trkpt>
      <trkpt lat="45.9752" lon="4.79888">
        <ele>221</ele>
        <time>2016-09-20T08:39:52Z</time>
      </trkpt>
      <trkpt lat="45.97528" lon="4.79885">
        <ele>221</ele>
        <time>2016-09-20T08:39:54Z</time>
      </trkpt>
      <trkpt lat="45.97532" lon="4.79884">
        <ele>222</ele>
        <time>2016-09-20T08:39:55Z</time>
      </trkpt>
      <trkpt lat="45.97541" lon="4.79882">
        <ele>222</ele>
        <time>2016-09-20T08:39:57Z</time>
      </trkpt>
      <trkpt lat="45.97544" lon="4.79881">
        <ele>222</ele>
        <time>2016-09-20T08:39:58Z</time>
      </trkpt>
      <trkpt lat="45.97549" lon="4.7988">
        <ele>222</ele>
        <time>2016-09-20T08:40:00Z</time>
      </trkpt>
      <trkpt lat="45.97554" lon="4.79878">
        <ele>222</ele>
        <time>2016-09-20T08:40:01Z</time>
      </trkpt>
      <trkpt lat="45.97561" lon="4.79877">
        <ele>222</ele>
        <time>2016-09-20T08:40:03Z</time>
      </trkpt>
      <trkpt lat="45.97564" lon="4.79876">
        <ele>222</ele>
        <time>2016-09-20T08:40:04Z</time>
      </trkpt>
      <trkpt lat="45.97571" lon="4.79875">
        <ele>222</ele>
        <time>2016-09-20T08:40:06Z</time>
      </trkpt>
      <trkpt lat="45.97574" lon="4.79874">
        <ele>222</ele>
        <time>2016-09-20T08:40:07Z</time>
      </trkpt>
      <trkpt lat="45.97581" lon="4.79871">
        <ele>222</ele>
        <time>2016-09-20T08:40:09Z</time>
      </trkpt>
      <trkpt lat="45.97584" lon="4.7987">
        <ele>221</ele>
        <time>2016-09-20T08:40:10Z</time>
      </trkpt>
      <trkpt lat="45.97592" lon="4.79868">
        <ele>221</ele>
        <time>2016-09-20T08:40:12Z</time>
      </trkpt>
      <trkpt lat="45.97595" lon="4.79867">
        <ele>221</ele>
        <time>2016-09-20T08:40:13Z</time>
      </trkpt>
      <trkpt lat="45.97602" lon="4.79865">
        <ele>221</ele>
        <time>2016-09-20T08:40:15Z</time>
      </trkpt>
      <trkpt lat="45.97605" lon="4.79864">
        <ele>221</ele>
        <time>2016-09-20T08:40:16Z</time>
      </trkpt>
      <trkpt lat="45.97611" lon="4.79861">
        <ele>221</ele>
        <time>2016-09-20T08:40:18Z</time>
      </trkpt>
      <trkpt lat="45.97615" lon="4.7986">
        <ele>221</ele>
        <time>2016-09-20T08:40:19Z</time>
      </trkpt>
      <trkpt lat="45.97622" lon="4.79857">
        <ele>221</ele>
        <time>2016-09-20T08:40:21Z</time>
      </trkpt>
      <trkpt lat="45.97626" lon="4.79856">
        <ele>221</ele>
        <time>2016-09-20T08:40:22Z</time>
      </trkpt>
      <trkpt lat="45.97633" lon="4.79852">
        <ele>221</ele>
        <time>2016-09-20T08:40:24Z</time>
      </trkpt>
      <trkpt lat="45.97636" lon="4.79851">
        <ele>221</ele>
        <time>2016-09-20T08:40:25Z</time>
      </trkpt>
      <trkpt lat="45.97644" lon="4.79849">
        <ele>221</ele>
        <time>2016-09-20T08:40:27Z</time>
      </trkpt>
      <trkpt lat="45.97648" lon="4.79848">
        <ele>221</ele>
        <time>2016-09-20T08:40:28Z</time>
      </trkpt>
      <trkpt lat="45.97657" lon="4.79845">
        <ele>221</ele>
        <time>2016-09-20T08:40:30Z</time>
      </trkpt>
      <trkpt lat="45.97661" lon="4.79844">
        <ele>221</ele>
        <time>2016-09-20T08:40:31Z</time>
      </trkpt>
      <trkpt lat="45.97669" lon="4.79842">
        <ele>221</ele>
        <time>2016-09-20T08:40:33Z</time>
      </trkpt>
      <trkpt lat="45.97674" lon="4.79841">
        <ele>221</ele>
        <time>2016-09-20T08:40:34Z</time>
      </trkpt>
      <trkpt lat="45.97682" lon="4.79839">
        <ele>221</ele>
        <time>2016-09-20T08:40:36Z</time>
      </trkpt>
      <trkpt lat="45.97687" lon="4.79838">
        <ele>221</ele>
        <time>2016-09-20T08:40:37Z</time>
      </trkpt>
      <trkpt lat="45.97691" lon="4.79837">
        <ele>220</ele>
        <time>2016-09-20T08:40:38Z</time>
      </trkpt>
      <trkpt lat="45.97696" lon="4.79835">
        <ele>220</ele>
        <time>2016-09-20T08:40:39Z</time>
      </trkpt>
      <trkpt lat="45.97705" lon="4.79833">
        <ele>223</ele>
        <time>2016-09-20T08:40:41Z</time>
      </trkpt>
      <trkpt lat="45.97709" lon="4.79833">
        <ele>223</ele>
        <time>2016-09-20T08:40:42Z</time>
      </trkpt>
      <trkpt lat="45.97713" lon="4.79832">
        <ele>223</ele>
        <time>2016-09-20T08:40:43Z</time>
      </trkpt>
      <trkpt lat="45.97718" lon="4.7983">
        <ele>223</ele>
        <time>2016-09-20T08:40:44Z</time>
      </trkpt>
      <trkpt lat="45.97726" lon="4.7983">
        <ele>223</ele>
        <time>2016-09-20T08:40:46Z</time>
      </trkpt>
      <trkpt lat="45.97731" lon="4.7983">
        <ele>223</ele>
        <time>2016-09-20T08:40:47Z</time>
      </trkpt>
      <trkpt lat="45.97736" lon="4.79828">
        <ele>223</ele>
        <time>2016-09-20T08:40:48Z</time>
      </trkpt>
      <trkpt lat="45.97742" lon="4.79825">
        <ele>223</ele>
        <time>2016-09-20T08:40:49Z</time>
      </trkpt>
      <trkpt lat="45.97749" lon="4.79823">
        <ele>222</ele>
        <time>2016-09-20T08:40:50Z</time>
      </trkpt>
      <trkpt lat="45.97754" lon="4.79822">
        <ele>223</ele>
        <time>2016-09-20T08:40:51Z</time>
      </trkpt>
      <trkpt lat="45.9776" lon="4.79818">
        <ele>223</ele>
        <time>2016-09-20T08:40:52Z</time>
      </trkpt>
      <trkpt lat="45.97765" lon="4.79818">
        <ele>223</ele>
        <time>2016-09-20T08:40:53Z</time>
      </trkpt>
      <trkpt lat="45.9777" lon="4.79816">
        <ele>223</ele>
        <time>2016-09-20T08:40:54Z</time>
      </trkpt>
      <trkpt lat="45.97775" lon="4.79815">
        <ele>223</ele>
        <time>2016-09-20T08:40:55Z</time>
      </trkpt>
      <trkpt lat="45.9778" lon="4.79814">
        <ele>223</ele>
        <time>2016-09-20T08:40:56Z</time>
      </trkpt>
      <trkpt lat="45.97784" lon="4.79814">
        <ele>223</ele>
        <time>2016-09-20T08:40:57Z</time>
      </trkpt>
      <trkpt lat="45.97793" lon="4.79813">
        <ele>223</ele>
        <time>2016-09-20T08:40:59Z</time>
      </trkpt>
      <trkpt lat="45.97797" lon="4.79812">
        <ele>223</ele>
        <time>2016-09-20T08:41:00Z</time>
      </trkpt>
      <trkpt lat="45.97802" lon="4.79811">
        <ele>223</ele>
        <time>2016-09-20T08:41:01Z</time>
      </trkpt>
      <trkpt lat="45.97806" lon="4.79811">
        <ele>223</ele>
        <time>2016-09-20T08:41:02Z</time>
      </trkpt>
      <trkpt lat="45.97811" lon="4.7981">
        <ele>223</ele>
        <time>2016-09-20T08:41:03Z</time>
      </trkpt>
      <trkpt lat="45.97815" lon="4.79809">
        <ele>223</ele>
        <time>2016-09-20T08:41:04Z</time>
      </trkpt>
      <trkpt lat="45.97824" lon="4.79807">
        <ele>223</ele>
        <time>2016-09-20T08:41:06Z</time>
      </trkpt>
      <trkpt lat="45.97828" lon="4.79807">
        <ele>223</ele>
        <time>2016-09-20T08:41:07Z</time>
      </trkpt>
      <trkpt lat="45.97832" lon="4.79807">
        <ele>223</ele>
        <time>2016-09-20T08:41:08Z</time>
      </trkpt>
      <trkpt lat="45.97837" lon="4.79807">
        <ele>224</ele>
        <time>2016-09-20T08:41:09Z</time>
      </trkpt>
      <trkpt lat="45.97842" lon="4.79806">
        <ele>224</ele>
        <time>2016-09-20T08:41:10Z</time>
      </trkpt>
      <trkpt lat="45.97846" lon="4.79806">
        <ele>224</ele>
        <time>2016-09-20T08:41:11Z</time>
      </trkpt>
      <trkpt lat="45.97851" lon="4.79805">
        <ele>224</ele>
        <time>2016-09-20T08:41:12Z</time>
      </trkpt>
      <trkpt lat="45.97856" lon="4.79804">
        <ele>224</ele>
        <time>2016-09-20T08:41:13Z</time>
      </trkpt>
      <trkpt lat="45.97861" lon="4.79804">
        <ele>224</ele>
        <time>2016-09-20T08:41:14Z</time>
      </trkpt>
      <trkpt lat="45.97866" lon="4.79803">
        <ele>224</ele>
        <time>2016-09-20T08:41:15Z</time>
      </trkpt>
      <trkpt lat="45.97871" lon="4.79802">
        <ele>224</ele>
        <time>2016-09-20T08:41:16Z</time>
      </trkpt>
      <trkpt lat="45.97877" lon="4.79802">
        <ele>224</ele>
        <time>2016-09-20T08:41:17Z</time>
      </trkpt>
      <trkpt lat="45.97882" lon="4.79801">
        <ele>224</ele>
        <time>2016-09-20T08:41:18Z</time>
      </trkpt>
      <trkpt lat="45.97888" lon="4.798">
        <ele>224</ele>
        <time>2016-09-20T08:41:19Z</time>
      </trkpt>
      <trkpt lat="45.97893" lon="4.79799">
        <ele>224</ele>
        <time>2016-09-20T08:41:20Z</time>
      </trkpt>
      <trkpt lat="45.97898" lon="4.79797">
        <ele>224</ele>
        <time>2016-09-20T08:41:21Z</time>
      </trkpt>
      <trkpt lat="45.97904" lon="4.79796">
        <ele>224</ele>
        <time>2016-09-20T08:41:22Z</time>
      </trkpt>
      <trkpt lat="45.97909" lon="4.79796">
        <ele>224</ele>
        <time>2016-09-20T08:41:23Z</time>
      </trkpt>
      <trkpt lat="45.97914" lon="4.79795">
        <ele>224</ele>
        <time>2016-09-20T08:41:24Z</time>
      </trkpt>
      <trkpt lat="45.97919" lon="4.79794">
        <ele>224</ele>
        <time>2016-09-20T08:41:25Z</time>
      </trkpt>
      <trkpt lat="45.97924" lon="4.79793">
        <ele>224</ele>
        <time>2016-09-20T08:41:26Z</time>
      </trkpt>
      <trkpt lat="45.97928" lon="4.79792">
        <ele>224</ele>
        <time>2016-09-20T08:41:27Z</time>
      </trkpt>
      <trkpt lat="45.97933" lon="4.7979">
        <ele>224</ele>
        <time>2016-09-20T08:41:28Z</time>
      </trkpt>
      <trkpt lat="45.97937" lon="4.7979">
        <ele>224</ele>
        <time>2016-09-20T08:41:29Z</time>
      </trkpt>
      <trkpt lat="45.97942" lon="4.7979">
        <ele>224</ele>
        <time>2016-09-20T08:41:30Z</time>
      </trkpt>
      <trkpt lat="45.97947" lon="4.79789">
        <ele>224</ele>
        <time>2016-09-20T08:41:31Z</time>
      </trkpt>
      <trkpt lat="45.97951" lon="4.79788">
        <ele>224</ele>
        <time>2016-09-20T08:41:32Z</time>
      </trkpt>
      <trkpt lat="45.97956" lon="4.79787">
        <ele>224</ele>
        <time>2016-09-20T08:41:33Z</time>
      </trkpt>
      <trkpt lat="45.97961" lon="4.79787">
        <ele>224</ele>
        <time>2016-09-20T08:41:34Z</time>
      </trkpt>
      <trkpt lat="45.97966" lon="4.79786">
        <ele>224</ele>
        <time>2016-09-20T08:41:35Z</time>
      </trkpt>
      <trkpt lat="45.97971" lon="4.79785">
        <ele>224</ele>
        <time>2016-09-20T08:41:36Z</time>
      </trkpt>
      <trkpt lat="45.97976" lon="4.79784">
        <ele>224</ele>
        <time>2016-09-20T08:41:37Z</time>
      </trkpt>
      <trkpt lat="45.97981" lon="4.79784">
        <ele>224</ele>
        <time>2016-09-20T08:41:38Z</time>
      </trkpt>
      <trkpt lat="45.97986" lon="4.79783">
        <ele>224</ele>
        <time>2016-09-20T08:41:39Z</time>
      </trkpt>
      <trkpt lat="45.97992" lon="4.79782">
        <ele>224</ele>
        <time>2016-09-20T08:41:40Z</time>
      </trkpt>
      <trkpt lat="45.97997" lon="4.79782">
        <ele>224</ele>
        <time>2016-09-20T08:41:41Z</time>
      </trkpt>
      <trkpt lat="45.98001" lon="4.79782">
        <ele>223</ele>
        <time>2016-09-20T08:41:42Z</time>
      </trkpt>
      <trkpt lat="45.98006" lon="4.79782">
        <ele>223</ele>
        <time>2016-09-20T08:41:43Z</time>
      </trkpt>
      <trkpt lat="45.98015" lon="4.79782">
        <ele>223</ele>
        <time>2016-09-20T08:41:45Z</time>
      </trkpt>
      <trkpt lat="45.98019" lon="4.79782">
        <ele>223</ele>
        <time>2016-09-20T08:41:46Z</time>
      </trkpt>
      <trkpt lat="45.98024" lon="4.79781">
        <ele>223</ele>
        <time>2016-09-20T08:41:47Z</time>
      </trkpt>
      <trkpt lat="45.98028" lon="4.79781">
        <ele>223</ele>
        <time>2016-09-20T08:41:48Z</time>
      </trkpt>
      <trkpt lat="45.98037" lon="4.7978">
        <ele>223</ele>
        <time>2016-09-20T08:41:50Z</time>
      </trkpt>
      <trkpt lat="45.98041" lon="4.79779">
        <ele>223</ele>
        <time>2016-09-20T08:41:51Z</time>
      </trkpt>
      <trkpt lat="45.98049" lon="4.79777">
        <ele>223</ele>
        <time>2016-09-20T08:41:53Z</time>
      </trkpt>
      <trkpt lat="45.98054" lon="4.79776">
        <ele>223</ele>
        <time>2016-09-20T08:41:54Z</time>
      </trkpt>
      <trkpt lat="45.98058" lon="4.79775">
        <ele>223</ele>
        <time>2016-09-20T08:41:55Z</time>
      </trkpt>
      <trkpt lat="45.98063" lon="4.79774">
        <ele>223</ele>
        <time>2016-09-20T08:41:56Z</time>
      </trkpt>
      <trkpt lat="45.98068" lon="4.79773">
        <ele>223</ele>
        <time>2016-09-20T08:41:57Z</time>
      </trkpt>
      <trkpt lat="45.98073" lon="4.79773">
        <ele>223</ele>
        <time>2016-09-20T08:41:58Z</time>
      </trkpt>
      <trkpt lat="45.98077" lon="4.79772">
        <ele>223</ele>
        <time>2016-09-20T08:41:59Z</time>
      </trkpt>
      <trkpt lat="45.98082" lon="4.79772">
        <ele>223</ele>
        <time>2016-09-20T08:42:00Z</time>
      </trkpt>
      <trkpt lat="45.98087" lon="4.79771">
        <ele>223</ele>
        <time>2016-09-20T08:42:01Z</time>
      </trkpt>
      <trkpt lat="45.98091" lon="4.7977">
        <ele>223</ele>
        <time>2016-09-20T08:42:02Z</time>
      </trkpt>
      <trkpt lat="45.98096" lon="4.79769">
        <ele>223</ele>
        <time>2016-09-20T08:42:03Z</time>
      </trkpt>
      <trkpt lat="45.98101" lon="4.79769">
        <ele>224</ele>
        <time>2016-09-20T08:42:04Z</time>
      </trkpt>
      <trkpt lat="45.98106" lon="4.79768">
        <ele>224</ele>
        <time>2016-09-20T08:42:05Z</time>
      </trkpt>
      <trkpt lat="45.98111" lon="4.79767">
        <ele>224</ele>
        <time>2016-09-20T08:42:06Z</time>
      </trkpt>
      <trkpt lat="45.98115" lon="4.79767">
        <ele>224</ele>
        <time>2016-09-20T08:42:07Z</time>
      </trkpt>
      <trkpt lat="45.9812" lon="4.79766">
        <ele>224</ele>
        <time>2016-09-20T08:42:08Z</time>
      </trkpt>
      <trkpt lat="45.98125" lon="4.79766">
        <ele>224</ele>
        <time>2016-09-20T08:42:09Z</time>
      </trkpt>
      <trkpt lat="45.9813" lon="4.79765">
        <ele>224</ele>
        <time>2016-09-20T08:42:10Z</time>
      </trkpt>
      <trkpt lat="45.98135" lon="4.79764">
        <ele>224</ele>
        <time>2016-09-20T08:42:11Z</time>
      </trkpt>
      <trkpt lat="45.98139" lon="4.79764">
        <ele>224</ele>
        <time>2016-09-20T08:42:12Z</time>
      </trkpt>
      <trkpt lat="45.98144" lon="4.79764">
        <ele>224</ele>
        <time>2016-09-20T08:42:13Z</time>
      </trkpt>
      <trkpt lat="45.98149" lon="4.79763">
        <ele>225</ele>
        <time>2016-09-20T08:42:14Z</time>
      </trkpt>
      <trkpt lat="45.98157" lon="4.79765">
        <ele>225</ele>
        <time>2016-09-20T08:42:16Z</time>
      </trkpt>
      <trkpt lat="45.98161" lon="4.79767">
        <ele>225</ele>
        <time>2016-09-20T08:42:17Z</time>
      </trkpt>
      <trkpt lat="45.98168" lon="4.79774">
        <ele>226</ele>
        <time>2016-09-20T08:42:19Z</time>
      </trkpt>
      <trkpt lat="45.9817" lon="4.79777">
        <ele>226</ele>
        <time>2016-09-20T08:42:20Z</time>
      </trkpt>
      <trkpt lat="45.98175" lon="4.79786">
        <ele>226</ele>
        <time>2016-09-20T08:42:22Z</time>
      </trkpt>
      <trkpt lat="45.98177" lon="4.79791">
        <ele>226</ele>
        <time>2016-09-20T08:42:23Z</time>
      </trkpt>
      <trkpt lat="45.98181" lon="4.79803">
        <ele>225</ele>
        <time>2016-09-20T08:42:25Z</time>
      </trkpt>
      <trkpt lat="45.98183" lon="4.7981">
        <ele>225</ele>
        <time>2016-09-20T08:42:26Z</time>
      </trkpt>
      <trkpt lat="45.98186" lon="4.79816">
        <ele>225</ele>
        <time>2016-09-20T08:42:27Z</time>
      </trkpt>
      <trkpt lat="45.98188" lon="4.79823">
        <ele>225</ele>
        <time>2016-09-20T08:42:28Z</time>
      </trkpt>
      <trkpt lat="45.98191" lon="4.7983">
        <ele>225</ele>
        <time>2016-09-20T08:42:29Z</time>
      </trkpt>
      <trkpt lat="45.98193" lon="4.79837">
        <ele>225</ele>
        <time>2016-09-20T08:42:30Z</time>
      </trkpt>
      <trkpt lat="45.98196" lon="4.79845">
        <ele>225</ele>
        <time>2016-09-20T08:42:31Z</time>
      </trkpt>
      <trkpt lat="45.98199" lon="4.79852">
        <ele>225</ele>
        <time>2016-09-20T08:42:32Z</time>
      </trkpt>
      <trkpt lat="45.98202" lon="4.7986">
        <ele>225</ele>
        <time>2016-09-20T08:42:33Z</time>
      </trkpt>
      <trkpt lat="45.98204" lon="4.79867">
        <ele>225</ele>
        <time>2016-09-20T08:42:34Z</time>
      </trkpt>
      <trkpt lat="45.98207" lon="4.79875">
        <ele>225</ele>
        <time>2016-09-20T08:42:35Z</time>
      </trkpt>
      <trkpt lat="45.98209" lon="4.79882">
        <ele>225</ele>
        <time>2016-09-20T08:42:36Z</time>
      </trkpt>
      <trkpt lat="45.98211" lon="4.79889">
        <ele>225</ele>
        <time>2016-09-20T08:42:37Z</time>
      </trkpt>
      <trkpt lat="45.98214" lon="4.79895">
        <ele>225</ele>
        <time>2016-09-20T08:42:38Z</time>
      </trkpt>
      <trkpt lat="45.98212" lon="4.79907">
        <ele>225</ele>
        <time>2016-09-20T08:42:40Z</time>
      </trkpt>
      <trkpt lat="45.98214" lon="4.79911">
        <ele>225</ele>
        <time>2016-09-20T08:42:41Z</time>
      </trkpt>
      <trkpt lat="45.98218" lon="4.7992">
        <ele>225</ele>
        <time>2016-09-20T08:42:43Z</time>
      </trkpt>
      <trkpt lat="45.9822" lon="4.79926">
        <ele>225</ele>
        <time>2016-09-20T08:42:44Z</time>
      </trkpt>
      <trkpt lat="45.98222" lon="4.79932">
        <ele>225</ele>
        <time>2016-09-20T08:42:45Z</time>
      </trkpt>
      <trkpt lat="45.98224" lon="4.79938">
        <ele>225</ele>
        <time>2016-09-20T08:42:46Z</time>
      </trkpt>
      <trkpt lat="45.98226" lon="4.79945">
        <ele>225</ele>
        <time>2016-09-20T08:42:47Z</time>
      </trkpt>
      <trkpt lat="45.98228" lon="4.79952">
        <ele>225</ele>
        <time>2016-09-20T08:42:48Z</time>
      </trkpt>
      <trkpt lat="45.98232" lon="4.7996">
        <ele>225</ele>
        <time>2016-09-20T08:42:49Z</time>
      </trkpt>
      <trkpt lat="45.98235" lon="4.79968">
        <ele>225</ele>
        <time>2016-09-20T08:42:50Z</time>
      </trkpt>
      <trkpt lat="45.98239" lon="4.79976">
        <ele>225</ele>
        <time>2016-09-20T08:42:51Z</time>
      </trkpt>
      <trkpt lat="45.98242" lon="4.79983">
        <ele>225</ele>
        <time>2016-09-20T08:42:52Z</time>
      </trkpt>
      <trkpt lat="45.98247" lon="4.79992">
        <ele>226</ele>
        <time>2016-09-20T08:42:53Z</time>
      </trkpt>
      <trkpt lat="45.9825" lon="4.8">
        <ele>226</ele>
        <time>2016-09-20T08:42:54Z</time>
      </trkpt>
      <trkpt lat="45.98253" lon="4.80009">
        <ele>227</ele>
        <time>2016-09-20T08:42:55Z</time>
      </trkpt>
      <trkpt lat="45.98257" lon="4.80017">
        <ele>228</ele>
        <time>2016-09-20T08:42:56Z</time>
      </trkpt>
      <trkpt lat="45.9826" lon="4.80024">
        <ele>228</ele>
        <time>2016-09-20T08:42:57Z</time>
      </trkpt>
      <trkpt lat="45.98263" lon="4.80031">
        <ele>228</ele>
        <time>2016-09-20T08:42:58Z</time>
      </trkpt>
      <trkpt lat="45.98265" lon="4.80036">
        <ele>228</ele>
        <time>2016-09-20T08:42:59Z</time>
      </trkpt>
      <trkpt lat="45.98268" lon="4.80042">
        <ele>229</ele>
        <time>2016-09-20T08:43:00Z</time>
      </trkpt>
      <trkpt lat="45.98271" lon="4.80048">
        <ele>229</ele>
        <time>2016-09-20T08:43:01Z</time>
      </trkpt>
      <trkpt lat="45.98274" lon="4.80055">
        <ele>229</ele>
        <time>2016-09-20T08:43:02Z</time>
      </trkpt>
      <trkpt lat="45.98277" lon="4.80061">
        <ele>229</ele>
        <time>2016-09-20T08:43:03Z</time>
      </trkpt>
      <trkpt lat="45.98279" lon="4.80066">
        <ele>229</ele>
        <time>2016-09-20T08:43:04Z</time>
      </trkpt>
      <trkpt lat="45.9828" lon="4.80071">
        <ele>229</ele>
        <time>2016-09-20T08:43:05Z</time>
      </trkpt>
      <trkpt lat="45.98282" lon="4.80078">
        <ele>229</ele>
        <time>2016-09-20T08:43:06Z</time>
      </trkpt>
      <trkpt lat="45.98284" lon="4.80084">
        <ele>228</ele>
        <time>2016-09-20T08:43:07Z</time>
      </trkpt>
      <trkpt lat="45.98286" lon="4.8009">
        <ele>228</ele>
        <time>2016-09-20T08:43:08Z</time>
      </trkpt>
      <trkpt lat="45.98288" lon="4.80097">
        <ele>228</ele>
        <time>2016-09-20T08:43:09Z</time>
      </trkpt>
      <trkpt lat="45.9829" lon="4.80103">
        <ele>228</ele>
        <time>2016-09-20T08:43:10Z</time>
      </trkpt>
      <trkpt lat="45.98292" lon="4.80109">
        <ele>228</ele>
        <time>2016-09-20T08:43:11Z</time>
      </trkpt>
      <trkpt lat="45.98294" lon="4.80115">
        <ele>228</ele>
        <time>2016-09-20T08:43:12Z</time>
      </trkpt>
      <trkpt lat="45.98297" lon="4.80121">
        <ele>228</ele>
        <time>2016-09-20T08:43:13Z</time>
      </trkpt>
      <trkpt lat="45.98299" lon="4.80127">
        <ele>228</ele>
        <time>2016-09-20T08:43:14Z</time>
      </trkpt>
      <trkpt lat="45.98302" lon="4.80134">
        <ele>228</ele>
        <time>2016-09-20T08:43:15Z</time>
      </trkpt>
      <trkpt lat="45.98304" lon="4.8014">
        <ele>228</ele>
        <time>2016-09-20T08:43:16Z</time>
      </trkpt>
      <trkpt lat="45.98305" lon="4.80146">
        <ele>228</ele>
        <time>2016-09-20T08:43:17Z</time>
      </trkpt>
      <trkpt lat="45.98308" lon="4.80152">
        <ele>228</ele>
        <time>2016-09-20T08:43:18Z</time>
      </trkpt>
      <trkpt lat="45.9831" lon="4.80158">
        <ele>228</ele>
        <time>2016-09-20T08:43:19Z</time>
      </trkpt>
      <trkpt lat="45.98312" lon="4.80165">
        <ele>228</ele>
        <time>2016-09-20T08:43:20Z</time>
      </trkpt>
      <trkpt lat="45.98315" lon="4.80171">
        <ele>227</ele>
        <time>2016-09-20T08:43:21Z</time>
      </trkpt>
      <trkpt lat="45.98317" lon="4.80178">
        <ele>227</ele>
        <time>2016-09-20T08:43:22Z</time>
      </trkpt>
      <trkpt lat="45.9832" lon="4.80184">
        <ele>227</ele>
        <time>2016-09-20T08:43:23Z</time>
      </trkpt>
      <trkpt lat="45.98322" lon="4.80192">
        <ele>227</ele>
        <time>2016-09-20T08:43:24Z</time>
      </trkpt>
      <trkpt lat="45.98326" lon="4.80202">
        <ele>227</ele>
        <time>2016-09-20T08:43:26Z</time>
      </trkpt>
      <trkpt lat="45.98329" lon="4.80209">
        <ele>227</ele>
        <time>2016-09-20T08:43:27Z</time>
      </trkpt>
      <trkpt lat="45.98331" lon="4.8022">
        <ele>227</ele>
        <time>2016-09-20T08:43:29Z</time>
      </trkpt>
      <trkpt lat="45.98331" lon="4.80226">
        <ele>228</ele>
        <time>2016-09-20T08:43:30Z</time>
      </trkpt>
      <trkpt lat="45.98329" lon="4.80232">
        <ele>228</ele>
        <time>2016-09-20T08:43:31Z</time>
      </trkpt>
      <trkpt lat="45.98328" lon="4.80239">
        <ele>228</ele>
        <time>2016-09-20T08:43:32Z</time>
      </trkpt>
      <trkpt lat="45.98326" lon="4.80247">
        <ele>229</ele>
        <time>2016-09-20T08:43:33Z</time>
      </trkpt>
      <trkpt lat="45.98322" lon="4.80251">
        <ele>228</ele>
        <time>2016-09-20T08:43:34Z</time>
      </trkpt>
      <trkpt lat="45.98322" lon="4.80262">
        <ele>228</ele>
        <time>2016-09-20T08:43:35Z</time>
      </trkpt>
      <trkpt lat="45.98321" lon="4.80272">
        <ele>227</ele>
        <time>2016-09-20T08:43:36Z</time>
      </trkpt>
      <trkpt lat="45.98319" lon="4.8028">
        <ele>227</ele>
        <time>2016-09-20T08:43:37Z</time>
      </trkpt>
      <trkpt lat="45.98318" lon="4.8029">
        <ele>226</ele>
        <time>2016-09-20T08:43:38Z</time>
      </trkpt>
      <trkpt lat="45.98315" lon="4.80299">
        <ele>226</ele>
        <time>2016-09-20T08:43:39Z</time>
      </trkpt>
      <trkpt lat="45.98314" lon="4.80307">
        <ele>226</ele>
        <time>2016-09-20T08:43:40Z</time>
      </trkpt>
      <trkpt lat="45.98311" lon="4.80315">
        <ele>226</ele>
        <time>2016-09-20T08:43:41Z</time>
      </trkpt>
      <trkpt lat="45.98309" lon="4.80325">
        <ele>226</ele>
        <time>2016-09-20T08:43:42Z</time>
      </trkpt>
      <trkpt lat="45.98307" lon="4.80335">
        <ele>226</ele>
        <time>2016-09-20T08:43:43Z</time>
      </trkpt>
      <trkpt lat="45.98305" lon="4.80345">
        <ele>226</ele>
        <time>2016-09-20T08:43:44Z</time>
      </trkpt>
      <trkpt lat="45.98303" lon="4.80354">
        <ele>225</ele>
        <time>2016-09-20T08:43:45Z</time>
      </trkpt>
      <trkpt lat="45.98301" lon="4.80363">
        <ele>225</ele>
        <time>2016-09-20T08:43:46Z</time>
      </trkpt>
      <trkpt lat="45.98299" lon="4.80373">
        <ele>225</ele>
        <time>2016-09-20T08:43:47Z</time>
      </trkpt>
      <trkpt lat="45.98297" lon="4.80383">
        <ele>225</ele>
        <time>2016-09-20T08:43:48Z</time>
      </trkpt>
      <trkpt lat="45.98295" lon="4.80394">
        <ele>224</ele>
        <time>2016-09-20T08:43:49Z</time>
      </trkpt>
      <trkpt lat="45.98293" lon="4.80404">
        <ele>224</ele>
        <time>2016-09-20T08:43:50Z</time>
      </trkpt>
      <trkpt lat="45.98291" lon="4.80414">
        <ele>224</ele>
        <time>2016-09-20T08:43:51Z</time>
      </trkpt>
      <trkpt lat="45.9829" lon="4.80425">
        <ele>224</ele>
        <time>2016-09-20T08:43:52Z</time>
      </trkpt>
      <trkpt lat="45.98287" lon="4.80435">
        <ele>224</ele>
        <time>2016-09-20T08:43:53Z</time>
      </trkpt>
      <trkpt lat="45.98286" lon="4.80445">
        <ele>224</ele>
        <time>2016-09-20T08:43:54Z</time>
      </trkpt>
      <trkpt lat="45.98284" lon="4.80454">
        <ele>224</ele>
        <time>2016-09-20T08:43:55Z</time>
      </trkpt>
      <trkpt lat="45.98283" lon="4.80463">
        <ele>223</ele>
        <time>2016-09-20T08:43:56Z</time>
      </trkpt>
      <trkpt lat="45.9828" lon="4.80472">
        <ele>223</ele>
        <time>2016-09-20T08:43:57Z</time>
      </trkpt>
      <trkpt lat="45.98278" lon="4.80481">
        <ele>223</ele>
        <time>2016-09-20T08:43:58Z</time>
      </trkpt>
      <trkpt lat="45.98276" lon="4.80489">
        <ele>223</ele>
        <time>2016-09-20T08:43:59Z</time>
      </trkpt>
      <trkpt lat="45.98274" lon="4.80496">
        <ele>223</ele>
        <time>2016-09-20T08:44:00Z</time>
      </trkpt>
      <trkpt lat="45.98272" lon="4.80503">
        <ele>223</ele>
        <time>2016-09-20T08:44:01Z</time>
      </trkpt>
      <trkpt lat="45.9827" lon="4.80509">
        <ele>223</ele>
        <time>2016-09-20T08:44:02Z</time>
      </trkpt>
      <trkpt lat="45.98268" lon="4.80521">
        <ele>224</ele>
        <time>2016-09-20T08:44:04Z</time>
      </trkpt>
      <trkpt lat="45.98266" lon="4.80526">
        <ele>224</ele>
        <time>2016-09-20T08:44:05Z</time>
      </trkpt>
      <trkpt lat="45.98265" lon="4.80535">
        <ele>224</ele>
        <time>2016-09-20T08:44:06Z</time>
      </trkpt>
      <trkpt lat="45.98264" lon="4.80541">
        <ele>224</ele>
        <time>2016-09-20T08:44:07Z</time>
      </trkpt>
      <trkpt lat="45.98262" lon="4.80551">
        <ele>224</ele>
        <time>2016-09-20T08:44:09Z</time>
      </trkpt>
      <trkpt lat="45.98258" lon="4.80556">
        <ele>224</ele>
        <time>2016-09-20T08:44:10Z</time>
      </trkpt>
      <trkpt lat="45.98255" lon="4.8056">
        <ele>224</ele>
        <time>2016-09-20T08:44:11Z</time>
      </trkpt>
      <trkpt lat="45.98253" lon="4.80566">
        <ele>224</ele>
        <time>2016-09-20T08:44:12Z</time>
      </trkpt>
      <trkpt lat="45.98251" lon="4.80572">
        <ele>224</ele>
        <time>2016-09-20T08:44:13Z</time>
      </trkpt>
      <trkpt lat="45.98249" lon="4.80579">
        <ele>224</ele>
        <time>2016-09-20T08:44:14Z</time>
      </trkpt>
      <trkpt lat="45.98246" lon="4.80585">
        <ele>224</ele>
        <time>2016-09-20T08:44:15Z</time>
      </trkpt>
      <trkpt lat="45.98244" lon="4.80592">
        <ele>224</ele>
        <time>2016-09-20T08:44:16Z</time>
      </trkpt>
      <trkpt lat="45.98242" lon="4.80599">
        <ele>224</ele>
        <time>2016-09-20T08:44:17Z</time>
      </trkpt>
      <trkpt lat="45.9824" lon="4.80606">
        <ele>224</ele>
        <time>2016-09-20T08:44:18Z</time>
      </trkpt>
      <trkpt lat="45.98236" lon="4.80617">
        <ele>224</ele>
        <time>2016-09-20T08:44:20Z</time>
      </trkpt>
      <trkpt lat="45.98234" lon="4.80623">
        <ele>224</ele>
        <time>2016-09-20T08:44:21Z</time>
      </trkpt>
      <trkpt lat="45.98232" lon="4.8063">
        <ele>224</ele>
        <time>2016-09-20T08:44:22Z</time>
      </trkpt>
      <trkpt lat="45.98229" lon="4.80637">
        <ele>224</ele>
        <time>2016-09-20T08:44:23Z</time>
      </trkpt>
      <trkpt lat="45.98226" lon="4.80643">
        <ele>224</ele>
        <time>2016-09-20T08:44:24Z</time>
      </trkpt>
      <trkpt lat="45.98224" lon="4.80649">
        <ele>224</ele>
        <time>2016-09-20T08:44:25Z</time>
      </trkpt>
      <trkpt lat="45.98219" lon="4.80659">
        <ele>224</ele>
        <time>2016-09-20T08:44:27Z</time>
      </trkpt>
      <trkpt lat="45.98216" lon="4.80663">
        <ele>224</ele>
        <time>2016-09-20T08:44:28Z</time>
      </trkpt>
      <trkpt lat="45.98211" lon="4.8067">
        <ele>224</ele>
        <time>2016-09-20T08:44:30Z</time>
      </trkpt>
      <trkpt lat="45.98208" lon="4.80672">
        <ele>224</ele>
        <time>2016-09-20T08:44:31Z</time>
      </trkpt>
      <trkpt lat="45.982" lon="4.80677">
        <ele>225</ele>
        <time>2016-09-20T08:44:33Z</time>
      </trkpt>
      <trkpt lat="45.98196" lon="4.80679">
        <ele>225</ele>
        <time>2016-09-20T08:44:34Z</time>
      </trkpt>
      <trkpt lat="45.98189" lon="4.8068">
        <ele>225</ele>
        <time>2016-09-20T08:44:35Z</time>
      </trkpt>
      <trkpt lat="45.98186" lon="4.80682">
        <ele>225</ele>
        <time>2016-09-20T08:44:36Z</time>
      </trkpt>
      <trkpt lat="45.98178" lon="4.80686">
        <ele>225</ele>
        <time>2016-09-20T08:44:38Z</time>
      </trkpt>
      <trkpt lat="45.98173" lon="4.80687">
        <ele>225</ele>
        <time>2016-09-20T08:44:39Z</time>
      </trkpt>
      <trkpt lat="45.98169" lon="4.80688">
        <ele>225</ele>
        <time>2016-09-20T08:44:40Z</time>
      </trkpt>
      <trkpt lat="45.98163" lon="4.80689">
        <ele>227</ele>
        <time>2016-09-20T08:44:41Z</time>
      </trkpt>
      <trkpt lat="45.98155" lon="4.8069">
        <ele>227</ele>
        <time>2016-09-20T08:44:43Z</time>
      </trkpt>
      <trkpt lat="45.98151" lon="4.80691">
        <ele>228</ele>
        <time>2016-09-20T08:44:44Z</time>
      </trkpt>
      <trkpt lat="45.98143" lon="4.80691">
        <ele>228</ele>
        <time>2016-09-20T08:44:46Z</time>
      </trkpt>
      <trkpt lat="45.98139" lon="4.80692">
        <ele>228</ele>
        <time>2016-09-20T08:44:47Z</time>
      </trkpt>
      <trkpt lat="45.9813" lon="4.80692">
        <ele>228</ele>
        <time>2016-09-20T08:44:49Z</time>
      </trkpt>
      <trkpt lat="45.98126" lon="4.80691">
        <ele>228</ele>
        <time>2016-09-20T08:44:50Z</time>
      </trkpt>
      <trkpt lat="45.98118" lon="4.8069">
        <ele>228</ele>
        <time>2016-09-20T08:44:52Z</time>
      </trkpt>
      <trkpt lat="45.98113" lon="4.80691">
        <ele>228</ele>
        <time>2016-09-20T08:44:53Z</time>
      </trkpt>
      <trkpt lat="45.98105" lon="4.80691">
        <ele>228</ele>
        <time>2016-09-20T08:44:55Z</time>
      </trkpt>
      <trkpt lat="45.98102" lon="4.80693">
        <ele>228</ele>
        <time>2016-09-20T08:44:56Z</time>
      </trkpt>
      <trkpt lat="45.98095" lon="4.80692">
        <ele>228</ele>
        <time>2016-09-20T08:44:58Z</time>
      </trkpt>
      <trkpt lat="45.98091" lon="4.80692">
        <ele>228</ele>
        <time>2016-09-20T08:44:59Z</time>
      </trkpt>
      <trkpt lat="45.98082" lon="4.80692">
        <ele>230</ele>
        <time>2016-09-20T08:45:01Z</time>
      </trkpt>
      <trkpt lat="45.98079" lon="4.80692">
        <ele>230</ele>
        <time>2016-09-20T08:45:02Z</time>
      </trkpt>
      <trkpt lat="45.98071" lon="4.80692">
        <ele>230</ele>
        <time>2016-09-20T08:45:05Z</time>
      </trkpt>
      <trkpt lat="45.98068" lon="4.80692">
        <ele>230</ele>
        <time>2016-09-20T08:45:06Z</time>
      </trkpt>
      <trkpt lat="45.98061" lon="4.80691">
        <ele>230</ele>
        <time>2016-09-20T08:45:08Z</time>
      </trkpt>
      <trkpt lat="45.98058" lon="4.80692">
        <ele>230</ele>
        <time>2016-09-20T08:45:09Z</time>
      </trkpt>
      <trkpt lat="45.9805" lon="4.80695">
        <ele>230</ele>
        <time>2016-09-20T08:45:12Z</time>
      </trkpt>
      <trkpt lat="45.98047" lon="4.80696">
        <ele>230</ele>
        <time>2016-09-20T08:45:13Z</time>
      </trkpt>
      <trkpt lat="45.9804" lon="4.80697">
        <ele>230</ele>
        <time>2016-09-20T08:45:15Z</time>
      </trkpt>
      <trkpt lat="45.98037" lon="4.80698">
        <ele>230</ele>
        <time>2016-09-20T08:45:16Z</time>
      </trkpt>
      <trkpt lat="45.98031" lon="4.80703">
        <ele>231</ele>
        <time>2016-09-20T08:45:18Z</time>
      </trkpt>
      <trkpt lat="45.9803" lon="4.80707">
        <ele>231</ele>
        <time>2016-09-20T08:45:19Z</time>
      </trkpt>
      <trkpt lat="45.9803" lon="4.80718">
        <ele>231</ele>
        <time>2016-09-20T08:45:22Z</time>
      </trkpt>
      <trkpt lat="45.98031" lon="4.80722">
        <ele>231</ele>
        <time>2016-09-20T08:45:23Z</time>
      </trkpt>
      <trkpt lat="45.98032" lon="4.80727">
        <ele>231</ele>
        <time>2016-09-20T08:45:25Z</time>
      </trkpt>
      <trkpt lat="45.98032" lon="4.80728">
        <ele>231</ele>
        <time>2016-09-20T08:45:26Z</time>
      </trkpt>
      <trkpt lat="45.98033" lon="4.80731">
        <ele>231</ele>
        <time>2016-09-20T08:45:27Z</time>
      </trkpt>
      <trkpt lat="45.98036" lon="4.80742">
        <ele>231</ele>
        <time>2016-09-20T08:45:30Z</time>
      </trkpt>
      <trkpt lat="45.98037" lon="4.80747">
        <ele>231</ele>
        <time>2016-09-20T08:45:31Z</time>
      </trkpt>
      <trkpt lat="45.9804" lon="4.80755">
        <ele>233</ele>
        <time>2016-09-20T08:45:33Z</time>
      </trkpt>
      <trkpt lat="45.98041" lon="4.80759">
        <ele>233</ele>
        <time>2016-09-20T08:45:34Z</time>
      </trkpt>
      <trkpt lat="45.98042" lon="4.80769">
        <ele>233</ele>
        <time>2016-09-20T08:45:36Z</time>
      </trkpt>
      <trkpt lat="45.98042" lon="4.80774">
        <ele>233</ele>
        <time>2016-09-20T08:45:37Z</time>
      </trkpt>
      <trkpt lat="45.98045" lon="4.80786">
        <ele>233</ele>
        <time>2016-09-20T08:45:40Z</time>
      </trkpt>
      <trkpt lat="45.98046" lon="4.8079">
        <ele>233</ele>
        <time>2016-09-20T08:45:41Z</time>
      </trkpt>
      <trkpt lat="45.98048" lon="4.80799">
        <ele>234</ele>
        <time>2016-09-20T08:45:43Z</time>
      </trkpt>
      <trkpt lat="45.98049" lon="4.80803">
        <ele>234</ele>
        <time>2016-09-20T08:45:44Z</time>
      </trkpt>
      <trkpt lat="45.9805" lon="4.80812">
        <ele>234</ele>
        <time>2016-09-20T08:45:46Z</time>
      </trkpt>
      <trkpt lat="45.98051" lon="4.80816">
        <ele>234</ele>
        <time>2016-09-20T08:45:47Z</time>
      </trkpt>
      <trkpt lat="45.98056" lon="4.80825">
        <ele>234</ele>
        <time>2016-09-20T08:45:49Z</time>
      </trkpt>
      <trkpt lat="45.98057" lon="4.80828">
        <ele>234</ele>
        <time>2016-09-20T08:45:50Z</time>
      </trkpt>
      <trkpt lat="45.98061" lon="4.80838">
        <ele>236</ele>
        <time>2016-09-20T08:45:54Z</time>
      </trkpt>
      <trkpt lat="45.98062" lon="4.80843">
        <ele>236</ele>
        <time>2016-09-20T08:45:55Z</time>
      </trkpt>
      <trkpt lat="45.98062" lon="4.80852">
        <ele>236</ele>
        <time>2016-09-20T08:45:57Z</time>
      </trkpt>
      <trkpt lat="45.98062" lon="4.80857">
        <ele>236</ele>
        <time>2016-09-20T08:45:58Z</time>
      </trkpt>
      <trkpt lat="45.98063" lon="4.80862">
        <ele>237</ele>
        <time>2016-09-20T08:45:59Z</time>
      </trkpt>
      <trkpt lat="45.98061" lon="4.80872">
        <ele>237</ele>
        <time>2016-09-20T08:46:00Z</time>
      </trkpt>
      <trkpt lat="45.98062" lon="4.80883">
        <ele>237</ele>
        <time>2016-09-20T08:46:02Z</time>
      </trkpt>
      <trkpt lat="45.98064" lon="4.80887">
        <ele>237</ele>
        <time>2016-09-20T08:46:03Z</time>
      </trkpt>
      <trkpt lat="45.98069" lon="4.80894">
        <ele>238</ele>
        <time>2016-09-20T08:46:06Z</time>
      </trkpt>
      <trkpt lat="45.9807" lon="4.80897">
        <ele>238</ele>
        <time>2016-09-20T08:46:07Z</time>
      </trkpt>
      <trkpt lat="45.98074" lon="4.80907">
        <ele>238</ele>
        <time>2016-09-20T08:46:10Z</time>
      </trkpt>
      <trkpt lat="45.98075" lon="4.80912">
        <ele>238</ele>
        <time>2016-09-20T08:46:11Z</time>
      </trkpt>
      <trkpt lat="45.98077" lon="4.80924">
        <ele>240</ele>
        <time>2016-09-20T08:46:14Z</time>
      </trkpt>
      <trkpt lat="45.98078" lon="4.80929">
        <ele>240</ele>
        <time>2016-09-20T08:46:15Z</time>
      </trkpt>
      <trkpt lat="45.9808" lon="4.80937">
        <ele>240</ele>
        <time>2016-09-20T08:46:17Z</time>
      </trkpt>
      <trkpt lat="45.98082" lon="4.80941">
        <ele>240</ele>
        <time>2016-09-20T08:46:18Z</time>
      </trkpt>
      <trkpt lat="45.98084" lon="4.80949">
        <ele>238</ele>
        <time>2016-09-20T08:46:20Z</time>
      </trkpt>
      <trkpt lat="45.98086" lon="4.80953">
        <ele>238</ele>
        <time>2016-09-20T08:46:21Z</time>
      </trkpt>
      <trkpt lat="45.9809" lon="4.80964">
        <ele>239</ele>
        <time>2016-09-20T08:46:24Z</time>
      </trkpt>
      <trkpt lat="45.98091" lon="4.80967">
        <ele>239</ele>
        <time>2016-09-20T08:46:25Z</time>
      </trkpt>
      <trkpt lat="45.98093" lon="4.80979">
        <ele>239</ele>
        <time>2016-09-20T08:46:28Z</time>
      </trkpt>
      <trkpt lat="45.98094" lon="4.80984">
        <ele>240</ele>
        <time>2016-09-20T08:46:29Z</time>
      </trkpt>
      <trkpt lat="45.98097" lon="4.80992">
        <ele>240</ele>
        <time>2016-09-20T08:46:31Z</time>
      </trkpt>
      <trkpt lat="45.98099" lon="4.80997">
        <ele>240</ele>
        <time>2016-09-20T08:46:32Z</time>
      </trkpt>
      <trkpt lat="45.98101" lon="4.81002">
        <ele>242</ele>
        <time>2016-09-20T08:46:33Z</time>
      </trkpt>
      <trkpt lat="45.98103" lon="4.81008">
        <ele>242</ele>
        <time>2016-09-20T08:46:34Z</time>
      </trkpt>
      <trkpt lat="45.98107" lon="4.81019">
        <ele>242</ele>
        <time>2016-09-20T08:46:36Z</time>
      </trkpt>
      <trkpt lat="45.98108" lon="4.81026">
        <ele>242</ele>
        <time>2016-09-20T08:46:37Z</time>
      </trkpt>
      <trkpt lat="45.98111" lon="4.81037">
        <ele>242</ele>
        <time>2016-09-20T08:46:39Z</time>
      </trkpt>
      <trkpt lat="45.98114" lon="4.81042">
        <ele>242</ele>
        <time>2016-09-20T08:46:40Z</time>
      </trkpt>
      <trkpt lat="45.98118" lon="4.81053">
        <ele>243</ele>
        <time>2016-09-20T08:46:42Z</time>
      </trkpt>
      <trkpt lat="45.9812" lon="4.81057">
        <ele>243</ele>
        <time>2016-09-20T08:46:43Z</time>
      </trkpt>
      <trkpt lat="45.98123" lon="4.81068">
        <ele>243</ele>
        <time>2016-09-20T08:46:45Z</time>
      </trkpt>
      <trkpt lat="45.98126" lon="4.81074">
        <ele>243</ele>
        <time>2016-09-20T08:46:46Z</time>
      </trkpt>
      <trkpt lat="45.98129" lon="4.81084">
        <ele>245</ele>
        <time>2016-09-20T08:46:48Z</time>
      </trkpt>
      <trkpt lat="45.98131" lon="4.81089">
        <ele>245</ele>
        <time>2016-09-20T08:46:49Z</time>
      </trkpt>
      <trkpt lat="45.98134" lon="4.81098">
        <ele>245</ele>
        <time>2016-09-20T08:46:51Z</time>
      </trkpt>
      <trkpt lat="45.98136" lon="4.81104">
        <ele>245</ele>
        <time>2016-09-20T08:46:52Z</time>
      </trkpt>
      <trkpt lat="45.9814" lon="4.81113">
        <ele>245</ele>
        <time>2016-09-20T08:46:54Z</time>
      </trkpt>
      <trkpt lat="45.98142" lon="4.81118">
        <ele>245</ele>
        <time>2016-09-20T08:46:55Z</time>
      </trkpt>
      <trkpt lat="45.98146" lon="4.81127">
        <ele>245</ele>
        <time>2016-09-20T08:46:57Z</time>
      </trkpt>
      <trkpt lat="45.98148" lon="4.81132">
        <ele>245</ele>
        <time>2016-09-20T08:46:58Z</time>
      </trkpt>
      <trkpt lat="45.98152" lon="4.81142">
        <ele>245</ele>
        <time>2016-09-20T08:47:00Z</time>
      </trkpt>
      <trkpt lat="45.98154" lon="4.81146">
        <ele>245</ele>
        <time>2016-09-20T08:47:01Z</time>
      </trkpt>
      <trkpt lat="45.98157" lon="4.81155">
        <ele>245</ele>
        <time>2016-09-20T08:47:03Z</time>
      </trkpt>
      <trkpt lat="45.98159" lon="4.81161">
        <ele>245</ele>
        <time>2016-09-20T08:47:04Z</time>
      </trkpt>
      <trkpt lat="45.98163" lon="4.81171">
        <ele>245</ele>
        <time>2016-09-20T08:47:06Z</time>
      </trkpt>
      <trkpt lat="45.98164" lon="4.81176">
        <ele>246</ele>
        <time>2016-09-20T08:47:07Z</time>
      </trkpt>
      <trkpt lat="45.98165" lon="4.81187">
        <ele>246</ele>
        <time>2016-09-20T08:47:09Z</time>
      </trkpt>
      <trkpt lat="45.98166" lon="4.81192">
        <ele>246</ele>
        <time>2016-09-20T08:47:10Z</time>
      </trkpt>
      <trkpt lat="45.98167" lon="4.81198">
        <ele>245</ele>
        <time>2016-09-20T08:47:11Z</time>
      </trkpt>
      <trkpt lat="45.98168" lon="4.81205">
        <ele>245</ele>
        <time>2016-09-20T08:47:12Z</time>
      </trkpt>
      <trkpt lat="45.98169" lon="4.81211">
        <ele>246</ele>
        <time>2016-09-20T08:47:13Z</time>
      </trkpt>
      <trkpt lat="45.9817" lon="4.81218">
        <ele>246</ele>
        <time>2016-09-20T08:47:14Z</time>
      </trkpt>
      <trkpt lat="45.98173" lon="4.81229">
        <ele>246</ele>
        <time>2016-09-20T08:47:16Z</time>
      </trkpt>
      <trkpt lat="45.98176" lon="4.81234">
        <ele>246</ele>
        <time>2016-09-20T08:47:17Z</time>
      </trkpt>
      <trkpt lat="45.98175" lon="4.81246">
        <ele>247</ele>
        <time>2016-09-20T08:47:19Z</time>
      </trkpt>
      <trkpt lat="45.98177" lon="4.81252">
        <ele>247</ele>
        <time>2016-09-20T08:47:20Z</time>
      </trkpt>
      <trkpt lat="45.98179" lon="4.81264">
        <ele>247</ele>
        <time>2016-09-20T08:47:22Z</time>
      </trkpt>
      <trkpt lat="45.98181" lon="4.8127">
        <ele>247</ele>
        <time>2016-09-20T08:47:23Z</time>
      </trkpt>
      <trkpt lat="45.98183" lon="4.81282">
        <ele>247</ele>
        <time>2016-09-20T08:47:25Z</time>
      </trkpt>
      <trkpt lat="45.98184" lon="4.81288">
        <ele>247</ele>
        <time>2016-09-20T08:47:26Z</time>
      </trkpt>
      <trkpt lat="45.98184" lon="4.81299">
        <ele>247</ele>
        <time>2016-09-20T08:47:28Z</time>
      </trkpt>
      <trkpt lat="45.98184" lon="4.81305">
        <ele>247</ele>
        <time>2016-09-20T08:47:29Z</time>
      </trkpt>
      <trkpt lat="45.98185" lon="4.81312">
        <ele>247</ele>
        <time>2016-09-20T08:47:30Z</time>
      </trkpt>
      <trkpt lat="45.98186" lon="4.81318">
        <ele>247</ele>
        <time>2016-09-20T08:47:31Z</time>
      </trkpt>
      <trkpt lat="45.98189" lon="4.8133">
        <ele>247</ele>
        <time>2016-09-20T08:47:33Z</time>
      </trkpt>
      <trkpt lat="45.9819" lon="4.81337">
        <ele>248</ele>
        <time>2016-09-20T08:47:34Z</time>
      </trkpt>
      <trkpt lat="45.98192" lon="4.81344">
        <ele>248</ele>
        <time>2016-09-20T08:47:35Z</time>
      </trkpt>
      <trkpt lat="45.98193" lon="4.81351">
        <ele>248</ele>
        <time>2016-09-20T08:47:36Z</time>
      </trkpt>
      <trkpt lat="45.98196" lon="4.81363">
        <ele>248</ele>
        <time>2016-09-20T08:47:38Z</time>
      </trkpt>
      <trkpt lat="45.98197" lon="4.81369">
        <ele>248</ele>
        <time>2016-09-20T08:47:39Z</time>
      </trkpt>
      <trkpt lat="45.98198" lon="4.81381">
        <ele>248</ele>
        <time>2016-09-20T08:47:42Z</time>
      </trkpt>
      <trkpt lat="45.98198" lon="4.81383">
        <ele>248</ele>
        <time>2016-09-20T08:47:43Z</time>
      </trkpt>
      <trkpt lat="45.982" lon="4.81396">
        <ele>248</ele>
        <time>2016-09-20T08:47:48Z</time>
      </trkpt>
      <trkpt lat="45.98203" lon="4.81398">
        <ele>248</ele>
        <time>2016-09-20T08:47:49Z</time>
      </trkpt>
      <trkpt lat="45.98209" lon="4.81407">
        <ele>248</ele>
        <time>2016-09-20T08:47:51Z</time>
      </trkpt>
      <trkpt lat="45.9821" lon="4.81413">
        <ele>248</ele>
        <time>2016-09-20T08:47:52Z</time>
      </trkpt>
      <trkpt lat="45.98214" lon="4.81425">
        <ele>249</ele>
        <time>2016-09-20T08:47:54Z</time>
      </trkpt>
      <trkpt lat="45.98215" lon="4.81431">
        <ele>249</ele>
        <time>2016-09-20T08:47:55Z</time>
      </trkpt>
      <trkpt lat="45.98217" lon="4.81436">
        <ele>249</ele>
        <time>2016-09-20T08:47:56Z</time>
      </trkpt>
      <trkpt lat="45.98219" lon="4.81443">
        <ele>249</ele>
        <time>2016-09-20T08:47:57Z</time>
      </trkpt>
      <trkpt lat="45.98221" lon="4.81449">
        <ele>249</ele>
        <time>2016-09-20T08:47:58Z</time>
      </trkpt>
      <trkpt lat="45.98223" lon="4.81455">
        <ele>249</ele>
        <time>2016-09-20T08:47:59Z</time>
      </trkpt>
      <trkpt lat="45.98225" lon="4.81462">
        <ele>249</ele>
        <time>2016-09-20T08:48:00Z</time>
      </trkpt>
      <trkpt lat="45.98228" lon="4.81469">
        <ele>249</ele>
        <time>2016-09-20T08:48:01Z</time>
      </trkpt>
      <trkpt lat="45.9823" lon="4.81475">
        <ele>249</ele>
        <time>2016-09-20T08:48:02Z</time>
      </trkpt>
      <trkpt lat="45.98231" lon="4.81481">
        <ele>249</ele>
        <time>2016-09-20T08:48:03Z</time>
      </trkpt>
      <trkpt lat="45.98233" lon="4.81487">
        <ele>249</ele>
        <time>2016-09-20T08:48:04Z</time>
      </trkpt>
      <trkpt lat="45.98236" lon="4.81494">
        <ele>249</ele>
        <time>2016-09-20T08:48:05Z</time>
      </trkpt>
      <trkpt lat="45.98238" lon="4.81501">
        <ele>249</ele>
        <time>2016-09-20T08:48:06Z</time>
      </trkpt>
      <trkpt lat="45.9824" lon="4.81507">
        <ele>249</ele>
        <time>2016-09-20T08:48:07Z</time>
      </trkpt>
      <trkpt lat="45.98242" lon="4.81514">
        <ele>249</ele>
        <time>2016-09-20T08:48:08Z</time>
      </trkpt>
      <trkpt lat="45.98244" lon="4.8152">
        <ele>249</ele>
        <time>2016-09-20T08:48:09Z</time>
      </trkpt>
      <trkpt lat="45.98247" lon="4.81527">
        <ele>249</ele>
        <time>2016-09-20T08:48:10Z</time>
      </trkpt>
      <trkpt lat="45.98249" lon="4.81534">
        <ele>249</ele>
        <time>2016-09-20T08:48:11Z</time>
      </trkpt>
      <trkpt lat="45.98251" lon="4.81541">
        <ele>247</ele>
        <time>2016-09-20T08:48:12Z</time>
      </trkpt>
      <trkpt lat="45.98253" lon="4.81547">
        <ele>247</ele>
        <time>2016-09-20T08:48:13Z</time>
      </trkpt>
      <trkpt lat="45.98256" lon="4.81554">
        <ele>247</ele>
        <time>2016-09-20T08:48:14Z</time>
      </trkpt>
      <trkpt lat="45.98258" lon="4.8156">
        <ele>247</ele>
        <time>2016-09-20T08:48:15Z</time>
      </trkpt>
      <trkpt lat="45.98261" lon="4.81567">
        <ele>247</ele>
        <time>2016-09-20T08:48:16Z</time>
      </trkpt>
      <trkpt lat="45.98263" lon="4.81574">
        <ele>247</ele>
        <time>2016-09-20T08:48:17Z</time>
      </trkpt>
      <trkpt lat="45.98265" lon="4.8158">
        <ele>247</ele>
        <time>2016-09-20T08:48:18Z</time>
      </trkpt>
      <trkpt lat="45.98267" lon="4.81587">
        <ele>247</ele>
        <time>2016-09-20T08:48:19Z</time>
      </trkpt>
      <trkpt lat="45.98269" lon="4.81594">
        <ele>247</ele>
        <time>2016-09-20T08:48:20Z</time>
      </trkpt>
      <trkpt lat="45.98272" lon="4.81601">
        <ele>247</ele>
        <time>2016-09-20T08:48:21Z</time>
      </trkpt>
      <trkpt lat="45.98275" lon="4.81607">
        <ele>247</ele>
        <time>2016-09-20T08:48:22Z</time>
      </trkpt>
      <trkpt lat="45.98278" lon="4.81613">
        <ele>247</ele>
        <time>2016-09-20T08:48:23Z</time>
      </trkpt>
      <trkpt lat="45.98281" lon="4.81619">
        <ele>247</ele>
        <time>2016-09-20T08:48:24Z</time>
      </trkpt>
      <trkpt lat="45.98285" lon="4.81624">
        <ele>247</ele>
        <time>2016-09-20T08:48:25Z</time>
      </trkpt>
      <trkpt lat="45.98288" lon="4.81629">
        <ele>247</ele>
        <time>2016-09-20T08:48:26Z</time>
      </trkpt>
      <trkpt lat="45.98291" lon="4.81633">
        <ele>247</ele>
        <time>2016-09-20T08:48:27Z</time>
      </trkpt>
      <trkpt lat="45.98295" lon="4.81637">
        <ele>247</ele>
        <time>2016-09-20T08:48:28Z</time>
      </trkpt>
      <trkpt lat="45.98299" lon="4.81641">
        <ele>247</ele>
        <time>2016-09-20T08:48:29Z</time>
      </trkpt>
      <trkpt lat="45.98302" lon="4.81645">
        <ele>246</ele>
        <time>2016-09-20T08:48:30Z</time>
      </trkpt>
      <trkpt lat="45.98306" lon="4.81649">
        <ele>246</ele>
        <time>2016-09-20T08:48:31Z</time>
      </trkpt>
      <trkpt lat="45.98311" lon="4.81653">
        <ele>246</ele>
        <time>2016-09-20T08:48:32Z</time>
      </trkpt>
      <trkpt lat="45.98315" lon="4.81657">
        <ele>246</ele>
        <time>2016-09-20T08:48:33Z</time>
      </trkpt>
      <trkpt lat="45.98319" lon="4.8166">
        <ele>246</ele>
        <time>2016-09-20T08:48:34Z</time>
      </trkpt>
      <trkpt lat="45.98323" lon="4.81664">
        <ele>246</ele>
        <time>2016-09-20T08:48:35Z</time>
      </trkpt>
      <trkpt lat="45.98328" lon="4.81667">
        <ele>246</ele>
        <time>2016-09-20T08:48:36Z</time>
      </trkpt>
      <trkpt lat="45.98333" lon="4.81669">
        <ele>246</ele>
        <time>2016-09-20T08:48:37Z</time>
      </trkpt>
      <trkpt lat="45.98338" lon="4.81671">
        <ele>246</ele>
        <time>2016-09-20T08:48:38Z</time>
      </trkpt>
      <trkpt lat="45.98343" lon="4.81672">
        <ele>245</ele>
        <time>2016-09-20T08:48:39Z</time>
      </trkpt>
      <trkpt lat="45.98348" lon="4.81674">
        <ele>245</ele>
        <time>2016-09-20T08:48:40Z</time>
      </trkpt>
      <trkpt lat="45.98353" lon="4.81675">
        <ele>245</ele>
        <time>2016-09-20T08:48:41Z</time>
      </trkpt>
      <trkpt lat="45.98358" lon="4.81676">
        <ele>245</ele>
        <time>2016-09-20T08:48:42Z</time>
      </trkpt>
      <trkpt lat="45.98363" lon="4.81676">
        <ele>244</ele>
        <time>2016-09-20T08:48:43Z</time>
      </trkpt>
      <trkpt lat="45.98368" lon="4.81676">
        <ele>244</ele>
        <time>2016-09-20T08:48:44Z</time>
      </trkpt>
      <trkpt lat="45.98373" lon="4.81675">
        <ele>244</ele>
        <time>2016-09-20T08:48:45Z</time>
      </trkpt>
      <trkpt lat="45.98378" lon="4.81673">
        <ele>244</ele>
        <time>2016-09-20T08:48:46Z</time>
      </trkpt>
      <trkpt lat="45.98384" lon="4.81672">
        <ele>243</ele>
        <time>2016-09-20T08:48:47Z</time>
      </trkpt>
      <trkpt lat="45.98389" lon="4.81671">
        <ele>243</ele>
        <time>2016-09-20T08:48:48Z</time>
      </trkpt>
      <trkpt lat="45.98394" lon="4.8167">
        <ele>243</ele>
        <time>2016-09-20T08:48:49Z</time>
      </trkpt>
      <trkpt lat="45.98399" lon="4.81668">
        <ele>243</ele>
        <time>2016-09-20T08:48:50Z</time>
      </trkpt>
      <trkpt lat="45.98404" lon="4.81667">
        <ele>241</ele>
        <time>2016-09-20T08:48:51Z</time>
      </trkpt>
      <trkpt lat="45.98409" lon="4.81665">
        <ele>241</ele>
        <time>2016-09-20T08:48:52Z</time>
      </trkpt>
      <trkpt lat="45.98414" lon="4.81665">
        <ele>241</ele>
        <time>2016-09-20T08:48:53Z</time>
      </trkpt>
      <trkpt lat="45.98419" lon="4.81666">
        <ele>241</ele>
        <time>2016-09-20T08:48:54Z</time>
      </trkpt>
      <trkpt lat="45.98424" lon="4.81666">
        <ele>240</ele>
        <time>2016-09-20T08:48:55Z</time>
      </trkpt>
      <trkpt lat="45.98429" lon="4.81668">
        <ele>240</ele>
        <time>2016-09-20T08:48:56Z</time>
      </trkpt>
      <trkpt lat="45.98434" lon="4.81671">
        <ele>240</ele>
        <time>2016-09-20T08:48:57Z</time>
      </trkpt>
      <trkpt lat="45.98439" lon="4.81675">
        <ele>240</ele>
        <time>2016-09-20T08:48:58Z</time>
      </trkpt>
      <trkpt lat="45.98443" lon="4.81681">
        <ele>239</ele>
        <time>2016-09-20T08:48:59Z</time>
      </trkpt>
      <trkpt lat="45.98446" lon="4.81686">
        <ele>239</ele>
        <time>2016-09-20T08:49:00Z</time>
      </trkpt>
      <trkpt lat="45.98449" lon="4.81693">
        <ele>239</ele>
        <time>2016-09-20T08:49:01Z</time>
      </trkpt>
      <trkpt lat="45.98453" lon="4.81699">
        <ele>239</ele>
        <time>2016-09-20T08:49:02Z</time>
      </trkpt>
      <trkpt lat="45.98455" lon="4.81705">
        <ele>239</ele>
        <time>2016-09-20T08:49:03Z</time>
      </trkpt>
      <trkpt lat="45.98458" lon="4.81712">
        <ele>239</ele>
        <time>2016-09-20T08:49:04Z</time>
      </trkpt>
      <trkpt lat="45.98462" lon="4.81718">
        <ele>239</ele>
        <time>2016-09-20T08:49:05Z</time>
      </trkpt>
      <trkpt lat="45.98468" lon="4.81724">
        <ele>239</ele>
        <time>2016-09-20T08:49:06Z</time>
      </trkpt>
      <trkpt lat="45.98473" lon="4.81731">
        <ele>239</ele>
        <time>2016-09-20T08:49:07Z</time>
      </trkpt>
      <trkpt lat="45.98479" lon="4.81737">
        <ele>238</ele>
        <time>2016-09-20T08:49:08Z</time>
      </trkpt>
      <trkpt lat="45.98486" lon="4.81743">
        <ele>238</ele>
        <time>2016-09-20T08:49:09Z</time>
      </trkpt>
      <trkpt lat="45.98492" lon="4.81749">
        <ele>238</ele>
        <time>2016-09-20T08:49:10Z</time>
      </trkpt>
      <trkpt lat="45.98498" lon="4.81756">
        <ele>238</ele>
        <time>2016-09-20T08:49:11Z</time>
      </trkpt>
      <trkpt lat="45.98504" lon="4.81763">
        <ele>237</ele>
        <time>2016-09-20T08:49:12Z</time>
      </trkpt>
      <trkpt lat="45.9851" lon="4.8177">
        <ele>238</ele>
        <time>2016-09-20T08:49:13Z</time>
      </trkpt>
      <trkpt lat="45.98516" lon="4.81779">
        <ele>238</ele>
        <time>2016-09-20T08:49:14Z</time>
      </trkpt>
      <trkpt lat="45.98522" lon="4.81787">
        <ele>238</ele>
        <time>2016-09-20T08:49:15Z</time>
      </trkpt>
      <trkpt lat="45.98527" lon="4.81794">
        <ele>238</ele>
        <time>2016-09-20T08:49:16Z</time>
      </trkpt>
      <trkpt lat="45.98532" lon="4.818">
        <ele>238</ele>
        <time>2016-09-20T08:49:17Z</time>
      </trkpt>
      <trkpt lat="45.98537" lon="4.81805">
        <ele>238</ele>
        <time>2016-09-20T08:49:18Z</time>
      </trkpt>
      <trkpt lat="45.98543" lon="4.81808">
        <ele>238</ele>
        <time>2016-09-20T08:49:19Z</time>
      </trkpt>
      <trkpt lat="45.98548" lon="4.81809">
        <ele>238</ele>
        <time>2016-09-20T08:49:20Z</time>
      </trkpt>
      <trkpt lat="45.98554" lon="4.81808">
        <ele>238</ele>
        <time>2016-09-20T08:49:21Z</time>
      </trkpt>
      <trkpt lat="45.98559" lon="4.81805">
        <ele>238</ele>
        <time>2016-09-20T08:49:22Z</time>
      </trkpt>
      <trkpt lat="45.98563" lon="4.818">
        <ele>238</ele>
        <time>2016-09-20T08:49:23Z</time>
      </trkpt>
      <trkpt lat="45.98567" lon="4.81795">
        <ele>238</ele>
        <time>2016-09-20T08:49:24Z</time>
      </trkpt>
      <trkpt lat="45.98571" lon="4.8179">
        <ele>238</ele>
        <time>2016-09-20T08:49:25Z</time>
      </trkpt>
      <trkpt lat="45.98575" lon="4.81785">
        <ele>238</ele>
        <time>2016-09-20T08:49:26Z</time>
      </trkpt>
      <trkpt lat="45.98579" lon="4.81779">
        <ele>238</ele>
        <time>2016-09-20T08:49:27Z</time>
      </trkpt>
      <trkpt lat="45.98583" lon="4.81775">
        <ele>237</ele>
        <time>2016-09-20T08:49:28Z</time>
      </trkpt>
      <trkpt lat="45.98588" lon="4.8177">
        <ele>238</ele>
        <time>2016-09-20T08:49:29Z</time>
      </trkpt>
      <trkpt lat="45.98592" lon="4.81767">
        <ele>238</ele>
        <time>2016-09-20T08:49:30Z</time>
      </trkpt>
      <trkpt lat="45.98597" lon="4.81765">
        <ele>238</ele>
        <time>2016-09-20T08:49:31Z</time>
      </trkpt>
      <trkpt lat="45.98602" lon="4.81763">
        <ele>238</ele>
        <time>2016-09-20T08:49:32Z</time>
      </trkpt>
      <trkpt lat="45.98607" lon="4.81762">
        <ele>238</ele>
        <time>2016-09-20T08:49:33Z</time>
      </trkpt>
      <trkpt lat="45.98613" lon="4.8176">
        <ele>238</ele>
        <time>2016-09-20T08:49:34Z</time>
      </trkpt>
      <trkpt lat="45.98619" lon="4.81759">
        <ele>238</ele>
        <time>2016-09-20T08:49:35Z</time>
      </trkpt>
      <trkpt lat="45.98624" lon="4.81757">
        <ele>238</ele>
        <time>2016-09-20T08:49:36Z</time>
      </trkpt>
      <trkpt lat="45.98629" lon="4.81754">
        <ele>238</ele>
        <time>2016-09-20T08:49:37Z</time>
      </trkpt>
      <trkpt lat="45.98634" lon="4.81753">
        <ele>238</ele>
        <time>2016-09-20T08:49:38Z</time>
      </trkpt>
      <trkpt lat="45.98639" lon="4.81751">
        <ele>238</ele>
        <time>2016-09-20T08:49:39Z</time>
      </trkpt>
      <trkpt lat="45.98644" lon="4.81749">
        <ele>237</ele>
        <time>2016-09-20T08:49:40Z</time>
      </trkpt>
      <trkpt lat="45.98648" lon="4.81748">
        <ele>237</ele>
        <time>2016-09-20T08:49:41Z</time>
      </trkpt>
      <trkpt lat="45.98653" lon="4.81747">
        <ele>237</ele>
        <time>2016-09-20T08:49:42Z</time>
      </trkpt>
      <trkpt lat="45.98658" lon="4.81746">
        <ele>238</ele>
        <time>2016-09-20T08:49:43Z</time>
      </trkpt>
      <trkpt lat="45.98663" lon="4.81745">
        <ele>238</ele>
        <time>2016-09-20T08:49:44Z</time>
      </trkpt>
      <trkpt lat="45.98668" lon="4.81744">
        <ele>238</ele>
        <time>2016-09-20T08:49:45Z</time>
      </trkpt>
      <trkpt lat="45.98676" lon="4.81743">
        <ele>238</ele>
        <time>2016-09-20T08:49:47Z</time>
      </trkpt>
      <trkpt lat="45.9868" lon="4.81742">
        <ele>238</ele>
        <time>2016-09-20T08:49:48Z</time>
      </trkpt>
      <trkpt lat="45.98685" lon="4.81739">
        <ele>238</ele>
        <time>2016-09-20T08:49:49Z</time>
      </trkpt>
      <trkpt lat="45.98689" lon="4.81739">
        <ele>238</ele>
        <time>2016-09-20T08:49:50Z</time>
      </trkpt>
      <trkpt lat="45.98698" lon="4.81736">
        <ele>239</ele>
        <time>2016-09-20T08:49:52Z</time>
      </trkpt>
      <trkpt lat="45.98702" lon="4.81735">
        <ele>239</ele>
        <time>2016-09-20T08:49:53Z</time>
      </trkpt>
      <trkpt lat="45.98711" lon="4.81733">
        <ele>239</ele>
        <time>2016-09-20T08:49:55Z</time>
      </trkpt>
      <trkpt lat="45.98716" lon="4.81732">
        <ele>239</ele>
        <time>2016-09-20T08:49:56Z</time>
      </trkpt>
      <trkpt lat="45.98721" lon="4.81732">
        <ele>239</ele>
        <time>2016-09-20T08:49:57Z</time>
      </trkpt>
      <trkpt lat="45.98725" lon="4.81734">
        <ele>239</ele>
        <time>2016-09-20T08:49:58Z</time>
      </trkpt>
      <trkpt lat="45.98732" lon="4.81741">
        <ele>240</ele>
        <time>2016-09-20T08:50:00Z</time>
      </trkpt>
      <trkpt lat="45.98735" lon="4.81746">
        <ele>240</ele>
        <time>2016-09-20T08:50:01Z</time>
      </trkpt>
      <trkpt lat="45.98738" lon="4.81751">
        <ele>240</ele>
        <time>2016-09-20T08:50:02Z</time>
      </trkpt>
      <trkpt lat="45.98741" lon="4.81756">
        <ele>240</ele>
        <time>2016-09-20T08:50:03Z</time>
      </trkpt>
      <trkpt lat="45.98744" lon="4.81762">
        <ele>240</ele>
        <time>2016-09-20T08:50:04Z</time>
      </trkpt>
      <trkpt lat="45.98746" lon="4.81769">
        <ele>240</ele>
        <time>2016-09-20T08:50:05Z</time>
      </trkpt>
      <trkpt lat="45.98749" lon="4.81776">
        <ele>240</ele>
        <time>2016-09-20T08:50:06Z</time>
      </trkpt>
      <trkpt lat="45.98753" lon="4.81783">
        <ele>241</ele>
        <time>2016-09-20T08:50:07Z</time>
      </trkpt>
      <trkpt lat="45.98756" lon="4.8179">
        <ele>241</ele>
        <time>2016-09-20T08:50:08Z</time>
      </trkpt>
      <trkpt lat="45.98759" lon="4.81797">
        <ele>240</ele>
        <time>2016-09-20T08:50:09Z</time>
      </trkpt>
      <trkpt lat="45.98762" lon="4.81804">
        <ele>240</ele>
        <time>2016-09-20T08:50:10Z</time>
      </trkpt>
      <trkpt lat="45.98766" lon="4.81811">
        <ele>240</ele>
        <time>2016-09-20T08:50:11Z</time>
      </trkpt>
      <trkpt lat="45.98769" lon="4.81818">
        <ele>240</ele>
        <time>2016-09-20T08:50:12Z</time>
      </trkpt>
      <trkpt lat="45.98772" lon="4.81825">
        <ele>240</ele>
        <time>2016-09-20T08:50:13Z</time>
      </trkpt>
      <trkpt lat="45.98776" lon="4.81833">
        <ele>240</ele>
        <time>2016-09-20T08:50:14Z</time>
      </trkpt>
      <trkpt lat="45.98779" lon="4.8184">
        <ele>239</ele>
        <time>2016-09-20T08:50:15Z</time>
      </trkpt>
      <trkpt lat="45.98782" lon="4.81848">
        <ele>239</ele>
        <time>2016-09-20T08:50:16Z</time>
      </trkpt>
      <trkpt lat="45.98784" lon="4.81855">
        <ele>239</ele>
        <time>2016-09-20T08:50:17Z</time>
      </trkpt>
      <trkpt lat="45.98787" lon="4.81863">
        <ele>239</ele>
        <time>2016-09-20T08:50:18Z</time>
      </trkpt>
      <trkpt lat="45.98791" lon="4.8187">
        <ele>239</ele>
        <time>2016-09-20T08:50:19Z</time>
      </trkpt>
      <trkpt lat="45.98794" lon="4.81877">
        <ele>239</ele>
        <time>2016-09-20T08:50:20Z</time>
      </trkpt>
      <trkpt lat="45.98796" lon="4.81884">
        <ele>239</ele>
        <time>2016-09-20T08:50:21Z</time>
      </trkpt>
      <trkpt lat="45.98798" lon="4.81892">
        <ele>239</ele>
        <time>2016-09-20T08:50:22Z</time>
      </trkpt>
      <trkpt lat="45.988" lon="4.81901">
        <ele>239</ele>
        <time>2016-09-20T08:50:23Z</time>
      </trkpt>
      <trkpt lat="45.98801" lon="4.81909">
        <ele>239</ele>
        <time>2016-09-20T08:50:24Z</time>
      </trkpt>
      <trkpt lat="45.98803" lon="4.81917">
        <ele>239</ele>
        <time>2016-09-20T08:50:25Z</time>
      </trkpt>
      <trkpt lat="45.98804" lon="4.81925">
        <ele>239</ele>
        <time>2016-09-20T08:50:26Z</time>
      </trkpt>
      <trkpt lat="45.98806" lon="4.81933">
        <ele>239</ele>
        <time>2016-09-20T08:50:27Z</time>
      </trkpt>
      <trkpt lat="45.98807" lon="4.8194">
        <ele>239</ele>
        <time>2016-09-20T08:50:28Z</time>
      </trkpt>
      <trkpt lat="45.98808" lon="4.81948">
        <ele>239</ele>
        <time>2016-09-20T08:50:29Z</time>
      </trkpt>
      <trkpt lat="45.98809" lon="4.81956">
        <ele>239</ele>
        <time>2016-09-20T08:50:30Z</time>
      </trkpt>
      <trkpt lat="45.9881" lon="4.81964">
        <ele>239</ele>
        <time>2016-09-20T08:50:31Z</time>
      </trkpt>
      <trkpt lat="45.98811" lon="4.81972">
        <ele>239</ele>
        <time>2016-09-20T08:50:32Z</time>
      </trkpt>
      <trkpt lat="45.98812" lon="4.81979">
        <ele>239</ele>
        <time>2016-09-20T08:50:33Z</time>
      </trkpt>
      <trkpt lat="45.98814" lon="4.81987">
        <ele>238</ele>
        <time>2016-09-20T08:50:34Z</time>
      </trkpt>
      <trkpt lat="45.98816" lon="4.81994">
        <ele>238</ele>
        <time>2016-09-20T08:50:35Z</time>
      </trkpt>
      <trkpt lat="45.98817" lon="4.82002">
        <ele>238</ele>
        <time>2016-09-20T08:50:36Z</time>
      </trkpt>
      <trkpt lat="45.98818" lon="4.8201">
        <ele>238</ele>
        <time>2016-09-20T08:50:37Z</time>
      </trkpt>
      <trkpt lat="45.9882" lon="4.82018">
        <ele>238</ele>
        <time>2016-09-20T08:50:38Z</time>
      </trkpt>
      <trkpt lat="45.98822" lon="4.82026">
        <ele>238</ele>
        <time>2016-09-20T08:50:39Z</time>
      </trkpt>
      <trkpt lat="45.98823" lon="4.82034">
        <ele>238</ele>
        <time>2016-09-20T08:50:40Z</time>
      </trkpt>
      <trkpt lat="45.98824" lon="4.82042">
        <ele>238</ele>
        <time>2016-09-20T08:50:41Z</time>
      </trkpt>
      <trkpt lat="45.98825" lon="4.8205">
        <ele>238</ele>
        <time>2016-09-20T08:50:42Z</time>
      </trkpt>
      <trkpt lat="45.98827" lon="4.82058">
        <ele>237</ele>
        <time>2016-09-20T08:50:43Z</time>
      </trkpt>
      <trkpt lat="45.98828" lon="4.82066">
        <ele>237</ele>
        <time>2016-09-20T08:50:44Z</time>
      </trkpt>
      <trkpt lat="45.98829" lon="4.82074">
        <ele>237</ele>
        <time>2016-09-20T08:50:45Z</time>
      </trkpt>
      <trkpt lat="45.98831" lon="4.82082">
        <ele>236</ele>
        <time>2016-09-20T08:50:46Z</time>
      </trkpt>
      <trkpt lat="45.98831" lon="4.8209">
        <ele>236</ele>
        <time>2016-09-20T08:50:47Z</time>
      </trkpt>
      <trkpt lat="45.98832" lon="4.82097">
        <ele>237</ele>
        <time>2016-09-20T08:50:48Z</time>
      </trkpt>
      <trkpt lat="45.98833" lon="4.82104">
        <ele>237</ele>
        <time>2016-09-20T08:50:49Z</time>
      </trkpt>
      <trkpt lat="45.98834" lon="4.82111">
        <ele>236</ele>
        <time>2016-09-20T08:50:50Z</time>
      </trkpt>
      <trkpt lat="45.98835" lon="4.82119">
        <ele>236</ele>
        <time>2016-09-20T08:50:51Z</time>
      </trkpt>
      <trkpt lat="45.98837" lon="4.82127">
        <ele>236</ele>
        <time>2016-09-20T08:50:52Z</time>
      </trkpt>
      <trkpt lat="45.9884" lon="4.82136">
        <ele>236</ele>
        <time>2016-09-20T08:50:53Z</time>
      </trkpt>
      <trkpt lat="45.98842" lon="4.82144">
        <ele>236</ele>
        <time>2016-09-20T08:50:54Z</time>
      </trkpt>
      <trkpt lat="45.98844" lon="4.82152">
        <ele>236</ele>
        <time>2016-09-20T08:50:55Z</time>
      </trkpt>
      <trkpt lat="45.98846" lon="4.8216">
        <ele>236</ele>
        <time>2016-09-20T08:50:56Z</time>
      </trkpt>
      <trkpt lat="45.98848" lon="4.82167">
        <ele>236</ele>
        <time>2016-09-20T08:50:57Z</time>
      </trkpt>
      <trkpt lat="45.9885" lon="4.82174">
        <ele>236</ele>
        <time>2016-09-20T08:50:58Z</time>
      </trkpt>
      <trkpt lat="45.98852" lon="4.8218">
        <ele>236</ele>
        <time>2016-09-20T08:50:59Z</time>
      </trkpt>
      <trkpt lat="45.98854" lon="4.82186">
        <ele>236</ele>
        <time>2016-09-20T08:51:00Z</time>
      </trkpt>
      <trkpt lat="45.98856" lon="4.82193">
        <ele>236</ele>
        <time>2016-09-20T08:51:01Z</time>
      </trkpt>
      <trkpt lat="45.98859" lon="4.822">
        <ele>236</ele>
        <time>2016-09-20T08:51:02Z</time>
      </trkpt>
      <trkpt lat="45.98862" lon="4.82206">
        <ele>236</ele>
        <time>2016-09-20T08:51:03Z</time>
      </trkpt>
      <trkpt lat="45.98864" lon="4.82213">
        <ele>236</ele>
        <time>2016-09-20T08:51:04Z</time>
      </trkpt>
      <trkpt lat="45.98867" lon="4.82221">
        <ele>236</ele>
        <time>2016-09-20T08:51:05Z</time>
      </trkpt>
      <trkpt lat="45.9887" lon="4.82228">
        <ele>236</ele>
        <time>2016-09-20T08:51:06Z</time>
      </trkpt>
      <trkpt lat="45.98873" lon="4.82235">
        <ele>236</ele>
        <time>2016-09-20T08:51:07Z</time>
      </trkpt>
      <trkpt lat="45.98878" lon="4.8224">
        <ele>236</ele>
        <time>2016-09-20T08:51:08Z</time>
      </trkpt>
      <trkpt lat="45.98881" lon="4.82246">
        <ele>236</ele>
        <time>2016-09-20T08:51:09Z</time>
      </trkpt>
      <trkpt lat="45.98884" lon="4.82252">
        <ele>236</ele>
        <time>2016-09-20T08:51:10Z</time>
      </trkpt>
      <trkpt lat="45.98887" lon="4.82258">
        <ele>236</ele>
        <time>2016-09-20T08:51:11Z</time>
      </trkpt>
      <trkpt lat="45.9889" lon="4.82264">
        <ele>236</ele>
        <time>2016-09-20T08:51:12Z</time>
      </trkpt>
      <trkpt lat="45.98893" lon="4.82269">
        <ele>236</ele>
        <time>2016-09-20T08:51:13Z</time>
      </trkpt>
      <trkpt lat="45.98897" lon="4.82276">
        <ele>236</ele>
        <time>2016-09-20T08:51:14Z</time>
      </trkpt>
      <trkpt lat="45.98901" lon="4.82282">
        <ele>236</ele>
        <time>2016-09-20T08:51:15Z</time>
      </trkpt>
      <trkpt lat="45.98905" lon="4.82286">
        <ele>236</ele>
        <time>2016-09-20T08:51:16Z</time>
      </trkpt>
      <trkpt lat="45.98908" lon="4.82291">
        <ele>236</ele>
        <time>2016-09-20T08:51:17Z</time>
      </trkpt>
      <trkpt lat="45.98913" lon="4.82295">
        <ele>236</ele>
        <time>2016-09-20T08:51:18Z</time>
      </trkpt>
      <trkpt lat="45.98917" lon="4.823">
        <ele>234</ele>
        <time>2016-09-20T08:51:19Z</time>
      </trkpt>
      <trkpt lat="45.98922" lon="4.82304">
        <ele>234</ele>
        <time>2016-09-20T08:51:20Z</time>
      </trkpt>
      <trkpt lat="45.98926" lon="4.82308">
        <ele>234</ele>
        <time>2016-09-20T08:51:21Z</time>
      </trkpt>
      <trkpt lat="45.98931" lon="4.82313">
        <ele>235</ele>
        <time>2016-09-20T08:51:22Z</time>
      </trkpt>
      <trkpt lat="45.98935" lon="4.82318">
        <ele>235</ele>
        <time>2016-09-20T08:51:23Z</time>
      </trkpt>
      <trkpt lat="45.9894" lon="4.82323">
        <ele>234</ele>
        <time>2016-09-20T08:51:24Z</time>
      </trkpt>
      <trkpt lat="45.98943" lon="4.82329">
        <ele>234</ele>
        <time>2016-09-20T08:51:25Z</time>
      </trkpt>
      <trkpt lat="45.98947" lon="4.82336">
        <ele>235</ele>
        <time>2016-09-20T08:51:26Z</time>
      </trkpt>
      <trkpt lat="45.98951" lon="4.82342">
        <ele>235</ele>
        <time>2016-09-20T08:51:27Z</time>
      </trkpt>
      <trkpt lat="45.98954" lon="4.82349">
        <ele>235</ele>
        <time>2016-09-20T08:51:28Z</time>
      </trkpt>
      <trkpt lat="45.98957" lon="4.82356">
        <ele>235</ele>
        <time>2016-09-20T08:51:29Z</time>
      </trkpt>
      <trkpt lat="45.9896" lon="4.82363">
        <ele>235</ele>
        <time>2016-09-20T08:51:30Z</time>
      </trkpt>
      <trkpt lat="45.98962" lon="4.8237">
        <ele>235</ele>
        <time>2016-09-20T08:51:31Z</time>
      </trkpt>
      <trkpt lat="45.98963" lon="4.82377">
        <ele>235</ele>
        <time>2016-09-20T08:51:32Z</time>
      </trkpt>
      <trkpt lat="45.98965" lon="4.82383">
        <ele>235</ele>
        <time>2016-09-20T08:51:33Z</time>
      </trkpt>
      <trkpt lat="45.98967" lon="4.8239">
        <ele>235</ele>
        <time>2016-09-20T08:51:34Z</time>
      </trkpt>
      <trkpt lat="45.98968" lon="4.82396">
        <ele>235</ele>
        <time>2016-09-20T08:51:35Z</time>
      </trkpt>
      <trkpt lat="45.9897" lon="4.82402">
        <ele>235</ele>
        <time>2016-09-20T08:51:36Z</time>
      </trkpt>
      <trkpt lat="45.98971" lon="4.82409">
        <ele>235</ele>
        <time>2016-09-20T08:51:37Z</time>
      </trkpt>
      <trkpt lat="45.98972" lon="4.82416">
        <ele>235</ele>
        <time>2016-09-20T08:51:38Z</time>
      </trkpt>
      <trkpt lat="45.98973" lon="4.82423">
        <ele>236</ele>
        <time>2016-09-20T08:51:39Z</time>
      </trkpt>
      <trkpt lat="45.98974" lon="4.82429">
        <ele>236</ele>
        <time>2016-09-20T08:51:40Z</time>
      </trkpt>
      <trkpt lat="45.98976" lon="4.82435">
        <ele>236</ele>
        <time>2016-09-20T08:51:41Z</time>
      </trkpt>
      <trkpt lat="45.98979" lon="4.82441">
        <ele>236</ele>
        <time>2016-09-20T08:51:42Z</time>
      </trkpt>
      <trkpt lat="45.98981" lon="4.82448">
        <ele>236</ele>
        <time>2016-09-20T08:51:43Z</time>
      </trkpt>
      <trkpt lat="45.98983" lon="4.82455">
        <ele>236</ele>
        <time>2016-09-20T08:51:44Z</time>
      </trkpt>
      <trkpt lat="45.98986" lon="4.82462">
        <ele>236</ele>
        <time>2016-09-20T08:51:45Z</time>
      </trkpt>
      <trkpt lat="45.98988" lon="4.8247">
        <ele>236</ele>
        <time>2016-09-20T08:51:46Z</time>
      </trkpt>
      <trkpt lat="45.9899" lon="4.82477">
        <ele>236</ele>
        <time>2016-09-20T08:51:47Z</time>
      </trkpt>
      <trkpt lat="45.98993" lon="4.82484">
        <ele>236</ele>
        <time>2016-09-20T08:51:48Z</time>
      </trkpt>
      <trkpt lat="45.98996" lon="4.82491">
        <ele>236</ele>
        <time>2016-09-20T08:51:49Z</time>
      </trkpt>
      <trkpt lat="45.98998" lon="4.82498">
        <ele>235</ele>
        <time>2016-09-20T08:51:50Z</time>
      </trkpt>
      <trkpt lat="45.99001" lon="4.82503">
        <ele>235</ele>
        <time>2016-09-20T08:51:51Z</time>
      </trkpt>
      <trkpt lat="45.99003" lon="4.82509">
        <ele>235</ele>
        <time>2016-09-20T08:51:52Z</time>
      </trkpt>
      <trkpt lat="45.99006" lon="4.82515">
        <ele>235</ele>
        <time>2016-09-20T08:51:53Z</time>
      </trkpt>
      <trkpt lat="45.99009" lon="4.8252">
        <ele>235</ele>
        <time>2016-09-20T08:51:54Z</time>
      </trkpt>
      <trkpt lat="45.99012" lon="4.82526">
        <ele>235</ele>
        <time>2016-09-20T08:51:55Z</time>
      </trkpt>
      <trkpt lat="45.99016" lon="4.82532">
        <ele>235</ele>
        <time>2016-09-20T08:51:56Z</time>
      </trkpt>
      <trkpt lat="45.99019" lon="4.82537">
        <ele>235</ele>
        <time>2016-09-20T08:51:57Z</time>
      </trkpt>
      <trkpt lat="45.99023" lon="4.82543">
        <ele>235</ele>
        <time>2016-09-20T08:51:58Z</time>
      </trkpt>
      <trkpt lat="45.99027" lon="4.82548">
        <ele>235</ele>
        <time>2016-09-20T08:51:59Z</time>
      </trkpt>
      <trkpt lat="45.99031" lon="4.82553">
        <ele>235</ele>
        <time>2016-09-20T08:52:00Z</time>
      </trkpt>
      <trkpt lat="45.99036" lon="4.82557">
        <ele>235</ele>
        <time>2016-09-20T08:52:01Z</time>
      </trkpt>
      <trkpt lat="45.99041" lon="4.82561">
        <ele>235</ele>
        <time>2016-09-20T08:52:02Z</time>
      </trkpt>
      <trkpt lat="45.99046" lon="4.82564">
        <ele>235</ele>
        <time>2016-09-20T08:52:03Z</time>
      </trkpt>
      <trkpt lat="45.99051" lon="4.82567">
        <ele>235</ele>
        <time>2016-09-20T08:52:04Z</time>
      </trkpt>
      <trkpt lat="45.99056" lon="4.82569">
        <ele>235</ele>
        <time>2016-09-20T08:52:05Z</time>
      </trkpt>
      <trkpt lat="45.99061" lon="4.82571">
        <ele>235</ele>
        <time>2016-09-20T08:52:06Z</time>
      </trkpt>
      <trkpt lat="45.99066" lon="4.82573">
        <ele>235</ele>
        <time>2016-09-20T08:52:07Z</time>
      </trkpt>
      <trkpt lat="45.99074" lon="4.82578">
        <ele>235</ele>
        <time>2016-09-20T08:52:09Z</time>
      </trkpt>
      <trkpt lat="45.99075" lon="4.82581">
        <ele>235</ele>
        <time>2016-09-20T08:52:10Z</time>
      </trkpt>
      <trkpt lat="45.99075" lon="4.82593">
        <ele>235</ele>
        <time>2016-09-20T08:52:13Z</time>
      </trkpt>
      <trkpt lat="45.99073" lon="4.82597">
        <ele>235</ele>
        <time>2016-09-20T08:52:14Z</time>
      </trkpt>
      <trkpt lat="45.99069" lon="4.82605">
        <ele>236</ele>
        <time>2016-09-20T08:52:16Z</time>
      </trkpt>
      <trkpt lat="45.99066" lon="4.82609">
        <ele>236</ele>
        <time>2016-09-20T08:52:17Z</time>
      </trkpt>
      <trkpt lat="45.99062" lon="4.82617">
        <ele>236</ele>
        <time>2016-09-20T08:52:19Z</time>
      </trkpt>
      <trkpt lat="45.9906" lon="4.8262">
        <ele>236</ele>
        <time>2016-09-20T08:52:20Z</time>
      </trkpt>
      <trkpt lat="45.99055" lon="4.82629">
        <ele>236</ele>
        <time>2016-09-20T08:52:22Z</time>
      </trkpt>
      <trkpt lat="45.99053" lon="4.82633">
        <ele>236</ele>
        <time>2016-09-20T08:52:23Z</time>
      </trkpt>
      <trkpt lat="45.99048" lon="4.82642">
        <ele>236</ele>
        <time>2016-09-20T08:52:25Z</time>
      </trkpt>
      <trkpt lat="45.99046" lon="4.82646">
        <ele>236</ele>
        <time>2016-09-20T08:52:26Z</time>
      </trkpt>
      <trkpt lat="45.99041" lon="4.82654">
        <ele>236</ele>
        <time>2016-09-20T08:52:28Z</time>
      </trkpt>
      <trkpt lat="45.99039" lon="4.82659">
        <ele>236</ele>
        <time>2016-09-20T08:52:29Z</time>
      </trkpt>
      <trkpt lat="45.99035" lon="4.82669">
        <ele>238</ele>
        <time>2016-09-20T08:52:31Z</time>
      </trkpt>
      <trkpt lat="45.99034" lon="4.82673">
        <ele>238</ele>
        <time>2016-09-20T08:52:32Z</time>
      </trkpt>
      <trkpt lat="45.9903" lon="4.82681">
        <ele>238</ele>
        <time>2016-09-20T08:52:34Z</time>
      </trkpt>
      <trkpt lat="45.99028" lon="4.82685">
        <ele>238</ele>
        <time>2016-09-20T08:52:35Z</time>
      </trkpt>
      <trkpt lat="45.99024" lon="4.82695">
        <ele>238</ele>
        <time>2016-09-20T08:52:37Z</time>
      </trkpt>
      <trkpt lat="45.99022" lon="4.82699">
        <ele>238</ele>
        <time>2016-09-20T08:52:38Z</time>
      </trkpt>
      <trkpt lat="45.99019" lon="4.82709">
        <ele>239</ele>
        <time>2016-09-20T08:52:40Z</time>
      </trkpt>
      <trkpt lat="45.99017" lon="4.82713">
        <ele>239</ele>
        <time>2016-09-20T08:52:41Z</time>
      </trkpt>
      <trkpt lat="45.99012" lon="4.82722">
        <ele>239</ele>
        <time>2016-09-20T08:52:43Z</time>
      </trkpt>
      <trkpt lat="45.9901" lon="4.82725">
        <ele>239</ele>
        <time>2016-09-20T08:52:44Z</time>
      </trkpt>
      <trkpt lat="45.99007" lon="4.82733">
        <ele>239</ele>
        <time>2016-09-20T08:52:46Z</time>
      </trkpt>
      <trkpt lat="45.99006" lon="4.82738">
        <ele>240</ele>
        <time>2016-09-20T08:52:47Z</time>
      </trkpt>
      <trkpt lat="45.99004" lon="4.82746">
        <ele>240</ele>
        <time>2016-09-20T08:52:49Z</time>
      </trkpt>
      <trkpt lat="45.99002" lon="4.8275">
        <ele>241</ele>
        <time>2016-09-20T08:52:50Z</time>
      </trkpt>
      <trkpt lat="45.98999" lon="4.82758">
        <ele>243</ele>
        <time>2016-09-20T08:52:52Z</time>
      </trkpt>
      <trkpt lat="45.98997" lon="4.82762">
        <ele>244</ele>
        <time>2016-09-20T08:52:53Z</time>
      </trkpt>
      <trkpt lat="45.98992" lon="4.8277">
        <ele>245</ele>
        <time>2016-09-20T08:52:55Z</time>
      </trkpt>
      <trkpt lat="45.98991" lon="4.82774">
        <ele>246</ele>
        <time>2016-09-20T08:52:56Z</time>
      </trkpt>
      <trkpt lat="45.98988" lon="4.82782">
        <ele>247</ele>
        <time>2016-09-20T08:52:58Z</time>
      </trkpt>
      <trkpt lat="45.98986" lon="4.82787">
        <ele>247</ele>
        <time>2016-09-20T08:52:59Z</time>
      </trkpt>
      <trkpt lat="45.98982" lon="4.82795">
        <ele>248</ele>
        <time>2016-09-20T08:53:01Z</time>
      </trkpt>
      <trkpt lat="45.9898" lon="4.82799">
        <ele>248</ele>
        <time>2016-09-20T08:53:02Z</time>
      </trkpt>
      <trkpt lat="45.98978" lon="4.82807">
        <ele>248</ele>
        <time>2016-09-20T08:53:04Z</time>
      </trkpt>
      <trkpt lat="45.98976" lon="4.8281">
        <ele>248</ele>
        <time>2016-09-20T08:53:05Z</time>
      </trkpt>
      <trkpt lat="45.98973" lon="4.8282">
        <ele>249</ele>
        <time>2016-09-20T08:53:08Z</time>
      </trkpt>
      <trkpt lat="45.98971" lon="4.82823">
        <ele>249</ele>
        <time>2016-09-20T08:53:09Z</time>
      </trkpt>
      <trkpt lat="45.98968" lon="4.82833">
        <ele>249</ele>
        <time>2016-09-20T08:53:12Z</time>
      </trkpt>
      <trkpt lat="45.98967" lon="4.82837">
        <ele>252</ele>
        <time>2016-09-20T08:53:13Z</time>
      </trkpt>
      <trkpt lat="45.98962" lon="4.82847">
        <ele>252</ele>
        <time>2016-09-20T08:53:16Z</time>
      </trkpt>
      <trkpt lat="45.9896" lon="4.8285">
        <ele>252</ele>
        <time>2016-09-20T08:53:17Z</time>
      </trkpt>
      <trkpt lat="45.98955" lon="4.8286">
        <ele>252</ele>
        <time>2016-09-20T08:53:20Z</time>
      </trkpt>
      <trkpt lat="45.98954" lon="4.82862">
        <ele>252</ele>
        <time>2016-09-20T08:53:21Z</time>
      </trkpt>
      <trkpt lat="45.98951" lon="4.82872">
        <ele>253</ele>
        <time>2016-09-20T08:53:24Z</time>
      </trkpt>
      <trkpt lat="45.98949" lon="4.82875">
        <ele>253</ele>
        <time>2016-09-20T08:53:25Z</time>
      </trkpt>
      <trkpt lat="45.98944" lon="4.82884">
        <ele>253</ele>
        <time>2016-09-20T08:53:28Z</time>
      </trkpt>
      <trkpt lat="45.98943" lon="4.82888">
        <ele>253</ele>
        <time>2016-09-20T08:53:29Z</time>
      </trkpt>
      <trkpt lat="45.98938" lon="4.82898">
        <ele>253</ele>
        <time>2016-09-20T08:53:32Z</time>
      </trkpt>
      <trkpt lat="45.98936" lon="4.82901">
        <ele>254</ele>
        <time>2016-09-20T08:53:33Z</time>
      </trkpt>
      <trkpt lat="45.98932" lon="4.8291">
        <ele>254</ele>
        <time>2016-09-20T08:53:36Z</time>
      </trkpt>
      <trkpt lat="45.98931" lon="4.82913">
        <ele>254</ele>
        <time>2016-09-20T08:53:37Z</time>
      </trkpt>
      <trkpt lat="45.98928" lon="4.82924">
        <ele>255</ele>
        <time>2016-09-20T08:53:40Z</time>
      </trkpt>
      <trkpt lat="45.98927" lon="4.82927">
        <ele>255</ele>
        <time>2016-09-20T08:53:41Z</time>
      </trkpt>
      <trkpt lat="45.98923" lon="4.82937">
        <ele>255</ele>
        <time>2016-09-20T08:53:44Z</time>
      </trkpt>
      <trkpt lat="45.98921" lon="4.8294">
        <ele>255</ele>
        <time>2016-09-20T08:53:45Z</time>
      </trkpt>
      <trkpt lat="45.98916" lon="4.8295">
        <ele>258</ele>
        <time>2016-09-20T08:53:48Z</time>
      </trkpt>
      <trkpt lat="45.98914" lon="4.82953">
        <ele>258</ele>
        <time>2016-09-20T08:53:49Z</time>
      </trkpt>
      <trkpt lat="45.98911" lon="4.82961">
        <ele>258</ele>
        <time>2016-09-20T08:53:51Z</time>
      </trkpt>
      <trkpt lat="45.98909" lon="4.82964">
        <ele>259</ele>
        <time>2016-09-20T08:53:52Z</time>
      </trkpt>
      <trkpt lat="45.98904" lon="4.8297">
        <ele>259</ele>
        <time>2016-09-20T08:53:54Z</time>
      </trkpt>
      <trkpt lat="45.98902" lon="4.82972">
        <ele>259</ele>
        <time>2016-09-20T08:53:55Z</time>
      </trkpt>
      <trkpt lat="45.98896" lon="4.82979">
        <ele>259</ele>
        <time>2016-09-20T08:53:58Z</time>
      </trkpt>
      <trkpt lat="45.98894" lon="4.82981">
        <ele>259</ele>
        <time>2016-09-20T08:53:59Z</time>
      </trkpt>
      <trkpt lat="45.98887" lon="4.82987">
        <ele>259</ele>
        <time>2016-09-20T08:54:02Z</time>
      </trkpt>
      <trkpt lat="45.98885" lon="4.82989">
        <ele>259</ele>
        <time>2016-09-20T08:54:03Z</time>
      </trkpt>
      <trkpt lat="45.98878" lon="4.82992">
        <ele>260</ele>
        <time>2016-09-20T08:54:06Z</time>
      </trkpt>
      <trkpt lat="45.98876" lon="4.82994">
        <ele>260</ele>
        <time>2016-09-20T08:54:07Z</time>
      </trkpt>
      <trkpt lat="45.9887" lon="4.83">
        <ele>260</ele>
        <time>2016-09-20T08:54:10Z</time>
      </trkpt>
      <trkpt lat="45.98867" lon="4.83002">
        <ele>260</ele>
        <time>2016-09-20T08:54:11Z</time>
      </trkpt>
      <trkpt lat="45.98861" lon="4.83006">
        <ele>260</ele>
        <time>2016-09-20T08:54:14Z</time>
      </trkpt>
      <trkpt lat="45.98859" lon="4.83008">
        <ele>261</ele>
        <time>2016-09-20T08:54:15Z</time>
      </trkpt>
      <trkpt lat="45.98852" lon="4.83015">
        <ele>261</ele>
        <time>2016-09-20T08:54:19Z</time>
      </trkpt>
      <trkpt lat="45.9885" lon="4.83016">
        <ele>261</ele>
        <time>2016-09-20T08:54:20Z</time>
      </trkpt>
      <trkpt lat="45.98843" lon="4.83022">
        <ele>261</ele>
        <time>2016-09-20T08:54:23Z</time>
      </trkpt>
      <trkpt lat="45.9884" lon="4.83024">
        <ele>261</ele>
        <time>2016-09-20T08:54:24Z</time>
      </trkpt>
      <trkpt lat="45.98834" lon="4.83029">
        <ele>261</ele>
        <time>2016-09-20T08:54:27Z</time>
      </trkpt>
      <trkpt lat="45.9883" lon="4.83031">
        <ele>264</ele>
        <time>2016-09-20T08:54:28Z</time>
      </trkpt>
      <trkpt lat="45.98822" lon="4.83036">
        <ele>264</ele>
        <time>2016-09-20T08:54:31Z</time>
      </trkpt>
      <trkpt lat="45.98819" lon="4.83037">
        <ele>264</ele>
        <time>2016-09-20T08:54:32Z</time>
      </trkpt>
      <trkpt lat="45.98814" lon="4.83042">
        <ele>264</ele>
        <time>2016-09-20T08:54:34Z</time>
      </trkpt>
      <trkpt lat="45.98811" lon="4.83044">
        <ele>264</ele>
        <time>2016-09-20T08:54:35Z</time>
      </trkpt>
      <trkpt lat="45.98805" lon="4.83047">
        <ele>264</ele>
        <time>2016-09-20T08:54:37Z</time>
      </trkpt>
      <trkpt lat="45.98802" lon="4.8305">
        <ele>264</ele>
        <time>2016-09-20T08:54:38Z</time>
      </trkpt>
      <trkpt lat="45.98797" lon="4.83054">
        <ele>264</ele>
        <time>2016-09-20T08:54:40Z</time>
      </trkpt>
      <trkpt lat="45.98794" lon="4.83057">
        <ele>265</ele>
        <time>2016-09-20T08:54:41Z</time>
      </trkpt>
      <trkpt lat="45.98789" lon="4.83061">
        <ele>265</ele>
        <time>2016-09-20T08:54:43Z</time>
      </trkpt>
      <trkpt lat="45.98786" lon="4.83063">
        <ele>265</ele>
        <time>2016-09-20T08:54:44Z</time>
      </trkpt>
      <trkpt lat="45.98781" lon="4.83068">
        <ele>265</ele>
        <time>2016-09-20T08:54:46Z</time>
      </trkpt>
      <trkpt lat="45.98778" lon="4.8307">
        <ele>265</ele>
        <time>2016-09-20T08:54:47Z</time>
      </trkpt>
      <trkpt lat="45.98772" lon="4.83074">
        <ele>265</ele>
        <time>2016-09-20T08:54:49Z</time>
      </trkpt>
      <trkpt lat="45.9877" lon="4.83077">
        <ele>266</ele>
        <time>2016-09-20T08:54:50Z</time>
      </trkpt>
      <trkpt lat="45.98763" lon="4.83084">
        <ele>266</ele>
        <time>2016-09-20T08:54:53Z</time>
      </trkpt>
      <trkpt lat="45.9876" lon="4.83087">
        <ele>266</ele>
        <time>2016-09-20T08:54:54Z</time>
      </trkpt>
      <trkpt lat="45.98755" lon="4.83091">
        <ele>266</ele>
        <time>2016-09-20T08:54:56Z</time>
      </trkpt>
      <trkpt lat="45.98752" lon="4.83093">
        <ele>266</ele>
        <time>2016-09-20T08:54:57Z</time>
      </trkpt>
      <trkpt lat="45.98747" lon="4.83099">
        <ele>267</ele>
        <time>2016-09-20T08:54:59Z</time>
      </trkpt>
      <trkpt lat="45.98744" lon="4.83101">
        <ele>267</ele>
        <time>2016-09-20T08:55:00Z</time>
      </trkpt>
      <trkpt lat="45.98737" lon="4.83105">
        <ele>267</ele>
        <time>2016-09-20T08:55:02Z</time>
      </trkpt>
      <trkpt lat="45.98735" lon="4.83108">
        <ele>267</ele>
        <time>2016-09-20T08:55:03Z</time>
      </trkpt>
      <trkpt lat="45.9873" lon="4.83112">
        <ele>267</ele>
        <time>2016-09-20T08:55:05Z</time>
      </trkpt>
      <trkpt lat="45.98727" lon="4.83115">
        <ele>267</ele>
        <time>2016-09-20T08:55:06Z</time>
      </trkpt>
      <trkpt lat="45.98722" lon="4.8312">
        <ele>266</ele>
        <time>2016-09-20T08:55:08Z</time>
      </trkpt>
      <trkpt lat="45.98718" lon="4.83122">
        <ele>266</ele>
        <time>2016-09-20T08:55:09Z</time>
      </trkpt>
      <trkpt lat="45.98711" lon="4.83128">
        <ele>266</ele>
        <time>2016-09-20T08:55:11Z</time>
      </trkpt>
      <trkpt lat="45.98707" lon="4.8313">
        <ele>266</ele>
        <time>2016-09-20T08:55:12Z</time>
      </trkpt>
      <trkpt lat="45.98701" lon="4.83135">
        <ele>266</ele>
        <time>2016-09-20T08:55:14Z</time>
      </trkpt>
      <trkpt lat="45.98698" lon="4.83138">
        <ele>266</ele>
        <time>2016-09-20T08:55:15Z</time>
      </trkpt>
      <trkpt lat="45.98691" lon="4.83144">
        <ele>266</ele>
        <time>2016-09-20T08:55:17Z</time>
      </trkpt>
      <trkpt lat="45.98687" lon="4.83146">
        <ele>266</ele>
        <time>2016-09-20T08:55:18Z</time>
      </trkpt>
      <trkpt lat="45.9868" lon="4.83151">
        <ele>266</ele>
        <time>2016-09-20T08:55:20Z</time>
      </trkpt>
      <trkpt lat="45.98677" lon="4.83154">
        <ele>266</ele>
        <time>2016-09-20T08:55:21Z</time>
      </trkpt>
      <trkpt lat="45.98671" lon="4.83158">
        <ele>266</ele>
        <time>2016-09-20T08:55:23Z</time>
      </trkpt>
      <trkpt lat="45.98668" lon="4.83161">
        <ele>266</ele>
        <time>2016-09-20T08:55:24Z</time>
      </trkpt>
      <trkpt lat="45.98661" lon="4.83165">
        <ele>266</ele>
        <time>2016-09-20T08:55:26Z</time>
      </trkpt>
      <trkpt lat="45.98658" lon="4.83167">
        <ele>266</ele>
        <time>2016-09-20T08:55:27Z</time>
      </trkpt>
      <trkpt lat="45.98651" lon="4.83172">
        <ele>267</ele>
        <time>2016-09-20T08:55:29Z</time>
      </trkpt>
      <trkpt lat="45.98648" lon="4.83175">
        <ele>267</ele>
        <time>2016-09-20T08:55:30Z</time>
      </trkpt>
      <trkpt lat="45.9864" lon="4.8318">
        <ele>267</ele>
        <time>2016-09-20T08:55:32Z</time>
      </trkpt>
      <trkpt lat="45.98637" lon="4.83184">
        <ele>267</ele>
        <time>2016-09-20T08:55:33Z</time>
      </trkpt>
      <trkpt lat="45.9863" lon="4.83192">
        <ele>267</ele>
        <time>2016-09-20T08:55:35Z</time>
      </trkpt>
      <trkpt lat="45.98627" lon="4.83196">
        <ele>267</ele>
        <time>2016-09-20T08:55:36Z</time>
      </trkpt>
      <trkpt lat="45.9862" lon="4.83203">
        <ele>267</ele>
        <time>2016-09-20T08:55:38Z</time>
      </trkpt>
      <trkpt lat="45.98617" lon="4.83207">
        <ele>267</ele>
        <time>2016-09-20T08:55:39Z</time>
      </trkpt>
      <trkpt lat="45.98613" lon="4.83212">
        <ele>267</ele>
        <time>2016-09-20T08:55:40Z</time>
      </trkpt>
      <trkpt lat="45.9861" lon="4.83216">
        <ele>267</ele>
        <time>2016-09-20T08:55:41Z</time>
      </trkpt>
      <trkpt lat="45.98604" lon="4.83225">
        <ele>267</ele>
        <time>2016-09-20T08:55:43Z</time>
      </trkpt>
      <trkpt lat="45.986" lon="4.83229">
        <ele>268</ele>
        <time>2016-09-20T08:55:44Z</time>
      </trkpt>
      <trkpt lat="45.98594" lon="4.83238">
        <ele>268</ele>
        <time>2016-09-20T08:55:46Z</time>
      </trkpt>
      <trkpt lat="45.98591" lon="4.83243">
        <ele>268</ele>
        <time>2016-09-20T08:55:47Z</time>
      </trkpt>
      <trkpt lat="45.98587" lon="4.83247">
        <ele>268</ele>
        <time>2016-09-20T08:55:48Z</time>
      </trkpt>
      <trkpt lat="45.98584" lon="4.83252">
        <ele>268</ele>
        <time>2016-09-20T08:55:49Z</time>
      </trkpt>
      <trkpt lat="45.9858" lon="4.83256">
        <ele>268</ele>
        <time>2016-09-20T08:55:50Z</time>
      </trkpt>
      <trkpt lat="45.98577" lon="4.83261">
        <ele>268</ele>
        <time>2016-09-20T08:55:51Z</time>
      </trkpt>
      <trkpt lat="45.9857" lon="4.83269">
        <ele>269</ele>
        <time>2016-09-20T08:55:53Z</time>
      </trkpt>
      <trkpt lat="45.98567" lon="4.83273">
        <ele>269</ele>
        <time>2016-09-20T08:55:54Z</time>
      </trkpt>
      <trkpt lat="45.98564" lon="4.83279">
        <ele>269</ele>
        <time>2016-09-20T08:55:55Z</time>
      </trkpt>
      <trkpt lat="45.9856" lon="4.83284">
        <ele>269</ele>
        <time>2016-09-20T08:55:56Z</time>
      </trkpt>
      <trkpt lat="45.98556" lon="4.83288">
        <ele>269</ele>
        <time>2016-09-20T08:55:57Z</time>
      </trkpt>
      <trkpt lat="45.98553" lon="4.83293">
        <ele>269</ele>
        <time>2016-09-20T08:55:58Z</time>
      </trkpt>
      <trkpt lat="45.98549" lon="4.83299">
        <ele>269</ele>
        <time>2016-09-20T08:55:59Z</time>
      </trkpt>
      <trkpt lat="45.98545" lon="4.83304">
        <ele>269</ele>
        <time>2016-09-20T08:56:00Z</time>
      </trkpt>
      <trkpt lat="45.98541" lon="4.83309">
        <ele>269</ele>
        <time>2016-09-20T08:56:01Z</time>
      </trkpt>
      <trkpt lat="45.98537" lon="4.83314">
        <ele>269</ele>
        <time>2016-09-20T08:56:02Z</time>
      </trkpt>
      <trkpt lat="45.98533" lon="4.83319">
        <ele>269</ele>
        <time>2016-09-20T08:56:03Z</time>
      </trkpt>
      <trkpt lat="45.98529" lon="4.83325">
        <ele>269</ele>
        <time>2016-09-20T08:56:04Z</time>
      </trkpt>
      <trkpt lat="45.98525" lon="4.83331">
        <ele>270</ele>
        <time>2016-09-20T08:56:05Z</time>
      </trkpt>
      <trkpt lat="45.98521" lon="4.83336">
        <ele>270</ele>
        <time>2016-09-20T08:56:06Z</time>
      </trkpt>
      <trkpt lat="45.98518" lon="4.83342">
        <ele>270</ele>
        <time>2016-09-20T08:56:07Z</time>
      </trkpt>
      <trkpt lat="45.98514" lon="4.83347">
        <ele>270</ele>
        <time>2016-09-20T08:56:08Z</time>
      </trkpt>
      <trkpt lat="45.9851" lon="4.83352">
        <ele>270</ele>
        <time>2016-09-20T08:56:09Z</time>
      </trkpt>
      <trkpt lat="45.98505" lon="4.83357">
        <ele>270</ele>
        <time>2016-09-20T08:56:10Z</time>
      </trkpt>
      <trkpt lat="45.98501" lon="4.83362">
        <ele>269</ele>
        <time>2016-09-20T08:56:11Z</time>
      </trkpt>
      <trkpt lat="45.98497" lon="4.83368">
        <ele>270</ele>
        <time>2016-09-20T08:56:12Z</time>
      </trkpt>
      <trkpt lat="45.98493" lon="4.83374">
        <ele>270</ele>
        <time>2016-09-20T08:56:13Z</time>
      </trkpt>
      <trkpt lat="45.98489" lon="4.8338">
        <ele>269</ele>
        <time>2016-09-20T08:56:14Z</time>
      </trkpt>
      <trkpt lat="45.98484" lon="4.83386">
        <ele>269</ele>
        <time>2016-09-20T08:56:15Z</time>
      </trkpt>
      <trkpt lat="45.9848" lon="4.83392">
        <ele>269</ele>
        <time>2016-09-20T08:56:16Z</time>
      </trkpt>
      <trkpt lat="45.98476" lon="4.83398">
        <ele>269</ele>
        <time>2016-09-20T08:56:17Z</time>
      </trkpt>
      <trkpt lat="45.98471" lon="4.83404">
        <ele>269</ele>
        <time>2016-09-20T08:56:18Z</time>
      </trkpt>
      <trkpt lat="45.98467" lon="4.83409">
        <ele>269</ele>
        <time>2016-09-20T08:56:19Z</time>
      </trkpt>
      <trkpt lat="45.98462" lon="4.83415">
        <ele>269</ele>
        <time>2016-09-20T08:56:20Z</time>
      </trkpt>
      <trkpt lat="45.98458" lon="4.83421">
        <ele>269</ele>
        <time>2016-09-20T08:56:21Z</time>
      </trkpt>
      <trkpt lat="45.98455" lon="4.83428">
        <ele>268</ele>
        <time>2016-09-20T08:56:22Z</time>
      </trkpt>
      <trkpt lat="45.98451" lon="4.83433">
        <ele>268</ele>
        <time>2016-09-20T08:56:23Z</time>
      </trkpt>
      <trkpt lat="45.98447" lon="4.83438">
        <ele>268</ele>
        <time>2016-09-20T08:56:24Z</time>
      </trkpt>
      <trkpt lat="45.98443" lon="4.83444">
        <ele>268</ele>
        <time>2016-09-20T08:56:25Z</time>
      </trkpt>
      <trkpt lat="45.98439" lon="4.83449">
        <ele>268</ele>
        <time>2016-09-20T08:56:26Z</time>
      </trkpt>
      <trkpt lat="45.98435" lon="4.83455">
        <ele>268</ele>
        <time>2016-09-20T08:56:27Z</time>
      </trkpt>
      <trkpt lat="45.98431" lon="4.83461">
        <ele>268</ele>
        <time>2016-09-20T08:56:28Z</time>
      </trkpt>
      <trkpt lat="45.98427" lon="4.83467">
        <ele>268</ele>
        <time>2016-09-20T08:56:29Z</time>
      </trkpt>
      <trkpt lat="45.98423" lon="4.83472">
        <ele>268</ele>
        <time>2016-09-20T08:56:30Z</time>
      </trkpt>
      <trkpt lat="45.98419" lon="4.83477">
        <ele>268</ele>
        <time>2016-09-20T08:56:31Z</time>
      </trkpt>
      <trkpt lat="45.98415" lon="4.83482">
        <ele>269</ele>
        <time>2016-09-20T08:56:32Z</time>
      </trkpt>
      <trkpt lat="45.98411" lon="4.83488">
        <ele>269</ele>
        <time>2016-09-20T08:56:33Z</time>
      </trkpt>
      <trkpt lat="45.98406" lon="4.83494">
        <ele>269</ele>
        <time>2016-09-20T08:56:34Z</time>
      </trkpt>
      <trkpt lat="45.98402" lon="4.835">
        <ele>269</ele>
        <time>2016-09-20T08:56:35Z</time>
      </trkpt>
      <trkpt lat="45.98398" lon="4.83505">
        <ele>269</ele>
        <time>2016-09-20T08:56:36Z</time>
      </trkpt>
      <trkpt lat="45.98394" lon="4.8351">
        <ele>269</ele>
        <time>2016-09-20T08:56:37Z</time>
      </trkpt>
      <trkpt lat="45.9839" lon="4.83514">
        <ele>269</ele>
        <time>2016-09-20T08:56:38Z</time>
      </trkpt>
      <trkpt lat="45.98386" lon="4.83518">
        <ele>269</ele>
        <time>2016-09-20T08:56:39Z</time>
      </trkpt>
      <trkpt lat="45.98383" lon="4.83524">
        <ele>269</ele>
        <time>2016-09-20T08:56:40Z</time>
      </trkpt>
      <trkpt lat="45.98379" lon="4.83529">
        <ele>269</ele>
        <time>2016-09-20T08:56:41Z</time>
      </trkpt>
      <trkpt lat="45.98375" lon="4.83535">
        <ele>269</ele>
        <time>2016-09-20T08:56:42Z</time>
      </trkpt>
      <trkpt lat="45.98372" lon="4.8354">
        <ele>269</ele>
        <time>2016-09-20T08:56:43Z</time>
      </trkpt>
      <trkpt lat="45.98368" lon="4.83546">
        <ele>269</ele>
        <time>2016-09-20T08:56:44Z</time>
      </trkpt>
      <trkpt lat="45.98363" lon="4.83552">
        <ele>269</ele>
        <time>2016-09-20T08:56:45Z</time>
      </trkpt>
      <trkpt lat="45.98359" lon="4.83558">
        <ele>269</ele>
        <time>2016-09-20T08:56:46Z</time>
      </trkpt>
      <trkpt lat="45.98354" lon="4.83565">
        <ele>269</ele>
        <time>2016-09-20T08:56:47Z</time>
      </trkpt>
      <trkpt lat="45.9835" lon="4.83571">
        <ele>269</ele>
        <time>2016-09-20T08:56:48Z</time>
      </trkpt>
      <trkpt lat="45.98345" lon="4.83577">
        <ele>270</ele>
        <time>2016-09-20T08:56:49Z</time>
      </trkpt>
      <trkpt lat="45.98341" lon="4.83583">
        <ele>270</ele>
        <time>2016-09-20T08:56:50Z</time>
      </trkpt>
      <trkpt lat="45.98337" lon="4.83588">
        <ele>270</ele>
        <time>2016-09-20T08:56:51Z</time>
      </trkpt>
      <trkpt lat="45.98333" lon="4.83593">
        <ele>270</ele>
        <time>2016-09-20T08:56:52Z</time>
      </trkpt>
      <trkpt lat="45.9833" lon="4.83598">
        <ele>271</ele>
        <time>2016-09-20T08:56:53Z</time>
      </trkpt>
      <trkpt lat="45.98326" lon="4.83602">
        <ele>271</ele>
        <time>2016-09-20T08:56:54Z</time>
      </trkpt>
      <trkpt lat="45.98321" lon="4.83611">
        <ele>271</ele>
        <time>2016-09-20T08:56:56Z</time>
      </trkpt>
      <trkpt lat="45.98318" lon="4.83617">
        <ele>271</ele>
        <time>2016-09-20T08:56:57Z</time>
      </trkpt>
      <trkpt lat="45.98315" lon="4.83622">
        <ele>271</ele>
        <time>2016-09-20T08:56:58Z</time>
      </trkpt>
      <trkpt lat="45.98312" lon="4.83628">
        <ele>271</ele>
        <time>2016-09-20T08:56:59Z</time>
      </trkpt>
      <trkpt lat="45.98308" lon="4.83634">
        <ele>271</ele>
        <time>2016-09-20T08:57:00Z</time>
      </trkpt>
      <trkpt lat="45.98304" lon="4.8364">
        <ele>271</ele>
        <time>2016-09-20T08:57:01Z</time>
      </trkpt>
      <trkpt lat="45.98301" lon="4.83647">
        <ele>271</ele>
        <time>2016-09-20T08:57:02Z</time>
      </trkpt>
      <trkpt lat="45.98298" lon="4.83654">
        <ele>271</ele>
        <time>2016-09-20T08:57:03Z</time>
      </trkpt>
      <trkpt lat="45.98295" lon="4.8366">
        <ele>271</ele>
        <time>2016-09-20T08:57:04Z</time>
      </trkpt>
      <trkpt lat="45.98292" lon="4.83666">
        <ele>272</ele>
        <time>2016-09-20T08:57:05Z</time>
      </trkpt>
      <trkpt lat="45.9829" lon="4.83672">
        <ele>272</ele>
        <time>2016-09-20T08:57:06Z</time>
      </trkpt>
      <trkpt lat="45.98288" lon="4.83679">
        <ele>272</ele>
        <time>2016-09-20T08:57:07Z</time>
      </trkpt>
      <trkpt lat="45.98286" lon="4.83686">
        <ele>272</ele>
        <time>2016-09-20T08:57:08Z</time>
      </trkpt>
      <trkpt lat="45.98283" lon="4.83692">
        <ele>272</ele>
        <time>2016-09-20T08:57:09Z</time>
      </trkpt>
      <trkpt lat="45.98281" lon="4.83698">
        <ele>272</ele>
        <time>2016-09-20T08:57:10Z</time>
      </trkpt>
      <trkpt lat="45.98278" lon="4.83704">
        <ele>272</ele>
        <time>2016-09-20T08:57:11Z</time>
      </trkpt>
      <trkpt lat="45.98276" lon="4.8371">
        <ele>272</ele>
        <time>2016-09-20T08:57:12Z</time>
      </trkpt>
      <trkpt lat="45.98274" lon="4.83717">
        <ele>272</ele>
        <time>2016-09-20T08:57:13Z</time>
      </trkpt>
      <trkpt lat="45.98272" lon="4.83723">
        <ele>272</ele>
        <time>2016-09-20T08:57:14Z</time>
      </trkpt>
      <trkpt lat="45.98269" lon="4.8373">
        <ele>272</ele>
        <time>2016-09-20T08:57:15Z</time>
      </trkpt>
      <trkpt lat="45.98267" lon="4.83736">
        <ele>272</ele>
        <time>2016-09-20T08:57:16Z</time>
      </trkpt>
      <trkpt lat="45.98265" lon="4.83743">
        <ele>272</ele>
        <time>2016-09-20T08:57:17Z</time>
      </trkpt>
      <trkpt lat="45.98263" lon="4.8375">
        <ele>272</ele>
        <time>2016-09-20T08:57:18Z</time>
      </trkpt>
      <trkpt lat="45.9826" lon="4.83756">
        <ele>272</ele>
        <time>2016-09-20T08:57:19Z</time>
      </trkpt>
      <trkpt lat="45.98258" lon="4.83763">
        <ele>272</ele>
        <time>2016-09-20T08:57:20Z</time>
      </trkpt>
      <trkpt lat="45.98255" lon="4.8377">
        <ele>272</ele>
        <time>2016-09-20T08:57:21Z</time>
      </trkpt>
      <trkpt lat="45.98253" lon="4.83777">
        <ele>272</ele>
        <time>2016-09-20T08:57:22Z</time>
      </trkpt>
      <trkpt lat="45.9825" lon="4.83784">
        <ele>272</ele>
        <time>2016-09-20T08:57:23Z</time>
      </trkpt>
      <trkpt lat="45.98247" lon="4.8379">
        <ele>272</ele>
        <time>2016-09-20T08:57:24Z</time>
      </trkpt>
      <trkpt lat="45.98245" lon="4.83797">
        <ele>272</ele>
        <time>2016-09-20T08:57:25Z</time>
      </trkpt>
      <trkpt lat="45.98243" lon="4.83803">
        <ele>272</ele>
        <time>2016-09-20T08:57:26Z</time>
      </trkpt>
      <trkpt lat="45.98241" lon="4.8381">
        <ele>272</ele>
        <time>2016-09-20T08:57:27Z</time>
      </trkpt>
      <trkpt lat="45.98239" lon="4.83815">
        <ele>272</ele>
        <time>2016-09-20T08:57:28Z</time>
      </trkpt>
      <trkpt lat="45.98237" lon="4.83821">
        <ele>272</ele>
        <time>2016-09-20T08:57:29Z</time>
      </trkpt>
      <trkpt lat="45.98235" lon="4.83827">
        <ele>272</ele>
        <time>2016-09-20T08:57:30Z</time>
      </trkpt>
      <trkpt lat="45.98233" lon="4.83833">
        <ele>272</ele>
        <time>2016-09-20T08:57:31Z</time>
      </trkpt>
      <trkpt lat="45.98232" lon="4.83839">
        <ele>272</ele>
        <time>2016-09-20T08:57:32Z</time>
      </trkpt>
      <trkpt lat="45.9823" lon="4.83846">
        <ele>272</ele>
        <time>2016-09-20T08:57:33Z</time>
      </trkpt>
      <trkpt lat="45.98228" lon="4.83852">
        <ele>272</ele>
        <time>2016-09-20T08:57:34Z</time>
      </trkpt>
      <trkpt lat="45.98225" lon="4.83858">
        <ele>272</ele>
        <time>2016-09-20T08:57:35Z</time>
      </trkpt>
      <trkpt lat="45.98223" lon="4.83864">
        <ele>272</ele>
        <time>2016-09-20T08:57:36Z</time>
      </trkpt>
      <trkpt lat="45.98221" lon="4.8387">
        <ele>272</ele>
        <time>2016-09-20T08:57:37Z</time>
      </trkpt>
      <trkpt lat="45.98219" lon="4.83877">
        <ele>272</ele>
        <time>2016-09-20T08:57:38Z</time>
      </trkpt>
      <trkpt lat="45.98216" lon="4.83882">
        <ele>272</ele>
        <time>2016-09-20T08:57:39Z</time>
      </trkpt>
      <trkpt lat="45.98213" lon="4.83888">
        <ele>273</ele>
        <time>2016-09-20T08:57:40Z</time>
      </trkpt>
      <trkpt lat="45.98211" lon="4.83895">
        <ele>273</ele>
        <time>2016-09-20T08:57:41Z</time>
      </trkpt>
      <trkpt lat="45.98209" lon="4.83902">
        <ele>273</ele>
        <time>2016-09-20T08:57:42Z</time>
      </trkpt>
      <trkpt lat="45.98207" lon="4.83909">
        <ele>273</ele>
        <time>2016-09-20T08:57:43Z</time>
      </trkpt>
      <trkpt lat="45.98205" lon="4.83915">
        <ele>273</ele>
        <time>2016-09-20T08:57:44Z</time>
      </trkpt>
      <trkpt lat="45.98202" lon="4.83922">
        <ele>273</ele>
        <time>2016-09-20T08:57:45Z</time>
      </trkpt>
      <trkpt lat="45.98199" lon="4.83929">
        <ele>273</ele>
        <time>2016-09-20T08:57:46Z</time>
      </trkpt>
      <trkpt lat="45.98197" lon="4.83937">
        <ele>273</ele>
        <time>2016-09-20T08:57:47Z</time>
      </trkpt>
      <trkpt lat="45.98194" lon="4.83944">
        <ele>273</ele>
        <time>2016-09-20T08:57:48Z</time>
      </trkpt>
      <trkpt lat="45.98192" lon="4.83952">
        <ele>273</ele>
        <time>2016-09-20T08:57:49Z</time>
      </trkpt>
      <trkpt lat="45.98189" lon="4.83959">
        <ele>273</ele>
        <time>2016-09-20T08:57:50Z</time>
      </trkpt>
      <trkpt lat="45.98187" lon="4.83966">
        <ele>273</ele>
        <time>2016-09-20T08:57:51Z</time>
      </trkpt>
      <trkpt lat="45.98185" lon="4.83973">
        <ele>273</ele>
        <time>2016-09-20T08:57:52Z</time>
      </trkpt>
      <trkpt lat="45.98182" lon="4.8398">
        <ele>273</ele>
        <time>2016-09-20T08:57:53Z</time>
      </trkpt>
      <trkpt lat="45.98179" lon="4.83987">
        <ele>273</ele>
        <time>2016-09-20T08:57:54Z</time>
      </trkpt>
      <trkpt lat="45.98176" lon="4.83994">
        <ele>273</ele>
        <time>2016-09-20T08:57:55Z</time>
      </trkpt>
      <trkpt lat="45.98174" lon="4.84">
        <ele>273</ele>
        <time>2016-09-20T08:57:56Z</time>
      </trkpt>
      <trkpt lat="45.98171" lon="4.84007">
        <ele>273</ele>
        <time>2016-09-20T08:57:57Z</time>
      </trkpt>
      <trkpt lat="45.98168" lon="4.84013">
        <ele>273</ele>
        <time>2016-09-20T08:57:58Z</time>
      </trkpt>
      <trkpt lat="45.98164" lon="4.84019">
        <ele>273</ele>
        <time>2016-09-20T08:57:59Z</time>
      </trkpt>
      <trkpt lat="45.98161" lon="4.84025">
        <ele>273</ele>
        <time>2016-09-20T08:58:00Z</time>
      </trkpt>
      <trkpt lat="45.98158" lon="4.84031">
        <ele>273</ele>
        <time>2016-09-20T08:58:01Z</time>
      </trkpt>
      <trkpt lat="45.98154" lon="4.84037">
        <ele>273</ele>
        <time>2016-09-20T08:58:02Z</time>
      </trkpt>
      <trkpt lat="45.98151" lon="4.84042">
        <ele>273</ele>
        <time>2016-09-20T08:58:03Z</time>
      </trkpt>
      <trkpt lat="45.98147" lon="4.84048">
        <ele>273</ele>
        <time>2016-09-20T08:58:04Z</time>
      </trkpt>
      <trkpt lat="45.98143" lon="4.84053">
        <ele>273</ele>
        <time>2016-09-20T08:58:05Z</time>
      </trkpt>
      <trkpt lat="45.98139" lon="4.84059">
        <ele>273</ele>
        <time>2016-09-20T08:58:06Z</time>
      </trkpt>
      <trkpt lat="45.98135" lon="4.84064">
        <ele>273</ele>
        <time>2016-09-20T08:58:07Z</time>
      </trkpt>
      <trkpt lat="45.98131" lon="4.8407">
        <ele>273</ele>
        <time>2016-09-20T08:58:08Z</time>
      </trkpt>
      <trkpt lat="45.98127" lon="4.84074">
        <ele>273</ele>
        <time>2016-09-20T08:58:09Z</time>
      </trkpt>
      <trkpt lat="45.98123" lon="4.84078">
        <ele>273</ele>
        <time>2016-09-20T08:58:10Z</time>
      </trkpt>
      <trkpt lat="45.98119" lon="4.84083">
        <ele>273</ele>
        <time>2016-09-20T08:58:11Z</time>
      </trkpt>
      <trkpt lat="45.98115" lon="4.84088">
        <ele>273</ele>
        <time>2016-09-20T08:58:12Z</time>
      </trkpt>
      <trkpt lat="45.9811" lon="4.84093">
        <ele>273</ele>
        <time>2016-09-20T08:58:13Z</time>
      </trkpt>
      <trkpt lat="45.98106" lon="4.84097">
        <ele>273</ele>
        <time>2016-09-20T08:58:14Z</time>
      </trkpt>
      <trkpt lat="45.98101" lon="4.84102">
        <ele>273</ele>
        <time>2016-09-20T08:58:15Z</time>
      </trkpt>
      <trkpt lat="45.98097" lon="4.84106">
        <ele>273</ele>
        <time>2016-09-20T08:58:16Z</time>
      </trkpt>
      <trkpt lat="45.98092" lon="4.8411">
        <ele>273</ele>
        <time>2016-09-20T08:58:17Z</time>
      </trkpt>
      <trkpt lat="45.98088" lon="4.84115">
        <ele>273</ele>
        <time>2016-09-20T08:58:18Z</time>
      </trkpt>
      <trkpt lat="45.98084" lon="4.84119">
        <ele>273</ele>
        <time>2016-09-20T08:58:19Z</time>
      </trkpt>
      <trkpt lat="45.98079" lon="4.84122">
        <ele>273</ele>
        <time>2016-09-20T08:58:20Z</time>
      </trkpt>
      <trkpt lat="45.98075" lon="4.84126">
        <ele>273</ele>
        <time>2016-09-20T08:58:21Z</time>
      </trkpt>
      <trkpt lat="45.98071" lon="4.84131">
        <ele>273</ele>
        <time>2016-09-20T08:58:22Z</time>
      </trkpt>
      <trkpt lat="45.98066" lon="4.84135">
        <ele>273</ele>
        <time>2016-09-20T08:58:23Z</time>
      </trkpt>
      <trkpt lat="45.98062" lon="4.8414">
        <ele>273</ele>
        <time>2016-09-20T08:58:24Z</time>
      </trkpt>
      <trkpt lat="45.98057" lon="4.84145">
        <ele>273</ele>
        <time>2016-09-20T08:58:25Z</time>
      </trkpt>
      <trkpt lat="45.98052" lon="4.8415">
        <ele>273</ele>
        <time>2016-09-20T08:58:26Z</time>
      </trkpt>
      <trkpt lat="45.98048" lon="4.84154">
        <ele>273</ele>
        <time>2016-09-20T08:58:27Z</time>
      </trkpt>
      <trkpt lat="45.98043" lon="4.84159">
        <ele>273</ele>
        <time>2016-09-20T08:58:28Z</time>
      </trkpt>
      <trkpt lat="45.98038" lon="4.84163">
        <ele>273</ele>
        <time>2016-09-20T08:58:29Z</time>
      </trkpt>
      <trkpt lat="45.98033" lon="4.84167">
        <ele>273</ele>
        <time>2016-09-20T08:58:30Z</time>
      </trkpt>
      <trkpt lat="45.98029" lon="4.84171">
        <ele>274</ele>
        <time>2016-09-20T08:58:31Z</time>
      </trkpt>
      <trkpt lat="45.98025" lon="4.84175">
        <ele>274</ele>
        <time>2016-09-20T08:58:32Z</time>
      </trkpt>
      <trkpt lat="45.98021" lon="4.84179">
        <ele>274</ele>
        <time>2016-09-20T08:58:33Z</time>
      </trkpt>
      <trkpt lat="45.98017" lon="4.84183">
        <ele>274</ele>
        <time>2016-09-20T08:58:34Z</time>
      </trkpt>
      <trkpt lat="45.98012" lon="4.84187">
        <ele>274</ele>
        <time>2016-09-20T08:58:35Z</time>
      </trkpt>
      <trkpt lat="45.98008" lon="4.8419">
        <ele>274</ele>
        <time>2016-09-20T08:58:36Z</time>
      </trkpt>
      <trkpt lat="45.98003" lon="4.84194">
        <ele>274</ele>
        <time>2016-09-20T08:58:37Z</time>
      </trkpt>
      <trkpt lat="45.97999" lon="4.84198">
        <ele>274</ele>
        <time>2016-09-20T08:58:38Z</time>
      </trkpt>
      <trkpt lat="45.97995" lon="4.84203">
        <ele>274</ele>
        <time>2016-09-20T08:58:39Z</time>
      </trkpt>
      <trkpt lat="45.97991" lon="4.84206">
        <ele>274</ele>
        <time>2016-09-20T08:58:40Z</time>
      </trkpt>
      <trkpt lat="45.97986" lon="4.84211">
        <ele>274</ele>
        <time>2016-09-20T08:58:41Z</time>
      </trkpt>
      <trkpt lat="45.97982" lon="4.84215">
        <ele>274</ele>
        <time>2016-09-20T08:58:42Z</time>
      </trkpt>
      <trkpt lat="45.97977" lon="4.8422">
        <ele>274</ele>
        <time>2016-09-20T08:58:43Z</time>
      </trkpt>
      <trkpt lat="45.97972" lon="4.84225">
        <ele>274</ele>
        <time>2016-09-20T08:58:44Z</time>
      </trkpt>
      <trkpt lat="45.97966" lon="4.84229">
        <ele>274</ele>
        <time>2016-09-20T08:58:45Z</time>
      </trkpt>
      <trkpt lat="45.97961" lon="4.84234">
        <ele>274</ele>
        <time>2016-09-20T08:58:46Z</time>
      </trkpt>
      <trkpt lat="45.97957" lon="4.84239">
        <ele>275</ele>
        <time>2016-09-20T08:58:47Z</time>
      </trkpt>
      <trkpt lat="45.97952" lon="4.84243">
        <ele>275</ele>
        <time>2016-09-20T08:58:48Z</time>
      </trkpt>
      <trkpt lat="45.97948" lon="4.84248">
        <ele>275</ele>
        <time>2016-09-20T08:58:49Z</time>
      </trkpt>
      <trkpt lat="45.97944" lon="4.84252">
        <ele>275</ele>
        <time>2016-09-20T08:58:50Z</time>
      </trkpt>
      <trkpt lat="45.9794" lon="4.84257">
        <ele>275</ele>
        <time>2016-09-20T08:58:51Z</time>
      </trkpt>
      <trkpt lat="45.97936" lon="4.84261">
        <ele>275</ele>
        <time>2016-09-20T08:58:52Z</time>
      </trkpt>
      <trkpt lat="45.97932" lon="4.84265">
        <ele>275</ele>
        <time>2016-09-20T08:58:53Z</time>
      </trkpt>
      <trkpt lat="45.97928" lon="4.84271">
        <ele>275</ele>
        <time>2016-09-20T08:58:54Z</time>
      </trkpt>
      <trkpt lat="45.97924" lon="4.84275">
        <ele>275</ele>
        <time>2016-09-20T08:58:55Z</time>
      </trkpt>
      <trkpt lat="45.97923" lon="4.84288">
        <ele>275</ele>
        <time>2016-09-20T08:58:57Z</time>
      </trkpt>
      <trkpt lat="45.97923" lon="4.84294">
        <ele>275</ele>
        <time>2016-09-20T08:58:58Z</time>
      </trkpt>
      <trkpt lat="45.97924" lon="4.84301">
        <ele>275</ele>
        <time>2016-09-20T08:58:59Z</time>
      </trkpt>
      <trkpt lat="45.97925" lon="4.84309">
        <ele>275</ele>
        <time>2016-09-20T08:59:00Z</time>
      </trkpt>
      <trkpt lat="45.97926" lon="4.84316">
        <ele>275</ele>
        <time>2016-09-20T08:59:01Z</time>
      </trkpt>
      <trkpt lat="45.97927" lon="4.84323">
        <ele>275</ele>
        <time>2016-09-20T08:59:02Z</time>
      </trkpt>
      <trkpt lat="45.97928" lon="4.8433">
        <ele>275</ele>
        <time>2016-09-20T08:59:03Z</time>
      </trkpt>
      <trkpt lat="45.9793" lon="4.84337">
        <ele>275</ele>
        <time>2016-09-20T08:59:04Z</time>
      </trkpt>
      <trkpt lat="45.97931" lon="4.84345">
        <ele>275</ele>
        <time>2016-09-20T08:59:05Z</time>
      </trkpt>
      <trkpt lat="45.97932" lon="4.84353">
        <ele>275</ele>
        <time>2016-09-20T08:59:06Z</time>
      </trkpt>
      <trkpt lat="45.97934" lon="4.8436">
        <ele>275</ele>
        <time>2016-09-20T08:59:07Z</time>
      </trkpt>
      <trkpt lat="45.97935" lon="4.84368">
        <ele>275</ele>
        <time>2016-09-20T08:59:08Z</time>
      </trkpt>
      <trkpt lat="45.97936" lon="4.84375">
        <ele>275</ele>
        <time>2016-09-20T08:59:09Z</time>
      </trkpt>
      <trkpt lat="45.97936" lon="4.84382">
        <ele>275</ele>
        <time>2016-09-20T08:59:10Z</time>
      </trkpt>
      <trkpt lat="45.97937" lon="4.84389">
        <ele>275</ele>
        <time>2016-09-20T08:59:11Z</time>
      </trkpt>
      <trkpt lat="45.97938" lon="4.84396">
        <ele>275</ele>
        <time>2016-09-20T08:59:12Z</time>
      </trkpt>
      <trkpt lat="45.9794" lon="4.84403">
        <ele>275</ele>
        <time>2016-09-20T08:59:13Z</time>
      </trkpt>
      <trkpt lat="45.97941" lon="4.8441">
        <ele>275</ele>
        <time>2016-09-20T08:59:14Z</time>
      </trkpt>
      <trkpt lat="45.97942" lon="4.84417">
        <ele>275</ele>
        <time>2016-09-20T08:59:15Z</time>
      </trkpt>
      <trkpt lat="45.97943" lon="4.84424">
        <ele>275</ele>
        <time>2016-09-20T08:59:16Z</time>
      </trkpt>
      <trkpt lat="45.97945" lon="4.84431">
        <ele>275</ele>
        <time>2016-09-20T08:59:17Z</time>
      </trkpt>
      <trkpt lat="45.97946" lon="4.84438">
        <ele>275</ele>
        <time>2016-09-20T08:59:18Z</time>
      </trkpt>
      <trkpt lat="45.97947" lon="4.84446">
        <ele>275</ele>
        <time>2016-09-20T08:59:19Z</time>
      </trkpt>
      <trkpt lat="45.97948" lon="4.84453">
        <ele>275</ele>
        <time>2016-09-20T08:59:20Z</time>
      </trkpt>
      <trkpt lat="45.9795" lon="4.84461">
        <ele>275</ele>
        <time>2016-09-20T08:59:21Z</time>
      </trkpt>
      <trkpt lat="45.97951" lon="4.84468">
        <ele>275</ele>
        <time>2016-09-20T08:59:22Z</time>
      </trkpt>
      <trkpt lat="45.97952" lon="4.84476">
        <ele>275</ele>
        <time>2016-09-20T08:59:23Z</time>
      </trkpt>
      <trkpt lat="45.97954" lon="4.84484">
        <ele>275</ele>
        <time>2016-09-20T08:59:24Z</time>
      </trkpt>
      <trkpt lat="45.97955" lon="4.84491">
        <ele>275</ele>
        <time>2016-09-20T08:59:25Z</time>
      </trkpt>
      <trkpt lat="45.97956" lon="4.84498">
        <ele>275</ele>
        <time>2016-09-20T08:59:26Z</time>
      </trkpt>
      <trkpt lat="45.97957" lon="4.84505">
        <ele>275</ele>
        <time>2016-09-20T08:59:27Z</time>
      </trkpt>
      <trkpt lat="45.97958" lon="4.84512">
        <ele>275</ele>
        <time>2016-09-20T08:59:28Z</time>
      </trkpt>
      <trkpt lat="45.97959" lon="4.84519">
        <ele>275</ele>
        <time>2016-09-20T08:59:29Z</time>
      </trkpt>
      <trkpt lat="45.9796" lon="4.84526">
        <ele>275</ele>
        <time>2016-09-20T08:59:30Z</time>
      </trkpt>
      <trkpt lat="45.97961" lon="4.84533">
        <ele>275</ele>
        <time>2016-09-20T08:59:31Z</time>
      </trkpt>
      <trkpt lat="45.97963" lon="4.84539">
        <ele>275</ele>
        <time>2016-09-20T08:59:32Z</time>
      </trkpt>
      <trkpt lat="45.97964" lon="4.84547">
        <ele>275</ele>
        <time>2016-09-20T08:59:33Z</time>
      </trkpt>
      <trkpt lat="45.97965" lon="4.84554">
        <ele>275</ele>
        <time>2016-09-20T08:59:34Z</time>
      </trkpt>
      <trkpt lat="45.97966" lon="4.84562">
        <ele>275</ele>
        <time>2016-09-20T08:59:35Z</time>
      </trkpt>
      <trkpt lat="45.97967" lon="4.84569">
        <ele>275</ele>
        <time>2016-09-20T08:59:36Z</time>
      </trkpt>
      <trkpt lat="45.97968" lon="4.84577">
        <ele>275</ele>
        <time>2016-09-20T08:59:37Z</time>
      </trkpt>
      <trkpt lat="45.9797" lon="4.84585">
        <ele>275</ele>
        <time>2016-09-20T08:59:38Z</time>
      </trkpt>
      <trkpt lat="45.97971" lon="4.84592">
        <ele>275</ele>
        <time>2016-09-20T08:59:39Z</time>
      </trkpt>
      <trkpt lat="45.97972" lon="4.846">
        <ele>275</ele>
        <time>2016-09-20T08:59:40Z</time>
      </trkpt>
      <trkpt lat="45.97972" lon="4.84608">
        <ele>275</ele>
        <time>2016-09-20T08:59:41Z</time>
      </trkpt>
      <trkpt lat="45.97973" lon="4.84615">
        <ele>275</ele>
        <time>2016-09-20T08:59:42Z</time>
      </trkpt>
      <trkpt lat="45.97975" lon="4.84622">
        <ele>275</ele>
        <time>2016-09-20T08:59:43Z</time>
      </trkpt>
      <trkpt lat="45.97976" lon="4.84628">
        <ele>275</ele>
        <time>2016-09-20T08:59:44Z</time>
      </trkpt>
      <trkpt lat="45.97977" lon="4.84635">
        <ele>275</ele>
        <time>2016-09-20T08:59:45Z</time>
      </trkpt>
      <trkpt lat="45.97978" lon="4.84642">
        <ele>275</ele>
        <time>2016-09-20T08:59:46Z</time>
      </trkpt>
      <trkpt lat="45.97979" lon="4.84648">
        <ele>275</ele>
        <time>2016-09-20T08:59:47Z</time>
      </trkpt>
      <trkpt lat="45.9798" lon="4.84655">
        <ele>275</ele>
        <time>2016-09-20T08:59:48Z</time>
      </trkpt>
      <trkpt lat="45.97981" lon="4.84661">
        <ele>274</ele>
        <time>2016-09-20T08:59:49Z</time>
      </trkpt>
      <trkpt lat="45.97981" lon="4.84668">
        <ele>275</ele>
        <time>2016-09-20T08:59:50Z</time>
      </trkpt>
      <trkpt lat="45.97982" lon="4.84674">
        <ele>275</ele>
        <time>2016-09-20T08:59:51Z</time>
      </trkpt>
      <trkpt lat="45.97983" lon="4.84681">
        <ele>275</ele>
        <time>2016-09-20T08:59:52Z</time>
      </trkpt>
      <trkpt lat="45.97984" lon="4.84687">
        <ele>275</ele>
        <time>2016-09-20T08:59:53Z</time>
      </trkpt>
      <trkpt lat="45.97985" lon="4.84694">
        <ele>275</ele>
        <time>2016-09-20T08:59:54Z</time>
      </trkpt>
      <trkpt lat="45.97986" lon="4.84701">
        <ele>275</ele>
        <time>2016-09-20T08:59:55Z</time>
      </trkpt>
      <trkpt lat="45.97987" lon="4.84707">
        <ele>275</ele>
        <time>2016-09-20T08:59:56Z</time>
      </trkpt>
      <trkpt lat="45.97988" lon="4.84714">
        <ele>275</ele>
        <time>2016-09-20T08:59:57Z</time>
      </trkpt>
      <trkpt lat="45.97989" lon="4.84721">
        <ele>275</ele>
        <time>2016-09-20T08:59:58Z</time>
      </trkpt>
      <trkpt lat="45.9799" lon="4.84733">
        <ele>275</ele>
        <time>2016-09-20T09:00:00Z</time>
      </trkpt>
      <trkpt lat="45.97991" lon="4.84739">
        <ele>275</ele>
        <time>2016-09-20T09:00:01Z</time>
      </trkpt>
      <trkpt lat="45.97992" lon="4.84746">
        <ele>275</ele>
        <time>2016-09-20T09:00:02Z</time>
      </trkpt>
      <trkpt lat="45.97993" lon="4.84753">
        <ele>275</ele>
        <time>2016-09-20T09:00:03Z</time>
      </trkpt>
      <trkpt lat="45.97994" lon="4.84759">
        <ele>275</ele>
        <time>2016-09-20T09:00:04Z</time>
      </trkpt>
      <trkpt lat="45.97994" lon="4.84766">
        <ele>275</ele>
        <time>2016-09-20T09:00:05Z</time>
      </trkpt>
      <trkpt lat="45.97994" lon="4.84774">
        <ele>274</ele>
        <time>2016-09-20T09:00:06Z</time>
      </trkpt>
      <trkpt lat="45.97994" lon="4.84781">
        <ele>274</ele>
        <time>2016-09-20T09:00:07Z</time>
      </trkpt>
      <trkpt lat="45.97995" lon="4.84793">
        <ele>274</ele>
        <time>2016-09-20T09:00:09Z</time>
      </trkpt>
      <trkpt lat="45.97995" lon="4.848">
        <ele>274</ele>
        <time>2016-09-20T09:00:10Z</time>
      </trkpt>
      <trkpt lat="45.97995" lon="4.84807">
        <ele>274</ele>
        <time>2016-09-20T09:00:11Z</time>
      </trkpt>
      <trkpt lat="45.97996" lon="4.84815">
        <ele>273</ele>
        <time>2016-09-20T09:00:12Z</time>
      </trkpt>
      <trkpt lat="45.97996" lon="4.84822">
        <ele>273</ele>
        <time>2016-09-20T09:00:13Z</time>
      </trkpt>
      <trkpt lat="45.97997" lon="4.8483">
        <ele>272</ele>
        <time>2016-09-20T09:00:14Z</time>
      </trkpt>
      <trkpt lat="45.97998" lon="4.84837">
        <ele>272</ele>
        <time>2016-09-20T09:00:15Z</time>
      </trkpt>
      <trkpt lat="45.97999" lon="4.84844">
        <ele>272</ele>
        <time>2016-09-20T09:00:16Z</time>
      </trkpt>
      <trkpt lat="45.98" lon="4.84856">
        <ele>272</ele>
        <time>2016-09-20T09:00:18Z</time>
      </trkpt>
      <trkpt lat="45.98" lon="4.84862">
        <ele>272</ele>
        <time>2016-09-20T09:00:19Z</time>
      </trkpt>
      <trkpt lat="45.98001" lon="4.84869">
        <ele>272</ele>
        <time>2016-09-20T09:00:20Z</time>
      </trkpt>
      <trkpt lat="45.98002" lon="4.84876">
        <ele>272</ele>
        <time>2016-09-20T09:00:21Z</time>
      </trkpt>
      <trkpt lat="45.98003" lon="4.84889">
        <ele>272</ele>
        <time>2016-09-20T09:00:23Z</time>
      </trkpt>
      <trkpt lat="45.98003" lon="4.84895">
        <ele>272</ele>
        <time>2016-09-20T09:00:24Z</time>
      </trkpt>
      <trkpt lat="45.98004" lon="4.84902">
        <ele>272</ele>
        <time>2016-09-20T09:00:25Z</time>
      </trkpt>
      <trkpt lat="45.98005" lon="4.84908">
        <ele>272</ele>
        <time>2016-09-20T09:00:26Z</time>
      </trkpt>
      <trkpt lat="45.98005" lon="4.84914">
        <ele>272</ele>
        <time>2016-09-20T09:00:27Z</time>
      </trkpt>
      <trkpt lat="45.98006" lon="4.84922">
        <ele>272</ele>
        <time>2016-09-20T09:00:28Z</time>
      </trkpt>
      <trkpt lat="45.98007" lon="4.8493">
        <ele>272</ele>
        <time>2016-09-20T09:00:29Z</time>
      </trkpt>
      <trkpt lat="45.98008" lon="4.84939">
        <ele>272</ele>
        <time>2016-09-20T09:00:30Z</time>
      </trkpt>
      <trkpt lat="45.98008" lon="4.84947">
        <ele>272</ele>
        <time>2016-09-20T09:00:31Z</time>
      </trkpt>
      <trkpt lat="45.98008" lon="4.84955">
        <ele>272</ele>
        <time>2016-09-20T09:00:32Z</time>
      </trkpt>
      <trkpt lat="45.9801" lon="4.84963">
        <ele>272</ele>
        <time>2016-09-20T09:00:33Z</time>
      </trkpt>
      <trkpt lat="45.9801" lon="4.84971">
        <ele>272</ele>
        <time>2016-09-20T09:00:34Z</time>
      </trkpt>
      <trkpt lat="45.9801" lon="4.8498">
        <ele>272</ele>
        <time>2016-09-20T09:00:35Z</time>
      </trkpt>
      <trkpt lat="45.98011" lon="4.84987">
        <ele>272</ele>
        <time>2016-09-20T09:00:36Z</time>
      </trkpt>
      <trkpt lat="45.98011" lon="4.84995">
        <ele>272</ele>
        <time>2016-09-20T09:00:37Z</time>
      </trkpt>
      <trkpt lat="45.98012" lon="4.85002">
        <ele>272</ele>
        <time>2016-09-20T09:00:38Z</time>
      </trkpt>
      <trkpt lat="45.98013" lon="4.85009">
        <ele>272</ele>
        <time>2016-09-20T09:00:39Z</time>
      </trkpt>
      <trkpt lat="45.98014" lon="4.85016">
        <ele>273</ele>
        <time>2016-09-20T09:00:40Z</time>
      </trkpt>
      <trkpt lat="45.98014" lon="4.85024">
        <ele>273</ele>
        <time>2016-09-20T09:00:41Z</time>
      </trkpt>
      <trkpt lat="45.98015" lon="4.85033">
        <ele>273</ele>
        <time>2016-09-20T09:00:42Z</time>
      </trkpt>
      <trkpt lat="45.98015" lon="4.85041">
        <ele>273</ele>
        <time>2016-09-20T09:00:43Z</time>
      </trkpt>
      <trkpt lat="45.98016" lon="4.85049">
        <ele>273</ele>
        <time>2016-09-20T09:00:44Z</time>
      </trkpt>
      <trkpt lat="45.98016" lon="4.85056">
        <ele>273</ele>
        <time>2016-09-20T09:00:45Z</time>
      </trkpt>
      <trkpt lat="45.98016" lon="4.85063">
        <ele>273</ele>
        <time>2016-09-20T09:00:46Z</time>
      </trkpt>
      <trkpt lat="45.98016" lon="4.8507">
        <ele>273</ele>
        <time>2016-09-20T09:00:47Z</time>
      </trkpt>
      <trkpt lat="45.98016" lon="4.85076">
        <ele>273</ele>
        <time>2016-09-20T09:00:48Z</time>
      </trkpt>
      <trkpt lat="45.98016" lon="4.85083">
        <ele>273</ele>
        <time>2016-09-20T09:00:49Z</time>
      </trkpt>
      <trkpt lat="45.98016" lon="4.85091">
        <ele>274</ele>
        <time>2016-09-20T09:00:50Z</time>
      </trkpt>
      <trkpt lat="45.98018" lon="4.85098">
        <ele>274</ele>
        <time>2016-09-20T09:00:51Z</time>
      </trkpt>
      <trkpt lat="45.98019" lon="4.85105">
        <ele>274</ele>
        <time>2016-09-20T09:00:52Z</time>
      </trkpt>
      <trkpt lat="45.98021" lon="4.85111">
        <ele>274</ele>
        <time>2016-09-20T09:00:53Z</time>
      </trkpt>
      <trkpt lat="45.98023" lon="4.85117">
        <ele>274</ele>
        <time>2016-09-20T09:00:54Z</time>
      </trkpt>
      <trkpt lat="45.98025" lon="4.85124">
        <ele>274</ele>
        <time>2016-09-20T09:00:55Z</time>
      </trkpt>
      <trkpt lat="45.98027" lon="4.8513">
        <ele>274</ele>
        <time>2016-09-20T09:00:56Z</time>
      </trkpt>
      <trkpt lat="45.98029" lon="4.85137">
        <ele>275</ele>
        <time>2016-09-20T09:00:57Z</time>
      </trkpt>
      <trkpt lat="45.98031" lon="4.85144">
        <ele>275</ele>
        <time>2016-09-20T09:00:58Z</time>
      </trkpt>
      <trkpt lat="45.98033" lon="4.85151">
        <ele>275</ele>
        <time>2016-09-20T09:00:59Z</time>
      </trkpt>
      <trkpt lat="45.98035" lon="4.85157">
        <ele>275</ele>
        <time>2016-09-20T09:01:00Z</time>
      </trkpt>
      <trkpt lat="45.98037" lon="4.85163">
        <ele>275</ele>
        <time>2016-09-20T09:01:01Z</time>
      </trkpt>
      <trkpt lat="45.98039" lon="4.85168">
        <ele>275</ele>
        <time>2016-09-20T09:01:02Z</time>
      </trkpt>
      <trkpt lat="45.98043" lon="4.85178">
        <ele>276</ele>
        <time>2016-09-20T09:01:04Z</time>
      </trkpt>
      <trkpt lat="45.98045" lon="4.85182">
        <ele>276</ele>
        <time>2016-09-20T09:01:05Z</time>
      </trkpt>
      <trkpt lat="45.98049" lon="4.85193">
        <ele>276</ele>
        <time>2016-09-20T09:01:07Z</time>
      </trkpt>
      <trkpt lat="45.9805" lon="4.85198">
        <ele>276</ele>
        <time>2016-09-20T09:01:08Z</time>
      </trkpt>
      <trkpt lat="45.98053" lon="4.85209">
        <ele>276</ele>
        <time>2016-09-20T09:01:10Z</time>
      </trkpt>
      <trkpt lat="45.98054" lon="4.85214">
        <ele>276</ele>
        <time>2016-09-20T09:01:11Z</time>
      </trkpt>
      <trkpt lat="45.98056" lon="4.8522">
        <ele>276</ele>
        <time>2016-09-20T09:01:12Z</time>
      </trkpt>
      <trkpt lat="45.98058" lon="4.85226">
        <ele>276</ele>
        <time>2016-09-20T09:01:13Z</time>
      </trkpt>
      <trkpt lat="45.98061" lon="4.85231">
        <ele>276</ele>
        <time>2016-09-20T09:01:14Z</time>
      </trkpt>
      <trkpt lat="45.98064" lon="4.85237">
        <ele>276</ele>
        <time>2016-09-20T09:01:15Z</time>
      </trkpt>
      <trkpt lat="45.98067" lon="4.85243">
        <ele>276</ele>
        <time>2016-09-20T09:01:16Z</time>
      </trkpt>
      <trkpt lat="45.98069" lon="4.85249">
        <ele>276</ele>
        <time>2016-09-20T09:01:17Z</time>
      </trkpt>
      <trkpt lat="45.98072" lon="4.85255">
        <ele>276</ele>
        <time>2016-09-20T09:01:18Z</time>
      </trkpt>
      <trkpt lat="45.98075" lon="4.85261">
        <ele>276</ele>
        <time>2016-09-20T09:01:19Z</time>
      </trkpt>
      <trkpt lat="45.98078" lon="4.85267">
        <ele>276</ele>
        <time>2016-09-20T09:01:20Z</time>
      </trkpt>
      <trkpt lat="45.98081" lon="4.85272">
        <ele>276</ele>
        <time>2016-09-20T09:01:21Z</time>
      </trkpt>
      <trkpt lat="45.98084" lon="4.85278">
        <ele>276</ele>
        <time>2016-09-20T09:01:22Z</time>
      </trkpt>
      <trkpt lat="45.98088" lon="4.85284">
        <ele>276</ele>
        <time>2016-09-20T09:01:23Z</time>
      </trkpt>
      <trkpt lat="45.9809" lon="4.85289">
        <ele>276</ele>
        <time>2016-09-20T09:01:24Z</time>
      </trkpt>
      <trkpt lat="45.98093" lon="4.85295">
        <ele>276</ele>
        <time>2016-09-20T09:01:25Z</time>
      </trkpt>
      <trkpt lat="45.98095" lon="4.85301">
        <ele>276</ele>
        <time>2016-09-20T09:01:26Z</time>
      </trkpt>
      <trkpt lat="45.98097" lon="4.85306">
        <ele>276</ele>
        <time>2016-09-20T09:01:27Z</time>
      </trkpt>
      <trkpt lat="45.98101" lon="4.85318">
        <ele>276</ele>
        <time>2016-09-20T09:01:29Z</time>
      </trkpt>
      <trkpt lat="45.98102" lon="4.85323">
        <ele>276</ele>
        <time>2016-09-20T09:01:30Z</time>
      </trkpt>
      <trkpt lat="45.98105" lon="4.85335">
        <ele>276</ele>
        <time>2016-09-20T09:01:32Z</time>
      </trkpt>
      <trkpt lat="45.98107" lon="4.85341">
        <ele>276</ele>
        <time>2016-09-20T09:01:33Z</time>
      </trkpt>
      <trkpt lat="45.98111" lon="4.85346">
        <ele>276</ele>
        <time>2016-09-20T09:01:34Z</time>
      </trkpt>
      <trkpt lat="45.98115" lon="4.8535">
        <ele>276</ele>
        <time>2016-09-20T09:01:35Z</time>
      </trkpt>
      <trkpt lat="45.98118" lon="4.85356">
        <ele>276</ele>
        <time>2016-09-20T09:01:36Z</time>
      </trkpt>
      <trkpt lat="45.98121" lon="4.85363">
        <ele>276</ele>
        <time>2016-09-20T09:01:37Z</time>
      </trkpt>
      <trkpt lat="45.98124" lon="4.85369">
        <ele>276</ele>
        <time>2016-09-20T09:01:38Z</time>
      </trkpt>
      <trkpt lat="45.98126" lon="4.85377">
        <ele>276</ele>
        <time>2016-09-20T09:01:39Z</time>
      </trkpt>
      <trkpt lat="45.98128" lon="4.85388">
        <ele>276</ele>
        <time>2016-09-20T09:01:41Z</time>
      </trkpt>
      <trkpt lat="45.98131" lon="4.85394">
        <ele>276</ele>
        <time>2016-09-20T09:01:42Z</time>
      </trkpt>
      <trkpt lat="45.98134" lon="4.854">
        <ele>276</ele>
        <time>2016-09-20T09:01:43Z</time>
      </trkpt>
      <trkpt lat="45.98137" lon="4.85406">
        <ele>276</ele>
        <time>2016-09-20T09:01:44Z</time>
      </trkpt>
      <trkpt lat="45.98139" lon="4.85411">
        <ele>276</ele>
        <time>2016-09-20T09:01:45Z</time>
      </trkpt>
      <trkpt lat="45.98142" lon="4.85416">
        <ele>276</ele>
        <time>2016-09-20T09:01:46Z</time>
      </trkpt>
      <trkpt lat="45.98147" lon="4.85427">
        <ele>276</ele>
        <time>2016-09-20T09:01:48Z</time>
      </trkpt>
      <trkpt lat="45.98149" lon="4.85432">
        <ele>276</ele>
        <time>2016-09-20T09:01:49Z</time>
      </trkpt>
      <trkpt lat="45.98153" lon="4.85442">
        <ele>276</ele>
        <time>2016-09-20T09:01:51Z</time>
      </trkpt>
      <trkpt lat="45.98155" lon="4.85448">
        <ele>276</ele>
        <time>2016-09-20T09:01:52Z</time>
      </trkpt>
      <trkpt lat="45.98161" lon="4.85458">
        <ele>276</ele>
        <time>2016-09-20T09:01:54Z</time>
      </trkpt>
      <trkpt lat="45.98163" lon="4.85463">
        <ele>275</ele>
        <time>2016-09-20T09:01:55Z</time>
      </trkpt>
      <trkpt lat="45.98167" lon="4.85475">
        <ele>275</ele>
        <time>2016-09-20T09:01:57Z</time>
      </trkpt>
      <trkpt lat="45.98169" lon="4.8548">
        <ele>275</ele>
        <time>2016-09-20T09:01:58Z</time>
      </trkpt>
      <trkpt lat="45.98171" lon="4.85486">
        <ele>275</ele>
        <time>2016-09-20T09:01:59Z</time>
      </trkpt>
      <trkpt lat="45.98174" lon="4.85491">
        <ele>275</ele>
        <time>2016-09-20T09:02:00Z</time>
      </trkpt>
      <trkpt lat="45.98177" lon="4.85497">
        <ele>275</ele>
        <time>2016-09-20T09:02:01Z</time>
      </trkpt>
      <trkpt lat="45.98179" lon="4.85503">
        <ele>275</ele>
        <time>2016-09-20T09:02:02Z</time>
      </trkpt>
      <trkpt lat="45.98181" lon="4.85509">
        <ele>275</ele>
        <time>2016-09-20T09:02:03Z</time>
      </trkpt>
      <trkpt lat="45.98183" lon="4.85515">
        <ele>275</ele>
        <time>2016-09-20T09:02:04Z</time>
      </trkpt>
      <trkpt lat="45.98188" lon="4.85526">
        <ele>276</ele>
        <time>2016-09-20T09:02:06Z</time>
      </trkpt>
      <trkpt lat="45.98191" lon="4.85532">
        <ele>276</ele>
        <time>2016-09-20T09:02:07Z</time>
      </trkpt>
      <trkpt lat="45.98193" lon="4.85538">
        <ele>276</ele>
        <time>2016-09-20T09:02:08Z</time>
      </trkpt>
      <trkpt lat="45.98196" lon="4.85545">
        <ele>276</ele>
        <time>2016-09-20T09:02:09Z</time>
      </trkpt>
      <trkpt lat="45.98198" lon="4.85551">
        <ele>276</ele>
        <time>2016-09-20T09:02:10Z</time>
      </trkpt>
      <trkpt lat="45.98201" lon="4.85558">
        <ele>276</ele>
        <time>2016-09-20T09:02:11Z</time>
      </trkpt>
      <trkpt lat="45.98203" lon="4.85563">
        <ele>276</ele>
        <time>2016-09-20T09:02:12Z</time>
      </trkpt>
      <trkpt lat="45.98205" lon="4.85569">
        <ele>276</ele>
        <time>2016-09-20T09:02:13Z</time>
      </trkpt>
      <trkpt lat="45.98207" lon="4.85575">
        <ele>276</ele>
        <time>2016-09-20T09:02:14Z</time>
      </trkpt>
      <trkpt lat="45.98209" lon="4.85581">
        <ele>276</ele>
        <time>2016-09-20T09:02:15Z</time>
      </trkpt>
      <trkpt lat="45.98212" lon="4.85587">
        <ele>277</ele>
        <time>2016-09-20T09:02:16Z</time>
      </trkpt>
      <trkpt lat="45.98214" lon="4.85593">
        <ele>277</ele>
        <time>2016-09-20T09:02:17Z</time>
      </trkpt>
      <trkpt lat="45.98216" lon="4.85599">
        <ele>277</ele>
        <time>2016-09-20T09:02:18Z</time>
      </trkpt>
      <trkpt lat="45.98219" lon="4.85604">
        <ele>277</ele>
        <time>2016-09-20T09:02:19Z</time>
      </trkpt>
      <trkpt lat="45.98222" lon="4.85615">
        <ele>277</ele>
        <time>2016-09-20T09:02:21Z</time>
      </trkpt>
      <trkpt lat="45.98224" lon="4.85621">
        <ele>277</ele>
        <time>2016-09-20T09:02:22Z</time>
      </trkpt>
      <trkpt lat="45.98227" lon="4.85627">
        <ele>277</ele>
        <time>2016-09-20T09:02:23Z</time>
      </trkpt>
      <trkpt lat="45.9823" lon="4.85633">
        <ele>277</ele>
        <time>2016-09-20T09:02:24Z</time>
      </trkpt>
      <trkpt lat="45.98232" lon="4.85639">
        <ele>277</ele>
        <time>2016-09-20T09:02:25Z</time>
      </trkpt>
      <trkpt lat="45.98234" lon="4.85645">
        <ele>277</ele>
        <time>2016-09-20T09:02:26Z</time>
      </trkpt>
      <trkpt lat="45.98236" lon="4.85652">
        <ele>276</ele>
        <time>2016-09-20T09:02:27Z</time>
      </trkpt>
      <trkpt lat="45.98239" lon="4.85658">
        <ele>276</ele>
        <time>2016-09-20T09:02:28Z</time>
      </trkpt>
      <trkpt lat="45.98241" lon="4.85665">
        <ele>276</ele>
        <time>2016-09-20T09:02:29Z</time>
      </trkpt>
      <trkpt lat="45.98244" lon="4.85672">
        <ele>276</ele>
        <time>2016-09-20T09:02:30Z</time>
      </trkpt>
      <trkpt lat="45.98246" lon="4.85679">
        <ele>276</ele>
        <time>2016-09-20T09:02:31Z</time>
      </trkpt>
      <trkpt lat="45.98249" lon="4.85685">
        <ele>276</ele>
        <time>2016-09-20T09:02:32Z</time>
      </trkpt>
      <trkpt lat="45.98252" lon="4.85691">
        <ele>275</ele>
        <time>2016-09-20T09:02:33Z</time>
      </trkpt>
      <trkpt lat="45.98254" lon="4.85698">
        <ele>275</ele>
        <time>2016-09-20T09:02:34Z</time>
      </trkpt>
      <trkpt lat="45.98257" lon="4.85709">
        <ele>275</ele>
        <time>2016-09-20T09:02:36Z</time>
      </trkpt>
      <trkpt lat="45.98259" lon="4.85714">
        <ele>275</ele>
        <time>2016-09-20T09:02:37Z</time>
      </trkpt>
      <trkpt lat="45.98261" lon="4.8572">
        <ele>275</ele>
        <time>2016-09-20T09:02:38Z</time>
      </trkpt>
      <trkpt lat="45.98264" lon="4.85726">
        <ele>275</ele>
        <time>2016-09-20T09:02:39Z</time>
      </trkpt>
      <trkpt lat="45.98266" lon="4.85732">
        <ele>275</ele>
        <time>2016-09-20T09:02:40Z</time>
      </trkpt>
      <trkpt lat="45.98269" lon="4.85737">
        <ele>275</ele>
        <time>2016-09-20T09:02:41Z</time>
      </trkpt>
      <trkpt lat="45.98272" lon="4.85743">
        <ele>275</ele>
        <time>2016-09-20T09:02:42Z</time>
      </trkpt>
      <trkpt lat="45.98275" lon="4.85749">
        <ele>274</ele>
        <time>2016-09-20T09:02:43Z</time>
      </trkpt>
      <trkpt lat="45.98277" lon="4.85755">
        <ele>275</ele>
        <time>2016-09-20T09:02:44Z</time>
      </trkpt>
      <trkpt lat="45.9828" lon="4.85762">
        <ele>275</ele>
        <time>2016-09-20T09:02:45Z</time>
      </trkpt>
      <trkpt lat="45.98283" lon="4.85768">
        <ele>275</ele>
        <time>2016-09-20T09:02:46Z</time>
      </trkpt>
      <trkpt lat="45.98285" lon="4.85774">
        <ele>275</ele>
        <time>2016-09-20T09:02:47Z</time>
      </trkpt>
      <trkpt lat="45.98291" lon="4.8578">
        <ele>275</ele>
        <time>2016-09-20T09:02:48Z</time>
      </trkpt>
      <trkpt lat="45.98294" lon="4.85785">
        <ele>275</ele>
        <time>2016-09-20T09:02:49Z</time>
      </trkpt>
      <trkpt lat="45.98296" lon="4.85791">
        <ele>275</ele>
        <time>2016-09-20T09:02:50Z</time>
      </trkpt>
      <trkpt lat="45.98298" lon="4.85796">
        <ele>275</ele>
        <time>2016-09-20T09:02:51Z</time>
      </trkpt>
      <trkpt lat="45.983" lon="4.85802">
        <ele>275</ele>
        <time>2016-09-20T09:02:52Z</time>
      </trkpt>
      <trkpt lat="45.98302" lon="4.85809">
        <ele>275</ele>
        <time>2016-09-20T09:02:53Z</time>
      </trkpt>
      <trkpt lat="45.98305" lon="4.85815">
        <ele>275</ele>
        <time>2016-09-20T09:02:54Z</time>
      </trkpt>
      <trkpt lat="45.98307" lon="4.8582">
        <ele>275</ele>
        <time>2016-09-20T09:02:55Z</time>
      </trkpt>
      <trkpt lat="45.9831" lon="4.85827">
        <ele>275</ele>
        <time>2016-09-20T09:02:56Z</time>
      </trkpt>
      <trkpt lat="45.98311" lon="4.85834">
        <ele>276</ele>
        <time>2016-09-20T09:02:57Z</time>
      </trkpt>
      <trkpt lat="45.98314" lon="4.85841">
        <ele>276</ele>
        <time>2016-09-20T09:02:58Z</time>
      </trkpt>
      <trkpt lat="45.98316" lon="4.85847">
        <ele>276</ele>
        <time>2016-09-20T09:02:59Z</time>
      </trkpt>
      <trkpt lat="45.98318" lon="4.85852">
        <ele>276</ele>
        <time>2016-09-20T09:03:00Z</time>
      </trkpt>
      <trkpt lat="45.98321" lon="4.85858">
        <ele>276</ele>
        <time>2016-09-20T09:03:01Z</time>
      </trkpt>
      <trkpt lat="45.98326" lon="4.85868">
        <ele>276</ele>
        <time>2016-09-20T09:03:03Z</time>
      </trkpt>
      <trkpt lat="45.98328" lon="4.85874">
        <ele>276</ele>
        <time>2016-09-20T09:03:04Z</time>
      </trkpt>
      <trkpt lat="45.98331" lon="4.85879">
        <ele>276</ele>
        <time>2016-09-20T09:03:05Z</time>
      </trkpt>
      <trkpt lat="45.98333" lon="4.85885">
        <ele>276</ele>
        <time>2016-09-20T09:03:06Z</time>
      </trkpt>
      <trkpt lat="45.98335" lon="4.8589">
        <ele>276</ele>
        <time>2016-09-20T09:03:07Z</time>
      </trkpt>
      <trkpt lat="45.98338" lon="4.85896">
        <ele>276</ele>
        <time>2016-09-20T09:03:08Z</time>
      </trkpt>
      <trkpt lat="45.9834" lon="4.85902">
        <ele>276</ele>
        <time>2016-09-20T09:03:09Z</time>
      </trkpt>
      <trkpt lat="45.98343" lon="4.85907">
        <ele>276</ele>
        <time>2016-09-20T09:03:10Z</time>
      </trkpt>
      <trkpt lat="45.98345" lon="4.85913">
        <ele>276</ele>
        <time>2016-09-20T09:03:11Z</time>
      </trkpt>
      <trkpt lat="45.98348" lon="4.85918">
        <ele>276</ele>
        <time>2016-09-20T09:03:12Z</time>
      </trkpt>
      <trkpt lat="45.98351" lon="4.85924">
        <ele>276</ele>
        <time>2016-09-20T09:03:13Z</time>
      </trkpt>
      <trkpt lat="45.98354" lon="4.8593">
        <ele>276</ele>
        <time>2016-09-20T09:03:14Z</time>
      </trkpt>
      <trkpt lat="45.98356" lon="4.85937">
        <ele>276</ele>
        <time>2016-09-20T09:03:15Z</time>
      </trkpt>
      <trkpt lat="45.98359" lon="4.85944">
        <ele>276</ele>
        <time>2016-09-20T09:03:16Z</time>
      </trkpt>
      <trkpt lat="45.98362" lon="4.8595">
        <ele>276</ele>
        <time>2016-09-20T09:03:17Z</time>
      </trkpt>
      <trkpt lat="45.98365" lon="4.85956">
        <ele>276</ele>
        <time>2016-09-20T09:03:18Z</time>
      </trkpt>
      <trkpt lat="45.98367" lon="4.85962">
        <ele>276</ele>
        <time>2016-09-20T09:03:19Z</time>
      </trkpt>
      <trkpt lat="45.98368" lon="4.8597">
        <ele>276</ele>
        <time>2016-09-20T09:03:20Z</time>
      </trkpt>
      <trkpt lat="45.98371" lon="4.85977">
        <ele>276</ele>
        <time>2016-09-20T09:03:21Z</time>
      </trkpt>
      <trkpt lat="45.98372" lon="4.85983">
        <ele>276</ele>
        <time>2016-09-20T09:03:22Z</time>
      </trkpt>
      <trkpt lat="45.98377" lon="4.85992">
        <ele>277</ele>
        <time>2016-09-20T09:03:24Z</time>
      </trkpt>
      <trkpt lat="45.98379" lon="4.85997">
        <ele>277</ele>
        <time>2016-09-20T09:03:25Z</time>
      </trkpt>
      <trkpt lat="45.98382" lon="4.86003">
        <ele>277</ele>
        <time>2016-09-20T09:03:26Z</time>
      </trkpt>
      <trkpt lat="45.98385" lon="4.8601">
        <ele>277</ele>
        <time>2016-09-20T09:03:27Z</time>
      </trkpt>
      <trkpt lat="45.98388" lon="4.86016">
        <ele>277</ele>
        <time>2016-09-20T09:03:28Z</time>
      </trkpt>
      <trkpt lat="45.9839" lon="4.86023">
        <ele>277</ele>
        <time>2016-09-20T09:03:29Z</time>
      </trkpt>
      <trkpt lat="45.98393" lon="4.8603">
        <ele>277</ele>
        <time>2016-09-20T09:03:30Z</time>
      </trkpt>
      <trkpt lat="45.98395" lon="4.86038">
        <ele>277</ele>
        <time>2016-09-20T09:03:31Z</time>
      </trkpt>
      <trkpt lat="45.98396" lon="4.86045">
        <ele>277</ele>
        <time>2016-09-20T09:03:32Z</time>
      </trkpt>
      <trkpt lat="45.98398" lon="4.86051">
        <ele>277</ele>
        <time>2016-09-20T09:03:33Z</time>
      </trkpt>
      <trkpt lat="45.98401" lon="4.86063">
        <ele>277</ele>
        <time>2016-09-20T09:03:35Z</time>
      </trkpt>
      <trkpt lat="45.98403" lon="4.86069">
        <ele>277</ele>
        <time>2016-09-20T09:03:36Z</time>
      </trkpt>
      <trkpt lat="45.98405" lon="4.86081">
        <ele>277</ele>
        <time>2016-09-20T09:03:38Z</time>
      </trkpt>
      <trkpt lat="45.98406" lon="4.86087">
        <ele>277</ele>
        <time>2016-09-20T09:03:39Z</time>
      </trkpt>
      <trkpt lat="45.98408" lon="4.86098">
        <ele>277</ele>
        <time>2016-09-20T09:03:41Z</time>
      </trkpt>
      <trkpt lat="45.98409" lon="4.86104">
        <ele>277</ele>
        <time>2016-09-20T09:03:42Z</time>
      </trkpt>
      <trkpt lat="45.98411" lon="4.86115">
        <ele>277</ele>
        <time>2016-09-20T09:03:44Z</time>
      </trkpt>
      <trkpt lat="45.98412" lon="4.86121">
        <ele>277</ele>
        <time>2016-09-20T09:03:45Z</time>
      </trkpt>
      <trkpt lat="45.98414" lon="4.86133">
        <ele>276</ele>
        <time>2016-09-20T09:03:47Z</time>
      </trkpt>
      <trkpt lat="45.98415" lon="4.86139">
        <ele>276</ele>
        <time>2016-09-20T09:03:48Z</time>
      </trkpt>
      <trkpt lat="45.98416" lon="4.86151">
        <ele>276</ele>
        <time>2016-09-20T09:03:50Z</time>
      </trkpt>
      <trkpt lat="45.98417" lon="4.86157">
        <ele>276</ele>
        <time>2016-09-20T09:03:51Z</time>
      </trkpt>
      <trkpt lat="45.9842" lon="4.86167">
        <ele>276</ele>
        <time>2016-09-20T09:03:53Z</time>
      </trkpt>
      <trkpt lat="45.98421" lon="4.86172">
        <ele>276</ele>
        <time>2016-09-20T09:03:54Z</time>
      </trkpt>
      <trkpt lat="45.98422" lon="4.86182">
        <ele>275</ele>
        <time>2016-09-20T09:03:56Z</time>
      </trkpt>
      <trkpt lat="45.98423" lon="4.86187">
        <ele>275</ele>
        <time>2016-09-20T09:03:57Z</time>
      </trkpt>
      <trkpt lat="45.98424" lon="4.86197">
        <ele>275</ele>
        <time>2016-09-20T09:03:59Z</time>
      </trkpt>
      <trkpt lat="45.98424" lon="4.86201">
        <ele>275</ele>
        <time>2016-09-20T09:04:00Z</time>
      </trkpt>
      <trkpt lat="45.98425" lon="4.86212">
        <ele>275</ele>
        <time>2016-09-20T09:04:02Z</time>
      </trkpt>
      <trkpt lat="45.98426" lon="4.86218">
        <ele>275</ele>
        <time>2016-09-20T09:04:03Z</time>
      </trkpt>
      <trkpt lat="45.98427" lon="4.86229">
        <ele>275</ele>
        <time>2016-09-20T09:04:05Z</time>
      </trkpt>
      <trkpt lat="45.98428" lon="4.86236">
        <ele>275</ele>
        <time>2016-09-20T09:04:06Z</time>
      </trkpt>
      <trkpt lat="45.98429" lon="4.86242">
        <ele>275</ele>
        <time>2016-09-20T09:04:07Z</time>
      </trkpt>
      <trkpt lat="45.9843" lon="4.8625">
        <ele>275</ele>
        <time>2016-09-20T09:04:08Z</time>
      </trkpt>
      <trkpt lat="45.98431" lon="4.86258">
        <ele>275</ele>
        <time>2016-09-20T09:04:09Z</time>
      </trkpt>
      <trkpt lat="45.98432" lon="4.86266">
        <ele>275</ele>
        <time>2016-09-20T09:04:10Z</time>
      </trkpt>
      <trkpt lat="45.98433" lon="4.86275">
        <ele>276</ele>
        <time>2016-09-20T09:04:11Z</time>
      </trkpt>
      <trkpt lat="45.98435" lon="4.86284">
        <ele>276</ele>
        <time>2016-09-20T09:04:12Z</time>
      </trkpt>
      <trkpt lat="45.98436" lon="4.86294">
        <ele>276</ele>
        <time>2016-09-20T09:04:13Z</time>
      </trkpt>
      <trkpt lat="45.98438" lon="4.86304">
        <ele>276</ele>
        <time>2016-09-20T09:04:14Z</time>
      </trkpt>
      <trkpt lat="45.9844" lon="4.86313">
        <ele>276</ele>
        <time>2016-09-20T09:04:15Z</time>
      </trkpt>
      <trkpt lat="45.98442" lon="4.86322">
        <ele>276</ele>
        <time>2016-09-20T09:04:16Z</time>
      </trkpt>
      <trkpt lat="45.98444" lon="4.86332">
        <ele>276</ele>
        <time>2016-09-20T09:04:17Z</time>
      </trkpt>
      <trkpt lat="45.98447" lon="4.8634">
        <ele>277</ele>
        <time>2016-09-20T09:04:18Z</time>
      </trkpt>
      <trkpt lat="45.98448" lon="4.86349">
        <ele>277</ele>
        <time>2016-09-20T09:04:19Z</time>
      </trkpt>
      <trkpt lat="45.9845" lon="4.86357">
        <ele>277</ele>
        <time>2016-09-20T09:04:20Z</time>
      </trkpt>
      <trkpt lat="45.98453" lon="4.86366">
        <ele>277</ele>
        <time>2016-09-20T09:04:21Z</time>
      </trkpt>
      <trkpt lat="45.98456" lon="4.86373">
        <ele>277</ele>
        <time>2016-09-20T09:04:22Z</time>
      </trkpt>
      <trkpt lat="45.98459" lon="4.86381">
        <ele>277</ele>
        <time>2016-09-20T09:04:23Z</time>
      </trkpt>
      <trkpt lat="45.98462" lon="4.86388">
        <ele>277</ele>
        <time>2016-09-20T09:04:24Z</time>
      </trkpt>
      <trkpt lat="45.98465" lon="4.86396">
        <ele>277</ele>
        <time>2016-09-20T09:04:25Z</time>
      </trkpt>
      <trkpt lat="45.98469" lon="4.86403">
        <ele>277</ele>
        <time>2016-09-20T09:04:26Z</time>
      </trkpt>
      <trkpt lat="45.98472" lon="4.86411">
        <ele>277</ele>
        <time>2016-09-20T09:04:27Z</time>
      </trkpt>
      <trkpt lat="45.98476" lon="4.86418">
        <ele>278</ele>
        <time>2016-09-20T09:04:28Z</time>
      </trkpt>
      <trkpt lat="45.98479" lon="4.86425">
        <ele>278</ele>
        <time>2016-09-20T09:04:29Z</time>
      </trkpt>
      <trkpt lat="45.98482" lon="4.86432">
        <ele>278</ele>
        <time>2016-09-20T09:04:30Z</time>
      </trkpt>
      <trkpt lat="45.98486" lon="4.86439">
        <ele>278</ele>
        <time>2016-09-20T09:04:31Z</time>
      </trkpt>
      <trkpt lat="45.98489" lon="4.86445">
        <ele>278</ele>
        <time>2016-09-20T09:04:32Z</time>
      </trkpt>
      <trkpt lat="45.98491" lon="4.86451">
        <ele>278</ele>
        <time>2016-09-20T09:04:33Z</time>
      </trkpt>
      <trkpt lat="45.98494" lon="4.86458">
        <ele>278</ele>
        <time>2016-09-20T09:04:34Z</time>
      </trkpt>
      <trkpt lat="45.98497" lon="4.86464">
        <ele>278</ele>
        <time>2016-09-20T09:04:35Z</time>
      </trkpt>
      <trkpt lat="45.98499" lon="4.8647">
        <ele>279</ele>
        <time>2016-09-20T09:04:36Z</time>
      </trkpt>
      <trkpt lat="45.98502" lon="4.86477">
        <ele>278</ele>
        <time>2016-09-20T09:04:37Z</time>
      </trkpt>
      <trkpt lat="45.98505" lon="4.86484">
        <ele>279</ele>
        <time>2016-09-20T09:04:38Z</time>
      </trkpt>
      <trkpt lat="45.98508" lon="4.86491">
        <ele>279</ele>
        <time>2016-09-20T09:04:39Z</time>
      </trkpt>
      <trkpt lat="45.98511" lon="4.86498">
        <ele>279</ele>
        <time>2016-09-20T09:04:40Z</time>
      </trkpt>
      <trkpt lat="45.98514" lon="4.86505">
        <ele>279</ele>
        <time>2016-09-20T09:04:41Z</time>
      </trkpt>
      <trkpt lat="45.98518" lon="4.86513">
        <ele>279</ele>
        <time>2016-09-20T09:04:42Z</time>
      </trkpt>
      <trkpt lat="45.98521" lon="4.8652">
        <ele>279</ele>
        <time>2016-09-20T09:04:43Z</time>
      </trkpt>
      <trkpt lat="45.98525" lon="4.86527">
        <ele>279</ele>
        <time>2016-09-20T09:04:44Z</time>
      </trkpt>
      <trkpt lat="45.98529" lon="4.86534">
        <ele>279</ele>
        <time>2016-09-20T09:04:45Z</time>
      </trkpt>
      <trkpt lat="45.98532" lon="4.86541">
        <ele>279</ele>
        <time>2016-09-20T09:04:46Z</time>
      </trkpt>
      <trkpt lat="45.98536" lon="4.86548">
        <ele>279</ele>
        <time>2016-09-20T09:04:47Z</time>
      </trkpt>
      <trkpt lat="45.98539" lon="4.86555">
        <ele>278</ele>
        <time>2016-09-20T09:04:48Z</time>
      </trkpt>
      <trkpt lat="45.98543" lon="4.86562">
        <ele>278</ele>
        <time>2016-09-20T09:04:49Z</time>
      </trkpt>
      <trkpt lat="45.98546" lon="4.86569">
        <ele>278</ele>
        <time>2016-09-20T09:04:50Z</time>
      </trkpt>
      <trkpt lat="45.98548" lon="4.86575">
        <ele>278</ele>
        <time>2016-09-20T09:04:51Z</time>
      </trkpt>
      <trkpt lat="45.9855" lon="4.86582">
        <ele>278</ele>
        <time>2016-09-20T09:04:52Z</time>
      </trkpt>
      <trkpt lat="45.9855" lon="4.8659">
        <ele>278</ele>
        <time>2016-09-20T09:04:53Z</time>
      </trkpt>
      <trkpt lat="45.98551" lon="4.86597">
        <ele>278</ele>
        <time>2016-09-20T09:04:54Z</time>
      </trkpt>
      <trkpt lat="45.98553" lon="4.86604">
        <ele>278</ele>
        <time>2016-09-20T09:04:55Z</time>
      </trkpt>
      <trkpt lat="45.98554" lon="4.86611">
        <ele>278</ele>
        <time>2016-09-20T09:04:56Z</time>
      </trkpt>
      <trkpt lat="45.98555" lon="4.86619">
        <ele>278</ele>
        <time>2016-09-20T09:04:57Z</time>
      </trkpt>
      <trkpt lat="45.98557" lon="4.86628">
        <ele>278</ele>
        <time>2016-09-20T09:04:58Z</time>
      </trkpt>
      <trkpt lat="45.98558" lon="4.86637">
        <ele>278</ele>
        <time>2016-09-20T09:04:59Z</time>
      </trkpt>
      <trkpt lat="45.98559" lon="4.86645">
        <ele>277</ele>
        <time>2016-09-20T09:05:00Z</time>
      </trkpt>
      <trkpt lat="45.9856" lon="4.86653">
        <ele>277</ele>
        <time>2016-09-20T09:05:01Z</time>
      </trkpt>
      <trkpt lat="45.98561" lon="4.86661">
        <ele>277</ele>
        <time>2016-09-20T09:05:02Z</time>
      </trkpt>
      <trkpt lat="45.98562" lon="4.86669">
        <ele>277</ele>
        <time>2016-09-20T09:05:03Z</time>
      </trkpt>
      <trkpt lat="45.98562" lon="4.86675">
        <ele>277</ele>
        <time>2016-09-20T09:05:04Z</time>
      </trkpt>
      <trkpt lat="45.98562" lon="4.86681">
        <ele>277</ele>
        <time>2016-09-20T09:05:05Z</time>
      </trkpt>
      <trkpt lat="45.98561" lon="4.86688">
        <ele>277</ele>
        <time>2016-09-20T09:05:06Z</time>
      </trkpt>
      <trkpt lat="45.98561" lon="4.86695">
        <ele>277</ele>
        <time>2016-09-20T09:05:07Z</time>
      </trkpt>
      <trkpt lat="45.98561" lon="4.86702">
        <ele>277</ele>
        <time>2016-09-20T09:05:08Z</time>
      </trkpt>
      <trkpt lat="45.98561" lon="4.86709">
        <ele>277</ele>
        <time>2016-09-20T09:05:09Z</time>
      </trkpt>
      <trkpt lat="45.98562" lon="4.86716">
        <ele>277</ele>
        <time>2016-09-20T09:05:10Z</time>
      </trkpt>
      <trkpt lat="45.98563" lon="4.86723">
        <ele>277</ele>
        <time>2016-09-20T09:05:11Z</time>
      </trkpt>
      <trkpt lat="45.98564" lon="4.8673">
        <ele>277</ele>
        <time>2016-09-20T09:05:12Z</time>
      </trkpt>
      <trkpt lat="45.98565" lon="4.86738">
        <ele>277</ele>
        <time>2016-09-20T09:05:13Z</time>
      </trkpt>
      <trkpt lat="45.98566" lon="4.86745">
        <ele>277</ele>
        <time>2016-09-20T09:05:14Z</time>
      </trkpt>
      <trkpt lat="45.98568" lon="4.86753">
        <ele>277</ele>
        <time>2016-09-20T09:05:15Z</time>
      </trkpt>
      <trkpt lat="45.98569" lon="4.8676">
        <ele>277</ele>
        <time>2016-09-20T09:05:16Z</time>
      </trkpt>
      <trkpt lat="45.98571" lon="4.86768">
        <ele>277</ele>
        <time>2016-09-20T09:05:17Z</time>
      </trkpt>
      <trkpt lat="45.98572" lon="4.86775">
        <ele>277</ele>
        <time>2016-09-20T09:05:18Z</time>
      </trkpt>
      <trkpt lat="45.98573" lon="4.86781">
        <ele>277</ele>
        <time>2016-09-20T09:05:19Z</time>
      </trkpt>
      <trkpt lat="45.98576" lon="4.86787">
        <ele>277</ele>
        <time>2016-09-20T09:05:20Z</time>
      </trkpt>
      <trkpt lat="45.98578" lon="4.86795">
        <ele>277</ele>
        <time>2016-09-20T09:05:21Z</time>
      </trkpt>
      <trkpt lat="45.98579" lon="4.86802">
        <ele>278</ele>
        <time>2016-09-20T09:05:22Z</time>
      </trkpt>
      <trkpt lat="45.98581" lon="4.8681">
        <ele>277</ele>
        <time>2016-09-20T09:05:23Z</time>
      </trkpt>
      <trkpt lat="45.98582" lon="4.86821">
        <ele>277</ele>
        <time>2016-09-20T09:05:24Z</time>
      </trkpt>
      <trkpt lat="45.98583" lon="4.86831">
        <ele>277</ele>
        <time>2016-09-20T09:05:25Z</time>
      </trkpt>
      <trkpt lat="45.98584" lon="4.8684">
        <ele>277</ele>
        <time>2016-09-20T09:05:26Z</time>
      </trkpt>
      <trkpt lat="45.98585" lon="4.86849">
        <ele>277</ele>
        <time>2016-09-20T09:05:27Z</time>
      </trkpt>
      <trkpt lat="45.98585" lon="4.86857">
        <ele>277</ele>
        <time>2016-09-20T09:05:28Z</time>
      </trkpt>
      <trkpt lat="45.98584" lon="4.86866">
        <ele>277</ele>
        <time>2016-09-20T09:05:29Z</time>
      </trkpt>
      <trkpt lat="45.98584" lon="4.86874">
        <ele>277</ele>
        <time>2016-09-20T09:05:30Z</time>
      </trkpt>
      <trkpt lat="45.98583" lon="4.86882">
        <ele>279</ele>
        <time>2016-09-20T09:05:31Z</time>
      </trkpt>
      <trkpt lat="45.98583" lon="4.8689">
        <ele>279</ele>
        <time>2016-09-20T09:05:32Z</time>
      </trkpt>
      <trkpt lat="45.98583" lon="4.86899">
        <ele>279</ele>
        <time>2016-09-20T09:05:33Z</time>
      </trkpt>
      <trkpt lat="45.98583" lon="4.86908">
        <ele>279</ele>
        <time>2016-09-20T09:05:34Z</time>
      </trkpt>
      <trkpt lat="45.98584" lon="4.86916">
        <ele>279</ele>
        <time>2016-09-20T09:05:35Z</time>
      </trkpt>
      <trkpt lat="45.98585" lon="4.86924">
        <ele>279</ele>
        <time>2016-09-20T09:05:36Z</time>
      </trkpt>
      <trkpt lat="45.98585" lon="4.86934">
        <ele>279</ele>
        <time>2016-09-20T09:05:37Z</time>
      </trkpt>
      <trkpt lat="45.98585" lon="4.86943">
        <ele>279</ele>
        <time>2016-09-20T09:05:38Z</time>
      </trkpt>
      <trkpt lat="45.98585" lon="4.86953">
        <ele>279</ele>
        <time>2016-09-20T09:05:39Z</time>
      </trkpt>
      <trkpt lat="45.98584" lon="4.86962">
        <ele>279</ele>
        <time>2016-09-20T09:05:40Z</time>
      </trkpt>
      <trkpt lat="45.98584" lon="4.86972">
        <ele>279</ele>
        <time>2016-09-20T09:05:41Z</time>
      </trkpt>
      <trkpt lat="45.98585" lon="4.86981">
        <ele>279</ele>
        <time>2016-09-20T09:05:42Z</time>
      </trkpt>
      <trkpt lat="45.98586" lon="4.86991">
        <ele>279</ele>
        <time>2016-09-20T09:05:43Z</time>
      </trkpt>
      <trkpt lat="45.98587" lon="4.87">
        <ele>280</ele>
        <time>2016-09-20T09:05:44Z</time>
      </trkpt>
      <trkpt lat="45.98589" lon="4.87009">
        <ele>279</ele>
        <time>2016-09-20T09:05:45Z</time>
      </trkpt>
      <trkpt lat="45.98591" lon="4.87018">
        <ele>279</ele>
        <time>2016-09-20T09:05:46Z</time>
      </trkpt>
      <trkpt lat="45.98592" lon="4.87027">
        <ele>279</ele>
        <time>2016-09-20T09:05:47Z</time>
      </trkpt>
      <trkpt lat="45.98594" lon="4.87036">
        <ele>279</ele>
        <time>2016-09-20T09:05:48Z</time>
      </trkpt>
      <trkpt lat="45.98596" lon="4.87044">
        <ele>279</ele>
        <time>2016-09-20T09:05:49Z</time>
      </trkpt>
      <trkpt lat="45.98598" lon="4.87054">
        <ele>279</ele>
        <time>2016-09-20T09:05:50Z</time>
      </trkpt>
      <trkpt lat="45.986" lon="4.87061">
        <ele>279</ele>
        <time>2016-09-20T09:05:51Z</time>
      </trkpt>
      <trkpt lat="45.98602" lon="4.87071">
        <ele>279</ele>
        <time>2016-09-20T09:05:52Z</time>
      </trkpt>
      <trkpt lat="45.98603" lon="4.87079">
        <ele>279</ele>
        <time>2016-09-20T09:05:53Z</time>
      </trkpt>
      <trkpt lat="45.98605" lon="4.87088">
        <ele>279</ele>
        <time>2016-09-20T09:05:54Z</time>
      </trkpt>
      <trkpt lat="45.98607" lon="4.87096">
        <ele>279</ele>
        <time>2016-09-20T09:05:55Z</time>
      </trkpt>
      <trkpt lat="45.98609" lon="4.87105">
        <ele>279</ele>
        <time>2016-09-20T09:05:56Z</time>
      </trkpt>
      <trkpt lat="45.9861" lon="4.87113">
        <ele>279</ele>
        <time>2016-09-20T09:05:57Z</time>
      </trkpt>
      <trkpt lat="45.9861" lon="4.87121">
        <ele>279</ele>
        <time>2016-09-20T09:05:58Z</time>
      </trkpt>
      <trkpt lat="45.98611" lon="4.87131">
        <ele>279</ele>
        <time>2016-09-20T09:05:59Z</time>
      </trkpt>
      <trkpt lat="45.98611" lon="4.8714">
        <ele>278</ele>
        <time>2016-09-20T09:06:00Z</time>
      </trkpt>
      <trkpt lat="45.98611" lon="4.87149">
        <ele>278</ele>
        <time>2016-09-20T09:06:01Z</time>
      </trkpt>
      <trkpt lat="45.98611" lon="4.87158">
        <ele>278</ele>
        <time>2016-09-20T09:06:02Z</time>
      </trkpt>
      <trkpt lat="45.98611" lon="4.87168">
        <ele>278</ele>
        <time>2016-09-20T09:06:03Z</time>
      </trkpt>
      <trkpt lat="45.9861" lon="4.87176">
        <ele>278</ele>
        <time>2016-09-20T09:06:04Z</time>
      </trkpt>
      <trkpt lat="45.9861" lon="4.87187">
        <ele>277</ele>
        <time>2016-09-20T09:06:05Z</time>
      </trkpt>
      <trkpt lat="45.98609" lon="4.87197">
        <ele>277</ele>
        <time>2016-09-20T09:06:06Z</time>
      </trkpt>
      <trkpt lat="45.98608" lon="4.87207">
        <ele>277</ele>
        <time>2016-09-20T09:06:07Z</time>
      </trkpt>
      <trkpt lat="45.98608" lon="4.87216">
        <ele>277</ele>
        <time>2016-09-20T09:06:08Z</time>
      </trkpt>
      <trkpt lat="45.98606" lon="4.87226">
        <ele>277</ele>
        <time>2016-09-20T09:06:09Z</time>
      </trkpt>
      <trkpt lat="45.98606" lon="4.87236">
        <ele>277</ele>
        <time>2016-09-20T09:06:10Z</time>
      </trkpt>
      <trkpt lat="45.98605" lon="4.87245">
        <ele>277</ele>
        <time>2016-09-20T09:06:11Z</time>
      </trkpt>
      <trkpt lat="45.98604" lon="4.87255">
        <ele>275</ele>
        <time>2016-09-20T09:06:12Z</time>
      </trkpt>
      <trkpt lat="45.98603" lon="4.87264">
        <ele>275</ele>
        <time>2016-09-20T09:06:13Z</time>
      </trkpt>
      <trkpt lat="45.98602" lon="4.87272">
        <ele>275</ele>
        <time>2016-09-20T09:06:14Z</time>
      </trkpt>
      <trkpt lat="45.98601" lon="4.87282">
        <ele>275</ele>
        <time>2016-09-20T09:06:15Z</time>
      </trkpt>
      <trkpt lat="45.98601" lon="4.87291">
        <ele>275</ele>
        <time>2016-09-20T09:06:16Z</time>
      </trkpt>
      <trkpt lat="45.98601" lon="4.87301">
        <ele>274</ele>
        <time>2016-09-20T09:06:17Z</time>
      </trkpt>
      <trkpt lat="45.98601" lon="4.8731">
        <ele>274</ele>
        <time>2016-09-20T09:06:18Z</time>
      </trkpt>
      <trkpt lat="45.98602" lon="4.87319">
        <ele>274</ele>
        <time>2016-09-20T09:06:19Z</time>
      </trkpt>
      <trkpt lat="45.98603" lon="4.87327">
        <ele>274</ele>
        <time>2016-09-20T09:06:20Z</time>
      </trkpt>
      <trkpt lat="45.98604" lon="4.87336">
        <ele>272</ele>
        <time>2016-09-20T09:06:21Z</time>
      </trkpt>
      <trkpt lat="45.98606" lon="4.87345">
        <ele>272</ele>
        <time>2016-09-20T09:06:22Z</time>
      </trkpt>
      <trkpt lat="45.98607" lon="4.87355">
        <ele>272</ele>
        <time>2016-09-20T09:06:23Z</time>
      </trkpt>
      <trkpt lat="45.98609" lon="4.87365">
        <ele>272</ele>
        <time>2016-09-20T09:06:24Z</time>
      </trkpt>
      <trkpt lat="45.98611" lon="4.87375">
        <ele>271</ele>
        <time>2016-09-20T09:06:25Z</time>
      </trkpt>
      <trkpt lat="45.98612" lon="4.87385">
        <ele>271</ele>
        <time>2016-09-20T09:06:26Z</time>
      </trkpt>
      <trkpt lat="45.98614" lon="4.87396">
        <ele>271</ele>
        <time>2016-09-20T09:06:27Z</time>
      </trkpt>
      <trkpt lat="45.98616" lon="4.87406">
        <ele>271</ele>
        <time>2016-09-20T09:06:28Z</time>
      </trkpt>
      <trkpt lat="45.98618" lon="4.87416">
        <ele>271</ele>
        <time>2016-09-20T09:06:29Z</time>
      </trkpt>
      <trkpt lat="45.98621" lon="4.87427">
        <ele>269</ele>
        <time>2016-09-20T09:06:30Z</time>
      </trkpt>
      <trkpt lat="45.98623" lon="4.87437">
        <ele>269</ele>
        <time>2016-09-20T09:06:31Z</time>
      </trkpt>
      <trkpt lat="45.98625" lon="4.87448">
        <ele>268</ele>
        <time>2016-09-20T09:06:32Z</time>
      </trkpt>
      <trkpt lat="45.98627" lon="4.87458">
        <ele>268</ele>
        <time>2016-09-20T09:06:33Z</time>
      </trkpt>
      <trkpt lat="45.98629" lon="4.87469">
        <ele>268</ele>
        <time>2016-09-20T09:06:34Z</time>
      </trkpt>
      <trkpt lat="45.9863" lon="4.87478">
        <ele>268</ele>
        <time>2016-09-20T09:06:35Z</time>
      </trkpt>
      <trkpt lat="45.98631" lon="4.87487">
        <ele>268</ele>
        <time>2016-09-20T09:06:36Z</time>
      </trkpt>
      <trkpt lat="45.98633" lon="4.87497">
        <ele>267</ele>
        <time>2016-09-20T09:06:37Z</time>
      </trkpt>
      <trkpt lat="45.98635" lon="4.87508">
        <ele>267</ele>
        <time>2016-09-20T09:06:38Z</time>
      </trkpt>
      <trkpt lat="45.98637" lon="4.87519">
        <ele>267</ele>
        <time>2016-09-20T09:06:39Z</time>
      </trkpt>
      <trkpt lat="45.98639" lon="4.87529">
        <ele>267</ele>
        <time>2016-09-20T09:06:40Z</time>
      </trkpt>
      <trkpt lat="45.98641" lon="4.87539">
        <ele>267</ele>
        <time>2016-09-20T09:06:41Z</time>
      </trkpt>
      <trkpt lat="45.98645" lon="4.87548">
        <ele>267</ele>
        <time>2016-09-20T09:06:42Z</time>
      </trkpt>
      <trkpt lat="45.9865" lon="4.87558">
        <ele>267</ele>
        <time>2016-09-20T09:06:43Z</time>
      </trkpt>
      <trkpt lat="45.98657" lon="4.87564">
        <ele>267</ele>
        <time>2016-09-20T09:06:44Z</time>
      </trkpt>
      <trkpt lat="45.98663" lon="4.87569">
        <ele>267</ele>
        <time>2016-09-20T09:06:45Z</time>
      </trkpt>
      <trkpt lat="45.98671" lon="4.8757">
        <ele>267</ele>
        <time>2016-09-20T09:06:46Z</time>
      </trkpt>
      <trkpt lat="45.98677" lon="4.8757">
        <ele>267</ele>
        <time>2016-09-20T09:06:47Z</time>
      </trkpt>
      <trkpt lat="45.98683" lon="4.87568">
        <ele>267</ele>
        <time>2016-09-20T09:06:48Z</time>
      </trkpt>
      <trkpt lat="45.9869" lon="4.87567">
        <ele>267</ele>
        <time>2016-09-20T09:06:49Z</time>
      </trkpt>
      <trkpt lat="45.98697" lon="4.87565">
        <ele>267</ele>
        <time>2016-09-20T09:06:50Z</time>
      </trkpt>
      <trkpt lat="45.98703" lon="4.87563">
        <ele>267</ele>
        <time>2016-09-20T09:06:51Z</time>
      </trkpt>
      <trkpt lat="45.98709" lon="4.87562">
        <ele>267</ele>
        <time>2016-09-20T09:06:52Z</time>
      </trkpt>
      <trkpt lat="45.98715" lon="4.8756">
        <ele>267</ele>
        <time>2016-09-20T09:06:53Z</time>
      </trkpt>
      <trkpt lat="45.98722" lon="4.87558">
        <ele>267</ele>
        <time>2016-09-20T09:06:54Z</time>
      </trkpt>
      <trkpt lat="45.98728" lon="4.87556">
        <ele>267</ele>
        <time>2016-09-20T09:06:55Z</time>
      </trkpt>
      <trkpt lat="45.98735" lon="4.87555">
        <ele>267</ele>
        <time>2016-09-20T09:06:56Z</time>
      </trkpt>
      <trkpt lat="45.98742" lon="4.87554">
        <ele>267</ele>
        <time>2016-09-20T09:06:57Z</time>
      </trkpt>
      <trkpt lat="45.98748" lon="4.87553">
        <ele>267</ele>
        <time>2016-09-20T09:06:58Z</time>
      </trkpt>
      <trkpt lat="45.98755" lon="4.87555">
        <ele>269</ele>
        <time>2016-09-20T09:06:59Z</time>
      </trkpt>
      <trkpt lat="45.9876" lon="4.87556">
        <ele>269</ele>
        <time>2016-09-20T09:07:00Z</time>
      </trkpt>
      <trkpt lat="45.98765" lon="4.87559">
        <ele>269</ele>
        <time>2016-09-20T09:07:01Z</time>
      </trkpt>
      <trkpt lat="45.9877" lon="4.87562">
        <ele>269</ele>
        <time>2016-09-20T09:07:02Z</time>
      </trkpt>
      <trkpt lat="45.98775" lon="4.87566">
        <ele>269</ele>
        <time>2016-09-20T09:07:03Z</time>
      </trkpt>
      <trkpt lat="45.9878" lon="4.87572">
        <ele>269</ele>
        <time>2016-09-20T09:07:04Z</time>
      </trkpt>
      <trkpt lat="45.98785" lon="4.87577">
        <ele>269</ele>
        <time>2016-09-20T09:07:05Z</time>
      </trkpt>
      <trkpt lat="45.9879" lon="4.87583">
        <ele>269</ele>
        <time>2016-09-20T09:07:06Z</time>
      </trkpt>
      <trkpt lat="45.98794" lon="4.87588">
        <ele>271</ele>
        <time>2016-09-20T09:07:07Z</time>
      </trkpt>
      <trkpt lat="45.98797" lon="4.87595">
        <ele>271</ele>
        <time>2016-09-20T09:07:08Z</time>
      </trkpt>
      <trkpt lat="45.98801" lon="4.87601">
        <ele>271</ele>
        <time>2016-09-20T09:07:09Z</time>
      </trkpt>
      <trkpt lat="45.98805" lon="4.87606">
        <ele>271</ele>
        <time>2016-09-20T09:07:10Z</time>
      </trkpt>
      <trkpt lat="45.98809" lon="4.87611">
        <ele>271</ele>
        <time>2016-09-20T09:07:11Z</time>
      </trkpt>
      <trkpt lat="45.98812" lon="4.87618">
        <ele>271</ele>
        <time>2016-09-20T09:07:12Z</time>
      </trkpt>
      <trkpt lat="45.98815" lon="4.87625">
        <ele>271</ele>
        <time>2016-09-20T09:07:13Z</time>
      </trkpt>
      <trkpt lat="45.98817" lon="4.87632">
        <ele>272</ele>
        <time>2016-09-20T09:07:14Z</time>
      </trkpt>
      <trkpt lat="45.98818" lon="4.8764">
        <ele>272</ele>
        <time>2016-09-20T09:07:15Z</time>
      </trkpt>
      <trkpt lat="45.98821" lon="4.87648">
        <ele>272</ele>
        <time>2016-09-20T09:07:16Z</time>
      </trkpt>
      <trkpt lat="45.98823" lon="4.87657">
        <ele>272</ele>
        <time>2016-09-20T09:07:17Z</time>
      </trkpt>
      <trkpt lat="45.98826" lon="4.87665">
        <ele>272</ele>
        <time>2016-09-20T09:07:18Z</time>
      </trkpt>
      <trkpt lat="45.98828" lon="4.87673">
        <ele>272</ele>
        <time>2016-09-20T09:07:19Z</time>
      </trkpt>
      <trkpt lat="45.9883" lon="4.87681">
        <ele>273</ele>
        <time>2016-09-20T09:07:20Z</time>
      </trkpt>
      <trkpt lat="45.98832" lon="4.87689">
        <ele>273</ele>
        <time>2016-09-20T09:07:21Z</time>
      </trkpt>
      <trkpt lat="45.98833" lon="4.87697">
        <ele>273</ele>
        <time>2016-09-20T09:07:22Z</time>
      </trkpt>
      <trkpt lat="45.98835" lon="4.87705">
        <ele>273</ele>
        <time>2016-09-20T09:07:23Z</time>
      </trkpt>
      <trkpt lat="45.98837" lon="4.87714">
        <ele>273</ele>
        <time>2016-09-20T09:07:24Z</time>
      </trkpt>
      <trkpt lat="45.98838" lon="4.87722">
        <ele>273</ele>
        <time>2016-09-20T09:07:25Z</time>
      </trkpt>
      <trkpt lat="45.9884" lon="4.8773">
        <ele>273</ele>
        <time>2016-09-20T09:07:26Z</time>
      </trkpt>
      <trkpt lat="45.98842" lon="4.87737">
        <ele>273</ele>
        <time>2016-09-20T09:07:27Z</time>
      </trkpt>
      <trkpt lat="45.98844" lon="4.87747">
        <ele>273</ele>
        <time>2016-09-20T09:07:28Z</time>
      </trkpt>
      <trkpt lat="45.98846" lon="4.87756">
        <ele>273</ele>
        <time>2016-09-20T09:07:29Z</time>
      </trkpt>
      <trkpt lat="45.98848" lon="4.87765">
        <ele>273</ele>
        <time>2016-09-20T09:07:30Z</time>
      </trkpt>
      <trkpt lat="45.9885" lon="4.87773">
        <ele>273</ele>
        <time>2016-09-20T09:07:31Z</time>
      </trkpt>
      <trkpt lat="45.98852" lon="4.8778">
        <ele>273</ele>
        <time>2016-09-20T09:07:32Z</time>
      </trkpt>
      <trkpt lat="45.98855" lon="4.87788">
        <ele>273</ele>
        <time>2016-09-20T09:07:33Z</time>
      </trkpt>
      <trkpt lat="45.98857" lon="4.87795">
        <ele>273</ele>
        <time>2016-09-20T09:07:34Z</time>
      </trkpt>
      <trkpt lat="45.9886" lon="4.87801">
        <ele>273</ele>
        <time>2016-09-20T09:07:35Z</time>
      </trkpt>
      <trkpt lat="45.98864" lon="4.87809">
        <ele>273</ele>
        <time>2016-09-20T09:07:36Z</time>
      </trkpt>
      <trkpt lat="45.98867" lon="4.87815">
        <ele>273</ele>
        <time>2016-09-20T09:07:37Z</time>
      </trkpt>
      <trkpt lat="45.98869" lon="4.87822">
        <ele>273</ele>
        <time>2016-09-20T09:07:38Z</time>
      </trkpt>
      <trkpt lat="45.98871" lon="4.87828">
        <ele>273</ele>
        <time>2016-09-20T09:07:39Z</time>
      </trkpt>
      <trkpt lat="45.98873" lon="4.87835">
        <ele>273</ele>
        <time>2016-09-20T09:07:40Z</time>
      </trkpt>
      <trkpt lat="45.98875" lon="4.8784">
        <ele>272</ele>
        <time>2016-09-20T09:07:41Z</time>
      </trkpt>
      <trkpt lat="45.98878" lon="4.87846">
        <ele>272</ele>
        <time>2016-09-20T09:07:42Z</time>
      </trkpt>
      <trkpt lat="45.98883" lon="4.87856">
        <ele>272</ele>
        <time>2016-09-20T09:07:44Z</time>
      </trkpt>
      <trkpt lat="45.98885" lon="4.87861">
        <ele>272</ele>
        <time>2016-09-20T09:07:45Z</time>
      </trkpt>
      <trkpt lat="45.98887" lon="4.87867">
        <ele>272</ele>
        <time>2016-09-20T09:07:46Z</time>
      </trkpt>
      <trkpt lat="45.98891" lon="4.87873">
        <ele>272</ele>
        <time>2016-09-20T09:07:47Z</time>
      </trkpt>
      <trkpt lat="45.98894" lon="4.87879">
        <ele>272</ele>
        <time>2016-09-20T09:07:48Z</time>
      </trkpt>
      <trkpt lat="45.98897" lon="4.87884">
        <ele>272</ele>
        <time>2016-09-20T09:07:49Z</time>
      </trkpt>
      <trkpt lat="45.98903" lon="4.87892">
        <ele>272</ele>
        <time>2016-09-20T09:07:51Z</time>
      </trkpt>
      <trkpt lat="45.98906" lon="4.87896">
        <ele>272</ele>
        <time>2016-09-20T09:07:52Z</time>
      </trkpt>
      <trkpt lat="45.9891" lon="4.87901">
        <ele>272</ele>
        <time>2016-09-20T09:07:53Z</time>
      </trkpt>
      <trkpt lat="45.98914" lon="4.87905">
        <ele>272</ele>
        <time>2016-09-20T09:07:54Z</time>
      </trkpt>
      <trkpt lat="45.98918" lon="4.87909">
        <ele>272</ele>
        <time>2016-09-20T09:07:55Z</time>
      </trkpt>
      <trkpt lat="45.98922" lon="4.87913">
        <ele>272</ele>
        <time>2016-09-20T09:07:56Z</time>
      </trkpt>
      <trkpt lat="45.98927" lon="4.87916">
        <ele>272</ele>
        <time>2016-09-20T09:07:57Z</time>
      </trkpt>
      <trkpt lat="45.98931" lon="4.87919">
        <ele>272</ele>
        <time>2016-09-20T09:07:58Z</time>
      </trkpt>
      <trkpt lat="45.98936" lon="4.87922">
        <ele>272</ele>
        <time>2016-09-20T09:07:59Z</time>
      </trkpt>
      <trkpt lat="45.9894" lon="4.87925">
        <ele>273</ele>
        <time>2016-09-20T09:08:00Z</time>
      </trkpt>
      <trkpt lat="45.98949" lon="4.8793">
        <ele>273</ele>
        <time>2016-09-20T09:08:02Z</time>
      </trkpt>
      <trkpt lat="45.98953" lon="4.87933">
        <ele>273</ele>
        <time>2016-09-20T09:08:03Z</time>
      </trkpt>
      <trkpt lat="45.9896" lon="4.87937">
        <ele>273</ele>
        <time>2016-09-20T09:08:05Z</time>
      </trkpt>
      <trkpt lat="45.98964" lon="4.8794">
        <ele>274</ele>
        <time>2016-09-20T09:08:06Z</time>
      </trkpt>
      <trkpt lat="45.98972" lon="4.87943">
        <ele>274</ele>
        <time>2016-09-20T09:08:08Z</time>
      </trkpt>
      <trkpt lat="45.98976" lon="4.87945">
        <ele>274</ele>
        <time>2016-09-20T09:08:09Z</time>
      </trkpt>
      <trkpt lat="45.98981" lon="4.87947">
        <ele>274</ele>
        <time>2016-09-20T09:08:10Z</time>
      </trkpt>
      <trkpt lat="45.98985" lon="4.8795">
        <ele>274</ele>
        <time>2016-09-20T09:08:11Z</time>
      </trkpt>
      <trkpt lat="45.98993" lon="4.87954">
        <ele>274</ele>
        <time>2016-09-20T09:08:13Z</time>
      </trkpt>
      <trkpt lat="45.98997" lon="4.87955">
        <ele>274</ele>
        <time>2016-09-20T09:08:14Z</time>
      </trkpt>
      <trkpt lat="45.99005" lon="4.8796">
        <ele>276</ele>
        <time>2016-09-20T09:08:16Z</time>
      </trkpt>
      <trkpt lat="45.99008" lon="4.87962">
        <ele>276</ele>
        <time>2016-09-20T09:08:17Z</time>
      </trkpt>
      <trkpt lat="45.99016" lon="4.87966">
        <ele>276</ele>
        <time>2016-09-20T09:08:19Z</time>
      </trkpt>
      <trkpt lat="45.99019" lon="4.87968">
        <ele>276</ele>
        <time>2016-09-20T09:08:20Z</time>
      </trkpt>
      <trkpt lat="45.99027" lon="4.87973">
        <ele>276</ele>
        <time>2016-09-20T09:08:22Z</time>
      </trkpt>
      <trkpt lat="45.99031" lon="4.87976">
        <ele>276</ele>
        <time>2016-09-20T09:08:23Z</time>
      </trkpt>
      <trkpt lat="45.99038" lon="4.87981">
        <ele>276</ele>
        <time>2016-09-20T09:08:25Z</time>
      </trkpt>
      <trkpt lat="45.99042" lon="4.87983">
        <ele>277</ele>
        <time>2016-09-20T09:08:26Z</time>
      </trkpt>
      <trkpt lat="45.9905" lon="4.87988">
        <ele>277</ele>
        <time>2016-09-20T09:08:28Z</time>
      </trkpt>
      <trkpt lat="45.99054" lon="4.8799">
        <ele>277</ele>
        <time>2016-09-20T09:08:29Z</time>
      </trkpt>
      <trkpt lat="45.99059" lon="4.87993">
        <ele>277</ele>
        <time>2016-09-20T09:08:30Z</time>
      </trkpt>
      <trkpt lat="45.99063" lon="4.87996">
        <ele>277</ele>
        <time>2016-09-20T09:08:31Z</time>
      </trkpt>
      <trkpt lat="45.99071" lon="4.88001">
        <ele>277</ele>
        <time>2016-09-20T09:08:33Z</time>
      </trkpt>
      <trkpt lat="45.99075" lon="4.88003">
        <ele>278</ele>
        <time>2016-09-20T09:08:34Z</time>
      </trkpt>
      <trkpt lat="45.99083" lon="4.88007">
        <ele>278</ele>
        <time>2016-09-20T09:08:36Z</time>
      </trkpt>
      <trkpt lat="45.99087" lon="4.88009">
        <ele>278</ele>
        <time>2016-09-20T09:08:37Z</time>
      </trkpt>
      <trkpt lat="45.99091" lon="4.88011">
        <ele>278</ele>
        <time>2016-09-20T09:08:38Z</time>
      </trkpt>
      <trkpt lat="45.99096" lon="4.88013">
        <ele>278</ele>
        <time>2016-09-20T09:08:39Z</time>
      </trkpt>
      <trkpt lat="45.99104" lon="4.88017">
        <ele>278</ele>
        <time>2016-09-20T09:08:41Z</time>
      </trkpt>
      <trkpt lat="45.99108" lon="4.8802">
        <ele>278</ele>
        <time>2016-09-20T09:08:42Z</time>
      </trkpt>
      <trkpt lat="45.99117" lon="4.88024">
        <ele>278</ele>
        <time>2016-09-20T09:08:44Z</time>
      </trkpt>
      <trkpt lat="45.9912" lon="4.88026">
        <ele>278</ele>
        <time>2016-09-20T09:08:45Z</time>
      </trkpt>
      <trkpt lat="45.99128" lon="4.88031">
        <ele>279</ele>
        <time>2016-09-20T09:08:47Z</time>
      </trkpt>
      <trkpt lat="45.99133" lon="4.88034">
        <ele>279</ele>
        <time>2016-09-20T09:08:48Z</time>
      </trkpt>
      <trkpt lat="45.9914" lon="4.88038">
        <ele>279</ele>
        <time>2016-09-20T09:08:50Z</time>
      </trkpt>
      <trkpt lat="45.99144" lon="4.88041">
        <ele>279</ele>
        <time>2016-09-20T09:08:51Z</time>
      </trkpt>
      <trkpt lat="45.99152" lon="4.88047">
        <ele>279</ele>
        <time>2016-09-20T09:08:53Z</time>
      </trkpt>
      <trkpt lat="45.99156" lon="4.8805">
        <ele>279</ele>
        <time>2016-09-20T09:08:54Z</time>
      </trkpt>
      <trkpt lat="45.99164" lon="4.88055">
        <ele>279</ele>
        <time>2016-09-20T09:08:56Z</time>
      </trkpt>
      <trkpt lat="45.99167" lon="4.88058">
        <ele>279</ele>
        <time>2016-09-20T09:08:57Z</time>
      </trkpt>
      <trkpt lat="45.99175" lon="4.88064">
        <ele>279</ele>
        <time>2016-09-20T09:08:59Z</time>
      </trkpt>
      <trkpt lat="45.99178" lon="4.88068">
        <ele>279</ele>
        <time>2016-09-20T09:09:00Z</time>
      </trkpt>
      <trkpt lat="45.99186" lon="4.88075">
        <ele>279</ele>
        <time>2016-09-20T09:09:02Z</time>
      </trkpt>
      <trkpt lat="45.99189" lon="4.88077">
        <ele>280</ele>
        <time>2016-09-20T09:09:03Z</time>
      </trkpt>
      <trkpt lat="45.99196" lon="4.88084">
        <ele>280</ele>
        <time>2016-09-20T09:09:05Z</time>
      </trkpt>
      <trkpt lat="45.992" lon="4.88087">
        <ele>280</ele>
        <time>2016-09-20T09:09:06Z</time>
      </trkpt>
      <trkpt lat="45.99207" lon="4.88093">
        <ele>280</ele>
        <time>2016-09-20T09:09:08Z</time>
      </trkpt>
      <trkpt lat="45.99211" lon="4.88096">
        <ele>280</ele>
        <time>2016-09-20T09:09:09Z</time>
      </trkpt>
      <trkpt lat="45.99215" lon="4.881">
        <ele>280</ele>
        <time>2016-09-20T09:09:10Z</time>
      </trkpt>
      <trkpt lat="45.99219" lon="4.88103">
        <ele>280</ele>
        <time>2016-09-20T09:09:11Z</time>
      </trkpt>
      <trkpt lat="45.99226" lon="4.8811">
        <ele>280</ele>
        <time>2016-09-20T09:09:13Z</time>
      </trkpt>
      <trkpt lat="45.9923" lon="4.88113">
        <ele>280</ele>
        <time>2016-09-20T09:09:14Z</time>
      </trkpt>
      <trkpt lat="45.99237" lon="4.8812">
        <ele>280</ele>
        <time>2016-09-20T09:09:16Z</time>
      </trkpt>
      <trkpt lat="45.99241" lon="4.88123">
        <ele>280</ele>
        <time>2016-09-20T09:09:17Z</time>
      </trkpt>
      <trkpt lat="45.99248" lon="4.8813">
        <ele>280</ele>
        <time>2016-09-20T09:09:19Z</time>
      </trkpt>
      <trkpt lat="45.99251" lon="4.88133">
        <ele>283</ele>
        <time>2016-09-20T09:09:20Z</time>
      </trkpt>
      <trkpt lat="45.99255" lon="4.88136">
        <ele>283</ele>
        <time>2016-09-20T09:09:21Z</time>
      </trkpt>
      <trkpt lat="45.99259" lon="4.8814">
        <ele>283</ele>
        <time>2016-09-20T09:09:22Z</time>
      </trkpt>
      <trkpt lat="45.99267" lon="4.88146">
        <ele>283</ele>
        <time>2016-09-20T09:09:24Z</time>
      </trkpt>
      <trkpt lat="45.99271" lon="4.88149">
        <ele>283</ele>
        <time>2016-09-20T09:09:25Z</time>
      </trkpt>
      <trkpt lat="45.99278" lon="4.88155">
        <ele>283</ele>
        <time>2016-09-20T09:09:27Z</time>
      </trkpt>
      <trkpt lat="45.99282" lon="4.88158">
        <ele>284</ele>
        <time>2016-09-20T09:09:28Z</time>
      </trkpt>
      <trkpt lat="45.99289" lon="4.88165">
        <ele>284</ele>
        <time>2016-09-20T09:09:30Z</time>
      </trkpt>
      <trkpt lat="45.99293" lon="4.88168">
        <ele>284</ele>
        <time>2016-09-20T09:09:31Z</time>
      </trkpt>
      <trkpt lat="45.99297" lon="4.88172">
        <ele>284</ele>
        <time>2016-09-20T09:09:32Z</time>
      </trkpt>
      <trkpt lat="45.99302" lon="4.88176">
        <ele>285</ele>
        <time>2016-09-20T09:09:33Z</time>
      </trkpt>
      <trkpt lat="45.99305" lon="4.8818">
        <ele>285</ele>
        <time>2016-09-20T09:09:34Z</time>
      </trkpt>
      <trkpt lat="45.99309" lon="4.88183">
        <ele>285</ele>
        <time>2016-09-20T09:09:35Z</time>
      </trkpt>
      <trkpt lat="45.99313" lon="4.88186">
        <ele>285</ele>
        <time>2016-09-20T09:09:36Z</time>
      </trkpt>
      <trkpt lat="45.99317" lon="4.8819">
        <ele>285</ele>
        <time>2016-09-20T09:09:37Z</time>
      </trkpt>
      <trkpt lat="45.99321" lon="4.88193">
        <ele>285</ele>
        <time>2016-09-20T09:09:38Z</time>
      </trkpt>
      <trkpt lat="45.99324" lon="4.88197">
        <ele>285</ele>
        <time>2016-09-20T09:09:39Z</time>
      </trkpt>
      <trkpt lat="45.99329" lon="4.882">
        <ele>285</ele>
        <time>2016-09-20T09:09:40Z</time>
      </trkpt>
      <trkpt lat="45.99333" lon="4.88204">
        <ele>285</ele>
        <time>2016-09-20T09:09:41Z</time>
      </trkpt>
      <trkpt lat="45.99336" lon="4.88208">
        <ele>287</ele>
        <time>2016-09-20T09:09:42Z</time>
      </trkpt>
      <trkpt lat="45.99341" lon="4.88212">
        <ele>287</ele>
        <time>2016-09-20T09:09:43Z</time>
      </trkpt>
      <trkpt lat="45.99345" lon="4.88215">
        <ele>287</ele>
        <time>2016-09-20T09:09:44Z</time>
      </trkpt>
      <trkpt lat="45.99349" lon="4.88218">
        <ele>287</ele>
        <time>2016-09-20T09:09:45Z</time>
      </trkpt>
      <trkpt lat="45.99353" lon="4.88222">
        <ele>287</ele>
        <time>2016-09-20T09:09:46Z</time>
      </trkpt>
      <trkpt lat="45.99357" lon="4.88226">
        <ele>287</ele>
        <time>2016-09-20T09:09:47Z</time>
      </trkpt>
      <trkpt lat="45.99361" lon="4.8823">
        <ele>287</ele>
        <time>2016-09-20T09:09:48Z</time>
      </trkpt>
      <trkpt lat="45.99365" lon="4.88234">
        <ele>287</ele>
        <time>2016-09-20T09:09:49Z</time>
      </trkpt>
      <trkpt lat="45.99368" lon="4.88238">
        <ele>287</ele>
        <time>2016-09-20T09:09:50Z</time>
      </trkpt>
      <trkpt lat="45.99372" lon="4.88243">
        <ele>287</ele>
        <time>2016-09-20T09:09:51Z</time>
      </trkpt>
      <trkpt lat="45.99375" lon="4.88248">
        <ele>287</ele>
        <time>2016-09-20T09:09:52Z</time>
      </trkpt>
      <trkpt lat="45.99379" lon="4.88253">
        <ele>285</ele>
        <time>2016-09-20T09:09:53Z</time>
      </trkpt>
      <trkpt lat="45.9938" lon="4.8826">
        <ele>285</ele>
        <time>2016-09-20T09:09:54Z</time>
      </trkpt>
      <trkpt lat="45.99383" lon="4.88266">
        <ele>285</ele>
        <time>2016-09-20T09:09:55Z</time>
      </trkpt>
      <trkpt lat="45.99386" lon="4.88271">
        <ele>285</ele>
        <time>2016-09-20T09:09:56Z</time>
      </trkpt>
      <trkpt lat="45.99389" lon="4.88277">
        <ele>284</ele>
        <time>2016-09-20T09:09:57Z</time>
      </trkpt>
      <trkpt lat="45.99392" lon="4.88283">
        <ele>284</ele>
        <time>2016-09-20T09:09:58Z</time>
      </trkpt>
      <trkpt lat="45.99395" lon="4.88289">
        <ele>284</ele>
        <time>2016-09-20T09:09:59Z</time>
      </trkpt>
      <trkpt lat="45.99398" lon="4.88295">
        <ele>284</ele>
        <time>2016-09-20T09:10:00Z</time>
      </trkpt>
      <trkpt lat="45.994" lon="4.88302">
        <ele>284</ele>
        <time>2016-09-20T09:10:01Z</time>
      </trkpt>
      <trkpt lat="45.99402" lon="4.88308">
        <ele>283</ele>
        <time>2016-09-20T09:10:02Z</time>
      </trkpt>
      <trkpt lat="45.99405" lon="4.88314">
        <ele>283</ele>
        <time>2016-09-20T09:10:03Z</time>
      </trkpt>
      <trkpt lat="45.99408" lon="4.88321">
        <ele>283</ele>
        <time>2016-09-20T09:10:04Z</time>
      </trkpt>
      <trkpt lat="45.9941" lon="4.88327">
        <ele>283</ele>
        <time>2016-09-20T09:10:05Z</time>
      </trkpt>
      <trkpt lat="45.99413" lon="4.88334">
        <ele>282</ele>
        <time>2016-09-20T09:10:06Z</time>
      </trkpt>
      <trkpt lat="45.99415" lon="4.8834">
        <ele>282</ele>
        <time>2016-09-20T09:10:07Z</time>
      </trkpt>
      <trkpt lat="45.99417" lon="4.88347">
        <ele>282</ele>
        <time>2016-09-20T09:10:08Z</time>
      </trkpt>
      <trkpt lat="45.99419" lon="4.88353">
        <ele>283</ele>
        <time>2016-09-20T09:10:09Z</time>
      </trkpt>
      <trkpt lat="45.99421" lon="4.8836">
        <ele>283</ele>
        <time>2016-09-20T09:10:10Z</time>
      </trkpt>
      <trkpt lat="45.99424" lon="4.88367">
        <ele>283</ele>
        <time>2016-09-20T09:10:11Z</time>
      </trkpt>
      <trkpt lat="45.99427" lon="4.88374">
        <ele>283</ele>
        <time>2016-09-20T09:10:12Z</time>
      </trkpt>
      <trkpt lat="45.9943" lon="4.88381">
        <ele>283</ele>
        <time>2016-09-20T09:10:13Z</time>
      </trkpt>
      <trkpt lat="45.99433" lon="4.88387">
        <ele>283</ele>
        <time>2016-09-20T09:10:14Z</time>
      </trkpt>
      <trkpt lat="45.99436" lon="4.88394">
        <ele>283</ele>
        <time>2016-09-20T09:10:15Z</time>
      </trkpt>
      <trkpt lat="45.9944" lon="4.88399">
        <ele>283</ele>
        <time>2016-09-20T09:10:16Z</time>
      </trkpt>
      <trkpt lat="45.99444" lon="4.88405">
        <ele>283</ele>
        <time>2016-09-20T09:10:17Z</time>
      </trkpt>
      <trkpt lat="45.99448" lon="4.8841">
        <ele>283</ele>
        <time>2016-09-20T09:10:18Z</time>
      </trkpt>
      <trkpt lat="45.99453" lon="4.88414">
        <ele>283</ele>
        <time>2016-09-20T09:10:19Z</time>
      </trkpt>
      <trkpt lat="45.99458" lon="4.88419">
        <ele>283</ele>
        <time>2016-09-20T09:10:20Z</time>
      </trkpt>
      <trkpt lat="45.99463" lon="4.88423">
        <ele>284</ele>
        <time>2016-09-20T09:10:21Z</time>
      </trkpt>
      <trkpt lat="45.99468" lon="4.88428">
        <ele>284</ele>
        <time>2016-09-20T09:10:22Z</time>
      </trkpt>
      <trkpt lat="45.99472" lon="4.88432">
        <ele>284</ele>
        <time>2016-09-20T09:10:23Z</time>
      </trkpt>
      <trkpt lat="45.99476" lon="4.88437">
        <ele>284</ele>
        <time>2016-09-20T09:10:24Z</time>
      </trkpt>
      <trkpt lat="45.9948" lon="4.88441">
        <ele>284</ele>
        <time>2016-09-20T09:10:25Z</time>
      </trkpt>
      <trkpt lat="45.99484" lon="4.88446">
        <ele>284</ele>
        <time>2016-09-20T09:10:26Z</time>
      </trkpt>
      <trkpt lat="45.99487" lon="4.88452">
        <ele>284</ele>
        <time>2016-09-20T09:10:27Z</time>
      </trkpt>
      <trkpt lat="45.99491" lon="4.88458">
        <ele>284</ele>
        <time>2016-09-20T09:10:28Z</time>
      </trkpt>
      <trkpt lat="45.99494" lon="4.88464">
        <ele>284</ele>
        <time>2016-09-20T09:10:29Z</time>
      </trkpt>
      <trkpt lat="45.99498" lon="4.8847">
        <ele>284</ele>
        <time>2016-09-20T09:10:30Z</time>
      </trkpt>
      <trkpt lat="45.99501" lon="4.88476">
        <ele>284</ele>
        <time>2016-09-20T09:10:31Z</time>
      </trkpt>
      <trkpt lat="45.99504" lon="4.88482">
        <ele>284</ele>
        <time>2016-09-20T09:10:32Z</time>
      </trkpt>
      <trkpt lat="45.99508" lon="4.88487">
        <ele>284</ele>
        <time>2016-09-20T09:10:33Z</time>
      </trkpt>
      <trkpt lat="45.9951" lon="4.88494">
        <ele>284</ele>
        <time>2016-09-20T09:10:34Z</time>
      </trkpt>
      <trkpt lat="45.99513" lon="4.885">
        <ele>284</ele>
        <time>2016-09-20T09:10:35Z</time>
      </trkpt>
      <trkpt lat="45.99516" lon="4.88506">
        <ele>285</ele>
        <time>2016-09-20T09:10:36Z</time>
      </trkpt>
      <trkpt lat="45.99519" lon="4.88513">
        <ele>285</ele>
        <time>2016-09-20T09:10:37Z</time>
      </trkpt>
      <trkpt lat="45.99522" lon="4.8852">
        <ele>285</ele>
        <time>2016-09-20T09:10:38Z</time>
      </trkpt>
      <trkpt lat="45.99525" lon="4.88526">
        <ele>285</ele>
        <time>2016-09-20T09:10:39Z</time>
      </trkpt>
      <trkpt lat="45.99527" lon="4.88533">
        <ele>285</ele>
        <time>2016-09-20T09:10:40Z</time>
      </trkpt>
      <trkpt lat="45.99531" lon="4.88539">
        <ele>285</ele>
        <time>2016-09-20T09:10:41Z</time>
      </trkpt>
      <trkpt lat="45.99534" lon="4.88546">
        <ele>285</ele>
        <time>2016-09-20T09:10:42Z</time>
      </trkpt>
      <trkpt lat="45.99537" lon="4.88552">
        <ele>285</ele>
        <time>2016-09-20T09:10:43Z</time>
      </trkpt>
      <trkpt lat="45.9954" lon="4.88559">
        <ele>285</ele>
        <time>2016-09-20T09:10:44Z</time>
      </trkpt>
      <trkpt lat="45.99542" lon="4.88566">
        <ele>285</ele>
        <time>2016-09-20T09:10:45Z</time>
      </trkpt>
      <trkpt lat="45.99544" lon="4.88573">
        <ele>286</ele>
        <time>2016-09-20T09:10:46Z</time>
      </trkpt>
      <trkpt lat="45.99546" lon="4.8858">
        <ele>286</ele>
        <time>2016-09-20T09:10:47Z</time>
      </trkpt>
      <trkpt lat="45.99547" lon="4.88588">
        <ele>286</ele>
        <time>2016-09-20T09:10:48Z</time>
      </trkpt>
      <trkpt lat="45.99549" lon="4.88595">
        <ele>286</ele>
        <time>2016-09-20T09:10:49Z</time>
      </trkpt>
      <trkpt lat="45.9955" lon="4.88603">
        <ele>286</ele>
        <time>2016-09-20T09:10:50Z</time>
      </trkpt>
      <trkpt lat="45.9955" lon="4.88611">
        <ele>286</ele>
        <time>2016-09-20T09:10:51Z</time>
      </trkpt>
      <trkpt lat="45.99551" lon="4.88618">
        <ele>286</ele>
        <time>2016-09-20T09:10:52Z</time>
      </trkpt>
      <trkpt lat="45.99552" lon="4.88626">
        <ele>286</ele>
        <time>2016-09-20T09:10:53Z</time>
      </trkpt>
      <trkpt lat="45.99553" lon="4.88634">
        <ele>286</ele>
        <time>2016-09-20T09:10:54Z</time>
      </trkpt>
      <trkpt lat="45.99553" lon="4.88641">
        <ele>286</ele>
        <time>2016-09-20T09:10:55Z</time>
      </trkpt>
      <trkpt lat="45.99554" lon="4.88648">
        <ele>286</ele>
        <time>2016-09-20T09:10:56Z</time>
      </trkpt>
      <trkpt lat="45.99554" lon="4.88655">
        <ele>286</ele>
        <time>2016-09-20T09:10:57Z</time>
      </trkpt>
      <trkpt lat="45.99556" lon="4.88662">
        <ele>286</ele>
        <time>2016-09-20T09:10:58Z</time>
      </trkpt>
      <trkpt lat="45.99557" lon="4.88669">
        <ele>286</ele>
        <time>2016-09-20T09:10:59Z</time>
      </trkpt>
      <trkpt lat="45.99558" lon="4.88677">
        <ele>286</ele>
        <time>2016-09-20T09:11:00Z</time>
      </trkpt>
      <trkpt lat="45.99558" lon="4.88684">
        <ele>286</ele>
        <time>2016-09-20T09:11:01Z</time>
      </trkpt>
      <trkpt lat="45.99559" lon="4.88691">
        <ele>286</ele>
        <time>2016-09-20T09:11:02Z</time>
      </trkpt>
      <trkpt lat="45.99559" lon="4.88698">
        <ele>286</ele>
        <time>2016-09-20T09:11:03Z</time>
      </trkpt>
      <trkpt lat="45.9956" lon="4.88705">
        <ele>286</ele>
        <time>2016-09-20T09:11:04Z</time>
      </trkpt>
      <trkpt lat="45.99561" lon="4.88713">
        <ele>286</ele>
        <time>2016-09-20T09:11:05Z</time>
      </trkpt>
      <trkpt lat="45.99562" lon="4.8872">
        <ele>286</ele>
        <time>2016-09-20T09:11:06Z</time>
      </trkpt>
      <trkpt lat="45.99563" lon="4.88727">
        <ele>286</ele>
        <time>2016-09-20T09:11:07Z</time>
      </trkpt>
      <trkpt lat="45.99564" lon="4.88734">
        <ele>287</ele>
        <time>2016-09-20T09:11:08Z</time>
      </trkpt>
      <trkpt lat="45.99565" lon="4.88741">
        <ele>287</ele>
        <time>2016-09-20T09:11:09Z</time>
      </trkpt>
      <trkpt lat="45.99565" lon="4.88748">
        <ele>287</ele>
        <time>2016-09-20T09:11:10Z</time>
      </trkpt>
      <trkpt lat="45.99565" lon="4.88755">
        <ele>287</ele>
        <time>2016-09-20T09:11:11Z</time>
      </trkpt>
      <trkpt lat="45.99566" lon="4.88762">
        <ele>287</ele>
        <time>2016-09-20T09:11:12Z</time>
      </trkpt>
      <trkpt lat="45.99567" lon="4.88769">
        <ele>287</ele>
        <time>2016-09-20T09:11:13Z</time>
      </trkpt>
      <trkpt lat="45.99568" lon="4.88777">
        <ele>287</ele>
        <time>2016-09-20T09:11:14Z</time>
      </trkpt>
      <trkpt lat="45.99569" lon="4.88784">
        <ele>287</ele>
        <time>2016-09-20T09:11:15Z</time>
      </trkpt>
      <trkpt lat="45.99569" lon="4.88792">
        <ele>287</ele>
        <time>2016-09-20T09:11:16Z</time>
      </trkpt>
      <trkpt lat="45.9957" lon="4.88799">
        <ele>287</ele>
        <time>2016-09-20T09:11:17Z</time>
      </trkpt>
      <trkpt lat="45.99571" lon="4.88806">
        <ele>287</ele>
        <time>2016-09-20T09:11:18Z</time>
      </trkpt>
      <trkpt lat="45.99572" lon="4.88814">
        <ele>287</ele>
        <time>2016-09-20T09:11:19Z</time>
      </trkpt>
      <trkpt lat="45.99572" lon="4.88822">
        <ele>287</ele>
        <time>2016-09-20T09:11:20Z</time>
      </trkpt>
      <trkpt lat="45.99573" lon="4.8883">
        <ele>287</ele>
        <time>2016-09-20T09:11:21Z</time>
      </trkpt>
      <trkpt lat="45.99574" lon="4.88837">
        <ele>287</ele>
        <time>2016-09-20T09:11:22Z</time>
      </trkpt>
      <trkpt lat="45.99575" lon="4.88845">
        <ele>287</ele>
        <time>2016-09-20T09:11:23Z</time>
      </trkpt>
      <trkpt lat="45.99576" lon="4.88853">
        <ele>287</ele>
        <time>2016-09-20T09:11:24Z</time>
      </trkpt>
      <trkpt lat="45.99576" lon="4.88861">
        <ele>287</ele>
        <time>2016-09-20T09:11:25Z</time>
      </trkpt>
      <trkpt lat="45.99577" lon="4.88868">
        <ele>287</ele>
        <time>2016-09-20T09:11:26Z</time>
      </trkpt>
      <trkpt lat="45.99578" lon="4.88876">
        <ele>287</ele>
        <time>2016-09-20T09:11:27Z</time>
      </trkpt>
      <trkpt lat="45.99579" lon="4.88885">
        <ele>287</ele>
        <time>2016-09-20T09:11:28Z</time>
      </trkpt>
      <trkpt lat="45.9958" lon="4.88892">
        <ele>287</ele>
        <time>2016-09-20T09:11:29Z</time>
      </trkpt>
      <trkpt lat="45.9958" lon="4.889">
        <ele>287</ele>
        <time>2016-09-20T09:11:30Z</time>
      </trkpt>
      <trkpt lat="45.99581" lon="4.88908">
        <ele>287</ele>
        <time>2016-09-20T09:11:31Z</time>
      </trkpt>
      <trkpt lat="45.99581" lon="4.88915">
        <ele>287</ele>
        <time>2016-09-20T09:11:32Z</time>
      </trkpt>
      <trkpt lat="45.99582" lon="4.88923">
        <ele>287</ele>
        <time>2016-09-20T09:11:33Z</time>
      </trkpt>
      <trkpt lat="45.99583" lon="4.8893">
        <ele>287</ele>
        <time>2016-09-20T09:11:34Z</time>
      </trkpt>
      <trkpt lat="45.99584" lon="4.88938">
        <ele>287</ele>
        <time>2016-09-20T09:11:35Z</time>
      </trkpt>
      <trkpt lat="45.99585" lon="4.88946">
        <ele>287</ele>
        <time>2016-09-20T09:11:36Z</time>
      </trkpt>
      <trkpt lat="45.99586" lon="4.88954">
        <ele>287</ele>
        <time>2016-09-20T09:11:37Z</time>
      </trkpt>
      <trkpt lat="45.99586" lon="4.88962">
        <ele>288</ele>
        <time>2016-09-20T09:11:38Z</time>
      </trkpt>
      <trkpt lat="45.99587" lon="4.88969">
        <ele>288</ele>
        <time>2016-09-20T09:11:39Z</time>
      </trkpt>
      <trkpt lat="45.99586" lon="4.88977">
        <ele>288</ele>
        <time>2016-09-20T09:11:40Z</time>
      </trkpt>
      <trkpt lat="45.99586" lon="4.88985">
        <ele>288</ele>
        <time>2016-09-20T09:11:41Z</time>
      </trkpt>
      <trkpt lat="45.99587" lon="4.88993">
        <ele>288</ele>
        <time>2016-09-20T09:11:42Z</time>
      </trkpt>
      <trkpt lat="45.99587" lon="4.89001">
        <ele>288</ele>
        <time>2016-09-20T09:11:43Z</time>
      </trkpt>
      <trkpt lat="45.99587" lon="4.89009">
        <ele>288</ele>
        <time>2016-09-20T09:11:44Z</time>
      </trkpt>
      <trkpt lat="45.99587" lon="4.89016">
        <ele>288</ele>
        <time>2016-09-20T09:11:45Z</time>
      </trkpt>
      <trkpt lat="45.99587" lon="4.89024">
        <ele>288</ele>
        <time>2016-09-20T09:11:46Z</time>
      </trkpt>
      <trkpt lat="45.99586" lon="4.89032">
        <ele>289</ele>
        <time>2016-09-20T09:11:47Z</time>
      </trkpt>
      <trkpt lat="45.99585" lon="4.8904">
        <ele>289</ele>
        <time>2016-09-20T09:11:48Z</time>
      </trkpt>
      <trkpt lat="45.99584" lon="4.89047">
        <ele>289</ele>
        <time>2016-09-20T09:11:49Z</time>
      </trkpt>
      <trkpt lat="45.99584" lon="4.89055">
        <ele>289</ele>
        <time>2016-09-20T09:11:50Z</time>
      </trkpt>
      <trkpt lat="45.99583" lon="4.89062">
        <ele>289</ele>
        <time>2016-09-20T09:11:51Z</time>
      </trkpt>
      <trkpt lat="45.99582" lon="4.89069">
        <ele>289</ele>
        <time>2016-09-20T09:11:52Z</time>
      </trkpt>
      <trkpt lat="45.99582" lon="4.89077">
        <ele>289</ele>
        <time>2016-09-20T09:11:53Z</time>
      </trkpt>
      <trkpt lat="45.99581" lon="4.89085">
        <ele>289</ele>
        <time>2016-09-20T09:11:54Z</time>
      </trkpt>
      <trkpt lat="45.99581" lon="4.89091">
        <ele>289</ele>
        <time>2016-09-20T09:11:55Z</time>
      </trkpt>
      <trkpt lat="45.9958" lon="4.89098">
        <ele>289</ele>
        <time>2016-09-20T09:11:56Z</time>
      </trkpt>
      <trkpt lat="45.9958" lon="4.89106">
        <ele>289</ele>
        <time>2016-09-20T09:11:57Z</time>
      </trkpt>
      <trkpt lat="45.99579" lon="4.89113">
        <ele>289</ele>
        <time>2016-09-20T09:11:58Z</time>
      </trkpt>
      <trkpt lat="45.9958" lon="4.89121">
        <ele>289</ele>
        <time>2016-09-20T09:11:59Z</time>
      </trkpt>
      <trkpt lat="45.9958" lon="4.89128">
        <ele>289</ele>
        <time>2016-09-20T09:12:00Z</time>
      </trkpt>
      <trkpt lat="45.99579" lon="4.89136">
        <ele>289</ele>
        <time>2016-09-20T09:12:01Z</time>
      </trkpt>
      <trkpt lat="45.99579" lon="4.89144">
        <ele>289</ele>
        <time>2016-09-20T09:12:02Z</time>
      </trkpt>
      <trkpt lat="45.9958" lon="4.89151">
        <ele>289</ele>
        <time>2016-09-20T09:12:03Z</time>
      </trkpt>
      <trkpt lat="45.9958" lon="4.89158">
        <ele>288</ele>
        <time>2016-09-20T09:12:04Z</time>
      </trkpt>
      <trkpt lat="45.99581" lon="4.89165">
        <ele>288</ele>
        <time>2016-09-20T09:12:05Z</time>
      </trkpt>
      <trkpt lat="45.99581" lon="4.89172">
        <ele>288</ele>
        <time>2016-09-20T09:12:06Z</time>
      </trkpt>
      <trkpt lat="45.99582" lon="4.8918">
        <ele>288</ele>
        <time>2016-09-20T09:12:07Z</time>
      </trkpt>
      <trkpt lat="45.99583" lon="4.89187">
        <ele>288</ele>
        <time>2016-09-20T09:12:08Z</time>
      </trkpt>
      <trkpt lat="45.99583" lon="4.89194">
        <ele>288</ele>
        <time>2016-09-20T09:12:09Z</time>
      </trkpt>
      <trkpt lat="45.99583" lon="4.89202">
        <ele>288</ele>
        <time>2016-09-20T09:12:10Z</time>
      </trkpt>
      <trkpt lat="45.99584" lon="4.89209">
        <ele>288</ele>
        <time>2016-09-20T09:12:11Z</time>
      </trkpt>
      <trkpt lat="45.99584" lon="4.89217">
        <ele>288</ele>
        <time>2016-09-20T09:12:12Z</time>
      </trkpt>
      <trkpt lat="45.99585" lon="4.89226">
        <ele>288</ele>
        <time>2016-09-20T09:12:13Z</time>
      </trkpt>
      <trkpt lat="45.99585" lon="4.89233">
        <ele>288</ele>
        <time>2016-09-20T09:12:14Z</time>
      </trkpt>
      <trkpt lat="45.99585" lon="4.89241">
        <ele>288</ele>
        <time>2016-09-20T09:12:15Z</time>
      </trkpt>
      <trkpt lat="45.99586" lon="4.89248">
        <ele>288</ele>
        <time>2016-09-20T09:12:16Z</time>
      </trkpt>
      <trkpt lat="45.99586" lon="4.89255">
        <ele>288</ele>
        <time>2016-09-20T09:12:17Z</time>
      </trkpt>
      <trkpt lat="45.99587" lon="4.89263">
        <ele>288</ele>
        <time>2016-09-20T09:12:18Z</time>
      </trkpt>
      <trkpt lat="45.99587" lon="4.89271">
        <ele>288</ele>
        <time>2016-09-20T09:12:19Z</time>
      </trkpt>
      <trkpt lat="45.99588" lon="4.89278">
        <ele>289</ele>
        <time>2016-09-20T09:12:20Z</time>
      </trkpt>
      <trkpt lat="45.99588" lon="4.89286">
        <ele>289</ele>
        <time>2016-09-20T09:12:21Z</time>
      </trkpt>
      <trkpt lat="45.99589" lon="4.89293">
        <ele>289</ele>
        <time>2016-09-20T09:12:22Z</time>
      </trkpt>
      <trkpt lat="45.99589" lon="4.89301">
        <ele>289</ele>
        <time>2016-09-20T09:12:23Z</time>
      </trkpt>
      <trkpt lat="45.9959" lon="4.89309">
        <ele>289</ele>
        <time>2016-09-20T09:12:24Z</time>
      </trkpt>
      <trkpt lat="45.9959" lon="4.89316">
        <ele>289</ele>
        <time>2016-09-20T09:12:25Z</time>
      </trkpt>
      <trkpt lat="45.9959" lon="4.89324">
        <ele>289</ele>
        <time>2016-09-20T09:12:26Z</time>
      </trkpt>
      <trkpt lat="45.99591" lon="4.89331">
        <ele>289</ele>
        <time>2016-09-20T09:12:27Z</time>
      </trkpt>
      <trkpt lat="45.99591" lon="4.89338">
        <ele>289</ele>
        <time>2016-09-20T09:12:28Z</time>
      </trkpt>
      <trkpt lat="45.99591" lon="4.89346">
        <ele>289</ele>
        <time>2016-09-20T09:12:29Z</time>
      </trkpt>
      <trkpt lat="45.99592" lon="4.89354">
        <ele>289</ele>
        <time>2016-09-20T09:12:30Z</time>
      </trkpt>
      <trkpt lat="45.99592" lon="4.89362">
        <ele>289</ele>
        <time>2016-09-20T09:12:31Z</time>
      </trkpt>
      <trkpt lat="45.99592" lon="4.89369">
        <ele>289</ele>
        <time>2016-09-20T09:12:32Z</time>
      </trkpt>
      <trkpt lat="45.99593" lon="4.89376">
        <ele>290</ele>
        <time>2016-09-20T09:12:33Z</time>
      </trkpt>
      <trkpt lat="45.99593" lon="4.89384">
        <ele>290</ele>
        <time>2016-09-20T09:12:34Z</time>
      </trkpt>
      <trkpt lat="45.99594" lon="4.89391">
        <ele>290</ele>
        <time>2016-09-20T09:12:35Z</time>
      </trkpt>
      <trkpt lat="45.99594" lon="4.89398">
        <ele>290</ele>
        <time>2016-09-20T09:12:36Z</time>
      </trkpt>
      <trkpt lat="45.99595" lon="4.89406">
        <ele>290</ele>
        <time>2016-09-20T09:12:37Z</time>
      </trkpt>
      <trkpt lat="45.99596" lon="4.89413">
        <ele>290</ele>
        <time>2016-09-20T09:12:38Z</time>
      </trkpt>
      <trkpt lat="45.99596" lon="4.8942">
        <ele>290</ele>
        <time>2016-09-20T09:12:39Z</time>
      </trkpt>
      <trkpt lat="45.99596" lon="4.89428">
        <ele>290</ele>
        <time>2016-09-20T09:12:40Z</time>
      </trkpt>
      <trkpt lat="45.99596" lon="4.89435">
        <ele>290</ele>
        <time>2016-09-20T09:12:41Z</time>
      </trkpt>
      <trkpt lat="45.99597" lon="4.89442">
        <ele>290</ele>
        <time>2016-09-20T09:12:42Z</time>
      </trkpt>
      <trkpt lat="45.99598" lon="4.8945">
        <ele>290</ele>
        <time>2016-09-20T09:12:43Z</time>
      </trkpt>
      <trkpt lat="45.99598" lon="4.89458">
        <ele>290</ele>
        <time>2016-09-20T09:12:44Z</time>
      </trkpt>
      <trkpt lat="45.99599" lon="4.89466">
        <ele>290</ele>
        <time>2016-09-20T09:12:45Z</time>
      </trkpt>
      <trkpt lat="45.99599" lon="4.89474">
        <ele>290</ele>
        <time>2016-09-20T09:12:46Z</time>
      </trkpt>
      <trkpt lat="45.99599" lon="4.89482">
        <ele>290</ele>
        <time>2016-09-20T09:12:47Z</time>
      </trkpt>
      <trkpt lat="45.996" lon="4.8949">
        <ele>290</ele>
        <time>2016-09-20T09:12:48Z</time>
      </trkpt>
      <trkpt lat="45.996" lon="4.89499">
        <ele>290</ele>
        <time>2016-09-20T09:12:49Z</time>
      </trkpt>
      <trkpt lat="45.996" lon="4.89507">
        <ele>290</ele>
        <time>2016-09-20T09:12:50Z</time>
      </trkpt>
      <trkpt lat="45.99601" lon="4.89516">
        <ele>290</ele>
        <time>2016-09-20T09:12:51Z</time>
      </trkpt>
      <trkpt lat="45.99601" lon="4.89524">
        <ele>291</ele>
        <time>2016-09-20T09:12:52Z</time>
      </trkpt>
      <trkpt lat="45.99601" lon="4.89533">
        <ele>291</ele>
        <time>2016-09-20T09:12:53Z</time>
      </trkpt>
      <trkpt lat="45.99602" lon="4.89541">
        <ele>291</ele>
        <time>2016-09-20T09:12:54Z</time>
      </trkpt>
      <trkpt lat="45.99603" lon="4.8955">
        <ele>291</ele>
        <time>2016-09-20T09:12:55Z</time>
      </trkpt>
      <trkpt lat="45.99602" lon="4.89558">
        <ele>291</ele>
        <time>2016-09-20T09:12:56Z</time>
      </trkpt>
      <trkpt lat="45.99603" lon="4.89568">
        <ele>291</ele>
        <time>2016-09-20T09:12:57Z</time>
      </trkpt>
      <trkpt lat="45.99604" lon="4.89577">
        <ele>291</ele>
        <time>2016-09-20T09:12:58Z</time>
      </trkpt>
      <trkpt lat="45.99604" lon="4.89585">
        <ele>292</ele>
        <time>2016-09-20T09:12:59Z</time>
      </trkpt>
      <trkpt lat="45.99605" lon="4.89592">
        <ele>292</ele>
        <time>2016-09-20T09:13:00Z</time>
      </trkpt>
      <trkpt lat="45.99605" lon="4.896">
        <ele>292</ele>
        <time>2016-09-20T09:13:01Z</time>
      </trkpt>
      <trkpt lat="45.99606" lon="4.89608">
        <ele>291</ele>
        <time>2016-09-20T09:13:02Z</time>
      </trkpt>
      <trkpt lat="45.99606" lon="4.89615">
        <ele>291</ele>
        <time>2016-09-20T09:13:03Z</time>
      </trkpt>
      <trkpt lat="45.99607" lon="4.89622">
        <ele>291</ele>
        <time>2016-09-20T09:13:04Z</time>
      </trkpt>
      <trkpt lat="45.99608" lon="4.89629">
        <ele>291</ele>
        <time>2016-09-20T09:13:05Z</time>
      </trkpt>
      <trkpt lat="45.99608" lon="4.89637">
        <ele>291</ele>
        <time>2016-09-20T09:13:06Z</time>
      </trkpt>
      <trkpt lat="45.99608" lon="4.89644">
        <ele>291</ele>
        <time>2016-09-20T09:13:07Z</time>
      </trkpt>
      <trkpt lat="45.99608" lon="4.89652">
        <ele>291</ele>
        <time>2016-09-20T09:13:08Z</time>
      </trkpt>
      <trkpt lat="45.99608" lon="4.89659">
        <ele>291</ele>
        <time>2016-09-20T09:13:09Z</time>
      </trkpt>
      <trkpt lat="45.99608" lon="4.89667">
        <ele>291</ele>
        <time>2016-09-20T09:13:10Z</time>
      </trkpt>
      <trkpt lat="45.99607" lon="4.89673">
        <ele>291</ele>
        <time>2016-09-20T09:13:11Z</time>
      </trkpt>
      <trkpt lat="45.99606" lon="4.89681">
        <ele>291</ele>
        <time>2016-09-20T09:13:12Z</time>
      </trkpt>
      <trkpt lat="45.99606" lon="4.89689">
        <ele>291</ele>
        <time>2016-09-20T09:13:13Z</time>
      </trkpt>
      <trkpt lat="45.99605" lon="4.89699">
        <ele>291</ele>
        <time>2016-09-20T09:13:14Z</time>
      </trkpt>
      <trkpt lat="45.99605" lon="4.89707">
        <ele>292</ele>
        <time>2016-09-20T09:13:15Z</time>
      </trkpt>
      <trkpt lat="45.99605" lon="4.89714">
        <ele>292</ele>
        <time>2016-09-20T09:13:16Z</time>
      </trkpt>
      <trkpt lat="45.99605" lon="4.89722">
        <ele>292</ele>
        <time>2016-09-20T09:13:17Z</time>
      </trkpt>
      <trkpt lat="45.99606" lon="4.8973">
        <ele>292</ele>
        <time>2016-09-20T09:13:18Z</time>
      </trkpt>
      <trkpt lat="45.99606" lon="4.89737">
        <ele>292</ele>
        <time>2016-09-20T09:13:19Z</time>
      </trkpt>
      <trkpt lat="45.99605" lon="4.89745">
        <ele>292</ele>
        <time>2016-09-20T09:13:20Z</time>
      </trkpt>
      <trkpt lat="45.99605" lon="4.89752">
        <ele>292</ele>
        <time>2016-09-20T09:13:21Z</time>
      </trkpt>
      <trkpt lat="45.99605" lon="4.89759">
        <ele>292</ele>
        <time>2016-09-20T09:13:22Z</time>
      </trkpt>
      <trkpt lat="45.99605" lon="4.89766">
        <ele>292</ele>
        <time>2016-09-20T09:13:23Z</time>
      </trkpt>
      <trkpt lat="45.99605" lon="4.89778">
        <ele>292</ele>
        <time>2016-09-20T09:13:25Z</time>
      </trkpt>
      <trkpt lat="45.99605" lon="4.89784">
        <ele>292</ele>
        <time>2016-09-20T09:13:26Z</time>
      </trkpt>
      <trkpt lat="45.99604" lon="4.89791">
        <ele>292</ele>
        <time>2016-09-20T09:13:27Z</time>
      </trkpt>
      <trkpt lat="45.99604" lon="4.89798">
        <ele>292</ele>
        <time>2016-09-20T09:13:28Z</time>
      </trkpt>
      <trkpt lat="45.99604" lon="4.89811">
        <ele>292</ele>
        <time>2016-09-20T09:13:30Z</time>
      </trkpt>
      <trkpt lat="45.99603" lon="4.89819">
        <ele>292</ele>
        <time>2016-09-20T09:13:31Z</time>
      </trkpt>
      <trkpt lat="45.99603" lon="4.89825">
        <ele>292</ele>
        <time>2016-09-20T09:13:32Z</time>
      </trkpt>
      <trkpt lat="45.99603" lon="4.89833">
        <ele>292</ele>
        <time>2016-09-20T09:13:33Z</time>
      </trkpt>
      <trkpt lat="45.99603" lon="4.8984">
        <ele>293</ele>
        <time>2016-09-20T09:13:34Z</time>
      </trkpt>
      <trkpt lat="45.99603" lon="4.89849">
        <ele>293</ele>
        <time>2016-09-20T09:13:35Z</time>
      </trkpt>
      <trkpt lat="45.99603" lon="4.89857">
        <ele>293</ele>
        <time>2016-09-20T09:13:36Z</time>
      </trkpt>
      <trkpt lat="45.99603" lon="4.89865">
        <ele>293</ele>
        <time>2016-09-20T09:13:37Z</time>
      </trkpt>
      <trkpt lat="45.99603" lon="4.89873">
        <ele>293</ele>
        <time>2016-09-20T09:13:38Z</time>
      </trkpt>
      <trkpt lat="45.99603" lon="4.89881">
        <ele>292</ele>
        <time>2016-09-20T09:13:39Z</time>
      </trkpt>
      <trkpt lat="45.99603" lon="4.89891">
        <ele>292</ele>
        <time>2016-09-20T09:13:40Z</time>
      </trkpt>
      <trkpt lat="45.99603" lon="4.89898">
        <ele>292</ele>
        <time>2016-09-20T09:13:41Z</time>
      </trkpt>
      <trkpt lat="45.99603" lon="4.89904">
        <ele>292</ele>
        <time>2016-09-20T09:13:42Z</time>
      </trkpt>
      <trkpt lat="45.99604" lon="4.89912">
        <ele>292</ele>
        <time>2016-09-20T09:13:43Z</time>
      </trkpt>
      <trkpt lat="45.99603" lon="4.89925">
        <ele>293</ele>
        <time>2016-09-20T09:13:45Z</time>
      </trkpt>
      <trkpt lat="45.99604" lon="4.89931">
        <ele>293</ele>
        <time>2016-09-20T09:13:46Z</time>
      </trkpt>
      <trkpt lat="45.99604" lon="4.89938">
        <ele>293</ele>
        <time>2016-09-20T09:13:47Z</time>
      </trkpt>
      <trkpt lat="45.99604" lon="4.89946">
        <ele>294</ele>
        <time>2016-09-20T09:13:48Z</time>
      </trkpt>
      <trkpt lat="45.99605" lon="4.89954">
        <ele>294</ele>
        <time>2016-09-20T09:13:49Z</time>
      </trkpt>
      <trkpt lat="45.99605" lon="4.89961">
        <ele>294</ele>
        <time>2016-09-20T09:13:50Z</time>
      </trkpt>
      <trkpt lat="45.99606" lon="4.89968">
        <ele>294</ele>
        <time>2016-09-20T09:13:51Z</time>
      </trkpt>
      <trkpt lat="45.99606" lon="4.89975">
        <ele>294</ele>
        <time>2016-09-20T09:13:52Z</time>
      </trkpt>
      <trkpt lat="45.99606" lon="4.89983">
        <ele>294</ele>
        <time>2016-09-20T09:13:53Z</time>
      </trkpt>
      <trkpt lat="45.99607" lon="4.8999">
        <ele>294</ele>
        <time>2016-09-20T09:13:54Z</time>
      </trkpt>
      <trkpt lat="45.99607" lon="4.89996">
        <ele>295</ele>
        <time>2016-09-20T09:13:55Z</time>
      </trkpt>
      <trkpt lat="45.99609" lon="4.90003">
        <ele>296</ele>
        <time>2016-09-20T09:13:56Z</time>
      </trkpt>
      <trkpt lat="45.99609" lon="4.90009">
        <ele>296</ele>
        <time>2016-09-20T09:13:57Z</time>
      </trkpt>
      <trkpt lat="45.99611" lon="4.90016">
        <ele>296</ele>
        <time>2016-09-20T09:13:58Z</time>
      </trkpt>
      <trkpt lat="45.99613" lon="4.90023">
        <ele>296</ele>
        <time>2016-09-20T09:13:59Z</time>
      </trkpt>
      <trkpt lat="45.99615" lon="4.90029">
        <ele>296</ele>
        <time>2016-09-20T09:14:00Z</time>
      </trkpt>
      <trkpt lat="45.99618" lon="4.90036">
        <ele>296</ele>
        <time>2016-09-20T09:14:01Z</time>
      </trkpt>
      <trkpt lat="45.9962" lon="4.90042">
        <ele>296</ele>
        <time>2016-09-20T09:14:02Z</time>
      </trkpt>
      <trkpt lat="45.99622" lon="4.90048">
        <ele>297</ele>
        <time>2016-09-20T09:14:03Z</time>
      </trkpt>
      <trkpt lat="45.99625" lon="4.90054">
        <ele>297</ele>
        <time>2016-09-20T09:14:04Z</time>
      </trkpt>
      <trkpt lat="45.99627" lon="4.90059">
        <ele>297</ele>
        <time>2016-09-20T09:14:05Z</time>
      </trkpt>
      <trkpt lat="45.9963" lon="4.90065">
        <ele>297</ele>
        <time>2016-09-20T09:14:06Z</time>
      </trkpt>
      <trkpt lat="45.99633" lon="4.90071">
        <ele>297</ele>
        <time>2016-09-20T09:14:07Z</time>
      </trkpt>
      <trkpt lat="45.99635" lon="4.90076">
        <ele>297</ele>
        <time>2016-09-20T09:14:08Z</time>
      </trkpt>
      <trkpt lat="45.99639" lon="4.90087">
        <ele>299</ele>
        <time>2016-09-20T09:14:10Z</time>
      </trkpt>
      <trkpt lat="45.99642" lon="4.90092">
        <ele>299</ele>
        <time>2016-09-20T09:14:11Z</time>
      </trkpt>
      <trkpt lat="45.99644" lon="4.90104">
        <ele>299</ele>
        <time>2016-09-20T09:14:13Z</time>
      </trkpt>
      <trkpt lat="45.99645" lon="4.90109">
        <ele>299</ele>
        <time>2016-09-20T09:14:14Z</time>
      </trkpt>
      <trkpt lat="45.99648" lon="4.90121">
        <ele>299</ele>
        <time>2016-09-20T09:14:16Z</time>
      </trkpt>
      <trkpt lat="45.99651" lon="4.90127">
        <ele>299</ele>
        <time>2016-09-20T09:14:17Z</time>
      </trkpt>
      <trkpt lat="45.99652" lon="4.90134">
        <ele>299</ele>
        <time>2016-09-20T09:14:18Z</time>
      </trkpt>
      <trkpt lat="45.99653" lon="4.90141">
        <ele>300</ele>
        <time>2016-09-20T09:14:19Z</time>
      </trkpt>
      <trkpt lat="45.99655" lon="4.90148">
        <ele>300</ele>
        <time>2016-09-20T09:14:20Z</time>
      </trkpt>
      <trkpt lat="45.99657" lon="4.90154">
        <ele>300</ele>
        <time>2016-09-20T09:14:21Z</time>
      </trkpt>
      <trkpt lat="45.99659" lon="4.9016">
        <ele>300</ele>
        <time>2016-09-20T09:14:22Z</time>
      </trkpt>
      <trkpt lat="45.99661" lon="4.90166">
        <ele>301</ele>
        <time>2016-09-20T09:14:23Z</time>
      </trkpt>
      <trkpt lat="45.99663" lon="4.90178">
        <ele>301</ele>
        <time>2016-09-20T09:14:25Z</time>
      </trkpt>
      <trkpt lat="45.99665" lon="4.90184">
        <ele>301</ele>
        <time>2016-09-20T09:14:26Z</time>
      </trkpt>
      <trkpt lat="45.99668" lon="4.90195">
        <ele>303</ele>
        <time>2016-09-20T09:14:28Z</time>
      </trkpt>
      <trkpt lat="45.9967" lon="4.902">
        <ele>303</ele>
        <time>2016-09-20T09:14:29Z</time>
      </trkpt>
      <trkpt lat="45.99673" lon="4.90212">
        <ele>303</ele>
        <time>2016-09-20T09:14:31Z</time>
      </trkpt>
      <trkpt lat="45.99675" lon="4.90218">
        <ele>303</ele>
        <time>2016-09-20T09:14:32Z</time>
      </trkpt>
      <trkpt lat="45.99677" lon="4.90229">
        <ele>304</ele>
        <time>2016-09-20T09:14:34Z</time>
      </trkpt>
      <trkpt lat="45.99678" lon="4.90234">
        <ele>304</ele>
        <time>2016-09-20T09:14:35Z</time>
      </trkpt>
      <trkpt lat="45.99679" lon="4.90245">
        <ele>304</ele>
        <time>2016-09-20T09:14:37Z</time>
      </trkpt>
      <trkpt lat="45.9968" lon="4.9025">
        <ele>304</ele>
        <time>2016-09-20T09:14:38Z</time>
      </trkpt>
      <trkpt lat="45.99679" lon="4.90263">
        <ele>304</ele>
        <time>2016-09-20T09:14:40Z</time>
      </trkpt>
      <trkpt lat="45.99679" lon="4.90269">
        <ele>304</ele>
        <time>2016-09-20T09:14:41Z</time>
      </trkpt>
      <trkpt lat="45.99677" lon="4.90281">
        <ele>304</ele>
        <time>2016-09-20T09:14:43Z</time>
      </trkpt>
      <trkpt lat="45.99676" lon="4.90287">
        <ele>304</ele>
        <time>2016-09-20T09:14:44Z</time>
      </trkpt>
      <trkpt lat="45.99674" lon="4.90299">
        <ele>304</ele>
        <time>2016-09-20T09:14:46Z</time>
      </trkpt>
      <trkpt lat="45.99673" lon="4.90305">
        <ele>304</ele>
        <time>2016-09-20T09:14:47Z</time>
      </trkpt>
      <trkpt lat="45.99674" lon="4.90314">
        <ele>304</ele>
        <time>2016-09-20T09:14:49Z</time>
      </trkpt>
      <trkpt lat="45.99675" lon="4.90319">
        <ele>303</ele>
        <time>2016-09-20T09:14:50Z</time>
      </trkpt>
      <trkpt lat="45.99676" lon="4.90322">
        <ele>303</ele>
        <time>2016-09-20T09:14:51Z</time>
      </trkpt>
      <trkpt lat="45.99676" lon="4.90324">
        <ele>303</ele>
        <time>2016-09-20T09:14:52Z</time>
      </trkpt>
      <trkpt lat="45.99674" lon="4.90328">
        <ele>303</ele>
        <time>2016-09-20T09:14:57Z</time>
      </trkpt>
      <trkpt lat="45.99673" lon="4.90327">
        <ele>303</ele>
        <time>2016-09-20T09:14:58Z</time>
      </trkpt>
      <trkpt lat="45.99682" lon="4.90331">
        <ele>303</ele>
        <time>2016-09-20T09:15:03Z</time>
      </trkpt>
      <trkpt lat="45.99683" lon="4.9033">
        <ele>304</ele>
        <time>2016-09-20T09:15:04Z</time>
      </trkpt>
      <trkpt lat="45.99689" lon="4.90336">
        <ele>303</ele>
        <time>2016-09-20T09:15:09Z</time>
      </trkpt>
      <trkpt lat="45.99688" lon="4.90344">
        <ele>303</ele>
        <time>2016-09-20T09:15:10Z</time>
      </trkpt>
      <trkpt lat="45.99689" lon="4.90351">
        <ele>303</ele>
        <time>2016-09-20T09:15:11Z</time>
      </trkpt>
      <trkpt lat="45.9969" lon="4.90361">
        <ele>302</ele>
        <time>2016-09-20T09:15:12Z</time>
      </trkpt>
      <trkpt lat="45.99689" lon="4.90373">
        <ele>302</ele>
        <time>2016-09-20T09:15:13Z</time>
      </trkpt>
      <trkpt lat="45.99693" lon="4.90381">
        <ele>302</ele>
        <time>2016-09-20T09:15:14Z</time>
      </trkpt>
      <trkpt lat="45.99688" lon="4.9039">
        <ele>302</ele>
        <time>2016-09-20T09:15:15Z</time>
      </trkpt>
      <trkpt lat="45.99685" lon="4.90399">
        <ele>302</ele>
        <time>2016-09-20T09:15:16Z</time>
      </trkpt>
      <trkpt lat="45.99678" lon="4.90405">
        <ele>302</ele>
        <time>2016-09-20T09:15:17Z</time>
      </trkpt>
      <trkpt lat="45.99676" lon="4.90414">
        <ele>301</ele>
        <time>2016-09-20T09:15:18Z</time>
      </trkpt>
      <trkpt lat="45.99673" lon="4.90421">
        <ele>301</ele>
        <time>2016-09-20T09:15:19Z</time>
      </trkpt>
      <trkpt lat="45.9967" lon="4.90427">
        <ele>301</ele>
        <time>2016-09-20T09:15:20Z</time>
      </trkpt>
      <trkpt lat="45.99666" lon="4.90431">
        <ele>300</ele>
        <time>2016-09-20T09:15:21Z</time>
      </trkpt>
      <trkpt lat="45.99662" lon="4.90436">
        <ele>300</ele>
        <time>2016-09-20T09:15:22Z</time>
      </trkpt>
      <trkpt lat="45.99655" lon="4.90442">
        <ele>300</ele>
        <time>2016-09-20T09:15:24Z</time>
      </trkpt>
      <trkpt lat="45.9965" lon="4.90442">
        <ele>300</ele>
        <time>2016-09-20T09:15:25Z</time>
      </trkpt>
      <trkpt lat="45.99645" lon="4.90444">
        <ele>300</ele>
        <time>2016-09-20T09:15:26Z</time>
      </trkpt>
      <trkpt lat="45.99641" lon="4.90446">
        <ele>300</ele>
        <time>2016-09-20T09:15:27Z</time>
      </trkpt>
      <trkpt lat="45.99635" lon="4.90448">
        <ele>300</ele>
        <time>2016-09-20T09:15:29Z</time>
      </trkpt>
      <trkpt lat="45.99631" lon="4.9045">
        <ele>300</ele>
        <time>2016-09-20T09:15:30Z</time>
      </trkpt>
      <trkpt lat="45.99626" lon="4.90451">
        <ele>300</ele>
        <time>2016-09-20T09:15:31Z</time>
      </trkpt>
      <trkpt lat="45.99622" lon="4.90451">
        <ele>300</ele>
        <time>2016-09-20T09:15:32Z</time>
      </trkpt>
      <trkpt lat="45.99616" lon="4.90452">
        <ele>300</ele>
        <time>2016-09-20T09:15:33Z</time>
      </trkpt>
      <trkpt lat="45.9961" lon="4.90452">
        <ele>300</ele>
        <time>2016-09-20T09:15:34Z</time>
      </trkpt>
      <trkpt lat="45.99605" lon="4.90452">
        <ele>300</ele>
        <time>2016-09-20T09:15:35Z</time>
      </trkpt>
      <trkpt lat="45.99599" lon="4.90453">
        <ele>300</ele>
        <time>2016-09-20T09:15:36Z</time>
      </trkpt>
      <trkpt lat="45.99594" lon="4.90454">
        <ele>300</ele>
        <time>2016-09-20T09:15:37Z</time>
      </trkpt>
      <trkpt lat="45.99588" lon="4.90457">
        <ele>300</ele>
        <time>2016-09-20T09:15:38Z</time>
      </trkpt>
      <trkpt lat="45.99583" lon="4.90459">
        <ele>299</ele>
        <time>2016-09-20T09:15:39Z</time>
      </trkpt>
      <trkpt lat="45.99578" lon="4.90463">
        <ele>299</ele>
        <time>2016-09-20T09:15:40Z</time>
      </trkpt>
      <trkpt lat="45.99574" lon="4.90467">
        <ele>299</ele>
        <time>2016-09-20T09:15:41Z</time>
      </trkpt>
      <trkpt lat="45.99569" lon="4.90473">
        <ele>299</ele>
        <time>2016-09-20T09:15:42Z</time>
      </trkpt>
      <trkpt lat="45.99565" lon="4.90477">
        <ele>299</ele>
        <time>2016-09-20T09:15:43Z</time>
      </trkpt>
      <trkpt lat="45.99562" lon="4.90482">
        <ele>299</ele>
        <time>2016-09-20T09:15:44Z</time>
      </trkpt>
      <trkpt lat="45.99555" lon="4.9049">
        <ele>299</ele>
        <time>2016-09-20T09:15:46Z</time>
      </trkpt>
      <trkpt lat="45.99552" lon="4.90494">
        <ele>299</ele>
        <time>2016-09-20T09:15:47Z</time>
      </trkpt>
      <trkpt lat="45.99545" lon="4.90502">
        <ele>299</ele>
        <time>2016-09-20T09:15:49Z</time>
      </trkpt>
      <trkpt lat="45.99542" lon="4.90506">
        <ele>299</ele>
        <time>2016-09-20T09:15:50Z</time>
      </trkpt>
      <trkpt lat="45.99535" lon="4.90515">
        <ele>299</ele>
        <time>2016-09-20T09:15:52Z</time>
      </trkpt>
      <trkpt lat="45.99532" lon="4.90518">
        <ele>299</ele>
        <time>2016-09-20T09:15:53Z</time>
      </trkpt>
      <trkpt lat="45.99526" lon="4.90526">
        <ele>299</ele>
        <time>2016-09-20T09:15:55Z</time>
      </trkpt>
      <trkpt lat="45.99523" lon="4.9053">
        <ele>299</ele>
        <time>2016-09-20T09:15:56Z</time>
      </trkpt>
      <trkpt lat="45.9952" lon="4.90535">
        <ele>299</ele>
        <time>2016-09-20T09:15:57Z</time>
      </trkpt>
      <trkpt lat="45.99517" lon="4.90539">
        <ele>299</ele>
        <time>2016-09-20T09:15:58Z</time>
      </trkpt>
      <trkpt lat="45.99513" lon="4.90543">
        <ele>299</ele>
        <time>2016-09-20T09:15:59Z</time>
      </trkpt>
      <trkpt lat="45.9951" lon="4.90549">
        <ele>299</ele>
        <time>2016-09-20T09:16:00Z</time>
      </trkpt>
      <trkpt lat="45.99507" lon="4.90556">
        <ele>299</ele>
        <time>2016-09-20T09:16:01Z</time>
      </trkpt>
      <trkpt lat="45.99503" lon="4.9056">
        <ele>299</ele>
        <time>2016-09-20T09:16:02Z</time>
      </trkpt>
      <trkpt lat="45.99499" lon="4.90565">
        <ele>299</ele>
        <time>2016-09-20T09:16:03Z</time>
      </trkpt>
      <trkpt lat="45.99495" lon="4.90569">
        <ele>299</ele>
        <time>2016-09-20T09:16:04Z</time>
      </trkpt>
      <trkpt lat="45.99491" lon="4.90574">
        <ele>299</ele>
        <time>2016-09-20T09:16:05Z</time>
      </trkpt>
      <trkpt lat="45.99487" lon="4.90578">
        <ele>299</ele>
        <time>2016-09-20T09:16:06Z</time>
      </trkpt>
      <trkpt lat="45.99484" lon="4.90581">
        <ele>299</ele>
        <time>2016-09-20T09:16:07Z</time>
      </trkpt>
      <trkpt lat="45.9948" lon="4.90585">
        <ele>298</ele>
        <time>2016-09-20T09:16:08Z</time>
      </trkpt>
      <trkpt lat="45.99473" lon="4.90593">
        <ele>298</ele>
        <time>2016-09-20T09:16:10Z</time>
      </trkpt>
      <trkpt lat="45.9947" lon="4.90597">
        <ele>298</ele>
        <time>2016-09-20T09:16:11Z</time>
      </trkpt>
      <trkpt lat="45.99466" lon="4.90602">
        <ele>298</ele>
        <time>2016-09-20T09:16:12Z</time>
      </trkpt>
      <trkpt lat="45.99462" lon="4.90607">
        <ele>298</ele>
        <time>2016-09-20T09:16:13Z</time>
      </trkpt>
      <trkpt lat="45.99458" lon="4.90611">
        <ele>298</ele>
        <time>2016-09-20T09:16:14Z</time>
      </trkpt>
      <trkpt lat="45.99455" lon="4.90616">
        <ele>298</ele>
        <time>2016-09-20T09:16:15Z</time>
      </trkpt>
      <trkpt lat="45.99452" lon="4.9062">
        <ele>298</ele>
        <time>2016-09-20T09:16:16Z</time>
      </trkpt>
      <trkpt lat="45.99448" lon="4.90625">
        <ele>298</ele>
        <time>2016-09-20T09:16:17Z</time>
      </trkpt>
      <trkpt lat="45.99445" lon="4.9063">
        <ele>298</ele>
        <time>2016-09-20T09:16:18Z</time>
      </trkpt>
      <trkpt lat="45.99441" lon="4.90634">
        <ele>298</ele>
        <time>2016-09-20T09:16:19Z</time>
      </trkpt>
      <trkpt lat="45.99437" lon="4.90638">
        <ele>298</ele>
        <time>2016-09-20T09:16:20Z</time>
      </trkpt>
      <trkpt lat="45.99433" lon="4.90642">
        <ele>298</ele>
        <time>2016-09-20T09:16:21Z</time>
      </trkpt>
      <trkpt lat="45.99427" lon="4.9065">
        <ele>298</ele>
        <time>2016-09-20T09:16:23Z</time>
      </trkpt>
      <trkpt lat="45.99424" lon="4.90654">
        <ele>298</ele>
        <time>2016-09-20T09:16:24Z</time>
      </trkpt>
      <trkpt lat="45.99418" lon="4.90662">
        <ele>298</ele>
        <time>2016-09-20T09:16:26Z</time>
      </trkpt>
      <trkpt lat="45.99415" lon="4.90666">
        <ele>298</ele>
        <time>2016-09-20T09:16:27Z</time>
      </trkpt>
      <trkpt lat="45.99411" lon="4.90671">
        <ele>298</ele>
        <time>2016-09-20T09:16:28Z</time>
      </trkpt>
      <trkpt lat="45.99407" lon="4.90675">
        <ele>298</ele>
        <time>2016-09-20T09:16:29Z</time>
      </trkpt>
      <trkpt lat="45.99403" lon="4.9068">
        <ele>298</ele>
        <time>2016-09-20T09:16:30Z</time>
      </trkpt>
      <trkpt lat="45.99399" lon="4.90686">
        <ele>298</ele>
        <time>2016-09-20T09:16:31Z</time>
      </trkpt>
      <trkpt lat="45.99392" lon="4.90694">
        <ele>298</ele>
        <time>2016-09-20T09:16:33Z</time>
      </trkpt>
      <trkpt lat="45.99389" lon="4.90699">
        <ele>298</ele>
        <time>2016-09-20T09:16:34Z</time>
      </trkpt>
      <trkpt lat="45.99385" lon="4.90704">
        <ele>298</ele>
        <time>2016-09-20T09:16:35Z</time>
      </trkpt>
      <trkpt lat="45.99381" lon="4.90709">
        <ele>298</ele>
        <time>2016-09-20T09:16:36Z</time>
      </trkpt>
      <trkpt lat="45.99377" lon="4.90714">
        <ele>298</ele>
        <time>2016-09-20T09:16:37Z</time>
      </trkpt>
      <trkpt lat="45.99374" lon="4.90719">
        <ele>299</ele>
        <time>2016-09-20T09:16:38Z</time>
      </trkpt>
      <trkpt lat="45.99368" lon="4.90729">
        <ele>299</ele>
        <time>2016-09-20T09:16:40Z</time>
      </trkpt>
      <trkpt lat="45.99363" lon="4.90734">
        <ele>299</ele>
        <time>2016-09-20T09:16:41Z</time>
      </trkpt>
      <trkpt lat="45.99358" lon="4.90739">
        <ele>299</ele>
        <time>2016-09-20T09:16:42Z</time>
      </trkpt>
      <trkpt lat="45.99352" lon="4.90743">
        <ele>299</ele>
        <time>2016-09-20T09:16:43Z</time>
      </trkpt>
      <trkpt lat="45.99347" lon="4.90749">
        <ele>299</ele>
        <time>2016-09-20T09:16:44Z</time>
      </trkpt>
      <trkpt lat="45.99344" lon="4.90754">
        <ele>299</ele>
        <time>2016-09-20T09:16:45Z</time>
      </trkpt>
      <trkpt lat="45.99339" lon="4.90759">
        <ele>299</ele>
        <time>2016-09-20T09:16:46Z</time>
      </trkpt>
      <trkpt lat="45.99335" lon="4.90765">
        <ele>299</ele>
        <time>2016-09-20T09:16:47Z</time>
      </trkpt>
      <trkpt lat="45.99329" lon="4.90771">
        <ele>300</ele>
        <time>2016-09-20T09:16:48Z</time>
      </trkpt>
      <trkpt lat="45.99325" lon="4.90775">
        <ele>300</ele>
        <time>2016-09-20T09:16:49Z</time>
      </trkpt>
      <trkpt lat="45.99322" lon="4.9078">
        <ele>300</ele>
        <time>2016-09-20T09:16:50Z</time>
      </trkpt>
      <trkpt lat="45.99318" lon="4.90785">
        <ele>300</ele>
        <time>2016-09-20T09:16:51Z</time>
      </trkpt>
      <trkpt lat="45.99314" lon="4.9079">
        <ele>300</ele>
        <time>2016-09-20T09:16:52Z</time>
      </trkpt>
      <trkpt lat="45.9931" lon="4.90794">
        <ele>300</ele>
        <time>2016-09-20T09:16:53Z</time>
      </trkpt>
      <trkpt lat="45.99306" lon="4.90798">
        <ele>300</ele>
        <time>2016-09-20T09:16:54Z</time>
      </trkpt>
      <trkpt lat="45.99302" lon="4.90802">
        <ele>300</ele>
        <time>2016-09-20T09:16:55Z</time>
      </trkpt>
      <trkpt lat="45.99297" lon="4.90807">
        <ele>300</ele>
        <time>2016-09-20T09:16:56Z</time>
      </trkpt>
      <trkpt lat="45.99292" lon="4.90812">
        <ele>300</ele>
        <time>2016-09-20T09:16:57Z</time>
      </trkpt>
      <trkpt lat="45.99286" lon="4.90817">
        <ele>300</ele>
        <time>2016-09-20T09:16:58Z</time>
      </trkpt>
      <trkpt lat="45.99281" lon="4.90822">
        <ele>300</ele>
        <time>2016-09-20T09:16:59Z</time>
      </trkpt>
      <trkpt lat="45.99276" lon="4.90828">
        <ele>300</ele>
        <time>2016-09-20T09:17:00Z</time>
      </trkpt>
      <trkpt lat="45.99271" lon="4.90835">
        <ele>300</ele>
        <time>2016-09-20T09:17:01Z</time>
      </trkpt>
      <trkpt lat="45.99267" lon="4.90842">
        <ele>300</ele>
        <time>2016-09-20T09:17:02Z</time>
      </trkpt>
      <trkpt lat="45.99262" lon="4.90848">
        <ele>300</ele>
        <time>2016-09-20T09:17:03Z</time>
      </trkpt>
      <trkpt lat="45.99257" lon="4.90853">
        <ele>300</ele>
        <time>2016-09-20T09:17:04Z</time>
      </trkpt>
      <trkpt lat="45.99252" lon="4.90858">
        <ele>300</ele>
        <time>2016-09-20T09:17:05Z</time>
      </trkpt>
      <trkpt lat="45.99248" lon="4.90864">
        <ele>300</ele>
        <time>2016-09-20T09:17:06Z</time>
      </trkpt>
      <trkpt lat="45.99243" lon="4.90869">
        <ele>300</ele>
        <time>2016-09-20T09:17:07Z</time>
      </trkpt>
      <trkpt lat="45.99239" lon="4.90875">
        <ele>300</ele>
        <time>2016-09-20T09:17:08Z</time>
      </trkpt>
      <trkpt lat="45.99234" lon="4.90881">
        <ele>299</ele>
        <time>2016-09-20T09:17:09Z</time>
      </trkpt>
      <trkpt lat="45.9923" lon="4.90886">
        <ele>299</ele>
        <time>2016-09-20T09:17:10Z</time>
      </trkpt>
      <trkpt lat="45.99225" lon="4.90892">
        <ele>299</ele>
        <time>2016-09-20T09:17:11Z</time>
      </trkpt>
      <trkpt lat="45.99221" lon="4.90902">
        <ele>299</ele>
        <time>2016-09-20T09:17:13Z</time>
      </trkpt>
      <trkpt lat="45.99216" lon="4.90907">
        <ele>299</ele>
        <time>2016-09-20T09:17:14Z</time>
      </trkpt>
      <trkpt lat="45.99213" lon="4.90913">
        <ele>299</ele>
        <time>2016-09-20T09:17:15Z</time>
      </trkpt>
      <trkpt lat="45.99209" lon="4.90919">
        <ele>300</ele>
        <time>2016-09-20T09:17:16Z</time>
      </trkpt>
      <trkpt lat="45.99205" lon="4.90925">
        <ele>300</ele>
        <time>2016-09-20T09:17:17Z</time>
      </trkpt>
      <trkpt lat="45.99201" lon="4.90931">
        <ele>300</ele>
        <time>2016-09-20T09:17:18Z</time>
      </trkpt>
      <trkpt lat="45.99197" lon="4.90937">
        <ele>300</ele>
        <time>2016-09-20T09:17:19Z</time>
      </trkpt>
      <trkpt lat="45.99193" lon="4.90942">
        <ele>300</ele>
        <time>2016-09-20T09:17:20Z</time>
      </trkpt>
      <trkpt lat="45.99187" lon="4.90947">
        <ele>300</ele>
        <time>2016-09-20T09:17:21Z</time>
      </trkpt>
      <trkpt lat="45.99183" lon="4.90952">
        <ele>300</ele>
        <time>2016-09-20T09:17:22Z</time>
      </trkpt>
      <trkpt lat="45.99179" lon="4.90958">
        <ele>300</ele>
        <time>2016-09-20T09:17:23Z</time>
      </trkpt>
      <trkpt lat="45.99174" lon="4.90964">
        <ele>300</ele>
        <time>2016-09-20T09:17:24Z</time>
      </trkpt>
      <trkpt lat="45.99169" lon="4.9097">
        <ele>300</ele>
        <time>2016-09-20T09:17:25Z</time>
      </trkpt>
      <trkpt lat="45.99164" lon="4.90976">
        <ele>301</ele>
        <time>2016-09-20T09:17:26Z</time>
      </trkpt>
      <trkpt lat="45.99159" lon="4.90982">
        <ele>301</ele>
        <time>2016-09-20T09:17:27Z</time>
      </trkpt>
      <trkpt lat="45.99155" lon="4.90987">
        <ele>301</ele>
        <time>2016-09-20T09:17:28Z</time>
      </trkpt>
      <trkpt lat="45.99151" lon="4.90993">
        <ele>301</ele>
        <time>2016-09-20T09:17:29Z</time>
      </trkpt>
      <trkpt lat="45.99145" lon="4.91">
        <ele>301</ele>
        <time>2016-09-20T09:17:30Z</time>
      </trkpt>
      <trkpt lat="45.9914" lon="4.91006">
        <ele>301</ele>
        <time>2016-09-20T09:17:31Z</time>
      </trkpt>
      <trkpt lat="45.99135" lon="4.91012">
        <ele>301</ele>
        <time>2016-09-20T09:17:32Z</time>
      </trkpt>
      <trkpt lat="45.99131" lon="4.91017">
        <ele>301</ele>
        <time>2016-09-20T09:17:33Z</time>
      </trkpt>
      <trkpt lat="45.99124" lon="4.91027">
        <ele>301</ele>
        <time>2016-09-20T09:17:34Z</time>
      </trkpt>
      <trkpt lat="45.99119" lon="4.91034">
        <ele>301</ele>
        <time>2016-09-20T09:17:35Z</time>
      </trkpt>
      <trkpt lat="45.99113" lon="4.9104">
        <ele>301</ele>
        <time>2016-09-20T09:17:36Z</time>
      </trkpt>
      <trkpt lat="45.99107" lon="4.91045">
        <ele>301</ele>
        <time>2016-09-20T09:17:37Z</time>
      </trkpt>
      <trkpt lat="45.99102" lon="4.91051">
        <ele>301</ele>
        <time>2016-09-20T09:17:38Z</time>
      </trkpt>
      <trkpt lat="45.99097" lon="4.91056">
        <ele>301</ele>
        <time>2016-09-20T09:17:39Z</time>
      </trkpt>
      <trkpt lat="45.99091" lon="4.91062">
        <ele>300</ele>
        <time>2016-09-20T09:17:40Z</time>
      </trkpt>
      <trkpt lat="45.99085" lon="4.91068">
        <ele>300</ele>
        <time>2016-09-20T09:17:41Z</time>
      </trkpt>
      <trkpt lat="45.9908" lon="4.91074">
        <ele>300</ele>
        <time>2016-09-20T09:17:42Z</time>
      </trkpt>
      <trkpt lat="45.99075" lon="4.91079">
        <ele>300</ele>
        <time>2016-09-20T09:17:43Z</time>
      </trkpt>
      <trkpt lat="45.9907" lon="4.91084">
        <ele>300</ele>
        <time>2016-09-20T09:17:44Z</time>
      </trkpt>
      <trkpt lat="45.99066" lon="4.91089">
        <ele>300</ele>
        <time>2016-09-20T09:17:45Z</time>
      </trkpt>
      <trkpt lat="45.99061" lon="4.91093">
        <ele>300</ele>
        <time>2016-09-20T09:17:46Z</time>
      </trkpt>
      <trkpt lat="45.99056" lon="4.91099">
        <ele>299</ele>
        <time>2016-09-20T09:17:47Z</time>
      </trkpt>
      <trkpt lat="45.99051" lon="4.91103">
        <ele>299</ele>
        <time>2016-09-20T09:17:48Z</time>
      </trkpt>
      <trkpt lat="45.99046" lon="4.91108">
        <ele>299</ele>
        <time>2016-09-20T09:17:49Z</time>
      </trkpt>
      <trkpt lat="45.99041" lon="4.91113">
        <ele>299</ele>
        <time>2016-09-20T09:17:50Z</time>
      </trkpt>
      <trkpt lat="45.99037" lon="4.91119">
        <ele>299</ele>
        <time>2016-09-20T09:17:51Z</time>
      </trkpt>
      <trkpt lat="45.99033" lon="4.91125">
        <ele>299</ele>
        <time>2016-09-20T09:17:52Z</time>
      </trkpt>
      <trkpt lat="45.9903" lon="4.9113">
        <ele>299</ele>
        <time>2016-09-20T09:17:53Z</time>
      </trkpt>
      <trkpt lat="45.99025" lon="4.91136">
        <ele>299</ele>
        <time>2016-09-20T09:17:54Z</time>
      </trkpt>
      <trkpt lat="45.99021" lon="4.91142">
        <ele>299</ele>
        <time>2016-09-20T09:17:55Z</time>
      </trkpt>
      <trkpt lat="45.99016" lon="4.91147">
        <ele>299</ele>
        <time>2016-09-20T09:17:56Z</time>
      </trkpt>
      <trkpt lat="45.99012" lon="4.91153">
        <ele>299</ele>
        <time>2016-09-20T09:17:57Z</time>
      </trkpt>
      <trkpt lat="45.99008" lon="4.91158">
        <ele>299</ele>
        <time>2016-09-20T09:17:58Z</time>
      </trkpt>
      <trkpt lat="45.99003" lon="4.91164">
        <ele>299</ele>
        <time>2016-09-20T09:17:59Z</time>
      </trkpt>
      <trkpt lat="45.98998" lon="4.91169">
        <ele>299</ele>
        <time>2016-09-20T09:18:00Z</time>
      </trkpt>
      <trkpt lat="45.98994" lon="4.91175">
        <ele>299</ele>
        <time>2016-09-20T09:18:01Z</time>
      </trkpt>
      <trkpt lat="45.9899" lon="4.91181">
        <ele>299</ele>
        <time>2016-09-20T09:18:02Z</time>
      </trkpt>
      <trkpt lat="45.98986" lon="4.91186">
        <ele>299</ele>
        <time>2016-09-20T09:18:03Z</time>
      </trkpt>
      <trkpt lat="45.98982" lon="4.91191">
        <ele>299</ele>
        <time>2016-09-20T09:18:04Z</time>
      </trkpt>
      <trkpt lat="45.98977" lon="4.91196">
        <ele>299</ele>
        <time>2016-09-20T09:18:05Z</time>
      </trkpt>
      <trkpt lat="45.98973" lon="4.91201">
        <ele>299</ele>
        <time>2016-09-20T09:18:06Z</time>
      </trkpt>
      <trkpt lat="45.98969" lon="4.91206">
        <ele>299</ele>
        <time>2016-09-20T09:18:07Z</time>
      </trkpt>
      <trkpt lat="45.98964" lon="4.91211">
        <ele>299</ele>
        <time>2016-09-20T09:18:08Z</time>
      </trkpt>
      <trkpt lat="45.9896" lon="4.91216">
        <ele>299</ele>
        <time>2016-09-20T09:18:09Z</time>
      </trkpt>
      <trkpt lat="45.98956" lon="4.91221">
        <ele>299</ele>
        <time>2016-09-20T09:18:10Z</time>
      </trkpt>
      <trkpt lat="45.98952" lon="4.91227">
        <ele>299</ele>
        <time>2016-09-20T09:18:11Z</time>
      </trkpt>
      <trkpt lat="45.98948" lon="4.91231">
        <ele>299</ele>
        <time>2016-09-20T09:18:12Z</time>
      </trkpt>
      <trkpt lat="45.98944" lon="4.91237">
        <ele>299</ele>
        <time>2016-09-20T09:18:13Z</time>
      </trkpt>
      <trkpt lat="45.9894" lon="4.91242">
        <ele>299</ele>
        <time>2016-09-20T09:18:14Z</time>
      </trkpt>
      <trkpt lat="45.98936" lon="4.91247">
        <ele>299</ele>
        <time>2016-09-20T09:18:15Z</time>
      </trkpt>
      <trkpt lat="45.98932" lon="4.91252">
        <ele>299</ele>
        <time>2016-09-20T09:18:16Z</time>
      </trkpt>
      <trkpt lat="45.98928" lon="4.91257">
        <ele>299</ele>
        <time>2016-09-20T09:18:17Z</time>
      </trkpt>
      <trkpt lat="45.98924" lon="4.91262">
        <ele>299</ele>
        <time>2016-09-20T09:18:18Z</time>
      </trkpt>
      <trkpt lat="45.98919" lon="4.91267">
        <ele>299</ele>
        <time>2016-09-20T09:18:19Z</time>
      </trkpt>
      <trkpt lat="45.98914" lon="4.91271">
        <ele>299</ele>
        <time>2016-09-20T09:18:20Z</time>
      </trkpt>
      <trkpt lat="45.9891" lon="4.91277">
        <ele>299</ele>
        <time>2016-09-20T09:18:21Z</time>
      </trkpt>
      <trkpt lat="45.98906" lon="4.91282">
        <ele>299</ele>
        <time>2016-09-20T09:18:22Z</time>
      </trkpt>
      <trkpt lat="45.98901" lon="4.91287">
        <ele>299</ele>
        <time>2016-09-20T09:18:23Z</time>
      </trkpt>
      <trkpt lat="45.98897" lon="4.91293">
        <ele>299</ele>
        <time>2016-09-20T09:18:24Z</time>
      </trkpt>
      <trkpt lat="45.98893" lon="4.91299">
        <ele>299</ele>
        <time>2016-09-20T09:18:25Z</time>
      </trkpt>
      <trkpt lat="45.98889" lon="4.91304">
        <ele>299</ele>
        <time>2016-09-20T09:18:26Z</time>
      </trkpt>
      <trkpt lat="45.98884" lon="4.9131">
        <ele>299</ele>
        <time>2016-09-20T09:18:27Z</time>
      </trkpt>
      <trkpt lat="45.9888" lon="4.91316">
        <ele>299</ele>
        <time>2016-09-20T09:18:28Z</time>
      </trkpt>
      <trkpt lat="45.98876" lon="4.91322">
        <ele>299</ele>
        <time>2016-09-20T09:18:29Z</time>
      </trkpt>
      <trkpt lat="45.98871" lon="4.91328">
        <ele>298</ele>
        <time>2016-09-20T09:18:30Z</time>
      </trkpt>
      <trkpt lat="45.98867" lon="4.91334">
        <ele>298</ele>
        <time>2016-09-20T09:18:31Z</time>
      </trkpt>
      <trkpt lat="45.98863" lon="4.91339">
        <ele>298</ele>
        <time>2016-09-20T09:18:32Z</time>
      </trkpt>
      <trkpt lat="45.98859" lon="4.91345">
        <ele>298</ele>
        <time>2016-09-20T09:18:33Z</time>
      </trkpt>
      <trkpt lat="45.98855" lon="4.9135">
        <ele>298</ele>
        <time>2016-09-20T09:18:34Z</time>
      </trkpt>
      <trkpt lat="45.98851" lon="4.91354">
        <ele>298</ele>
        <time>2016-09-20T09:18:35Z</time>
      </trkpt>
      <trkpt lat="45.98847" lon="4.91359">
        <ele>298</ele>
        <time>2016-09-20T09:18:36Z</time>
      </trkpt>
      <trkpt lat="45.98843" lon="4.91363">
        <ele>298</ele>
        <time>2016-09-20T09:18:37Z</time>
      </trkpt>
      <trkpt lat="45.98839" lon="4.91368">
        <ele>298</ele>
        <time>2016-09-20T09:18:38Z</time>
      </trkpt>
      <trkpt lat="45.98835" lon="4.91373">
        <ele>298</ele>
        <time>2016-09-20T09:18:39Z</time>
      </trkpt>
      <trkpt lat="45.98831" lon="4.91378">
        <ele>298</ele>
        <time>2016-09-20T09:18:40Z</time>
      </trkpt>
      <trkpt lat="45.98827" lon="4.91382">
        <ele>298</ele>
        <time>2016-09-20T09:18:41Z</time>
      </trkpt>
      <trkpt lat="45.98824" lon="4.91387">
        <ele>298</ele>
        <time>2016-09-20T09:18:42Z</time>
      </trkpt>
      <trkpt lat="45.98821" lon="4.91392">
        <ele>298</ele>
        <time>2016-09-20T09:18:43Z</time>
      </trkpt>
      <trkpt lat="45.98815" lon="4.91397">
        <ele>298</ele>
        <time>2016-09-20T09:18:44Z</time>
      </trkpt>
      <trkpt lat="45.9881" lon="4.91404">
        <ele>298</ele>
        <time>2016-09-20T09:18:45Z</time>
      </trkpt>
      <trkpt lat="45.98804" lon="4.9141">
        <ele>299</ele>
        <time>2016-09-20T09:18:46Z</time>
      </trkpt>
      <trkpt lat="45.98799" lon="4.91417">
        <ele>299</ele>
        <time>2016-09-20T09:18:47Z</time>
      </trkpt>
      <trkpt lat="45.98793" lon="4.91423">
        <ele>298</ele>
        <time>2016-09-20T09:18:48Z</time>
      </trkpt>
      <trkpt lat="45.98788" lon="4.91429">
        <ele>298</ele>
        <time>2016-09-20T09:18:49Z</time>
      </trkpt>
      <trkpt lat="45.98784" lon="4.91436">
        <ele>298</ele>
        <time>2016-09-20T09:18:50Z</time>
      </trkpt>
      <trkpt lat="45.98779" lon="4.91442">
        <ele>298</ele>
        <time>2016-09-20T09:18:51Z</time>
      </trkpt>
      <trkpt lat="45.98774" lon="4.91448">
        <ele>298</ele>
        <time>2016-09-20T09:18:52Z</time>
      </trkpt>
      <trkpt lat="45.98769" lon="4.91454">
        <ele>298</ele>
        <time>2016-09-20T09:18:53Z</time>
      </trkpt>
      <trkpt lat="45.98764" lon="4.9146">
        <ele>298</ele>
        <time>2016-09-20T09:18:54Z</time>
      </trkpt>
      <trkpt lat="45.98759" lon="4.91465">
        <ele>298</ele>
        <time>2016-09-20T09:18:55Z</time>
      </trkpt>
      <trkpt lat="45.98754" lon="4.91471">
        <ele>298</ele>
        <time>2016-09-20T09:18:56Z</time>
      </trkpt>
      <trkpt lat="45.9875" lon="4.91476">
        <ele>298</ele>
        <time>2016-09-20T09:18:57Z</time>
      </trkpt>
      <trkpt lat="45.98747" lon="4.91481">
        <ele>299</ele>
        <time>2016-09-20T09:18:58Z</time>
      </trkpt>
      <trkpt lat="45.98743" lon="4.91487">
        <ele>299</ele>
        <time>2016-09-20T09:18:59Z</time>
      </trkpt>
      <trkpt lat="45.98739" lon="4.91493">
        <ele>298</ele>
        <time>2016-09-20T09:19:00Z</time>
      </trkpt>
      <trkpt lat="45.98735" lon="4.91498">
        <ele>299</ele>
        <time>2016-09-20T09:19:01Z</time>
      </trkpt>
      <trkpt lat="45.9873" lon="4.91504">
        <ele>299</ele>
        <time>2016-09-20T09:19:02Z</time>
      </trkpt>
      <trkpt lat="45.98725" lon="4.9151">
        <ele>299</ele>
        <time>2016-09-20T09:19:03Z</time>
      </trkpt>
      <trkpt lat="45.9872" lon="4.91516">
        <ele>299</ele>
        <time>2016-09-20T09:19:04Z</time>
      </trkpt>
      <trkpt lat="45.98716" lon="4.91522">
        <ele>299</ele>
        <time>2016-09-20T09:19:05Z</time>
      </trkpt>
      <trkpt lat="45.98712" lon="4.91529">
        <ele>299</ele>
        <time>2016-09-20T09:19:06Z</time>
      </trkpt>
      <trkpt lat="45.98707" lon="4.91534">
        <ele>299</ele>
        <time>2016-09-20T09:19:07Z</time>
      </trkpt>
      <trkpt lat="45.98703" lon="4.9154">
        <ele>299</ele>
        <time>2016-09-20T09:19:08Z</time>
      </trkpt>
      <trkpt lat="45.98698" lon="4.91545">
        <ele>299</ele>
        <time>2016-09-20T09:19:09Z</time>
      </trkpt>
      <trkpt lat="45.98694" lon="4.91551">
        <ele>299</ele>
        <time>2016-09-20T09:19:10Z</time>
      </trkpt>
      <trkpt lat="45.98691" lon="4.91556">
        <ele>299</ele>
        <time>2016-09-20T09:19:11Z</time>
      </trkpt>
      <trkpt lat="45.98687" lon="4.9156">
        <ele>299</ele>
        <time>2016-09-20T09:19:12Z</time>
      </trkpt>
      <trkpt lat="45.98683" lon="4.91565">
        <ele>299</ele>
        <time>2016-09-20T09:19:13Z</time>
      </trkpt>
      <trkpt lat="45.9868" lon="4.9157">
        <ele>299</ele>
        <time>2016-09-20T09:19:14Z</time>
      </trkpt>
      <trkpt lat="45.98674" lon="4.91575">
        <ele>299</ele>
        <time>2016-09-20T09:19:15Z</time>
      </trkpt>
      <trkpt lat="45.9867" lon="4.91581">
        <ele>299</ele>
        <time>2016-09-20T09:19:16Z</time>
      </trkpt>
      <trkpt lat="45.98665" lon="4.91587">
        <ele>299</ele>
        <time>2016-09-20T09:19:17Z</time>
      </trkpt>
      <trkpt lat="45.9866" lon="4.91592">
        <ele>299</ele>
        <time>2016-09-20T09:19:18Z</time>
      </trkpt>
      <trkpt lat="45.98656" lon="4.91598">
        <ele>299</ele>
        <time>2016-09-20T09:19:19Z</time>
      </trkpt>
      <trkpt lat="45.98651" lon="4.91604">
        <ele>298</ele>
        <time>2016-09-20T09:19:20Z</time>
      </trkpt>
      <trkpt lat="45.98646" lon="4.9161">
        <ele>298</ele>
        <time>2016-09-20T09:19:21Z</time>
      </trkpt>
      <trkpt lat="45.98642" lon="4.91616">
        <ele>298</ele>
        <time>2016-09-20T09:19:22Z</time>
      </trkpt>
      <trkpt lat="45.98636" lon="4.91621">
        <ele>298</ele>
        <time>2016-09-20T09:19:23Z</time>
      </trkpt>
      <trkpt lat="45.98632" lon="4.91627">
        <ele>298</ele>
        <time>2016-09-20T09:19:24Z</time>
      </trkpt>
      <trkpt lat="45.98626" lon="4.91632">
        <ele>298</ele>
        <time>2016-09-20T09:19:25Z</time>
      </trkpt>
      <trkpt lat="45.98622" lon="4.91637">
        <ele>298</ele>
        <time>2016-09-20T09:19:26Z</time>
      </trkpt>
      <trkpt lat="45.98618" lon="4.91643">
        <ele>298</ele>
        <time>2016-09-20T09:19:27Z</time>
      </trkpt>
      <trkpt lat="45.98614" lon="4.91649">
        <ele>298</ele>
        <time>2016-09-20T09:19:28Z</time>
      </trkpt>
      <trkpt lat="45.98609" lon="4.91653">
        <ele>298</ele>
        <time>2016-09-20T09:19:29Z</time>
      </trkpt>
      <trkpt lat="45.98604" lon="4.91658">
        <ele>298</ele>
        <time>2016-09-20T09:19:30Z</time>
      </trkpt>
      <trkpt lat="45.98599" lon="4.91663">
        <ele>298</ele>
        <time>2016-09-20T09:19:31Z</time>
      </trkpt>
      <trkpt lat="45.98595" lon="4.91669">
        <ele>298</ele>
        <time>2016-09-20T09:19:32Z</time>
      </trkpt>
      <trkpt lat="45.98589" lon="4.91675">
        <ele>298</ele>
        <time>2016-09-20T09:19:33Z</time>
      </trkpt>
      <trkpt lat="45.98583" lon="4.91681">
        <ele>298</ele>
        <time>2016-09-20T09:19:34Z</time>
      </trkpt>
      <trkpt lat="45.98577" lon="4.91687">
        <ele>298</ele>
        <time>2016-09-20T09:19:35Z</time>
      </trkpt>
      <trkpt lat="45.98571" lon="4.91693">
        <ele>298</ele>
        <time>2016-09-20T09:19:36Z</time>
      </trkpt>
      <trkpt lat="45.98565" lon="4.91699">
        <ele>298</ele>
        <time>2016-09-20T09:19:37Z</time>
      </trkpt>
      <trkpt lat="45.9856" lon="4.91705">
        <ele>298</ele>
        <time>2016-09-20T09:19:38Z</time>
      </trkpt>
      <trkpt lat="45.98555" lon="4.91711">
        <ele>298</ele>
        <time>2016-09-20T09:19:39Z</time>
      </trkpt>
      <trkpt lat="45.9855" lon="4.91718">
        <ele>298</ele>
        <time>2016-09-20T09:19:40Z</time>
      </trkpt>
      <trkpt lat="45.98546" lon="4.91724">
        <ele>298</ele>
        <time>2016-09-20T09:19:41Z</time>
      </trkpt>
      <trkpt lat="45.98541" lon="4.9173">
        <ele>297</ele>
        <time>2016-09-20T09:19:42Z</time>
      </trkpt>
      <trkpt lat="45.98536" lon="4.91735">
        <ele>297</ele>
        <time>2016-09-20T09:19:43Z</time>
      </trkpt>
      <trkpt lat="45.98532" lon="4.91741">
        <ele>297</ele>
        <time>2016-09-20T09:19:44Z</time>
      </trkpt>
      <trkpt lat="45.98527" lon="4.91746">
        <ele>297</ele>
        <time>2016-09-20T09:19:45Z</time>
      </trkpt>
      <trkpt lat="45.98522" lon="4.91752">
        <ele>297</ele>
        <time>2016-09-20T09:19:46Z</time>
      </trkpt>
      <trkpt lat="45.98517" lon="4.91758">
        <ele>297</ele>
        <time>2016-09-20T09:19:47Z</time>
      </trkpt>
      <trkpt lat="45.98512" lon="4.91763">
        <ele>297</ele>
        <time>2016-09-20T09:19:48Z</time>
      </trkpt>
      <trkpt lat="45.98507" lon="4.91769">
        <ele>297</ele>
        <time>2016-09-20T09:19:49Z</time>
      </trkpt>
      <trkpt lat="45.98503" lon="4.91775">
        <ele>297</ele>
        <time>2016-09-20T09:19:50Z</time>
      </trkpt>
      <trkpt lat="45.98498" lon="4.91781">
        <ele>297</ele>
        <time>2016-09-20T09:19:51Z</time>
      </trkpt>
      <trkpt lat="45.98494" lon="4.91786">
        <ele>297</ele>
        <time>2016-09-20T09:19:52Z</time>
      </trkpt>
      <trkpt lat="45.98489" lon="4.91792">
        <ele>297</ele>
        <time>2016-09-20T09:19:53Z</time>
      </trkpt>
      <trkpt lat="45.98485" lon="4.91797">
        <ele>297</ele>
        <time>2016-09-20T09:19:54Z</time>
      </trkpt>
      <trkpt lat="45.9848" lon="4.91802">
        <ele>297</ele>
        <time>2016-09-20T09:19:55Z</time>
      </trkpt>
      <trkpt lat="45.98476" lon="4.91807">
        <ele>297</ele>
        <time>2016-09-20T09:19:56Z</time>
      </trkpt>
      <trkpt lat="45.98472" lon="4.91813">
        <ele>297</ele>
        <time>2016-09-20T09:19:57Z</time>
      </trkpt>
      <trkpt lat="45.98468" lon="4.91819">
        <ele>297</ele>
        <time>2016-09-20T09:19:58Z</time>
      </trkpt>
      <trkpt lat="45.98463" lon="4.91823">
        <ele>297</ele>
        <time>2016-09-20T09:19:59Z</time>
      </trkpt>
      <trkpt lat="45.98458" lon="4.91829">
        <ele>297</ele>
        <time>2016-09-20T09:20:00Z</time>
      </trkpt>
      <trkpt lat="45.98453" lon="4.91835">
        <ele>297</ele>
        <time>2016-09-20T09:20:01Z</time>
      </trkpt>
      <trkpt lat="45.98448" lon="4.91841">
        <ele>297</ele>
        <time>2016-09-20T09:20:02Z</time>
      </trkpt>
      <trkpt lat="45.98443" lon="4.91848">
        <ele>297</ele>
        <time>2016-09-20T09:20:03Z</time>
      </trkpt>
      <trkpt lat="45.98438" lon="4.91853">
        <ele>297</ele>
        <time>2016-09-20T09:20:04Z</time>
      </trkpt>
      <trkpt lat="45.98433" lon="4.91859">
        <ele>297</ele>
        <time>2016-09-20T09:20:05Z</time>
      </trkpt>
      <trkpt lat="45.98429" lon="4.91865">
        <ele>297</ele>
        <time>2016-09-20T09:20:06Z</time>
      </trkpt>
      <trkpt lat="45.98424" lon="4.91871">
        <ele>297</ele>
        <time>2016-09-20T09:20:07Z</time>
      </trkpt>
      <trkpt lat="45.98419" lon="4.91876">
        <ele>297</ele>
        <time>2016-09-20T09:20:08Z</time>
      </trkpt>
      <trkpt lat="45.98415" lon="4.91882">
        <ele>297</ele>
        <time>2016-09-20T09:20:09Z</time>
      </trkpt>
      <trkpt lat="45.98411" lon="4.91887">
        <ele>297</ele>
        <time>2016-09-20T09:20:10Z</time>
      </trkpt>
      <trkpt lat="45.98407" lon="4.91892">
        <ele>297</ele>
        <time>2016-09-20T09:20:11Z</time>
      </trkpt>
      <trkpt lat="45.98402" lon="4.91897">
        <ele>297</ele>
        <time>2016-09-20T09:20:12Z</time>
      </trkpt>
      <trkpt lat="45.98398" lon="4.91902">
        <ele>297</ele>
        <time>2016-09-20T09:20:13Z</time>
      </trkpt>
      <trkpt lat="45.98394" lon="4.91907">
        <ele>297</ele>
        <time>2016-09-20T09:20:14Z</time>
      </trkpt>
      <trkpt lat="45.98389" lon="4.91912">
        <ele>298</ele>
        <time>2016-09-20T09:20:15Z</time>
      </trkpt>
      <trkpt lat="45.98385" lon="4.91917">
        <ele>297</ele>
        <time>2016-09-20T09:20:16Z</time>
      </trkpt>
      <trkpt lat="45.98381" lon="4.91922">
        <ele>297</ele>
        <time>2016-09-20T09:20:17Z</time>
      </trkpt>
      <trkpt lat="45.98377" lon="4.91928">
        <ele>297</ele>
        <time>2016-09-20T09:20:18Z</time>
      </trkpt>
      <trkpt lat="45.98372" lon="4.91934">
        <ele>298</ele>
        <time>2016-09-20T09:20:19Z</time>
      </trkpt>
      <trkpt lat="45.98367" lon="4.9194">
        <ele>298</ele>
        <time>2016-09-20T09:20:20Z</time>
      </trkpt>
      <trkpt lat="45.98363" lon="4.91945">
        <ele>298</ele>
        <time>2016-09-20T09:20:21Z</time>
      </trkpt>
      <trkpt lat="45.98358" lon="4.91951">
        <ele>298</ele>
        <time>2016-09-20T09:20:22Z</time>
      </trkpt>
      <trkpt lat="45.98354" lon="4.91957">
        <ele>298</ele>
        <time>2016-09-20T09:20:23Z</time>
      </trkpt>
      <trkpt lat="45.98349" lon="4.91963">
        <ele>297</ele>
        <time>2016-09-20T09:20:24Z</time>
      </trkpt>
      <trkpt lat="45.98344" lon="4.91969">
        <ele>297</ele>
        <time>2016-09-20T09:20:25Z</time>
      </trkpt>
      <trkpt lat="45.9834" lon="4.91974">
        <ele>297</ele>
        <time>2016-09-20T09:20:26Z</time>
      </trkpt>
      <trkpt lat="45.98336" lon="4.9198">
        <ele>297</ele>
        <time>2016-09-20T09:20:27Z</time>
      </trkpt>
      <trkpt lat="45.98331" lon="4.91986">
        <ele>298</ele>
        <time>2016-09-20T09:20:28Z</time>
      </trkpt>
      <trkpt lat="45.98325" lon="4.91993">
        <ele>297</ele>
        <time>2016-09-20T09:20:29Z</time>
      </trkpt>
      <trkpt lat="45.98321" lon="4.91999">
        <ele>298</ele>
        <time>2016-09-20T09:20:30Z</time>
      </trkpt>
      <trkpt lat="45.98317" lon="4.92005">
        <ele>298</ele>
        <time>2016-09-20T09:20:31Z</time>
      </trkpt>
      <trkpt lat="45.98313" lon="4.92011">
        <ele>298</ele>
        <time>2016-09-20T09:20:32Z</time>
      </trkpt>
      <trkpt lat="45.98308" lon="4.92017">
        <ele>298</ele>
        <time>2016-09-20T09:20:33Z</time>
      </trkpt>
      <trkpt lat="45.98304" lon="4.92022">
        <ele>298</ele>
        <time>2016-09-20T09:20:34Z</time>
      </trkpt>
      <trkpt lat="45.98299" lon="4.92027">
        <ele>298</ele>
        <time>2016-09-20T09:20:35Z</time>
      </trkpt>
      <trkpt lat="45.98295" lon="4.92032">
        <ele>298</ele>
        <time>2016-09-20T09:20:36Z</time>
      </trkpt>
      <trkpt lat="45.98291" lon="4.92037">
        <ele>298</ele>
        <time>2016-09-20T09:20:37Z</time>
      </trkpt>
      <trkpt lat="45.98287" lon="4.92042">
        <ele>298</ele>
        <time>2016-09-20T09:20:38Z</time>
      </trkpt>
      <trkpt lat="45.98284" lon="4.92047">
        <ele>298</ele>
        <time>2016-09-20T09:20:39Z</time>
      </trkpt>
      <trkpt lat="45.98279" lon="4.92054">
        <ele>298</ele>
        <time>2016-09-20T09:20:40Z</time>
      </trkpt>
      <trkpt lat="45.98275" lon="4.92061">
        <ele>298</ele>
        <time>2016-09-20T09:20:41Z</time>
      </trkpt>
      <trkpt lat="45.9827" lon="4.92067">
        <ele>298</ele>
        <time>2016-09-20T09:20:42Z</time>
      </trkpt>
      <trkpt lat="45.98265" lon="4.92073">
        <ele>298</ele>
        <time>2016-09-20T09:20:43Z</time>
      </trkpt>
      <trkpt lat="45.98261" lon="4.92079">
        <ele>299</ele>
        <time>2016-09-20T09:20:44Z</time>
      </trkpt>
      <trkpt lat="45.98257" lon="4.92084">
        <ele>299</ele>
        <time>2016-09-20T09:20:45Z</time>
      </trkpt>
      <trkpt lat="45.98252" lon="4.9209">
        <ele>299</ele>
        <time>2016-09-20T09:20:46Z</time>
      </trkpt>
      <trkpt lat="45.98248" lon="4.92096">
        <ele>299</ele>
        <time>2016-09-20T09:20:47Z</time>
      </trkpt>
      <trkpt lat="45.98243" lon="4.92102">
        <ele>299</ele>
        <time>2016-09-20T09:20:48Z</time>
      </trkpt>
      <trkpt lat="45.98238" lon="4.92107">
        <ele>299</ele>
        <time>2016-09-20T09:20:49Z</time>
      </trkpt>
      <trkpt lat="45.98234" lon="4.92113">
        <ele>299</ele>
        <time>2016-09-20T09:20:50Z</time>
      </trkpt>
      <trkpt lat="45.98229" lon="4.92116">
        <ele>299</ele>
        <time>2016-09-20T09:20:51Z</time>
      </trkpt>
      <trkpt lat="45.98222" lon="4.92122">
        <ele>299</ele>
        <time>2016-09-20T09:20:52Z</time>
      </trkpt>
      <trkpt lat="45.98218" lon="4.92127">
        <ele>299</ele>
        <time>2016-09-20T09:20:53Z</time>
      </trkpt>
      <trkpt lat="45.98212" lon="4.92132">
        <ele>299</ele>
        <time>2016-09-20T09:20:54Z</time>
      </trkpt>
      <trkpt lat="45.98208" lon="4.92136">
        <ele>299</ele>
        <time>2016-09-20T09:20:55Z</time>
      </trkpt>
      <trkpt lat="45.98203" lon="4.92141">
        <ele>299</ele>
        <time>2016-09-20T09:20:56Z</time>
      </trkpt>
      <trkpt lat="45.98199" lon="4.92147">
        <ele>299</ele>
        <time>2016-09-20T09:20:57Z</time>
      </trkpt>
      <trkpt lat="45.98195" lon="4.92152">
        <ele>299</ele>
        <time>2016-09-20T09:20:58Z</time>
      </trkpt>
      <trkpt lat="45.98192" lon="4.92158">
        <ele>299</ele>
        <time>2016-09-20T09:20:59Z</time>
      </trkpt>
      <trkpt lat="45.98189" lon="4.92163">
        <ele>299</ele>
        <time>2016-09-20T09:21:00Z</time>
      </trkpt>
      <trkpt lat="45.98185" lon="4.92168">
        <ele>299</ele>
        <time>2016-09-20T09:21:01Z</time>
      </trkpt>
      <trkpt lat="45.98181" lon="4.92173">
        <ele>299</ele>
        <time>2016-09-20T09:21:02Z</time>
      </trkpt>
      <trkpt lat="45.98177" lon="4.92178">
        <ele>299</ele>
        <time>2016-09-20T09:21:03Z</time>
      </trkpt>
      <trkpt lat="45.98173" lon="4.92183">
        <ele>299</ele>
        <time>2016-09-20T09:21:04Z</time>
      </trkpt>
      <trkpt lat="45.98169" lon="4.92188">
        <ele>299</ele>
        <time>2016-09-20T09:21:05Z</time>
      </trkpt>
      <trkpt lat="45.98165" lon="4.92193">
        <ele>299</ele>
        <time>2016-09-20T09:21:06Z</time>
      </trkpt>
      <trkpt lat="45.9816" lon="4.92199">
        <ele>299</ele>
        <time>2016-09-20T09:21:07Z</time>
      </trkpt>
      <trkpt lat="45.98156" lon="4.92204">
        <ele>299</ele>
        <time>2016-09-20T09:21:08Z</time>
      </trkpt>
      <trkpt lat="45.98151" lon="4.92209">
        <ele>299</ele>
        <time>2016-09-20T09:21:09Z</time>
      </trkpt>
      <trkpt lat="45.98147" lon="4.92215">
        <ele>300</ele>
        <time>2016-09-20T09:21:10Z</time>
      </trkpt>
      <trkpt lat="45.98142" lon="4.9222">
        <ele>300</ele>
        <time>2016-09-20T09:21:11Z</time>
      </trkpt>
      <trkpt lat="45.98138" lon="4.92225">
        <ele>300</ele>
        <time>2016-09-20T09:21:12Z</time>
      </trkpt>
      <trkpt lat="45.98133" lon="4.9223">
        <ele>300</ele>
        <time>2016-09-20T09:21:13Z</time>
      </trkpt>
      <trkpt lat="45.98128" lon="4.92235">
        <ele>300</ele>
        <time>2016-09-20T09:21:14Z</time>
      </trkpt>
      <trkpt lat="45.98124" lon="4.92241">
        <ele>299</ele>
        <time>2016-09-20T09:21:15Z</time>
      </trkpt>
      <trkpt lat="45.9812" lon="4.92246">
        <ele>299</ele>
        <time>2016-09-20T09:21:16Z</time>
      </trkpt>
      <trkpt lat="45.98115" lon="4.92252">
        <ele>300</ele>
        <time>2016-09-20T09:21:17Z</time>
      </trkpt>
      <trkpt lat="45.98111" lon="4.92257">
        <ele>300</ele>
        <time>2016-09-20T09:21:18Z</time>
      </trkpt>
      <trkpt lat="45.98106" lon="4.92262">
        <ele>300</ele>
        <time>2016-09-20T09:21:19Z</time>
      </trkpt>
      <trkpt lat="45.98102" lon="4.92267">
        <ele>300</ele>
        <time>2016-09-20T09:21:20Z</time>
      </trkpt>
      <trkpt lat="45.98098" lon="4.92272">
        <ele>300</ele>
        <time>2016-09-20T09:21:21Z</time>
      </trkpt>
      <trkpt lat="45.98094" lon="4.92277">
        <ele>300</ele>
        <time>2016-09-20T09:21:22Z</time>
      </trkpt>
      <trkpt lat="45.98089" lon="4.92282">
        <ele>300</ele>
        <time>2016-09-20T09:21:23Z</time>
      </trkpt>
      <trkpt lat="45.98085" lon="4.92288">
        <ele>300</ele>
        <time>2016-09-20T09:21:24Z</time>
      </trkpt>
      <trkpt lat="45.9808" lon="4.92294">
        <ele>299</ele>
        <time>2016-09-20T09:21:25Z</time>
      </trkpt>
      <trkpt lat="45.98076" lon="4.923">
        <ele>299</ele>
        <time>2016-09-20T09:21:26Z</time>
      </trkpt>
      <trkpt lat="45.98071" lon="4.92305">
        <ele>299</ele>
        <time>2016-09-20T09:21:27Z</time>
      </trkpt>
      <trkpt lat="45.98067" lon="4.92311">
        <ele>299</ele>
        <time>2016-09-20T09:21:28Z</time>
      </trkpt>
      <trkpt lat="45.98062" lon="4.92316">
        <ele>299</ele>
        <time>2016-09-20T09:21:29Z</time>
      </trkpt>
      <trkpt lat="45.98058" lon="4.92322">
        <ele>299</ele>
        <time>2016-09-20T09:21:30Z</time>
      </trkpt>
      <trkpt lat="45.98053" lon="4.92327">
        <ele>299</ele>
        <time>2016-09-20T09:21:31Z</time>
      </trkpt>
      <trkpt lat="45.98048" lon="4.92333">
        <ele>299</ele>
        <time>2016-09-20T09:21:32Z</time>
      </trkpt>
      <trkpt lat="45.98044" lon="4.92338">
        <ele>299</ele>
        <time>2016-09-20T09:21:33Z</time>
      </trkpt>
      <trkpt lat="45.98039" lon="4.92343">
        <ele>299</ele>
        <time>2016-09-20T09:21:34Z</time>
      </trkpt>
      <trkpt lat="45.98035" lon="4.92348">
        <ele>299</ele>
        <time>2016-09-20T09:21:35Z</time>
      </trkpt>
      <trkpt lat="45.98031" lon="4.92353">
        <ele>298</ele>
        <time>2016-09-20T09:21:36Z</time>
      </trkpt>
      <trkpt lat="45.98028" lon="4.92358">
        <ele>298</ele>
        <time>2016-09-20T09:21:37Z</time>
      </trkpt>
      <trkpt lat="45.98024" lon="4.92363">
        <ele>298</ele>
        <time>2016-09-20T09:21:38Z</time>
      </trkpt>
      <trkpt lat="45.9802" lon="4.92368">
        <ele>298</ele>
        <time>2016-09-20T09:21:39Z</time>
      </trkpt>
      <trkpt lat="45.98015" lon="4.92372">
        <ele>298</ele>
        <time>2016-09-20T09:21:40Z</time>
      </trkpt>
      <trkpt lat="45.9801" lon="4.92377">
        <ele>298</ele>
        <time>2016-09-20T09:21:41Z</time>
      </trkpt>
      <trkpt lat="45.98005" lon="4.92382">
        <ele>298</ele>
        <time>2016-09-20T09:21:42Z</time>
      </trkpt>
      <trkpt lat="45.98" lon="4.92387">
        <ele>298</ele>
        <time>2016-09-20T09:21:43Z</time>
      </trkpt>
      <trkpt lat="45.97996" lon="4.92394">
        <ele>298</ele>
        <time>2016-09-20T09:21:44Z</time>
      </trkpt>
      <trkpt lat="45.97991" lon="4.924">
        <ele>298</ele>
        <time>2016-09-20T09:21:45Z</time>
      </trkpt>
      <trkpt lat="45.97986" lon="4.92406">
        <ele>298</ele>
        <time>2016-09-20T09:21:46Z</time>
      </trkpt>
      <trkpt lat="45.97982" lon="4.92412">
        <ele>298</ele>
        <time>2016-09-20T09:21:47Z</time>
      </trkpt>
      <trkpt lat="45.97977" lon="4.92417">
        <ele>298</ele>
        <time>2016-09-20T09:21:48Z</time>
      </trkpt>
      <trkpt lat="45.97973" lon="4.92422">
        <ele>298</ele>
        <time>2016-09-20T09:21:49Z</time>
      </trkpt>
      <trkpt lat="45.97969" lon="4.92428">
        <ele>298</ele>
        <time>2016-09-20T09:21:50Z</time>
      </trkpt>
      <trkpt lat="45.97964" lon="4.92433">
        <ele>298</ele>
        <time>2016-09-20T09:21:51Z</time>
      </trkpt>
      <trkpt lat="45.9796" lon="4.92438">
        <ele>298</ele>
        <time>2016-09-20T09:21:52Z</time>
      </trkpt>
      <trkpt lat="45.97955" lon="4.92443">
        <ele>299</ele>
        <time>2016-09-20T09:21:53Z</time>
      </trkpt>
      <trkpt lat="45.97951" lon="4.92448">
        <ele>299</ele>
        <time>2016-09-20T09:21:54Z</time>
      </trkpt>
      <trkpt lat="45.97947" lon="4.92453">
        <ele>299</ele>
        <time>2016-09-20T09:21:55Z</time>
      </trkpt>
      <trkpt lat="45.97943" lon="4.92458">
        <ele>299</ele>
        <time>2016-09-20T09:21:56Z</time>
      </trkpt>
      <trkpt lat="45.97939" lon="4.92463">
        <ele>299</ele>
        <time>2016-09-20T09:21:57Z</time>
      </trkpt>
      <trkpt lat="45.97935" lon="4.92468">
        <ele>299</ele>
        <time>2016-09-20T09:21:58Z</time>
      </trkpt>
      <trkpt lat="45.97931" lon="4.92474">
        <ele>299</ele>
        <time>2016-09-20T09:21:59Z</time>
      </trkpt>
      <trkpt lat="45.97927" lon="4.9248">
        <ele>299</ele>
        <time>2016-09-20T09:22:00Z</time>
      </trkpt>
      <trkpt lat="45.97922" lon="4.92485">
        <ele>299</ele>
        <time>2016-09-20T09:22:01Z</time>
      </trkpt>
      <trkpt lat="45.97918" lon="4.92491">
        <ele>299</ele>
        <time>2016-09-20T09:22:02Z</time>
      </trkpt>
      <trkpt lat="45.97914" lon="4.92496">
        <ele>299</ele>
        <time>2016-09-20T09:22:03Z</time>
      </trkpt>
      <trkpt lat="45.97909" lon="4.925">
        <ele>299</ele>
        <time>2016-09-20T09:22:04Z</time>
      </trkpt>
      <trkpt lat="45.97905" lon="4.92505">
        <ele>299</ele>
        <time>2016-09-20T09:22:05Z</time>
      </trkpt>
      <trkpt lat="45.97902" lon="4.9251">
        <ele>299</ele>
        <time>2016-09-20T09:22:06Z</time>
      </trkpt>
      <trkpt lat="45.97898" lon="4.92515">
        <ele>299</ele>
        <time>2016-09-20T09:22:07Z</time>
      </trkpt>
      <trkpt lat="45.97894" lon="4.9252">
        <ele>300</ele>
        <time>2016-09-20T09:22:08Z</time>
      </trkpt>
      <trkpt lat="45.9789" lon="4.92525">
        <ele>300</ele>
        <time>2016-09-20T09:22:09Z</time>
      </trkpt>
      <trkpt lat="45.97885" lon="4.9253">
        <ele>300</ele>
        <time>2016-09-20T09:22:10Z</time>
      </trkpt>
      <trkpt lat="45.97881" lon="4.92535">
        <ele>300</ele>
        <time>2016-09-20T09:22:11Z</time>
      </trkpt>
      <trkpt lat="45.97877" lon="4.92539">
        <ele>300</ele>
        <time>2016-09-20T09:22:12Z</time>
      </trkpt>
      <trkpt lat="45.97873" lon="4.92544">
        <ele>300</ele>
        <time>2016-09-20T09:22:13Z</time>
      </trkpt>
      <trkpt lat="45.97869" lon="4.92549">
        <ele>300</ele>
        <time>2016-09-20T09:22:14Z</time>
      </trkpt>
      <trkpt lat="45.97866" lon="4.92554">
        <ele>300</ele>
        <time>2016-09-20T09:22:15Z</time>
      </trkpt>
      <trkpt lat="45.97862" lon="4.92558">
        <ele>300</ele>
        <time>2016-09-20T09:22:16Z</time>
      </trkpt>
      <trkpt lat="45.97859" lon="4.92563">
        <ele>300</ele>
        <time>2016-09-20T09:22:17Z</time>
      </trkpt>
      <trkpt lat="45.97855" lon="4.92567">
        <ele>300</ele>
        <time>2016-09-20T09:22:18Z</time>
      </trkpt>
      <trkpt lat="45.97851" lon="4.92571">
        <ele>300</ele>
        <time>2016-09-20T09:22:19Z</time>
      </trkpt>
      <trkpt lat="45.97847" lon="4.92576">
        <ele>300</ele>
        <time>2016-09-20T09:22:20Z</time>
      </trkpt>
      <trkpt lat="45.97843" lon="4.92581">
        <ele>300</ele>
        <time>2016-09-20T09:22:21Z</time>
      </trkpt>
      <trkpt lat="45.97839" lon="4.92585">
        <ele>300</ele>
        <time>2016-09-20T09:22:22Z</time>
      </trkpt>
      <trkpt lat="45.97835" lon="4.9259">
        <ele>300</ele>
        <time>2016-09-20T09:22:23Z</time>
      </trkpt>
      <trkpt lat="45.97831" lon="4.92595">
        <ele>300</ele>
        <time>2016-09-20T09:22:24Z</time>
      </trkpt>
      <trkpt lat="45.97828" lon="4.926">
        <ele>300</ele>
        <time>2016-09-20T09:22:25Z</time>
      </trkpt>
      <trkpt lat="45.97824" lon="4.92605">
        <ele>300</ele>
        <time>2016-09-20T09:22:26Z</time>
      </trkpt>
      <trkpt lat="45.9782" lon="4.9261">
        <ele>300</ele>
        <time>2016-09-20T09:22:27Z</time>
      </trkpt>
      <trkpt lat="45.97815" lon="4.92615">
        <ele>300</ele>
        <time>2016-09-20T09:22:28Z</time>
      </trkpt>
      <trkpt lat="45.9781" lon="4.9262">
        <ele>300</ele>
        <time>2016-09-20T09:22:29Z</time>
      </trkpt>
      <trkpt lat="45.97806" lon="4.92626">
        <ele>301</ele>
        <time>2016-09-20T09:22:30Z</time>
      </trkpt>
      <trkpt lat="45.97801" lon="4.92631">
        <ele>301</ele>
        <time>2016-09-20T09:22:31Z</time>
      </trkpt>
      <trkpt lat="45.97797" lon="4.92637">
        <ele>301</ele>
        <time>2016-09-20T09:22:32Z</time>
      </trkpt>
      <trkpt lat="45.97792" lon="4.92642">
        <ele>301</ele>
        <time>2016-09-20T09:22:33Z</time>
      </trkpt>
      <trkpt lat="45.97788" lon="4.92648">
        <ele>300</ele>
        <time>2016-09-20T09:22:34Z</time>
      </trkpt>
      <trkpt lat="45.97783" lon="4.92653">
        <ele>300</ele>
        <time>2016-09-20T09:22:35Z</time>
      </trkpt>
      <trkpt lat="45.97779" lon="4.92658">
        <ele>300</ele>
        <time>2016-09-20T09:22:36Z</time>
      </trkpt>
      <trkpt lat="45.97774" lon="4.92663">
        <ele>300</ele>
        <time>2016-09-20T09:22:37Z</time>
      </trkpt>
      <trkpt lat="45.97771" lon="4.92668">
        <ele>300</ele>
        <time>2016-09-20T09:22:38Z</time>
      </trkpt>
      <trkpt lat="45.97767" lon="4.92673">
        <ele>300</ele>
        <time>2016-09-20T09:22:39Z</time>
      </trkpt>
      <trkpt lat="45.97763" lon="4.92679">
        <ele>300</ele>
        <time>2016-09-20T09:22:40Z</time>
      </trkpt>
      <trkpt lat="45.97758" lon="4.92684">
        <ele>300</ele>
        <time>2016-09-20T09:22:41Z</time>
      </trkpt>
      <trkpt lat="45.97754" lon="4.92689">
        <ele>300</ele>
        <time>2016-09-20T09:22:42Z</time>
      </trkpt>
      <trkpt lat="45.9775" lon="4.92695">
        <ele>301</ele>
        <time>2016-09-20T09:22:43Z</time>
      </trkpt>
      <trkpt lat="45.97745" lon="4.927">
        <ele>301</ele>
        <time>2016-09-20T09:22:44Z</time>
      </trkpt>
      <trkpt lat="45.97741" lon="4.92706">
        <ele>301</ele>
        <time>2016-09-20T09:22:45Z</time>
      </trkpt>
      <trkpt lat="45.97737" lon="4.92712">
        <ele>301</ele>
        <time>2016-09-20T09:22:46Z</time>
      </trkpt>
      <trkpt lat="45.97733" lon="4.92717">
        <ele>301</ele>
        <time>2016-09-20T09:22:47Z</time>
      </trkpt>
      <trkpt lat="45.97728" lon="4.92723">
        <ele>301</ele>
        <time>2016-09-20T09:22:48Z</time>
      </trkpt>
      <trkpt lat="45.97724" lon="4.92729">
        <ele>301</ele>
        <time>2016-09-20T09:22:49Z</time>
      </trkpt>
      <trkpt lat="45.97719" lon="4.92735">
        <ele>301</ele>
        <time>2016-09-20T09:22:50Z</time>
      </trkpt>
      <trkpt lat="45.97714" lon="4.92741">
        <ele>301</ele>
        <time>2016-09-20T09:22:51Z</time>
      </trkpt>
      <trkpt lat="45.97709" lon="4.92747">
        <ele>301</ele>
        <time>2016-09-20T09:22:52Z</time>
      </trkpt>
      <trkpt lat="45.97704" lon="4.92753">
        <ele>301</ele>
        <time>2016-09-20T09:22:53Z</time>
      </trkpt>
      <trkpt lat="45.97699" lon="4.92759">
        <ele>301</ele>
        <time>2016-09-20T09:22:54Z</time>
      </trkpt>
      <trkpt lat="45.97694" lon="4.92764">
        <ele>301</ele>
        <time>2016-09-20T09:22:55Z</time>
      </trkpt>
      <trkpt lat="45.97688" lon="4.9277">
        <ele>301</ele>
        <time>2016-09-20T09:22:56Z</time>
      </trkpt>
      <trkpt lat="45.97684" lon="4.92775">
        <ele>301</ele>
        <time>2016-09-20T09:22:57Z</time>
      </trkpt>
      <trkpt lat="45.9768" lon="4.92781">
        <ele>301</ele>
        <time>2016-09-20T09:22:58Z</time>
      </trkpt>
      <trkpt lat="45.97676" lon="4.92786">
        <ele>301</ele>
        <time>2016-09-20T09:22:59Z</time>
      </trkpt>
      <trkpt lat="45.97672" lon="4.92791">
        <ele>301</ele>
        <time>2016-09-20T09:23:00Z</time>
      </trkpt>
      <trkpt lat="45.97668" lon="4.92797">
        <ele>301</ele>
        <time>2016-09-20T09:23:01Z</time>
      </trkpt>
      <trkpt lat="45.97664" lon="4.92802">
        <ele>300</ele>
        <time>2016-09-20T09:23:02Z</time>
      </trkpt>
      <trkpt lat="45.9766" lon="4.92807">
        <ele>300</ele>
        <time>2016-09-20T09:23:03Z</time>
      </trkpt>
      <trkpt lat="45.97656" lon="4.92812">
        <ele>300</ele>
        <time>2016-09-20T09:23:04Z</time>
      </trkpt>
      <trkpt lat="45.97652" lon="4.92818">
        <ele>300</ele>
        <time>2016-09-20T09:23:05Z</time>
      </trkpt>
      <trkpt lat="45.97647" lon="4.92823">
        <ele>300</ele>
        <time>2016-09-20T09:23:06Z</time>
      </trkpt>
      <trkpt lat="45.97643" lon="4.92828">
        <ele>300</ele>
        <time>2016-09-20T09:23:07Z</time>
      </trkpt>
      <trkpt lat="45.9764" lon="4.92833">
        <ele>300</ele>
        <time>2016-09-20T09:23:08Z</time>
      </trkpt>
      <trkpt lat="45.97635" lon="4.92838">
        <ele>298</ele>
        <time>2016-09-20T09:23:09Z</time>
      </trkpt>
      <trkpt lat="45.97632" lon="4.92843">
        <ele>298</ele>
        <time>2016-09-20T09:23:10Z</time>
      </trkpt>
      <trkpt lat="45.97628" lon="4.92848">
        <ele>298</ele>
        <time>2016-09-20T09:23:11Z</time>
      </trkpt>
      <trkpt lat="45.97624" lon="4.92853">
        <ele>298</ele>
        <time>2016-09-20T09:23:12Z</time>
      </trkpt>
      <trkpt lat="45.9762" lon="4.92858">
        <ele>298</ele>
        <time>2016-09-20T09:23:13Z</time>
      </trkpt>
      <trkpt lat="45.97615" lon="4.92863">
        <ele>298</ele>
        <time>2016-09-20T09:23:14Z</time>
      </trkpt>
      <trkpt lat="45.97611" lon="4.92868">
        <ele>298</ele>
        <time>2016-09-20T09:23:15Z</time>
      </trkpt>
      <trkpt lat="45.97607" lon="4.92873">
        <ele>298</ele>
        <time>2016-09-20T09:23:16Z</time>
      </trkpt>
      <trkpt lat="45.97603" lon="4.92878">
        <ele>298</ele>
        <time>2016-09-20T09:23:17Z</time>
      </trkpt>
      <trkpt lat="45.97599" lon="4.92883">
        <ele>298</ele>
        <time>2016-09-20T09:23:18Z</time>
      </trkpt>
      <trkpt lat="45.97595" lon="4.92889">
        <ele>298</ele>
        <time>2016-09-20T09:23:19Z</time>
      </trkpt>
      <trkpt lat="45.97591" lon="4.92894">
        <ele>298</ele>
        <time>2016-09-20T09:23:20Z</time>
      </trkpt>
      <trkpt lat="45.97586" lon="4.929">
        <ele>298</ele>
        <time>2016-09-20T09:23:21Z</time>
      </trkpt>
      <trkpt lat="45.97582" lon="4.92906">
        <ele>298</ele>
        <time>2016-09-20T09:23:22Z</time>
      </trkpt>
      <trkpt lat="45.97577" lon="4.92912">
        <ele>298</ele>
        <time>2016-09-20T09:23:23Z</time>
      </trkpt>
      <trkpt lat="45.97572" lon="4.92918">
        <ele>298</ele>
        <time>2016-09-20T09:23:24Z</time>
      </trkpt>
      <trkpt lat="45.97567" lon="4.92923">
        <ele>298</ele>
        <time>2016-09-20T09:23:25Z</time>
      </trkpt>
      <trkpt lat="45.97561" lon="4.92929">
        <ele>298</ele>
        <time>2016-09-20T09:23:26Z</time>
      </trkpt>
      <trkpt lat="45.97555" lon="4.92934">
        <ele>299</ele>
        <time>2016-09-20T09:23:27Z</time>
      </trkpt>
      <trkpt lat="45.9755" lon="4.9294">
        <ele>299</ele>
        <time>2016-09-20T09:23:28Z</time>
      </trkpt>
      <trkpt lat="45.97545" lon="4.92947">
        <ele>299</ele>
        <time>2016-09-20T09:23:29Z</time>
      </trkpt>
      <trkpt lat="45.97539" lon="4.92953">
        <ele>299</ele>
        <time>2016-09-20T09:23:30Z</time>
      </trkpt>
      <trkpt lat="45.97534" lon="4.9296">
        <ele>299</ele>
        <time>2016-09-20T09:23:31Z</time>
      </trkpt>
      <trkpt lat="45.97528" lon="4.92966">
        <ele>299</ele>
        <time>2016-09-20T09:23:32Z</time>
      </trkpt>
      <trkpt lat="45.97523" lon="4.92972">
        <ele>299</ele>
        <time>2016-09-20T09:23:33Z</time>
      </trkpt>
      <trkpt lat="45.97519" lon="4.92978">
        <ele>299</ele>
        <time>2016-09-20T09:23:34Z</time>
      </trkpt>
      <trkpt lat="45.97514" lon="4.92983">
        <ele>299</ele>
        <time>2016-09-20T09:23:35Z</time>
      </trkpt>
      <trkpt lat="45.9751" lon="4.92989">
        <ele>299</ele>
        <time>2016-09-20T09:23:36Z</time>
      </trkpt>
      <trkpt lat="45.97504" lon="4.92995">
        <ele>299</ele>
        <time>2016-09-20T09:23:37Z</time>
      </trkpt>
      <trkpt lat="45.97498" lon="4.93001">
        <ele>299</ele>
        <time>2016-09-20T09:23:38Z</time>
      </trkpt>
      <trkpt lat="45.97493" lon="4.93007">
        <ele>299</ele>
        <time>2016-09-20T09:23:39Z</time>
      </trkpt>
      <trkpt lat="45.97487" lon="4.93013">
        <ele>299</ele>
        <time>2016-09-20T09:23:40Z</time>
      </trkpt>
      <trkpt lat="45.97481" lon="4.9302">
        <ele>299</ele>
        <time>2016-09-20T09:23:41Z</time>
      </trkpt>
      <trkpt lat="45.97476" lon="4.93026">
        <ele>299</ele>
        <time>2016-09-20T09:23:42Z</time>
      </trkpt>
      <trkpt lat="45.97471" lon="4.93033">
        <ele>299</ele>
        <time>2016-09-20T09:23:43Z</time>
      </trkpt>
      <trkpt lat="45.97466" lon="4.93039">
        <ele>299</ele>
        <time>2016-09-20T09:23:44Z</time>
      </trkpt>
      <trkpt lat="45.97462" lon="4.93045">
        <ele>299</ele>
        <time>2016-09-20T09:23:45Z</time>
      </trkpt>
      <trkpt lat="45.97457" lon="4.93051">
        <ele>299</ele>
        <time>2016-09-20T09:23:46Z</time>
      </trkpt>
      <trkpt lat="45.97452" lon="4.93057">
        <ele>299</ele>
        <time>2016-09-20T09:23:47Z</time>
      </trkpt>
      <trkpt lat="45.97448" lon="4.93063">
        <ele>299</ele>
        <time>2016-09-20T09:23:48Z</time>
      </trkpt>
      <trkpt lat="45.97444" lon="4.93068">
        <ele>299</ele>
        <time>2016-09-20T09:23:49Z</time>
      </trkpt>
      <trkpt lat="45.9744" lon="4.93073">
        <ele>299</ele>
        <time>2016-09-20T09:23:50Z</time>
      </trkpt>
      <trkpt lat="45.97435" lon="4.93078">
        <ele>299</ele>
        <time>2016-09-20T09:23:51Z</time>
      </trkpt>
      <trkpt lat="45.9743" lon="4.93084">
        <ele>299</ele>
        <time>2016-09-20T09:23:52Z</time>
      </trkpt>
      <trkpt lat="45.97426" lon="4.9309">
        <ele>299</ele>
        <time>2016-09-20T09:23:53Z</time>
      </trkpt>
      <trkpt lat="45.9742" lon="4.93096">
        <ele>299</ele>
        <time>2016-09-20T09:23:54Z</time>
      </trkpt>
      <trkpt lat="45.97415" lon="4.93103">
        <ele>299</ele>
        <time>2016-09-20T09:23:55Z</time>
      </trkpt>
      <trkpt lat="45.97411" lon="4.93109">
        <ele>300</ele>
        <time>2016-09-20T09:23:56Z</time>
      </trkpt>
      <trkpt lat="45.97406" lon="4.93115">
        <ele>300</ele>
        <time>2016-09-20T09:23:57Z</time>
      </trkpt>
      <trkpt lat="45.97401" lon="4.9312">
        <ele>300</ele>
        <time>2016-09-20T09:23:58Z</time>
      </trkpt>
      <trkpt lat="45.97397" lon="4.93126">
        <ele>300</ele>
        <time>2016-09-20T09:23:59Z</time>
      </trkpt>
      <trkpt lat="45.97392" lon="4.93131">
        <ele>300</ele>
        <time>2016-09-20T09:24:00Z</time>
      </trkpt>
      <trkpt lat="45.97389" lon="4.93136">
        <ele>300</ele>
        <time>2016-09-20T09:24:01Z</time>
      </trkpt>
      <trkpt lat="45.97385" lon="4.93142">
        <ele>300</ele>
        <time>2016-09-20T09:24:02Z</time>
      </trkpt>
      <trkpt lat="45.97381" lon="4.93147">
        <ele>300</ele>
        <time>2016-09-20T09:24:03Z</time>
      </trkpt>
      <trkpt lat="45.97377" lon="4.93151">
        <ele>300</ele>
        <time>2016-09-20T09:24:04Z</time>
      </trkpt>
      <trkpt lat="45.97374" lon="4.93156">
        <ele>300</ele>
        <time>2016-09-20T09:24:05Z</time>
      </trkpt>
      <trkpt lat="45.9737" lon="4.9316">
        <ele>300</ele>
        <time>2016-09-20T09:24:06Z</time>
      </trkpt>
      <trkpt lat="45.97367" lon="4.93165">
        <ele>300</ele>
        <time>2016-09-20T09:24:07Z</time>
      </trkpt>
      <trkpt lat="45.97363" lon="4.9317">
        <ele>301</ele>
        <time>2016-09-20T09:24:08Z</time>
      </trkpt>
      <trkpt lat="45.97357" lon="4.93175">
        <ele>301</ele>
        <time>2016-09-20T09:24:09Z</time>
      </trkpt>
      <trkpt lat="45.97352" lon="4.9318">
        <ele>301</ele>
        <time>2016-09-20T09:24:10Z</time>
      </trkpt>
      <trkpt lat="45.97348" lon="4.93185">
        <ele>301</ele>
        <time>2016-09-20T09:24:11Z</time>
      </trkpt>
      <trkpt lat="45.97344" lon="4.93191">
        <ele>301</ele>
        <time>2016-09-20T09:24:12Z</time>
      </trkpt>
      <trkpt lat="45.9734" lon="4.93197">
        <ele>301</ele>
        <time>2016-09-20T09:24:13Z</time>
      </trkpt>
      <trkpt lat="45.97335" lon="4.93202">
        <ele>302</ele>
        <time>2016-09-20T09:24:14Z</time>
      </trkpt>
      <trkpt lat="45.9733" lon="4.93208">
        <ele>302</ele>
        <time>2016-09-20T09:24:15Z</time>
      </trkpt>
      <trkpt lat="45.97326" lon="4.93214">
        <ele>302</ele>
        <time>2016-09-20T09:24:16Z</time>
      </trkpt>
      <trkpt lat="45.97321" lon="4.9322">
        <ele>302</ele>
        <time>2016-09-20T09:24:17Z</time>
      </trkpt>
      <trkpt lat="45.97316" lon="4.93226">
        <ele>302</ele>
        <time>2016-09-20T09:24:18Z</time>
      </trkpt>
      <trkpt lat="45.97311" lon="4.93231">
        <ele>302</ele>
        <time>2016-09-20T09:24:19Z</time>
      </trkpt>
      <trkpt lat="45.97306" lon="4.93237">
        <ele>302</ele>
        <time>2016-09-20T09:24:20Z</time>
      </trkpt>
      <trkpt lat="45.97302" lon="4.93242">
        <ele>302</ele>
        <time>2016-09-20T09:24:21Z</time>
      </trkpt>
      <trkpt lat="45.97297" lon="4.93247">
        <ele>302</ele>
        <time>2016-09-20T09:24:22Z</time>
      </trkpt>
      <trkpt lat="45.97292" lon="4.93252">
        <ele>302</ele>
        <time>2016-09-20T09:24:23Z</time>
      </trkpt>
      <trkpt lat="45.97288" lon="4.93256">
        <ele>302</ele>
        <time>2016-09-20T09:24:24Z</time>
      </trkpt>
      <trkpt lat="45.97284" lon="4.93262">
        <ele>302</ele>
        <time>2016-09-20T09:24:25Z</time>
      </trkpt>
      <trkpt lat="45.9728" lon="4.93267">
        <ele>302</ele>
        <time>2016-09-20T09:24:26Z</time>
      </trkpt>
      <trkpt lat="45.97276" lon="4.93273">
        <ele>302</ele>
        <time>2016-09-20T09:24:27Z</time>
      </trkpt>
      <trkpt lat="45.97272" lon="4.93278">
        <ele>302</ele>
        <time>2016-09-20T09:24:28Z</time>
      </trkpt>
      <trkpt lat="45.97268" lon="4.93283">
        <ele>302</ele>
        <time>2016-09-20T09:24:29Z</time>
      </trkpt>
      <trkpt lat="45.97264" lon="4.93288">
        <ele>302</ele>
        <time>2016-09-20T09:24:30Z</time>
      </trkpt>
      <trkpt lat="45.97261" lon="4.93294">
        <ele>302</ele>
        <time>2016-09-20T09:24:31Z</time>
      </trkpt>
      <trkpt lat="45.97256" lon="4.93299">
        <ele>302</ele>
        <time>2016-09-20T09:24:32Z</time>
      </trkpt>
      <trkpt lat="45.97251" lon="4.93304">
        <ele>302</ele>
        <time>2016-09-20T09:24:33Z</time>
      </trkpt>
      <trkpt lat="45.97247" lon="4.93309">
        <ele>301</ele>
        <time>2016-09-20T09:24:34Z</time>
      </trkpt>
      <trkpt lat="45.97243" lon="4.93314">
        <ele>301</ele>
        <time>2016-09-20T09:24:35Z</time>
      </trkpt>
      <trkpt lat="45.97239" lon="4.93319">
        <ele>301</ele>
        <time>2016-09-20T09:24:36Z</time>
      </trkpt>
      <trkpt lat="45.97235" lon="4.93324">
        <ele>301</ele>
        <time>2016-09-20T09:24:37Z</time>
      </trkpt>
      <trkpt lat="45.97231" lon="4.93328">
        <ele>301</ele>
        <time>2016-09-20T09:24:38Z</time>
      </trkpt>
      <trkpt lat="45.97227" lon="4.93333">
        <ele>301</ele>
        <time>2016-09-20T09:24:39Z</time>
      </trkpt>
      <trkpt lat="45.97223" lon="4.93338">
        <ele>301</ele>
        <time>2016-09-20T09:24:40Z</time>
      </trkpt>
      <trkpt lat="45.97218" lon="4.93343">
        <ele>301</ele>
        <time>2016-09-20T09:24:41Z</time>
      </trkpt>
      <trkpt lat="45.97214" lon="4.93348">
        <ele>301</ele>
        <time>2016-09-20T09:24:42Z</time>
      </trkpt>
      <trkpt lat="45.9721" lon="4.93354">
        <ele>301</ele>
        <time>2016-09-20T09:24:43Z</time>
      </trkpt>
      <trkpt lat="45.97206" lon="4.93359">
        <ele>301</ele>
        <time>2016-09-20T09:24:44Z</time>
      </trkpt>
      <trkpt lat="45.97202" lon="4.93364">
        <ele>301</ele>
        <time>2016-09-20T09:24:45Z</time>
      </trkpt>
      <trkpt lat="45.97198" lon="4.9337">
        <ele>301</ele>
        <time>2016-09-20T09:24:46Z</time>
      </trkpt>
      <trkpt lat="45.97194" lon="4.93376">
        <ele>301</ele>
        <time>2016-09-20T09:24:47Z</time>
      </trkpt>
      <trkpt lat="45.97189" lon="4.93382">
        <ele>301</ele>
        <time>2016-09-20T09:24:48Z</time>
      </trkpt>
      <trkpt lat="45.97185" lon="4.93387">
        <ele>301</ele>
        <time>2016-09-20T09:24:49Z</time>
      </trkpt>
      <trkpt lat="45.97181" lon="4.93392">
        <ele>301</ele>
        <time>2016-09-20T09:24:50Z</time>
      </trkpt>
      <trkpt lat="45.97177" lon="4.93397">
        <ele>301</ele>
        <time>2016-09-20T09:24:51Z</time>
      </trkpt>
      <trkpt lat="45.97173" lon="4.93402">
        <ele>302</ele>
        <time>2016-09-20T09:24:52Z</time>
      </trkpt>
      <trkpt lat="45.97169" lon="4.93406">
        <ele>302</ele>
        <time>2016-09-20T09:24:53Z</time>
      </trkpt>
      <trkpt lat="45.97165" lon="4.9341">
        <ele>302</ele>
        <time>2016-09-20T09:24:54Z</time>
      </trkpt>
      <trkpt lat="45.97158" lon="4.93419">
        <ele>302</ele>
        <time>2016-09-20T09:24:56Z</time>
      </trkpt>
      <trkpt lat="45.97155" lon="4.93424">
        <ele>302</ele>
        <time>2016-09-20T09:24:57Z</time>
      </trkpt>
      <trkpt lat="45.97151" lon="4.93428">
        <ele>302</ele>
        <time>2016-09-20T09:24:58Z</time>
      </trkpt>
      <trkpt lat="45.97148" lon="4.93433">
        <ele>302</ele>
        <time>2016-09-20T09:24:59Z</time>
      </trkpt>
      <trkpt lat="45.97142" lon="4.93443">
        <ele>301</ele>
        <time>2016-09-20T09:25:01Z</time>
      </trkpt>
      <trkpt lat="45.97139" lon="4.93447">
        <ele>301</ele>
        <time>2016-09-20T09:25:02Z</time>
      </trkpt>
      <trkpt lat="45.97136" lon="4.93452">
        <ele>301</ele>
        <time>2016-09-20T09:25:03Z</time>
      </trkpt>
      <trkpt lat="45.97132" lon="4.93457">
        <ele>301</ele>
        <time>2016-09-20T09:25:04Z</time>
      </trkpt>
      <trkpt lat="45.97127" lon="4.93462">
        <ele>301</ele>
        <time>2016-09-20T09:25:05Z</time>
      </trkpt>
      <trkpt lat="45.97123" lon="4.93467">
        <ele>301</ele>
        <time>2016-09-20T09:25:06Z</time>
      </trkpt>
      <trkpt lat="45.97119" lon="4.93472">
        <ele>301</ele>
        <time>2016-09-20T09:25:07Z</time>
      </trkpt>
      <trkpt lat="45.97115" lon="4.93478">
        <ele>301</ele>
        <time>2016-09-20T09:25:08Z</time>
      </trkpt>
      <trkpt lat="45.97111" lon="4.93483">
        <ele>301</ele>
        <time>2016-09-20T09:25:09Z</time>
      </trkpt>
      <trkpt lat="45.97107" lon="4.93488">
        <ele>301</ele>
        <time>2016-09-20T09:25:10Z</time>
      </trkpt>
      <trkpt lat="45.97103" lon="4.93493">
        <ele>301</ele>
        <time>2016-09-20T09:25:11Z</time>
      </trkpt>
      <trkpt lat="45.97099" lon="4.93499">
        <ele>301</ele>
        <time>2016-09-20T09:25:12Z</time>
      </trkpt>
      <trkpt lat="45.97094" lon="4.93504">
        <ele>301</ele>
        <time>2016-09-20T09:25:13Z</time>
      </trkpt>
      <trkpt lat="45.9709" lon="4.93509">
        <ele>301</ele>
        <time>2016-09-20T09:25:14Z</time>
      </trkpt>
      <trkpt lat="45.97085" lon="4.93515">
        <ele>301</ele>
        <time>2016-09-20T09:25:15Z</time>
      </trkpt>
      <trkpt lat="45.97081" lon="4.9352">
        <ele>299</ele>
        <time>2016-09-20T09:25:16Z</time>
      </trkpt>
      <trkpt lat="45.97076" lon="4.93525">
        <ele>299</ele>
        <time>2016-09-20T09:25:17Z</time>
      </trkpt>
      <trkpt lat="45.97072" lon="4.9353">
        <ele>299</ele>
        <time>2016-09-20T09:25:18Z</time>
      </trkpt>
      <trkpt lat="45.97067" lon="4.93536">
        <ele>299</ele>
        <time>2016-09-20T09:25:19Z</time>
      </trkpt>
      <trkpt lat="45.97062" lon="4.93541">
        <ele>299</ele>
        <time>2016-09-20T09:25:20Z</time>
      </trkpt>
      <trkpt lat="45.97058" lon="4.93546">
        <ele>299</ele>
        <time>2016-09-20T09:25:21Z</time>
      </trkpt>
      <trkpt lat="45.97054" lon="4.93552">
        <ele>299</ele>
        <time>2016-09-20T09:25:22Z</time>
      </trkpt>
      <trkpt lat="45.97049" lon="4.93558">
        <ele>299</ele>
        <time>2016-09-20T09:25:23Z</time>
      </trkpt>
      <trkpt lat="45.97045" lon="4.93563">
        <ele>299</ele>
        <time>2016-09-20T09:25:24Z</time>
      </trkpt>
      <trkpt lat="45.9704" lon="4.93569">
        <ele>299</ele>
        <time>2016-09-20T09:25:25Z</time>
      </trkpt>
      <trkpt lat="45.97035" lon="4.93575">
        <ele>299</ele>
        <time>2016-09-20T09:25:26Z</time>
      </trkpt>
      <trkpt lat="45.97031" lon="4.93581">
        <ele>299</ele>
        <time>2016-09-20T09:25:27Z</time>
      </trkpt>
      <trkpt lat="45.97027" lon="4.93588">
        <ele>300</ele>
        <time>2016-09-20T09:25:28Z</time>
      </trkpt>
      <trkpt lat="45.97022" lon="4.93594">
        <ele>300</ele>
        <time>2016-09-20T09:25:29Z</time>
      </trkpt>
      <trkpt lat="45.97017" lon="4.936">
        <ele>300</ele>
        <time>2016-09-20T09:25:30Z</time>
      </trkpt>
      <trkpt lat="45.97012" lon="4.93606">
        <ele>300</ele>
        <time>2016-09-20T09:25:31Z</time>
      </trkpt>
      <trkpt lat="45.97007" lon="4.93613">
        <ele>300</ele>
        <time>2016-09-20T09:25:32Z</time>
      </trkpt>
      <trkpt lat="45.97002" lon="4.93618">
        <ele>300</ele>
        <time>2016-09-20T09:25:33Z</time>
      </trkpt>
      <trkpt lat="45.96998" lon="4.93624">
        <ele>299</ele>
        <time>2016-09-20T09:25:34Z</time>
      </trkpt>
      <trkpt lat="45.96992" lon="4.9363">
        <ele>299</ele>
        <time>2016-09-20T09:25:35Z</time>
      </trkpt>
      <trkpt lat="45.96988" lon="4.93635">
        <ele>299</ele>
        <time>2016-09-20T09:25:36Z</time>
      </trkpt>
      <trkpt lat="45.96983" lon="4.93641">
        <ele>299</ele>
        <time>2016-09-20T09:25:37Z</time>
      </trkpt>
      <trkpt lat="45.96978" lon="4.93647">
        <ele>299</ele>
        <time>2016-09-20T09:25:38Z</time>
      </trkpt>
      <trkpt lat="45.96974" lon="4.93652">
        <ele>299</ele>
        <time>2016-09-20T09:25:39Z</time>
      </trkpt>
      <trkpt lat="45.96969" lon="4.93658">
        <ele>299</ele>
        <time>2016-09-20T09:25:40Z</time>
      </trkpt>
      <trkpt lat="45.96965" lon="4.93663">
        <ele>299</ele>
        <time>2016-09-20T09:25:41Z</time>
      </trkpt>
      <trkpt lat="45.96961" lon="4.93668">
        <ele>298</ele>
        <time>2016-09-20T09:25:42Z</time>
      </trkpt>
      <trkpt lat="45.96956" lon="4.93674">
        <ele>298</ele>
        <time>2016-09-20T09:25:43Z</time>
      </trkpt>
      <trkpt lat="45.96952" lon="4.93679">
        <ele>298</ele>
        <time>2016-09-20T09:25:44Z</time>
      </trkpt>
      <trkpt lat="45.96947" lon="4.93684">
        <ele>298</ele>
        <time>2016-09-20T09:25:45Z</time>
      </trkpt>
      <trkpt lat="45.96943" lon="4.93689">
        <ele>298</ele>
        <time>2016-09-20T09:25:46Z</time>
      </trkpt>
      <trkpt lat="45.96938" lon="4.93694">
        <ele>298</ele>
        <time>2016-09-20T09:25:47Z</time>
      </trkpt>
      <trkpt lat="45.96933" lon="4.93699">
        <ele>298</ele>
        <time>2016-09-20T09:25:48Z</time>
      </trkpt>
      <trkpt lat="45.96928" lon="4.93704">
        <ele>298</ele>
        <time>2016-09-20T09:25:49Z</time>
      </trkpt>
      <trkpt lat="45.96922" lon="4.93709">
        <ele>298</ele>
        <time>2016-09-20T09:25:50Z</time>
      </trkpt>
      <trkpt lat="45.96917" lon="4.93715">
        <ele>297</ele>
        <time>2016-09-20T09:25:51Z</time>
      </trkpt>
      <trkpt lat="45.96911" lon="4.9372">
        <ele>297</ele>
        <time>2016-09-20T09:25:52Z</time>
      </trkpt>
      <trkpt lat="45.96904" lon="4.93724">
        <ele>297</ele>
        <time>2016-09-20T09:25:53Z</time>
      </trkpt>
      <trkpt lat="45.96898" lon="4.93728">
        <ele>297</ele>
        <time>2016-09-20T09:25:54Z</time>
      </trkpt>
      <trkpt lat="45.96892" lon="4.93732">
        <ele>297</ele>
        <time>2016-09-20T09:25:55Z</time>
      </trkpt>
      <trkpt lat="45.96885" lon="4.93735">
        <ele>297</ele>
        <time>2016-09-20T09:25:56Z</time>
      </trkpt>
      <trkpt lat="45.96879" lon="4.93739">
        <ele>297</ele>
        <time>2016-09-20T09:25:57Z</time>
      </trkpt>
      <trkpt lat="45.96872" lon="4.93741">
        <ele>297</ele>
        <time>2016-09-20T09:25:58Z</time>
      </trkpt>
      <trkpt lat="45.96865" lon="4.93743">
        <ele>297</ele>
        <time>2016-09-20T09:25:59Z</time>
      </trkpt>
      <trkpt lat="45.96858" lon="4.93745">
        <ele>297</ele>
        <time>2016-09-20T09:26:00Z</time>
      </trkpt>
      <trkpt lat="45.96851" lon="4.93747">
        <ele>297</ele>
        <time>2016-09-20T09:26:01Z</time>
      </trkpt>
      <trkpt lat="45.96843" lon="4.9375">
        <ele>296</ele>
        <time>2016-09-20T09:26:02Z</time>
      </trkpt>
      <trkpt lat="45.96836" lon="4.93753">
        <ele>296</ele>
        <time>2016-09-20T09:26:03Z</time>
      </trkpt>
      <trkpt lat="45.96829" lon="4.93755">
        <ele>296</ele>
        <time>2016-09-20T09:26:04Z</time>
      </trkpt>
      <trkpt lat="45.96822" lon="4.93758">
        <ele>296</ele>
        <time>2016-09-20T09:26:05Z</time>
      </trkpt>
      <trkpt lat="45.96816" lon="4.9376">
        <ele>296</ele>
        <time>2016-09-20T09:26:06Z</time>
      </trkpt>
      <trkpt lat="45.96809" lon="4.93763">
        <ele>295</ele>
        <time>2016-09-20T09:26:07Z</time>
      </trkpt>
      <trkpt lat="45.96803" lon="4.93766">
        <ele>295</ele>
        <time>2016-09-20T09:26:08Z</time>
      </trkpt>
      <trkpt lat="45.96796" lon="4.93768">
        <ele>295</ele>
        <time>2016-09-20T09:26:09Z</time>
      </trkpt>
      <trkpt lat="45.96789" lon="4.9377">
        <ele>295</ele>
        <time>2016-09-20T09:26:10Z</time>
      </trkpt>
      <trkpt lat="45.96783" lon="4.93772">
        <ele>295</ele>
        <time>2016-09-20T09:26:11Z</time>
      </trkpt>
      <trkpt lat="45.96776" lon="4.93774">
        <ele>295</ele>
        <time>2016-09-20T09:26:12Z</time>
      </trkpt>
      <trkpt lat="45.96769" lon="4.93777">
        <ele>295</ele>
        <time>2016-09-20T09:26:13Z</time>
      </trkpt>
      <trkpt lat="45.96763" lon="4.93779">
        <ele>295</ele>
        <time>2016-09-20T09:26:14Z</time>
      </trkpt>
      <trkpt lat="45.96756" lon="4.93781">
        <ele>295</ele>
        <time>2016-09-20T09:26:15Z</time>
      </trkpt>
      <trkpt lat="45.9675" lon="4.93783">
        <ele>295</ele>
        <time>2016-09-20T09:26:16Z</time>
      </trkpt>
      <trkpt lat="45.96743" lon="4.93785">
        <ele>296</ele>
        <time>2016-09-20T09:26:17Z</time>
      </trkpt>
      <trkpt lat="45.96737" lon="4.93787">
        <ele>296</ele>
        <time>2016-09-20T09:26:18Z</time>
      </trkpt>
      <trkpt lat="45.96731" lon="4.9379">
        <ele>296</ele>
        <time>2016-09-20T09:26:19Z</time>
      </trkpt>
      <trkpt lat="45.96725" lon="4.93792">
        <ele>296</ele>
        <time>2016-09-20T09:26:20Z</time>
      </trkpt>
      <trkpt lat="45.96719" lon="4.93794">
        <ele>296</ele>
        <time>2016-09-20T09:26:21Z</time>
      </trkpt>
      <trkpt lat="45.96713" lon="4.93796">
        <ele>296</ele>
        <time>2016-09-20T09:26:22Z</time>
      </trkpt>
      <trkpt lat="45.96707" lon="4.93798">
        <ele>296</ele>
        <time>2016-09-20T09:26:23Z</time>
      </trkpt>
      <trkpt lat="45.96702" lon="4.938">
        <ele>296</ele>
        <time>2016-09-20T09:26:24Z</time>
      </trkpt>
      <trkpt lat="45.96697" lon="4.93801">
        <ele>297</ele>
        <time>2016-09-20T09:26:25Z</time>
      </trkpt>
      <trkpt lat="45.96692" lon="4.93803">
        <ele>297</ele>
        <time>2016-09-20T09:26:26Z</time>
      </trkpt>
      <trkpt lat="45.96686" lon="4.93805">
        <ele>297</ele>
        <time>2016-09-20T09:26:27Z</time>
      </trkpt>
      <trkpt lat="45.9668" lon="4.93806">
        <ele>297</ele>
        <time>2016-09-20T09:26:28Z</time>
      </trkpt>
      <trkpt lat="45.96674" lon="4.93808">
        <ele>297</ele>
        <time>2016-09-20T09:26:29Z</time>
      </trkpt>
      <trkpt lat="45.96668" lon="4.93811">
        <ele>297</ele>
        <time>2016-09-20T09:26:30Z</time>
      </trkpt>
      <trkpt lat="45.96662" lon="4.93813">
        <ele>297</ele>
        <time>2016-09-20T09:26:31Z</time>
      </trkpt>
      <trkpt lat="45.96657" lon="4.93815">
        <ele>297</ele>
        <time>2016-09-20T09:26:32Z</time>
      </trkpt>
      <trkpt lat="45.96651" lon="4.93817">
        <ele>297</ele>
        <time>2016-09-20T09:26:33Z</time>
      </trkpt>
      <trkpt lat="45.96645" lon="4.93819">
        <ele>297</ele>
        <time>2016-09-20T09:26:34Z</time>
      </trkpt>
      <trkpt lat="45.96638" lon="4.93822">
        <ele>297</ele>
        <time>2016-09-20T09:26:35Z</time>
      </trkpt>
      <trkpt lat="45.96632" lon="4.93824">
        <ele>297</ele>
        <time>2016-09-20T09:26:36Z</time>
      </trkpt>
      <trkpt lat="45.96626" lon="4.93826">
        <ele>297</ele>
        <time>2016-09-20T09:26:37Z</time>
      </trkpt>
      <trkpt lat="45.9662" lon="4.93828">
        <ele>297</ele>
        <time>2016-09-20T09:26:38Z</time>
      </trkpt>
      <trkpt lat="45.96613" lon="4.93831">
        <ele>297</ele>
        <time>2016-09-20T09:26:39Z</time>
      </trkpt>
      <trkpt lat="45.96607" lon="4.93833">
        <ele>297</ele>
        <time>2016-09-20T09:26:40Z</time>
      </trkpt>
      <trkpt lat="45.966" lon="4.93835">
        <ele>296</ele>
        <time>2016-09-20T09:26:41Z</time>
      </trkpt>
      <trkpt lat="45.96593" lon="4.93838">
        <ele>296</ele>
        <time>2016-09-20T09:26:42Z</time>
      </trkpt>
      <trkpt lat="45.96586" lon="4.9384">
        <ele>296</ele>
        <time>2016-09-20T09:26:43Z</time>
      </trkpt>
      <trkpt lat="45.96579" lon="4.93842">
        <ele>296</ele>
        <time>2016-09-20T09:26:44Z</time>
      </trkpt>
      <trkpt lat="45.96572" lon="4.93844">
        <ele>296</ele>
        <time>2016-09-20T09:26:45Z</time>
      </trkpt>
      <trkpt lat="45.96566" lon="4.93847">
        <ele>296</ele>
        <time>2016-09-20T09:26:46Z</time>
      </trkpt>
      <trkpt lat="45.96559" lon="4.93849">
        <ele>296</ele>
        <time>2016-09-20T09:26:47Z</time>
      </trkpt>
      <trkpt lat="45.96552" lon="4.93852">
        <ele>296</ele>
        <time>2016-09-20T09:26:48Z</time>
      </trkpt>
      <trkpt lat="45.96545" lon="4.93854">
        <ele>296</ele>
        <time>2016-09-20T09:26:49Z</time>
      </trkpt>
      <trkpt lat="45.96538" lon="4.93857">
        <ele>296</ele>
        <time>2016-09-20T09:26:50Z</time>
      </trkpt>
      <trkpt lat="45.96531" lon="4.93859">
        <ele>296</ele>
        <time>2016-09-20T09:26:51Z</time>
      </trkpt>
      <trkpt lat="45.96524" lon="4.93862">
        <ele>296</ele>
        <time>2016-09-20T09:26:52Z</time>
      </trkpt>
      <trkpt lat="45.96517" lon="4.93864">
        <ele>296</ele>
        <time>2016-09-20T09:26:53Z</time>
      </trkpt>
      <trkpt lat="45.96511" lon="4.93867">
        <ele>296</ele>
        <time>2016-09-20T09:26:54Z</time>
      </trkpt>
      <trkpt lat="45.96504" lon="4.93868">
        <ele>296</ele>
        <time>2016-09-20T09:26:55Z</time>
      </trkpt>
      <trkpt lat="45.96497" lon="4.9387">
        <ele>296</ele>
        <time>2016-09-20T09:26:56Z</time>
      </trkpt>
      <trkpt lat="45.96489" lon="4.93873">
        <ele>296</ele>
        <time>2016-09-20T09:26:57Z</time>
      </trkpt>
      <trkpt lat="45.96482" lon="4.93876">
        <ele>295</ele>
        <time>2016-09-20T09:26:58Z</time>
      </trkpt>
      <trkpt lat="45.96475" lon="4.93878">
        <ele>295</ele>
        <time>2016-09-20T09:26:59Z</time>
      </trkpt>
      <trkpt lat="45.96468" lon="4.93881">
        <ele>295</ele>
        <time>2016-09-20T09:27:00Z</time>
      </trkpt>
      <trkpt lat="45.9646" lon="4.93883">
        <ele>295</ele>
        <time>2016-09-20T09:27:01Z</time>
      </trkpt>
      <trkpt lat="45.96453" lon="4.93886">
        <ele>296</ele>
        <time>2016-09-20T09:27:02Z</time>
      </trkpt>
      <trkpt lat="45.96446" lon="4.93888">
        <ele>296</ele>
        <time>2016-09-20T09:27:03Z</time>
      </trkpt>
      <trkpt lat="45.96438" lon="4.93891">
        <ele>296</ele>
        <time>2016-09-20T09:27:04Z</time>
      </trkpt>
      <trkpt lat="45.96431" lon="4.93893">
        <ele>296</ele>
        <time>2016-09-20T09:27:05Z</time>
      </trkpt>
      <trkpt lat="45.96424" lon="4.93896">
        <ele>296</ele>
        <time>2016-09-20T09:27:06Z</time>
      </trkpt>
      <trkpt lat="45.96417" lon="4.93898">
        <ele>296</ele>
        <time>2016-09-20T09:27:07Z</time>
      </trkpt>
      <trkpt lat="45.9641" lon="4.93901">
        <ele>295</ele>
        <time>2016-09-20T09:27:08Z</time>
      </trkpt>
      <trkpt lat="45.96403" lon="4.93903">
        <ele>295</ele>
        <time>2016-09-20T09:27:09Z</time>
      </trkpt>
      <trkpt lat="45.96397" lon="4.93905">
        <ele>295</ele>
        <time>2016-09-20T09:27:10Z</time>
      </trkpt>
      <trkpt lat="45.9639" lon="4.93907">
        <ele>294</ele>
        <time>2016-09-20T09:27:11Z</time>
      </trkpt>
      <trkpt lat="45.96384" lon="4.9391">
        <ele>294</ele>
        <time>2016-09-20T09:27:12Z</time>
      </trkpt>
      <trkpt lat="45.96378" lon="4.93913">
        <ele>294</ele>
        <time>2016-09-20T09:27:13Z</time>
      </trkpt>
      <trkpt lat="45.96371" lon="4.93915">
        <ele>294</ele>
        <time>2016-09-20T09:27:14Z</time>
      </trkpt>
      <trkpt lat="45.96365" lon="4.93918">
        <ele>294</ele>
        <time>2016-09-20T09:27:15Z</time>
      </trkpt>
      <trkpt lat="45.96358" lon="4.9392">
        <ele>294</ele>
        <time>2016-09-20T09:27:16Z</time>
      </trkpt>
      <trkpt lat="45.96351" lon="4.93923">
        <ele>293</ele>
        <time>2016-09-20T09:27:17Z</time>
      </trkpt>
      <trkpt lat="45.96345" lon="4.93925">
        <ele>293</ele>
        <time>2016-09-20T09:27:18Z</time>
      </trkpt>
      <trkpt lat="45.96339" lon="4.93928">
        <ele>293</ele>
        <time>2016-09-20T09:27:19Z</time>
      </trkpt>
      <trkpt lat="45.96332" lon="4.9393">
        <ele>292</ele>
        <time>2016-09-20T09:27:20Z</time>
      </trkpt>
      <trkpt lat="45.96325" lon="4.93932">
        <ele>292</ele>
        <time>2016-09-20T09:27:21Z</time>
      </trkpt>
      <trkpt lat="45.96319" lon="4.93934">
        <ele>292</ele>
        <time>2016-09-20T09:27:22Z</time>
      </trkpt>
      <trkpt lat="45.96313" lon="4.93936">
        <ele>292</ele>
        <time>2016-09-20T09:27:23Z</time>
      </trkpt>
      <trkpt lat="45.96306" lon="4.93938">
        <ele>292</ele>
        <time>2016-09-20T09:27:24Z</time>
      </trkpt>
      <trkpt lat="45.96299" lon="4.93941">
        <ele>292</ele>
        <time>2016-09-20T09:27:25Z</time>
      </trkpt>
      <trkpt lat="45.96292" lon="4.93943">
        <ele>292</ele>
        <time>2016-09-20T09:27:26Z</time>
      </trkpt>
      <trkpt lat="45.96286" lon="4.93946">
        <ele>291</ele>
        <time>2016-09-20T09:27:27Z</time>
      </trkpt>
      <trkpt lat="45.96278" lon="4.93949">
        <ele>291</ele>
        <time>2016-09-20T09:27:28Z</time>
      </trkpt>
      <trkpt lat="45.96272" lon="4.93952">
        <ele>291</ele>
        <time>2016-09-20T09:27:29Z</time>
      </trkpt>
      <trkpt lat="45.96265" lon="4.93955">
        <ele>291</ele>
        <time>2016-09-20T09:27:30Z</time>
      </trkpt>
      <trkpt lat="45.96258" lon="4.93959">
        <ele>291</ele>
        <time>2016-09-20T09:27:31Z</time>
      </trkpt>
      <trkpt lat="45.96251" lon="4.93964">
        <ele>291</ele>
        <time>2016-09-20T09:27:32Z</time>
      </trkpt>
      <trkpt lat="45.96244" lon="4.93969">
        <ele>290</ele>
        <time>2016-09-20T09:27:33Z</time>
      </trkpt>
      <trkpt lat="45.96237" lon="4.93974">
        <ele>290</ele>
        <time>2016-09-20T09:27:34Z</time>
      </trkpt>
      <trkpt lat="45.9623" lon="4.9398">
        <ele>290</ele>
        <time>2016-09-20T09:27:35Z</time>
      </trkpt>
      <trkpt lat="45.96223" lon="4.93986">
        <ele>290</ele>
        <time>2016-09-20T09:27:36Z</time>
      </trkpt>
      <trkpt lat="45.96216" lon="4.93991">
        <ele>290</ele>
        <time>2016-09-20T09:27:37Z</time>
      </trkpt>
      <trkpt lat="45.96208" lon="4.93997">
        <ele>290</ele>
        <time>2016-09-20T09:27:38Z</time>
      </trkpt>
      <trkpt lat="45.96202" lon="4.94003">
        <ele>290</ele>
        <time>2016-09-20T09:27:39Z</time>
      </trkpt>
      <trkpt lat="45.96195" lon="4.94008">
        <ele>290</ele>
        <time>2016-09-20T09:27:40Z</time>
      </trkpt>
      <trkpt lat="45.96189" lon="4.94013">
        <ele>290</ele>
        <time>2016-09-20T09:27:41Z</time>
      </trkpt>
      <trkpt lat="45.96181" lon="4.94018">
        <ele>290</ele>
        <time>2016-09-20T09:27:42Z</time>
      </trkpt>
      <trkpt lat="45.96174" lon="4.94024">
        <ele>290</ele>
        <time>2016-09-20T09:27:43Z</time>
      </trkpt>
      <trkpt lat="45.96167" lon="4.9403">
        <ele>290</ele>
        <time>2016-09-20T09:27:44Z</time>
      </trkpt>
      <trkpt lat="45.96161" lon="4.94035">
        <ele>290</ele>
        <time>2016-09-20T09:27:45Z</time>
      </trkpt>
      <trkpt lat="45.96155" lon="4.94041">
        <ele>290</ele>
        <time>2016-09-20T09:27:46Z</time>
      </trkpt>
      <trkpt lat="45.96149" lon="4.94046">
        <ele>290</ele>
        <time>2016-09-20T09:27:47Z</time>
      </trkpt>
      <trkpt lat="45.96143" lon="4.94051">
        <ele>290</ele>
        <time>2016-09-20T09:27:48Z</time>
      </trkpt>
      <trkpt lat="45.96136" lon="4.94055">
        <ele>290</ele>
        <time>2016-09-20T09:27:49Z</time>
      </trkpt>
      <trkpt lat="45.9613" lon="4.94061">
        <ele>290</ele>
        <time>2016-09-20T09:27:50Z</time>
      </trkpt>
      <trkpt lat="45.96123" lon="4.94066">
        <ele>290</ele>
        <time>2016-09-20T09:27:51Z</time>
      </trkpt>
      <trkpt lat="45.96116" lon="4.94072">
        <ele>290</ele>
        <time>2016-09-20T09:27:52Z</time>
      </trkpt>
      <trkpt lat="45.96109" lon="4.94077">
        <ele>291</ele>
        <time>2016-09-20T09:27:53Z</time>
      </trkpt>
      <trkpt lat="45.96103" lon="4.94083">
        <ele>291</ele>
        <time>2016-09-20T09:27:54Z</time>
      </trkpt>
      <trkpt lat="45.96097" lon="4.94089">
        <ele>291</ele>
        <time>2016-09-20T09:27:55Z</time>
      </trkpt>
      <trkpt lat="45.96092" lon="4.94094">
        <ele>291</ele>
        <time>2016-09-20T09:27:56Z</time>
      </trkpt>
      <trkpt lat="45.96086" lon="4.94099">
        <ele>291</ele>
        <time>2016-09-20T09:27:57Z</time>
      </trkpt>
      <trkpt lat="45.9608" lon="4.94104">
        <ele>291</ele>
        <time>2016-09-20T09:27:58Z</time>
      </trkpt>
      <trkpt lat="45.96073" lon="4.94109">
        <ele>291</ele>
        <time>2016-09-20T09:27:59Z</time>
      </trkpt>
      <trkpt lat="45.96067" lon="4.94114">
        <ele>291</ele>
        <time>2016-09-20T09:28:00Z</time>
      </trkpt>
      <trkpt lat="45.96062" lon="4.94118">
        <ele>291</ele>
        <time>2016-09-20T09:28:01Z</time>
      </trkpt>
      <trkpt lat="45.96056" lon="4.94121">
        <ele>291</ele>
        <time>2016-09-20T09:28:02Z</time>
      </trkpt>
      <trkpt lat="45.9605" lon="4.94124">
        <ele>291</ele>
        <time>2016-09-20T09:28:03Z</time>
      </trkpt>
      <trkpt lat="45.96044" lon="4.94127">
        <ele>291</ele>
        <time>2016-09-20T09:28:04Z</time>
      </trkpt>
      <trkpt lat="45.96038" lon="4.94129">
        <ele>291</ele>
        <time>2016-09-20T09:28:05Z</time>
      </trkpt>
      <trkpt lat="45.96032" lon="4.9413">
        <ele>291</ele>
        <time>2016-09-20T09:28:06Z</time>
      </trkpt>
      <trkpt lat="45.96026" lon="4.9413">
        <ele>291</ele>
        <time>2016-09-20T09:28:07Z</time>
      </trkpt>
      <trkpt lat="45.9602" lon="4.94129">
        <ele>291</ele>
        <time>2016-09-20T09:28:08Z</time>
      </trkpt>
      <trkpt lat="45.96013" lon="4.94127">
        <ele>291</ele>
        <time>2016-09-20T09:28:09Z</time>
      </trkpt>
      <trkpt lat="45.96006" lon="4.94125">
        <ele>291</ele>
        <time>2016-09-20T09:28:10Z</time>
      </trkpt>
      <trkpt lat="45.96" lon="4.94124">
        <ele>291</ele>
        <time>2016-09-20T09:28:11Z</time>
      </trkpt>
      <trkpt lat="45.95994" lon="4.94123">
        <ele>291</ele>
        <time>2016-09-20T09:28:12Z</time>
      </trkpt>
      <trkpt lat="45.95987" lon="4.9412">
        <ele>292</ele>
        <time>2016-09-20T09:28:13Z</time>
      </trkpt>
      <trkpt lat="45.95981" lon="4.94118">
        <ele>292</ele>
        <time>2016-09-20T09:28:14Z</time>
      </trkpt>
      <trkpt lat="45.95975" lon="4.94116">
        <ele>292</ele>
        <time>2016-09-20T09:28:15Z</time>
      </trkpt>
      <trkpt lat="45.95969" lon="4.94115">
        <ele>292</ele>
        <time>2016-09-20T09:28:16Z</time>
      </trkpt>
      <trkpt lat="45.95963" lon="4.94113">
        <ele>292</ele>
        <time>2016-09-20T09:28:17Z</time>
      </trkpt>
      <trkpt lat="45.95957" lon="4.94112">
        <ele>292</ele>
        <time>2016-09-20T09:28:18Z</time>
      </trkpt>
      <trkpt lat="45.95951" lon="4.9411">
        <ele>292</ele>
        <time>2016-09-20T09:28:19Z</time>
      </trkpt>
      <trkpt lat="45.95946" lon="4.94109">
        <ele>292</ele>
        <time>2016-09-20T09:28:20Z</time>
      </trkpt>
      <trkpt lat="45.9594" lon="4.94108">
        <ele>292</ele>
        <time>2016-09-20T09:28:21Z</time>
      </trkpt>
      <trkpt lat="45.95935" lon="4.94107">
        <ele>292</ele>
        <time>2016-09-20T09:28:22Z</time>
      </trkpt>
      <trkpt lat="45.9593" lon="4.94105">
        <ele>292</ele>
        <time>2016-09-20T09:28:23Z</time>
      </trkpt>
      <trkpt lat="45.95924" lon="4.94104">
        <ele>292</ele>
        <time>2016-09-20T09:28:24Z</time>
      </trkpt>
      <trkpt lat="45.95919" lon="4.94103">
        <ele>292</ele>
        <time>2016-09-20T09:28:25Z</time>
      </trkpt>
      <trkpt lat="45.95913" lon="4.94102">
        <ele>293</ele>
        <time>2016-09-20T09:28:26Z</time>
      </trkpt>
      <trkpt lat="45.95908" lon="4.941">
        <ele>293</ele>
        <time>2016-09-20T09:28:27Z</time>
      </trkpt>
      <trkpt lat="45.95903" lon="4.94099">
        <ele>293</ele>
        <time>2016-09-20T09:28:28Z</time>
      </trkpt>
      <trkpt lat="45.95897" lon="4.94097">
        <ele>293</ele>
        <time>2016-09-20T09:28:29Z</time>
      </trkpt>
      <trkpt lat="45.95892" lon="4.94096">
        <ele>293</ele>
        <time>2016-09-20T09:28:30Z</time>
      </trkpt>
      <trkpt lat="45.95886" lon="4.94095">
        <ele>293</ele>
        <time>2016-09-20T09:28:31Z</time>
      </trkpt>
      <trkpt lat="45.9588" lon="4.94094">
        <ele>293</ele>
        <time>2016-09-20T09:28:32Z</time>
      </trkpt>
      <trkpt lat="45.95875" lon="4.94092">
        <ele>293</ele>
        <time>2016-09-20T09:28:33Z</time>
      </trkpt>
      <trkpt lat="45.95869" lon="4.94091">
        <ele>293</ele>
        <time>2016-09-20T09:28:34Z</time>
      </trkpt>
      <trkpt lat="45.95864" lon="4.94089">
        <ele>293</ele>
        <time>2016-09-20T09:28:35Z</time>
      </trkpt>
      <trkpt lat="45.95858" lon="4.94087">
        <ele>294</ele>
        <time>2016-09-20T09:28:36Z</time>
      </trkpt>
      <trkpt lat="45.95853" lon="4.94085">
        <ele>294</ele>
        <time>2016-09-20T09:28:37Z</time>
      </trkpt>
      <trkpt lat="45.95848" lon="4.94084">
        <ele>294</ele>
        <time>2016-09-20T09:28:38Z</time>
      </trkpt>
      <trkpt lat="45.95842" lon="4.94081">
        <ele>294</ele>
        <time>2016-09-20T09:28:39Z</time>
      </trkpt>
      <trkpt lat="45.95837" lon="4.9408">
        <ele>294</ele>
        <time>2016-09-20T09:28:40Z</time>
      </trkpt>
      <trkpt lat="45.95831" lon="4.94078">
        <ele>294</ele>
        <time>2016-09-20T09:28:41Z</time>
      </trkpt>
      <trkpt lat="45.95827" lon="4.94077">
        <ele>294</ele>
        <time>2016-09-20T09:28:42Z</time>
      </trkpt>
      <trkpt lat="45.95819" lon="4.94074">
        <ele>294</ele>
        <time>2016-09-20T09:28:44Z</time>
      </trkpt>
      <trkpt lat="45.95815" lon="4.94073">
        <ele>294</ele>
        <time>2016-09-20T09:28:45Z</time>
      </trkpt>
      <trkpt lat="45.95807" lon="4.94071">
        <ele>294</ele>
        <time>2016-09-20T09:28:47Z</time>
      </trkpt>
      <trkpt lat="45.95802" lon="4.9407">
        <ele>294</ele>
        <time>2016-09-20T09:28:48Z</time>
      </trkpt>
      <trkpt lat="45.95795" lon="4.94065">
        <ele>294</ele>
        <time>2016-09-20T09:28:50Z</time>
      </trkpt>
      <trkpt lat="45.95791" lon="4.94064">
        <ele>294</ele>
        <time>2016-09-20T09:28:51Z</time>
      </trkpt>
      <trkpt lat="45.95783" lon="4.94062">
        <ele>294</ele>
        <time>2016-09-20T09:28:53Z</time>
      </trkpt>
      <trkpt lat="45.95778" lon="4.94061">
        <ele>294</ele>
        <time>2016-09-20T09:28:54Z</time>
      </trkpt>
      <trkpt lat="45.95773" lon="4.9406">
        <ele>294</ele>
        <time>2016-09-20T09:28:55Z</time>
      </trkpt>
      <trkpt lat="45.95768" lon="4.94059">
        <ele>294</ele>
        <time>2016-09-20T09:28:56Z</time>
      </trkpt>
      <trkpt lat="45.95763" lon="4.94057">
        <ele>294</ele>
        <time>2016-09-20T09:28:57Z</time>
      </trkpt>
      <trkpt lat="45.95758" lon="4.94056">
        <ele>294</ele>
        <time>2016-09-20T09:28:58Z</time>
      </trkpt>
      <trkpt lat="45.95753" lon="4.94055">
        <ele>294</ele>
        <time>2016-09-20T09:28:59Z</time>
      </trkpt>
      <trkpt lat="45.95749" lon="4.94054">
        <ele>295</ele>
        <time>2016-09-20T09:29:00Z</time>
      </trkpt>
      <trkpt lat="45.9574" lon="4.9405">
        <ele>295</ele>
        <time>2016-09-20T09:29:02Z</time>
      </trkpt>
      <trkpt lat="45.95736" lon="4.94048">
        <ele>295</ele>
        <time>2016-09-20T09:29:03Z</time>
      </trkpt>
      <trkpt lat="45.95731" lon="4.94047">
        <ele>295</ele>
        <time>2016-09-20T09:29:04Z</time>
      </trkpt>
      <trkpt lat="45.95726" lon="4.94046">
        <ele>295</ele>
        <time>2016-09-20T09:29:05Z</time>
      </trkpt>
      <trkpt lat="45.95721" lon="4.94045">
        <ele>295</ele>
        <time>2016-09-20T09:29:06Z</time>
      </trkpt>
      <trkpt lat="45.95717" lon="4.94044">
        <ele>295</ele>
        <time>2016-09-20T09:29:07Z</time>
      </trkpt>
      <trkpt lat="45.95712" lon="4.94045">
        <ele>295</ele>
        <time>2016-09-20T09:29:08Z</time>
      </trkpt>
      <trkpt lat="45.95707" lon="4.94045">
        <ele>295</ele>
        <time>2016-09-20T09:29:09Z</time>
      </trkpt>
      <trkpt lat="45.95698" lon="4.94044">
        <ele>295</ele>
        <time>2016-09-20T09:29:11Z</time>
      </trkpt>
      <trkpt lat="45.95694" lon="4.94043">
        <ele>295</ele>
        <time>2016-09-20T09:29:12Z</time>
      </trkpt>
      <trkpt lat="45.9569" lon="4.94042">
        <ele>295</ele>
        <time>2016-09-20T09:29:13Z</time>
      </trkpt>
      <trkpt lat="45.95685" lon="4.9404">
        <ele>295</ele>
        <time>2016-09-20T09:29:14Z</time>
      </trkpt>
      <trkpt lat="45.95677" lon="4.94037">
        <ele>295</ele>
        <time>2016-09-20T09:29:16Z</time>
      </trkpt>
      <trkpt lat="45.95675" lon="4.94031">
        <ele>295</ele>
        <time>2016-09-20T09:29:17Z</time>
      </trkpt>
      <trkpt lat="45.95674" lon="4.94021">
        <ele>295</ele>
        <time>2016-09-20T09:29:19Z</time>
      </trkpt>
      <trkpt lat="45.95674" lon="4.94016">
        <ele>295</ele>
        <time>2016-09-20T09:29:20Z</time>
      </trkpt>
      <trkpt lat="45.95674" lon="4.94006">
        <ele>296</ele>
        <time>2016-09-20T09:29:22Z</time>
      </trkpt>
      <trkpt lat="45.95673" lon="4.94001">
        <ele>296</ele>
        <time>2016-09-20T09:29:23Z</time>
      </trkpt>
      <trkpt lat="45.95669" lon="4.93991">
        <ele>295</ele>
        <time>2016-09-20T09:29:25Z</time>
      </trkpt>
      <trkpt lat="45.95666" lon="4.93989">
        <ele>295</ele>
        <time>2016-09-20T09:29:26Z</time>
      </trkpt>
      <trkpt lat="45.95659" lon="4.93985">
        <ele>295</ele>
        <time>2016-09-20T09:29:28Z</time>
      </trkpt>
      <trkpt lat="45.95655" lon="4.93983">
        <ele>295</ele>
        <time>2016-09-20T09:29:29Z</time>
      </trkpt>
      <trkpt lat="45.95651" lon="4.93975">
        <ele>294</ele>
        <time>2016-09-20T09:29:31Z</time>
      </trkpt>
      <trkpt lat="45.95651" lon="4.93968">
        <ele>294</ele>
        <time>2016-09-20T09:29:32Z</time>
      </trkpt>
      <trkpt lat="45.9565" lon="4.93959">
        <ele>294</ele>
        <time>2016-09-20T09:29:33Z</time>
      </trkpt>
      <trkpt lat="45.9565" lon="4.93949">
        <ele>294</ele>
        <time>2016-09-20T09:29:34Z</time>
      </trkpt>
      <trkpt lat="45.95651" lon="4.93941">
        <ele>294</ele>
        <time>2016-09-20T09:29:35Z</time>
      </trkpt>
      <trkpt lat="45.95654" lon="4.9393">
        <ele>294</ele>
        <time>2016-09-20T09:29:36Z</time>
      </trkpt>
      <trkpt lat="45.95655" lon="4.9392">
        <ele>294</ele>
        <time>2016-09-20T09:29:37Z</time>
      </trkpt>
      <trkpt lat="45.95657" lon="4.93909">
        <ele>293</ele>
        <time>2016-09-20T09:29:38Z</time>
      </trkpt>
      <trkpt lat="45.95658" lon="4.93898">
        <ele>292</ele>
        <time>2016-09-20T09:29:39Z</time>
      </trkpt>
      <trkpt lat="45.95658" lon="4.93888">
        <ele>291</ele>
        <time>2016-09-20T09:29:40Z</time>
      </trkpt>
      <trkpt lat="45.95657" lon="4.93878">
        <ele>291</ele>
        <time>2016-09-20T09:29:41Z</time>
      </trkpt>
      <trkpt lat="45.95655" lon="4.93873">
        <ele>291</ele>
        <time>2016-09-20T09:29:42Z</time>
      </trkpt>
      <trkpt lat="45.95651" lon="4.93867">
        <ele>290</ele>
        <time>2016-09-20T09:29:43Z</time>
      </trkpt>
      <trkpt lat="45.95648" lon="4.93861">
        <ele>290</ele>
        <time>2016-09-20T09:29:44Z</time>
      </trkpt>
      <trkpt lat="45.95644" lon="4.93855">
        <ele>290</ele>
        <time>2016-09-20T09:29:45Z</time>
      </trkpt>
      <trkpt lat="45.95638" lon="4.93853">
        <ele>290</ele>
        <time>2016-09-20T09:29:46Z</time>
      </trkpt>
      <trkpt lat="45.95634" lon="4.9385">
        <ele>290</ele>
        <time>2016-09-20T09:29:47Z</time>
      </trkpt>
      <trkpt lat="45.9563" lon="4.93848">
        <ele>290</ele>
        <time>2016-09-20T09:29:48Z</time>
      </trkpt>
      <trkpt lat="45.95625" lon="4.93845">
        <ele>290</ele>
        <time>2016-09-20T09:29:49Z</time>
      </trkpt>
      <trkpt lat="45.95621" lon="4.93843">
        <ele>290</ele>
        <time>2016-09-20T09:29:50Z</time>
      </trkpt>
      <trkpt lat="45.95616" lon="4.93839">
        <ele>290</ele>
        <time>2016-09-20T09:29:51Z</time>
      </trkpt>
      <trkpt lat="45.95612" lon="4.93836">
        <ele>290</ele>
        <time>2016-09-20T09:29:52Z</time>
      </trkpt>
      <trkpt lat="45.95607" lon="4.93832">
        <ele>289</ele>
        <time>2016-09-20T09:29:53Z</time>
      </trkpt>
      <trkpt lat="45.95603" lon="4.93828">
        <ele>289</ele>
        <time>2016-09-20T09:29:54Z</time>
      </trkpt>
      <trkpt lat="45.95598" lon="4.93824">
        <ele>289</ele>
        <time>2016-09-20T09:29:55Z</time>
      </trkpt>
      <trkpt lat="45.95593" lon="4.93819">
        <ele>289</ele>
        <time>2016-09-20T09:29:56Z</time>
      </trkpt>
      <trkpt lat="45.95588" lon="4.93814">
        <ele>289</ele>
        <time>2016-09-20T09:29:57Z</time>
      </trkpt>
      <trkpt lat="45.95584" lon="4.93809">
        <ele>289</ele>
        <time>2016-09-20T09:29:58Z</time>
      </trkpt>
      <trkpt lat="45.95579" lon="4.93804">
        <ele>290</ele>
        <time>2016-09-20T09:29:59Z</time>
      </trkpt>
      <trkpt lat="45.95576" lon="4.93799">
        <ele>290</ele>
        <time>2016-09-20T09:30:00Z</time>
      </trkpt>
      <trkpt lat="45.95572" lon="4.93792">
        <ele>290</ele>
        <time>2016-09-20T09:30:01Z</time>
      </trkpt>
      <trkpt lat="45.95569" lon="4.93785">
        <ele>290</ele>
        <time>2016-09-20T09:30:02Z</time>
      </trkpt>
      <trkpt lat="45.95566" lon="4.93778">
        <ele>290</ele>
        <time>2016-09-20T09:30:03Z</time>
      </trkpt>
      <trkpt lat="45.95565" lon="4.9377">
        <ele>290</ele>
        <time>2016-09-20T09:30:04Z</time>
      </trkpt>
      <trkpt lat="45.95564" lon="4.93762">
        <ele>290</ele>
        <time>2016-09-20T09:30:05Z</time>
      </trkpt>
      <trkpt lat="45.95563" lon="4.93754">
        <ele>290</ele>
        <time>2016-09-20T09:30:06Z</time>
      </trkpt>
      <trkpt lat="45.95562" lon="4.93747">
        <ele>290</ele>
        <time>2016-09-20T09:30:07Z</time>
      </trkpt>
      <trkpt lat="45.95561" lon="4.93738">
        <ele>290</ele>
        <time>2016-09-20T09:30:08Z</time>
      </trkpt>
      <trkpt lat="45.95561" lon="4.9373">
        <ele>290</ele>
        <time>2016-09-20T09:30:09Z</time>
      </trkpt>
      <trkpt lat="45.95561" lon="4.93722">
        <ele>290</ele>
        <time>2016-09-20T09:30:10Z</time>
      </trkpt>
      <trkpt lat="45.9556" lon="4.93714">
        <ele>290</ele>
        <time>2016-09-20T09:30:11Z</time>
      </trkpt>
      <trkpt lat="45.9556" lon="4.93704">
        <ele>290</ele>
        <time>2016-09-20T09:30:12Z</time>
      </trkpt>
      <trkpt lat="45.95558" lon="4.93694">
        <ele>290</ele>
        <time>2016-09-20T09:30:13Z</time>
      </trkpt>
      <trkpt lat="45.95558" lon="4.93687">
        <ele>290</ele>
        <time>2016-09-20T09:30:14Z</time>
      </trkpt>
      <trkpt lat="45.95558" lon="4.93679">
        <ele>290</ele>
        <time>2016-09-20T09:30:15Z</time>
      </trkpt>
      <trkpt lat="45.95558" lon="4.9367">
        <ele>290</ele>
        <time>2016-09-20T09:30:16Z</time>
      </trkpt>
      <trkpt lat="45.9556" lon="4.93662">
        <ele>289</ele>
        <time>2016-09-20T09:30:17Z</time>
      </trkpt>
      <trkpt lat="45.95561" lon="4.93655">
        <ele>289</ele>
        <time>2016-09-20T09:30:18Z</time>
      </trkpt>
      <trkpt lat="45.95561" lon="4.93649">
        <ele>289</ele>
        <time>2016-09-20T09:30:19Z</time>
      </trkpt>
      <trkpt lat="45.95562" lon="4.93641">
        <ele>289</ele>
        <time>2016-09-20T09:30:20Z</time>
      </trkpt>
      <trkpt lat="45.95563" lon="4.93634">
        <ele>289</ele>
        <time>2016-09-20T09:30:21Z</time>
      </trkpt>
      <trkpt lat="45.95564" lon="4.93626">
        <ele>289</ele>
        <time>2016-09-20T09:30:22Z</time>
      </trkpt>
      <trkpt lat="45.95565" lon="4.93618">
        <ele>289</ele>
        <time>2016-09-20T09:30:23Z</time>
      </trkpt>
      <trkpt lat="45.95566" lon="4.9361">
        <ele>289</ele>
        <time>2016-09-20T09:30:24Z</time>
      </trkpt>
      <trkpt lat="45.95567" lon="4.93601">
        <ele>289</ele>
        <time>2016-09-20T09:30:25Z</time>
      </trkpt>
      <trkpt lat="45.95568" lon="4.93593">
        <ele>289</ele>
        <time>2016-09-20T09:30:26Z</time>
      </trkpt>
      <trkpt lat="45.95568" lon="4.93585">
        <ele>289</ele>
        <time>2016-09-20T09:30:27Z</time>
      </trkpt>
      <trkpt lat="45.95569" lon="4.93577">
        <ele>289</ele>
        <time>2016-09-20T09:30:28Z</time>
      </trkpt>
      <trkpt lat="45.95569" lon="4.9357">
        <ele>289</ele>
        <time>2016-09-20T09:30:29Z</time>
      </trkpt>
      <trkpt lat="45.9557" lon="4.93562">
        <ele>289</ele>
        <time>2016-09-20T09:30:30Z</time>
      </trkpt>
      <trkpt lat="45.95571" lon="4.93554">
        <ele>289</ele>
        <time>2016-09-20T09:30:31Z</time>
      </trkpt>
      <trkpt lat="45.95571" lon="4.93546">
        <ele>289</ele>
        <time>2016-09-20T09:30:32Z</time>
      </trkpt>
      <trkpt lat="45.9557" lon="4.93537">
        <ele>290</ele>
        <time>2016-09-20T09:30:33Z</time>
      </trkpt>
      <trkpt lat="45.95569" lon="4.93528">
        <ele>290</ele>
        <time>2016-09-20T09:30:34Z</time>
      </trkpt>
      <trkpt lat="45.95568" lon="4.93519">
        <ele>290</ele>
        <time>2016-09-20T09:30:35Z</time>
      </trkpt>
      <trkpt lat="45.95566" lon="4.9351">
        <ele>290</ele>
        <time>2016-09-20T09:30:36Z</time>
      </trkpt>
      <trkpt lat="45.95563" lon="4.93502">
        <ele>290</ele>
        <time>2016-09-20T09:30:37Z</time>
      </trkpt>
      <trkpt lat="45.95561" lon="4.93494">
        <ele>290</ele>
        <time>2016-09-20T09:30:38Z</time>
      </trkpt>
      <trkpt lat="45.95558" lon="4.93487">
        <ele>289</ele>
        <time>2016-09-20T09:30:39Z</time>
      </trkpt>
      <trkpt lat="45.95555" lon="4.9348">
        <ele>289</ele>
        <time>2016-09-20T09:30:40Z</time>
      </trkpt>
      <trkpt lat="45.95553" lon="4.93474">
        <ele>289</ele>
        <time>2016-09-20T09:30:41Z</time>
      </trkpt>
      <trkpt lat="45.95551" lon="4.93468">
        <ele>289</ele>
        <time>2016-09-20T09:30:42Z</time>
      </trkpt>
      <trkpt lat="45.95548" lon="4.93463">
        <ele>289</ele>
        <time>2016-09-20T09:30:43Z</time>
      </trkpt>
      <trkpt lat="45.95545" lon="4.93458">
        <ele>289</ele>
        <time>2016-09-20T09:30:44Z</time>
      </trkpt>
      <trkpt lat="45.95542" lon="4.93451">
        <ele>289</ele>
        <time>2016-09-20T09:30:45Z</time>
      </trkpt>
      <trkpt lat="45.95539" lon="4.93445">
        <ele>289</ele>
        <time>2016-09-20T09:30:46Z</time>
      </trkpt>
      <trkpt lat="45.95536" lon="4.93438">
        <ele>289</ele>
        <time>2016-09-20T09:30:47Z</time>
      </trkpt>
      <trkpt lat="45.95534" lon="4.9343">
        <ele>289</ele>
        <time>2016-09-20T09:30:48Z</time>
      </trkpt>
      <trkpt lat="45.95531" lon="4.93423">
        <ele>289</ele>
        <time>2016-09-20T09:30:49Z</time>
      </trkpt>
      <trkpt lat="45.95527" lon="4.93416">
        <ele>289</ele>
        <time>2016-09-20T09:30:50Z</time>
      </trkpt>
      <trkpt lat="45.95524" lon="4.93408">
        <ele>289</ele>
        <time>2016-09-20T09:30:51Z</time>
      </trkpt>
      <trkpt lat="45.95521" lon="4.93401">
        <ele>289</ele>
        <time>2016-09-20T09:30:52Z</time>
      </trkpt>
      <trkpt lat="45.95518" lon="4.93395">
        <ele>289</ele>
        <time>2016-09-20T09:30:53Z</time>
      </trkpt>
      <trkpt lat="45.95515" lon="4.93389">
        <ele>289</ele>
        <time>2016-09-20T09:30:54Z</time>
      </trkpt>
      <trkpt lat="45.95513" lon="4.93382">
        <ele>289</ele>
        <time>2016-09-20T09:30:55Z</time>
      </trkpt>
      <trkpt lat="45.9551" lon="4.93375">
        <ele>289</ele>
        <time>2016-09-20T09:30:56Z</time>
      </trkpt>
      <trkpt lat="45.95508" lon="4.93369">
        <ele>289</ele>
        <time>2016-09-20T09:30:57Z</time>
      </trkpt>
      <trkpt lat="45.95506" lon="4.93363">
        <ele>289</ele>
        <time>2016-09-20T09:30:58Z</time>
      </trkpt>
      <trkpt lat="45.95503" lon="4.93358">
        <ele>289</ele>
        <time>2016-09-20T09:30:59Z</time>
      </trkpt>
      <trkpt lat="45.955" lon="4.93351">
        <ele>289</ele>
        <time>2016-09-20T09:31:00Z</time>
      </trkpt>
      <trkpt lat="45.95498" lon="4.93346">
        <ele>289</ele>
        <time>2016-09-20T09:31:01Z</time>
      </trkpt>
      <trkpt lat="45.95496" lon="4.9334">
        <ele>289</ele>
        <time>2016-09-20T09:31:02Z</time>
      </trkpt>
      <trkpt lat="45.95494" lon="4.93334">
        <ele>289</ele>
        <time>2016-09-20T09:31:03Z</time>
      </trkpt>
      <trkpt lat="45.95491" lon="4.93328">
        <ele>289</ele>
        <time>2016-09-20T09:31:04Z</time>
      </trkpt>
      <trkpt lat="45.95489" lon="4.93322">
        <ele>290</ele>
        <time>2016-09-20T09:31:05Z</time>
      </trkpt>
      <trkpt lat="45.95487" lon="4.93315">
        <ele>290</ele>
        <time>2016-09-20T09:31:06Z</time>
      </trkpt>
      <trkpt lat="45.95485" lon="4.93309">
        <ele>290</ele>
        <time>2016-09-20T09:31:07Z</time>
      </trkpt>
      <trkpt lat="45.95483" lon="4.93304">
        <ele>290</ele>
        <time>2016-09-20T09:31:08Z</time>
      </trkpt>
      <trkpt lat="45.9548" lon="4.93298">
        <ele>290</ele>
        <time>2016-09-20T09:31:09Z</time>
      </trkpt>
      <trkpt lat="45.95477" lon="4.93293">
        <ele>290</ele>
        <time>2016-09-20T09:31:10Z</time>
      </trkpt>
      <trkpt lat="45.95474" lon="4.93287">
        <ele>290</ele>
        <time>2016-09-20T09:31:11Z</time>
      </trkpt>
      <trkpt lat="45.95471" lon="4.9328">
        <ele>290</ele>
        <time>2016-09-20T09:31:12Z</time>
      </trkpt>
      <trkpt lat="45.95468" lon="4.93273">
        <ele>290</ele>
        <time>2016-09-20T09:31:13Z</time>
      </trkpt>
      <trkpt lat="45.95465" lon="4.93267">
        <ele>290</ele>
        <time>2016-09-20T09:31:14Z</time>
      </trkpt>
      <trkpt lat="45.95462" lon="4.93259">
        <ele>290</ele>
        <time>2016-09-20T09:31:15Z</time>
      </trkpt>
      <trkpt lat="45.95459" lon="4.93252">
        <ele>290</ele>
        <time>2016-09-20T09:31:16Z</time>
      </trkpt>
      <trkpt lat="45.95456" lon="4.93245">
        <ele>291</ele>
        <time>2016-09-20T09:31:17Z</time>
      </trkpt>
      <trkpt lat="45.95454" lon="4.93237">
        <ele>291</ele>
        <time>2016-09-20T09:31:18Z</time>
      </trkpt>
      <trkpt lat="45.95452" lon="4.93229">
        <ele>291</ele>
        <time>2016-09-20T09:31:19Z</time>
      </trkpt>
      <trkpt lat="45.9545" lon="4.93222">
        <ele>291</ele>
        <time>2016-09-20T09:31:20Z</time>
      </trkpt>
      <trkpt lat="45.95448" lon="4.93215">
        <ele>291</ele>
        <time>2016-09-20T09:31:21Z</time>
      </trkpt>
      <trkpt lat="45.95447" lon="4.93208">
        <ele>291</ele>
        <time>2016-09-20T09:31:22Z</time>
      </trkpt>
      <trkpt lat="45.95449" lon="4.93196">
        <ele>291</ele>
        <time>2016-09-20T09:31:24Z</time>
      </trkpt>
      <trkpt lat="45.95451" lon="4.9319">
        <ele>291</ele>
        <time>2016-09-20T09:31:25Z</time>
      </trkpt>
      <trkpt lat="45.95454" lon="4.93184">
        <ele>291</ele>
        <time>2016-09-20T09:31:26Z</time>
      </trkpt>
      <trkpt lat="45.95458" lon="4.9318">
        <ele>291</ele>
        <time>2016-09-20T09:31:27Z</time>
      </trkpt>
      <trkpt lat="45.95461" lon="4.93176">
        <ele>290</ele>
        <time>2016-09-20T09:31:28Z</time>
      </trkpt>
      <trkpt lat="45.95466" lon="4.93171">
        <ele>290</ele>
        <time>2016-09-20T09:31:29Z</time>
      </trkpt>
      <trkpt lat="45.95473" lon="4.93165">
        <ele>290</ele>
        <time>2016-09-20T09:31:31Z</time>
      </trkpt>
      <trkpt lat="45.95477" lon="4.93162">
        <ele>290</ele>
        <time>2016-09-20T09:31:32Z</time>
      </trkpt>
      <trkpt lat="45.95484" lon="4.93155">
        <ele>290</ele>
        <time>2016-09-20T09:31:34Z</time>
      </trkpt>
      <trkpt lat="45.95488" lon="4.93152">
        <ele>290</ele>
        <time>2016-09-20T09:31:35Z</time>
      </trkpt>
      <trkpt lat="45.95492" lon="4.93149">
        <ele>290</ele>
        <time>2016-09-20T09:31:36Z</time>
      </trkpt>
      <trkpt lat="45.95496" lon="4.93145">
        <ele>290</ele>
        <time>2016-09-20T09:31:37Z</time>
      </trkpt>
      <trkpt lat="45.955" lon="4.93142">
        <ele>290</ele>
        <time>2016-09-20T09:31:38Z</time>
      </trkpt>
      <trkpt lat="45.95505" lon="4.93138">
        <ele>289</ele>
        <time>2016-09-20T09:31:39Z</time>
      </trkpt>
      <trkpt lat="45.95508" lon="4.93135">
        <ele>289</ele>
        <time>2016-09-20T09:31:40Z</time>
      </trkpt>
      <trkpt lat="45.95512" lon="4.93131">
        <ele>289</ele>
        <time>2016-09-20T09:31:41Z</time>
      </trkpt>
      <trkpt lat="45.95517" lon="4.93126">
        <ele>289</ele>
        <time>2016-09-20T09:31:42Z</time>
      </trkpt>
      <trkpt lat="45.95521" lon="4.93121">
        <ele>289</ele>
        <time>2016-09-20T09:31:43Z</time>
      </trkpt>
      <trkpt lat="45.95526" lon="4.93117">
        <ele>289</ele>
        <time>2016-09-20T09:31:44Z</time>
      </trkpt>
      <trkpt lat="45.95532" lon="4.93112">
        <ele>289</ele>
        <time>2016-09-20T09:31:45Z</time>
      </trkpt>
      <trkpt lat="45.95536" lon="4.93105">
        <ele>289</ele>
        <time>2016-09-20T09:31:46Z</time>
      </trkpt>
      <trkpt lat="45.95539" lon="4.93098">
        <ele>289</ele>
        <time>2016-09-20T09:31:47Z</time>
      </trkpt>
      <trkpt lat="45.95541" lon="4.93091">
        <ele>290</ele>
        <time>2016-09-20T09:31:48Z</time>
      </trkpt>
      <trkpt lat="45.95542" lon="4.93084">
        <ele>290</ele>
        <time>2016-09-20T09:31:49Z</time>
      </trkpt>
      <trkpt lat="45.95543" lon="4.93076">
        <ele>290</ele>
        <time>2016-09-20T09:31:50Z</time>
      </trkpt>
      <trkpt lat="45.95545" lon="4.93068">
        <ele>290</ele>
        <time>2016-09-20T09:31:51Z</time>
      </trkpt>
      <trkpt lat="45.95546" lon="4.9306">
        <ele>290</ele>
        <time>2016-09-20T09:31:52Z</time>
      </trkpt>
      <trkpt lat="45.95547" lon="4.93053">
        <ele>290</ele>
        <time>2016-09-20T09:31:53Z</time>
      </trkpt>
      <trkpt lat="45.95548" lon="4.93045">
        <ele>291</ele>
        <time>2016-09-20T09:31:54Z</time>
      </trkpt>
      <trkpt lat="45.95549" lon="4.93038">
        <ele>291</ele>
        <time>2016-09-20T09:31:55Z</time>
      </trkpt>
      <trkpt lat="45.95549" lon="4.9303">
        <ele>291</ele>
        <time>2016-09-20T09:31:56Z</time>
      </trkpt>
      <trkpt lat="45.9555" lon="4.93023">
        <ele>291</ele>
        <time>2016-09-20T09:31:57Z</time>
      </trkpt>
      <trkpt lat="45.95551" lon="4.93015">
        <ele>291</ele>
        <time>2016-09-20T09:31:58Z</time>
      </trkpt>
      <trkpt lat="45.95551" lon="4.93008">
        <ele>291</ele>
        <time>2016-09-20T09:31:59Z</time>
      </trkpt>
      <trkpt lat="45.95552" lon="4.93002">
        <ele>291</ele>
        <time>2016-09-20T09:32:00Z</time>
      </trkpt>
      <trkpt lat="45.95553" lon="4.92995">
        <ele>292</ele>
        <time>2016-09-20T09:32:01Z</time>
      </trkpt>
      <trkpt lat="45.95555" lon="4.92987">
        <ele>292</ele>
        <time>2016-09-20T09:32:02Z</time>
      </trkpt>
      <trkpt lat="45.95556" lon="4.92979">
        <ele>292</ele>
        <time>2016-09-20T09:32:03Z</time>
      </trkpt>
      <trkpt lat="45.95557" lon="4.92971">
        <ele>292</ele>
        <time>2016-09-20T09:32:04Z</time>
      </trkpt>
      <trkpt lat="45.95558" lon="4.92963">
        <ele>292</ele>
        <time>2016-09-20T09:32:05Z</time>
      </trkpt>
      <trkpt lat="45.9556" lon="4.92956">
        <ele>292</ele>
        <time>2016-09-20T09:32:06Z</time>
      </trkpt>
      <trkpt lat="45.95561" lon="4.92949">
        <ele>292</ele>
        <time>2016-09-20T09:32:07Z</time>
      </trkpt>
      <trkpt lat="45.95562" lon="4.92941">
        <ele>292</ele>
        <time>2016-09-20T09:32:08Z</time>
      </trkpt>
      <trkpt lat="45.95563" lon="4.92933">
        <ele>292</ele>
        <time>2016-09-20T09:32:09Z</time>
      </trkpt>
      <trkpt lat="45.95564" lon="4.92926">
        <ele>293</ele>
        <time>2016-09-20T09:32:10Z</time>
      </trkpt>
      <trkpt lat="45.95565" lon="4.92918">
        <ele>293</ele>
        <time>2016-09-20T09:32:11Z</time>
      </trkpt>
      <trkpt lat="45.95567" lon="4.92911">
        <ele>294</ele>
        <time>2016-09-20T09:32:12Z</time>
      </trkpt>
      <trkpt lat="45.95568" lon="4.92903">
        <ele>294</ele>
        <time>2016-09-20T09:32:13Z</time>
      </trkpt>
      <trkpt lat="45.95569" lon="4.92896">
        <ele>294</ele>
        <time>2016-09-20T09:32:14Z</time>
      </trkpt>
      <trkpt lat="45.95571" lon="4.92889">
        <ele>294</ele>
        <time>2016-09-20T09:32:15Z</time>
      </trkpt>
      <trkpt lat="45.95572" lon="4.92883">
        <ele>294</ele>
        <time>2016-09-20T09:32:16Z</time>
      </trkpt>
      <trkpt lat="45.95573" lon="4.92875">
        <ele>294</ele>
        <time>2016-09-20T09:32:17Z</time>
      </trkpt>
      <trkpt lat="45.95575" lon="4.92868">
        <ele>294</ele>
        <time>2016-09-20T09:32:18Z</time>
      </trkpt>
      <trkpt lat="45.95576" lon="4.9286">
        <ele>294</ele>
        <time>2016-09-20T09:32:19Z</time>
      </trkpt>
      <trkpt lat="45.95578" lon="4.92853">
        <ele>294</ele>
        <time>2016-09-20T09:32:20Z</time>
      </trkpt>
      <trkpt lat="45.95578" lon="4.92846">
        <ele>294</ele>
        <time>2016-09-20T09:32:21Z</time>
      </trkpt>
      <trkpt lat="45.9558" lon="4.92838">
        <ele>295</ele>
        <time>2016-09-20T09:32:22Z</time>
      </trkpt>
      <trkpt lat="45.95581" lon="4.92831">
        <ele>295</ele>
        <time>2016-09-20T09:32:23Z</time>
      </trkpt>
      <trkpt lat="45.95583" lon="4.92824">
        <ele>295</ele>
        <time>2016-09-20T09:32:24Z</time>
      </trkpt>
      <trkpt lat="45.95584" lon="4.92817">
        <ele>295</ele>
        <time>2016-09-20T09:32:25Z</time>
      </trkpt>
      <trkpt lat="45.95586" lon="4.9281">
        <ele>295</ele>
        <time>2016-09-20T09:32:26Z</time>
      </trkpt>
      <trkpt lat="45.95587" lon="4.92804">
        <ele>295</ele>
        <time>2016-09-20T09:32:27Z</time>
      </trkpt>
      <trkpt lat="45.95588" lon="4.92797">
        <ele>295</ele>
        <time>2016-09-20T09:32:28Z</time>
      </trkpt>
      <trkpt lat="45.95589" lon="4.9279">
        <ele>295</ele>
        <time>2016-09-20T09:32:29Z</time>
      </trkpt>
      <trkpt lat="45.9559" lon="4.92783">
        <ele>295</ele>
        <time>2016-09-20T09:32:30Z</time>
      </trkpt>
      <trkpt lat="45.95591" lon="4.92777">
        <ele>295</ele>
        <time>2016-09-20T09:32:31Z</time>
      </trkpt>
      <trkpt lat="45.95593" lon="4.92769">
        <ele>295</ele>
        <time>2016-09-20T09:32:32Z</time>
      </trkpt>
      <trkpt lat="45.95594" lon="4.9276">
        <ele>295</ele>
        <time>2016-09-20T09:32:33Z</time>
      </trkpt>
      <trkpt lat="45.95595" lon="4.92752">
        <ele>295</ele>
        <time>2016-09-20T09:32:34Z</time>
      </trkpt>
      <trkpt lat="45.95597" lon="4.92743">
        <ele>295</ele>
        <time>2016-09-20T09:32:35Z</time>
      </trkpt>
      <trkpt lat="45.95598" lon="4.92734">
        <ele>295</ele>
        <time>2016-09-20T09:32:36Z</time>
      </trkpt>
      <trkpt lat="45.95599" lon="4.92725">
        <ele>295</ele>
        <time>2016-09-20T09:32:37Z</time>
      </trkpt>
      <trkpt lat="45.95601" lon="4.92716">
        <ele>295</ele>
        <time>2016-09-20T09:32:38Z</time>
      </trkpt>
      <trkpt lat="45.95602" lon="4.92707">
        <ele>295</ele>
        <time>2016-09-20T09:32:39Z</time>
      </trkpt>
      <trkpt lat="45.95604" lon="4.92699">
        <ele>295</ele>
        <time>2016-09-20T09:32:40Z</time>
      </trkpt>
      <trkpt lat="45.95605" lon="4.9269">
        <ele>295</ele>
        <time>2016-09-20T09:32:41Z</time>
      </trkpt>
      <trkpt lat="45.95607" lon="4.92682">
        <ele>295</ele>
        <time>2016-09-20T09:32:42Z</time>
      </trkpt>
      <trkpt lat="45.95609" lon="4.92674">
        <ele>295</ele>
        <time>2016-09-20T09:32:43Z</time>
      </trkpt>
      <trkpt lat="45.95611" lon="4.92666">
        <ele>294</ele>
        <time>2016-09-20T09:32:44Z</time>
      </trkpt>
      <trkpt lat="45.95612" lon="4.92657">
        <ele>294</ele>
        <time>2016-09-20T09:32:45Z</time>
      </trkpt>
      <trkpt lat="45.95612" lon="4.92651">
        <ele>294</ele>
        <time>2016-09-20T09:32:46Z</time>
      </trkpt>
      <trkpt lat="45.95612" lon="4.92644">
        <ele>294</ele>
        <time>2016-09-20T09:32:47Z</time>
      </trkpt>
      <trkpt lat="45.95613" lon="4.92635">
        <ele>294</ele>
        <time>2016-09-20T09:32:48Z</time>
      </trkpt>
      <trkpt lat="45.95613" lon="4.92627">
        <ele>294</ele>
        <time>2016-09-20T09:32:49Z</time>
      </trkpt>
      <trkpt lat="45.95615" lon="4.9262">
        <ele>294</ele>
        <time>2016-09-20T09:32:50Z</time>
      </trkpt>
      <trkpt lat="45.95617" lon="4.92611">
        <ele>294</ele>
        <time>2016-09-20T09:32:51Z</time>
      </trkpt>
      <trkpt lat="45.95618" lon="4.926">
        <ele>294</ele>
        <time>2016-09-20T09:32:52Z</time>
      </trkpt>
      <trkpt lat="45.95621" lon="4.92594">
        <ele>294</ele>
        <time>2016-09-20T09:32:53Z</time>
      </trkpt>
      <trkpt lat="45.95622" lon="4.92585">
        <ele>294</ele>
        <time>2016-09-20T09:32:54Z</time>
      </trkpt>
      <trkpt lat="45.95624" lon="4.92576">
        <ele>294</ele>
        <time>2016-09-20T09:32:55Z</time>
      </trkpt>
      <trkpt lat="45.95625" lon="4.92568">
        <ele>294</ele>
        <time>2016-09-20T09:32:56Z</time>
      </trkpt>
      <trkpt lat="45.95627" lon="4.9256">
        <ele>294</ele>
        <time>2016-09-20T09:32:57Z</time>
      </trkpt>
      <trkpt lat="45.95628" lon="4.92551">
        <ele>294</ele>
        <time>2016-09-20T09:32:58Z</time>
      </trkpt>
      <trkpt lat="45.95629" lon="4.92542">
        <ele>294</ele>
        <time>2016-09-20T09:32:59Z</time>
      </trkpt>
      <trkpt lat="45.9563" lon="4.92533">
        <ele>294</ele>
        <time>2016-09-20T09:33:00Z</time>
      </trkpt>
      <trkpt lat="45.95631" lon="4.92526">
        <ele>294</ele>
        <time>2016-09-20T09:33:01Z</time>
      </trkpt>
      <trkpt lat="45.95631" lon="4.92518">
        <ele>294</ele>
        <time>2016-09-20T09:33:02Z</time>
      </trkpt>
      <trkpt lat="45.95632" lon="4.9251">
        <ele>294</ele>
        <time>2016-09-20T09:33:03Z</time>
      </trkpt>
      <trkpt lat="45.95633" lon="4.92502">
        <ele>294</ele>
        <time>2016-09-20T09:33:04Z</time>
      </trkpt>
      <trkpt lat="45.95634" lon="4.92494">
        <ele>293</ele>
        <time>2016-09-20T09:33:05Z</time>
      </trkpt>
      <trkpt lat="45.95636" lon="4.92486">
        <ele>293</ele>
        <time>2016-09-20T09:33:06Z</time>
      </trkpt>
      <trkpt lat="45.95637" lon="4.92478">
        <ele>293</ele>
        <time>2016-09-20T09:33:07Z</time>
      </trkpt>
      <trkpt lat="45.95638" lon="4.92468">
        <ele>293</ele>
        <time>2016-09-20T09:33:08Z</time>
      </trkpt>
      <trkpt lat="45.95639" lon="4.9246">
        <ele>293</ele>
        <time>2016-09-20T09:33:09Z</time>
      </trkpt>
      <trkpt lat="45.95641" lon="4.92453">
        <ele>293</ele>
        <time>2016-09-20T09:33:10Z</time>
      </trkpt>
      <trkpt lat="45.95643" lon="4.92447">
        <ele>293</ele>
        <time>2016-09-20T09:33:11Z</time>
      </trkpt>
      <trkpt lat="45.95644" lon="4.92441">
        <ele>293</ele>
        <time>2016-09-20T09:33:12Z</time>
      </trkpt>
      <trkpt lat="45.95645" lon="4.92433">
        <ele>293</ele>
        <time>2016-09-20T09:33:13Z</time>
      </trkpt>
      <trkpt lat="45.95646" lon="4.92426">
        <ele>293</ele>
        <time>2016-09-20T09:33:14Z</time>
      </trkpt>
      <trkpt lat="45.95646" lon="4.92419">
        <ele>293</ele>
        <time>2016-09-20T09:33:15Z</time>
      </trkpt>
      <trkpt lat="45.95646" lon="4.92411">
        <ele>293</ele>
        <time>2016-09-20T09:33:16Z</time>
      </trkpt>
      <trkpt lat="45.95647" lon="4.92403">
        <ele>293</ele>
        <time>2016-09-20T09:33:17Z</time>
      </trkpt>
      <trkpt lat="45.95648" lon="4.92395">
        <ele>293</ele>
        <time>2016-09-20T09:33:18Z</time>
      </trkpt>
      <trkpt lat="45.95649" lon="4.92387">
        <ele>293</ele>
        <time>2016-09-20T09:33:19Z</time>
      </trkpt>
      <trkpt lat="45.9565" lon="4.92378">
        <ele>293</ele>
        <time>2016-09-20T09:33:20Z</time>
      </trkpt>
      <trkpt lat="45.9565" lon="4.92369">
        <ele>293</ele>
        <time>2016-09-20T09:33:21Z</time>
      </trkpt>
      <trkpt lat="45.95651" lon="4.92364">
        <ele>293</ele>
        <time>2016-09-20T09:33:22Z</time>
      </trkpt>
      <trkpt lat="45.95653" lon="4.92356">
        <ele>293</ele>
        <time>2016-09-20T09:33:23Z</time>
      </trkpt>
      <trkpt lat="45.95654" lon="4.92347">
        <ele>293</ele>
        <time>2016-09-20T09:33:24Z</time>
      </trkpt>
      <trkpt lat="45.95655" lon="4.9234">
        <ele>293</ele>
        <time>2016-09-20T09:33:25Z</time>
      </trkpt>
      <trkpt lat="45.95655" lon="4.92333">
        <ele>293</ele>
        <time>2016-09-20T09:33:26Z</time>
      </trkpt>
      <trkpt lat="45.95656" lon="4.92326">
        <ele>293</ele>
        <time>2016-09-20T09:33:27Z</time>
      </trkpt>
      <trkpt lat="45.95656" lon="4.92319">
        <ele>293</ele>
        <time>2016-09-20T09:33:28Z</time>
      </trkpt>
      <trkpt lat="45.95657" lon="4.92311">
        <ele>293</ele>
        <time>2016-09-20T09:33:29Z</time>
      </trkpt>
      <trkpt lat="45.95658" lon="4.92303">
        <ele>293</ele>
        <time>2016-09-20T09:33:30Z</time>
      </trkpt>
      <trkpt lat="45.95658" lon="4.92295">
        <ele>293</ele>
        <time>2016-09-20T09:33:31Z</time>
      </trkpt>
      <trkpt lat="45.95658" lon="4.92287">
        <ele>293</ele>
        <time>2016-09-20T09:33:32Z</time>
      </trkpt>
      <trkpt lat="45.95658" lon="4.92278">
        <ele>293</ele>
        <time>2016-09-20T09:33:33Z</time>
      </trkpt>
      <trkpt lat="45.95659" lon="4.92269">
        <ele>294</ele>
        <time>2016-09-20T09:33:34Z</time>
      </trkpt>
      <trkpt lat="45.95659" lon="4.9226">
        <ele>294</ele>
        <time>2016-09-20T09:33:35Z</time>
      </trkpt>
      <trkpt lat="45.95659" lon="4.92251">
        <ele>294</ele>
        <time>2016-09-20T09:33:36Z</time>
      </trkpt>
      <trkpt lat="45.95659" lon="4.92244">
        <ele>294</ele>
        <time>2016-09-20T09:33:37Z</time>
      </trkpt>
      <trkpt lat="45.95659" lon="4.92236">
        <ele>294</ele>
        <time>2016-09-20T09:33:38Z</time>
      </trkpt>
      <trkpt lat="45.95659" lon="4.92228">
        <ele>294</ele>
        <time>2016-09-20T09:33:39Z</time>
      </trkpt>
      <trkpt lat="45.9566" lon="4.92219">
        <ele>294</ele>
        <time>2016-09-20T09:33:40Z</time>
      </trkpt>
      <trkpt lat="45.95661" lon="4.92211">
        <ele>294</ele>
        <time>2016-09-20T09:33:41Z</time>
      </trkpt>
      <trkpt lat="45.95661" lon="4.92203">
        <ele>294</ele>
        <time>2016-09-20T09:33:42Z</time>
      </trkpt>
      <trkpt lat="45.95661" lon="4.92196">
        <ele>295</ele>
        <time>2016-09-20T09:33:43Z</time>
      </trkpt>
      <trkpt lat="45.95662" lon="4.92188">
        <ele>295</ele>
        <time>2016-09-20T09:33:44Z</time>
      </trkpt>
      <trkpt lat="45.95662" lon="4.92181">
        <ele>295</ele>
        <time>2016-09-20T09:33:45Z</time>
      </trkpt>
      <trkpt lat="45.95662" lon="4.92173">
        <ele>296</ele>
        <time>2016-09-20T09:33:46Z</time>
      </trkpt>
      <trkpt lat="45.95662" lon="4.92165">
        <ele>297</ele>
        <time>2016-09-20T09:33:47Z</time>
      </trkpt>
      <trkpt lat="45.95662" lon="4.92157">
        <ele>296</ele>
        <time>2016-09-20T09:33:48Z</time>
      </trkpt>
      <trkpt lat="45.95662" lon="4.92149">
        <ele>296</ele>
        <time>2016-09-20T09:33:49Z</time>
      </trkpt>
      <trkpt lat="45.95662" lon="4.92141">
        <ele>296</ele>
        <time>2016-09-20T09:33:50Z</time>
      </trkpt>
      <trkpt lat="45.95663" lon="4.92134">
        <ele>296</ele>
        <time>2016-09-20T09:33:51Z</time>
      </trkpt>
      <trkpt lat="45.95664" lon="4.92127">
        <ele>296</ele>
        <time>2016-09-20T09:33:52Z</time>
      </trkpt>
      <trkpt lat="45.95664" lon="4.92119">
        <ele>296</ele>
        <time>2016-09-20T09:33:53Z</time>
      </trkpt>
      <trkpt lat="45.95665" lon="4.92111">
        <ele>296</ele>
        <time>2016-09-20T09:33:54Z</time>
      </trkpt>
      <trkpt lat="45.95665" lon="4.92103">
        <ele>297</ele>
        <time>2016-09-20T09:33:55Z</time>
      </trkpt>
      <trkpt lat="45.95666" lon="4.92096">
        <ele>297</ele>
        <time>2016-09-20T09:33:56Z</time>
      </trkpt>
      <trkpt lat="45.95667" lon="4.92088">
        <ele>298</ele>
        <time>2016-09-20T09:33:57Z</time>
      </trkpt>
      <trkpt lat="45.95667" lon="4.92081">
        <ele>299</ele>
        <time>2016-09-20T09:33:58Z</time>
      </trkpt>
      <trkpt lat="45.95668" lon="4.92073">
        <ele>300</ele>
        <time>2016-09-20T09:33:59Z</time>
      </trkpt>
      <trkpt lat="45.95668" lon="4.92066">
        <ele>300</ele>
        <time>2016-09-20T09:34:00Z</time>
      </trkpt>
      <trkpt lat="45.95669" lon="4.92058">
        <ele>300</ele>
        <time>2016-09-20T09:34:01Z</time>
      </trkpt>
      <trkpt lat="45.95669" lon="4.92045">
        <ele>300</ele>
        <time>2016-09-20T09:34:03Z</time>
      </trkpt>
      <trkpt lat="45.95668" lon="4.9204">
        <ele>300</ele>
        <time>2016-09-20T09:34:04Z</time>
      </trkpt>
      <trkpt lat="45.95667" lon="4.92034">
        <ele>297</ele>
        <time>2016-09-20T09:34:05Z</time>
      </trkpt>
      <trkpt lat="45.95664" lon="4.92028">
        <ele>297</ele>
        <time>2016-09-20T09:34:06Z</time>
      </trkpt>
      <trkpt lat="45.95662" lon="4.92021">
        <ele>297</ele>
        <time>2016-09-20T09:34:07Z</time>
      </trkpt>
      <trkpt lat="45.95659" lon="4.92015">
        <ele>297</ele>
        <time>2016-09-20T09:34:08Z</time>
      </trkpt>
      <trkpt lat="45.95656" lon="4.92009">
        <ele>297</ele>
        <time>2016-09-20T09:34:09Z</time>
      </trkpt>
      <trkpt lat="45.95654" lon="4.92004">
        <ele>297</ele>
        <time>2016-09-20T09:34:10Z</time>
      </trkpt>
      <trkpt lat="45.9565" lon="4.91999">
        <ele>296</ele>
        <time>2016-09-20T09:34:11Z</time>
      </trkpt>
      <trkpt lat="45.95647" lon="4.91993">
        <ele>296</ele>
        <time>2016-09-20T09:34:12Z</time>
      </trkpt>
      <trkpt lat="45.95644" lon="4.91988">
        <ele>296</ele>
        <time>2016-09-20T09:34:13Z</time>
      </trkpt>
      <trkpt lat="45.9564" lon="4.91982">
        <ele>296</ele>
        <time>2016-09-20T09:34:14Z</time>
      </trkpt>
      <trkpt lat="45.95636" lon="4.91977">
        <ele>295</ele>
        <time>2016-09-20T09:34:15Z</time>
      </trkpt>
      <trkpt lat="45.95632" lon="4.91972">
        <ele>295</ele>
        <time>2016-09-20T09:34:16Z</time>
      </trkpt>
      <trkpt lat="45.95628" lon="4.91967">
        <ele>295</ele>
        <time>2016-09-20T09:34:17Z</time>
      </trkpt>
      <trkpt lat="45.95624" lon="4.91962">
        <ele>295</ele>
        <time>2016-09-20T09:34:18Z</time>
      </trkpt>
      <trkpt lat="45.9562" lon="4.91958">
        <ele>295</ele>
        <time>2016-09-20T09:34:19Z</time>
      </trkpt>
      <trkpt lat="45.95615" lon="4.91953">
        <ele>295</ele>
        <time>2016-09-20T09:34:20Z</time>
      </trkpt>
      <trkpt lat="45.95611" lon="4.91948">
        <ele>294</ele>
        <time>2016-09-20T09:34:21Z</time>
      </trkpt>
      <trkpt lat="45.95607" lon="4.91943">
        <ele>294</ele>
        <time>2016-09-20T09:34:22Z</time>
      </trkpt>
      <trkpt lat="45.95603" lon="4.91939">
        <ele>294</ele>
        <time>2016-09-20T09:34:23Z</time>
      </trkpt>
      <trkpt lat="45.95598" lon="4.91936">
        <ele>294</ele>
        <time>2016-09-20T09:34:24Z</time>
      </trkpt>
      <trkpt lat="45.95594" lon="4.91932">
        <ele>294</ele>
        <time>2016-09-20T09:34:25Z</time>
      </trkpt>
      <trkpt lat="45.95589" lon="4.91927">
        <ele>294</ele>
        <time>2016-09-20T09:34:26Z</time>
      </trkpt>
      <trkpt lat="45.95585" lon="4.91923">
        <ele>293</ele>
        <time>2016-09-20T09:34:27Z</time>
      </trkpt>
      <trkpt lat="45.95579" lon="4.9192">
        <ele>293</ele>
        <time>2016-09-20T09:34:28Z</time>
      </trkpt>
      <trkpt lat="45.95574" lon="4.91916">
        <ele>293</ele>
        <time>2016-09-20T09:34:29Z</time>
      </trkpt>
      <trkpt lat="45.95568" lon="4.91913">
        <ele>294</ele>
        <time>2016-09-20T09:34:30Z</time>
      </trkpt>
      <trkpt lat="45.95562" lon="4.91909">
        <ele>294</ele>
        <time>2016-09-20T09:34:31Z</time>
      </trkpt>
      <trkpt lat="45.95557" lon="4.91905">
        <ele>294</ele>
        <time>2016-09-20T09:34:32Z</time>
      </trkpt>
      <trkpt lat="45.95552" lon="4.91901">
        <ele>294</ele>
        <time>2016-09-20T09:34:33Z</time>
      </trkpt>
      <trkpt lat="45.95546" lon="4.91897">
        <ele>294</ele>
        <time>2016-09-20T09:34:34Z</time>
      </trkpt>
      <trkpt lat="45.95541" lon="4.91892">
        <ele>294</ele>
        <time>2016-09-20T09:34:35Z</time>
      </trkpt>
      <trkpt lat="45.95536" lon="4.91888">
        <ele>294</ele>
        <time>2016-09-20T09:34:36Z</time>
      </trkpt>
      <trkpt lat="45.9553" lon="4.91884">
        <ele>294</ele>
        <time>2016-09-20T09:34:37Z</time>
      </trkpt>
      <trkpt lat="45.95524" lon="4.9188">
        <ele>294</ele>
        <time>2016-09-20T09:34:38Z</time>
      </trkpt>
      <trkpt lat="45.95519" lon="4.91875">
        <ele>294</ele>
        <time>2016-09-20T09:34:39Z</time>
      </trkpt>
      <trkpt lat="45.95514" lon="4.91871">
        <ele>295</ele>
        <time>2016-09-20T09:34:40Z</time>
      </trkpt>
      <trkpt lat="45.9551" lon="4.91867">
        <ele>295</ele>
        <time>2016-09-20T09:34:41Z</time>
      </trkpt>
      <trkpt lat="45.95505" lon="4.91863">
        <ele>295</ele>
        <time>2016-09-20T09:34:42Z</time>
      </trkpt>
      <trkpt lat="45.95501" lon="4.91859">
        <ele>295</ele>
        <time>2016-09-20T09:34:43Z</time>
      </trkpt>
      <trkpt lat="45.95496" lon="4.91855">
        <ele>295</ele>
        <time>2016-09-20T09:34:44Z</time>
      </trkpt>
      <trkpt lat="45.95491" lon="4.9185">
        <ele>295</ele>
        <time>2016-09-20T09:34:45Z</time>
      </trkpt>
      <trkpt lat="45.95487" lon="4.91846">
        <ele>295</ele>
        <time>2016-09-20T09:34:46Z</time>
      </trkpt>
      <trkpt lat="45.95482" lon="4.91843">
        <ele>295</ele>
        <time>2016-09-20T09:34:47Z</time>
      </trkpt>
      <trkpt lat="45.95478" lon="4.91839">
        <ele>295</ele>
        <time>2016-09-20T09:34:48Z</time>
      </trkpt>
      <trkpt lat="45.95474" lon="4.91834">
        <ele>295</ele>
        <time>2016-09-20T09:34:49Z</time>
      </trkpt>
      <trkpt lat="45.9547" lon="4.91829">
        <ele>297</ele>
        <time>2016-09-20T09:34:50Z</time>
      </trkpt>
      <trkpt lat="45.95466" lon="4.91824">
        <ele>297</ele>
        <time>2016-09-20T09:34:51Z</time>
      </trkpt>
      <trkpt lat="45.95463" lon="4.91819">
        <ele>297</ele>
        <time>2016-09-20T09:34:52Z</time>
      </trkpt>
      <trkpt lat="45.9546" lon="4.91813">
        <ele>297</ele>
        <time>2016-09-20T09:34:53Z</time>
      </trkpt>
      <trkpt lat="45.95456" lon="4.91807">
        <ele>298</ele>
        <time>2016-09-20T09:34:54Z</time>
      </trkpt>
      <trkpt lat="45.95451" lon="4.91801">
        <ele>298</ele>
        <time>2016-09-20T09:34:55Z</time>
      </trkpt>
      <trkpt lat="45.95447" lon="4.91796">
        <ele>298</ele>
        <time>2016-09-20T09:34:56Z</time>
      </trkpt>
      <trkpt lat="45.95443" lon="4.9179">
        <ele>298</ele>
        <time>2016-09-20T09:34:57Z</time>
      </trkpt>
      <trkpt lat="45.95439" lon="4.91784">
        <ele>298</ele>
        <time>2016-09-20T09:34:58Z</time>
      </trkpt>
      <trkpt lat="45.95436" lon="4.91778">
        <ele>298</ele>
        <time>2016-09-20T09:34:59Z</time>
      </trkpt>
      <trkpt lat="45.95433" lon="4.91772">
        <ele>298</ele>
        <time>2016-09-20T09:35:00Z</time>
      </trkpt>
      <trkpt lat="45.9543" lon="4.91766">
        <ele>298</ele>
        <time>2016-09-20T09:35:01Z</time>
      </trkpt>
      <trkpt lat="45.95428" lon="4.9176">
        <ele>298</ele>
        <time>2016-09-20T09:35:02Z</time>
      </trkpt>
      <trkpt lat="45.95425" lon="4.91749">
        <ele>299</ele>
        <time>2016-09-20T09:35:04Z</time>
      </trkpt>
      <trkpt lat="45.95423" lon="4.91744">
        <ele>299</ele>
        <time>2016-09-20T09:35:05Z</time>
      </trkpt>
      <trkpt lat="45.9542" lon="4.91736">
        <ele>300</ele>
        <time>2016-09-20T09:35:07Z</time>
      </trkpt>
      <trkpt lat="45.95419" lon="4.91733">
        <ele>300</ele>
        <time>2016-09-20T09:35:08Z</time>
      </trkpt>
      <trkpt lat="45.95416" lon="4.9172">
        <ele>299</ele>
        <time>2016-09-20T09:35:12Z</time>
      </trkpt>
      <trkpt lat="45.95416" lon="4.91717">
        <ele>299</ele>
        <time>2016-09-20T09:35:13Z</time>
      </trkpt>
      <trkpt lat="45.95412" lon="4.91708">
        <ele>299</ele>
        <time>2016-09-20T09:35:16Z</time>
      </trkpt>
      <trkpt lat="45.95411" lon="4.91706">
        <ele>299</ele>
        <time>2016-09-20T09:35:17Z</time>
      </trkpt>
      <trkpt lat="45.95408" lon="4.91697">
        <ele>299</ele>
        <time>2016-09-20T09:35:20Z</time>
      </trkpt>
      <trkpt lat="45.95406" lon="4.91694">
        <ele>300</ele>
        <time>2016-09-20T09:35:21Z</time>
      </trkpt>
      <trkpt lat="45.95403" lon="4.91685">
        <ele>300</ele>
        <time>2016-09-20T09:35:24Z</time>
      </trkpt>
      <trkpt lat="45.95401" lon="4.91683">
        <ele>300</ele>
        <time>2016-09-20T09:35:25Z</time>
      </trkpt>
      <trkpt lat="45.95395" lon="4.91673">
        <ele>300</ele>
        <time>2016-09-20T09:35:28Z</time>
      </trkpt>
      <trkpt lat="45.95393" lon="4.9167">
        <ele>300</ele>
        <time>2016-09-20T09:35:29Z</time>
      </trkpt>
      <trkpt lat="45.95388" lon="4.9166">
        <ele>301</ele>
        <time>2016-09-20T09:35:32Z</time>
      </trkpt>
      <trkpt lat="45.95386" lon="4.91657">
        <ele>301</ele>
        <time>2016-09-20T09:35:33Z</time>
      </trkpt>
      <trkpt lat="45.95382" lon="4.91648">
        <ele>301</ele>
        <time>2016-09-20T09:35:35Z</time>
      </trkpt>
      <trkpt lat="45.95381" lon="4.91644">
        <ele>301</ele>
        <time>2016-09-20T09:35:36Z</time>
      </trkpt>
      <trkpt lat="45.95377" lon="4.91635">
        <ele>301</ele>
        <time>2016-09-20T09:35:38Z</time>
      </trkpt>
      <trkpt lat="45.95376" lon="4.9163">
        <ele>301</ele>
        <time>2016-09-20T09:35:39Z</time>
      </trkpt>
      <trkpt lat="45.95374" lon="4.91619">
        <ele>300</ele>
        <time>2016-09-20T09:35:41Z</time>
      </trkpt>
      <trkpt lat="45.95373" lon="4.91614">
        <ele>300</ele>
        <time>2016-09-20T09:35:42Z</time>
      </trkpt>
      <trkpt lat="45.9537" lon="4.91603">
        <ele>300</ele>
        <time>2016-09-20T09:35:45Z</time>
      </trkpt>
      <trkpt lat="45.95369" lon="4.91599">
        <ele>300</ele>
        <time>2016-09-20T09:35:46Z</time>
      </trkpt>
      <trkpt lat="45.95367" lon="4.9159">
        <ele>300</ele>
        <time>2016-09-20T09:35:48Z</time>
      </trkpt>
      <trkpt lat="45.95366" lon="4.91587">
        <ele>300</ele>
        <time>2016-09-20T09:35:49Z</time>
      </trkpt>
      <trkpt lat="45.95363" lon="4.91577">
        <ele>300</ele>
        <time>2016-09-20T09:35:51Z</time>
      </trkpt>
      <trkpt lat="45.95361" lon="4.9157">
        <ele>300</ele>
        <time>2016-09-20T09:35:52Z</time>
      </trkpt>
      <trkpt lat="45.95359" lon="4.91563">
        <ele>300</ele>
        <time>2016-09-20T09:35:53Z</time>
      </trkpt>
      <trkpt lat="45.95358" lon="4.91557">
        <ele>300</ele>
        <time>2016-09-20T09:35:54Z</time>
      </trkpt>
      <trkpt lat="45.95356" lon="4.91548">
        <ele>300</ele>
        <time>2016-09-20T09:35:56Z</time>
      </trkpt>
      <trkpt lat="45.95356" lon="4.91544">
        <ele>300</ele>
        <time>2016-09-20T09:35:57Z</time>
      </trkpt>
      <trkpt lat="45.95355" lon="4.91533">
        <ele>299</ele>
        <time>2016-09-20T09:36:00Z</time>
      </trkpt>
      <trkpt lat="45.95354" lon="4.91529">
        <ele>299</ele>
        <time>2016-09-20T09:36:01Z</time>
      </trkpt>
      <trkpt lat="45.95352" lon="4.9152">
        <ele>299</ele>
        <time>2016-09-20T09:36:03Z</time>
      </trkpt>
      <trkpt lat="45.95351" lon="4.91515">
        <ele>299</ele>
        <time>2016-09-20T09:36:04Z</time>
      </trkpt>
      <trkpt lat="45.95349" lon="4.91506">
        <ele>299</ele>
        <time>2016-09-20T09:36:06Z</time>
      </trkpt>
      <trkpt lat="45.95348" lon="4.91502">
        <ele>299</ele>
        <time>2016-09-20T09:36:07Z</time>
      </trkpt>
      <trkpt lat="45.95345" lon="4.91492">
        <ele>298</ele>
        <time>2016-09-20T09:36:09Z</time>
      </trkpt>
      <trkpt lat="45.95344" lon="4.91487">
        <ele>298</ele>
        <time>2016-09-20T09:36:10Z</time>
      </trkpt>
      <trkpt lat="45.95342" lon="4.91476">
        <ele>298</ele>
        <time>2016-09-20T09:36:13Z</time>
      </trkpt>
      <trkpt lat="45.95341" lon="4.91474">
        <ele>298</ele>
        <time>2016-09-20T09:36:14Z</time>
      </trkpt>
      <trkpt lat="45.95339" lon="4.91463">
        <ele>298</ele>
        <time>2016-09-20T09:36:17Z</time>
      </trkpt>
      <trkpt lat="45.95339" lon="4.9146">
        <ele>298</ele>
        <time>2016-09-20T09:36:18Z</time>
      </trkpt>
      <trkpt lat="45.95337" lon="4.91451">
        <ele>298</ele>
        <time>2016-09-20T09:36:21Z</time>
      </trkpt>
      <trkpt lat="45.95337" lon="4.91447">
        <ele>298</ele>
        <time>2016-09-20T09:36:22Z</time>
      </trkpt>
      <trkpt lat="45.95334" lon="4.91437">
        <ele>298</ele>
        <time>2016-09-20T09:36:25Z</time>
      </trkpt>
      <trkpt lat="45.95334" lon="4.91434">
        <ele>298</ele>
        <time>2016-09-20T09:36:26Z</time>
      </trkpt>
      <trkpt lat="45.9533" lon="4.91424">
        <ele>298</ele>
        <time>2016-09-20T09:36:29Z</time>
      </trkpt>
      <trkpt lat="45.95329" lon="4.91421">
        <ele>298</ele>
        <time>2016-09-20T09:36:30Z</time>
      </trkpt>
      <trkpt lat="45.95326" lon="4.9141">
        <ele>298</ele>
        <time>2016-09-20T09:36:34Z</time>
      </trkpt>
      <trkpt lat="45.95326" lon="4.91406">
        <ele>298</ele>
        <time>2016-09-20T09:36:35Z</time>
      </trkpt>
      <trkpt lat="45.95323" lon="4.91397">
        <ele>298</ele>
        <time>2016-09-20T09:36:38Z</time>
      </trkpt>
      <trkpt lat="45.95322" lon="4.91393">
        <ele>298</ele>
        <time>2016-09-20T09:36:39Z</time>
      </trkpt>
      <trkpt lat="45.95321" lon="4.91383">
        <ele>298</ele>
        <time>2016-09-20T09:36:42Z</time>
      </trkpt>
      <trkpt lat="45.9532" lon="4.91379">
        <ele>298</ele>
        <time>2016-09-20T09:36:43Z</time>
      </trkpt>
      <trkpt lat="45.95319" lon="4.91367">
        <ele>298</ele>
        <time>2016-09-20T09:36:46Z</time>
      </trkpt>
      <trkpt lat="45.95317" lon="4.91364">
        <ele>298</ele>
        <time>2016-09-20T09:36:47Z</time>
      </trkpt>
      <trkpt lat="45.95316" lon="4.91355">
        <ele>298</ele>
        <time>2016-09-20T09:36:49Z</time>
      </trkpt>
      <trkpt lat="45.95316" lon="4.91351">
        <ele>297</ele>
        <time>2016-09-20T09:36:50Z</time>
      </trkpt>
      <trkpt lat="45.95314" lon="4.9134">
        <ele>297</ele>
        <time>2016-09-20T09:36:53Z</time>
      </trkpt>
      <trkpt lat="45.95313" lon="4.91336">
        <ele>297</ele>
        <time>2016-09-20T09:36:54Z</time>
      </trkpt>
      <trkpt lat="45.95311" lon="4.91328">
        <ele>298</ele>
        <time>2016-09-20T09:36:56Z</time>
      </trkpt>
      <trkpt lat="45.95309" lon="4.91324">
        <ele>298</ele>
        <time>2016-09-20T09:36:57Z</time>
      </trkpt>
      <trkpt lat="45.95307" lon="4.91312">
        <ele>298</ele>
        <time>2016-09-20T09:37:00Z</time>
      </trkpt>
      <trkpt lat="45.95307" lon="4.91307">
        <ele>298</ele>
        <time>2016-09-20T09:37:01Z</time>
      </trkpt>
      <trkpt lat="45.95305" lon="4.91296">
        <ele>298</ele>
        <time>2016-09-20T09:37:04Z</time>
      </trkpt>
      <trkpt lat="45.95305" lon="4.91294">
        <ele>298</ele>
        <time>2016-09-20T09:37:05Z</time>
      </trkpt>
      <trkpt lat="45.95302" lon="4.91281">
        <ele>298</ele>
        <time>2016-09-20T09:37:10Z</time>
      </trkpt>
      <trkpt lat="45.95302" lon="4.91278">
        <ele>298</ele>
        <time>2016-09-20T09:37:11Z</time>
      </trkpt>
      <trkpt lat="45.953" lon="4.91269">
        <ele>298</ele>
        <time>2016-09-20T09:37:13Z</time>
      </trkpt>
      <trkpt lat="45.95299" lon="4.91265">
        <ele>298</ele>
        <time>2016-09-20T09:37:14Z</time>
      </trkpt>
      <trkpt lat="45.95297" lon="4.91256">
        <ele>298</ele>
        <time>2016-09-20T09:37:16Z</time>
      </trkpt>
      <trkpt lat="45.95295" lon="4.91252">
        <ele>298</ele>
        <time>2016-09-20T09:37:17Z</time>
      </trkpt>
      <trkpt lat="45.95293" lon="4.91242">
        <ele>299</ele>
        <time>2016-09-20T09:37:19Z</time>
      </trkpt>
      <trkpt lat="45.95292" lon="4.91239">
        <ele>299</ele>
        <time>2016-09-20T09:37:20Z</time>
      </trkpt>
      <trkpt lat="45.95289" lon="4.91228">
        <ele>299</ele>
        <time>2016-09-20T09:37:23Z</time>
      </trkpt>
      <trkpt lat="45.95287" lon="4.91222">
        <ele>299</ele>
        <time>2016-09-20T09:37:24Z</time>
      </trkpt>
      <trkpt lat="45.95281" lon="4.91215">
        <ele>299</ele>
        <time>2016-09-20T09:37:26Z</time>
      </trkpt>
      <trkpt lat="45.95278" lon="4.91212">
        <ele>299</ele>
        <time>2016-09-20T09:37:27Z</time>
      </trkpt>
      <trkpt lat="45.95273" lon="4.91203">
        <ele>299</ele>
        <time>2016-09-20T09:37:30Z</time>
      </trkpt>
      <trkpt lat="45.95271" lon="4.912">
        <ele>299</ele>
        <time>2016-09-20T09:37:31Z</time>
      </trkpt>
      <trkpt lat="45.95267" lon="4.91192">
        <ele>299</ele>
        <time>2016-09-20T09:37:34Z</time>
      </trkpt>
      <trkpt lat="45.95265" lon="4.91188">
        <ele>299</ele>
        <time>2016-09-20T09:37:35Z</time>
      </trkpt>
      <trkpt lat="45.95261" lon="4.91178">
        <ele>299</ele>
        <time>2016-09-20T09:37:38Z</time>
      </trkpt>
      <trkpt lat="45.9526" lon="4.91174">
        <ele>299</ele>
        <time>2016-09-20T09:37:39Z</time>
      </trkpt>
      <trkpt lat="45.95257" lon="4.91166">
        <ele>299</ele>
        <time>2016-09-20T09:37:42Z</time>
      </trkpt>
      <trkpt lat="45.95256" lon="4.91162">
        <ele>299</ele>
        <time>2016-09-20T09:37:43Z</time>
      </trkpt>
      <trkpt lat="45.95252" lon="4.91155">
        <ele>299</ele>
        <time>2016-09-20T09:37:45Z</time>
      </trkpt>
      <trkpt lat="45.9525" lon="4.91151">
        <ele>299</ele>
        <time>2016-09-20T09:37:46Z</time>
      </trkpt>
      <trkpt lat="45.95246" lon="4.91141">
        <ele>298</ele>
        <time>2016-09-20T09:37:49Z</time>
      </trkpt>
      <trkpt lat="45.95245" lon="4.91138">
        <ele>298</ele>
        <time>2016-09-20T09:37:50Z</time>
      </trkpt>
      <trkpt lat="45.95241" lon="4.91129">
        <ele>298</ele>
        <time>2016-09-20T09:37:53Z</time>
      </trkpt>
      <trkpt lat="45.95239" lon="4.91127">
        <ele>298</ele>
        <time>2016-09-20T09:37:54Z</time>
      </trkpt>
      <trkpt lat="45.95236" lon="4.91116">
        <ele>298</ele>
        <time>2016-09-20T09:37:57Z</time>
      </trkpt>
      <trkpt lat="45.95235" lon="4.91113">
        <ele>298</ele>
        <time>2016-09-20T09:37:58Z</time>
      </trkpt>
      <trkpt lat="45.9523" lon="4.91105">
        <ele>298</ele>
        <time>2016-09-20T09:38:01Z</time>
      </trkpt>
      <trkpt lat="45.95229" lon="4.91103">
        <ele>298</ele>
        <time>2016-09-20T09:38:02Z</time>
      </trkpt>
      <trkpt lat="45.95224" lon="4.91095">
        <ele>298</ele>
        <time>2016-09-20T09:38:05Z</time>
      </trkpt>
      <trkpt lat="45.95223" lon="4.91093">
        <ele>298</ele>
        <time>2016-09-20T09:38:06Z</time>
      </trkpt>
      <trkpt lat="45.95216" lon="4.91087">
        <ele>298</ele>
        <time>2016-09-20T09:38:09Z</time>
      </trkpt>
      <trkpt lat="45.95214" lon="4.91085">
        <ele>298</ele>
        <time>2016-09-20T09:38:10Z</time>
      </trkpt>
      <trkpt lat="45.95206" lon="4.91083">
        <ele>297</ele>
        <time>2016-09-20T09:38:13Z</time>
      </trkpt>
      <trkpt lat="45.95203" lon="4.91082">
        <ele>297</ele>
        <time>2016-09-20T09:38:14Z</time>
      </trkpt>
      <trkpt lat="45.95195" lon="4.91077">
        <ele>297</ele>
        <time>2016-09-20T09:38:18Z</time>
      </trkpt>
      <trkpt lat="45.95194" lon="4.91076">
        <ele>297</ele>
        <time>2016-09-20T09:38:19Z</time>
      </trkpt>
      <trkpt lat="45.95188" lon="4.91069">
        <ele>297</ele>
        <time>2016-09-20T09:38:22Z</time>
      </trkpt>
      <trkpt lat="45.95186" lon="4.91066">
        <ele>297</ele>
        <time>2016-09-20T09:38:23Z</time>
      </trkpt>
      <trkpt lat="45.95181" lon="4.9106">
        <ele>297</ele>
        <time>2016-09-20T09:38:25Z</time>
      </trkpt>
      <trkpt lat="45.95177" lon="4.91057">
        <ele>297</ele>
        <time>2016-09-20T09:38:26Z</time>
      </trkpt>
      <trkpt lat="45.95172" lon="4.91048">
        <ele>297</ele>
        <time>2016-09-20T09:38:29Z</time>
      </trkpt>
      <trkpt lat="45.95171" lon="4.91045">
        <ele>297</ele>
        <time>2016-09-20T09:38:30Z</time>
      </trkpt>
      <trkpt lat="45.9517" lon="4.91044">
        <ele>297</ele>
        <time>2016-09-20T09:38:31Z</time>
      </trkpt>
      <trkpt lat="45.9517" lon="4.91043">
        <ele>297</ele>
        <time>2016-09-20T09:38:32Z</time>
      </trkpt>
      <trkpt lat="45.95167" lon="4.91044">
        <ele>297</ele>
        <time>2016-09-20T09:39:35Z</time>
      </trkpt>
      <trkpt lat="45.95167" lon="4.91043">
        <ele>297</ele>
        <time>2016-09-20T09:39:36Z</time>
      </trkpt>
      <trkpt lat="45.95174" lon="4.91039">
        <ele>297</ele>
        <time>2016-09-20T09:39:48Z</time>
      </trkpt>
      <trkpt lat="45.95177" lon="4.91037">
        <ele>297</ele>
        <time>2016-09-20T09:39:49Z</time>
      </trkpt>
      <trkpt lat="45.95185" lon="4.91036">
        <ele>297</ele>
        <time>2016-09-20T09:40:14Z</time>
      </trkpt>
      <trkpt lat="45.95186" lon="4.91037">
        <ele>297</ele>
        <time>2016-09-20T09:40:15Z</time>
      </trkpt>
      <trkpt lat="45.95182" lon="4.91027">
        <ele>297</ele>
        <time>2016-09-20T09:41:32Z</time>
      </trkpt>
      <trkpt lat="45.95181" lon="4.91026">
        <ele>297</ele>
        <time>2016-09-20T09:41:33Z</time>
      </trkpt>
      <trkpt lat="45.95178" lon="4.91017">
        <ele>298</ele>
        <time>2016-09-20T09:41:36Z</time>
      </trkpt>
      <trkpt lat="45.95177" lon="4.91013">
        <ele>298</ele>
        <time>2016-09-20T09:41:37Z</time>
      </trkpt>
      <trkpt lat="45.95175" lon="4.91003">
        <ele>298</ele>
        <time>2016-09-20T09:41:39Z</time>
      </trkpt>
      <trkpt lat="45.95175" lon="4.90998">
        <ele>298</ele>
        <time>2016-09-20T09:41:40Z</time>
      </trkpt>
      <trkpt lat="45.95174" lon="4.90988">
        <ele>298</ele>
        <time>2016-09-20T09:41:42Z</time>
      </trkpt>
      <trkpt lat="45.95174" lon="4.90981">
        <ele>298</ele>
        <time>2016-09-20T09:41:43Z</time>
      </trkpt>
      <trkpt lat="45.95172" lon="4.90972">
        <ele>298</ele>
        <time>2016-09-20T09:41:45Z</time>
      </trkpt>
      <trkpt lat="45.95172" lon="4.90966">
        <ele>298</ele>
        <time>2016-09-20T09:41:46Z</time>
      </trkpt>
      <trkpt lat="45.95172" lon="4.90955">
        <ele>297</ele>
        <time>2016-09-20T09:41:48Z</time>
      </trkpt>
      <trkpt lat="45.95172" lon="4.9095">
        <ele>297</ele>
        <time>2016-09-20T09:41:49Z</time>
      </trkpt>
      <trkpt lat="45.95172" lon="4.90938">
        <ele>297</ele>
        <time>2016-09-20T09:41:51Z</time>
      </trkpt>
      <trkpt lat="45.95173" lon="4.90932">
        <ele>297</ele>
        <time>2016-09-20T09:41:52Z</time>
      </trkpt>
      <trkpt lat="45.95174" lon="4.90925">
        <ele>297</ele>
        <time>2016-09-20T09:41:53Z</time>
      </trkpt>
      <trkpt lat="45.95175" lon="4.90918">
        <ele>297</ele>
        <time>2016-09-20T09:41:54Z</time>
      </trkpt>
      <trkpt lat="45.95175" lon="4.90911">
        <ele>297</ele>
        <time>2016-09-20T09:41:55Z</time>
      </trkpt>
      <trkpt lat="45.95176" lon="4.90905">
        <ele>298</ele>
        <time>2016-09-20T09:41:56Z</time>
      </trkpt>
      <trkpt lat="45.95177" lon="4.90897">
        <ele>298</ele>
        <time>2016-09-20T09:41:57Z</time>
      </trkpt>
      <trkpt lat="45.95178" lon="4.9089">
        <ele>298</ele>
        <time>2016-09-20T09:41:58Z</time>
      </trkpt>
      <trkpt lat="45.95179" lon="4.90884">
        <ele>298</ele>
        <time>2016-09-20T09:41:59Z</time>
      </trkpt>
      <trkpt lat="45.9518" lon="4.90877">
        <ele>298</ele>
        <time>2016-09-20T09:42:00Z</time>
      </trkpt>
      <trkpt lat="45.9518" lon="4.90869">
        <ele>298</ele>
        <time>2016-09-20T09:42:01Z</time>
      </trkpt>
      <trkpt lat="45.95181" lon="4.90861">
        <ele>298</ele>
        <time>2016-09-20T09:42:02Z</time>
      </trkpt>
      <trkpt lat="45.95182" lon="4.90854">
        <ele>298</ele>
        <time>2016-09-20T09:42:03Z</time>
      </trkpt>
      <trkpt lat="45.95183" lon="4.90846">
        <ele>298</ele>
        <time>2016-09-20T09:42:04Z</time>
      </trkpt>
      <trkpt lat="45.95184" lon="4.90838">
        <ele>298</ele>
        <time>2016-09-20T09:42:05Z</time>
      </trkpt>
      <trkpt lat="45.95185" lon="4.90829">
        <ele>298</ele>
        <time>2016-09-20T09:42:06Z</time>
      </trkpt>
      <trkpt lat="45.95185" lon="4.90821">
        <ele>298</ele>
        <time>2016-09-20T09:42:07Z</time>
      </trkpt>
      <trkpt lat="45.95184" lon="4.90813">
        <ele>298</ele>
        <time>2016-09-20T09:42:08Z</time>
      </trkpt>
      <trkpt lat="45.95183" lon="4.90806">
        <ele>298</ele>
        <time>2016-09-20T09:42:09Z</time>
      </trkpt>
      <trkpt lat="45.95182" lon="4.90799">
        <ele>298</ele>
        <time>2016-09-20T09:42:10Z</time>
      </trkpt>
      <trkpt lat="45.9518" lon="4.90792">
        <ele>298</ele>
        <time>2016-09-20T09:42:11Z</time>
      </trkpt>
      <trkpt lat="45.95179" lon="4.90786">
        <ele>298</ele>
        <time>2016-09-20T09:42:12Z</time>
      </trkpt>
      <trkpt lat="45.95177" lon="4.90776">
        <ele>298</ele>
        <time>2016-09-20T09:42:13Z</time>
      </trkpt>
      <trkpt lat="45.95176" lon="4.9077">
        <ele>298</ele>
        <time>2016-09-20T09:42:14Z</time>
      </trkpt>
      <trkpt lat="45.95176" lon="4.90763">
        <ele>298</ele>
        <time>2016-09-20T09:42:15Z</time>
      </trkpt>
      <trkpt lat="45.95176" lon="4.90755">
        <ele>298</ele>
        <time>2016-09-20T09:42:16Z</time>
      </trkpt>
      <trkpt lat="45.95176" lon="4.90748">
        <ele>297</ele>
        <time>2016-09-20T09:42:17Z</time>
      </trkpt>
      <trkpt lat="45.95176" lon="4.90741">
        <ele>297</ele>
        <time>2016-09-20T09:42:18Z</time>
      </trkpt>
      <trkpt lat="45.95177" lon="4.90734">
        <ele>297</ele>
        <time>2016-09-20T09:42:19Z</time>
      </trkpt>
      <trkpt lat="45.95177" lon="4.90727">
        <ele>297</ele>
        <time>2016-09-20T09:42:20Z</time>
      </trkpt>
      <trkpt lat="45.95178" lon="4.90721">
        <ele>297</ele>
        <time>2016-09-20T09:42:21Z</time>
      </trkpt>
      <trkpt lat="45.95179" lon="4.90714">
        <ele>297</ele>
        <time>2016-09-20T09:42:22Z</time>
      </trkpt>
      <trkpt lat="45.95179" lon="4.90706">
        <ele>297</ele>
        <time>2016-09-20T09:42:23Z</time>
      </trkpt>
      <trkpt lat="45.95179" lon="4.90699">
        <ele>297</ele>
        <time>2016-09-20T09:42:24Z</time>
      </trkpt>
      <trkpt lat="45.95179" lon="4.90692">
        <ele>297</ele>
        <time>2016-09-20T09:42:25Z</time>
      </trkpt>
      <trkpt lat="45.9518" lon="4.90685">
        <ele>297</ele>
        <time>2016-09-20T09:42:26Z</time>
      </trkpt>
      <trkpt lat="45.9518" lon="4.90678">
        <ele>296</ele>
        <time>2016-09-20T09:42:27Z</time>
      </trkpt>
      <trkpt lat="45.9518" lon="4.9067">
        <ele>296</ele>
        <time>2016-09-20T09:42:28Z</time>
      </trkpt>
      <trkpt lat="45.9518" lon="4.90663">
        <ele>295</ele>
        <time>2016-09-20T09:42:29Z</time>
      </trkpt>
      <trkpt lat="45.9518" lon="4.90654">
        <ele>295</ele>
        <time>2016-09-20T09:42:30Z</time>
      </trkpt>
      <trkpt lat="45.95181" lon="4.90645">
        <ele>295</ele>
        <time>2016-09-20T09:42:31Z</time>
      </trkpt>
      <trkpt lat="45.95182" lon="4.90635">
        <ele>295</ele>
        <time>2016-09-20T09:42:32Z</time>
      </trkpt>
      <trkpt lat="45.95182" lon="4.90626">
        <ele>295</ele>
        <time>2016-09-20T09:42:33Z</time>
      </trkpt>
      <trkpt lat="45.95183" lon="4.90617">
        <ele>295</ele>
        <time>2016-09-20T09:42:34Z</time>
      </trkpt>
      <trkpt lat="45.95184" lon="4.90609">
        <ele>295</ele>
        <time>2016-09-20T09:42:35Z</time>
      </trkpt>
      <trkpt lat="45.95185" lon="4.906">
        <ele>295</ele>
        <time>2016-09-20T09:42:36Z</time>
      </trkpt>
      <trkpt lat="45.95186" lon="4.90591">
        <ele>295</ele>
        <time>2016-09-20T09:42:37Z</time>
      </trkpt>
      <trkpt lat="45.95187" lon="4.90583">
        <ele>293</ele>
        <time>2016-09-20T09:42:38Z</time>
      </trkpt>
      <trkpt lat="45.95187" lon="4.90575">
        <ele>293</ele>
        <time>2016-09-20T09:42:39Z</time>
      </trkpt>
      <trkpt lat="45.95188" lon="4.90564">
        <ele>293</ele>
        <time>2016-09-20T09:42:40Z</time>
      </trkpt>
      <trkpt lat="45.95188" lon="4.90554">
        <ele>293</ele>
        <time>2016-09-20T09:42:41Z</time>
      </trkpt>
      <trkpt lat="45.95189" lon="4.90545">
        <ele>293</ele>
        <time>2016-09-20T09:42:42Z</time>
      </trkpt>
      <trkpt lat="45.95189" lon="4.90536">
        <ele>293</ele>
        <time>2016-09-20T09:42:43Z</time>
      </trkpt>
      <trkpt lat="45.9519" lon="4.90529">
        <ele>293</ele>
        <time>2016-09-20T09:42:44Z</time>
      </trkpt>
      <trkpt lat="45.95191" lon="4.90523">
        <ele>292</ele>
        <time>2016-09-20T09:42:45Z</time>
      </trkpt>
      <trkpt lat="45.95191" lon="4.90515">
        <ele>292</ele>
        <time>2016-09-20T09:42:46Z</time>
      </trkpt>
      <trkpt lat="45.95191" lon="4.90507">
        <ele>292</ele>
        <time>2016-09-20T09:42:47Z</time>
      </trkpt>
      <trkpt lat="45.95192" lon="4.90499">
        <ele>291</ele>
        <time>2016-09-20T09:42:48Z</time>
      </trkpt>
      <trkpt lat="45.95192" lon="4.9049">
        <ele>291</ele>
        <time>2016-09-20T09:42:49Z</time>
      </trkpt>
      <trkpt lat="45.95193" lon="4.90482">
        <ele>290</ele>
        <time>2016-09-20T09:42:50Z</time>
      </trkpt>
      <trkpt lat="45.95193" lon="4.90474">
        <ele>290</ele>
        <time>2016-09-20T09:42:51Z</time>
      </trkpt>
      <trkpt lat="45.95194" lon="4.90466">
        <ele>290</ele>
        <time>2016-09-20T09:42:52Z</time>
      </trkpt>
      <trkpt lat="45.95194" lon="4.90458">
        <ele>290</ele>
        <time>2016-09-20T09:42:53Z</time>
      </trkpt>
      <trkpt lat="45.95194" lon="4.9045">
        <ele>290</ele>
        <time>2016-09-20T09:42:54Z</time>
      </trkpt>
      <trkpt lat="45.95195" lon="4.90442">
        <ele>290</ele>
        <time>2016-09-20T09:42:55Z</time>
      </trkpt>
      <trkpt lat="45.95195" lon="4.90434">
        <ele>289</ele>
        <time>2016-09-20T09:42:56Z</time>
      </trkpt>
      <trkpt lat="45.95195" lon="4.90426">
        <ele>289</ele>
        <time>2016-09-20T09:42:57Z</time>
      </trkpt>
      <trkpt lat="45.95195" lon="4.90418">
        <ele>289</ele>
        <time>2016-09-20T09:42:58Z</time>
      </trkpt>
      <trkpt lat="45.95196" lon="4.9041">
        <ele>288</ele>
        <time>2016-09-20T09:42:59Z</time>
      </trkpt>
      <trkpt lat="45.95198" lon="4.90403">
        <ele>288</ele>
        <time>2016-09-20T09:43:00Z</time>
      </trkpt>
      <trkpt lat="45.95199" lon="4.90396">
        <ele>288</ele>
        <time>2016-09-20T09:43:01Z</time>
      </trkpt>
      <trkpt lat="45.95201" lon="4.90386">
        <ele>288</ele>
        <time>2016-09-20T09:43:02Z</time>
      </trkpt>
      <trkpt lat="45.95203" lon="4.90376">
        <ele>288</ele>
        <time>2016-09-20T09:43:03Z</time>
      </trkpt>
      <trkpt lat="45.95204" lon="4.90367">
        <ele>288</ele>
        <time>2016-09-20T09:43:04Z</time>
      </trkpt>
      <trkpt lat="45.95206" lon="4.90357">
        <ele>288</ele>
        <time>2016-09-20T09:43:05Z</time>
      </trkpt>
      <trkpt lat="45.95207" lon="4.90348">
        <ele>288</ele>
        <time>2016-09-20T09:43:06Z</time>
      </trkpt>
      <trkpt lat="45.95209" lon="4.90336">
        <ele>288</ele>
        <time>2016-09-20T09:43:07Z</time>
      </trkpt>
      <trkpt lat="45.9521" lon="4.90327">
        <ele>287</ele>
        <time>2016-09-20T09:43:08Z</time>
      </trkpt>
      <trkpt lat="45.95212" lon="4.90318">
        <ele>287</ele>
        <time>2016-09-20T09:43:09Z</time>
      </trkpt>
      <trkpt lat="45.95213" lon="4.9031">
        <ele>287</ele>
        <time>2016-09-20T09:43:10Z</time>
      </trkpt>
      <trkpt lat="45.95214" lon="4.90302">
        <ele>287</ele>
        <time>2016-09-20T09:43:11Z</time>
      </trkpt>
      <trkpt lat="45.95215" lon="4.90294">
        <ele>287</ele>
        <time>2016-09-20T09:43:12Z</time>
      </trkpt>
      <trkpt lat="45.95216" lon="4.90286">
        <ele>287</ele>
        <time>2016-09-20T09:43:13Z</time>
      </trkpt>
      <trkpt lat="45.95217" lon="4.90279">
        <ele>287</ele>
        <time>2016-09-20T09:43:14Z</time>
      </trkpt>
      <trkpt lat="45.95218" lon="4.90272">
        <ele>287</ele>
        <time>2016-09-20T09:43:15Z</time>
      </trkpt>
      <trkpt lat="45.95219" lon="4.90263">
        <ele>287</ele>
        <time>2016-09-20T09:43:16Z</time>
      </trkpt>
      <trkpt lat="45.95218" lon="4.90254">
        <ele>287</ele>
        <time>2016-09-20T09:43:17Z</time>
      </trkpt>
      <trkpt lat="45.95217" lon="4.90245">
        <ele>286</ele>
        <time>2016-09-20T09:43:18Z</time>
      </trkpt>
      <trkpt lat="45.95217" lon="4.90236">
        <ele>286</ele>
        <time>2016-09-20T09:43:19Z</time>
      </trkpt>
      <trkpt lat="45.95216" lon="4.90227">
        <ele>286</ele>
        <time>2016-09-20T09:43:20Z</time>
      </trkpt>
      <trkpt lat="45.95215" lon="4.90218">
        <ele>286</ele>
        <time>2016-09-20T09:43:21Z</time>
      </trkpt>
      <trkpt lat="45.95214" lon="4.9021">
        <ele>286</ele>
        <time>2016-09-20T09:43:22Z</time>
      </trkpt>
      <trkpt lat="45.95213" lon="4.90202">
        <ele>286</ele>
        <time>2016-09-20T09:43:23Z</time>
      </trkpt>
      <trkpt lat="45.95212" lon="4.90194">
        <ele>286</ele>
        <time>2016-09-20T09:43:24Z</time>
      </trkpt>
      <trkpt lat="45.9521" lon="4.90186">
        <ele>286</ele>
        <time>2016-09-20T09:43:25Z</time>
      </trkpt>
      <trkpt lat="45.95206" lon="4.90179">
        <ele>287</ele>
        <time>2016-09-20T09:43:26Z</time>
      </trkpt>
      <trkpt lat="45.95202" lon="4.90173">
        <ele>287</ele>
        <time>2016-09-20T09:43:27Z</time>
      </trkpt>
      <trkpt lat="45.95196" lon="4.90169">
        <ele>287</ele>
        <time>2016-09-20T09:43:28Z</time>
      </trkpt>
      <trkpt lat="45.9519" lon="4.90167">
        <ele>287</ele>
        <time>2016-09-20T09:43:29Z</time>
      </trkpt>
      <trkpt lat="45.95184" lon="4.90167">
        <ele>287</ele>
        <time>2016-09-20T09:43:30Z</time>
      </trkpt>
      <trkpt lat="45.95178" lon="4.90168">
        <ele>287</ele>
        <time>2016-09-20T09:43:31Z</time>
      </trkpt>
      <trkpt lat="45.95172" lon="4.90169">
        <ele>287</ele>
        <time>2016-09-20T09:43:32Z</time>
      </trkpt>
      <trkpt lat="45.95165" lon="4.90171">
        <ele>287</ele>
        <time>2016-09-20T09:43:33Z</time>
      </trkpt>
      <trkpt lat="45.95159" lon="4.90171">
        <ele>287</ele>
        <time>2016-09-20T09:43:34Z</time>
      </trkpt>
      <trkpt lat="45.95152" lon="4.9017">
        <ele>287</ele>
        <time>2016-09-20T09:43:35Z</time>
      </trkpt>
      <trkpt lat="45.95145" lon="4.90168">
        <ele>287</ele>
        <time>2016-09-20T09:43:36Z</time>
      </trkpt>
      <trkpt lat="45.95138" lon="4.90165">
        <ele>286</ele>
        <time>2016-09-20T09:43:37Z</time>
      </trkpt>
      <trkpt lat="45.95131" lon="4.90162">
        <ele>286</ele>
        <time>2016-09-20T09:43:38Z</time>
      </trkpt>
      <trkpt lat="45.95124" lon="4.90158">
        <ele>286</ele>
        <time>2016-09-20T09:43:39Z</time>
      </trkpt>
      <trkpt lat="45.95118" lon="4.90154">
        <ele>286</ele>
        <time>2016-09-20T09:43:40Z</time>
      </trkpt>
      <trkpt lat="45.95112" lon="4.90149">
        <ele>286</ele>
        <time>2016-09-20T09:43:41Z</time>
      </trkpt>
      <trkpt lat="45.95107" lon="4.90144">
        <ele>286</ele>
        <time>2016-09-20T09:43:42Z</time>
      </trkpt>
      <trkpt lat="45.95101" lon="4.90139">
        <ele>286</ele>
        <time>2016-09-20T09:43:43Z</time>
      </trkpt>
      <trkpt lat="45.95096" lon="4.90134">
        <ele>286</ele>
        <time>2016-09-20T09:43:44Z</time>
      </trkpt>
      <trkpt lat="45.95092" lon="4.90128">
        <ele>286</ele>
        <time>2016-09-20T09:43:45Z</time>
      </trkpt>
      <trkpt lat="45.95087" lon="4.90123">
        <ele>286</ele>
        <time>2016-09-20T09:43:46Z</time>
      </trkpt>
      <trkpt lat="45.95082" lon="4.90117">
        <ele>285</ele>
        <time>2016-09-20T09:43:47Z</time>
      </trkpt>
      <trkpt lat="45.95077" lon="4.9011">
        <ele>285</ele>
        <time>2016-09-20T09:43:48Z</time>
      </trkpt>
      <trkpt lat="45.95073" lon="4.90104">
        <ele>285</ele>
        <time>2016-09-20T09:43:49Z</time>
      </trkpt>
      <trkpt lat="45.95068" lon="4.90098">
        <ele>285</ele>
        <time>2016-09-20T09:43:50Z</time>
      </trkpt>
      <trkpt lat="45.95064" lon="4.90092">
        <ele>285</ele>
        <time>2016-09-20T09:43:51Z</time>
      </trkpt>
      <trkpt lat="45.95059" lon="4.90085">
        <ele>285</ele>
        <time>2016-09-20T09:43:52Z</time>
      </trkpt>
      <trkpt lat="45.95054" lon="4.90079">
        <ele>285</ele>
        <time>2016-09-20T09:43:53Z</time>
      </trkpt>
      <trkpt lat="45.95049" lon="4.90073">
        <ele>285</ele>
        <time>2016-09-20T09:43:54Z</time>
      </trkpt>
      <trkpt lat="45.95044" lon="4.90066">
        <ele>285</ele>
        <time>2016-09-20T09:43:55Z</time>
      </trkpt>
      <trkpt lat="45.95039" lon="4.90059">
        <ele>285</ele>
        <time>2016-09-20T09:43:56Z</time>
      </trkpt>
      <trkpt lat="45.95035" lon="4.90052">
        <ele>285</ele>
        <time>2016-09-20T09:43:57Z</time>
      </trkpt>
      <trkpt lat="45.9503" lon="4.90044">
        <ele>284</ele>
        <time>2016-09-20T09:43:58Z</time>
      </trkpt>
      <trkpt lat="45.95025" lon="4.90036">
        <ele>284</ele>
        <time>2016-09-20T09:43:59Z</time>
      </trkpt>
      <trkpt lat="45.95021" lon="4.90029">
        <ele>284</ele>
        <time>2016-09-20T09:44:00Z</time>
      </trkpt>
      <trkpt lat="45.95016" lon="4.90021">
        <ele>284</ele>
        <time>2016-09-20T09:44:01Z</time>
      </trkpt>
      <trkpt lat="45.95011" lon="4.90013">
        <ele>284</ele>
        <time>2016-09-20T09:44:02Z</time>
      </trkpt>
      <trkpt lat="45.95006" lon="4.90004">
        <ele>283</ele>
        <time>2016-09-20T09:44:03Z</time>
      </trkpt>
      <trkpt lat="45.95002" lon="4.89996">
        <ele>283</ele>
        <time>2016-09-20T09:44:04Z</time>
      </trkpt>
      <trkpt lat="45.94998" lon="4.89988">
        <ele>283</ele>
        <time>2016-09-20T09:44:05Z</time>
      </trkpt>
      <trkpt lat="45.94993" lon="4.8998">
        <ele>284</ele>
        <time>2016-09-20T09:44:06Z</time>
      </trkpt>
      <trkpt lat="45.94989" lon="4.89972">
        <ele>284</ele>
        <time>2016-09-20T09:44:07Z</time>
      </trkpt>
      <trkpt lat="45.94985" lon="4.89964">
        <ele>284</ele>
        <time>2016-09-20T09:44:08Z</time>
      </trkpt>
      <trkpt lat="45.94981" lon="4.89957">
        <ele>284</ele>
        <time>2016-09-20T09:44:09Z</time>
      </trkpt>
      <trkpt lat="45.94977" lon="4.8995">
        <ele>284</ele>
        <time>2016-09-20T09:44:10Z</time>
      </trkpt>
      <trkpt lat="45.94973" lon="4.89944">
        <ele>284</ele>
        <time>2016-09-20T09:44:11Z</time>
      </trkpt>
      <trkpt lat="45.94968" lon="4.89938">
        <ele>284</ele>
        <time>2016-09-20T09:44:12Z</time>
      </trkpt>
      <trkpt lat="45.94963" lon="4.89932">
        <ele>284</ele>
        <time>2016-09-20T09:44:13Z</time>
      </trkpt>
      <trkpt lat="45.94959" lon="4.89927">
        <ele>284</ele>
        <time>2016-09-20T09:44:14Z</time>
      </trkpt>
      <trkpt lat="45.94954" lon="4.89921">
        <ele>284</ele>
        <time>2016-09-20T09:44:15Z</time>
      </trkpt>
      <trkpt lat="45.9495" lon="4.89915">
        <ele>284</ele>
        <time>2016-09-20T09:44:16Z</time>
      </trkpt>
      <trkpt lat="45.94945" lon="4.89908">
        <ele>284</ele>
        <time>2016-09-20T09:44:17Z</time>
      </trkpt>
      <trkpt lat="45.9494" lon="4.89902">
        <ele>284</ele>
        <time>2016-09-20T09:44:18Z</time>
      </trkpt>
      <trkpt lat="45.94935" lon="4.89894">
        <ele>284</ele>
        <time>2016-09-20T09:44:19Z</time>
      </trkpt>
      <trkpt lat="45.94931" lon="4.89886">
        <ele>284</ele>
        <time>2016-09-20T09:44:20Z</time>
      </trkpt>
      <trkpt lat="45.94928" lon="4.89878">
        <ele>284</ele>
        <time>2016-09-20T09:44:21Z</time>
      </trkpt>
      <trkpt lat="45.94925" lon="4.89869">
        <ele>284</ele>
        <time>2016-09-20T09:44:22Z</time>
      </trkpt>
      <trkpt lat="45.94924" lon="4.89861">
        <ele>284</ele>
        <time>2016-09-20T09:44:23Z</time>
      </trkpt>
      <trkpt lat="45.94923" lon="4.89852">
        <ele>284</ele>
        <time>2016-09-20T09:44:24Z</time>
      </trkpt>
      <trkpt lat="45.94923" lon="4.89842">
        <ele>284</ele>
        <time>2016-09-20T09:44:25Z</time>
      </trkpt>
      <trkpt lat="45.94923" lon="4.89833">
        <ele>284</ele>
        <time>2016-09-20T09:44:26Z</time>
      </trkpt>
      <trkpt lat="45.94923" lon="4.89824">
        <ele>284</ele>
        <time>2016-09-20T09:44:27Z</time>
      </trkpt>
      <trkpt lat="45.94924" lon="4.89815">
        <ele>284</ele>
        <time>2016-09-20T09:44:28Z</time>
      </trkpt>
      <trkpt lat="45.94925" lon="4.89806">
        <ele>284</ele>
        <time>2016-09-20T09:44:29Z</time>
      </trkpt>
      <trkpt lat="45.94927" lon="4.89798">
        <ele>284</ele>
        <time>2016-09-20T09:44:30Z</time>
      </trkpt>
      <trkpt lat="45.94928" lon="4.89791">
        <ele>284</ele>
        <time>2016-09-20T09:44:31Z</time>
      </trkpt>
      <trkpt lat="45.9493" lon="4.89783">
        <ele>284</ele>
        <time>2016-09-20T09:44:32Z</time>
      </trkpt>
      <trkpt lat="45.94932" lon="4.89776">
        <ele>284</ele>
        <time>2016-09-20T09:44:33Z</time>
      </trkpt>
      <trkpt lat="45.94934" lon="4.89768">
        <ele>284</ele>
        <time>2016-09-20T09:44:34Z</time>
      </trkpt>
      <trkpt lat="45.94935" lon="4.89761">
        <ele>284</ele>
        <time>2016-09-20T09:44:35Z</time>
      </trkpt>
      <trkpt lat="45.94937" lon="4.89754">
        <ele>284</ele>
        <time>2016-09-20T09:44:36Z</time>
      </trkpt>
      <trkpt lat="45.94939" lon="4.89746">
        <ele>284</ele>
        <time>2016-09-20T09:44:37Z</time>
      </trkpt>
      <trkpt lat="45.94942" lon="4.89739">
        <ele>284</ele>
        <time>2016-09-20T09:44:38Z</time>
      </trkpt>
      <trkpt lat="45.94944" lon="4.89731">
        <ele>284</ele>
        <time>2016-09-20T09:44:39Z</time>
      </trkpt>
      <trkpt lat="45.94947" lon="4.89723">
        <ele>284</ele>
        <time>2016-09-20T09:44:40Z</time>
      </trkpt>
      <trkpt lat="45.94949" lon="4.89714">
        <ele>284</ele>
        <time>2016-09-20T09:44:41Z</time>
      </trkpt>
      <trkpt lat="45.94951" lon="4.89707">
        <ele>284</ele>
        <time>2016-09-20T09:44:42Z</time>
      </trkpt>
      <trkpt lat="45.94954" lon="4.89699">
        <ele>284</ele>
        <time>2016-09-20T09:44:43Z</time>
      </trkpt>
      <trkpt lat="45.94956" lon="4.8969">
        <ele>284</ele>
        <time>2016-09-20T09:44:44Z</time>
      </trkpt>
      <trkpt lat="45.9496" lon="4.89682">
        <ele>284</ele>
        <time>2016-09-20T09:44:45Z</time>
      </trkpt>
      <trkpt lat="45.94962" lon="4.89675">
        <ele>284</ele>
        <time>2016-09-20T09:44:46Z</time>
      </trkpt>
      <trkpt lat="45.94964" lon="4.89667">
        <ele>284</ele>
        <time>2016-09-20T09:44:47Z</time>
      </trkpt>
      <trkpt lat="45.94966" lon="4.89659">
        <ele>285</ele>
        <time>2016-09-20T09:44:48Z</time>
      </trkpt>
      <trkpt lat="45.94968" lon="4.89652">
        <ele>285</ele>
        <time>2016-09-20T09:44:49Z</time>
      </trkpt>
      <trkpt lat="45.9497" lon="4.89644">
        <ele>285</ele>
        <time>2016-09-20T09:44:50Z</time>
      </trkpt>
      <trkpt lat="45.94972" lon="4.89636">
        <ele>285</ele>
        <time>2016-09-20T09:44:51Z</time>
      </trkpt>
      <trkpt lat="45.94975" lon="4.89629">
        <ele>285</ele>
        <time>2016-09-20T09:44:52Z</time>
      </trkpt>
      <trkpt lat="45.94977" lon="4.89621">
        <ele>285</ele>
        <time>2016-09-20T09:44:53Z</time>
      </trkpt>
      <trkpt lat="45.94979" lon="4.89613">
        <ele>285</ele>
        <time>2016-09-20T09:44:54Z</time>
      </trkpt>
      <trkpt lat="45.94982" lon="4.89604">
        <ele>285</ele>
        <time>2016-09-20T09:44:55Z</time>
      </trkpt>
      <trkpt lat="45.94984" lon="4.89596">
        <ele>284</ele>
        <time>2016-09-20T09:44:56Z</time>
      </trkpt>
      <trkpt lat="45.94987" lon="4.89587">
        <ele>284</ele>
        <time>2016-09-20T09:44:57Z</time>
      </trkpt>
      <trkpt lat="45.9499" lon="4.89578">
        <ele>284</ele>
        <time>2016-09-20T09:44:58Z</time>
      </trkpt>
      <trkpt lat="45.94992" lon="4.89569">
        <ele>284</ele>
        <time>2016-09-20T09:44:59Z</time>
      </trkpt>
      <trkpt lat="45.94994" lon="4.89559">
        <ele>284</ele>
        <time>2016-09-20T09:45:00Z</time>
      </trkpt>
      <trkpt lat="45.94997" lon="4.89551">
        <ele>284</ele>
        <time>2016-09-20T09:45:01Z</time>
      </trkpt>
      <trkpt lat="45.95" lon="4.89544">
        <ele>283</ele>
        <time>2016-09-20T09:45:02Z</time>
      </trkpt>
      <trkpt lat="45.95004" lon="4.89536">
        <ele>283</ele>
        <time>2016-09-20T09:45:03Z</time>
      </trkpt>
      <trkpt lat="45.95009" lon="4.89529">
        <ele>283</ele>
        <time>2016-09-20T09:45:04Z</time>
      </trkpt>
      <trkpt lat="45.95014" lon="4.89524">
        <ele>283</ele>
        <time>2016-09-20T09:45:05Z</time>
      </trkpt>
      <trkpt lat="45.95019" lon="4.8952">
        <ele>283</ele>
        <time>2016-09-20T09:45:06Z</time>
      </trkpt>
      <trkpt lat="45.95025" lon="4.89518">
        <ele>283</ele>
        <time>2016-09-20T09:45:07Z</time>
      </trkpt>
      <trkpt lat="45.9503" lon="4.89516">
        <ele>283</ele>
        <time>2016-09-20T09:45:08Z</time>
      </trkpt>
      <trkpt lat="45.95036" lon="4.89515">
        <ele>283</ele>
        <time>2016-09-20T09:45:09Z</time>
      </trkpt>
      <trkpt lat="45.95041" lon="4.89514">
        <ele>283</ele>
        <time>2016-09-20T09:45:10Z</time>
      </trkpt>
      <trkpt lat="45.95047" lon="4.89513">
        <ele>283</ele>
        <time>2016-09-20T09:45:11Z</time>
      </trkpt>
      <trkpt lat="45.95052" lon="4.89512">
        <ele>283</ele>
        <time>2016-09-20T09:45:12Z</time>
      </trkpt>
      <trkpt lat="45.95057" lon="4.89511">
        <ele>283</ele>
        <time>2016-09-20T09:45:13Z</time>
      </trkpt>
      <trkpt lat="45.95062" lon="4.8951">
        <ele>282</ele>
        <time>2016-09-20T09:45:14Z</time>
      </trkpt>
      <trkpt lat="45.95067" lon="4.89509">
        <ele>282</ele>
        <time>2016-09-20T09:45:15Z</time>
      </trkpt>
      <trkpt lat="45.95072" lon="4.89507">
        <ele>282</ele>
        <time>2016-09-20T09:45:16Z</time>
      </trkpt>
      <trkpt lat="45.95077" lon="4.89505">
        <ele>282</ele>
        <time>2016-09-20T09:45:17Z</time>
      </trkpt>
      <trkpt lat="45.95081" lon="4.895">
        <ele>282</ele>
        <time>2016-09-20T09:45:18Z</time>
      </trkpt>
      <trkpt lat="45.95084" lon="4.89494">
        <ele>282</ele>
        <time>2016-09-20T09:45:19Z</time>
      </trkpt>
      <trkpt lat="45.95085" lon="4.89486">
        <ele>282</ele>
        <time>2016-09-20T09:45:20Z</time>
      </trkpt>
      <trkpt lat="45.95086" lon="4.89477">
        <ele>282</ele>
        <time>2016-09-20T09:45:21Z</time>
      </trkpt>
      <trkpt lat="45.95084" lon="4.89468">
        <ele>282</ele>
        <time>2016-09-20T09:45:22Z</time>
      </trkpt>
      <trkpt lat="45.95083" lon="4.8946">
        <ele>282</ele>
        <time>2016-09-20T09:45:23Z</time>
      </trkpt>
      <trkpt lat="45.95081" lon="4.89452">
        <ele>282</ele>
        <time>2016-09-20T09:45:24Z</time>
      </trkpt>
      <trkpt lat="45.95079" lon="4.89444">
        <ele>282</ele>
        <time>2016-09-20T09:45:25Z</time>
      </trkpt>
      <trkpt lat="45.95077" lon="4.89436">
        <ele>282</ele>
        <time>2016-09-20T09:45:26Z</time>
      </trkpt>
      <trkpt lat="45.95075" lon="4.89428">
        <ele>282</ele>
        <time>2016-09-20T09:45:27Z</time>
      </trkpt>
      <trkpt lat="45.95074" lon="4.8942">
        <ele>282</ele>
        <time>2016-09-20T09:45:28Z</time>
      </trkpt>
      <trkpt lat="45.95073" lon="4.89411">
        <ele>282</ele>
        <time>2016-09-20T09:45:29Z</time>
      </trkpt>
      <trkpt lat="45.95072" lon="4.89403">
        <ele>283</ele>
        <time>2016-09-20T09:45:30Z</time>
      </trkpt>
      <trkpt lat="45.95071" lon="4.89394">
        <ele>283</ele>
        <time>2016-09-20T09:45:31Z</time>
      </trkpt>
      <trkpt lat="45.95071" lon="4.89387">
        <ele>283</ele>
        <time>2016-09-20T09:45:32Z</time>
      </trkpt>
      <trkpt lat="45.9507" lon="4.89378">
        <ele>283</ele>
        <time>2016-09-20T09:45:33Z</time>
      </trkpt>
      <trkpt lat="45.9507" lon="4.89369">
        <ele>283</ele>
        <time>2016-09-20T09:45:34Z</time>
      </trkpt>
      <trkpt lat="45.9507" lon="4.89361">
        <ele>283</ele>
        <time>2016-09-20T09:45:35Z</time>
      </trkpt>
      <trkpt lat="45.95071" lon="4.89352">
        <ele>283</ele>
        <time>2016-09-20T09:45:36Z</time>
      </trkpt>
      <trkpt lat="45.95071" lon="4.89344">
        <ele>283</ele>
        <time>2016-09-20T09:45:37Z</time>
      </trkpt>
      <trkpt lat="45.95071" lon="4.89336">
        <ele>283</ele>
        <time>2016-09-20T09:45:38Z</time>
      </trkpt>
      <trkpt lat="45.95071" lon="4.89327">
        <ele>283</ele>
        <time>2016-09-20T09:45:39Z</time>
      </trkpt>
      <trkpt lat="45.95071" lon="4.89319">
        <ele>283</ele>
        <time>2016-09-20T09:45:40Z</time>
      </trkpt>
      <trkpt lat="45.95071" lon="4.89312">
        <ele>283</ele>
        <time>2016-09-20T09:45:41Z</time>
      </trkpt>
      <trkpt lat="45.95071" lon="4.89304">
        <ele>283</ele>
        <time>2016-09-20T09:45:42Z</time>
      </trkpt>
      <trkpt lat="45.95071" lon="4.89296">
        <ele>283</ele>
        <time>2016-09-20T09:45:43Z</time>
      </trkpt>
      <trkpt lat="45.95072" lon="4.89288">
        <ele>283</ele>
        <time>2016-09-20T09:45:44Z</time>
      </trkpt>
      <trkpt lat="45.95072" lon="4.89281">
        <ele>283</ele>
        <time>2016-09-20T09:45:45Z</time>
      </trkpt>
      <trkpt lat="45.95073" lon="4.89272">
        <ele>283</ele>
        <time>2016-09-20T09:45:46Z</time>
      </trkpt>
      <trkpt lat="45.95073" lon="4.89264">
        <ele>283</ele>
        <time>2016-09-20T09:45:47Z</time>
      </trkpt>
      <trkpt lat="45.95073" lon="4.89255">
        <ele>283</ele>
        <time>2016-09-20T09:45:48Z</time>
      </trkpt>
      <trkpt lat="45.95074" lon="4.89246">
        <ele>283</ele>
        <time>2016-09-20T09:45:49Z</time>
      </trkpt>
      <trkpt lat="45.95074" lon="4.89237">
        <ele>284</ele>
        <time>2016-09-20T09:45:50Z</time>
      </trkpt>
      <trkpt lat="45.95075" lon="4.89229">
        <ele>284</ele>
        <time>2016-09-20T09:45:51Z</time>
      </trkpt>
      <trkpt lat="45.95076" lon="4.8922">
        <ele>284</ele>
        <time>2016-09-20T09:45:52Z</time>
      </trkpt>
      <trkpt lat="45.95077" lon="4.89211">
        <ele>284</ele>
        <time>2016-09-20T09:45:53Z</time>
      </trkpt>
      <trkpt lat="45.95077" lon="4.89202">
        <ele>284</ele>
        <time>2016-09-20T09:45:54Z</time>
      </trkpt>
      <trkpt lat="45.95077" lon="4.89194">
        <ele>284</ele>
        <time>2016-09-20T09:45:55Z</time>
      </trkpt>
      <trkpt lat="45.95077" lon="4.89187">
        <ele>284</ele>
        <time>2016-09-20T09:45:56Z</time>
      </trkpt>
      <trkpt lat="45.95078" lon="4.8918">
        <ele>284</ele>
        <time>2016-09-20T09:45:57Z</time>
      </trkpt>
      <trkpt lat="45.95078" lon="4.89172">
        <ele>284</ele>
        <time>2016-09-20T09:45:58Z</time>
      </trkpt>
      <trkpt lat="45.95079" lon="4.89162">
        <ele>284</ele>
        <time>2016-09-20T09:45:59Z</time>
      </trkpt>
      <trkpt lat="45.9508" lon="4.89154">
        <ele>284</ele>
        <time>2016-09-20T09:46:00Z</time>
      </trkpt>
      <trkpt lat="45.95081" lon="4.89147">
        <ele>284</ele>
        <time>2016-09-20T09:46:01Z</time>
      </trkpt>
      <trkpt lat="45.95081" lon="4.8914">
        <ele>285</ele>
        <time>2016-09-20T09:46:02Z</time>
      </trkpt>
      <trkpt lat="45.95082" lon="4.89133">
        <ele>285</ele>
        <time>2016-09-20T09:46:03Z</time>
      </trkpt>
      <trkpt lat="45.95084" lon="4.89125">
        <ele>283</ele>
        <time>2016-09-20T09:46:04Z</time>
      </trkpt>
      <trkpt lat="45.95085" lon="4.89117">
        <ele>283</ele>
        <time>2016-09-20T09:46:05Z</time>
      </trkpt>
      <trkpt lat="45.95085" lon="4.89108">
        <ele>283</ele>
        <time>2016-09-20T09:46:06Z</time>
      </trkpt>
      <trkpt lat="45.95086" lon="4.891">
        <ele>283</ele>
        <time>2016-09-20T09:46:07Z</time>
      </trkpt>
      <trkpt lat="45.95086" lon="4.89092">
        <ele>284</ele>
        <time>2016-09-20T09:46:08Z</time>
      </trkpt>
      <trkpt lat="45.95087" lon="4.89083">
        <ele>284</ele>
        <time>2016-09-20T09:46:09Z</time>
      </trkpt>
      <trkpt lat="45.95088" lon="4.89075">
        <ele>284</ele>
        <time>2016-09-20T09:46:10Z</time>
      </trkpt>
      <trkpt lat="45.95089" lon="4.89066">
        <ele>284</ele>
        <time>2016-09-20T09:46:11Z</time>
      </trkpt>
      <trkpt lat="45.95089" lon="4.89058">
        <ele>284</ele>
        <time>2016-09-20T09:46:12Z</time>
      </trkpt>
      <trkpt lat="45.9509" lon="4.89049">
        <ele>284</ele>
        <time>2016-09-20T09:46:13Z</time>
      </trkpt>
      <trkpt lat="45.9509" lon="4.89041">
        <ele>284</ele>
        <time>2016-09-20T09:46:14Z</time>
      </trkpt>
      <trkpt lat="45.95091" lon="4.89034">
        <ele>284</ele>
        <time>2016-09-20T09:46:15Z</time>
      </trkpt>
      <trkpt lat="45.95091" lon="4.89026">
        <ele>284</ele>
        <time>2016-09-20T09:46:16Z</time>
      </trkpt>
      <trkpt lat="45.95092" lon="4.89019">
        <ele>284</ele>
        <time>2016-09-20T09:46:17Z</time>
      </trkpt>
      <trkpt lat="45.95093" lon="4.89012">
        <ele>284</ele>
        <time>2016-09-20T09:46:18Z</time>
      </trkpt>
      <trkpt lat="45.95094" lon="4.89004">
        <ele>284</ele>
        <time>2016-09-20T09:46:19Z</time>
      </trkpt>
      <trkpt lat="45.95094" lon="4.88996">
        <ele>285</ele>
        <time>2016-09-20T09:46:20Z</time>
      </trkpt>
      <trkpt lat="45.95095" lon="4.88988">
        <ele>285</ele>
        <time>2016-09-20T09:46:21Z</time>
      </trkpt>
      <trkpt lat="45.95096" lon="4.88979">
        <ele>284</ele>
        <time>2016-09-20T09:46:22Z</time>
      </trkpt>
      <trkpt lat="45.95097" lon="4.8897">
        <ele>284</ele>
        <time>2016-09-20T09:46:23Z</time>
      </trkpt>
      <trkpt lat="45.95097" lon="4.88962">
        <ele>284</ele>
        <time>2016-09-20T09:46:24Z</time>
      </trkpt>
      <trkpt lat="45.95098" lon="4.88953">
        <ele>284</ele>
        <time>2016-09-20T09:46:25Z</time>
      </trkpt>
      <trkpt lat="45.95098" lon="4.88945">
        <ele>285</ele>
        <time>2016-09-20T09:46:26Z</time>
      </trkpt>
      <trkpt lat="45.95098" lon="4.88937">
        <ele>285</ele>
        <time>2016-09-20T09:46:27Z</time>
      </trkpt>
      <trkpt lat="45.95099" lon="4.88928">
        <ele>285</ele>
        <time>2016-09-20T09:46:28Z</time>
      </trkpt>
      <trkpt lat="45.95099" lon="4.8892">
        <ele>285</ele>
        <time>2016-09-20T09:46:29Z</time>
      </trkpt>
      <trkpt lat="45.951" lon="4.88912">
        <ele>285</ele>
        <time>2016-09-20T09:46:30Z</time>
      </trkpt>
      <trkpt lat="45.95101" lon="4.88905">
        <ele>285</ele>
        <time>2016-09-20T09:46:31Z</time>
      </trkpt>
      <trkpt lat="45.95102" lon="4.88897">
        <ele>285</ele>
        <time>2016-09-20T09:46:32Z</time>
      </trkpt>
      <trkpt lat="45.95103" lon="4.8889">
        <ele>285</ele>
        <time>2016-09-20T09:46:33Z</time>
      </trkpt>
      <trkpt lat="45.95103" lon="4.88883">
        <ele>285</ele>
        <time>2016-09-20T09:46:34Z</time>
      </trkpt>
      <trkpt lat="45.95104" lon="4.88875">
        <ele>285</ele>
        <time>2016-09-20T09:46:35Z</time>
      </trkpt>
      <trkpt lat="45.95104" lon="4.88867">
        <ele>285</ele>
        <time>2016-09-20T09:46:36Z</time>
      </trkpt>
      <trkpt lat="45.95105" lon="4.88858">
        <ele>285</ele>
        <time>2016-09-20T09:46:37Z</time>
      </trkpt>
      <trkpt lat="45.95105" lon="4.88851">
        <ele>285</ele>
        <time>2016-09-20T09:46:38Z</time>
      </trkpt>
      <trkpt lat="45.95106" lon="4.88843">
        <ele>285</ele>
        <time>2016-09-20T09:46:39Z</time>
      </trkpt>
      <trkpt lat="45.95106" lon="4.88835">
        <ele>285</ele>
        <time>2016-09-20T09:46:40Z</time>
      </trkpt>
      <trkpt lat="45.95107" lon="4.88827">
        <ele>286</ele>
        <time>2016-09-20T09:46:41Z</time>
      </trkpt>
      <trkpt lat="45.95107" lon="4.8882">
        <ele>286</ele>
        <time>2016-09-20T09:46:42Z</time>
      </trkpt>
      <trkpt lat="45.95108" lon="4.88812">
        <ele>286</ele>
        <time>2016-09-20T09:46:43Z</time>
      </trkpt>
      <trkpt lat="45.95108" lon="4.88806">
        <ele>286</ele>
        <time>2016-09-20T09:46:44Z</time>
      </trkpt>
      <trkpt lat="45.95108" lon="4.88799">
        <ele>286</ele>
        <time>2016-09-20T09:46:45Z</time>
      </trkpt>
      <trkpt lat="45.95108" lon="4.88792">
        <ele>286</ele>
        <time>2016-09-20T09:46:46Z</time>
      </trkpt>
      <trkpt lat="45.95108" lon="4.88785">
        <ele>287</ele>
        <time>2016-09-20T09:46:47Z</time>
      </trkpt>
      <trkpt lat="45.95109" lon="4.88778">
        <ele>287</ele>
        <time>2016-09-20T09:46:48Z</time>
      </trkpt>
      <trkpt lat="45.95109" lon="4.88765">
        <ele>287</ele>
        <time>2016-09-20T09:46:50Z</time>
      </trkpt>
      <trkpt lat="45.95109" lon="4.88759">
        <ele>287</ele>
        <time>2016-09-20T09:46:51Z</time>
      </trkpt>
      <trkpt lat="45.95108" lon="4.88753">
        <ele>287</ele>
        <time>2016-09-20T09:46:52Z</time>
      </trkpt>
      <trkpt lat="45.95107" lon="4.88746">
        <ele>288</ele>
        <time>2016-09-20T09:46:53Z</time>
      </trkpt>
      <trkpt lat="45.95107" lon="4.8874">
        <ele>288</ele>
        <time>2016-09-20T09:46:54Z</time>
      </trkpt>
      <trkpt lat="45.95107" lon="4.88733">
        <ele>288</ele>
        <time>2016-09-20T09:46:55Z</time>
      </trkpt>
      <trkpt lat="45.95107" lon="4.88726">
        <ele>288</ele>
        <time>2016-09-20T09:46:56Z</time>
      </trkpt>
      <trkpt lat="45.95108" lon="4.88719">
        <ele>289</ele>
        <time>2016-09-20T09:46:57Z</time>
      </trkpt>
      <trkpt lat="45.95108" lon="4.88712">
        <ele>289</ele>
        <time>2016-09-20T09:46:58Z</time>
      </trkpt>
      <trkpt lat="45.95108" lon="4.88704">
        <ele>289</ele>
        <time>2016-09-20T09:46:59Z</time>
      </trkpt>
      <trkpt lat="45.95107" lon="4.88699">
        <ele>289</ele>
        <time>2016-09-20T09:47:00Z</time>
      </trkpt>
      <trkpt lat="45.95107" lon="4.88691">
        <ele>289</ele>
        <time>2016-09-20T09:47:01Z</time>
      </trkpt>
      <trkpt lat="45.95108" lon="4.88679">
        <ele>289</ele>
        <time>2016-09-20T09:47:03Z</time>
      </trkpt>
      <trkpt lat="45.95108" lon="4.88673">
        <ele>289</ele>
        <time>2016-09-20T09:47:04Z</time>
      </trkpt>
      <trkpt lat="45.95109" lon="4.88661">
        <ele>290</ele>
        <time>2016-09-20T09:47:06Z</time>
      </trkpt>
      <trkpt lat="45.95109" lon="4.88655">
        <ele>290</ele>
        <time>2016-09-20T09:47:07Z</time>
      </trkpt>
      <trkpt lat="45.95109" lon="4.88642">
        <ele>290</ele>
        <time>2016-09-20T09:47:09Z</time>
      </trkpt>
      <trkpt lat="45.95109" lon="4.88637">
        <ele>290</ele>
        <time>2016-09-20T09:47:10Z</time>
      </trkpt>
      <trkpt lat="45.9511" lon="4.88625">
        <ele>290</ele>
        <time>2016-09-20T09:47:12Z</time>
      </trkpt>
      <trkpt lat="45.95111" lon="4.8862">
        <ele>290</ele>
        <time>2016-09-20T09:47:13Z</time>
      </trkpt>
      <trkpt lat="45.95113" lon="4.88608">
        <ele>290</ele>
        <time>2016-09-20T09:47:15Z</time>
      </trkpt>
      <trkpt lat="45.95114" lon="4.88601">
        <ele>290</ele>
        <time>2016-09-20T09:47:16Z</time>
      </trkpt>
      <trkpt lat="45.95115" lon="4.88594">
        <ele>290</ele>
        <time>2016-09-20T09:47:17Z</time>
      </trkpt>
      <trkpt lat="45.95115" lon="4.88588">
        <ele>290</ele>
        <time>2016-09-20T09:47:18Z</time>
      </trkpt>
      <trkpt lat="45.95117" lon="4.88576">
        <ele>291</ele>
        <time>2016-09-20T09:47:20Z</time>
      </trkpt>
      <trkpt lat="45.95118" lon="4.88569">
        <ele>291</ele>
        <time>2016-09-20T09:47:21Z</time>
      </trkpt>
      <trkpt lat="45.95117" lon="4.88557">
        <ele>291</ele>
        <time>2016-09-20T09:47:23Z</time>
      </trkpt>
      <trkpt lat="45.95116" lon="4.88552">
        <ele>291</ele>
        <time>2016-09-20T09:47:24Z</time>
      </trkpt>
      <trkpt lat="45.95114" lon="4.88545">
        <ele>291</ele>
        <time>2016-09-20T09:47:25Z</time>
      </trkpt>
      <trkpt lat="45.95112" lon="4.88539">
        <ele>291</ele>
        <time>2016-09-20T09:47:26Z</time>
      </trkpt>
      <trkpt lat="45.95111" lon="4.88532">
        <ele>291</ele>
        <time>2016-09-20T09:47:27Z</time>
      </trkpt>
      <trkpt lat="45.95109" lon="4.88526">
        <ele>291</ele>
        <time>2016-09-20T09:47:28Z</time>
      </trkpt>
      <trkpt lat="45.95107" lon="4.8852">
        <ele>291</ele>
        <time>2016-09-20T09:47:29Z</time>
      </trkpt>
      <trkpt lat="45.95106" lon="4.88514">
        <ele>291</ele>
        <time>2016-09-20T09:47:30Z</time>
      </trkpt>
      <trkpt lat="45.95104" lon="4.88506">
        <ele>290</ele>
        <time>2016-09-20T09:47:31Z</time>
      </trkpt>
      <trkpt lat="45.95103" lon="4.88499">
        <ele>291</ele>
        <time>2016-09-20T09:47:32Z</time>
      </trkpt>
      <trkpt lat="45.95101" lon="4.88487">
        <ele>291</ele>
        <time>2016-09-20T09:47:34Z</time>
      </trkpt>
      <trkpt lat="45.951" lon="4.88482">
        <ele>291</ele>
        <time>2016-09-20T09:47:35Z</time>
      </trkpt>
      <trkpt lat="45.95098" lon="4.88469">
        <ele>291</ele>
        <time>2016-09-20T09:47:37Z</time>
      </trkpt>
      <trkpt lat="45.95099" lon="4.88462">
        <ele>291</ele>
        <time>2016-09-20T09:47:38Z</time>
      </trkpt>
      <trkpt lat="45.951" lon="4.88455">
        <ele>291</ele>
        <time>2016-09-20T09:47:39Z</time>
      </trkpt>
      <trkpt lat="45.95101" lon="4.88447">
        <ele>291</ele>
        <time>2016-09-20T09:47:40Z</time>
      </trkpt>
      <trkpt lat="45.95101" lon="4.88439">
        <ele>291</ele>
        <time>2016-09-20T09:47:41Z</time>
      </trkpt>
      <trkpt lat="45.95102" lon="4.88432">
        <ele>291</ele>
        <time>2016-09-20T09:47:42Z</time>
      </trkpt>
      <trkpt lat="45.95103" lon="4.88425">
        <ele>291</ele>
        <time>2016-09-20T09:47:43Z</time>
      </trkpt>
      <trkpt lat="45.95104" lon="4.88419">
        <ele>291</ele>
        <time>2016-09-20T09:47:44Z</time>
      </trkpt>
      <trkpt lat="45.95106" lon="4.88408">
        <ele>291</ele>
        <time>2016-09-20T09:47:46Z</time>
      </trkpt>
      <trkpt lat="45.95106" lon="4.88401">
        <ele>291</ele>
        <time>2016-09-20T09:47:47Z</time>
      </trkpt>
      <trkpt lat="45.95107" lon="4.88389">
        <ele>291</ele>
        <time>2016-09-20T09:47:49Z</time>
      </trkpt>
      <trkpt lat="45.95109" lon="4.88382">
        <ele>290</ele>
        <time>2016-09-20T09:47:50Z</time>
      </trkpt>
      <trkpt lat="45.9511" lon="4.88375">
        <ele>290</ele>
        <time>2016-09-20T09:47:51Z</time>
      </trkpt>
      <trkpt lat="45.95112" lon="4.88368">
        <ele>290</ele>
        <time>2016-09-20T09:47:52Z</time>
      </trkpt>
      <trkpt lat="45.95113" lon="4.88361">
        <ele>290</ele>
        <time>2016-09-20T09:47:53Z</time>
      </trkpt>
      <trkpt lat="45.95114" lon="4.88355">
        <ele>290</ele>
        <time>2016-09-20T09:47:54Z</time>
      </trkpt>
      <trkpt lat="45.95115" lon="4.88348">
        <ele>290</ele>
        <time>2016-09-20T09:47:55Z</time>
      </trkpt>
      <trkpt lat="45.95116" lon="4.88342">
        <ele>290</ele>
        <time>2016-09-20T09:47:56Z</time>
      </trkpt>
      <trkpt lat="45.95117" lon="4.88335">
        <ele>290</ele>
        <time>2016-09-20T09:47:57Z</time>
      </trkpt>
      <trkpt lat="45.95118" lon="4.88328">
        <ele>289</ele>
        <time>2016-09-20T09:47:58Z</time>
      </trkpt>
      <trkpt lat="45.95124" lon="4.88321">
        <ele>289</ele>
        <time>2016-09-20T09:48:01Z</time>
      </trkpt>
      <trkpt lat="45.95126" lon="4.88312">
        <ele>289</ele>
        <time>2016-09-20T09:48:02Z</time>
      </trkpt>
      <trkpt lat="45.95127" lon="4.88301">
        <ele>289</ele>
        <time>2016-09-20T09:48:03Z</time>
      </trkpt>
      <trkpt lat="45.95127" lon="4.88292">
        <ele>289</ele>
        <time>2016-09-20T09:48:04Z</time>
      </trkpt>
      <trkpt lat="45.95128" lon="4.88279">
        <ele>289</ele>
        <time>2016-09-20T09:48:05Z</time>
      </trkpt>
      <trkpt lat="45.95128" lon="4.8827">
        <ele>289</ele>
        <time>2016-09-20T09:48:06Z</time>
      </trkpt>
      <trkpt lat="45.95128" lon="4.88262">
        <ele>289</ele>
        <time>2016-09-20T09:48:07Z</time>
      </trkpt>
      <trkpt lat="45.95128" lon="4.8825">
        <ele>287</ele>
        <time>2016-09-20T09:48:09Z</time>
      </trkpt>
      <trkpt lat="45.95128" lon="4.88243">
        <ele>287</ele>
        <time>2016-09-20T09:48:10Z</time>
      </trkpt>
      <trkpt lat="45.95128" lon="4.88236">
        <ele>287</ele>
        <time>2016-09-20T09:48:11Z</time>
      </trkpt>
      <trkpt lat="45.95128" lon="4.8823">
        <ele>287</ele>
        <time>2016-09-20T09:48:12Z</time>
      </trkpt>
      <trkpt lat="45.95129" lon="4.88223">
        <ele>287</ele>
        <time>2016-09-20T09:48:13Z</time>
      </trkpt>
      <trkpt lat="45.9513" lon="4.88216">
        <ele>287</ele>
        <time>2016-09-20T09:48:14Z</time>
      </trkpt>
      <trkpt lat="45.95134" lon="4.88206">
        <ele>287</ele>
        <time>2016-09-20T09:48:15Z</time>
      </trkpt>
      <trkpt lat="45.95137" lon="4.88198">
        <ele>287</ele>
        <time>2016-09-20T09:48:16Z</time>
      </trkpt>
      <trkpt lat="45.95141" lon="4.88192">
        <ele>286</ele>
        <time>2016-09-20T09:48:17Z</time>
      </trkpt>
      <trkpt lat="45.95145" lon="4.88186">
        <ele>286</ele>
        <time>2016-09-20T09:48:18Z</time>
      </trkpt>
      <trkpt lat="45.95149" lon="4.88182">
        <ele>286</ele>
        <time>2016-09-20T09:48:19Z</time>
      </trkpt>
      <trkpt lat="45.95155" lon="4.88179">
        <ele>286</ele>
        <time>2016-09-20T09:48:20Z</time>
      </trkpt>
      <trkpt lat="45.9516" lon="4.88178">
        <ele>286</ele>
        <time>2016-09-20T09:48:21Z</time>
      </trkpt>
      <trkpt lat="45.95165" lon="4.88176">
        <ele>286</ele>
        <time>2016-09-20T09:48:22Z</time>
      </trkpt>
      <trkpt lat="45.95169" lon="4.88172">
        <ele>285</ele>
        <time>2016-09-20T09:48:23Z</time>
      </trkpt>
      <trkpt lat="45.95171" lon="4.88166">
        <ele>284</ele>
        <time>2016-09-20T09:48:24Z</time>
      </trkpt>
      <trkpt lat="45.95173" lon="4.88159">
        <ele>284</ele>
        <time>2016-09-20T09:48:25Z</time>
      </trkpt>
      <trkpt lat="45.95174" lon="4.88151">
        <ele>283</ele>
        <time>2016-09-20T09:48:26Z</time>
      </trkpt>
      <trkpt lat="45.95175" lon="4.88143">
        <ele>283</ele>
        <time>2016-09-20T09:48:27Z</time>
      </trkpt>
      <trkpt lat="45.95176" lon="4.88136">
        <ele>283</ele>
        <time>2016-09-20T09:48:28Z</time>
      </trkpt>
      <trkpt lat="45.95177" lon="4.88129">
        <ele>282</ele>
        <time>2016-09-20T09:48:29Z</time>
      </trkpt>
      <trkpt lat="45.95179" lon="4.88123">
        <ele>282</ele>
        <time>2016-09-20T09:48:30Z</time>
      </trkpt>
      <trkpt lat="45.9518" lon="4.88116">
        <ele>282</ele>
        <time>2016-09-20T09:48:31Z</time>
      </trkpt>
      <trkpt lat="45.95182" lon="4.8811">
        <ele>282</ele>
        <time>2016-09-20T09:48:32Z</time>
      </trkpt>
      <trkpt lat="45.95183" lon="4.88102">
        <ele>282</ele>
        <time>2016-09-20T09:48:33Z</time>
      </trkpt>
      <trkpt lat="45.95185" lon="4.88095">
        <ele>282</ele>
        <time>2016-09-20T09:48:34Z</time>
      </trkpt>
      <trkpt lat="45.95187" lon="4.88086">
        <ele>282</ele>
        <time>2016-09-20T09:48:35Z</time>
      </trkpt>
      <trkpt lat="45.95189" lon="4.88078">
        <ele>281</ele>
        <time>2016-09-20T09:48:36Z</time>
      </trkpt>
      <trkpt lat="45.95192" lon="4.88069">
        <ele>281</ele>
        <time>2016-09-20T09:48:37Z</time>
      </trkpt>
      <trkpt lat="45.95194" lon="4.8806">
        <ele>281</ele>
        <time>2016-09-20T09:48:38Z</time>
      </trkpt>
      <trkpt lat="45.95198" lon="4.88052">
        <ele>281</ele>
        <time>2016-09-20T09:48:39Z</time>
      </trkpt>
      <trkpt lat="45.95201" lon="4.88044">
        <ele>281</ele>
        <time>2016-09-20T09:48:40Z</time>
      </trkpt>
      <trkpt lat="45.95205" lon="4.88036">
        <ele>281</ele>
        <time>2016-09-20T09:48:41Z</time>
      </trkpt>
      <trkpt lat="45.95209" lon="4.88029">
        <ele>281</ele>
        <time>2016-09-20T09:48:42Z</time>
      </trkpt>
      <trkpt lat="45.95214" lon="4.88023">
        <ele>281</ele>
        <time>2016-09-20T09:48:43Z</time>
      </trkpt>
      <trkpt lat="45.95218" lon="4.88016">
        <ele>281</ele>
        <time>2016-09-20T09:48:44Z</time>
      </trkpt>
      <trkpt lat="45.95222" lon="4.88011">
        <ele>281</ele>
        <time>2016-09-20T09:48:45Z</time>
      </trkpt>
      <trkpt lat="45.95226" lon="4.88006">
        <ele>281</ele>
        <time>2016-09-20T09:48:46Z</time>
      </trkpt>
      <trkpt lat="45.9523" lon="4.88002">
        <ele>280</ele>
        <time>2016-09-20T09:48:47Z</time>
      </trkpt>
      <trkpt lat="45.95234" lon="4.87996">
        <ele>281</ele>
        <time>2016-09-20T09:48:48Z</time>
      </trkpt>
      <trkpt lat="45.95238" lon="4.8799">
        <ele>281</ele>
        <time>2016-09-20T09:48:49Z</time>
      </trkpt>
      <trkpt lat="45.95242" lon="4.87985">
        <ele>281</ele>
        <time>2016-09-20T09:48:50Z</time>
      </trkpt>
      <trkpt lat="45.95247" lon="4.8798">
        <ele>281</ele>
        <time>2016-09-20T09:48:51Z</time>
      </trkpt>
      <trkpt lat="45.9525" lon="4.87974">
        <ele>280</ele>
        <time>2016-09-20T09:48:52Z</time>
      </trkpt>
      <trkpt lat="45.95254" lon="4.87967">
        <ele>280</ele>
        <time>2016-09-20T09:48:53Z</time>
      </trkpt>
      <trkpt lat="45.95257" lon="4.8796">
        <ele>280</ele>
        <time>2016-09-20T09:48:54Z</time>
      </trkpt>
      <trkpt lat="45.95261" lon="4.87953">
        <ele>280</ele>
        <time>2016-09-20T09:48:55Z</time>
      </trkpt>
      <trkpt lat="45.95263" lon="4.87945">
        <ele>280</ele>
        <time>2016-09-20T09:48:56Z</time>
      </trkpt>
      <trkpt lat="45.95265" lon="4.87936">
        <ele>280</ele>
        <time>2016-09-20T09:48:57Z</time>
      </trkpt>
      <trkpt lat="45.95266" lon="4.87927">
        <ele>281</ele>
        <time>2016-09-20T09:48:58Z</time>
      </trkpt>
      <trkpt lat="45.95266" lon="4.87917">
        <ele>281</ele>
        <time>2016-09-20T09:48:59Z</time>
      </trkpt>
      <trkpt lat="45.95266" lon="4.87908">
        <ele>281</ele>
        <time>2016-09-20T09:49:00Z</time>
      </trkpt>
      <trkpt lat="45.95265" lon="4.879">
        <ele>281</ele>
        <time>2016-09-20T09:49:01Z</time>
      </trkpt>
      <trkpt lat="45.95263" lon="4.87892">
        <ele>281</ele>
        <time>2016-09-20T09:49:02Z</time>
      </trkpt>
      <trkpt lat="45.95261" lon="4.87884">
        <ele>281</ele>
        <time>2016-09-20T09:49:03Z</time>
      </trkpt>
      <trkpt lat="45.95259" lon="4.87875">
        <ele>281</ele>
        <time>2016-09-20T09:49:04Z</time>
      </trkpt>
      <trkpt lat="45.95257" lon="4.87867">
        <ele>281</ele>
        <time>2016-09-20T09:49:05Z</time>
      </trkpt>
      <trkpt lat="45.95253" lon="4.87859">
        <ele>281</ele>
        <time>2016-09-20T09:49:06Z</time>
      </trkpt>
      <trkpt lat="45.9525" lon="4.87851">
        <ele>283</ele>
        <time>2016-09-20T09:49:07Z</time>
      </trkpt>
      <trkpt lat="45.95247" lon="4.87842">
        <ele>283</ele>
        <time>2016-09-20T09:49:08Z</time>
      </trkpt>
      <trkpt lat="45.95243" lon="4.87833">
        <ele>282</ele>
        <time>2016-09-20T09:49:09Z</time>
      </trkpt>
      <trkpt lat="45.95241" lon="4.87824">
        <ele>282</ele>
        <time>2016-09-20T09:49:10Z</time>
      </trkpt>
      <trkpt lat="45.95239" lon="4.87815">
        <ele>282</ele>
        <time>2016-09-20T09:49:11Z</time>
      </trkpt>
      <trkpt lat="45.9524" lon="4.87806">
        <ele>282</ele>
        <time>2016-09-20T09:49:12Z</time>
      </trkpt>
      <trkpt lat="45.95238" lon="4.87796">
        <ele>282</ele>
        <time>2016-09-20T09:49:13Z</time>
      </trkpt>
      <trkpt lat="45.95236" lon="4.87787">
        <ele>282</ele>
        <time>2016-09-20T09:49:14Z</time>
      </trkpt>
      <trkpt lat="45.95235" lon="4.87777">
        <ele>282</ele>
        <time>2016-09-20T09:49:15Z</time>
      </trkpt>
      <trkpt lat="45.95233" lon="4.87767">
        <ele>282</ele>
        <time>2016-09-20T09:49:16Z</time>
      </trkpt>
      <trkpt lat="45.95231" lon="4.87758">
        <ele>282</ele>
        <time>2016-09-20T09:49:17Z</time>
      </trkpt>
      <trkpt lat="45.95231" lon="4.87749">
        <ele>280</ele>
        <time>2016-09-20T09:49:18Z</time>
      </trkpt>
      <trkpt lat="45.9523" lon="4.87739">
        <ele>280</ele>
        <time>2016-09-20T09:49:19Z</time>
      </trkpt>
      <trkpt lat="45.95231" lon="4.87729">
        <ele>280</ele>
        <time>2016-09-20T09:49:20Z</time>
      </trkpt>
      <trkpt lat="45.9523" lon="4.87719">
        <ele>279</ele>
        <time>2016-09-20T09:49:21Z</time>
      </trkpt>
      <trkpt lat="45.95227" lon="4.87707">
        <ele>279</ele>
        <time>2016-09-20T09:49:22Z</time>
      </trkpt>
      <trkpt lat="45.95226" lon="4.87697">
        <ele>279</ele>
        <time>2016-09-20T09:49:23Z</time>
      </trkpt>
      <trkpt lat="45.95225" lon="4.87686">
        <ele>279</ele>
        <time>2016-09-20T09:49:24Z</time>
      </trkpt>
      <trkpt lat="45.95224" lon="4.87678">
        <ele>278</ele>
        <time>2016-09-20T09:49:25Z</time>
      </trkpt>
      <trkpt lat="45.95223" lon="4.87668">
        <ele>278</ele>
        <time>2016-09-20T09:49:26Z</time>
      </trkpt>
      <trkpt lat="45.95221" lon="4.87658">
        <ele>276</ele>
        <time>2016-09-20T09:49:27Z</time>
      </trkpt>
      <trkpt lat="45.95219" lon="4.87648">
        <ele>276</ele>
        <time>2016-09-20T09:49:28Z</time>
      </trkpt>
      <trkpt lat="45.95217" lon="4.87637">
        <ele>276</ele>
        <time>2016-09-20T09:49:29Z</time>
      </trkpt>
      <trkpt lat="45.95216" lon="4.87627">
        <ele>276</ele>
        <time>2016-09-20T09:49:30Z</time>
      </trkpt>
      <trkpt lat="45.95214" lon="4.87616">
        <ele>276</ele>
        <time>2016-09-20T09:49:31Z</time>
      </trkpt>
      <trkpt lat="45.95213" lon="4.87604">
        <ele>276</ele>
        <time>2016-09-20T09:49:32Z</time>
      </trkpt>
      <trkpt lat="45.95212" lon="4.87592">
        <ele>276</ele>
        <time>2016-09-20T09:49:33Z</time>
      </trkpt>
      <trkpt lat="45.9521" lon="4.8758">
        <ele>274</ele>
        <time>2016-09-20T09:49:34Z</time>
      </trkpt>
      <trkpt lat="45.95209" lon="4.87568">
        <ele>274</ele>
        <time>2016-09-20T09:49:35Z</time>
      </trkpt>
      <trkpt lat="45.95207" lon="4.87556">
        <ele>274</ele>
        <time>2016-09-20T09:49:36Z</time>
      </trkpt>
      <trkpt lat="45.95205" lon="4.87543">
        <ele>274</ele>
        <time>2016-09-20T09:49:37Z</time>
      </trkpt>
      <trkpt lat="45.95203" lon="4.87531">
        <ele>274</ele>
        <time>2016-09-20T09:49:38Z</time>
      </trkpt>
      <trkpt lat="45.952" lon="4.87519">
        <ele>273</ele>
        <time>2016-09-20T09:49:39Z</time>
      </trkpt>
      <trkpt lat="45.95198" lon="4.87508">
        <ele>273</ele>
        <time>2016-09-20T09:49:40Z</time>
      </trkpt>
      <trkpt lat="45.95195" lon="4.87497">
        <ele>272</ele>
        <time>2016-09-20T09:49:41Z</time>
      </trkpt>
      <trkpt lat="45.95193" lon="4.87486">
        <ele>272</ele>
        <time>2016-09-20T09:49:42Z</time>
      </trkpt>
      <trkpt lat="45.9519" lon="4.87475">
        <ele>272</ele>
        <time>2016-09-20T09:49:43Z</time>
      </trkpt>
      <trkpt lat="45.95188" lon="4.87464">
        <ele>272</ele>
        <time>2016-09-20T09:49:44Z</time>
      </trkpt>
      <trkpt lat="45.95185" lon="4.87454">
        <ele>272</ele>
        <time>2016-09-20T09:49:45Z</time>
      </trkpt>
      <trkpt lat="45.95183" lon="4.87444">
        <ele>272</ele>
        <time>2016-09-20T09:49:46Z</time>
      </trkpt>
      <trkpt lat="45.95181" lon="4.87434">
        <ele>271</ele>
        <time>2016-09-20T09:49:47Z</time>
      </trkpt>
      <trkpt lat="45.9518" lon="4.87424">
        <ele>271</ele>
        <time>2016-09-20T09:49:48Z</time>
      </trkpt>
      <trkpt lat="45.95178" lon="4.87415">
        <ele>271</ele>
        <time>2016-09-20T09:49:49Z</time>
      </trkpt>
      <trkpt lat="45.95176" lon="4.87406">
        <ele>271</ele>
        <time>2016-09-20T09:49:50Z</time>
      </trkpt>
      <trkpt lat="45.95174" lon="4.87398">
        <ele>271</ele>
        <time>2016-09-20T09:49:51Z</time>
      </trkpt>
      <trkpt lat="45.95173" lon="4.87389">
        <ele>271</ele>
        <time>2016-09-20T09:49:52Z</time>
      </trkpt>
      <trkpt lat="45.9517" lon="4.87382">
        <ele>271</ele>
        <time>2016-09-20T09:49:53Z</time>
      </trkpt>
      <trkpt lat="45.95168" lon="4.87374">
        <ele>271</ele>
        <time>2016-09-20T09:49:54Z</time>
      </trkpt>
      <trkpt lat="45.95166" lon="4.87366">
        <ele>272</ele>
        <time>2016-09-20T09:49:55Z</time>
      </trkpt>
      <trkpt lat="45.95164" lon="4.87358">
        <ele>272</ele>
        <time>2016-09-20T09:49:56Z</time>
      </trkpt>
      <trkpt lat="45.95163" lon="4.8735">
        <ele>272</ele>
        <time>2016-09-20T09:49:57Z</time>
      </trkpt>
      <trkpt lat="45.95161" lon="4.87342">
        <ele>272</ele>
        <time>2016-09-20T09:49:58Z</time>
      </trkpt>
      <trkpt lat="45.95159" lon="4.87334">
        <ele>272</ele>
        <time>2016-09-20T09:49:59Z</time>
      </trkpt>
      <trkpt lat="45.95157" lon="4.87325">
        <ele>272</ele>
        <time>2016-09-20T09:50:00Z</time>
      </trkpt>
      <trkpt lat="45.95155" lon="4.87317">
        <ele>273</ele>
        <time>2016-09-20T09:50:01Z</time>
      </trkpt>
      <trkpt lat="45.95153" lon="4.87308">
        <ele>273</ele>
        <time>2016-09-20T09:50:02Z</time>
      </trkpt>
      <trkpt lat="45.95151" lon="4.873">
        <ele>274</ele>
        <time>2016-09-20T09:50:03Z</time>
      </trkpt>
      <trkpt lat="45.9515" lon="4.87292">
        <ele>274</ele>
        <time>2016-09-20T09:50:04Z</time>
      </trkpt>
      <trkpt lat="45.95149" lon="4.87284">
        <ele>274</ele>
        <time>2016-09-20T09:50:05Z</time>
      </trkpt>
      <trkpt lat="45.95148" lon="4.87277">
        <ele>274</ele>
        <time>2016-09-20T09:50:06Z</time>
      </trkpt>
      <trkpt lat="45.95147" lon="4.87269">
        <ele>274</ele>
        <time>2016-09-20T09:50:07Z</time>
      </trkpt>
      <trkpt lat="45.95146" lon="4.87262">
        <ele>274</ele>
        <time>2016-09-20T09:50:08Z</time>
      </trkpt>
      <trkpt lat="45.95145" lon="4.87254">
        <ele>274</ele>
        <time>2016-09-20T09:50:09Z</time>
      </trkpt>
      <trkpt lat="45.95143" lon="4.87247">
        <ele>275</ele>
        <time>2016-09-20T09:50:10Z</time>
      </trkpt>
      <trkpt lat="45.95141" lon="4.8724">
        <ele>275</ele>
        <time>2016-09-20T09:50:11Z</time>
      </trkpt>
      <trkpt lat="45.9514" lon="4.87233">
        <ele>276</ele>
        <time>2016-09-20T09:50:12Z</time>
      </trkpt>
      <trkpt lat="45.95138" lon="4.87225">
        <ele>276</ele>
        <time>2016-09-20T09:50:13Z</time>
      </trkpt>
      <trkpt lat="45.95137" lon="4.87218">
        <ele>276</ele>
        <time>2016-09-20T09:50:14Z</time>
      </trkpt>
      <trkpt lat="45.95136" lon="4.8721">
        <ele>276</ele>
        <time>2016-09-20T09:50:15Z</time>
      </trkpt>
      <trkpt lat="45.95135" lon="4.87203">
        <ele>276</ele>
        <time>2016-09-20T09:50:16Z</time>
      </trkpt>
      <trkpt lat="45.95133" lon="4.87195">
        <ele>276</ele>
        <time>2016-09-20T09:50:17Z</time>
      </trkpt>
      <trkpt lat="45.95131" lon="4.87188">
        <ele>276</ele>
        <time>2016-09-20T09:50:18Z</time>
      </trkpt>
      <trkpt lat="45.95129" lon="4.87181">
        <ele>276</ele>
        <time>2016-09-20T09:50:19Z</time>
      </trkpt>
      <trkpt lat="45.95127" lon="4.87173">
        <ele>276</ele>
        <time>2016-09-20T09:50:20Z</time>
      </trkpt>
      <trkpt lat="45.95124" lon="4.87166">
        <ele>276</ele>
        <time>2016-09-20T09:50:21Z</time>
      </trkpt>
      <trkpt lat="45.95122" lon="4.87158">
        <ele>276</ele>
        <time>2016-09-20T09:50:22Z</time>
      </trkpt>
      <trkpt lat="45.9512" lon="4.87151">
        <ele>277</ele>
        <time>2016-09-20T09:50:23Z</time>
      </trkpt>
      <trkpt lat="45.95118" lon="4.87144">
        <ele>277</ele>
        <time>2016-09-20T09:50:24Z</time>
      </trkpt>
      <trkpt lat="45.95116" lon="4.87137">
        <ele>277</ele>
        <time>2016-09-20T09:50:25Z</time>
      </trkpt>
      <trkpt lat="45.95115" lon="4.87129">
        <ele>277</ele>
        <time>2016-09-20T09:50:26Z</time>
      </trkpt>
      <trkpt lat="45.95114" lon="4.87121">
        <ele>277</ele>
        <time>2016-09-20T09:50:27Z</time>
      </trkpt>
      <trkpt lat="45.95112" lon="4.87113">
        <ele>277</ele>
        <time>2016-09-20T09:50:28Z</time>
      </trkpt>
      <trkpt lat="45.9511" lon="4.87106">
        <ele>277</ele>
        <time>2016-09-20T09:50:29Z</time>
      </trkpt>
      <trkpt lat="45.95108" lon="4.87098">
        <ele>277</ele>
        <time>2016-09-20T09:50:30Z</time>
      </trkpt>
      <trkpt lat="45.95106" lon="4.87091">
        <ele>277</ele>
        <time>2016-09-20T09:50:31Z</time>
      </trkpt>
      <trkpt lat="45.95104" lon="4.87084">
        <ele>277</ele>
        <time>2016-09-20T09:50:32Z</time>
      </trkpt>
      <trkpt lat="45.95102" lon="4.87078">
        <ele>277</ele>
        <time>2016-09-20T09:50:33Z</time>
      </trkpt>
      <trkpt lat="45.951" lon="4.87072">
        <ele>277</ele>
        <time>2016-09-20T09:50:34Z</time>
      </trkpt>
      <trkpt lat="45.95098" lon="4.87066">
        <ele>277</ele>
        <time>2016-09-20T09:50:35Z</time>
      </trkpt>
      <trkpt lat="45.95096" lon="4.8706">
        <ele>277</ele>
        <time>2016-09-20T09:50:36Z</time>
      </trkpt>
      <trkpt lat="45.95094" lon="4.87053">
        <ele>277</ele>
        <time>2016-09-20T09:50:37Z</time>
      </trkpt>
      <trkpt lat="45.95091" lon="4.87047">
        <ele>277</ele>
        <time>2016-09-20T09:50:38Z</time>
      </trkpt>
      <trkpt lat="45.95088" lon="4.87041">
        <ele>277</ele>
        <time>2016-09-20T09:50:39Z</time>
      </trkpt>
      <trkpt lat="45.95084" lon="4.87035">
        <ele>277</ele>
        <time>2016-09-20T09:50:40Z</time>
      </trkpt>
      <trkpt lat="45.95081" lon="4.87029">
        <ele>277</ele>
        <time>2016-09-20T09:50:41Z</time>
      </trkpt>
      <trkpt lat="45.95077" lon="4.87021">
        <ele>277</ele>
        <time>2016-09-20T09:50:42Z</time>
      </trkpt>
      <trkpt lat="45.95073" lon="4.87015">
        <ele>277</ele>
        <time>2016-09-20T09:50:43Z</time>
      </trkpt>
      <trkpt lat="45.95069" lon="4.87008">
        <ele>277</ele>
        <time>2016-09-20T09:50:44Z</time>
      </trkpt>
      <trkpt lat="45.95065" lon="4.87001">
        <ele>277</ele>
        <time>2016-09-20T09:50:45Z</time>
      </trkpt>
      <trkpt lat="45.95061" lon="4.86994">
        <ele>276</ele>
        <time>2016-09-20T09:50:46Z</time>
      </trkpt>
      <trkpt lat="45.95058" lon="4.86986">
        <ele>276</ele>
        <time>2016-09-20T09:50:47Z</time>
      </trkpt>
      <trkpt lat="45.95055" lon="4.86977">
        <ele>276</ele>
        <time>2016-09-20T09:50:48Z</time>
      </trkpt>
      <trkpt lat="45.95053" lon="4.86969">
        <ele>276</ele>
        <time>2016-09-20T09:50:49Z</time>
      </trkpt>
      <trkpt lat="45.9505" lon="4.86961">
        <ele>276</ele>
        <time>2016-09-20T09:50:50Z</time>
      </trkpt>
      <trkpt lat="45.95048" lon="4.86953">
        <ele>276</ele>
        <time>2016-09-20T09:50:51Z</time>
      </trkpt>
      <trkpt lat="45.95046" lon="4.86946">
        <ele>276</ele>
        <time>2016-09-20T09:50:52Z</time>
      </trkpt>
      <trkpt lat="45.95043" lon="4.86939">
        <ele>276</ele>
        <time>2016-09-20T09:50:53Z</time>
      </trkpt>
      <trkpt lat="45.9504" lon="4.86931">
        <ele>276</ele>
        <time>2016-09-20T09:50:54Z</time>
      </trkpt>
      <trkpt lat="45.95038" lon="4.86923">
        <ele>276</ele>
        <time>2016-09-20T09:50:55Z</time>
      </trkpt>
      <trkpt lat="45.95035" lon="4.86915">
        <ele>275</ele>
        <time>2016-09-20T09:50:56Z</time>
      </trkpt>
      <trkpt lat="45.95033" lon="4.86907">
        <ele>275</ele>
        <time>2016-09-20T09:50:57Z</time>
      </trkpt>
      <trkpt lat="45.9503" lon="4.86899">
        <ele>275</ele>
        <time>2016-09-20T09:50:58Z</time>
      </trkpt>
      <trkpt lat="45.95027" lon="4.86891">
        <ele>275</ele>
        <time>2016-09-20T09:50:59Z</time>
      </trkpt>
      <trkpt lat="45.95024" lon="4.86883">
        <ele>275</ele>
        <time>2016-09-20T09:51:00Z</time>
      </trkpt>
      <trkpt lat="45.95022" lon="4.86875">
        <ele>275</ele>
        <time>2016-09-20T09:51:01Z</time>
      </trkpt>
      <trkpt lat="45.95019" lon="4.86868">
        <ele>275</ele>
        <time>2016-09-20T09:51:02Z</time>
      </trkpt>
      <trkpt lat="45.95017" lon="4.86861">
        <ele>275</ele>
        <time>2016-09-20T09:51:03Z</time>
      </trkpt>
      <trkpt lat="45.95015" lon="4.86854">
        <ele>275</ele>
        <time>2016-09-20T09:51:04Z</time>
      </trkpt>
      <trkpt lat="45.95012" lon="4.86848">
        <ele>275</ele>
        <time>2016-09-20T09:51:05Z</time>
      </trkpt>
      <trkpt lat="45.9501" lon="4.86841">
        <ele>276</ele>
        <time>2016-09-20T09:51:06Z</time>
      </trkpt>
      <trkpt lat="45.95007" lon="4.86835">
        <ele>276</ele>
        <time>2016-09-20T09:51:07Z</time>
      </trkpt>
      <trkpt lat="45.95004" lon="4.86828">
        <ele>276</ele>
        <time>2016-09-20T09:51:08Z</time>
      </trkpt>
      <trkpt lat="45.95001" lon="4.86821">
        <ele>275</ele>
        <time>2016-09-20T09:51:09Z</time>
      </trkpt>
      <trkpt lat="45.94998" lon="4.86814">
        <ele>276</ele>
        <time>2016-09-20T09:51:10Z</time>
      </trkpt>
      <trkpt lat="45.94995" lon="4.86807">
        <ele>276</ele>
        <time>2016-09-20T09:51:11Z</time>
      </trkpt>
      <trkpt lat="45.94991" lon="4.86801">
        <ele>276</ele>
        <time>2016-09-20T09:51:12Z</time>
      </trkpt>
      <trkpt lat="45.94988" lon="4.86794">
        <ele>276</ele>
        <time>2016-09-20T09:51:13Z</time>
      </trkpt>
      <trkpt lat="45.94984" lon="4.86787">
        <ele>275</ele>
        <time>2016-09-20T09:51:14Z</time>
      </trkpt>
      <trkpt lat="45.9498" lon="4.8678">
        <ele>275</ele>
        <time>2016-09-20T09:51:15Z</time>
      </trkpt>
      <trkpt lat="45.94976" lon="4.86773">
        <ele>275</ele>
        <time>2016-09-20T09:51:16Z</time>
      </trkpt>
      <trkpt lat="45.94972" lon="4.86765">
        <ele>275</ele>
        <time>2016-09-20T09:51:17Z</time>
      </trkpt>
      <trkpt lat="45.94968" lon="4.86758">
        <ele>275</ele>
        <time>2016-09-20T09:51:18Z</time>
      </trkpt>
      <trkpt lat="45.94965" lon="4.86751">
        <ele>275</ele>
        <time>2016-09-20T09:51:19Z</time>
      </trkpt>
      <trkpt lat="45.94961" lon="4.86744">
        <ele>275</ele>
        <time>2016-09-20T09:51:20Z</time>
      </trkpt>
      <trkpt lat="45.94958" lon="4.86737">
        <ele>275</ele>
        <time>2016-09-20T09:51:21Z</time>
      </trkpt>
      <trkpt lat="45.94955" lon="4.86729">
        <ele>275</ele>
        <time>2016-09-20T09:51:22Z</time>
      </trkpt>
      <trkpt lat="45.94953" lon="4.86721">
        <ele>275</ele>
        <time>2016-09-20T09:51:23Z</time>
      </trkpt>
      <trkpt lat="45.94951" lon="4.86713">
        <ele>275</ele>
        <time>2016-09-20T09:51:24Z</time>
      </trkpt>
      <trkpt lat="45.94949" lon="4.86705">
        <ele>275</ele>
        <time>2016-09-20T09:51:25Z</time>
      </trkpt>
      <trkpt lat="45.94948" lon="4.86696">
        <ele>275</ele>
        <time>2016-09-20T09:51:26Z</time>
      </trkpt>
      <trkpt lat="45.94947" lon="4.86688">
        <ele>276</ele>
        <time>2016-09-20T09:51:27Z</time>
      </trkpt>
      <trkpt lat="45.94946" lon="4.8668">
        <ele>276</ele>
        <time>2016-09-20T09:51:28Z</time>
      </trkpt>
      <trkpt lat="45.94946" lon="4.86671">
        <ele>276</ele>
        <time>2016-09-20T09:51:29Z</time>
      </trkpt>
      <trkpt lat="45.94946" lon="4.86663">
        <ele>276</ele>
        <time>2016-09-20T09:51:30Z</time>
      </trkpt>
      <trkpt lat="45.94948" lon="4.86655">
        <ele>276</ele>
        <time>2016-09-20T09:51:31Z</time>
      </trkpt>
      <trkpt lat="45.9495" lon="4.86648">
        <ele>276</ele>
        <time>2016-09-20T09:51:32Z</time>
      </trkpt>
      <trkpt lat="45.94953" lon="4.86642">
        <ele>276</ele>
        <time>2016-09-20T09:51:33Z</time>
      </trkpt>
      <trkpt lat="45.94957" lon="4.86636">
        <ele>276</ele>
        <time>2016-09-20T09:51:34Z</time>
      </trkpt>
      <trkpt lat="45.94961" lon="4.86631">
        <ele>275</ele>
        <time>2016-09-20T09:51:35Z</time>
      </trkpt>
      <trkpt lat="45.94965" lon="4.86626">
        <ele>275</ele>
        <time>2016-09-20T09:51:36Z</time>
      </trkpt>
      <trkpt lat="45.9497" lon="4.86624">
        <ele>275</ele>
        <time>2016-09-20T09:51:37Z</time>
      </trkpt>
      <trkpt lat="45.94974" lon="4.86621">
        <ele>275</ele>
        <time>2016-09-20T09:51:38Z</time>
      </trkpt>
      <trkpt lat="45.9498" lon="4.86619">
        <ele>275</ele>
        <time>2016-09-20T09:51:39Z</time>
      </trkpt>
      <trkpt lat="45.94985" lon="4.86618">
        <ele>275</ele>
        <time>2016-09-20T09:51:40Z</time>
      </trkpt>
      <trkpt lat="45.94991" lon="4.86618">
        <ele>275</ele>
        <time>2016-09-20T09:51:41Z</time>
      </trkpt>
      <trkpt lat="45.94997" lon="4.86617">
        <ele>275</ele>
        <time>2016-09-20T09:51:42Z</time>
      </trkpt>
      <trkpt lat="45.95003" lon="4.86616">
        <ele>273</ele>
        <time>2016-09-20T09:51:43Z</time>
      </trkpt>
      <trkpt lat="45.95008" lon="4.86615">
        <ele>273</ele>
        <time>2016-09-20T09:51:44Z</time>
      </trkpt>
      <trkpt lat="45.95014" lon="4.86614">
        <ele>273</ele>
        <time>2016-09-20T09:51:45Z</time>
      </trkpt>
      <trkpt lat="45.9502" lon="4.86613">
        <ele>273</ele>
        <time>2016-09-20T09:51:46Z</time>
      </trkpt>
      <trkpt lat="45.95025" lon="4.86612">
        <ele>273</ele>
        <time>2016-09-20T09:51:47Z</time>
      </trkpt>
      <trkpt lat="45.95031" lon="4.8661">
        <ele>273</ele>
        <time>2016-09-20T09:51:48Z</time>
      </trkpt>
      <trkpt lat="45.95037" lon="4.86609">
        <ele>273</ele>
        <time>2016-09-20T09:51:49Z</time>
      </trkpt>
      <trkpt lat="45.95042" lon="4.86608">
        <ele>272</ele>
        <time>2016-09-20T09:51:50Z</time>
      </trkpt>
      <trkpt lat="45.95048" lon="4.86607">
        <ele>272</ele>
        <time>2016-09-20T09:51:51Z</time>
      </trkpt>
      <trkpt lat="45.95054" lon="4.86606">
        <ele>272</ele>
        <time>2016-09-20T09:51:52Z</time>
      </trkpt>
      <trkpt lat="45.9506" lon="4.86604">
        <ele>272</ele>
        <time>2016-09-20T09:51:53Z</time>
      </trkpt>
      <trkpt lat="45.95066" lon="4.86601">
        <ele>272</ele>
        <time>2016-09-20T09:51:54Z</time>
      </trkpt>
      <trkpt lat="45.95072" lon="4.86599">
        <ele>272</ele>
        <time>2016-09-20T09:51:55Z</time>
      </trkpt>
      <trkpt lat="45.95078" lon="4.86597">
        <ele>272</ele>
        <time>2016-09-20T09:51:56Z</time>
      </trkpt>
      <trkpt lat="45.95084" lon="4.86595">
        <ele>271</ele>
        <time>2016-09-20T09:51:57Z</time>
      </trkpt>
      <trkpt lat="45.9509" lon="4.86594">
        <ele>271</ele>
        <time>2016-09-20T09:51:58Z</time>
      </trkpt>
      <trkpt lat="45.95096" lon="4.86593">
        <ele>271</ele>
        <time>2016-09-20T09:51:59Z</time>
      </trkpt>
      <trkpt lat="45.95102" lon="4.86591">
        <ele>271</ele>
        <time>2016-09-20T09:52:00Z</time>
      </trkpt>
      <trkpt lat="45.95108" lon="4.8659">
        <ele>271</ele>
        <time>2016-09-20T09:52:01Z</time>
      </trkpt>
      <trkpt lat="45.95114" lon="4.8659">
        <ele>270</ele>
        <time>2016-09-20T09:52:02Z</time>
      </trkpt>
      <trkpt lat="45.9512" lon="4.86589">
        <ele>270</ele>
        <time>2016-09-20T09:52:03Z</time>
      </trkpt>
      <trkpt lat="45.95126" lon="4.86588">
        <ele>270</ele>
        <time>2016-09-20T09:52:04Z</time>
      </trkpt>
      <trkpt lat="45.95131" lon="4.86587">
        <ele>270</ele>
        <time>2016-09-20T09:52:05Z</time>
      </trkpt>
      <trkpt lat="45.95137" lon="4.86586">
        <ele>270</ele>
        <time>2016-09-20T09:52:06Z</time>
      </trkpt>
      <trkpt lat="45.95143" lon="4.86586">
        <ele>270</ele>
        <time>2016-09-20T09:52:07Z</time>
      </trkpt>
      <trkpt lat="45.95149" lon="4.86586">
        <ele>270</ele>
        <time>2016-09-20T09:52:08Z</time>
      </trkpt>
      <trkpt lat="45.95155" lon="4.86585">
        <ele>270</ele>
        <time>2016-09-20T09:52:09Z</time>
      </trkpt>
      <trkpt lat="45.95161" lon="4.86584">
        <ele>269</ele>
        <time>2016-09-20T09:52:10Z</time>
      </trkpt>
      <trkpt lat="45.95167" lon="4.86583">
        <ele>269</ele>
        <time>2016-09-20T09:52:11Z</time>
      </trkpt>
      <trkpt lat="45.95173" lon="4.86582">
        <ele>269</ele>
        <time>2016-09-20T09:52:12Z</time>
      </trkpt>
      <trkpt lat="45.95179" lon="4.86582">
        <ele>269</ele>
        <time>2016-09-20T09:52:13Z</time>
      </trkpt>
      <trkpt lat="45.95184" lon="4.86582">
        <ele>269</ele>
        <time>2016-09-20T09:52:14Z</time>
      </trkpt>
      <trkpt lat="45.9519" lon="4.86582">
        <ele>269</ele>
        <time>2016-09-20T09:52:15Z</time>
      </trkpt>
      <trkpt lat="45.95196" lon="4.86582">
        <ele>268</ele>
        <time>2016-09-20T09:52:16Z</time>
      </trkpt>
      <trkpt lat="45.95202" lon="4.86581">
        <ele>268</ele>
        <time>2016-09-20T09:52:17Z</time>
      </trkpt>
      <trkpt lat="45.95208" lon="4.86582">
        <ele>268</ele>
        <time>2016-09-20T09:52:18Z</time>
      </trkpt>
      <trkpt lat="45.95215" lon="4.86583">
        <ele>268</ele>
        <time>2016-09-20T09:52:19Z</time>
      </trkpt>
      <trkpt lat="45.95221" lon="4.86584">
        <ele>269</ele>
        <time>2016-09-20T09:52:20Z</time>
      </trkpt>
      <trkpt lat="45.95228" lon="4.86585">
        <ele>269</ele>
        <time>2016-09-20T09:52:21Z</time>
      </trkpt>
      <trkpt lat="45.95235" lon="4.86585">
        <ele>269</ele>
        <time>2016-09-20T09:52:22Z</time>
      </trkpt>
      <trkpt lat="45.95241" lon="4.86586">
        <ele>268</ele>
        <time>2016-09-20T09:52:23Z</time>
      </trkpt>
      <trkpt lat="45.95247" lon="4.86586">
        <ele>268</ele>
        <time>2016-09-20T09:52:24Z</time>
      </trkpt>
      <trkpt lat="45.95252" lon="4.86585">
        <ele>268</ele>
        <time>2016-09-20T09:52:25Z</time>
      </trkpt>
      <trkpt lat="45.9526" lon="4.86582">
        <ele>268</ele>
        <time>2016-09-20T09:52:27Z</time>
      </trkpt>
      <trkpt lat="45.95263" lon="4.86581">
        <ele>267</ele>
        <time>2016-09-20T09:52:28Z</time>
      </trkpt>
      <trkpt lat="45.95268" lon="4.86574">
        <ele>267</ele>
        <time>2016-09-20T09:52:31Z</time>
      </trkpt>
      <trkpt lat="45.95267" lon="4.86569">
        <ele>267</ele>
        <time>2016-09-20T09:52:32Z</time>
      </trkpt>
      <trkpt lat="45.95263" lon="4.86562">
        <ele>267</ele>
        <time>2016-09-20T09:52:34Z</time>
      </trkpt>
      <trkpt lat="45.95259" lon="4.86557">
        <ele>267</ele>
        <time>2016-09-20T09:52:35Z</time>
      </trkpt>
      <trkpt lat="45.95253" lon="4.86548">
        <ele>267</ele>
        <time>2016-09-20T09:52:37Z</time>
      </trkpt>
      <trkpt lat="45.9525" lon="4.86545">
        <ele>268</ele>
        <time>2016-09-20T09:52:38Z</time>
      </trkpt>
      <trkpt lat="45.95246" lon="4.8654">
        <ele>268</ele>
        <time>2016-09-20T09:52:39Z</time>
      </trkpt>
      <trkpt lat="45.95241" lon="4.86534">
        <ele>268</ele>
        <time>2016-09-20T09:52:40Z</time>
      </trkpt>
      <trkpt lat="45.95236" lon="4.86528">
        <ele>268</ele>
        <time>2016-09-20T09:52:41Z</time>
      </trkpt>
      <trkpt lat="45.95231" lon="4.86522">
        <ele>268</ele>
        <time>2016-09-20T09:52:42Z</time>
      </trkpt>
      <trkpt lat="45.95226" lon="4.86516">
        <ele>268</ele>
        <time>2016-09-20T09:52:43Z</time>
      </trkpt>
      <trkpt lat="45.95221" lon="4.86511">
        <ele>268</ele>
        <time>2016-09-20T09:52:44Z</time>
      </trkpt>
      <trkpt lat="45.95217" lon="4.86505">
        <ele>268</ele>
        <time>2016-09-20T09:52:45Z</time>
      </trkpt>
      <trkpt lat="45.95213" lon="4.865">
        <ele>268</ele>
        <time>2016-09-20T09:52:46Z</time>
      </trkpt>
      <trkpt lat="45.95209" lon="4.86494">
        <ele>268</ele>
        <time>2016-09-20T09:52:47Z</time>
      </trkpt>
      <trkpt lat="45.95205" lon="4.86489">
        <ele>268</ele>
        <time>2016-09-20T09:52:48Z</time>
      </trkpt>
      <trkpt lat="45.952" lon="4.86484">
        <ele>268</ele>
        <time>2016-09-20T09:52:49Z</time>
      </trkpt>
      <trkpt lat="45.95196" lon="4.86478">
        <ele>268</ele>
        <time>2016-09-20T09:52:50Z</time>
      </trkpt>
      <trkpt lat="45.95191" lon="4.86472">
        <ele>268</ele>
        <time>2016-09-20T09:52:51Z</time>
      </trkpt>
      <trkpt lat="45.95187" lon="4.86467">
        <ele>268</ele>
        <time>2016-09-20T09:52:52Z</time>
      </trkpt>
      <trkpt lat="45.95182" lon="4.86461">
        <ele>268</ele>
        <time>2016-09-20T09:52:53Z</time>
      </trkpt>
      <trkpt lat="45.95178" lon="4.86455">
        <ele>268</ele>
        <time>2016-09-20T09:52:54Z</time>
      </trkpt>
      <trkpt lat="45.95173" lon="4.8645">
        <ele>268</ele>
        <time>2016-09-20T09:52:55Z</time>
      </trkpt>
      <trkpt lat="45.95169" lon="4.86445">
        <ele>267</ele>
        <time>2016-09-20T09:52:56Z</time>
      </trkpt>
      <trkpt lat="45.95165" lon="4.8644">
        <ele>268</ele>
        <time>2016-09-20T09:52:57Z</time>
      </trkpt>
      <trkpt lat="45.95162" lon="4.86436">
        <ele>268</ele>
        <time>2016-09-20T09:52:58Z</time>
      </trkpt>
      <trkpt lat="45.95159" lon="4.86432">
        <ele>268</ele>
        <time>2016-09-20T09:52:59Z</time>
      </trkpt>
      <trkpt lat="45.95155" lon="4.86428">
        <ele>268</ele>
        <time>2016-09-20T09:53:00Z</time>
      </trkpt>
      <trkpt lat="45.95151" lon="4.86424">
        <ele>268</ele>
        <time>2016-09-20T09:53:01Z</time>
      </trkpt>
      <trkpt lat="45.95148" lon="4.86419">
        <ele>268</ele>
        <time>2016-09-20T09:53:02Z</time>
      </trkpt>
      <trkpt lat="45.95144" lon="4.86414">
        <ele>268</ele>
        <time>2016-09-20T09:53:03Z</time>
      </trkpt>
      <trkpt lat="45.9514" lon="4.8641">
        <ele>268</ele>
        <time>2016-09-20T09:53:04Z</time>
      </trkpt>
      <trkpt lat="45.95136" lon="4.86405">
        <ele>268</ele>
        <time>2016-09-20T09:53:05Z</time>
      </trkpt>
      <trkpt lat="45.95132" lon="4.864">
        <ele>268</ele>
        <time>2016-09-20T09:53:06Z</time>
      </trkpt>
      <trkpt lat="45.95127" lon="4.86395">
        <ele>268</ele>
        <time>2016-09-20T09:53:07Z</time>
      </trkpt>
      <trkpt lat="45.95123" lon="4.8639">
        <ele>269</ele>
        <time>2016-09-20T09:53:08Z</time>
      </trkpt>
      <trkpt lat="45.95119" lon="4.86385">
        <ele>269</ele>
        <time>2016-09-20T09:53:09Z</time>
      </trkpt>
      <trkpt lat="45.95115" lon="4.8638">
        <ele>269</ele>
        <time>2016-09-20T09:53:10Z</time>
      </trkpt>
      <trkpt lat="45.95112" lon="4.86375">
        <ele>269</ele>
        <time>2016-09-20T09:53:11Z</time>
      </trkpt>
      <trkpt lat="45.95108" lon="4.8637">
        <ele>269</ele>
        <time>2016-09-20T09:53:12Z</time>
      </trkpt>
      <trkpt lat="45.95104" lon="4.86365">
        <ele>269</ele>
        <time>2016-09-20T09:53:13Z</time>
      </trkpt>
      <trkpt lat="45.951" lon="4.8636">
        <ele>269</ele>
        <time>2016-09-20T09:53:14Z</time>
      </trkpt>
      <trkpt lat="45.95096" lon="4.86355">
        <ele>269</ele>
        <time>2016-09-20T09:53:15Z</time>
      </trkpt>
      <trkpt lat="45.95092" lon="4.86349">
        <ele>269</ele>
        <time>2016-09-20T09:53:16Z</time>
      </trkpt>
      <trkpt lat="45.95087" lon="4.86344">
        <ele>269</ele>
        <time>2016-09-20T09:53:17Z</time>
      </trkpt>
      <trkpt lat="45.95082" lon="4.86338">
        <ele>269</ele>
        <time>2016-09-20T09:53:18Z</time>
      </trkpt>
      <trkpt lat="45.95077" lon="4.86333">
        <ele>269</ele>
        <time>2016-09-20T09:53:19Z</time>
      </trkpt>
      <trkpt lat="45.95073" lon="4.86327">
        <ele>270</ele>
        <time>2016-09-20T09:53:20Z</time>
      </trkpt>
      <trkpt lat="45.95068" lon="4.86321">
        <ele>270</ele>
        <time>2016-09-20T09:53:21Z</time>
      </trkpt>
      <trkpt lat="45.95063" lon="4.86315">
        <ele>270</ele>
        <time>2016-09-20T09:53:22Z</time>
      </trkpt>
      <trkpt lat="45.95058" lon="4.86309">
        <ele>271</ele>
        <time>2016-09-20T09:53:23Z</time>
      </trkpt>
      <trkpt lat="45.95053" lon="4.86303">
        <ele>271</ele>
        <time>2016-09-20T09:53:24Z</time>
      </trkpt>
      <trkpt lat="45.95048" lon="4.86298">
        <ele>271</ele>
        <time>2016-09-20T09:53:25Z</time>
      </trkpt>
      <trkpt lat="45.95044" lon="4.86293">
        <ele>271</ele>
        <time>2016-09-20T09:53:26Z</time>
      </trkpt>
      <trkpt lat="45.9504" lon="4.86289">
        <ele>271</ele>
        <time>2016-09-20T09:53:27Z</time>
      </trkpt>
      <trkpt lat="45.95036" lon="4.86284">
        <ele>271</ele>
        <time>2016-09-20T09:53:28Z</time>
      </trkpt>
      <trkpt lat="45.95033" lon="4.8628">
        <ele>271</ele>
        <time>2016-09-20T09:53:29Z</time>
      </trkpt>
      <trkpt lat="45.95029" lon="4.86275">
        <ele>271</ele>
        <time>2016-09-20T09:53:30Z</time>
      </trkpt>
      <trkpt lat="45.95025" lon="4.8627">
        <ele>271</ele>
        <time>2016-09-20T09:53:31Z</time>
      </trkpt>
      <trkpt lat="45.95021" lon="4.86266">
        <ele>271</ele>
        <time>2016-09-20T09:53:32Z</time>
      </trkpt>
      <trkpt lat="45.95017" lon="4.8626">
        <ele>271</ele>
        <time>2016-09-20T09:53:33Z</time>
      </trkpt>
      <trkpt lat="45.95012" lon="4.86255">
        <ele>272</ele>
        <time>2016-09-20T09:53:34Z</time>
      </trkpt>
      <trkpt lat="45.95008" lon="4.86249">
        <ele>272</ele>
        <time>2016-09-20T09:53:35Z</time>
      </trkpt>
      <trkpt lat="45.95003" lon="4.86244">
        <ele>272</ele>
        <time>2016-09-20T09:53:36Z</time>
      </trkpt>
      <trkpt lat="45.94999" lon="4.86238">
        <ele>272</ele>
        <time>2016-09-20T09:53:37Z</time>
      </trkpt>
      <trkpt lat="45.94995" lon="4.86233">
        <ele>272</ele>
        <time>2016-09-20T09:53:38Z</time>
      </trkpt>
      <trkpt lat="45.94991" lon="4.86228">
        <ele>272</ele>
        <time>2016-09-20T09:53:39Z</time>
      </trkpt>
      <trkpt lat="45.94986" lon="4.86222">
        <ele>272</ele>
        <time>2016-09-20T09:53:40Z</time>
      </trkpt>
      <trkpt lat="45.94982" lon="4.86217">
        <ele>272</ele>
        <time>2016-09-20T09:53:41Z</time>
      </trkpt>
      <trkpt lat="45.94978" lon="4.86212">
        <ele>272</ele>
        <time>2016-09-20T09:53:42Z</time>
      </trkpt>
      <trkpt lat="45.94974" lon="4.86207">
        <ele>272</ele>
        <time>2016-09-20T09:53:43Z</time>
      </trkpt>
      <trkpt lat="45.9497" lon="4.86202">
        <ele>272</ele>
        <time>2016-09-20T09:53:44Z</time>
      </trkpt>
      <trkpt lat="45.94966" lon="4.86197">
        <ele>272</ele>
        <time>2016-09-20T09:53:45Z</time>
      </trkpt>
      <trkpt lat="45.94962" lon="4.86193">
        <ele>272</ele>
        <time>2016-09-20T09:53:46Z</time>
      </trkpt>
      <trkpt lat="45.94958" lon="4.86188">
        <ele>273</ele>
        <time>2016-09-20T09:53:47Z</time>
      </trkpt>
      <trkpt lat="45.94955" lon="4.86183">
        <ele>273</ele>
        <time>2016-09-20T09:53:48Z</time>
      </trkpt>
      <trkpt lat="45.94951" lon="4.86179">
        <ele>273</ele>
        <time>2016-09-20T09:53:49Z</time>
      </trkpt>
      <trkpt lat="45.94947" lon="4.86174">
        <ele>273</ele>
        <time>2016-09-20T09:53:50Z</time>
      </trkpt>
      <trkpt lat="45.94943" lon="4.86169">
        <ele>273</ele>
        <time>2016-09-20T09:53:51Z</time>
      </trkpt>
      <trkpt lat="45.94939" lon="4.86163">
        <ele>273</ele>
        <time>2016-09-20T09:53:52Z</time>
      </trkpt>
      <trkpt lat="45.94936" lon="4.86158">
        <ele>273</ele>
        <time>2016-09-20T09:53:53Z</time>
      </trkpt>
      <trkpt lat="45.94932" lon="4.86153">
        <ele>273</ele>
        <time>2016-09-20T09:53:54Z</time>
      </trkpt>
      <trkpt lat="45.94928" lon="4.86148">
        <ele>273</ele>
        <time>2016-09-20T09:53:55Z</time>
      </trkpt>
      <trkpt lat="45.94924" lon="4.86142">
        <ele>273</ele>
        <time>2016-09-20T09:53:56Z</time>
      </trkpt>
      <trkpt lat="45.94921" lon="4.86136">
        <ele>273</ele>
        <time>2016-09-20T09:53:57Z</time>
      </trkpt>
      <trkpt lat="45.94918" lon="4.86131">
        <ele>273</ele>
        <time>2016-09-20T09:53:58Z</time>
      </trkpt>
      <trkpt lat="45.94915" lon="4.86125">
        <ele>274</ele>
        <time>2016-09-20T09:53:59Z</time>
      </trkpt>
      <trkpt lat="45.94912" lon="4.86119">
        <ele>274</ele>
        <time>2016-09-20T09:54:00Z</time>
      </trkpt>
      <trkpt lat="45.94909" lon="4.86113">
        <ele>274</ele>
        <time>2016-09-20T09:54:01Z</time>
      </trkpt>
      <trkpt lat="45.94906" lon="4.86106">
        <ele>274</ele>
        <time>2016-09-20T09:54:02Z</time>
      </trkpt>
      <trkpt lat="45.94903" lon="4.86099">
        <ele>274</ele>
        <time>2016-09-20T09:54:03Z</time>
      </trkpt>
      <trkpt lat="45.94901" lon="4.86092">
        <ele>274</ele>
        <time>2016-09-20T09:54:04Z</time>
      </trkpt>
      <trkpt lat="45.94899" lon="4.86085">
        <ele>274</ele>
        <time>2016-09-20T09:54:05Z</time>
      </trkpt>
      <trkpt lat="45.94896" lon="4.86077">
        <ele>274</ele>
        <time>2016-09-20T09:54:06Z</time>
      </trkpt>
      <trkpt lat="45.94893" lon="4.8607">
        <ele>274</ele>
        <time>2016-09-20T09:54:07Z</time>
      </trkpt>
      <trkpt lat="45.94891" lon="4.86061">
        <ele>274</ele>
        <time>2016-09-20T09:54:08Z</time>
      </trkpt>
      <trkpt lat="45.94889" lon="4.86052">
        <ele>274</ele>
        <time>2016-09-20T09:54:09Z</time>
      </trkpt>
      <trkpt lat="45.94886" lon="4.86044">
        <ele>274</ele>
        <time>2016-09-20T09:54:10Z</time>
      </trkpt>
      <trkpt lat="45.94884" lon="4.86036">
        <ele>274</ele>
        <time>2016-09-20T09:54:11Z</time>
      </trkpt>
      <trkpt lat="45.94882" lon="4.86028">
        <ele>274</ele>
        <time>2016-09-20T09:54:12Z</time>
      </trkpt>
      <trkpt lat="45.9488" lon="4.8602">
        <ele>274</ele>
        <time>2016-09-20T09:54:13Z</time>
      </trkpt>
      <trkpt lat="45.94878" lon="4.86012">
        <ele>274</ele>
        <time>2016-09-20T09:54:14Z</time>
      </trkpt>
      <trkpt lat="45.94876" lon="4.86003">
        <ele>274</ele>
        <time>2016-09-20T09:54:15Z</time>
      </trkpt>
      <trkpt lat="45.94873" lon="4.85996">
        <ele>275</ele>
        <time>2016-09-20T09:54:16Z</time>
      </trkpt>
      <trkpt lat="45.94871" lon="4.85988">
        <ele>275</ele>
        <time>2016-09-20T09:54:17Z</time>
      </trkpt>
      <trkpt lat="45.9487" lon="4.85979">
        <ele>275</ele>
        <time>2016-09-20T09:54:18Z</time>
      </trkpt>
      <trkpt lat="45.94868" lon="4.85971">
        <ele>275</ele>
        <time>2016-09-20T09:54:19Z</time>
      </trkpt>
      <trkpt lat="45.94866" lon="4.85963">
        <ele>275</ele>
        <time>2016-09-20T09:54:20Z</time>
      </trkpt>
      <trkpt lat="45.94864" lon="4.85955">
        <ele>275</ele>
        <time>2016-09-20T09:54:21Z</time>
      </trkpt>
      <trkpt lat="45.94861" lon="4.85946">
        <ele>275</ele>
        <time>2016-09-20T09:54:22Z</time>
      </trkpt>
      <trkpt lat="45.9486" lon="4.85938">
        <ele>275</ele>
        <time>2016-09-20T09:54:23Z</time>
      </trkpt>
      <trkpt lat="45.94858" lon="4.8593">
        <ele>275</ele>
        <time>2016-09-20T09:54:24Z</time>
      </trkpt>
      <trkpt lat="45.94855" lon="4.85921">
        <ele>275</ele>
        <time>2016-09-20T09:54:25Z</time>
      </trkpt>
      <trkpt lat="45.94853" lon="4.85913">
        <ele>275</ele>
        <time>2016-09-20T09:54:26Z</time>
      </trkpt>
      <trkpt lat="45.9485" lon="4.85905">
        <ele>276</ele>
        <time>2016-09-20T09:54:27Z</time>
      </trkpt>
      <trkpt lat="45.94848" lon="4.85897">
        <ele>276</ele>
        <time>2016-09-20T09:54:28Z</time>
      </trkpt>
      <trkpt lat="45.94846" lon="4.85889">
        <ele>276</ele>
        <time>2016-09-20T09:54:29Z</time>
      </trkpt>
      <trkpt lat="45.94844" lon="4.85881">
        <ele>276</ele>
        <time>2016-09-20T09:54:30Z</time>
      </trkpt>
      <trkpt lat="45.94842" lon="4.85873">
        <ele>276</ele>
        <time>2016-09-20T09:54:31Z</time>
      </trkpt>
      <trkpt lat="45.9484" lon="4.85866">
        <ele>276</ele>
        <time>2016-09-20T09:54:32Z</time>
      </trkpt>
      <trkpt lat="45.94838" lon="4.85858">
        <ele>276</ele>
        <time>2016-09-20T09:54:33Z</time>
      </trkpt>
      <trkpt lat="45.94836" lon="4.85851">
        <ele>276</ele>
        <time>2016-09-20T09:54:34Z</time>
      </trkpt>
      <trkpt lat="45.94834" lon="4.85844">
        <ele>277</ele>
        <time>2016-09-20T09:54:35Z</time>
      </trkpt>
      <trkpt lat="45.94832" lon="4.85837">
        <ele>277</ele>
        <time>2016-09-20T09:54:36Z</time>
      </trkpt>
      <trkpt lat="45.9483" lon="4.85829">
        <ele>277</ele>
        <time>2016-09-20T09:54:37Z</time>
      </trkpt>
      <trkpt lat="45.94828" lon="4.85822">
        <ele>277</ele>
        <time>2016-09-20T09:54:38Z</time>
      </trkpt>
      <trkpt lat="45.94826" lon="4.85815">
        <ele>278</ele>
        <time>2016-09-20T09:54:39Z</time>
      </trkpt>
      <trkpt lat="45.94824" lon="4.85808">
        <ele>278</ele>
        <time>2016-09-20T09:54:40Z</time>
      </trkpt>
      <trkpt lat="45.94822" lon="4.85801">
        <ele>278</ele>
        <time>2016-09-20T09:54:41Z</time>
      </trkpt>
      <trkpt lat="45.9482" lon="4.85793">
        <ele>278</ele>
        <time>2016-09-20T09:54:42Z</time>
      </trkpt>
      <trkpt lat="45.94818" lon="4.85786">
        <ele>278</ele>
        <time>2016-09-20T09:54:43Z</time>
      </trkpt>
      <trkpt lat="45.94815" lon="4.85779">
        <ele>278</ele>
        <time>2016-09-20T09:54:44Z</time>
      </trkpt>
      <trkpt lat="45.94813" lon="4.85771">
        <ele>278</ele>
        <time>2016-09-20T09:54:45Z</time>
      </trkpt>
      <trkpt lat="45.94811" lon="4.85763">
        <ele>278</ele>
        <time>2016-09-20T09:54:46Z</time>
      </trkpt>
      <trkpt lat="45.9481" lon="4.85756">
        <ele>278</ele>
        <time>2016-09-20T09:54:47Z</time>
      </trkpt>
      <trkpt lat="45.94808" lon="4.85748">
        <ele>279</ele>
        <time>2016-09-20T09:54:48Z</time>
      </trkpt>
      <trkpt lat="45.94806" lon="4.8574">
        <ele>279</ele>
        <time>2016-09-20T09:54:49Z</time>
      </trkpt>
      <trkpt lat="45.94804" lon="4.85732">
        <ele>280</ele>
        <time>2016-09-20T09:54:50Z</time>
      </trkpt>
      <trkpt lat="45.94802" lon="4.85724">
        <ele>280</ele>
        <time>2016-09-20T09:54:51Z</time>
      </trkpt>
      <trkpt lat="45.948" lon="4.85716">
        <ele>280</ele>
        <time>2016-09-20T09:54:52Z</time>
      </trkpt>
      <trkpt lat="45.94798" lon="4.85708">
        <ele>280</ele>
        <time>2016-09-20T09:54:53Z</time>
      </trkpt>
      <trkpt lat="45.94796" lon="4.85701">
        <ele>280</ele>
        <time>2016-09-20T09:54:54Z</time>
      </trkpt>
      <trkpt lat="45.94794" lon="4.85694">
        <ele>280</ele>
        <time>2016-09-20T09:54:55Z</time>
      </trkpt>
      <trkpt lat="45.94791" lon="4.85687">
        <ele>280</ele>
        <time>2016-09-20T09:54:56Z</time>
      </trkpt>
      <trkpt lat="45.94789" lon="4.8568">
        <ele>280</ele>
        <time>2016-09-20T09:54:57Z</time>
      </trkpt>
      <trkpt lat="45.94787" lon="4.85672">
        <ele>280</ele>
        <time>2016-09-20T09:54:58Z</time>
      </trkpt>
      <trkpt lat="45.94785" lon="4.85664">
        <ele>281</ele>
        <time>2016-09-20T09:54:59Z</time>
      </trkpt>
      <trkpt lat="45.94783" lon="4.85656">
        <ele>281</ele>
        <time>2016-09-20T09:55:00Z</time>
      </trkpt>
      <trkpt lat="45.94781" lon="4.85648">
        <ele>281</ele>
        <time>2016-09-20T09:55:01Z</time>
      </trkpt>
      <trkpt lat="45.94779" lon="4.8564">
        <ele>281</ele>
        <time>2016-09-20T09:55:02Z</time>
      </trkpt>
      <trkpt lat="45.94777" lon="4.85631">
        <ele>280</ele>
        <time>2016-09-20T09:55:03Z</time>
      </trkpt>
      <trkpt lat="45.94776" lon="4.85622">
        <ele>280</ele>
        <time>2016-09-20T09:55:04Z</time>
      </trkpt>
      <trkpt lat="45.94774" lon="4.85613">
        <ele>280</ele>
        <time>2016-09-20T09:55:05Z</time>
      </trkpt>
      <trkpt lat="45.94772" lon="4.85603">
        <ele>280</ele>
        <time>2016-09-20T09:55:06Z</time>
      </trkpt>
      <trkpt lat="45.9477" lon="4.85594">
        <ele>280</ele>
        <time>2016-09-20T09:55:07Z</time>
      </trkpt>
      <trkpt lat="45.94767" lon="4.85584">
        <ele>280</ele>
        <time>2016-09-20T09:55:08Z</time>
      </trkpt>
      <trkpt lat="45.94765" lon="4.85574">
        <ele>279</ele>
        <time>2016-09-20T09:55:09Z</time>
      </trkpt>
      <trkpt lat="45.94764" lon="4.85564">
        <ele>279</ele>
        <time>2016-09-20T09:55:10Z</time>
      </trkpt>
      <trkpt lat="45.94762" lon="4.85553">
        <ele>278</ele>
        <time>2016-09-20T09:55:11Z</time>
      </trkpt>
      <trkpt lat="45.9476" lon="4.85541">
        <ele>278</ele>
        <time>2016-09-20T09:55:12Z</time>
      </trkpt>
      <trkpt lat="45.94758" lon="4.85529">
        <ele>278</ele>
        <time>2016-09-20T09:55:13Z</time>
      </trkpt>
      <trkpt lat="45.94756" lon="4.85517">
        <ele>277</ele>
        <time>2016-09-20T09:55:14Z</time>
      </trkpt>
      <trkpt lat="45.94755" lon="4.85505">
        <ele>277</ele>
        <time>2016-09-20T09:55:15Z</time>
      </trkpt>
      <trkpt lat="45.94753" lon="4.85492">
        <ele>276</ele>
        <time>2016-09-20T09:55:16Z</time>
      </trkpt>
      <trkpt lat="45.94752" lon="4.85479">
        <ele>275</ele>
        <time>2016-09-20T09:55:17Z</time>
      </trkpt>
      <trkpt lat="45.9475" lon="4.85467">
        <ele>274</ele>
        <time>2016-09-20T09:55:18Z</time>
      </trkpt>
      <trkpt lat="45.94748" lon="4.85454">
        <ele>274</ele>
        <time>2016-09-20T09:55:19Z</time>
      </trkpt>
      <trkpt lat="45.94747" lon="4.85441">
        <ele>274</ele>
        <time>2016-09-20T09:55:20Z</time>
      </trkpt>
      <trkpt lat="45.94746" lon="4.85428">
        <ele>273</ele>
        <time>2016-09-20T09:55:21Z</time>
      </trkpt>
      <trkpt lat="45.94745" lon="4.85415">
        <ele>273</ele>
        <time>2016-09-20T09:55:22Z</time>
      </trkpt>
      <trkpt lat="45.94743" lon="4.85402">
        <ele>272</ele>
        <time>2016-09-20T09:55:23Z</time>
      </trkpt>
      <trkpt lat="45.94742" lon="4.85389">
        <ele>272</ele>
        <time>2016-09-20T09:55:24Z</time>
      </trkpt>
      <trkpt lat="45.94741" lon="4.85376">
        <ele>271</ele>
        <time>2016-09-20T09:55:25Z</time>
      </trkpt>
      <trkpt lat="45.94739" lon="4.85364">
        <ele>271</ele>
        <time>2016-09-20T09:55:26Z</time>
      </trkpt>
      <trkpt lat="45.94738" lon="4.85352">
        <ele>271</ele>
        <time>2016-09-20T09:55:27Z</time>
      </trkpt>
      <trkpt lat="45.94737" lon="4.8534">
        <ele>271</ele>
        <time>2016-09-20T09:55:28Z</time>
      </trkpt>
      <trkpt lat="45.94736" lon="4.85329">
        <ele>270</ele>
        <time>2016-09-20T09:55:29Z</time>
      </trkpt>
      <trkpt lat="45.94734" lon="4.85317">
        <ele>270</ele>
        <time>2016-09-20T09:55:30Z</time>
      </trkpt>
      <trkpt lat="45.94733" lon="4.85307">
        <ele>270</ele>
        <time>2016-09-20T09:55:31Z</time>
      </trkpt>
      <trkpt lat="45.94732" lon="4.85296">
        <ele>270</ele>
        <time>2016-09-20T09:55:32Z</time>
      </trkpt>
      <trkpt lat="45.9473" lon="4.85286">
        <ele>269</ele>
        <time>2016-09-20T09:55:33Z</time>
      </trkpt>
      <trkpt lat="45.94729" lon="4.85276">
        <ele>269</ele>
        <time>2016-09-20T09:55:34Z</time>
      </trkpt>
      <trkpt lat="45.94728" lon="4.85266">
        <ele>269</ele>
        <time>2016-09-20T09:55:35Z</time>
      </trkpt>
      <trkpt lat="45.94727" lon="4.85256">
        <ele>269</ele>
        <time>2016-09-20T09:55:36Z</time>
      </trkpt>
      <trkpt lat="45.94726" lon="4.85246">
        <ele>269</ele>
        <time>2016-09-20T09:55:37Z</time>
      </trkpt>
      <trkpt lat="45.94725" lon="4.85237">
        <ele>269</ele>
        <time>2016-09-20T09:55:38Z</time>
      </trkpt>
      <trkpt lat="45.94724" lon="4.85227">
        <ele>269</ele>
        <time>2016-09-20T09:55:39Z</time>
      </trkpt>
      <trkpt lat="45.94723" lon="4.85218">
        <ele>269</ele>
        <time>2016-09-20T09:55:40Z</time>
      </trkpt>
      <trkpt lat="45.94722" lon="4.85209">
        <ele>269</ele>
        <time>2016-09-20T09:55:41Z</time>
      </trkpt>
      <trkpt lat="45.94722" lon="4.852">
        <ele>269</ele>
        <time>2016-09-20T09:55:42Z</time>
      </trkpt>
      <trkpt lat="45.94721" lon="4.85191">
        <ele>269</ele>
        <time>2016-09-20T09:55:43Z</time>
      </trkpt>
      <trkpt lat="45.9472" lon="4.85182">
        <ele>269</ele>
        <time>2016-09-20T09:55:44Z</time>
      </trkpt>
      <trkpt lat="45.94719" lon="4.85173">
        <ele>269</ele>
        <time>2016-09-20T09:55:45Z</time>
      </trkpt>
      <trkpt lat="45.94718" lon="4.85164">
        <ele>269</ele>
        <time>2016-09-20T09:55:46Z</time>
      </trkpt>
      <trkpt lat="45.94717" lon="4.85155">
        <ele>269</ele>
        <time>2016-09-20T09:55:47Z</time>
      </trkpt>
      <trkpt lat="45.94716" lon="4.85146">
        <ele>269</ele>
        <time>2016-09-20T09:55:48Z</time>
      </trkpt>
      <trkpt lat="45.94715" lon="4.85137">
        <ele>269</ele>
        <time>2016-09-20T09:55:49Z</time>
      </trkpt>
      <trkpt lat="45.94714" lon="4.85127">
        <ele>269</ele>
        <time>2016-09-20T09:55:50Z</time>
      </trkpt>
      <trkpt lat="45.94713" lon="4.85118">
        <ele>269</ele>
        <time>2016-09-20T09:55:51Z</time>
      </trkpt>
      <trkpt lat="45.94712" lon="4.85109">
        <ele>269</ele>
        <time>2016-09-20T09:55:52Z</time>
      </trkpt>
      <trkpt lat="45.94711" lon="4.85099">
        <ele>269</ele>
        <time>2016-09-20T09:55:53Z</time>
      </trkpt>
      <trkpt lat="45.9471" lon="4.85089">
        <ele>269</ele>
        <time>2016-09-20T09:55:54Z</time>
      </trkpt>
      <trkpt lat="45.94709" lon="4.85079">
        <ele>269</ele>
        <time>2016-09-20T09:55:55Z</time>
      </trkpt>
      <trkpt lat="45.94708" lon="4.85069">
        <ele>269</ele>
        <time>2016-09-20T09:55:56Z</time>
      </trkpt>
      <trkpt lat="45.94707" lon="4.85059">
        <ele>269</ele>
        <time>2016-09-20T09:55:57Z</time>
      </trkpt>
      <trkpt lat="45.94706" lon="4.85049">
        <ele>269</ele>
        <time>2016-09-20T09:55:58Z</time>
      </trkpt>
      <trkpt lat="45.94705" lon="4.8504">
        <ele>269</ele>
        <time>2016-09-20T09:55:59Z</time>
      </trkpt>
      <trkpt lat="45.94704" lon="4.85031">
        <ele>269</ele>
        <time>2016-09-20T09:56:00Z</time>
      </trkpt>
      <trkpt lat="45.94703" lon="4.85021">
        <ele>269</ele>
        <time>2016-09-20T09:56:01Z</time>
      </trkpt>
      <trkpt lat="45.94702" lon="4.85012">
        <ele>269</ele>
        <time>2016-09-20T09:56:02Z</time>
      </trkpt>
      <trkpt lat="45.94701" lon="4.85004">
        <ele>269</ele>
        <time>2016-09-20T09:56:03Z</time>
      </trkpt>
      <trkpt lat="45.947" lon="4.84995">
        <ele>269</ele>
        <time>2016-09-20T09:56:04Z</time>
      </trkpt>
      <trkpt lat="45.94699" lon="4.84986">
        <ele>269</ele>
        <time>2016-09-20T09:56:05Z</time>
      </trkpt>
      <trkpt lat="45.94698" lon="4.84977">
        <ele>269</ele>
        <time>2016-09-20T09:56:06Z</time>
      </trkpt>
      <trkpt lat="45.94697" lon="4.84968">
        <ele>269</ele>
        <time>2016-09-20T09:56:07Z</time>
      </trkpt>
      <trkpt lat="45.94697" lon="4.84959">
        <ele>269</ele>
        <time>2016-09-20T09:56:08Z</time>
      </trkpt>
      <trkpt lat="45.94696" lon="4.84949">
        <ele>269</ele>
        <time>2016-09-20T09:56:09Z</time>
      </trkpt>
      <trkpt lat="45.94695" lon="4.8494">
        <ele>269</ele>
        <time>2016-09-20T09:56:10Z</time>
      </trkpt>
      <trkpt lat="45.94694" lon="4.8493">
        <ele>269</ele>
        <time>2016-09-20T09:56:11Z</time>
      </trkpt>
      <trkpt lat="45.94693" lon="4.84921">
        <ele>269</ele>
        <time>2016-09-20T09:56:12Z</time>
      </trkpt>
      <trkpt lat="45.94692" lon="4.84911">
        <ele>268</ele>
        <time>2016-09-20T09:56:13Z</time>
      </trkpt>
      <trkpt lat="45.94691" lon="4.84901">
        <ele>268</ele>
        <time>2016-09-20T09:56:14Z</time>
      </trkpt>
      <trkpt lat="45.9469" lon="4.84892">
        <ele>268</ele>
        <time>2016-09-20T09:56:15Z</time>
      </trkpt>
      <trkpt lat="45.94688" lon="4.84882">
        <ele>268</ele>
        <time>2016-09-20T09:56:16Z</time>
      </trkpt>
      <trkpt lat="45.94687" lon="4.84872">
        <ele>268</ele>
        <time>2016-09-20T09:56:17Z</time>
      </trkpt>
      <trkpt lat="45.94686" lon="4.84863">
        <ele>268</ele>
        <time>2016-09-20T09:56:18Z</time>
      </trkpt>
      <trkpt lat="45.94685" lon="4.84853">
        <ele>268</ele>
        <time>2016-09-20T09:56:19Z</time>
      </trkpt>
      <trkpt lat="45.94684" lon="4.84843">
        <ele>268</ele>
        <time>2016-09-20T09:56:20Z</time>
      </trkpt>
      <trkpt lat="45.94683" lon="4.84833">
        <ele>268</ele>
        <time>2016-09-20T09:56:21Z</time>
      </trkpt>
      <trkpt lat="45.94682" lon="4.84824">
        <ele>268</ele>
        <time>2016-09-20T09:56:22Z</time>
      </trkpt>
      <trkpt lat="45.94682" lon="4.84815">
        <ele>268</ele>
        <time>2016-09-20T09:56:23Z</time>
      </trkpt>
      <trkpt lat="45.94681" lon="4.84806">
        <ele>268</ele>
        <time>2016-09-20T09:56:24Z</time>
      </trkpt>
      <trkpt lat="45.9468" lon="4.84797">
        <ele>268</ele>
        <time>2016-09-20T09:56:25Z</time>
      </trkpt>
      <trkpt lat="45.9468" lon="4.84789">
        <ele>269</ele>
        <time>2016-09-20T09:56:26Z</time>
      </trkpt>
      <trkpt lat="45.94679" lon="4.8478">
        <ele>269</ele>
        <time>2016-09-20T09:56:27Z</time>
      </trkpt>
      <trkpt lat="45.94678" lon="4.84772">
        <ele>269</ele>
        <time>2016-09-20T09:56:28Z</time>
      </trkpt>
      <trkpt lat="45.94678" lon="4.84763">
        <ele>269</ele>
        <time>2016-09-20T09:56:29Z</time>
      </trkpt>
      <trkpt lat="45.94677" lon="4.84754">
        <ele>269</ele>
        <time>2016-09-20T09:56:30Z</time>
      </trkpt>
      <trkpt lat="45.94677" lon="4.84746">
        <ele>269</ele>
        <time>2016-09-20T09:56:31Z</time>
      </trkpt>
      <trkpt lat="45.94676" lon="4.84737">
        <ele>269</ele>
        <time>2016-09-20T09:56:32Z</time>
      </trkpt>
      <trkpt lat="45.94676" lon="4.84728">
        <ele>269</ele>
        <time>2016-09-20T09:56:33Z</time>
      </trkpt>
      <trkpt lat="45.94676" lon="4.8472">
        <ele>269</ele>
        <time>2016-09-20T09:56:34Z</time>
      </trkpt>
      <trkpt lat="45.94675" lon="4.84711">
        <ele>269</ele>
        <time>2016-09-20T09:56:35Z</time>
      </trkpt>
      <trkpt lat="45.94674" lon="4.84703">
        <ele>268</ele>
        <time>2016-09-20T09:56:36Z</time>
      </trkpt>
      <trkpt lat="45.94674" lon="4.84693">
        <ele>269</ele>
        <time>2016-09-20T09:56:37Z</time>
      </trkpt>
      <trkpt lat="45.94673" lon="4.84684">
        <ele>269</ele>
        <time>2016-09-20T09:56:38Z</time>
      </trkpt>
      <trkpt lat="45.94673" lon="4.84674">
        <ele>269</ele>
        <time>2016-09-20T09:56:39Z</time>
      </trkpt>
      <trkpt lat="45.94673" lon="4.84665">
        <ele>269</ele>
        <time>2016-09-20T09:56:40Z</time>
      </trkpt>
      <trkpt lat="45.94673" lon="4.84655">
        <ele>268</ele>
        <time>2016-09-20T09:56:41Z</time>
      </trkpt>
      <trkpt lat="45.94673" lon="4.84644">
        <ele>268</ele>
        <time>2016-09-20T09:56:42Z</time>
      </trkpt>
      <trkpt lat="45.94673" lon="4.84634">
        <ele>268</ele>
        <time>2016-09-20T09:56:43Z</time>
      </trkpt>
      <trkpt lat="45.94672" lon="4.84624">
        <ele>268</ele>
        <time>2016-09-20T09:56:44Z</time>
      </trkpt>
      <trkpt lat="45.94672" lon="4.84615">
        <ele>268</ele>
        <time>2016-09-20T09:56:45Z</time>
      </trkpt>
      <trkpt lat="45.94671" lon="4.84606">
        <ele>268</ele>
        <time>2016-09-20T09:56:46Z</time>
      </trkpt>
      <trkpt lat="45.94671" lon="4.84597">
        <ele>268</ele>
        <time>2016-09-20T09:56:47Z</time>
      </trkpt>
      <trkpt lat="45.94671" lon="4.84589">
        <ele>268</ele>
        <time>2016-09-20T09:56:48Z</time>
      </trkpt>
      <trkpt lat="45.9467" lon="4.84581">
        <ele>268</ele>
        <time>2016-09-20T09:56:49Z</time>
      </trkpt>
      <trkpt lat="45.9467" lon="4.84573">
        <ele>268</ele>
        <time>2016-09-20T09:56:50Z</time>
      </trkpt>
      <trkpt lat="45.9467" lon="4.84565">
        <ele>268</ele>
        <time>2016-09-20T09:56:51Z</time>
      </trkpt>
      <trkpt lat="45.94669" lon="4.84556">
        <ele>268</ele>
        <time>2016-09-20T09:56:52Z</time>
      </trkpt>
      <trkpt lat="45.94668" lon="4.84548">
        <ele>268</ele>
        <time>2016-09-20T09:56:53Z</time>
      </trkpt>
      <trkpt lat="45.94667" lon="4.84539">
        <ele>268</ele>
        <time>2016-09-20T09:56:54Z</time>
      </trkpt>
      <trkpt lat="45.94666" lon="4.84529">
        <ele>268</ele>
        <time>2016-09-20T09:56:55Z</time>
      </trkpt>
      <trkpt lat="45.94666" lon="4.8452">
        <ele>268</ele>
        <time>2016-09-20T09:56:56Z</time>
      </trkpt>
      <trkpt lat="45.94665" lon="4.84511">
        <ele>268</ele>
        <time>2016-09-20T09:56:57Z</time>
      </trkpt>
      <trkpt lat="45.94664" lon="4.84501">
        <ele>268</ele>
        <time>2016-09-20T09:56:58Z</time>
      </trkpt>
      <trkpt lat="45.94663" lon="4.84492">
        <ele>268</ele>
        <time>2016-09-20T09:56:59Z</time>
      </trkpt>
      <trkpt lat="45.94662" lon="4.84482">
        <ele>268</ele>
        <time>2016-09-20T09:57:00Z</time>
      </trkpt>
      <trkpt lat="45.94661" lon="4.84473">
        <ele>268</ele>
        <time>2016-09-20T09:57:01Z</time>
      </trkpt>
      <trkpt lat="45.9466" lon="4.84464">
        <ele>268</ele>
        <time>2016-09-20T09:57:02Z</time>
      </trkpt>
      <trkpt lat="45.94659" lon="4.84456">
        <ele>268</ele>
        <time>2016-09-20T09:57:03Z</time>
      </trkpt>
      <trkpt lat="45.94658" lon="4.84447">
        <ele>268</ele>
        <time>2016-09-20T09:57:04Z</time>
      </trkpt>
      <trkpt lat="45.94657" lon="4.84439">
        <ele>268</ele>
        <time>2016-09-20T09:57:05Z</time>
      </trkpt>
      <trkpt lat="45.94656" lon="4.84431">
        <ele>268</ele>
        <time>2016-09-20T09:57:06Z</time>
      </trkpt>
      <trkpt lat="45.94655" lon="4.84422">
        <ele>268</ele>
        <time>2016-09-20T09:57:07Z</time>
      </trkpt>
      <trkpt lat="45.94654" lon="4.84414">
        <ele>268</ele>
        <time>2016-09-20T09:57:08Z</time>
      </trkpt>
      <trkpt lat="45.94653" lon="4.84405">
        <ele>268</ele>
        <time>2016-09-20T09:57:09Z</time>
      </trkpt>
      <trkpt lat="45.94652" lon="4.84397">
        <ele>268</ele>
        <time>2016-09-20T09:57:10Z</time>
      </trkpt>
      <trkpt lat="45.94651" lon="4.84388">
        <ele>268</ele>
        <time>2016-09-20T09:57:11Z</time>
      </trkpt>
      <trkpt lat="45.9465" lon="4.84379">
        <ele>268</ele>
        <time>2016-09-20T09:57:12Z</time>
      </trkpt>
      <trkpt lat="45.94648" lon="4.8437">
        <ele>268</ele>
        <time>2016-09-20T09:57:13Z</time>
      </trkpt>
      <trkpt lat="45.94647" lon="4.84361">
        <ele>268</ele>
        <time>2016-09-20T09:57:14Z</time>
      </trkpt>
      <trkpt lat="45.94646" lon="4.84352">
        <ele>268</ele>
        <time>2016-09-20T09:57:15Z</time>
      </trkpt>
      <trkpt lat="45.94645" lon="4.84342">
        <ele>268</ele>
        <time>2016-09-20T09:57:16Z</time>
      </trkpt>
      <trkpt lat="45.94644" lon="4.84333">
        <ele>268</ele>
        <time>2016-09-20T09:57:17Z</time>
      </trkpt>
      <trkpt lat="45.94643" lon="4.84325">
        <ele>268</ele>
        <time>2016-09-20T09:57:18Z</time>
      </trkpt>
      <trkpt lat="45.94642" lon="4.84316">
        <ele>269</ele>
        <time>2016-09-20T09:57:19Z</time>
      </trkpt>
      <trkpt lat="45.94641" lon="4.84307">
        <ele>269</ele>
        <time>2016-09-20T09:57:20Z</time>
      </trkpt>
      <trkpt lat="45.9464" lon="4.84298">
        <ele>269</ele>
        <time>2016-09-20T09:57:21Z</time>
      </trkpt>
      <trkpt lat="45.94639" lon="4.84289">
        <ele>269</ele>
        <time>2016-09-20T09:57:22Z</time>
      </trkpt>
      <trkpt lat="45.94638" lon="4.84281">
        <ele>269</ele>
        <time>2016-09-20T09:57:23Z</time>
      </trkpt>
      <trkpt lat="45.94637" lon="4.84272">
        <ele>269</ele>
        <time>2016-09-20T09:57:24Z</time>
      </trkpt>
      <trkpt lat="45.94636" lon="4.84263">
        <ele>269</ele>
        <time>2016-09-20T09:57:25Z</time>
      </trkpt>
      <trkpt lat="45.94635" lon="4.84255">
        <ele>269</ele>
        <time>2016-09-20T09:57:26Z</time>
      </trkpt>
      <trkpt lat="45.94634" lon="4.84247">
        <ele>269</ele>
        <time>2016-09-20T09:57:27Z</time>
      </trkpt>
      <trkpt lat="45.94632" lon="4.84238">
        <ele>269</ele>
        <time>2016-09-20T09:57:28Z</time>
      </trkpt>
      <trkpt lat="45.94631" lon="4.8423">
        <ele>269</ele>
        <time>2016-09-20T09:57:29Z</time>
      </trkpt>
      <trkpt lat="45.9463" lon="4.84222">
        <ele>269</ele>
        <time>2016-09-20T09:57:30Z</time>
      </trkpt>
      <trkpt lat="45.94629" lon="4.84213">
        <ele>269</ele>
        <time>2016-09-20T09:57:31Z</time>
      </trkpt>
      <trkpt lat="45.94627" lon="4.84205">
        <ele>269</ele>
        <time>2016-09-20T09:57:32Z</time>
      </trkpt>
      <trkpt lat="45.94626" lon="4.84196">
        <ele>269</ele>
        <time>2016-09-20T09:57:33Z</time>
      </trkpt>
      <trkpt lat="45.94625" lon="4.84188">
        <ele>269</ele>
        <time>2016-09-20T09:57:34Z</time>
      </trkpt>
      <trkpt lat="45.94623" lon="4.84179">
        <ele>269</ele>
        <time>2016-09-20T09:57:35Z</time>
      </trkpt>
      <trkpt lat="45.94621" lon="4.84169">
        <ele>269</ele>
        <time>2016-09-20T09:57:36Z</time>
      </trkpt>
      <trkpt lat="45.9462" lon="4.8416">
        <ele>269</ele>
        <time>2016-09-20T09:57:37Z</time>
      </trkpt>
      <trkpt lat="45.94619" lon="4.8415">
        <ele>269</ele>
        <time>2016-09-20T09:57:38Z</time>
      </trkpt>
      <trkpt lat="45.94617" lon="4.8414">
        <ele>269</ele>
        <time>2016-09-20T09:57:39Z</time>
      </trkpt>
      <trkpt lat="45.94616" lon="4.8413">
        <ele>269</ele>
        <time>2016-09-20T09:57:40Z</time>
      </trkpt>
      <trkpt lat="45.94614" lon="4.8412">
        <ele>269</ele>
        <time>2016-09-20T09:57:41Z</time>
      </trkpt>
      <trkpt lat="45.94612" lon="4.84109">
        <ele>269</ele>
        <time>2016-09-20T09:57:42Z</time>
      </trkpt>
      <trkpt lat="45.94611" lon="4.841">
        <ele>269</ele>
        <time>2016-09-20T09:57:43Z</time>
      </trkpt>
      <trkpt lat="45.94609" lon="4.8409">
        <ele>269</ele>
        <time>2016-09-20T09:57:44Z</time>
      </trkpt>
      <trkpt lat="45.94607" lon="4.8408">
        <ele>269</ele>
        <time>2016-09-20T09:57:45Z</time>
      </trkpt>
      <trkpt lat="45.94606" lon="4.8407">
        <ele>269</ele>
        <time>2016-09-20T09:57:46Z</time>
      </trkpt>
      <trkpt lat="45.94604" lon="4.84061">
        <ele>269</ele>
        <time>2016-09-20T09:57:47Z</time>
      </trkpt>
      <trkpt lat="45.94602" lon="4.84052">
        <ele>269</ele>
        <time>2016-09-20T09:57:48Z</time>
      </trkpt>
      <trkpt lat="45.94601" lon="4.84042">
        <ele>269</ele>
        <time>2016-09-20T09:57:49Z</time>
      </trkpt>
      <trkpt lat="45.94599" lon="4.84033">
        <ele>269</ele>
        <time>2016-09-20T09:57:50Z</time>
      </trkpt>
      <trkpt lat="45.94598" lon="4.84024">
        <ele>269</ele>
        <time>2016-09-20T09:57:51Z</time>
      </trkpt>
      <trkpt lat="45.94596" lon="4.84015">
        <ele>269</ele>
        <time>2016-09-20T09:57:52Z</time>
      </trkpt>
      <trkpt lat="45.94595" lon="4.84006">
        <ele>269</ele>
        <time>2016-09-20T09:57:53Z</time>
      </trkpt>
      <trkpt lat="45.94594" lon="4.83997">
        <ele>269</ele>
        <time>2016-09-20T09:57:54Z</time>
      </trkpt>
      <trkpt lat="45.94593" lon="4.83988">
        <ele>269</ele>
        <time>2016-09-20T09:57:55Z</time>
      </trkpt>
      <trkpt lat="45.94592" lon="4.83979">
        <ele>268</ele>
        <time>2016-09-20T09:57:56Z</time>
      </trkpt>
      <trkpt lat="45.94591" lon="4.8397">
        <ele>268</ele>
        <time>2016-09-20T09:57:57Z</time>
      </trkpt>
      <trkpt lat="45.94589" lon="4.83961">
        <ele>268</ele>
        <time>2016-09-20T09:57:58Z</time>
      </trkpt>
      <trkpt lat="45.94588" lon="4.83952">
        <ele>268</ele>
        <time>2016-09-20T09:57:59Z</time>
      </trkpt>
      <trkpt lat="45.94587" lon="4.83942">
        <ele>268</ele>
        <time>2016-09-20T09:58:00Z</time>
      </trkpt>
      <trkpt lat="45.94585" lon="4.83933">
        <ele>268</ele>
        <time>2016-09-20T09:58:01Z</time>
      </trkpt>
      <trkpt lat="45.94584" lon="4.83923">
        <ele>268</ele>
        <time>2016-09-20T09:58:02Z</time>
      </trkpt>
      <trkpt lat="45.94582" lon="4.83913">
        <ele>268</ele>
        <time>2016-09-20T09:58:03Z</time>
      </trkpt>
      <trkpt lat="45.9458" lon="4.83903">
        <ele>268</ele>
        <time>2016-09-20T09:58:04Z</time>
      </trkpt>
      <trkpt lat="45.94578" lon="4.83892">
        <ele>267</ele>
        <time>2016-09-20T09:58:05Z</time>
      </trkpt>
      <trkpt lat="45.94576" lon="4.8388">
        <ele>267</ele>
        <time>2016-09-20T09:58:06Z</time>
      </trkpt>
      <trkpt lat="45.94575" lon="4.83868">
        <ele>267</ele>
        <time>2016-09-20T09:58:07Z</time>
      </trkpt>
      <trkpt lat="45.94573" lon="4.83855">
        <ele>266</ele>
        <time>2016-09-20T09:58:08Z</time>
      </trkpt>
      <trkpt lat="45.94571" lon="4.83842">
        <ele>266</ele>
        <time>2016-09-20T09:58:09Z</time>
      </trkpt>
      <trkpt lat="45.94569" lon="4.8383">
        <ele>265</ele>
        <time>2016-09-20T09:58:10Z</time>
      </trkpt>
      <trkpt lat="45.94567" lon="4.83818">
        <ele>264</ele>
        <time>2016-09-20T09:58:11Z</time>
      </trkpt>
      <trkpt lat="45.94565" lon="4.83806">
        <ele>264</ele>
        <time>2016-09-20T09:58:12Z</time>
      </trkpt>
      <trkpt lat="45.94563" lon="4.83793">
        <ele>264</ele>
        <time>2016-09-20T09:58:13Z</time>
      </trkpt>
      <trkpt lat="45.94561" lon="4.83781">
        <ele>264</ele>
        <time>2016-09-20T09:58:14Z</time>
      </trkpt>
      <trkpt lat="45.9456" lon="4.8377">
        <ele>263</ele>
        <time>2016-09-20T09:58:15Z</time>
      </trkpt>
      <trkpt lat="45.94558" lon="4.83758">
        <ele>263</ele>
        <time>2016-09-20T09:58:16Z</time>
      </trkpt>
      <trkpt lat="45.94556" lon="4.83747">
        <ele>262</ele>
        <time>2016-09-20T09:58:17Z</time>
      </trkpt>
      <trkpt lat="45.94554" lon="4.83736">
        <ele>262</ele>
        <time>2016-09-20T09:58:18Z</time>
      </trkpt>
      <trkpt lat="45.94552" lon="4.83726">
        <ele>262</ele>
        <time>2016-09-20T09:58:19Z</time>
      </trkpt>
      <trkpt lat="45.94551" lon="4.83716">
        <ele>262</ele>
        <time>2016-09-20T09:58:20Z</time>
      </trkpt>
      <trkpt lat="45.94549" lon="4.83705">
        <ele>262</ele>
        <time>2016-09-20T09:58:21Z</time>
      </trkpt>
      <trkpt lat="45.94547" lon="4.83695">
        <ele>262</ele>
        <time>2016-09-20T09:58:22Z</time>
      </trkpt>
      <trkpt lat="45.94546" lon="4.83685">
        <ele>262</ele>
        <time>2016-09-20T09:58:23Z</time>
      </trkpt>
      <trkpt lat="45.94544" lon="4.83675">
        <ele>262</ele>
        <time>2016-09-20T09:58:24Z</time>
      </trkpt>
      <trkpt lat="45.94543" lon="4.83665">
        <ele>261</ele>
        <time>2016-09-20T09:58:25Z</time>
      </trkpt>
      <trkpt lat="45.94541" lon="4.83656">
        <ele>261</ele>
        <time>2016-09-20T09:58:26Z</time>
      </trkpt>
      <trkpt lat="45.9454" lon="4.83646">
        <ele>261</ele>
        <time>2016-09-20T09:58:27Z</time>
      </trkpt>
      <trkpt lat="45.94538" lon="4.83637">
        <ele>261</ele>
        <time>2016-09-20T09:58:28Z</time>
      </trkpt>
      <trkpt lat="45.94537" lon="4.83629">
        <ele>261</ele>
        <time>2016-09-20T09:58:29Z</time>
      </trkpt>
      <trkpt lat="45.94535" lon="4.8362">
        <ele>261</ele>
        <time>2016-09-20T09:58:30Z</time>
      </trkpt>
      <trkpt lat="45.94534" lon="4.83612">
        <ele>261</ele>
        <time>2016-09-20T09:58:31Z</time>
      </trkpt>
      <trkpt lat="45.94532" lon="4.83603">
        <ele>261</ele>
        <time>2016-09-20T09:58:32Z</time>
      </trkpt>
      <trkpt lat="45.94529" lon="4.83594">
        <ele>261</ele>
        <time>2016-09-20T09:58:33Z</time>
      </trkpt>
      <trkpt lat="45.94527" lon="4.83585">
        <ele>261</ele>
        <time>2016-09-20T09:58:34Z</time>
      </trkpt>
      <trkpt lat="45.94524" lon="4.83576">
        <ele>261</ele>
        <time>2016-09-20T09:58:35Z</time>
      </trkpt>
      <trkpt lat="45.94522" lon="4.83567">
        <ele>261</ele>
        <time>2016-09-20T09:58:36Z</time>
      </trkpt>
      <trkpt lat="45.94518" lon="4.83559">
        <ele>261</ele>
        <time>2016-09-20T09:58:37Z</time>
      </trkpt>
      <trkpt lat="45.94514" lon="4.8355">
        <ele>261</ele>
        <time>2016-09-20T09:58:38Z</time>
      </trkpt>
      <trkpt lat="45.9451" lon="4.83542">
        <ele>261</ele>
        <time>2016-09-20T09:58:39Z</time>
      </trkpt>
      <trkpt lat="45.94505" lon="4.83535">
        <ele>262</ele>
        <time>2016-09-20T09:58:40Z</time>
      </trkpt>
      <trkpt lat="45.945" lon="4.83527">
        <ele>262</ele>
        <time>2016-09-20T09:58:41Z</time>
      </trkpt>
      <trkpt lat="45.94496" lon="4.83519">
        <ele>262</ele>
        <time>2016-09-20T09:58:42Z</time>
      </trkpt>
      <trkpt lat="45.94491" lon="4.83512">
        <ele>262</ele>
        <time>2016-09-20T09:58:43Z</time>
      </trkpt>
      <trkpt lat="45.94487" lon="4.83504">
        <ele>262</ele>
        <time>2016-09-20T09:58:44Z</time>
      </trkpt>
      <trkpt lat="45.94482" lon="4.83497">
        <ele>263</ele>
        <time>2016-09-20T09:58:45Z</time>
      </trkpt>
      <trkpt lat="45.94477" lon="4.83489">
        <ele>263</ele>
        <time>2016-09-20T09:58:46Z</time>
      </trkpt>
      <trkpt lat="45.94473" lon="4.83482">
        <ele>263</ele>
        <time>2016-09-20T09:58:47Z</time>
      </trkpt>
      <trkpt lat="45.94468" lon="4.83474">
        <ele>263</ele>
        <time>2016-09-20T09:58:48Z</time>
      </trkpt>
      <trkpt lat="45.94464" lon="4.83466">
        <ele>263</ele>
        <time>2016-09-20T09:58:49Z</time>
      </trkpt>
      <trkpt lat="45.9446" lon="4.83459">
        <ele>263</ele>
        <time>2016-09-20T09:58:50Z</time>
      </trkpt>
      <trkpt lat="45.94456" lon="4.83452">
        <ele>263</ele>
        <time>2016-09-20T09:58:51Z</time>
      </trkpt>
      <trkpt lat="45.94452" lon="4.83445">
        <ele>263</ele>
        <time>2016-09-20T09:58:52Z</time>
      </trkpt>
      <trkpt lat="45.94448" lon="4.83438">
        <ele>263</ele>
        <time>2016-09-20T09:58:53Z</time>
      </trkpt>
      <trkpt lat="45.94444" lon="4.83431">
        <ele>263</ele>
        <time>2016-09-20T09:58:54Z</time>
      </trkpt>
      <trkpt lat="45.94441" lon="4.83424">
        <ele>264</ele>
        <time>2016-09-20T09:58:55Z</time>
      </trkpt>
      <trkpt lat="45.94437" lon="4.83417">
        <ele>264</ele>
        <time>2016-09-20T09:58:56Z</time>
      </trkpt>
      <trkpt lat="45.94434" lon="4.83411">
        <ele>264</ele>
        <time>2016-09-20T09:58:57Z</time>
      </trkpt>
      <trkpt lat="45.94431" lon="4.83404">
        <ele>264</ele>
        <time>2016-09-20T09:58:58Z</time>
      </trkpt>
      <trkpt lat="45.94428" lon="4.83397">
        <ele>264</ele>
        <time>2016-09-20T09:58:59Z</time>
      </trkpt>
      <trkpt lat="45.94425" lon="4.83391">
        <ele>264</ele>
        <time>2016-09-20T09:59:00Z</time>
      </trkpt>
      <trkpt lat="45.94422" lon="4.83384">
        <ele>264</ele>
        <time>2016-09-20T09:59:01Z</time>
      </trkpt>
      <trkpt lat="45.94419" lon="4.83377">
        <ele>264</ele>
        <time>2016-09-20T09:59:02Z</time>
      </trkpt>
      <trkpt lat="45.94416" lon="4.8337">
        <ele>264</ele>
        <time>2016-09-20T09:59:03Z</time>
      </trkpt>
      <trkpt lat="45.94413" lon="4.83364">
        <ele>264</ele>
        <time>2016-09-20T09:59:04Z</time>
      </trkpt>
      <trkpt lat="45.9441" lon="4.83357">
        <ele>263</ele>
        <time>2016-09-20T09:59:05Z</time>
      </trkpt>
      <trkpt lat="45.94408" lon="4.8335">
        <ele>263</ele>
        <time>2016-09-20T09:59:06Z</time>
      </trkpt>
      <trkpt lat="45.94405" lon="4.83343">
        <ele>263</ele>
        <time>2016-09-20T09:59:07Z</time>
      </trkpt>
      <trkpt lat="45.94402" lon="4.83336">
        <ele>263</ele>
        <time>2016-09-20T09:59:08Z</time>
      </trkpt>
      <trkpt lat="45.94399" lon="4.83328">
        <ele>264</ele>
        <time>2016-09-20T09:59:09Z</time>
      </trkpt>
      <trkpt lat="45.94396" lon="4.83321">
        <ele>264</ele>
        <time>2016-09-20T09:59:10Z</time>
      </trkpt>
      <trkpt lat="45.94393" lon="4.83313">
        <ele>264</ele>
        <time>2016-09-20T09:59:11Z</time>
      </trkpt>
      <trkpt lat="45.94391" lon="4.83306">
        <ele>264</ele>
        <time>2016-09-20T09:59:12Z</time>
      </trkpt>
      <trkpt lat="45.94388" lon="4.83298">
        <ele>264</ele>
        <time>2016-09-20T09:59:13Z</time>
      </trkpt>
      <trkpt lat="45.94385" lon="4.83291">
        <ele>264</ele>
        <time>2016-09-20T09:59:14Z</time>
      </trkpt>
      <trkpt lat="45.94382" lon="4.83284">
        <ele>264</ele>
        <time>2016-09-20T09:59:15Z</time>
      </trkpt>
      <trkpt lat="45.9438" lon="4.83277">
        <ele>264</ele>
        <time>2016-09-20T09:59:16Z</time>
      </trkpt>
      <trkpt lat="45.94378" lon="4.83269">
        <ele>264</ele>
        <time>2016-09-20T09:59:17Z</time>
      </trkpt>
      <trkpt lat="45.94375" lon="4.83262">
        <ele>264</ele>
        <time>2016-09-20T09:59:18Z</time>
      </trkpt>
      <trkpt lat="45.94373" lon="4.83255">
        <ele>265</ele>
        <time>2016-09-20T09:59:19Z</time>
      </trkpt>
      <trkpt lat="45.9437" lon="4.83248">
        <ele>265</ele>
        <time>2016-09-20T09:59:20Z</time>
      </trkpt>
      <trkpt lat="45.94367" lon="4.8324">
        <ele>265</ele>
        <time>2016-09-20T09:59:21Z</time>
      </trkpt>
      <trkpt lat="45.94365" lon="4.83232">
        <ele>266</ele>
        <time>2016-09-20T09:59:22Z</time>
      </trkpt>
      <trkpt lat="45.94362" lon="4.83224">
        <ele>266</ele>
        <time>2016-09-20T09:59:23Z</time>
      </trkpt>
      <trkpt lat="45.94359" lon="4.83216">
        <ele>266</ele>
        <time>2016-09-20T09:59:24Z</time>
      </trkpt>
      <trkpt lat="45.94356" lon="4.83208">
        <ele>266</ele>
        <time>2016-09-20T09:59:25Z</time>
      </trkpt>
      <trkpt lat="45.94353" lon="4.832">
        <ele>266</ele>
        <time>2016-09-20T09:59:26Z</time>
      </trkpt>
      <trkpt lat="45.94351" lon="4.83192">
        <ele>266</ele>
        <time>2016-09-20T09:59:27Z</time>
      </trkpt>
      <trkpt lat="45.94348" lon="4.83184">
        <ele>266</ele>
        <time>2016-09-20T09:59:28Z</time>
      </trkpt>
      <trkpt lat="45.94345" lon="4.83177">
        <ele>266</ele>
        <time>2016-09-20T09:59:29Z</time>
      </trkpt>
      <trkpt lat="45.94343" lon="4.8317">
        <ele>266</ele>
        <time>2016-09-20T09:59:30Z</time>
      </trkpt>
      <trkpt lat="45.9434" lon="4.83163">
        <ele>266</ele>
        <time>2016-09-20T09:59:31Z</time>
      </trkpt>
      <trkpt lat="45.94338" lon="4.83157">
        <ele>266</ele>
        <time>2016-09-20T09:59:32Z</time>
      </trkpt>
      <trkpt lat="45.94336" lon="4.8315">
        <ele>266</ele>
        <time>2016-09-20T09:59:33Z</time>
      </trkpt>
      <trkpt lat="45.94334" lon="4.83143">
        <ele>266</ele>
        <time>2016-09-20T09:59:34Z</time>
      </trkpt>
      <trkpt lat="45.94331" lon="4.83136">
        <ele>266</ele>
        <time>2016-09-20T09:59:35Z</time>
      </trkpt>
      <trkpt lat="45.94329" lon="4.83129">
        <ele>266</ele>
        <time>2016-09-20T09:59:36Z</time>
      </trkpt>
      <trkpt lat="45.94326" lon="4.83122">
        <ele>266</ele>
        <time>2016-09-20T09:59:37Z</time>
      </trkpt>
      <trkpt lat="45.94324" lon="4.83114">
        <ele>266</ele>
        <time>2016-09-20T09:59:38Z</time>
      </trkpt>
      <trkpt lat="45.94322" lon="4.83107">
        <ele>266</ele>
        <time>2016-09-20T09:59:39Z</time>
      </trkpt>
      <trkpt lat="45.9432" lon="4.83099">
        <ele>266</ele>
        <time>2016-09-20T09:59:40Z</time>
      </trkpt>
      <trkpt lat="45.94318" lon="4.83091">
        <ele>266</ele>
        <time>2016-09-20T09:59:41Z</time>
      </trkpt>
      <trkpt lat="45.94316" lon="4.83083">
        <ele>266</ele>
        <time>2016-09-20T09:59:42Z</time>
      </trkpt>
      <trkpt lat="45.94314" lon="4.83076">
        <ele>266</ele>
        <time>2016-09-20T09:59:43Z</time>
      </trkpt>
      <trkpt lat="45.94312" lon="4.83068">
        <ele>266</ele>
        <time>2016-09-20T09:59:44Z</time>
      </trkpt>
      <trkpt lat="45.9431" lon="4.8306">
        <ele>266</ele>
        <time>2016-09-20T09:59:45Z</time>
      </trkpt>
      <trkpt lat="45.94308" lon="4.83052">
        <ele>266</ele>
        <time>2016-09-20T09:59:46Z</time>
      </trkpt>
      <trkpt lat="45.94307" lon="4.83044">
        <ele>266</ele>
        <time>2016-09-20T09:59:47Z</time>
      </trkpt>
      <trkpt lat="45.94305" lon="4.83037">
        <ele>266</ele>
        <time>2016-09-20T09:59:48Z</time>
      </trkpt>
      <trkpt lat="45.94304" lon="4.8303">
        <ele>266</ele>
        <time>2016-09-20T09:59:49Z</time>
      </trkpt>
      <trkpt lat="45.94302" lon="4.83023">
        <ele>266</ele>
        <time>2016-09-20T09:59:50Z</time>
      </trkpt>
      <trkpt lat="45.94301" lon="4.83017">
        <ele>266</ele>
        <time>2016-09-20T09:59:51Z</time>
      </trkpt>
      <trkpt lat="45.94299" lon="4.83011">
        <ele>266</ele>
        <time>2016-09-20T09:59:52Z</time>
      </trkpt>
      <trkpt lat="45.94298" lon="4.83004">
        <ele>266</ele>
        <time>2016-09-20T09:59:53Z</time>
      </trkpt>
      <trkpt lat="45.94296" lon="4.82998">
        <ele>265</ele>
        <time>2016-09-20T09:59:54Z</time>
      </trkpt>
      <trkpt lat="45.94294" lon="4.82991">
        <ele>265</ele>
        <time>2016-09-20T09:59:55Z</time>
      </trkpt>
      <trkpt lat="45.94293" lon="4.82984">
        <ele>265</ele>
        <time>2016-09-20T09:59:56Z</time>
      </trkpt>
      <trkpt lat="45.94291" lon="4.82977">
        <ele>265</ele>
        <time>2016-09-20T09:59:57Z</time>
      </trkpt>
      <trkpt lat="45.94288" lon="4.8297">
        <ele>265</ele>
        <time>2016-09-20T09:59:58Z</time>
      </trkpt>
      <trkpt lat="45.94286" lon="4.82962">
        <ele>265</ele>
        <time>2016-09-20T09:59:59Z</time>
      </trkpt>
      <trkpt lat="45.94285" lon="4.82955">
        <ele>265</ele>
        <time>2016-09-20T10:00:00Z</time>
      </trkpt>
      <trkpt lat="45.94285" lon="4.82947">
        <ele>265</ele>
        <time>2016-09-20T10:00:01Z</time>
      </trkpt>
      <trkpt lat="45.94286" lon="4.82939">
        <ele>265</ele>
        <time>2016-09-20T10:00:02Z</time>
      </trkpt>
      <trkpt lat="45.94287" lon="4.82932">
        <ele>265</ele>
        <time>2016-09-20T10:00:03Z</time>
      </trkpt>
      <trkpt lat="45.94288" lon="4.82924">
        <ele>265</ele>
        <time>2016-09-20T10:00:04Z</time>
      </trkpt>
      <trkpt lat="45.94289" lon="4.82918">
        <ele>265</ele>
        <time>2016-09-20T10:00:05Z</time>
      </trkpt>
      <trkpt lat="45.9429" lon="4.8291">
        <ele>265</ele>
        <time>2016-09-20T10:00:06Z</time>
      </trkpt>
      <trkpt lat="45.94291" lon="4.82902">
        <ele>265</ele>
        <time>2016-09-20T10:00:07Z</time>
      </trkpt>
      <trkpt lat="45.94292" lon="4.82893">
        <ele>265</ele>
        <time>2016-09-20T10:00:08Z</time>
      </trkpt>
      <trkpt lat="45.94292" lon="4.82885">
        <ele>265</ele>
        <time>2016-09-20T10:00:09Z</time>
      </trkpt>
      <trkpt lat="45.94293" lon="4.82876">
        <ele>265</ele>
        <time>2016-09-20T10:00:10Z</time>
      </trkpt>
      <trkpt lat="45.94293" lon="4.82867">
        <ele>265</ele>
        <time>2016-09-20T10:00:11Z</time>
      </trkpt>
      <trkpt lat="45.94294" lon="4.82858">
        <ele>265</ele>
        <time>2016-09-20T10:00:12Z</time>
      </trkpt>
      <trkpt lat="45.94294" lon="4.82849">
        <ele>265</ele>
        <time>2016-09-20T10:00:13Z</time>
      </trkpt>
      <trkpt lat="45.94294" lon="4.8284">
        <ele>265</ele>
        <time>2016-09-20T10:00:14Z</time>
      </trkpt>
      <trkpt lat="45.94294" lon="4.82831">
        <ele>265</ele>
        <time>2016-09-20T10:00:15Z</time>
      </trkpt>
      <trkpt lat="45.94295" lon="4.82823">
        <ele>265</ele>
        <time>2016-09-20T10:00:16Z</time>
      </trkpt>
      <trkpt lat="45.94295" lon="4.82815">
        <ele>265</ele>
        <time>2016-09-20T10:00:17Z</time>
      </trkpt>
      <trkpt lat="45.94295" lon="4.82807">
        <ele>265</ele>
        <time>2016-09-20T10:00:18Z</time>
      </trkpt>
      <trkpt lat="45.94295" lon="4.82799">
        <ele>265</ele>
        <time>2016-09-20T10:00:19Z</time>
      </trkpt>
      <trkpt lat="45.94295" lon="4.82791">
        <ele>265</ele>
        <time>2016-09-20T10:00:20Z</time>
      </trkpt>
      <trkpt lat="45.94295" lon="4.82783">
        <ele>265</ele>
        <time>2016-09-20T10:00:21Z</time>
      </trkpt>
      <trkpt lat="45.94295" lon="4.82775">
        <ele>265</ele>
        <time>2016-09-20T10:00:22Z</time>
      </trkpt>
      <trkpt lat="45.94296" lon="4.82766">
        <ele>265</ele>
        <time>2016-09-20T10:00:23Z</time>
      </trkpt>
      <trkpt lat="45.94296" lon="4.82758">
        <ele>265</ele>
        <time>2016-09-20T10:00:24Z</time>
      </trkpt>
      <trkpt lat="45.94296" lon="4.8275">
        <ele>265</ele>
        <time>2016-09-20T10:00:25Z</time>
      </trkpt>
      <trkpt lat="45.94296" lon="4.82741">
        <ele>265</ele>
        <time>2016-09-20T10:00:26Z</time>
      </trkpt>
      <trkpt lat="45.94296" lon="4.82733">
        <ele>265</ele>
        <time>2016-09-20T10:00:27Z</time>
      </trkpt>
      <trkpt lat="45.94296" lon="4.82724">
        <ele>265</ele>
        <time>2016-09-20T10:00:28Z</time>
      </trkpt>
      <trkpt lat="45.94296" lon="4.82715">
        <ele>265</ele>
        <time>2016-09-20T10:00:29Z</time>
      </trkpt>
      <trkpt lat="45.94296" lon="4.82706">
        <ele>265</ele>
        <time>2016-09-20T10:00:30Z</time>
      </trkpt>
      <trkpt lat="45.94296" lon="4.82696">
        <ele>265</ele>
        <time>2016-09-20T10:00:31Z</time>
      </trkpt>
      <trkpt lat="45.94297" lon="4.82687">
        <ele>265</ele>
        <time>2016-09-20T10:00:32Z</time>
      </trkpt>
      <trkpt lat="45.94297" lon="4.82678">
        <ele>265</ele>
        <time>2016-09-20T10:00:33Z</time>
      </trkpt>
      <trkpt lat="45.94297" lon="4.8267">
        <ele>265</ele>
        <time>2016-09-20T10:00:34Z</time>
      </trkpt>
      <trkpt lat="45.94297" lon="4.82662">
        <ele>265</ele>
        <time>2016-09-20T10:00:35Z</time>
      </trkpt>
      <trkpt lat="45.94297" lon="4.82654">
        <ele>265</ele>
        <time>2016-09-20T10:00:36Z</time>
      </trkpt>
      <trkpt lat="45.94297" lon="4.82646">
        <ele>265</ele>
        <time>2016-09-20T10:00:37Z</time>
      </trkpt>
      <trkpt lat="45.94297" lon="4.82638">
        <ele>265</ele>
        <time>2016-09-20T10:00:38Z</time>
      </trkpt>
      <trkpt lat="45.94297" lon="4.8263">
        <ele>265</ele>
        <time>2016-09-20T10:00:39Z</time>
      </trkpt>
      <trkpt lat="45.94297" lon="4.82621">
        <ele>265</ele>
        <time>2016-09-20T10:00:40Z</time>
      </trkpt>
      <trkpt lat="45.94297" lon="4.82612">
        <ele>265</ele>
        <time>2016-09-20T10:00:41Z</time>
      </trkpt>
      <trkpt lat="45.94298" lon="4.82603">
        <ele>265</ele>
        <time>2016-09-20T10:00:42Z</time>
      </trkpt>
      <trkpt lat="45.94298" lon="4.82594">
        <ele>265</ele>
        <time>2016-09-20T10:00:43Z</time>
      </trkpt>
      <trkpt lat="45.94299" lon="4.82585">
        <ele>265</ele>
        <time>2016-09-20T10:00:44Z</time>
      </trkpt>
      <trkpt lat="45.94299" lon="4.82577">
        <ele>264</ele>
        <time>2016-09-20T10:00:45Z</time>
      </trkpt>
      <trkpt lat="45.94299" lon="4.82568">
        <ele>264</ele>
        <time>2016-09-20T10:00:46Z</time>
      </trkpt>
      <trkpt lat="45.94299" lon="4.82561">
        <ele>264</ele>
        <time>2016-09-20T10:00:47Z</time>
      </trkpt>
      <trkpt lat="45.94299" lon="4.82553">
        <ele>264</ele>
        <time>2016-09-20T10:00:48Z</time>
      </trkpt>
      <trkpt lat="45.94299" lon="4.82545">
        <ele>264</ele>
        <time>2016-09-20T10:00:49Z</time>
      </trkpt>
      <trkpt lat="45.94299" lon="4.82537">
        <ele>264</ele>
        <time>2016-09-20T10:00:50Z</time>
      </trkpt>
      <trkpt lat="45.94299" lon="4.8253">
        <ele>264</ele>
        <time>2016-09-20T10:00:51Z</time>
      </trkpt>
      <trkpt lat="45.94299" lon="4.82522">
        <ele>264</ele>
        <time>2016-09-20T10:00:52Z</time>
      </trkpt>
      <trkpt lat="45.94299" lon="4.82513">
        <ele>264</ele>
        <time>2016-09-20T10:00:53Z</time>
      </trkpt>
      <trkpt lat="45.94299" lon="4.82505">
        <ele>264</ele>
        <time>2016-09-20T10:00:54Z</time>
      </trkpt>
      <trkpt lat="45.94299" lon="4.82496">
        <ele>264</ele>
        <time>2016-09-20T10:00:55Z</time>
      </trkpt>
      <trkpt lat="45.94298" lon="4.82488">
        <ele>264</ele>
        <time>2016-09-20T10:00:56Z</time>
      </trkpt>
      <trkpt lat="45.94298" lon="4.82478">
        <ele>264</ele>
        <time>2016-09-20T10:00:57Z</time>
      </trkpt>
      <trkpt lat="45.94298" lon="4.82469">
        <ele>264</ele>
        <time>2016-09-20T10:00:58Z</time>
      </trkpt>
      <trkpt lat="45.94297" lon="4.8246">
        <ele>264</ele>
        <time>2016-09-20T10:00:59Z</time>
      </trkpt>
      <trkpt lat="45.94297" lon="4.8245">
        <ele>264</ele>
        <time>2016-09-20T10:01:00Z</time>
      </trkpt>
      <trkpt lat="45.94297" lon="4.82441">
        <ele>264</ele>
        <time>2016-09-20T10:01:01Z</time>
      </trkpt>
      <trkpt lat="45.94296" lon="4.82432">
        <ele>264</ele>
        <time>2016-09-20T10:01:02Z</time>
      </trkpt>
      <trkpt lat="45.94295" lon="4.82422">
        <ele>264</ele>
        <time>2016-09-20T10:01:03Z</time>
      </trkpt>
      <trkpt lat="45.94295" lon="4.82413">
        <ele>264</ele>
        <time>2016-09-20T10:01:04Z</time>
      </trkpt>
      <trkpt lat="45.94294" lon="4.82404">
        <ele>264</ele>
        <time>2016-09-20T10:01:05Z</time>
      </trkpt>
      <trkpt lat="45.94294" lon="4.82395">
        <ele>264</ele>
        <time>2016-09-20T10:01:06Z</time>
      </trkpt>
      <trkpt lat="45.94293" lon="4.82386">
        <ele>264</ele>
        <time>2016-09-20T10:01:07Z</time>
      </trkpt>
      <trkpt lat="45.94293" lon="4.82376">
        <ele>264</ele>
        <time>2016-09-20T10:01:08Z</time>
      </trkpt>
      <trkpt lat="45.94292" lon="4.82367">
        <ele>264</ele>
        <time>2016-09-20T10:01:09Z</time>
      </trkpt>
      <trkpt lat="45.94292" lon="4.82357">
        <ele>264</ele>
        <time>2016-09-20T10:01:10Z</time>
      </trkpt>
      <trkpt lat="45.94292" lon="4.82348">
        <ele>264</ele>
        <time>2016-09-20T10:01:11Z</time>
      </trkpt>
      <trkpt lat="45.94291" lon="4.82339">
        <ele>264</ele>
        <time>2016-09-20T10:01:12Z</time>
      </trkpt>
      <trkpt lat="45.94291" lon="4.82329">
        <ele>265</ele>
        <time>2016-09-20T10:01:13Z</time>
      </trkpt>
      <trkpt lat="45.9429" lon="4.82319">
        <ele>265</ele>
        <time>2016-09-20T10:01:14Z</time>
      </trkpt>
      <trkpt lat="45.9429" lon="4.82309">
        <ele>265</ele>
        <time>2016-09-20T10:01:15Z</time>
      </trkpt>
      <trkpt lat="45.94289" lon="4.823">
        <ele>265</ele>
        <time>2016-09-20T10:01:16Z</time>
      </trkpt>
      <trkpt lat="45.94289" lon="4.8229">
        <ele>265</ele>
        <time>2016-09-20T10:01:17Z</time>
      </trkpt>
      <trkpt lat="45.94289" lon="4.82281">
        <ele>265</ele>
        <time>2016-09-20T10:01:18Z</time>
      </trkpt>
      <trkpt lat="45.94288" lon="4.82272">
        <ele>265</ele>
        <time>2016-09-20T10:01:19Z</time>
      </trkpt>
      <trkpt lat="45.94288" lon="4.82263">
        <ele>265</ele>
        <time>2016-09-20T10:01:20Z</time>
      </trkpt>
      <trkpt lat="45.94287" lon="4.82253">
        <ele>265</ele>
        <time>2016-09-20T10:01:21Z</time>
      </trkpt>
      <trkpt lat="45.94287" lon="4.82245">
        <ele>264</ele>
        <time>2016-09-20T10:01:22Z</time>
      </trkpt>
      <trkpt lat="45.94286" lon="4.82236">
        <ele>264</ele>
        <time>2016-09-20T10:01:23Z</time>
      </trkpt>
      <trkpt lat="45.94286" lon="4.82227">
        <ele>264</ele>
        <time>2016-09-20T10:01:24Z</time>
      </trkpt>
      <trkpt lat="45.94285" lon="4.82218">
        <ele>264</ele>
        <time>2016-09-20T10:01:25Z</time>
      </trkpt>
      <trkpt lat="45.94284" lon="4.82209">
        <ele>264</ele>
        <time>2016-09-20T10:01:26Z</time>
      </trkpt>
      <trkpt lat="45.94283" lon="4.822">
        <ele>264</ele>
        <time>2016-09-20T10:01:27Z</time>
      </trkpt>
      <trkpt lat="45.94281" lon="4.8219">
        <ele>264</ele>
        <time>2016-09-20T10:01:28Z</time>
      </trkpt>
      <trkpt lat="45.94279" lon="4.82181">
        <ele>264</ele>
        <time>2016-09-20T10:01:29Z</time>
      </trkpt>
      <trkpt lat="45.94277" lon="4.82171">
        <ele>264</ele>
        <time>2016-09-20T10:01:30Z</time>
      </trkpt>
      <trkpt lat="45.94276" lon="4.82162">
        <ele>263</ele>
        <time>2016-09-20T10:01:31Z</time>
      </trkpt>
      <trkpt lat="45.94274" lon="4.82153">
        <ele>263</ele>
        <time>2016-09-20T10:01:32Z</time>
      </trkpt>
      <trkpt lat="45.94273" lon="4.82144">
        <ele>263</ele>
        <time>2016-09-20T10:01:33Z</time>
      </trkpt>
      <trkpt lat="45.94271" lon="4.82136">
        <ele>263</ele>
        <time>2016-09-20T10:01:34Z</time>
      </trkpt>
      <trkpt lat="45.94269" lon="4.82128">
        <ele>263</ele>
        <time>2016-09-20T10:01:35Z</time>
      </trkpt>
      <trkpt lat="45.94268" lon="4.82121">
        <ele>263</ele>
        <time>2016-09-20T10:01:36Z</time>
      </trkpt>
      <trkpt lat="45.94266" lon="4.82114">
        <ele>263</ele>
        <time>2016-09-20T10:01:37Z</time>
      </trkpt>
      <trkpt lat="45.94264" lon="4.82106">
        <ele>263</ele>
        <time>2016-09-20T10:01:38Z</time>
      </trkpt>
      <trkpt lat="45.94263" lon="4.82098">
        <ele>262</ele>
        <time>2016-09-20T10:01:39Z</time>
      </trkpt>
      <trkpt lat="45.94261" lon="4.82089">
        <ele>262</ele>
        <time>2016-09-20T10:01:40Z</time>
      </trkpt>
      <trkpt lat="45.9426" lon="4.82081">
        <ele>262</ele>
        <time>2016-09-20T10:01:41Z</time>
      </trkpt>
      <trkpt lat="45.94258" lon="4.82072">
        <ele>262</ele>
        <time>2016-09-20T10:01:42Z</time>
      </trkpt>
      <trkpt lat="45.94256" lon="4.82063">
        <ele>262</ele>
        <time>2016-09-20T10:01:43Z</time>
      </trkpt>
      <trkpt lat="45.94254" lon="4.82054">
        <ele>262</ele>
        <time>2016-09-20T10:01:44Z</time>
      </trkpt>
      <trkpt lat="45.94253" lon="4.82044">
        <ele>262</ele>
        <time>2016-09-20T10:01:45Z</time>
      </trkpt>
      <trkpt lat="45.94251" lon="4.82035">
        <ele>262</ele>
        <time>2016-09-20T10:01:46Z</time>
      </trkpt>
      <trkpt lat="45.94249" lon="4.82027">
        <ele>263</ele>
        <time>2016-09-20T10:01:47Z</time>
      </trkpt>
      <trkpt lat="45.94248" lon="4.82018">
        <ele>263</ele>
        <time>2016-09-20T10:01:48Z</time>
      </trkpt>
      <trkpt lat="45.94246" lon="4.8201">
        <ele>263</ele>
        <time>2016-09-20T10:01:49Z</time>
      </trkpt>
      <trkpt lat="45.94244" lon="4.82002">
        <ele>262</ele>
        <time>2016-09-20T10:01:50Z</time>
      </trkpt>
      <trkpt lat="45.94243" lon="4.81993">
        <ele>263</ele>
        <time>2016-09-20T10:01:51Z</time>
      </trkpt>
      <trkpt lat="45.94241" lon="4.81985">
        <ele>263</ele>
        <time>2016-09-20T10:01:52Z</time>
      </trkpt>
      <trkpt lat="45.94239" lon="4.81977">
        <ele>263</ele>
        <time>2016-09-20T10:01:53Z</time>
      </trkpt>
      <trkpt lat="45.94237" lon="4.81969">
        <ele>264</ele>
        <time>2016-09-20T10:01:54Z</time>
      </trkpt>
      <trkpt lat="45.94235" lon="4.81961">
        <ele>264</ele>
        <time>2016-09-20T10:01:55Z</time>
      </trkpt>
      <trkpt lat="45.94234" lon="4.81953">
        <ele>264</ele>
        <time>2016-09-20T10:01:56Z</time>
      </trkpt>
      <trkpt lat="45.94232" lon="4.81945">
        <ele>264</ele>
        <time>2016-09-20T10:01:57Z</time>
      </trkpt>
      <trkpt lat="45.9423" lon="4.81937">
        <ele>264</ele>
        <time>2016-09-20T10:01:58Z</time>
      </trkpt>
      <trkpt lat="45.94229" lon="4.81929">
        <ele>264</ele>
        <time>2016-09-20T10:01:59Z</time>
      </trkpt>
      <trkpt lat="45.94227" lon="4.8192">
        <ele>264</ele>
        <time>2016-09-20T10:02:00Z</time>
      </trkpt>
      <trkpt lat="45.94225" lon="4.81912">
        <ele>264</ele>
        <time>2016-09-20T10:02:01Z</time>
      </trkpt>
      <trkpt lat="45.94223" lon="4.81903">
        <ele>264</ele>
        <time>2016-09-20T10:02:02Z</time>
      </trkpt>
      <trkpt lat="45.94222" lon="4.81894">
        <ele>265</ele>
        <time>2016-09-20T10:02:03Z</time>
      </trkpt>
      <trkpt lat="45.9422" lon="4.81887">
        <ele>265</ele>
        <time>2016-09-20T10:02:04Z</time>
      </trkpt>
      <trkpt lat="45.94218" lon="4.81879">
        <ele>265</ele>
        <time>2016-09-20T10:02:05Z</time>
      </trkpt>
      <trkpt lat="45.94217" lon="4.81871">
        <ele>265</ele>
        <time>2016-09-20T10:02:06Z</time>
      </trkpt>
      <trkpt lat="45.94216" lon="4.81865">
        <ele>265</ele>
        <time>2016-09-20T10:02:07Z</time>
      </trkpt>
      <trkpt lat="45.94214" lon="4.81857">
        <ele>265</ele>
        <time>2016-09-20T10:02:08Z</time>
      </trkpt>
      <trkpt lat="45.94212" lon="4.8185">
        <ele>265</ele>
        <time>2016-09-20T10:02:09Z</time>
      </trkpt>
      <trkpt lat="45.94211" lon="4.81843">
        <ele>265</ele>
        <time>2016-09-20T10:02:10Z</time>
      </trkpt>
      <trkpt lat="45.9421" lon="4.81836">
        <ele>265</ele>
        <time>2016-09-20T10:02:11Z</time>
      </trkpt>
      <trkpt lat="45.94209" lon="4.81829">
        <ele>266</ele>
        <time>2016-09-20T10:02:12Z</time>
      </trkpt>
      <trkpt lat="45.94208" lon="4.81821">
        <ele>266</ele>
        <time>2016-09-20T10:02:13Z</time>
      </trkpt>
      <trkpt lat="45.94207" lon="4.81813">
        <ele>266</ele>
        <time>2016-09-20T10:02:14Z</time>
      </trkpt>
      <trkpt lat="45.94207" lon="4.81805">
        <ele>266</ele>
        <time>2016-09-20T10:02:15Z</time>
      </trkpt>
      <trkpt lat="45.94208" lon="4.81796">
        <ele>266</ele>
        <time>2016-09-20T10:02:16Z</time>
      </trkpt>
      <trkpt lat="45.94209" lon="4.81787">
        <ele>265</ele>
        <time>2016-09-20T10:02:17Z</time>
      </trkpt>
      <trkpt lat="45.94211" lon="4.81779">
        <ele>265</ele>
        <time>2016-09-20T10:02:18Z</time>
      </trkpt>
      <trkpt lat="45.94213" lon="4.8177">
        <ele>265</ele>
        <time>2016-09-20T10:02:19Z</time>
      </trkpt>
      <trkpt lat="45.94216" lon="4.81762">
        <ele>265</ele>
        <time>2016-09-20T10:02:20Z</time>
      </trkpt>
      <trkpt lat="45.9422" lon="4.81755">
        <ele>265</ele>
        <time>2016-09-20T10:02:21Z</time>
      </trkpt>
      <trkpt lat="45.94222" lon="4.81747">
        <ele>265</ele>
        <time>2016-09-20T10:02:22Z</time>
      </trkpt>
      <trkpt lat="45.94224" lon="4.81739">
        <ele>265</ele>
        <time>2016-09-20T10:02:23Z</time>
      </trkpt>
      <trkpt lat="45.94224" lon="4.8173">
        <ele>265</ele>
        <time>2016-09-20T10:02:24Z</time>
      </trkpt>
      <trkpt lat="45.94222" lon="4.81722">
        <ele>266</ele>
        <time>2016-09-20T10:02:25Z</time>
      </trkpt>
      <trkpt lat="45.94219" lon="4.81715">
        <ele>266</ele>
        <time>2016-09-20T10:02:26Z</time>
      </trkpt>
      <trkpt lat="45.94214" lon="4.81709">
        <ele>266</ele>
        <time>2016-09-20T10:02:27Z</time>
      </trkpt>
      <trkpt lat="45.94209" lon="4.81706">
        <ele>266</ele>
        <time>2016-09-20T10:02:28Z</time>
      </trkpt>
      <trkpt lat="45.94204" lon="4.81703">
        <ele>266</ele>
        <time>2016-09-20T10:02:29Z</time>
      </trkpt>
      <trkpt lat="45.94199" lon="4.817">
        <ele>267</ele>
        <time>2016-09-20T10:02:30Z</time>
      </trkpt>
      <trkpt lat="45.94194" lon="4.81695">
        <ele>267</ele>
        <time>2016-09-20T10:02:31Z</time>
      </trkpt>
      <trkpt lat="45.94189" lon="4.81688">
        <ele>267</ele>
        <time>2016-09-20T10:02:32Z</time>
      </trkpt>
      <trkpt lat="45.94185" lon="4.8168">
        <ele>267</ele>
        <time>2016-09-20T10:02:33Z</time>
      </trkpt>
      <trkpt lat="45.94181" lon="4.8167">
        <ele>268</ele>
        <time>2016-09-20T10:02:34Z</time>
      </trkpt>
      <trkpt lat="45.94179" lon="4.81659">
        <ele>268</ele>
        <time>2016-09-20T10:02:35Z</time>
      </trkpt>
      <trkpt lat="45.94176" lon="4.81647">
        <ele>268</ele>
        <time>2016-09-20T10:02:36Z</time>
      </trkpt>
      <trkpt lat="45.94173" lon="4.81635">
        <ele>268</ele>
        <time>2016-09-20T10:02:37Z</time>
      </trkpt>
      <trkpt lat="45.94171" lon="4.81621">
        <ele>267</ele>
        <time>2016-09-20T10:02:38Z</time>
      </trkpt>
      <trkpt lat="45.94169" lon="4.81608">
        <ele>267</ele>
        <time>2016-09-20T10:02:39Z</time>
      </trkpt>
      <trkpt lat="45.94166" lon="4.81596">
        <ele>267</ele>
        <time>2016-09-20T10:02:40Z</time>
      </trkpt>
      <trkpt lat="45.94164" lon="4.81583">
        <ele>267</ele>
        <time>2016-09-20T10:02:41Z</time>
      </trkpt>
      <trkpt lat="45.94161" lon="4.81569">
        <ele>265</ele>
        <time>2016-09-20T10:02:42Z</time>
      </trkpt>
      <trkpt lat="45.9416" lon="4.81555">
        <ele>265</ele>
        <time>2016-09-20T10:02:43Z</time>
      </trkpt>
      <trkpt lat="45.94159" lon="4.81541">
        <ele>264</ele>
        <time>2016-09-20T10:02:44Z</time>
      </trkpt>
      <trkpt lat="45.94158" lon="4.81526">
        <ele>263</ele>
        <time>2016-09-20T10:02:45Z</time>
      </trkpt>
      <trkpt lat="45.94158" lon="4.81512">
        <ele>263</ele>
        <time>2016-09-20T10:02:46Z</time>
      </trkpt>
      <trkpt lat="45.94158" lon="4.81498">
        <ele>261</ele>
        <time>2016-09-20T10:02:47Z</time>
      </trkpt>
      <trkpt lat="45.94159" lon="4.81483">
        <ele>259</ele>
        <time>2016-09-20T10:02:48Z</time>
      </trkpt>
      <trkpt lat="45.9416" lon="4.81468">
        <ele>258</ele>
        <time>2016-09-20T10:02:49Z</time>
      </trkpt>
      <trkpt lat="45.94162" lon="4.81452">
        <ele>257</ele>
        <time>2016-09-20T10:02:50Z</time>
      </trkpt>
      <trkpt lat="45.94163" lon="4.81437">
        <ele>256</ele>
        <time>2016-09-20T10:02:51Z</time>
      </trkpt>
      <trkpt lat="45.94164" lon="4.81423">
        <ele>256</ele>
        <time>2016-09-20T10:02:52Z</time>
      </trkpt>
      <trkpt lat="45.94166" lon="4.81408">
        <ele>254</ele>
        <time>2016-09-20T10:02:53Z</time>
      </trkpt>
      <trkpt lat="45.94168" lon="4.81394">
        <ele>258</ele>
        <time>2016-09-20T10:02:54Z</time>
      </trkpt>
      <trkpt lat="45.9417" lon="4.81378">
        <ele>258</ele>
        <time>2016-09-20T10:02:55Z</time>
      </trkpt>
      <trkpt lat="45.94171" lon="4.81363">
        <ele>257</ele>
        <time>2016-09-20T10:02:56Z</time>
      </trkpt>
      <trkpt lat="45.94172" lon="4.81348">
        <ele>256</ele>
        <time>2016-09-20T10:02:57Z</time>
      </trkpt>
      <trkpt lat="45.94173" lon="4.81333">
        <ele>253</ele>
        <time>2016-09-20T10:02:58Z</time>
      </trkpt>
      <trkpt lat="45.94174" lon="4.81316">
        <ele>255</ele>
        <time>2016-09-20T10:02:59Z</time>
      </trkpt>
      <trkpt lat="45.94173" lon="4.813">
        <ele>256</ele>
        <time>2016-09-20T10:03:00Z</time>
      </trkpt>
      <trkpt lat="45.94172" lon="4.81284">
        <ele>255</ele>
        <time>2016-09-20T10:03:01Z</time>
      </trkpt>
      <trkpt lat="45.9417" lon="4.81267">
        <ele>254</ele>
        <time>2016-09-20T10:03:02Z</time>
      </trkpt>
      <trkpt lat="45.94167" lon="4.81251">
        <ele>250</ele>
        <time>2016-09-20T10:03:03Z</time>
      </trkpt>
      <trkpt lat="45.94164" lon="4.81233">
        <ele>247</ele>
        <time>2016-09-20T10:03:04Z</time>
      </trkpt>
      <trkpt lat="45.9416" lon="4.81215">
        <ele>245</ele>
        <time>2016-09-20T10:03:05Z</time>
      </trkpt>
      <trkpt lat="45.94155" lon="4.81198">
        <ele>245</ele>
        <time>2016-09-20T10:03:06Z</time>
      </trkpt>
      <trkpt lat="45.94149" lon="4.81182">
        <ele>245</ele>
        <time>2016-09-20T10:03:07Z</time>
      </trkpt>
      <trkpt lat="45.94143" lon="4.81165">
        <ele>245</ele>
        <time>2016-09-20T10:03:08Z</time>
      </trkpt>
      <trkpt lat="45.94136" lon="4.81149">
        <ele>244</ele>
        <time>2016-09-20T10:03:09Z</time>
      </trkpt>
      <trkpt lat="45.94128" lon="4.81134">
        <ele>243</ele>
        <time>2016-09-20T10:03:10Z</time>
      </trkpt>
      <trkpt lat="45.9412" lon="4.8112">
        <ele>243</ele>
        <time>2016-09-20T10:03:11Z</time>
      </trkpt>
      <trkpt lat="45.94112" lon="4.81105">
        <ele>242</ele>
        <time>2016-09-20T10:03:12Z</time>
      </trkpt>
      <trkpt lat="45.94105" lon="4.81091">
        <ele>241</ele>
        <time>2016-09-20T10:03:13Z</time>
      </trkpt>
      <trkpt lat="45.94097" lon="4.81076">
        <ele>242</ele>
        <time>2016-09-20T10:03:14Z</time>
      </trkpt>
      <trkpt lat="45.94091" lon="4.8106">
        <ele>243</ele>
        <time>2016-09-20T10:03:15Z</time>
      </trkpt>
      <trkpt lat="45.94085" lon="4.81044">
        <ele>243</ele>
        <time>2016-09-20T10:03:16Z</time>
      </trkpt>
      <trkpt lat="45.94081" lon="4.81026">
        <ele>234</ele>
        <time>2016-09-20T10:03:17Z</time>
      </trkpt>
      <trkpt lat="45.94077" lon="4.81008">
        <ele>237</ele>
        <time>2016-09-20T10:03:18Z</time>
      </trkpt>
      <trkpt lat="45.94075" lon="4.8099">
        <ele>236</ele>
        <time>2016-09-20T10:03:19Z</time>
      </trkpt>
      <trkpt lat="45.94072" lon="4.80972">
        <ele>233</ele>
        <time>2016-09-20T10:03:20Z</time>
      </trkpt>
      <trkpt lat="45.9407" lon="4.80955">
        <ele>232</ele>
        <time>2016-09-20T10:03:21Z</time>
      </trkpt>
      <trkpt lat="45.94067" lon="4.80938">
        <ele>233</ele>
        <time>2016-09-20T10:03:22Z</time>
      </trkpt>
      <trkpt lat="45.94063" lon="4.80923">
        <ele>233</ele>
        <time>2016-09-20T10:03:23Z</time>
      </trkpt>
      <trkpt lat="45.94058" lon="4.80907">
        <ele>232</ele>
        <time>2016-09-20T10:03:24Z</time>
      </trkpt>
      <trkpt lat="45.94056" lon="4.80892">
        <ele>231</ele>
        <time>2016-09-20T10:03:25Z</time>
      </trkpt>
      <trkpt lat="45.94054" lon="4.80877">
        <ele>230</ele>
        <time>2016-09-20T10:03:26Z</time>
      </trkpt>
      <trkpt lat="45.94052" lon="4.80859">
        <ele>230</ele>
        <time>2016-09-20T10:03:27Z</time>
      </trkpt>
      <trkpt lat="45.94051" lon="4.80841">
        <ele>230</ele>
        <time>2016-09-20T10:03:28Z</time>
      </trkpt>
      <trkpt lat="45.94049" lon="4.80822">
        <ele>230</ele>
        <time>2016-09-20T10:03:29Z</time>
      </trkpt>
      <trkpt lat="45.94047" lon="4.80805">
        <ele>229</ele>
        <time>2016-09-20T10:03:30Z</time>
      </trkpt>
      <trkpt lat="45.94045" lon="4.80789">
        <ele>228</ele>
        <time>2016-09-20T10:03:31Z</time>
      </trkpt>
      <trkpt lat="45.94044" lon="4.80771">
        <ele>228</ele>
        <time>2016-09-20T10:03:32Z</time>
      </trkpt>
      <trkpt lat="45.94043" lon="4.80754">
        <ele>228</ele>
        <time>2016-09-20T10:03:33Z</time>
      </trkpt>
      <trkpt lat="45.94043" lon="4.80738">
        <ele>227</ele>
        <time>2016-09-20T10:03:34Z</time>
      </trkpt>
      <trkpt lat="45.94039" lon="4.80725">
        <ele>227</ele>
        <time>2016-09-20T10:03:35Z</time>
      </trkpt>
      <trkpt lat="45.94036" lon="4.8071">
        <ele>226</ele>
        <time>2016-09-20T10:03:36Z</time>
      </trkpt>
      <trkpt lat="45.94033" lon="4.80695">
        <ele>226</ele>
        <time>2016-09-20T10:03:37Z</time>
      </trkpt>
      <trkpt lat="45.94031" lon="4.80679">
        <ele>225</ele>
        <time>2016-09-20T10:03:38Z</time>
      </trkpt>
      <trkpt lat="45.94028" lon="4.80662">
        <ele>224</ele>
        <time>2016-09-20T10:03:39Z</time>
      </trkpt>
      <trkpt lat="45.94027" lon="4.80645">
        <ele>224</ele>
        <time>2016-09-20T10:03:40Z</time>
      </trkpt>
      <trkpt lat="45.94026" lon="4.80628">
        <ele>225</ele>
        <time>2016-09-20T10:03:41Z</time>
      </trkpt>
      <trkpt lat="45.94025" lon="4.80612">
        <ele>225</ele>
        <time>2016-09-20T10:03:42Z</time>
      </trkpt>
      <trkpt lat="45.94024" lon="4.80596">
        <ele>224</ele>
        <time>2016-09-20T10:03:43Z</time>
      </trkpt>
      <trkpt lat="45.94022" lon="4.80582">
        <ele>223</ele>
        <time>2016-09-20T10:03:44Z</time>
      </trkpt>
      <trkpt lat="45.94022" lon="4.80565">
        <ele>224</ele>
        <time>2016-09-20T10:03:45Z</time>
      </trkpt>
      <trkpt lat="45.9402" lon="4.80549">
        <ele>225</ele>
        <time>2016-09-20T10:03:46Z</time>
      </trkpt>
      <trkpt lat="45.94019" lon="4.80535">
        <ele>225</ele>
        <time>2016-09-20T10:03:47Z</time>
      </trkpt>
      <trkpt lat="45.94018" lon="4.8052">
        <ele>224</ele>
        <time>2016-09-20T10:03:48Z</time>
      </trkpt>
      <trkpt lat="45.94017" lon="4.80506">
        <ele>223</ele>
        <time>2016-09-20T10:03:49Z</time>
      </trkpt>
      <trkpt lat="45.94017" lon="4.80491">
        <ele>222</ele>
        <time>2016-09-20T10:03:50Z</time>
      </trkpt>
      <trkpt lat="45.94017" lon="4.80476">
        <ele>223</ele>
        <time>2016-09-20T10:03:51Z</time>
      </trkpt>
      <trkpt lat="45.94016" lon="4.80462">
        <ele>223</ele>
        <time>2016-09-20T10:03:52Z</time>
      </trkpt>
      <trkpt lat="45.94015" lon="4.80446">
        <ele>222</ele>
        <time>2016-09-20T10:03:53Z</time>
      </trkpt>
      <trkpt lat="45.94015" lon="4.80431">
        <ele>221</ele>
        <time>2016-09-20T10:03:54Z</time>
      </trkpt>
      <trkpt lat="45.94012" lon="4.80418">
        <ele>220</ele>
        <time>2016-09-20T10:03:55Z</time>
      </trkpt>
      <trkpt lat="45.94009" lon="4.80402">
        <ele>217</ele>
        <time>2016-09-20T10:03:56Z</time>
      </trkpt>
      <trkpt lat="45.94005" lon="4.80387">
        <ele>217</ele>
        <time>2016-09-20T10:03:57Z</time>
      </trkpt>
      <trkpt lat="45.94002" lon="4.80373">
        <ele>216</ele>
        <time>2016-09-20T10:03:58Z</time>
      </trkpt>
      <trkpt lat="45.93999" lon="4.80359">
        <ele>207</ele>
        <time>2016-09-20T10:03:59Z</time>
      </trkpt>
      <trkpt lat="45.93995" lon="4.80343">
        <ele>206</ele>
        <time>2016-09-20T10:04:00Z</time>
      </trkpt>
      <trkpt lat="45.93992" lon="4.80327">
        <ele>205</ele>
        <time>2016-09-20T10:04:01Z</time>
      </trkpt>
      <trkpt lat="45.93989" lon="4.80311">
        <ele>203</ele>
        <time>2016-09-20T10:04:02Z</time>
      </trkpt>
      <trkpt lat="45.93985" lon="4.80297">
        <ele>203</ele>
        <time>2016-09-20T10:04:03Z</time>
      </trkpt>
      <trkpt lat="45.93981" lon="4.80282">
        <ele>203</ele>
        <time>2016-09-20T10:04:04Z</time>
      </trkpt>
      <trkpt lat="45.93977" lon="4.80268">
        <ele>203</ele>
        <time>2016-09-20T10:04:05Z</time>
      </trkpt>
      <trkpt lat="45.93973" lon="4.80254">
        <ele>203</ele>
        <time>2016-09-20T10:04:06Z</time>
      </trkpt>
      <trkpt lat="45.93969" lon="4.8024">
        <ele>205</ele>
        <time>2016-09-20T10:04:07Z</time>
      </trkpt>
      <trkpt lat="45.93966" lon="4.80227">
        <ele>205</ele>
        <time>2016-09-20T10:04:08Z</time>
      </trkpt>
      <trkpt lat="45.93962" lon="4.80213">
        <ele>205</ele>
        <time>2016-09-20T10:04:09Z</time>
      </trkpt>
      <trkpt lat="45.93958" lon="4.80201">
        <ele>206</ele>
        <time>2016-09-20T10:04:10Z</time>
      </trkpt>
      <trkpt lat="45.93955" lon="4.80189">
        <ele>206</ele>
        <time>2016-09-20T10:04:11Z</time>
      </trkpt>
      <trkpt lat="45.93953" lon="4.80177">
        <ele>206</ele>
        <time>2016-09-20T10:04:12Z</time>
      </trkpt>
      <trkpt lat="45.9395" lon="4.80164">
        <ele>208</ele>
        <time>2016-09-20T10:04:13Z</time>
      </trkpt>
      <trkpt lat="45.93949" lon="4.80151">
        <ele>208</ele>
        <time>2016-09-20T10:04:14Z</time>
      </trkpt>
      <trkpt lat="45.93948" lon="4.80138">
        <ele>209</ele>
        <time>2016-09-20T10:04:15Z</time>
      </trkpt>
      <trkpt lat="45.93946" lon="4.80127">
        <ele>209</ele>
        <time>2016-09-20T10:04:16Z</time>
      </trkpt>
      <trkpt lat="45.93946" lon="4.80115">
        <ele>209</ele>
        <time>2016-09-20T10:04:17Z</time>
      </trkpt>
      <trkpt lat="45.93945" lon="4.80102">
        <ele>209</ele>
        <time>2016-09-20T10:04:18Z</time>
      </trkpt>
      <trkpt lat="45.93945" lon="4.8009">
        <ele>209</ele>
        <time>2016-09-20T10:04:19Z</time>
      </trkpt>
      <trkpt lat="45.93946" lon="4.80077">
        <ele>208</ele>
        <time>2016-09-20T10:04:20Z</time>
      </trkpt>
      <trkpt lat="45.93946" lon="4.80066">
        <ele>208</ele>
        <time>2016-09-20T10:04:21Z</time>
      </trkpt>
      <trkpt lat="45.93947" lon="4.80054">
        <ele>208</ele>
        <time>2016-09-20T10:04:22Z</time>
      </trkpt>
      <trkpt lat="45.93947" lon="4.80043">
        <ele>208</ele>
        <time>2016-09-20T10:04:23Z</time>
      </trkpt>
      <trkpt lat="45.9395" lon="4.80022">
        <ele>207</ele>
        <time>2016-09-20T10:04:25Z</time>
      </trkpt>
      <trkpt lat="45.93951" lon="4.80012">
        <ele>207</ele>
        <time>2016-09-20T10:04:26Z</time>
      </trkpt>
      <trkpt lat="45.93952" lon="4.8">
        <ele>207</ele>
        <time>2016-09-20T10:04:27Z</time>
      </trkpt>
      <trkpt lat="45.93954" lon="4.79989">
        <ele>205</ele>
        <time>2016-09-20T10:04:28Z</time>
      </trkpt>
      <trkpt lat="45.93955" lon="4.79979">
        <ele>205</ele>
        <time>2016-09-20T10:04:29Z</time>
      </trkpt>
      <trkpt lat="45.93957" lon="4.79968">
        <ele>205</ele>
        <time>2016-09-20T10:04:30Z</time>
      </trkpt>
      <trkpt lat="45.93958" lon="4.79959">
        <ele>205</ele>
        <time>2016-09-20T10:04:31Z</time>
      </trkpt>
      <trkpt lat="45.93958" lon="4.7995">
        <ele>205</ele>
        <time>2016-09-20T10:04:32Z</time>
      </trkpt>
      <trkpt lat="45.93959" lon="4.79938">
        <ele>205</ele>
        <time>2016-09-20T10:04:33Z</time>
      </trkpt>
      <trkpt lat="45.9396" lon="4.79928">
        <ele>205</ele>
        <time>2016-09-20T10:04:34Z</time>
      </trkpt>
      <trkpt lat="45.93961" lon="4.79917">
        <ele>205</ele>
        <time>2016-09-20T10:04:35Z</time>
      </trkpt>
      <trkpt lat="45.93962" lon="4.79906">
        <ele>206</ele>
        <time>2016-09-20T10:04:36Z</time>
      </trkpt>
      <trkpt lat="45.93964" lon="4.79895">
        <ele>206</ele>
        <time>2016-09-20T10:04:37Z</time>
      </trkpt>
      <trkpt lat="45.93966" lon="4.79885">
        <ele>206</ele>
        <time>2016-09-20T10:04:38Z</time>
      </trkpt>
      <trkpt lat="45.93968" lon="4.79875">
        <ele>206</ele>
        <time>2016-09-20T10:04:39Z</time>
      </trkpt>
      <trkpt lat="45.93968" lon="4.79865">
        <ele>206</ele>
        <time>2016-09-20T10:04:40Z</time>
      </trkpt>
      <trkpt lat="45.9397" lon="4.79854">
        <ele>206</ele>
        <time>2016-09-20T10:04:41Z</time>
      </trkpt>
      <trkpt lat="45.93971" lon="4.79845">
        <ele>207</ele>
        <time>2016-09-20T10:04:42Z</time>
      </trkpt>
      <trkpt lat="45.93973" lon="4.79834">
        <ele>207</ele>
        <time>2016-09-20T10:04:43Z</time>
      </trkpt>
      <trkpt lat="45.93974" lon="4.79822">
        <ele>207</ele>
        <time>2016-09-20T10:04:44Z</time>
      </trkpt>
      <trkpt lat="45.93975" lon="4.79812">
        <ele>207</ele>
        <time>2016-09-20T10:04:45Z</time>
      </trkpt>
      <trkpt lat="45.93977" lon="4.79796">
        <ele>207</ele>
        <time>2016-09-20T10:04:46Z</time>
      </trkpt>
      <trkpt lat="45.93977" lon="4.79787">
        <ele>207</ele>
        <time>2016-09-20T10:04:47Z</time>
      </trkpt>
      <trkpt lat="45.93977" lon="4.79776">
        <ele>207</ele>
        <time>2016-09-20T10:04:48Z</time>
      </trkpt>
      <trkpt lat="45.93977" lon="4.79766">
        <ele>207</ele>
        <time>2016-09-20T10:04:49Z</time>
      </trkpt>
      <trkpt lat="45.93977" lon="4.79756">
        <ele>207</ele>
        <time>2016-09-20T10:04:50Z</time>
      </trkpt>
      <trkpt lat="45.93976" lon="4.79747">
        <ele>207</ele>
        <time>2016-09-20T10:04:51Z</time>
      </trkpt>
      <trkpt lat="45.93975" lon="4.79738">
        <ele>207</ele>
        <time>2016-09-20T10:04:52Z</time>
      </trkpt>
      <trkpt lat="45.93973" lon="4.7973">
        <ele>207</ele>
        <time>2016-09-20T10:04:53Z</time>
      </trkpt>
      <trkpt lat="45.93972" lon="4.79721">
        <ele>207</ele>
        <time>2016-09-20T10:04:54Z</time>
      </trkpt>
      <trkpt lat="45.93972" lon="4.79713">
        <ele>207</ele>
        <time>2016-09-20T10:04:55Z</time>
      </trkpt>
      <trkpt lat="45.93971" lon="4.79704">
        <ele>207</ele>
        <time>2016-09-20T10:04:56Z</time>
      </trkpt>
      <trkpt lat="45.9397" lon="4.79695">
        <ele>207</ele>
        <time>2016-09-20T10:04:57Z</time>
      </trkpt>
      <trkpt lat="45.93969" lon="4.79686">
        <ele>207</ele>
        <time>2016-09-20T10:04:58Z</time>
      </trkpt>
      <trkpt lat="45.93969" lon="4.79677">
        <ele>207</ele>
        <time>2016-09-20T10:04:59Z</time>
      </trkpt>
      <trkpt lat="45.93968" lon="4.79666">
        <ele>208</ele>
        <time>2016-09-20T10:05:00Z</time>
      </trkpt>
      <trkpt lat="45.93968" lon="4.79656">
        <ele>208</ele>
        <time>2016-09-20T10:05:01Z</time>
      </trkpt>
      <trkpt lat="45.93967" lon="4.79647">
        <ele>207</ele>
        <time>2016-09-20T10:05:02Z</time>
      </trkpt>
      <trkpt lat="45.93966" lon="4.79636">
        <ele>207</ele>
        <time>2016-09-20T10:05:03Z</time>
      </trkpt>
      <trkpt lat="45.93965" lon="4.79626">
        <ele>207</ele>
        <time>2016-09-20T10:05:04Z</time>
      </trkpt>
      <trkpt lat="45.93964" lon="4.79616">
        <ele>207</ele>
        <time>2016-09-20T10:05:05Z</time>
      </trkpt>
      <trkpt lat="45.93963" lon="4.79607">
        <ele>207</ele>
        <time>2016-09-20T10:05:06Z</time>
      </trkpt>
      <trkpt lat="45.93962" lon="4.79597">
        <ele>207</ele>
        <time>2016-09-20T10:05:07Z</time>
      </trkpt>
      <trkpt lat="45.93961" lon="4.79587">
        <ele>207</ele>
        <time>2016-09-20T10:05:08Z</time>
      </trkpt>
      <trkpt lat="45.93961" lon="4.79578">
        <ele>206</ele>
        <time>2016-09-20T10:05:09Z</time>
      </trkpt>
      <trkpt lat="45.9396" lon="4.79569">
        <ele>206</ele>
        <time>2016-09-20T10:05:10Z</time>
      </trkpt>
      <trkpt lat="45.93959" lon="4.79559">
        <ele>205</ele>
        <time>2016-09-20T10:05:11Z</time>
      </trkpt>
      <trkpt lat="45.93958" lon="4.7955">
        <ele>205</ele>
        <time>2016-09-20T10:05:12Z</time>
      </trkpt>
      <trkpt lat="45.93958" lon="4.7954">
        <ele>205</ele>
        <time>2016-09-20T10:05:13Z</time>
      </trkpt>
      <trkpt lat="45.93957" lon="4.79531">
        <ele>205</ele>
        <time>2016-09-20T10:05:14Z</time>
      </trkpt>
      <trkpt lat="45.93957" lon="4.79521">
        <ele>205</ele>
        <time>2016-09-20T10:05:15Z</time>
      </trkpt>
      <trkpt lat="45.93957" lon="4.79512">
        <ele>204</ele>
        <time>2016-09-20T10:05:16Z</time>
      </trkpt>
      <trkpt lat="45.93957" lon="4.79503">
        <ele>204</ele>
        <time>2016-09-20T10:05:17Z</time>
      </trkpt>
      <trkpt lat="45.93957" lon="4.79492">
        <ele>203</ele>
        <time>2016-09-20T10:05:18Z</time>
      </trkpt>
      <trkpt lat="45.93958" lon="4.79481">
        <ele>203</ele>
        <time>2016-09-20T10:05:19Z</time>
      </trkpt>
      <trkpt lat="45.93958" lon="4.79471">
        <ele>203</ele>
        <time>2016-09-20T10:05:20Z</time>
      </trkpt>
      <trkpt lat="45.93958" lon="4.79461">
        <ele>203</ele>
        <time>2016-09-20T10:05:21Z</time>
      </trkpt>
      <trkpt lat="45.93958" lon="4.79452">
        <ele>203</ele>
        <time>2016-09-20T10:05:22Z</time>
      </trkpt>
      <trkpt lat="45.93958" lon="4.79442">
        <ele>203</ele>
        <time>2016-09-20T10:05:23Z</time>
      </trkpt>
      <trkpt lat="45.93958" lon="4.79431">
        <ele>203</ele>
        <time>2016-09-20T10:05:24Z</time>
      </trkpt>
      <trkpt lat="45.93958" lon="4.79421">
        <ele>203</ele>
        <time>2016-09-20T10:05:25Z</time>
      </trkpt>
      <trkpt lat="45.93957" lon="4.79411">
        <ele>202</ele>
        <time>2016-09-20T10:05:26Z</time>
      </trkpt>
      <trkpt lat="45.93956" lon="4.794">
        <ele>201</ele>
        <time>2016-09-20T10:05:27Z</time>
      </trkpt>
      <trkpt lat="45.93956" lon="4.7939">
        <ele>201</ele>
        <time>2016-09-20T10:05:28Z</time>
      </trkpt>
      <trkpt lat="45.93956" lon="4.79379">
        <ele>201</ele>
        <time>2016-09-20T10:05:29Z</time>
      </trkpt>
      <trkpt lat="45.93956" lon="4.79369">
        <ele>201</ele>
        <time>2016-09-20T10:05:30Z</time>
      </trkpt>
      <trkpt lat="45.93957" lon="4.79358">
        <ele>201</ele>
        <time>2016-09-20T10:05:31Z</time>
      </trkpt>
      <trkpt lat="45.93956" lon="4.79347">
        <ele>201</ele>
        <time>2016-09-20T10:05:32Z</time>
      </trkpt>
      <trkpt lat="45.93956" lon="4.79337">
        <ele>201</ele>
        <time>2016-09-20T10:05:33Z</time>
      </trkpt>
      <trkpt lat="45.93956" lon="4.79326">
        <ele>199</ele>
        <time>2016-09-20T10:05:34Z</time>
      </trkpt>
      <trkpt lat="45.93957" lon="4.79316">
        <ele>199</ele>
        <time>2016-09-20T10:05:35Z</time>
      </trkpt>
      <trkpt lat="45.93957" lon="4.79306">
        <ele>199</ele>
        <time>2016-09-20T10:05:36Z</time>
      </trkpt>
      <trkpt lat="45.93957" lon="4.79296">
        <ele>199</ele>
        <time>2016-09-20T10:05:37Z</time>
      </trkpt>
      <trkpt lat="45.93957" lon="4.79286">
        <ele>199</ele>
        <time>2016-09-20T10:05:38Z</time>
      </trkpt>
      <trkpt lat="45.93957" lon="4.79276">
        <ele>198</ele>
        <time>2016-09-20T10:05:39Z</time>
      </trkpt>
      <trkpt lat="45.93957" lon="4.79266">
        <ele>198</ele>
        <time>2016-09-20T10:05:40Z</time>
      </trkpt>
      <trkpt lat="45.93956" lon="4.79256">
        <ele>198</ele>
        <time>2016-09-20T10:05:41Z</time>
      </trkpt>
      <trkpt lat="45.93956" lon="4.79246">
        <ele>197</ele>
        <time>2016-09-20T10:05:42Z</time>
      </trkpt>
      <trkpt lat="45.93956" lon="4.79235">
        <ele>197</ele>
        <time>2016-09-20T10:05:43Z</time>
      </trkpt>
      <trkpt lat="45.93956" lon="4.79224">
        <ele>197</ele>
        <time>2016-09-20T10:05:44Z</time>
      </trkpt>
      <trkpt lat="45.93955" lon="4.79214">
        <ele>197</ele>
        <time>2016-09-20T10:05:45Z</time>
      </trkpt>
      <trkpt lat="45.93954" lon="4.79204">
        <ele>197</ele>
        <time>2016-09-20T10:05:46Z</time>
      </trkpt>
      <trkpt lat="45.93955" lon="4.79195">
        <ele>197</ele>
        <time>2016-09-20T10:05:47Z</time>
      </trkpt>
      <trkpt lat="45.93956" lon="4.79186">
        <ele>197</ele>
        <time>2016-09-20T10:05:48Z</time>
      </trkpt>
      <trkpt lat="45.93955" lon="4.79176">
        <ele>197</ele>
        <time>2016-09-20T10:05:49Z</time>
      </trkpt>
      <trkpt lat="45.93954" lon="4.79167">
        <ele>197</ele>
        <time>2016-09-20T10:05:50Z</time>
      </trkpt>
      <trkpt lat="45.93954" lon="4.79156">
        <ele>197</ele>
        <time>2016-09-20T10:05:51Z</time>
      </trkpt>
      <trkpt lat="45.93954" lon="4.79147">
        <ele>197</ele>
        <time>2016-09-20T10:05:52Z</time>
      </trkpt>
      <trkpt lat="45.93954" lon="4.79137">
        <ele>197</ele>
        <time>2016-09-20T10:05:53Z</time>
      </trkpt>
      <trkpt lat="45.93954" lon="4.79127">
        <ele>197</ele>
        <time>2016-09-20T10:05:54Z</time>
      </trkpt>
      <trkpt lat="45.93954" lon="4.79118">
        <ele>197</ele>
        <time>2016-09-20T10:05:55Z</time>
      </trkpt>
      <trkpt lat="45.93954" lon="4.79108">
        <ele>197</ele>
        <time>2016-09-20T10:05:56Z</time>
      </trkpt>
      <trkpt lat="45.93953" lon="4.79098">
        <ele>197</ele>
        <time>2016-09-20T10:05:57Z</time>
      </trkpt>
      <trkpt lat="45.93953" lon="4.79089">
        <ele>197</ele>
        <time>2016-09-20T10:05:58Z</time>
      </trkpt>
      <trkpt lat="45.93952" lon="4.79079">
        <ele>196</ele>
        <time>2016-09-20T10:05:59Z</time>
      </trkpt>
      <trkpt lat="45.93952" lon="4.79069">
        <ele>196</ele>
        <time>2016-09-20T10:06:00Z</time>
      </trkpt>
      <trkpt lat="45.93952" lon="4.79059">
        <ele>196</ele>
        <time>2016-09-20T10:06:01Z</time>
      </trkpt>
      <trkpt lat="45.93952" lon="4.7905">
        <ele>196</ele>
        <time>2016-09-20T10:06:02Z</time>
      </trkpt>
      <trkpt lat="45.93952" lon="4.79039">
        <ele>196</ele>
        <time>2016-09-20T10:06:03Z</time>
      </trkpt>
      <trkpt lat="45.93951" lon="4.7903">
        <ele>196</ele>
        <time>2016-09-20T10:06:04Z</time>
      </trkpt>
      <trkpt lat="45.9395" lon="4.7902">
        <ele>195</ele>
        <time>2016-09-20T10:06:05Z</time>
      </trkpt>
      <trkpt lat="45.9395" lon="4.7901">
        <ele>195</ele>
        <time>2016-09-20T10:06:06Z</time>
      </trkpt>
      <trkpt lat="45.9395" lon="4.79">
        <ele>195</ele>
        <time>2016-09-20T10:06:07Z</time>
      </trkpt>
      <trkpt lat="45.93949" lon="4.78991">
        <ele>194</ele>
        <time>2016-09-20T10:06:08Z</time>
      </trkpt>
      <trkpt lat="45.93948" lon="4.78982">
        <ele>194</ele>
        <time>2016-09-20T10:06:09Z</time>
      </trkpt>
      <trkpt lat="45.93948" lon="4.78973">
        <ele>194</ele>
        <time>2016-09-20T10:06:10Z</time>
      </trkpt>
      <trkpt lat="45.93947" lon="4.78964">
        <ele>194</ele>
        <time>2016-09-20T10:06:11Z</time>
      </trkpt>
      <trkpt lat="45.93948" lon="4.78955">
        <ele>194</ele>
        <time>2016-09-20T10:06:12Z</time>
      </trkpt>
      <trkpt lat="45.93948" lon="4.78946">
        <ele>194</ele>
        <time>2016-09-20T10:06:13Z</time>
      </trkpt>
      <trkpt lat="45.93948" lon="4.78934">
        <ele>194</ele>
        <time>2016-09-20T10:06:14Z</time>
      </trkpt>
      <trkpt lat="45.93948" lon="4.78923">
        <ele>194</ele>
        <time>2016-09-20T10:06:15Z</time>
      </trkpt>
      <trkpt lat="45.93947" lon="4.78914">
        <ele>193</ele>
        <time>2016-09-20T10:06:16Z</time>
      </trkpt>
      <trkpt lat="45.93946" lon="4.78904">
        <ele>194</ele>
        <time>2016-09-20T10:06:17Z</time>
      </trkpt>
      <trkpt lat="45.93946" lon="4.78896">
        <ele>194</ele>
        <time>2016-09-20T10:06:18Z</time>
      </trkpt>
      <trkpt lat="45.93945" lon="4.78885">
        <ele>194</ele>
        <time>2016-09-20T10:06:19Z</time>
      </trkpt>
      <trkpt lat="45.93944" lon="4.78876">
        <ele>194</ele>
        <time>2016-09-20T10:06:20Z</time>
      </trkpt>
      <trkpt lat="45.93943" lon="4.78866">
        <ele>194</ele>
        <time>2016-09-20T10:06:21Z</time>
      </trkpt>
      <trkpt lat="45.93943" lon="4.78856">
        <ele>194</ele>
        <time>2016-09-20T10:06:22Z</time>
      </trkpt>
      <trkpt lat="45.93942" lon="4.78847">
        <ele>194</ele>
        <time>2016-09-20T10:06:23Z</time>
      </trkpt>
      <trkpt lat="45.93941" lon="4.78837">
        <ele>193</ele>
        <time>2016-09-20T10:06:24Z</time>
      </trkpt>
      <trkpt lat="45.93941" lon="4.78827">
        <ele>194</ele>
        <time>2016-09-20T10:06:25Z</time>
      </trkpt>
      <trkpt lat="45.93941" lon="4.78817">
        <ele>194</ele>
        <time>2016-09-20T10:06:26Z</time>
      </trkpt>
      <trkpt lat="45.9394" lon="4.78809">
        <ele>194</ele>
        <time>2016-09-20T10:06:27Z</time>
      </trkpt>
      <trkpt lat="45.93939" lon="4.788">
        <ele>194</ele>
        <time>2016-09-20T10:06:28Z</time>
      </trkpt>
      <trkpt lat="45.9394" lon="4.78791">
        <ele>194</ele>
        <time>2016-09-20T10:06:29Z</time>
      </trkpt>
      <trkpt lat="45.9394" lon="4.78781">
        <ele>194</ele>
        <time>2016-09-20T10:06:30Z</time>
      </trkpt>
      <trkpt lat="45.9394" lon="4.78771">
        <ele>194</ele>
        <time>2016-09-20T10:06:31Z</time>
      </trkpt>
      <trkpt lat="45.9394" lon="4.78761">
        <ele>193</ele>
        <time>2016-09-20T10:06:32Z</time>
      </trkpt>
      <trkpt lat="45.93941" lon="4.78752">
        <ele>193</ele>
        <time>2016-09-20T10:06:33Z</time>
      </trkpt>
      <trkpt lat="45.93941" lon="4.78742">
        <ele>194</ele>
        <time>2016-09-20T10:06:34Z</time>
      </trkpt>
      <trkpt lat="45.93941" lon="4.78733">
        <ele>194</ele>
        <time>2016-09-20T10:06:35Z</time>
      </trkpt>
      <trkpt lat="45.93941" lon="4.78724">
        <ele>194</ele>
        <time>2016-09-20T10:06:36Z</time>
      </trkpt>
      <trkpt lat="45.93942" lon="4.78715">
        <ele>194</ele>
        <time>2016-09-20T10:06:37Z</time>
      </trkpt>
      <trkpt lat="45.93942" lon="4.78707">
        <ele>194</ele>
        <time>2016-09-20T10:06:38Z</time>
      </trkpt>
      <trkpt lat="45.93942" lon="4.78697">
        <ele>194</ele>
        <time>2016-09-20T10:06:39Z</time>
      </trkpt>
      <trkpt lat="45.93942" lon="4.78688">
        <ele>194</ele>
        <time>2016-09-20T10:06:40Z</time>
      </trkpt>
      <trkpt lat="45.93942" lon="4.78678">
        <ele>194</ele>
        <time>2016-09-20T10:06:41Z</time>
      </trkpt>
      <trkpt lat="45.93941" lon="4.7867">
        <ele>194</ele>
        <time>2016-09-20T10:06:42Z</time>
      </trkpt>
      <trkpt lat="45.9394" lon="4.78661">
        <ele>194</ele>
        <time>2016-09-20T10:06:43Z</time>
      </trkpt>
      <trkpt lat="45.93939" lon="4.78652">
        <ele>195</ele>
        <time>2016-09-20T10:06:44Z</time>
      </trkpt>
      <trkpt lat="45.93939" lon="4.78643">
        <ele>195</ele>
        <time>2016-09-20T10:06:45Z</time>
      </trkpt>
      <trkpt lat="45.93941" lon="4.78631">
        <ele>196</ele>
        <time>2016-09-20T10:06:46Z</time>
      </trkpt>
      <trkpt lat="45.93941" lon="4.78621">
        <ele>196</ele>
        <time>2016-09-20T10:06:47Z</time>
      </trkpt>
      <trkpt lat="45.93942" lon="4.78612">
        <ele>196</ele>
        <time>2016-09-20T10:06:48Z</time>
      </trkpt>
      <trkpt lat="45.93942" lon="4.78603">
        <ele>196</ele>
        <time>2016-09-20T10:06:49Z</time>
      </trkpt>
      <trkpt lat="45.93943" lon="4.78596">
        <ele>196</ele>
        <time>2016-09-20T10:06:50Z</time>
      </trkpt>
      <trkpt lat="45.93943" lon="4.78585">
        <ele>196</ele>
        <time>2016-09-20T10:06:52Z</time>
      </trkpt>
      <trkpt lat="45.93942" lon="4.78579">
        <ele>197</ele>
        <time>2016-09-20T10:06:53Z</time>
      </trkpt>
      <trkpt lat="45.9394" lon="4.78568">
        <ele>197</ele>
        <time>2016-09-20T10:06:55Z</time>
      </trkpt>
      <trkpt lat="45.93938" lon="4.78563">
        <ele>197</ele>
        <time>2016-09-20T10:06:56Z</time>
      </trkpt>
      <trkpt lat="45.93936" lon="4.78552">
        <ele>197</ele>
        <time>2016-09-20T10:06:58Z</time>
      </trkpt>
      <trkpt lat="45.93937" lon="4.78547">
        <ele>197</ele>
        <time>2016-09-20T10:06:59Z</time>
      </trkpt>
      <trkpt lat="45.93937" lon="4.7854">
        <ele>197</ele>
        <time>2016-09-20T10:07:00Z</time>
      </trkpt>
      <trkpt lat="45.93938" lon="4.78534">
        <ele>197</ele>
        <time>2016-09-20T10:07:01Z</time>
      </trkpt>
      <trkpt lat="45.93939" lon="4.78526">
        <ele>197</ele>
        <time>2016-09-20T10:07:02Z</time>
      </trkpt>
      <trkpt lat="45.9394" lon="4.78518">
        <ele>197</ele>
        <time>2016-09-20T10:07:03Z</time>
      </trkpt>
      <trkpt lat="45.93941" lon="4.7851">
        <ele>197</ele>
        <time>2016-09-20T10:07:04Z</time>
      </trkpt>
      <trkpt lat="45.93942" lon="4.78502">
        <ele>197</ele>
        <time>2016-09-20T10:07:05Z</time>
      </trkpt>
      <trkpt lat="45.93943" lon="4.78495">
        <ele>197</ele>
        <time>2016-09-20T10:07:06Z</time>
      </trkpt>
      <trkpt lat="45.93944" lon="4.78488">
        <ele>197</ele>
        <time>2016-09-20T10:07:07Z</time>
      </trkpt>
      <trkpt lat="45.93945" lon="4.7848">
        <ele>197</ele>
        <time>2016-09-20T10:07:08Z</time>
      </trkpt>
      <trkpt lat="45.93946" lon="4.78474">
        <ele>197</ele>
        <time>2016-09-20T10:07:09Z</time>
      </trkpt>
      <trkpt lat="45.93947" lon="4.78466">
        <ele>197</ele>
        <time>2016-09-20T10:07:10Z</time>
      </trkpt>
      <trkpt lat="45.93948" lon="4.7846">
        <ele>197</ele>
        <time>2016-09-20T10:07:11Z</time>
      </trkpt>
      <trkpt lat="45.93949" lon="4.78452">
        <ele>197</ele>
        <time>2016-09-20T10:07:12Z</time>
      </trkpt>
      <trkpt lat="45.93949" lon="4.78445">
        <ele>197</ele>
        <time>2016-09-20T10:07:13Z</time>
      </trkpt>
      <trkpt lat="45.9395" lon="4.78437">
        <ele>197</ele>
        <time>2016-09-20T10:07:14Z</time>
      </trkpt>
      <trkpt lat="45.93951" lon="4.7843">
        <ele>197</ele>
        <time>2016-09-20T10:07:15Z</time>
      </trkpt>
      <trkpt lat="45.93952" lon="4.78422">
        <ele>197</ele>
        <time>2016-09-20T10:07:16Z</time>
      </trkpt>
      <trkpt lat="45.93953" lon="4.78415">
        <ele>196</ele>
        <time>2016-09-20T10:07:17Z</time>
      </trkpt>
      <trkpt lat="45.93955" lon="4.78408">
        <ele>196</ele>
        <time>2016-09-20T10:07:18Z</time>
      </trkpt>
      <trkpt lat="45.93955" lon="4.784">
        <ele>197</ele>
        <time>2016-09-20T10:07:19Z</time>
      </trkpt>
      <trkpt lat="45.93957" lon="4.78393">
        <ele>197</ele>
        <time>2016-09-20T10:07:20Z</time>
      </trkpt>
      <trkpt lat="45.93958" lon="4.78384">
        <ele>197</ele>
        <time>2016-09-20T10:07:21Z</time>
      </trkpt>
      <trkpt lat="45.9396" lon="4.78377">
        <ele>197</ele>
        <time>2016-09-20T10:07:22Z</time>
      </trkpt>
      <trkpt lat="45.93961" lon="4.78369">
        <ele>197</ele>
        <time>2016-09-20T10:07:23Z</time>
      </trkpt>
      <trkpt lat="45.93962" lon="4.78362">
        <ele>197</ele>
        <time>2016-09-20T10:07:24Z</time>
      </trkpt>
      <trkpt lat="45.93962" lon="4.78351">
        <ele>197</ele>
        <time>2016-09-20T10:07:25Z</time>
      </trkpt>
      <trkpt lat="45.93964" lon="4.78344">
        <ele>197</ele>
        <time>2016-09-20T10:07:26Z</time>
      </trkpt>
      <trkpt lat="45.93965" lon="4.78338">
        <ele>197</ele>
        <time>2016-09-20T10:07:27Z</time>
      </trkpt>
      <trkpt lat="45.93967" lon="4.78326">
        <ele>196</ele>
        <time>2016-09-20T10:07:29Z</time>
      </trkpt>
      <trkpt lat="45.93967" lon="4.78321">
        <ele>196</ele>
        <time>2016-09-20T10:07:30Z</time>
      </trkpt>
      <trkpt lat="45.93968" lon="4.7831">
        <ele>196</ele>
        <time>2016-09-20T10:07:32Z</time>
      </trkpt>
      <trkpt lat="45.93969" lon="4.78304">
        <ele>196</ele>
        <time>2016-09-20T10:07:33Z</time>
      </trkpt>
      <trkpt lat="45.93969" lon="4.78297">
        <ele>196</ele>
        <time>2016-09-20T10:07:34Z</time>
      </trkpt>
      <trkpt lat="45.9397" lon="4.7829">
        <ele>196</ele>
        <time>2016-09-20T10:07:35Z</time>
      </trkpt>
      <trkpt lat="45.9397" lon="4.78283">
        <ele>196</ele>
        <time>2016-09-20T10:07:36Z</time>
      </trkpt>
      <trkpt lat="45.93971" lon="4.78275">
        <ele>196</ele>
        <time>2016-09-20T10:07:37Z</time>
      </trkpt>
      <trkpt lat="45.93971" lon="4.78269">
        <ele>196</ele>
        <time>2016-09-20T10:07:38Z</time>
      </trkpt>
      <trkpt lat="45.93972" lon="4.78263">
        <ele>196</ele>
        <time>2016-09-20T10:07:39Z</time>
      </trkpt>
      <trkpt lat="45.93974" lon="4.78262">
        <ele>196</ele>
        <time>2016-09-20T10:07:40Z</time>
      </trkpt>
      <trkpt lat="45.93973" lon="4.78261">
        <ele>196</ele>
        <time>2016-09-20T10:07:41Z</time>
      </trkpt>
      <trkpt lat="45.93973" lon="4.78258">
        <ele>196</ele>
        <time>2016-09-20T10:07:43Z</time>
      </trkpt>
      <trkpt lat="45.93974" lon="4.78255">
        <ele>196</ele>
        <time>2016-09-20T10:07:44Z</time>
      </trkpt>
      <trkpt lat="45.93974" lon="4.78247">
        <ele>197</ele>
        <time>2016-09-20T10:07:46Z</time>
      </trkpt>
      <trkpt lat="45.93975" lon="4.78242">
        <ele>197</ele>
        <time>2016-09-20T10:07:47Z</time>
      </trkpt>
      <trkpt lat="45.93977" lon="4.78231">
        <ele>197</ele>
        <time>2016-09-20T10:07:49Z</time>
      </trkpt>
      <trkpt lat="45.93979" lon="4.78225">
        <ele>197</ele>
        <time>2016-09-20T10:07:50Z</time>
      </trkpt>
      <trkpt lat="45.9398" lon="4.78219">
        <ele>197</ele>
        <time>2016-09-20T10:07:51Z</time>
      </trkpt>
      <trkpt lat="45.93982" lon="4.78211">
        <ele>197</ele>
        <time>2016-09-20T10:07:52Z</time>
      </trkpt>
      <trkpt lat="45.93985" lon="4.782">
        <ele>197</ele>
        <time>2016-09-20T10:07:54Z</time>
      </trkpt>
      <trkpt lat="45.93986" lon="4.78195">
        <ele>197</ele>
        <time>2016-09-20T10:07:55Z</time>
      </trkpt>
      <trkpt lat="45.9399" lon="4.78184">
        <ele>198</ele>
        <time>2016-09-20T10:07:57Z</time>
      </trkpt>
      <trkpt lat="45.93993" lon="4.7818">
        <ele>199</ele>
        <time>2016-09-20T10:07:58Z</time>
      </trkpt>
      <trkpt lat="45.93998" lon="4.78173">
        <ele>200</ele>
        <time>2016-09-20T10:08:00Z</time>
      </trkpt>
      <trkpt lat="45.93996" lon="4.78166">
        <ele>200</ele>
        <time>2016-09-20T10:08:01Z</time>
      </trkpt>
      <trkpt lat="45.93994" lon="4.78153">
        <ele>199</ele>
        <time>2016-09-20T10:08:03Z</time>
      </trkpt>
      <trkpt lat="45.93994" lon="4.78147">
        <ele>198</ele>
        <time>2016-09-20T10:08:04Z</time>
      </trkpt>
      <trkpt lat="45.93995" lon="4.78135">
        <ele>198</ele>
        <time>2016-09-20T10:08:06Z</time>
      </trkpt>
      <trkpt lat="45.93996" lon="4.78128">
        <ele>197</ele>
        <time>2016-09-20T10:08:07Z</time>
      </trkpt>
      <trkpt lat="45.93998" lon="4.78117">
        <ele>197</ele>
        <time>2016-09-20T10:08:09Z</time>
      </trkpt>
      <trkpt lat="45.93999" lon="4.78111">
        <ele>197</ele>
        <time>2016-09-20T10:08:10Z</time>
      </trkpt>
      <trkpt lat="45.94" lon="4.78104">
        <ele>197</ele>
        <time>2016-09-20T10:08:11Z</time>
      </trkpt>
      <trkpt lat="45.94001" lon="4.78095">
        <ele>201</ele>
        <time>2016-09-20T10:08:12Z</time>
      </trkpt>
      <trkpt lat="45.94003" lon="4.78088">
        <ele>200</ele>
        <time>2016-09-20T10:08:13Z</time>
      </trkpt>
      <trkpt lat="45.94004" lon="4.7808">
        <ele>200</ele>
        <time>2016-09-20T10:08:14Z</time>
      </trkpt>
      <trkpt lat="45.94006" lon="4.78068">
        <ele>201</ele>
        <time>2016-09-20T10:08:16Z</time>
      </trkpt>
      <trkpt lat="45.94007" lon="4.78062">
        <ele>201</ele>
        <time>2016-09-20T10:08:17Z</time>
      </trkpt>
      <trkpt lat="45.94011" lon="4.78051">
        <ele>201</ele>
        <time>2016-09-20T10:08:19Z</time>
      </trkpt>
      <trkpt lat="45.94013" lon="4.78045">
        <ele>201</ele>
        <time>2016-09-20T10:08:20Z</time>
      </trkpt>
      <trkpt lat="45.94015" lon="4.78034">
        <ele>201</ele>
        <time>2016-09-20T10:08:22Z</time>
      </trkpt>
      <trkpt lat="45.94016" lon="4.78028">
        <ele>201</ele>
        <time>2016-09-20T10:08:23Z</time>
      </trkpt>
      <trkpt lat="45.94018" lon="4.78021">
        <ele>201</ele>
        <time>2016-09-20T10:08:24Z</time>
      </trkpt>
      <trkpt lat="45.94019" lon="4.78015">
        <ele>200</ele>
        <time>2016-09-20T10:08:25Z</time>
      </trkpt>
      <trkpt lat="45.9402" lon="4.78008">
        <ele>200</ele>
        <time>2016-09-20T10:08:26Z</time>
      </trkpt>
      <trkpt lat="45.94021" lon="4.77999">
        <ele>199</ele>
        <time>2016-09-20T10:08:27Z</time>
      </trkpt>
      <trkpt lat="45.94022" lon="4.77992">
        <ele>200</ele>
        <time>2016-09-20T10:08:28Z</time>
      </trkpt>
      <trkpt lat="45.94023" lon="4.77985">
        <ele>200</ele>
        <time>2016-09-20T10:08:29Z</time>
      </trkpt>
      <trkpt lat="45.94024" lon="4.77978">
        <ele>200</ele>
        <time>2016-09-20T10:08:30Z</time>
      </trkpt>
      <trkpt lat="45.94025" lon="4.77971">
        <ele>200</ele>
        <time>2016-09-20T10:08:31Z</time>
      </trkpt>
      <trkpt lat="45.94026" lon="4.77964">
        <ele>200</ele>
        <time>2016-09-20T10:08:32Z</time>
      </trkpt>
      <trkpt lat="45.94028" lon="4.77956">
        <ele>200</ele>
        <time>2016-09-20T10:08:33Z</time>
      </trkpt>
      <trkpt lat="45.9403" lon="4.77949">
        <ele>200</ele>
        <time>2016-09-20T10:08:34Z</time>
      </trkpt>
      <trkpt lat="45.94031" lon="4.77942">
        <ele>200</ele>
        <time>2016-09-20T10:08:35Z</time>
      </trkpt>
      <trkpt lat="45.94027" lon="4.77931">
        <ele>200</ele>
        <time>2016-09-20T10:08:37Z</time>
      </trkpt>
      <trkpt lat="45.94023" lon="4.7793">
        <ele>199</ele>
        <time>2016-09-20T10:08:38Z</time>
      </trkpt>
      <trkpt lat="45.94018" lon="4.77929">
        <ele>198</ele>
        <time>2016-09-20T10:08:39Z</time>
      </trkpt>
      <trkpt lat="45.94012" lon="4.77931">
        <ele>198</ele>
        <time>2016-09-20T10:08:40Z</time>
      </trkpt>
      <trkpt lat="45.94007" lon="4.77931">
        <ele>197</ele>
        <time>2016-09-20T10:08:41Z</time>
      </trkpt>
      <trkpt lat="45.94" lon="4.77932">
        <ele>197</ele>
        <time>2016-09-20T10:08:42Z</time>
      </trkpt>
      <trkpt lat="45.93993" lon="4.77938">
        <ele>192</ele>
        <time>2016-09-20T10:08:43Z</time>
      </trkpt>
      <trkpt lat="45.93986" lon="4.77942">
        <ele>191</ele>
        <time>2016-09-20T10:08:44Z</time>
      </trkpt>
      <trkpt lat="45.93978" lon="4.77947">
        <ele>191</ele>
        <time>2016-09-20T10:08:45Z</time>
      </trkpt>
      <trkpt lat="45.9397" lon="4.77953">
        <ele>191</ele>
        <time>2016-09-20T10:08:46Z</time>
      </trkpt>
      <trkpt lat="45.93962" lon="4.77958">
        <ele>190</ele>
        <time>2016-09-20T10:08:47Z</time>
      </trkpt>
      <trkpt lat="45.93955" lon="4.77971">
        <ele>190</ele>
        <time>2016-09-20T10:08:48Z</time>
      </trkpt>
      <trkpt lat="45.93947" lon="4.77975">
        <ele>189</ele>
        <time>2016-09-20T10:08:49Z</time>
      </trkpt>
      <trkpt lat="45.93939" lon="4.7798">
        <ele>189</ele>
        <time>2016-09-20T10:08:50Z</time>
      </trkpt>
      <trkpt lat="45.93931" lon="4.77984">
        <ele>188</ele>
        <time>2016-09-20T10:08:51Z</time>
      </trkpt>
      <trkpt lat="45.93922" lon="4.7799">
        <ele>187</ele>
        <time>2016-09-20T10:08:52Z</time>
      </trkpt>
      <trkpt lat="45.93914" lon="4.77996">
        <ele>185</ele>
        <time>2016-09-20T10:08:53Z</time>
      </trkpt>
      <trkpt lat="45.93907" lon="4.78003">
        <ele>185</ele>
        <time>2016-09-20T10:08:54Z</time>
      </trkpt>
      <trkpt lat="45.93901" lon="4.7801">
        <ele>185</ele>
        <time>2016-09-20T10:08:55Z</time>
      </trkpt>
      <trkpt lat="45.93895" lon="4.78017">
        <ele>184</ele>
        <time>2016-09-20T10:08:56Z</time>
      </trkpt>
      <trkpt lat="45.93891" lon="4.78022">
        <ele>184</ele>
        <time>2016-09-20T10:08:57Z</time>
      </trkpt>
      <trkpt lat="45.93887" lon="4.78025">
        <ele>184</ele>
        <time>2016-09-20T10:08:58Z</time>
      </trkpt>
      <trkpt lat="45.93882" lon="4.78027">
        <ele>184</ele>
        <time>2016-09-20T10:08:59Z</time>
      </trkpt>
      <trkpt lat="45.93878" lon="4.78026">
        <ele>184</ele>
        <time>2016-09-20T10:09:00Z</time>
      </trkpt>
      <trkpt lat="45.93871" lon="4.78022">
        <ele>183</ele>
        <time>2016-09-20T10:09:04Z</time>
      </trkpt>
      <trkpt lat="45.93869" lon="4.78019">
        <ele>183</ele>
        <time>2016-09-20T10:09:05Z</time>
      </trkpt>
      <trkpt lat="45.93866" lon="4.78013">
        <ele>183</ele>
        <time>2016-09-20T10:09:06Z</time>
      </trkpt>
      <trkpt lat="45.93863" lon="4.78008">
        <ele>182</ele>
        <time>2016-09-20T10:09:07Z</time>
      </trkpt>
      <trkpt lat="45.93859" lon="4.78004">
        <ele>182</ele>
        <time>2016-09-20T10:09:08Z</time>
      </trkpt>
      <trkpt lat="45.93855" lon="4.78">
        <ele>179</ele>
        <time>2016-09-20T10:09:09Z</time>
      </trkpt>
      <trkpt lat="45.9385" lon="4.77995">
        <ele>179</ele>
        <time>2016-09-20T10:09:10Z</time>
      </trkpt>
      <trkpt lat="45.93846" lon="4.77991">
        <ele>179</ele>
        <time>2016-09-20T10:09:11Z</time>
      </trkpt>
      <trkpt lat="45.93842" lon="4.77985">
        <ele>178</ele>
        <time>2016-09-20T10:09:12Z</time>
      </trkpt>
      <trkpt lat="45.93837" lon="4.7798">
        <ele>178</ele>
        <time>2016-09-20T10:09:13Z</time>
      </trkpt>
      <trkpt lat="45.93833" lon="4.77974">
        <ele>173</ele>
        <time>2016-09-20T10:09:14Z</time>
      </trkpt>
      <trkpt lat="45.9383" lon="4.77969">
        <ele>172</ele>
        <time>2016-09-20T10:09:15Z</time>
      </trkpt>
      <trkpt lat="45.93826" lon="4.77964">
        <ele>171</ele>
        <time>2016-09-20T10:09:16Z</time>
      </trkpt>
      <trkpt lat="45.93822" lon="4.77959">
        <ele>170</ele>
        <time>2016-09-20T10:09:17Z</time>
      </trkpt>
      <trkpt lat="45.93818" lon="4.77954">
        <ele>170</ele>
        <time>2016-09-20T10:09:18Z</time>
      </trkpt>
      <trkpt lat="45.93815" lon="4.77949">
        <ele>169</ele>
        <time>2016-09-20T10:09:19Z</time>
      </trkpt>
      <trkpt lat="45.93811" lon="4.77943">
        <ele>169</ele>
        <time>2016-09-20T10:09:20Z</time>
      </trkpt>
      <trkpt lat="45.93806" lon="4.77938">
        <ele>169</ele>
        <time>2016-09-20T10:09:21Z</time>
      </trkpt>
      <trkpt lat="45.93802" lon="4.77933">
        <ele>168</ele>
        <time>2016-09-20T10:09:22Z</time>
      </trkpt>
      <trkpt lat="45.93798" lon="4.77927">
        <ele>168</ele>
        <time>2016-09-20T10:09:23Z</time>
      </trkpt>
      <trkpt lat="45.93793" lon="4.77922">
        <ele>168</ele>
        <time>2016-09-20T10:09:24Z</time>
      </trkpt>
      <trkpt lat="45.93789" lon="4.77916">
        <ele>166</ele>
        <time>2016-09-20T10:09:25Z</time>
      </trkpt>
      <trkpt lat="45.93785" lon="4.77911">
        <ele>166</ele>
        <time>2016-09-20T10:09:26Z</time>
      </trkpt>
      <trkpt lat="45.93781" lon="4.77906">
        <ele>166</ele>
        <time>2016-09-20T10:09:27Z</time>
      </trkpt>
      <trkpt lat="45.93778" lon="4.77901">
        <ele>166</ele>
        <time>2016-09-20T10:09:28Z</time>
      </trkpt>
      <trkpt lat="45.93774" lon="4.77897">
        <ele>166</ele>
        <time>2016-09-20T10:09:29Z</time>
      </trkpt>
      <trkpt lat="45.93771" lon="4.77892">
        <ele>166</ele>
        <time>2016-09-20T10:09:30Z</time>
      </trkpt>
      <trkpt lat="45.93767" lon="4.77887">
        <ele>166</ele>
        <time>2016-09-20T10:09:31Z</time>
      </trkpt>
      <trkpt lat="45.93764" lon="4.77882">
        <ele>166</ele>
        <time>2016-09-20T10:09:32Z</time>
      </trkpt>
      <trkpt lat="45.9376" lon="4.77877">
        <ele>166</ele>
        <time>2016-09-20T10:09:33Z</time>
      </trkpt>
      <trkpt lat="45.93756" lon="4.77872">
        <ele>166</ele>
        <time>2016-09-20T10:09:34Z</time>
      </trkpt>
      <trkpt lat="45.93752" lon="4.77867">
        <ele>166</ele>
        <time>2016-09-20T10:09:35Z</time>
      </trkpt>
      <trkpt lat="45.93748" lon="4.77861">
        <ele>167</ele>
        <time>2016-09-20T10:09:36Z</time>
      </trkpt>
      <trkpt lat="45.93744" lon="4.77856">
        <ele>167</ele>
        <time>2016-09-20T10:09:37Z</time>
      </trkpt>
      <trkpt lat="45.9374" lon="4.77851">
        <ele>167</ele>
        <time>2016-09-20T10:09:38Z</time>
      </trkpt>
      <trkpt lat="45.93736" lon="4.77846">
        <ele>167</ele>
        <time>2016-09-20T10:09:39Z</time>
      </trkpt>
      <trkpt lat="45.93731" lon="4.7784">
        <ele>167</ele>
        <time>2016-09-20T10:09:40Z</time>
      </trkpt>
      <trkpt lat="45.93727" lon="4.77835">
        <ele>167</ele>
        <time>2016-09-20T10:09:41Z</time>
      </trkpt>
      <trkpt lat="45.93723" lon="4.7783">
        <ele>168</ele>
        <time>2016-09-20T10:09:42Z</time>
      </trkpt>
      <trkpt lat="45.93719" lon="4.77824">
        <ele>168</ele>
        <time>2016-09-20T10:09:43Z</time>
      </trkpt>
      <trkpt lat="45.93715" lon="4.77818">
        <ele>169</ele>
        <time>2016-09-20T10:09:44Z</time>
      </trkpt>
      <trkpt lat="45.93712" lon="4.77812">
        <ele>169</ele>
        <time>2016-09-20T10:09:45Z</time>
      </trkpt>
      <trkpt lat="45.93707" lon="4.77806">
        <ele>169</ele>
        <time>2016-09-20T10:09:46Z</time>
      </trkpt>
      <trkpt lat="45.93703" lon="4.77799">
        <ele>169</ele>
        <time>2016-09-20T10:09:47Z</time>
      </trkpt>
      <trkpt lat="45.93698" lon="4.77793">
        <ele>169</ele>
        <time>2016-09-20T10:09:48Z</time>
      </trkpt>
      <trkpt lat="45.93693" lon="4.77787">
        <ele>170</ele>
        <time>2016-09-20T10:09:49Z</time>
      </trkpt>
      <trkpt lat="45.93689" lon="4.77781">
        <ele>170</ele>
        <time>2016-09-20T10:09:50Z</time>
      </trkpt>
      <trkpt lat="45.93684" lon="4.77775">
        <ele>170</ele>
        <time>2016-09-20T10:09:51Z</time>
      </trkpt>
      <trkpt lat="45.93679" lon="4.77768">
        <ele>170</ele>
        <time>2016-09-20T10:09:52Z</time>
      </trkpt>
      <trkpt lat="45.93674" lon="4.77761">
        <ele>170</ele>
        <time>2016-09-20T10:09:53Z</time>
      </trkpt>
      <trkpt lat="45.93668" lon="4.77755">
        <ele>171</ele>
        <time>2016-09-20T10:09:54Z</time>
      </trkpt>
      <trkpt lat="45.93663" lon="4.77747">
        <ele>171</ele>
        <time>2016-09-20T10:09:55Z</time>
      </trkpt>
      <trkpt lat="45.93658" lon="4.77739">
        <ele>170</ele>
        <time>2016-09-20T10:09:56Z</time>
      </trkpt>
      <trkpt lat="45.93652" lon="4.7773">
        <ele>170</ele>
        <time>2016-09-20T10:09:57Z</time>
      </trkpt>
      <trkpt lat="45.93648" lon="4.77721">
        <ele>170</ele>
        <time>2016-09-20T10:09:58Z</time>
      </trkpt>
      <trkpt lat="45.93643" lon="4.77712">
        <ele>170</ele>
        <time>2016-09-20T10:09:59Z</time>
      </trkpt>
      <trkpt lat="45.93638" lon="4.77702">
        <ele>170</ele>
        <time>2016-09-20T10:10:00Z</time>
      </trkpt>
      <trkpt lat="45.93633" lon="4.77693">
        <ele>169</ele>
        <time>2016-09-20T10:10:01Z</time>
      </trkpt>
      <trkpt lat="45.93628" lon="4.77683">
        <ele>169</ele>
        <time>2016-09-20T10:10:02Z</time>
      </trkpt>
      <trkpt lat="45.93623" lon="4.77673">
        <ele>169</ele>
        <time>2016-09-20T10:10:03Z</time>
      </trkpt>
      <trkpt lat="45.93618" lon="4.77663">
        <ele>169</ele>
        <time>2016-09-20T10:10:04Z</time>
      </trkpt>
      <trkpt lat="45.93614" lon="4.77653">
        <ele>169</ele>
        <time>2016-09-20T10:10:05Z</time>
      </trkpt>
      <trkpt lat="45.9361" lon="4.77644">
        <ele>169</ele>
        <time>2016-09-20T10:10:06Z</time>
      </trkpt>
      <trkpt lat="45.93606" lon="4.77634">
        <ele>169</ele>
        <time>2016-09-20T10:10:07Z</time>
      </trkpt>
      <trkpt lat="45.93602" lon="4.77623">
        <ele>170</ele>
        <time>2016-09-20T10:10:08Z</time>
      </trkpt>
      <trkpt lat="45.93598" lon="4.77614">
        <ele>170</ele>
        <time>2016-09-20T10:10:09Z</time>
      </trkpt>
      <trkpt lat="45.93595" lon="4.77605">
        <ele>170</ele>
        <time>2016-09-20T10:10:10Z</time>
      </trkpt>
      <trkpt lat="45.93592" lon="4.77596">
        <ele>170</ele>
        <time>2016-09-20T10:10:11Z</time>
      </trkpt>
      <trkpt lat="45.93589" lon="4.77587">
        <ele>170</ele>
        <time>2016-09-20T10:10:12Z</time>
      </trkpt>
      <trkpt lat="45.93586" lon="4.77578">
        <ele>170</ele>
        <time>2016-09-20T10:10:13Z</time>
      </trkpt>
      <trkpt lat="45.93584" lon="4.7757">
        <ele>170</ele>
        <time>2016-09-20T10:10:14Z</time>
      </trkpt>
      <trkpt lat="45.93581" lon="4.77561">
        <ele>169</ele>
        <time>2016-09-20T10:10:15Z</time>
      </trkpt>
      <trkpt lat="45.93579" lon="4.77552">
        <ele>169</ele>
        <time>2016-09-20T10:10:16Z</time>
      </trkpt>
      <trkpt lat="45.93578" lon="4.77543">
        <ele>169</ele>
        <time>2016-09-20T10:10:17Z</time>
      </trkpt>
      <trkpt lat="45.93576" lon="4.77535">
        <ele>169</ele>
        <time>2016-09-20T10:10:18Z</time>
      </trkpt>
      <trkpt lat="45.93574" lon="4.77526">
        <ele>169</ele>
        <time>2016-09-20T10:10:19Z</time>
      </trkpt>
      <trkpt lat="45.93572" lon="4.77517">
        <ele>169</ele>
        <time>2016-09-20T10:10:20Z</time>
      </trkpt>
      <trkpt lat="45.9357" lon="4.77509">
        <ele>169</ele>
        <time>2016-09-20T10:10:21Z</time>
      </trkpt>
      <trkpt lat="45.93568" lon="4.775">
        <ele>169</ele>
        <time>2016-09-20T10:10:22Z</time>
      </trkpt>
      <trkpt lat="45.93566" lon="4.77492">
        <ele>169</ele>
        <time>2016-09-20T10:10:23Z</time>
      </trkpt>
      <trkpt lat="45.93565" lon="4.77483">
        <ele>169</ele>
        <time>2016-09-20T10:10:24Z</time>
      </trkpt>
      <trkpt lat="45.93564" lon="4.77474">
        <ele>169</ele>
        <time>2016-09-20T10:10:25Z</time>
      </trkpt>
      <trkpt lat="45.93562" lon="4.77465">
        <ele>169</ele>
        <time>2016-09-20T10:10:26Z</time>
      </trkpt>
      <trkpt lat="45.9356" lon="4.77456">
        <ele>169</ele>
        <time>2016-09-20T10:10:27Z</time>
      </trkpt>
      <trkpt lat="45.93558" lon="4.77448">
        <ele>169</ele>
        <time>2016-09-20T10:10:28Z</time>
      </trkpt>
      <trkpt lat="45.93556" lon="4.77439">
        <ele>169</ele>
        <time>2016-09-20T10:10:29Z</time>
      </trkpt>
      <trkpt lat="45.93554" lon="4.77431">
        <ele>170</ele>
        <time>2016-09-20T10:10:30Z</time>
      </trkpt>
      <trkpt lat="45.93552" lon="4.77423">
        <ele>170</ele>
        <time>2016-09-20T10:10:31Z</time>
      </trkpt>
      <trkpt lat="45.9355" lon="4.77415">
        <ele>170</ele>
        <time>2016-09-20T10:10:32Z</time>
      </trkpt>
      <trkpt lat="45.93549" lon="4.77407">
        <ele>170</ele>
        <time>2016-09-20T10:10:33Z</time>
      </trkpt>
      <trkpt lat="45.93547" lon="4.774">
        <ele>170</ele>
        <time>2016-09-20T10:10:34Z</time>
      </trkpt>
      <trkpt lat="45.93546" lon="4.77393">
        <ele>170</ele>
        <time>2016-09-20T10:10:35Z</time>
      </trkpt>
      <trkpt lat="45.93544" lon="4.77385">
        <ele>170</ele>
        <time>2016-09-20T10:10:36Z</time>
      </trkpt>
      <trkpt lat="45.93542" lon="4.77377">
        <ele>170</ele>
        <time>2016-09-20T10:10:37Z</time>
      </trkpt>
      <trkpt lat="45.9354" lon="4.77369">
        <ele>170</ele>
        <time>2016-09-20T10:10:38Z</time>
      </trkpt>
      <trkpt lat="45.93539" lon="4.77361">
        <ele>170</ele>
        <time>2016-09-20T10:10:39Z</time>
      </trkpt>
      <trkpt lat="45.93537" lon="4.77352">
        <ele>170</ele>
        <time>2016-09-20T10:10:40Z</time>
      </trkpt>
      <trkpt lat="45.93536" lon="4.77343">
        <ele>170</ele>
        <time>2016-09-20T10:10:41Z</time>
      </trkpt>
      <trkpt lat="45.93534" lon="4.77335">
        <ele>170</ele>
        <time>2016-09-20T10:10:42Z</time>
      </trkpt>
      <trkpt lat="45.93532" lon="4.77326">
        <ele>170</ele>
        <time>2016-09-20T10:10:43Z</time>
      </trkpt>
      <trkpt lat="45.9353" lon="4.77318">
        <ele>170</ele>
        <time>2016-09-20T10:10:44Z</time>
      </trkpt>
      <trkpt lat="45.93529" lon="4.7731">
        <ele>170</ele>
        <time>2016-09-20T10:10:45Z</time>
      </trkpt>
      <trkpt lat="45.93527" lon="4.77302">
        <ele>170</ele>
        <time>2016-09-20T10:10:46Z</time>
      </trkpt>
      <trkpt lat="45.93525" lon="4.77294">
        <ele>170</ele>
        <time>2016-09-20T10:10:47Z</time>
      </trkpt>
      <trkpt lat="45.93523" lon="4.77285">
        <ele>170</ele>
        <time>2016-09-20T10:10:48Z</time>
      </trkpt>
      <trkpt lat="45.93521" lon="4.77277">
        <ele>170</ele>
        <time>2016-09-20T10:10:49Z</time>
      </trkpt>
      <trkpt lat="45.93519" lon="4.77269">
        <ele>170</ele>
        <time>2016-09-20T10:10:50Z</time>
      </trkpt>
      <trkpt lat="45.93518" lon="4.77262">
        <ele>170</ele>
        <time>2016-09-20T10:10:51Z</time>
      </trkpt>
      <trkpt lat="45.93516" lon="4.77254">
        <ele>170</ele>
        <time>2016-09-20T10:10:52Z</time>
      </trkpt>
      <trkpt lat="45.93514" lon="4.77246">
        <ele>169</ele>
        <time>2016-09-20T10:10:53Z</time>
      </trkpt>
      <trkpt lat="45.93512" lon="4.77238">
        <ele>169</ele>
        <time>2016-09-20T10:10:54Z</time>
      </trkpt>
      <trkpt lat="45.93511" lon="4.7723">
        <ele>169</ele>
        <time>2016-09-20T10:10:55Z</time>
      </trkpt>
      <trkpt lat="45.9351" lon="4.77223">
        <ele>169</ele>
        <time>2016-09-20T10:10:56Z</time>
      </trkpt>
      <trkpt lat="45.93509" lon="4.77215">
        <ele>169</ele>
        <time>2016-09-20T10:10:57Z</time>
      </trkpt>
      <trkpt lat="45.93507" lon="4.77207">
        <ele>169</ele>
        <time>2016-09-20T10:10:58Z</time>
      </trkpt>
      <trkpt lat="45.93505" lon="4.77199">
        <ele>169</ele>
        <time>2016-09-20T10:10:59Z</time>
      </trkpt>
      <trkpt lat="45.93503" lon="4.77191">
        <ele>169</ele>
        <time>2016-09-20T10:11:00Z</time>
      </trkpt>
      <trkpt lat="45.93501" lon="4.77183">
        <ele>169</ele>
        <time>2016-09-20T10:11:01Z</time>
      </trkpt>
      <trkpt lat="45.935" lon="4.77176">
        <ele>169</ele>
        <time>2016-09-20T10:11:02Z</time>
      </trkpt>
      <trkpt lat="45.93498" lon="4.77168">
        <ele>169</ele>
        <time>2016-09-20T10:11:03Z</time>
      </trkpt>
      <trkpt lat="45.93496" lon="4.7716">
        <ele>169</ele>
        <time>2016-09-20T10:11:04Z</time>
      </trkpt>
      <trkpt lat="45.93494" lon="4.77153">
        <ele>169</ele>
        <time>2016-09-20T10:11:05Z</time>
      </trkpt>
      <trkpt lat="45.93492" lon="4.77145">
        <ele>169</ele>
        <time>2016-09-20T10:11:06Z</time>
      </trkpt>
      <trkpt lat="45.93491" lon="4.77138">
        <ele>169</ele>
        <time>2016-09-20T10:11:07Z</time>
      </trkpt>
      <trkpt lat="45.93489" lon="4.7713">
        <ele>169</ele>
        <time>2016-09-20T10:11:08Z</time>
      </trkpt>
      <trkpt lat="45.93487" lon="4.77121">
        <ele>169</ele>
        <time>2016-09-20T10:11:09Z</time>
      </trkpt>
      <trkpt lat="45.93485" lon="4.77114">
        <ele>169</ele>
        <time>2016-09-20T10:11:10Z</time>
      </trkpt>
      <trkpt lat="45.93484" lon="4.77105">
        <ele>169</ele>
        <time>2016-09-20T10:11:11Z</time>
      </trkpt>
      <trkpt lat="45.93482" lon="4.77097">
        <ele>169</ele>
        <time>2016-09-20T10:11:12Z</time>
      </trkpt>
      <trkpt lat="45.93481" lon="4.77088">
        <ele>169</ele>
        <time>2016-09-20T10:11:13Z</time>
      </trkpt>
      <trkpt lat="45.93479" lon="4.7708">
        <ele>170</ele>
        <time>2016-09-20T10:11:14Z</time>
      </trkpt>
      <trkpt lat="45.93478" lon="4.77073">
        <ele>170</ele>
        <time>2016-09-20T10:11:15Z</time>
      </trkpt>
      <trkpt lat="45.93476" lon="4.77065">
        <ele>170</ele>
        <time>2016-09-20T10:11:16Z</time>
      </trkpt>
      <trkpt lat="45.93475" lon="4.77058">
        <ele>170</ele>
        <time>2016-09-20T10:11:17Z</time>
      </trkpt>
      <trkpt lat="45.93473" lon="4.77051">
        <ele>170</ele>
        <time>2016-09-20T10:11:18Z</time>
      </trkpt>
      <trkpt lat="45.93472" lon="4.77043">
        <ele>170</ele>
        <time>2016-09-20T10:11:19Z</time>
      </trkpt>
      <trkpt lat="45.9347" lon="4.77036">
        <ele>170</ele>
        <time>2016-09-20T10:11:20Z</time>
      </trkpt>
      <trkpt lat="45.93469" lon="4.77029">
        <ele>170</ele>
        <time>2016-09-20T10:11:21Z</time>
      </trkpt>
      <trkpt lat="45.93468" lon="4.77021">
        <ele>170</ele>
        <time>2016-09-20T10:11:22Z</time>
      </trkpt>
      <trkpt lat="45.93466" lon="4.77014">
        <ele>170</ele>
        <time>2016-09-20T10:11:23Z</time>
      </trkpt>
      <trkpt lat="45.93465" lon="4.77006">
        <ele>170</ele>
        <time>2016-09-20T10:11:24Z</time>
      </trkpt>
      <trkpt lat="45.93464" lon="4.76998">
        <ele>170</ele>
        <time>2016-09-20T10:11:25Z</time>
      </trkpt>
      <trkpt lat="45.93462" lon="4.7699">
        <ele>170</ele>
        <time>2016-09-20T10:11:26Z</time>
      </trkpt>
      <trkpt lat="45.93461" lon="4.76982">
        <ele>170</ele>
        <time>2016-09-20T10:11:27Z</time>
      </trkpt>
      <trkpt lat="45.9346" lon="4.76974">
        <ele>170</ele>
        <time>2016-09-20T10:11:28Z</time>
      </trkpt>
      <trkpt lat="45.93458" lon="4.76965">
        <ele>170</ele>
        <time>2016-09-20T10:11:29Z</time>
      </trkpt>
      <trkpt lat="45.93457" lon="4.76957">
        <ele>170</ele>
        <time>2016-09-20T10:11:30Z</time>
      </trkpt>
      <trkpt lat="45.93456" lon="4.76948">
        <ele>170</ele>
        <time>2016-09-20T10:11:31Z</time>
      </trkpt>
      <trkpt lat="45.93455" lon="4.76939">
        <ele>170</ele>
        <time>2016-09-20T10:11:32Z</time>
      </trkpt>
      <trkpt lat="45.93454" lon="4.76931">
        <ele>170</ele>
        <time>2016-09-20T10:11:33Z</time>
      </trkpt>
      <trkpt lat="45.93453" lon="4.76923">
        <ele>170</ele>
        <time>2016-09-20T10:11:34Z</time>
      </trkpt>
      <trkpt lat="45.93452" lon="4.76916">
        <ele>170</ele>
        <time>2016-09-20T10:11:35Z</time>
      </trkpt>
      <trkpt lat="45.9345" lon="4.76909">
        <ele>170</ele>
        <time>2016-09-20T10:11:36Z</time>
      </trkpt>
      <trkpt lat="45.93448" lon="4.76902">
        <ele>170</ele>
        <time>2016-09-20T10:11:37Z</time>
      </trkpt>
      <trkpt lat="45.93446" lon="4.76895">
        <ele>170</ele>
        <time>2016-09-20T10:11:38Z</time>
      </trkpt>
      <trkpt lat="45.93444" lon="4.76888">
        <ele>170</ele>
        <time>2016-09-20T10:11:39Z</time>
      </trkpt>
      <trkpt lat="45.93441" lon="4.76881">
        <ele>170</ele>
        <time>2016-09-20T10:11:40Z</time>
      </trkpt>
      <trkpt lat="45.93439" lon="4.76874">
        <ele>171</ele>
        <time>2016-09-20T10:11:41Z</time>
      </trkpt>
      <trkpt lat="45.93436" lon="4.76867">
        <ele>171</ele>
        <time>2016-09-20T10:11:42Z</time>
      </trkpt>
      <trkpt lat="45.93433" lon="4.7686">
        <ele>171</ele>
        <time>2016-09-20T10:11:43Z</time>
      </trkpt>
      <trkpt lat="45.9343" lon="4.76854">
        <ele>171</ele>
        <time>2016-09-20T10:11:44Z</time>
      </trkpt>
      <trkpt lat="45.93426" lon="4.76848">
        <ele>171</ele>
        <time>2016-09-20T10:11:45Z</time>
      </trkpt>
      <trkpt lat="45.93423" lon="4.76841">
        <ele>171</ele>
        <time>2016-09-20T10:11:46Z</time>
      </trkpt>
      <trkpt lat="45.93419" lon="4.76834">
        <ele>172</ele>
        <time>2016-09-20T10:11:47Z</time>
      </trkpt>
      <trkpt lat="45.93416" lon="4.76827">
        <ele>172</ele>
        <time>2016-09-20T10:11:48Z</time>
      </trkpt>
      <trkpt lat="45.93413" lon="4.76821">
        <ele>172</ele>
        <time>2016-09-20T10:11:49Z</time>
      </trkpt>
      <trkpt lat="45.93409" lon="4.76815">
        <ele>172</ele>
        <time>2016-09-20T10:11:50Z</time>
      </trkpt>
      <trkpt lat="45.93405" lon="4.7681">
        <ele>172</ele>
        <time>2016-09-20T10:11:51Z</time>
      </trkpt>
      <trkpt lat="45.934" lon="4.76805">
        <ele>172</ele>
        <time>2016-09-20T10:11:52Z</time>
      </trkpt>
      <trkpt lat="45.93396" lon="4.768">
        <ele>172</ele>
        <time>2016-09-20T10:11:53Z</time>
      </trkpt>
      <trkpt lat="45.93391" lon="4.76796">
        <ele>172</ele>
        <time>2016-09-20T10:11:54Z</time>
      </trkpt>
      <trkpt lat="45.93386" lon="4.7679">
        <ele>172</ele>
        <time>2016-09-20T10:11:55Z</time>
      </trkpt>
      <trkpt lat="45.93382" lon="4.76785">
        <ele>172</ele>
        <time>2016-09-20T10:11:56Z</time>
      </trkpt>
      <trkpt lat="45.93378" lon="4.76779">
        <ele>172</ele>
        <time>2016-09-20T10:11:57Z</time>
      </trkpt>
      <trkpt lat="45.93373" lon="4.76775">
        <ele>172</ele>
        <time>2016-09-20T10:11:58Z</time>
      </trkpt>
      <trkpt lat="45.93369" lon="4.76771">
        <ele>172</ele>
        <time>2016-09-20T10:11:59Z</time>
      </trkpt>
      <trkpt lat="45.93364" lon="4.76767">
        <ele>172</ele>
        <time>2016-09-20T10:12:00Z</time>
      </trkpt>
      <trkpt lat="45.93359" lon="4.76762">
        <ele>172</ele>
        <time>2016-09-20T10:12:01Z</time>
      </trkpt>
      <trkpt lat="45.93355" lon="4.76757">
        <ele>172</ele>
        <time>2016-09-20T10:12:02Z</time>
      </trkpt>
      <trkpt lat="45.9335" lon="4.76753">
        <ele>172</ele>
        <time>2016-09-20T10:12:03Z</time>
      </trkpt>
      <trkpt lat="45.93346" lon="4.76748">
        <ele>172</ele>
        <time>2016-09-20T10:12:04Z</time>
      </trkpt>
      <trkpt lat="45.93341" lon="4.76743">
        <ele>173</ele>
        <time>2016-09-20T10:12:05Z</time>
      </trkpt>
      <trkpt lat="45.93336" lon="4.76738">
        <ele>172</ele>
        <time>2016-09-20T10:12:06Z</time>
      </trkpt>
      <trkpt lat="45.93332" lon="4.76734">
        <ele>172</ele>
        <time>2016-09-20T10:12:07Z</time>
      </trkpt>
      <trkpt lat="45.93327" lon="4.7673">
        <ele>172</ele>
        <time>2016-09-20T10:12:08Z</time>
      </trkpt>
      <trkpt lat="45.93323" lon="4.76726">
        <ele>172</ele>
        <time>2016-09-20T10:12:09Z</time>
      </trkpt>
      <trkpt lat="45.93319" lon="4.76721">
        <ele>172</ele>
        <time>2016-09-20T10:12:10Z</time>
      </trkpt>
      <trkpt lat="45.93314" lon="4.76717">
        <ele>172</ele>
        <time>2016-09-20T10:12:11Z</time>
      </trkpt>
      <trkpt lat="45.9331" lon="4.76712">
        <ele>172</ele>
        <time>2016-09-20T10:12:12Z</time>
      </trkpt>
      <trkpt lat="45.93306" lon="4.76708">
        <ele>172</ele>
        <time>2016-09-20T10:12:13Z</time>
      </trkpt>
      <trkpt lat="45.93302" lon="4.76703">
        <ele>172</ele>
        <time>2016-09-20T10:12:14Z</time>
      </trkpt>
      <trkpt lat="45.93297" lon="4.76699">
        <ele>172</ele>
        <time>2016-09-20T10:12:15Z</time>
      </trkpt>
      <trkpt lat="45.9329" lon="4.76694">
        <ele>172</ele>
        <time>2016-09-20T10:12:17Z</time>
      </trkpt>
      <trkpt lat="45.93285" lon="4.76689">
        <ele>172</ele>
        <time>2016-09-20T10:12:18Z</time>
      </trkpt>
      <trkpt lat="45.93281" lon="4.76684">
        <ele>172</ele>
        <time>2016-09-20T10:12:19Z</time>
      </trkpt>
      <trkpt lat="45.93276" lon="4.76678">
        <ele>172</ele>
        <time>2016-09-20T10:12:20Z</time>
      </trkpt>
      <trkpt lat="45.93272" lon="4.76673">
        <ele>172</ele>
        <time>2016-09-20T10:12:21Z</time>
      </trkpt>
      <trkpt lat="45.93267" lon="4.76667">
        <ele>172</ele>
        <time>2016-09-20T10:12:22Z</time>
      </trkpt>
      <trkpt lat="45.93263" lon="4.76664">
        <ele>171</ele>
        <time>2016-09-20T10:12:23Z</time>
      </trkpt>
      <trkpt lat="45.93259" lon="4.76659">
        <ele>171</ele>
        <time>2016-09-20T10:12:24Z</time>
      </trkpt>
      <trkpt lat="45.93255" lon="4.76656">
        <ele>171</ele>
        <time>2016-09-20T10:12:25Z</time>
      </trkpt>
      <trkpt lat="45.93251" lon="4.76652">
        <ele>171</ele>
        <time>2016-09-20T10:12:26Z</time>
      </trkpt>
      <trkpt lat="45.93246" lon="4.76647">
        <ele>171</ele>
        <time>2016-09-20T10:12:27Z</time>
      </trkpt>
      <trkpt lat="45.93243" lon="4.76643">
        <ele>171</ele>
        <time>2016-09-20T10:12:28Z</time>
      </trkpt>
      <trkpt lat="45.93238" lon="4.76639">
        <ele>171</ele>
        <time>2016-09-20T10:12:29Z</time>
      </trkpt>
      <trkpt lat="45.93234" lon="4.76635">
        <ele>171</ele>
        <time>2016-09-20T10:12:30Z</time>
      </trkpt>
      <trkpt lat="45.9323" lon="4.76631">
        <ele>170</ele>
        <time>2016-09-20T10:12:31Z</time>
      </trkpt>
      <trkpt lat="45.93226" lon="4.76626">
        <ele>170</ele>
        <time>2016-09-20T10:12:32Z</time>
      </trkpt>
      <trkpt lat="45.93221" lon="4.76622">
        <ele>170</ele>
        <time>2016-09-20T10:12:33Z</time>
      </trkpt>
      <trkpt lat="45.93217" lon="4.76617">
        <ele>170</ele>
        <time>2016-09-20T10:12:34Z</time>
      </trkpt>
      <trkpt lat="45.93212" lon="4.76613">
        <ele>170</ele>
        <time>2016-09-20T10:12:35Z</time>
      </trkpt>
      <trkpt lat="45.93208" lon="4.76609">
        <ele>170</ele>
        <time>2016-09-20T10:12:36Z</time>
      </trkpt>
      <trkpt lat="45.93203" lon="4.76604">
        <ele>170</ele>
        <time>2016-09-20T10:12:37Z</time>
      </trkpt>
      <trkpt lat="45.93198" lon="4.76599">
        <ele>170</ele>
        <time>2016-09-20T10:12:38Z</time>
      </trkpt>
      <trkpt lat="45.93194" lon="4.76594">
        <ele>170</ele>
        <time>2016-09-20T10:12:39Z</time>
      </trkpt>
      <trkpt lat="45.93189" lon="4.76589">
        <ele>170</ele>
        <time>2016-09-20T10:12:40Z</time>
      </trkpt>
      <trkpt lat="45.93185" lon="4.76584">
        <ele>171</ele>
        <time>2016-09-20T10:12:41Z</time>
      </trkpt>
      <trkpt lat="45.93181" lon="4.76579">
        <ele>170</ele>
        <time>2016-09-20T10:12:42Z</time>
      </trkpt>
      <trkpt lat="45.93176" lon="4.76575">
        <ele>170</ele>
        <time>2016-09-20T10:12:43Z</time>
      </trkpt>
      <trkpt lat="45.93172" lon="4.76571">
        <ele>170</ele>
        <time>2016-09-20T10:12:44Z</time>
      </trkpt>
      <trkpt lat="45.93167" lon="4.76566">
        <ele>170</ele>
        <time>2016-09-20T10:12:45Z</time>
      </trkpt>
      <trkpt lat="45.93162" lon="4.76561">
        <ele>170</ele>
        <time>2016-09-20T10:12:46Z</time>
      </trkpt>
      <trkpt lat="45.93158" lon="4.76557">
        <ele>170</ele>
        <time>2016-09-20T10:12:47Z</time>
      </trkpt>
      <trkpt lat="45.93152" lon="4.76553">
        <ele>170</ele>
        <time>2016-09-20T10:12:48Z</time>
      </trkpt>
      <trkpt lat="45.93147" lon="4.76548">
        <ele>170</ele>
        <time>2016-09-20T10:12:49Z</time>
      </trkpt>
      <trkpt lat="45.93143" lon="4.76543">
        <ele>170</ele>
        <time>2016-09-20T10:12:50Z</time>
      </trkpt>
      <trkpt lat="45.93138" lon="4.76539">
        <ele>170</ele>
        <time>2016-09-20T10:12:51Z</time>
      </trkpt>
      <trkpt lat="45.93134" lon="4.76535">
        <ele>170</ele>
        <time>2016-09-20T10:12:52Z</time>
      </trkpt>
      <trkpt lat="45.9313" lon="4.76531">
        <ele>170</ele>
        <time>2016-09-20T10:12:53Z</time>
      </trkpt>
      <trkpt lat="45.93125" lon="4.76526">
        <ele>170</ele>
        <time>2016-09-20T10:12:54Z</time>
      </trkpt>
      <trkpt lat="45.93121" lon="4.76521">
        <ele>170</ele>
        <time>2016-09-20T10:12:55Z</time>
      </trkpt>
      <trkpt lat="45.93116" lon="4.76517">
        <ele>170</ele>
        <time>2016-09-20T10:12:56Z</time>
      </trkpt>
      <trkpt lat="45.93111" lon="4.76512">
        <ele>170</ele>
        <time>2016-09-20T10:12:57Z</time>
      </trkpt>
      <trkpt lat="45.93106" lon="4.76508">
        <ele>170</ele>
        <time>2016-09-20T10:12:58Z</time>
      </trkpt>
      <trkpt lat="45.93101" lon="4.76504">
        <ele>170</ele>
        <time>2016-09-20T10:12:59Z</time>
      </trkpt>
      <trkpt lat="45.93096" lon="4.76498">
        <ele>170</ele>
        <time>2016-09-20T10:13:00Z</time>
      </trkpt>
      <trkpt lat="45.93091" lon="4.76492">
        <ele>170</ele>
        <time>2016-09-20T10:13:01Z</time>
      </trkpt>
      <trkpt lat="45.93086" lon="4.76487">
        <ele>170</ele>
        <time>2016-09-20T10:13:02Z</time>
      </trkpt>
      <trkpt lat="45.93081" lon="4.76483">
        <ele>169</ele>
        <time>2016-09-20T10:13:03Z</time>
      </trkpt>
      <trkpt lat="45.93077" lon="4.76478">
        <ele>169</ele>
        <time>2016-09-20T10:13:04Z</time>
      </trkpt>
      <trkpt lat="45.93073" lon="4.76474">
        <ele>169</ele>
        <time>2016-09-20T10:13:05Z</time>
      </trkpt>
      <trkpt lat="45.93069" lon="4.76469">
        <ele>169</ele>
        <time>2016-09-20T10:13:06Z</time>
      </trkpt>
      <trkpt lat="45.93065" lon="4.76465">
        <ele>169</ele>
        <time>2016-09-20T10:13:07Z</time>
      </trkpt>
      <trkpt lat="45.9306" lon="4.76461">
        <ele>169</ele>
        <time>2016-09-20T10:13:08Z</time>
      </trkpt>
      <trkpt lat="45.93056" lon="4.76457">
        <ele>169</ele>
        <time>2016-09-20T10:13:09Z</time>
      </trkpt>
      <trkpt lat="45.93051" lon="4.76453">
        <ele>169</ele>
        <time>2016-09-20T10:13:10Z</time>
      </trkpt>
      <trkpt lat="45.93046" lon="4.76448">
        <ele>169</ele>
        <time>2016-09-20T10:13:11Z</time>
      </trkpt>
      <trkpt lat="45.93041" lon="4.76444">
        <ele>169</ele>
        <time>2016-09-20T10:13:12Z</time>
      </trkpt>
      <trkpt lat="45.93037" lon="4.7644">
        <ele>169</ele>
        <time>2016-09-20T10:13:13Z</time>
      </trkpt>
      <trkpt lat="45.93033" lon="4.76436">
        <ele>169</ele>
        <time>2016-09-20T10:13:14Z</time>
      </trkpt>
      <trkpt lat="45.93029" lon="4.76432">
        <ele>169</ele>
        <time>2016-09-20T10:13:15Z</time>
      </trkpt>
      <trkpt lat="45.93026" lon="4.76427">
        <ele>169</ele>
        <time>2016-09-20T10:13:16Z</time>
      </trkpt>
      <trkpt lat="45.93021" lon="4.76423">
        <ele>169</ele>
        <time>2016-09-20T10:13:17Z</time>
      </trkpt>
      <trkpt lat="45.93017" lon="4.76418">
        <ele>169</ele>
        <time>2016-09-20T10:13:18Z</time>
      </trkpt>
      <trkpt lat="45.93013" lon="4.76414">
        <ele>169</ele>
        <time>2016-09-20T10:13:19Z</time>
      </trkpt>
      <trkpt lat="45.93008" lon="4.7641">
        <ele>169</ele>
        <time>2016-09-20T10:13:20Z</time>
      </trkpt>
      <trkpt lat="45.93004" lon="4.76405">
        <ele>169</ele>
        <time>2016-09-20T10:13:21Z</time>
      </trkpt>
      <trkpt lat="45.92999" lon="4.76401">
        <ele>169</ele>
        <time>2016-09-20T10:13:22Z</time>
      </trkpt>
      <trkpt lat="45.92995" lon="4.76396">
        <ele>169</ele>
        <time>2016-09-20T10:13:23Z</time>
      </trkpt>
      <trkpt lat="45.9299" lon="4.76392">
        <ele>169</ele>
        <time>2016-09-20T10:13:24Z</time>
      </trkpt>
      <trkpt lat="45.92985" lon="4.76388">
        <ele>169</ele>
        <time>2016-09-20T10:13:25Z</time>
      </trkpt>
      <trkpt lat="45.9298" lon="4.76383">
        <ele>169</ele>
        <time>2016-09-20T10:13:26Z</time>
      </trkpt>
      <trkpt lat="45.92974" lon="4.76377">
        <ele>169</ele>
        <time>2016-09-20T10:13:27Z</time>
      </trkpt>
      <trkpt lat="45.92969" lon="4.76372">
        <ele>169</ele>
        <time>2016-09-20T10:13:28Z</time>
      </trkpt>
      <trkpt lat="45.92964" lon="4.76367">
        <ele>169</ele>
        <time>2016-09-20T10:13:29Z</time>
      </trkpt>
      <trkpt lat="45.92959" lon="4.76363">
        <ele>169</ele>
        <time>2016-09-20T10:13:30Z</time>
      </trkpt>
      <trkpt lat="45.92954" lon="4.76358">
        <ele>169</ele>
        <time>2016-09-20T10:13:31Z</time>
      </trkpt>
      <trkpt lat="45.92949" lon="4.76353">
        <ele>169</ele>
        <time>2016-09-20T10:13:32Z</time>
      </trkpt>
      <trkpt lat="45.92944" lon="4.76347">
        <ele>169</ele>
        <time>2016-09-20T10:13:33Z</time>
      </trkpt>
      <trkpt lat="45.92939" lon="4.76343">
        <ele>169</ele>
        <time>2016-09-20T10:13:34Z</time>
      </trkpt>
      <trkpt lat="45.92934" lon="4.76338">
        <ele>169</ele>
        <time>2016-09-20T10:13:35Z</time>
      </trkpt>
      <trkpt lat="45.92929" lon="4.76334">
        <ele>169</ele>
        <time>2016-09-20T10:13:36Z</time>
      </trkpt>
      <trkpt lat="45.92925" lon="4.7633">
        <ele>169</ele>
        <time>2016-09-20T10:13:37Z</time>
      </trkpt>
      <trkpt lat="45.9292" lon="4.76325">
        <ele>169</ele>
        <time>2016-09-20T10:13:38Z</time>
      </trkpt>
      <trkpt lat="45.92916" lon="4.76321">
        <ele>169</ele>
        <time>2016-09-20T10:13:39Z</time>
      </trkpt>
      <trkpt lat="45.92912" lon="4.76316">
        <ele>169</ele>
        <time>2016-09-20T10:13:40Z</time>
      </trkpt>
      <trkpt lat="45.92907" lon="4.76312">
        <ele>169</ele>
        <time>2016-09-20T10:13:41Z</time>
      </trkpt>
      <trkpt lat="45.92904" lon="4.76307">
        <ele>169</ele>
        <time>2016-09-20T10:13:42Z</time>
      </trkpt>
      <trkpt lat="45.92899" lon="4.76303">
        <ele>169</ele>
        <time>2016-09-20T10:13:43Z</time>
      </trkpt>
      <trkpt lat="45.92895" lon="4.76299">
        <ele>169</ele>
        <time>2016-09-20T10:13:44Z</time>
      </trkpt>
      <trkpt lat="45.92891" lon="4.76295">
        <ele>169</ele>
        <time>2016-09-20T10:13:45Z</time>
      </trkpt>
      <trkpt lat="45.92886" lon="4.7629">
        <ele>169</ele>
        <time>2016-09-20T10:13:46Z</time>
      </trkpt>
      <trkpt lat="45.92881" lon="4.76285">
        <ele>169</ele>
        <time>2016-09-20T10:13:47Z</time>
      </trkpt>
      <trkpt lat="45.92877" lon="4.76281">
        <ele>169</ele>
        <time>2016-09-20T10:13:48Z</time>
      </trkpt>
      <trkpt lat="45.92872" lon="4.76276">
        <ele>169</ele>
        <time>2016-09-20T10:13:49Z</time>
      </trkpt>
      <trkpt lat="45.92868" lon="4.76272">
        <ele>169</ele>
        <time>2016-09-20T10:13:50Z</time>
      </trkpt>
      <trkpt lat="45.92863" lon="4.76268">
        <ele>169</ele>
        <time>2016-09-20T10:13:51Z</time>
      </trkpt>
      <trkpt lat="45.92858" lon="4.76264">
        <ele>169</ele>
        <time>2016-09-20T10:13:52Z</time>
      </trkpt>
      <trkpt lat="45.92854" lon="4.7626">
        <ele>169</ele>
        <time>2016-09-20T10:13:53Z</time>
      </trkpt>
      <trkpt lat="45.9285" lon="4.76256">
        <ele>169</ele>
        <time>2016-09-20T10:13:54Z</time>
      </trkpt>
      <trkpt lat="45.92845" lon="4.76252">
        <ele>169</ele>
        <time>2016-09-20T10:13:55Z</time>
      </trkpt>
      <trkpt lat="45.92841" lon="4.76248">
        <ele>169</ele>
        <time>2016-09-20T10:13:56Z</time>
      </trkpt>
      <trkpt lat="45.92836" lon="4.76243">
        <ele>169</ele>
        <time>2016-09-20T10:13:57Z</time>
      </trkpt>
      <trkpt lat="45.92831" lon="4.76238">
        <ele>169</ele>
        <time>2016-09-20T10:13:58Z</time>
      </trkpt>
      <trkpt lat="45.92826" lon="4.76234">
        <ele>168</ele>
        <time>2016-09-20T10:13:59Z</time>
      </trkpt>
      <trkpt lat="45.92821" lon="4.76229">
        <ele>168</ele>
        <time>2016-09-20T10:14:00Z</time>
      </trkpt>
      <trkpt lat="45.92816" lon="4.76224">
        <ele>168</ele>
        <time>2016-09-20T10:14:01Z</time>
      </trkpt>
      <trkpt lat="45.92811" lon="4.76218">
        <ele>168</ele>
        <time>2016-09-20T10:14:02Z</time>
      </trkpt>
      <trkpt lat="45.92806" lon="4.76213">
        <ele>168</ele>
        <time>2016-09-20T10:14:03Z</time>
      </trkpt>
      <trkpt lat="45.92801" lon="4.76207">
        <ele>168</ele>
        <time>2016-09-20T10:14:04Z</time>
      </trkpt>
      <trkpt lat="45.92796" lon="4.76202">
        <ele>168</ele>
        <time>2016-09-20T10:14:05Z</time>
      </trkpt>
      <trkpt lat="45.92791" lon="4.76197">
        <ele>168</ele>
        <time>2016-09-20T10:14:06Z</time>
      </trkpt>
      <trkpt lat="45.92787" lon="4.76192">
        <ele>168</ele>
        <time>2016-09-20T10:14:07Z</time>
      </trkpt>
      <trkpt lat="45.92783" lon="4.76188">
        <ele>168</ele>
        <time>2016-09-20T10:14:08Z</time>
      </trkpt>
      <trkpt lat="45.92778" lon="4.76185">
        <ele>168</ele>
        <time>2016-09-20T10:14:09Z</time>
      </trkpt>
      <trkpt lat="45.92774" lon="4.76181">
        <ele>167</ele>
        <time>2016-09-20T10:14:10Z</time>
      </trkpt>
      <trkpt lat="45.9277" lon="4.76177">
        <ele>167</ele>
        <time>2016-09-20T10:14:11Z</time>
      </trkpt>
      <trkpt lat="45.92765" lon="4.76173">
        <ele>167</ele>
        <time>2016-09-20T10:14:12Z</time>
      </trkpt>
      <trkpt lat="45.92761" lon="4.76169">
        <ele>167</ele>
        <time>2016-09-20T10:14:13Z</time>
      </trkpt>
      <trkpt lat="45.92756" lon="4.76166">
        <ele>167</ele>
        <time>2016-09-20T10:14:14Z</time>
      </trkpt>
      <trkpt lat="45.92751" lon="4.76161">
        <ele>167</ele>
        <time>2016-09-20T10:14:15Z</time>
      </trkpt>
      <trkpt lat="45.92746" lon="4.76157">
        <ele>167</ele>
        <time>2016-09-20T10:14:16Z</time>
      </trkpt>
      <trkpt lat="45.92741" lon="4.76152">
        <ele>168</ele>
        <time>2016-09-20T10:14:17Z</time>
      </trkpt>
      <trkpt lat="45.92737" lon="4.76148">
        <ele>168</ele>
        <time>2016-09-20T10:14:18Z</time>
      </trkpt>
      <trkpt lat="45.92732" lon="4.76144">
        <ele>168</ele>
        <time>2016-09-20T10:14:19Z</time>
      </trkpt>
      <trkpt lat="45.92727" lon="4.76141">
        <ele>168</ele>
        <time>2016-09-20T10:14:20Z</time>
      </trkpt>
      <trkpt lat="45.92722" lon="4.76138">
        <ele>168</ele>
        <time>2016-09-20T10:14:21Z</time>
      </trkpt>
      <trkpt lat="45.92718" lon="4.76135">
        <ele>168</ele>
        <time>2016-09-20T10:14:22Z</time>
      </trkpt>
      <trkpt lat="45.92713" lon="4.76131">
        <ele>168</ele>
        <time>2016-09-20T10:14:23Z</time>
      </trkpt>
      <trkpt lat="45.92708" lon="4.76128">
        <ele>169</ele>
        <time>2016-09-20T10:14:24Z</time>
      </trkpt>
      <trkpt lat="45.92704" lon="4.76124">
        <ele>169</ele>
        <time>2016-09-20T10:14:25Z</time>
      </trkpt>
      <trkpt lat="45.92699" lon="4.76121">
        <ele>169</ele>
        <time>2016-09-20T10:14:26Z</time>
      </trkpt>
      <trkpt lat="45.92694" lon="4.76117">
        <ele>169</ele>
        <time>2016-09-20T10:14:27Z</time>
      </trkpt>
      <trkpt lat="45.92689" lon="4.76113">
        <ele>169</ele>
        <time>2016-09-20T10:14:28Z</time>
      </trkpt>
      <trkpt lat="45.92685" lon="4.76109">
        <ele>169</ele>
        <time>2016-09-20T10:14:29Z</time>
      </trkpt>
      <trkpt lat="45.9268" lon="4.76106">
        <ele>169</ele>
        <time>2016-09-20T10:14:30Z</time>
      </trkpt>
      <trkpt lat="45.92675" lon="4.76102">
        <ele>169</ele>
        <time>2016-09-20T10:14:31Z</time>
      </trkpt>
      <trkpt lat="45.9267" lon="4.76097">
        <ele>169</ele>
        <time>2016-09-20T10:14:32Z</time>
      </trkpt>
      <trkpt lat="45.92665" lon="4.76093">
        <ele>170</ele>
        <time>2016-09-20T10:14:33Z</time>
      </trkpt>
      <trkpt lat="45.92661" lon="4.76089">
        <ele>170</ele>
        <time>2016-09-20T10:14:34Z</time>
      </trkpt>
      <trkpt lat="45.92656" lon="4.76085">
        <ele>170</ele>
        <time>2016-09-20T10:14:35Z</time>
      </trkpt>
      <trkpt lat="45.92652" lon="4.76081">
        <ele>170</ele>
        <time>2016-09-20T10:14:36Z</time>
      </trkpt>
      <trkpt lat="45.92648" lon="4.76078">
        <ele>170</ele>
        <time>2016-09-20T10:14:37Z</time>
      </trkpt>
      <trkpt lat="45.92643" lon="4.76075">
        <ele>170</ele>
        <time>2016-09-20T10:14:38Z</time>
      </trkpt>
      <trkpt lat="45.92638" lon="4.76072">
        <ele>170</ele>
        <time>2016-09-20T10:14:39Z</time>
      </trkpt>
      <trkpt lat="45.92634" lon="4.76068">
        <ele>170</ele>
        <time>2016-09-20T10:14:40Z</time>
      </trkpt>
      <trkpt lat="45.92629" lon="4.76066">
        <ele>170</ele>
        <time>2016-09-20T10:14:41Z</time>
      </trkpt>
      <trkpt lat="45.92624" lon="4.76062">
        <ele>171</ele>
        <time>2016-09-20T10:14:42Z</time>
      </trkpt>
      <trkpt lat="45.92619" lon="4.76059">
        <ele>171</ele>
        <time>2016-09-20T10:14:43Z</time>
      </trkpt>
      <trkpt lat="45.92614" lon="4.76055">
        <ele>171</ele>
        <time>2016-09-20T10:14:44Z</time>
      </trkpt>
      <trkpt lat="45.92609" lon="4.76051">
        <ele>171</ele>
        <time>2016-09-20T10:14:45Z</time>
      </trkpt>
      <trkpt lat="45.92604" lon="4.76048">
        <ele>171</ele>
        <time>2016-09-20T10:14:46Z</time>
      </trkpt>
      <trkpt lat="45.92599" lon="4.76044">
        <ele>171</ele>
        <time>2016-09-20T10:14:47Z</time>
      </trkpt>
      <trkpt lat="45.92594" lon="4.7604">
        <ele>171</ele>
        <time>2016-09-20T10:14:48Z</time>
      </trkpt>
      <trkpt lat="45.92589" lon="4.76037">
        <ele>171</ele>
        <time>2016-09-20T10:14:49Z</time>
      </trkpt>
      <trkpt lat="45.92584" lon="4.76034">
        <ele>171</ele>
        <time>2016-09-20T10:14:50Z</time>
      </trkpt>
      <trkpt lat="45.9258" lon="4.76031">
        <ele>172</ele>
        <time>2016-09-20T10:14:51Z</time>
      </trkpt>
      <trkpt lat="45.92575" lon="4.76028">
        <ele>172</ele>
        <time>2016-09-20T10:14:52Z</time>
      </trkpt>
      <trkpt lat="45.92571" lon="4.76025">
        <ele>172</ele>
        <time>2016-09-20T10:14:53Z</time>
      </trkpt>
      <trkpt lat="45.92567" lon="4.76022">
        <ele>172</ele>
        <time>2016-09-20T10:14:54Z</time>
      </trkpt>
      <trkpt lat="45.92563" lon="4.76019">
        <ele>172</ele>
        <time>2016-09-20T10:14:55Z</time>
      </trkpt>
      <trkpt lat="45.92559" lon="4.76016">
        <ele>172</ele>
        <time>2016-09-20T10:14:56Z</time>
      </trkpt>
      <trkpt lat="45.92551" lon="4.76011">
        <ele>172</ele>
        <time>2016-09-20T10:14:58Z</time>
      </trkpt>
      <trkpt lat="45.92547" lon="4.76008">
        <ele>172</ele>
        <time>2016-09-20T10:14:59Z</time>
      </trkpt>
      <trkpt lat="45.92539" lon="4.76002">
        <ele>172</ele>
        <time>2016-09-20T10:15:01Z</time>
      </trkpt>
      <trkpt lat="45.92535" lon="4.75999">
        <ele>172</ele>
        <time>2016-09-20T10:15:02Z</time>
      </trkpt>
      <trkpt lat="45.92532" lon="4.75996">
        <ele>172</ele>
        <time>2016-09-20T10:15:03Z</time>
      </trkpt>
      <trkpt lat="45.92527" lon="4.75992">
        <ele>172</ele>
        <time>2016-09-20T10:15:04Z</time>
      </trkpt>
      <trkpt lat="45.92522" lon="4.75989">
        <ele>172</ele>
        <time>2016-09-20T10:15:05Z</time>
      </trkpt>
      <trkpt lat="45.92518" lon="4.75986">
        <ele>172</ele>
        <time>2016-09-20T10:15:06Z</time>
      </trkpt>
      <trkpt lat="45.92513" lon="4.75983">
        <ele>172</ele>
        <time>2016-09-20T10:15:07Z</time>
      </trkpt>
      <trkpt lat="45.92508" lon="4.7598">
        <ele>172</ele>
        <time>2016-09-20T10:15:08Z</time>
      </trkpt>
      <trkpt lat="45.92504" lon="4.75976">
        <ele>172</ele>
        <time>2016-09-20T10:15:09Z</time>
      </trkpt>
      <trkpt lat="45.92499" lon="4.75973">
        <ele>172</ele>
        <time>2016-09-20T10:15:10Z</time>
      </trkpt>
      <trkpt lat="45.92494" lon="4.7597">
        <ele>172</ele>
        <time>2016-09-20T10:15:11Z</time>
      </trkpt>
      <trkpt lat="45.92489" lon="4.75967">
        <ele>172</ele>
        <time>2016-09-20T10:15:12Z</time>
      </trkpt>
      <trkpt lat="45.92484" lon="4.75964">
        <ele>172</ele>
        <time>2016-09-20T10:15:13Z</time>
      </trkpt>
      <trkpt lat="45.92479" lon="4.7596">
        <ele>172</ele>
        <time>2016-09-20T10:15:14Z</time>
      </trkpt>
      <trkpt lat="45.92473" lon="4.75956">
        <ele>172</ele>
        <time>2016-09-20T10:15:15Z</time>
      </trkpt>
      <trkpt lat="45.92468" lon="4.75953">
        <ele>172</ele>
        <time>2016-09-20T10:15:16Z</time>
      </trkpt>
      <trkpt lat="45.92463" lon="4.75949">
        <ele>172</ele>
        <time>2016-09-20T10:15:17Z</time>
      </trkpt>
      <trkpt lat="45.92458" lon="4.75946">
        <ele>172</ele>
        <time>2016-09-20T10:15:18Z</time>
      </trkpt>
      <trkpt lat="45.92453" lon="4.75942">
        <ele>172</ele>
        <time>2016-09-20T10:15:19Z</time>
      </trkpt>
      <trkpt lat="45.92448" lon="4.75939">
        <ele>172</ele>
        <time>2016-09-20T10:15:20Z</time>
      </trkpt>
      <trkpt lat="45.92442" lon="4.75935">
        <ele>172</ele>
        <time>2016-09-20T10:15:21Z</time>
      </trkpt>
      <trkpt lat="45.92436" lon="4.75931">
        <ele>172</ele>
        <time>2016-09-20T10:15:22Z</time>
      </trkpt>
      <trkpt lat="45.9243" lon="4.75927">
        <ele>172</ele>
        <time>2016-09-20T10:15:23Z</time>
      </trkpt>
      <trkpt lat="45.92424" lon="4.75923">
        <ele>172</ele>
        <time>2016-09-20T10:15:24Z</time>
      </trkpt>
      <trkpt lat="45.92418" lon="4.75918">
        <ele>172</ele>
        <time>2016-09-20T10:15:25Z</time>
      </trkpt>
      <trkpt lat="45.92411" lon="4.75914">
        <ele>172</ele>
        <time>2016-09-20T10:15:26Z</time>
      </trkpt>
      <trkpt lat="45.92405" lon="4.7591">
        <ele>172</ele>
        <time>2016-09-20T10:15:27Z</time>
      </trkpt>
      <trkpt lat="45.92399" lon="4.75906">
        <ele>173</ele>
        <time>2016-09-20T10:15:28Z</time>
      </trkpt>
      <trkpt lat="45.92393" lon="4.75901">
        <ele>173</ele>
        <time>2016-09-20T10:15:29Z</time>
      </trkpt>
      <trkpt lat="45.92387" lon="4.75897">
        <ele>173</ele>
        <time>2016-09-20T10:15:30Z</time>
      </trkpt>
      <trkpt lat="45.92381" lon="4.75893">
        <ele>173</ele>
        <time>2016-09-20T10:15:31Z</time>
      </trkpt>
      <trkpt lat="45.92375" lon="4.75889">
        <ele>173</ele>
        <time>2016-09-20T10:15:32Z</time>
      </trkpt>
      <trkpt lat="45.92369" lon="4.75885">
        <ele>173</ele>
        <time>2016-09-20T10:15:33Z</time>
      </trkpt>
      <trkpt lat="45.92363" lon="4.75881">
        <ele>173</ele>
        <time>2016-09-20T10:15:34Z</time>
      </trkpt>
      <trkpt lat="45.92357" lon="4.75877">
        <ele>173</ele>
        <time>2016-09-20T10:15:35Z</time>
      </trkpt>
      <trkpt lat="45.92352" lon="4.75873">
        <ele>173</ele>
        <time>2016-09-20T10:15:36Z</time>
      </trkpt>
      <trkpt lat="45.92346" lon="4.7587">
        <ele>173</ele>
        <time>2016-09-20T10:15:37Z</time>
      </trkpt>
      <trkpt lat="45.92341" lon="4.75867">
        <ele>173</ele>
        <time>2016-09-20T10:15:38Z</time>
      </trkpt>
      <trkpt lat="45.92336" lon="4.75864">
        <ele>173</ele>
        <time>2016-09-20T10:15:39Z</time>
      </trkpt>
      <trkpt lat="45.92331" lon="4.75861">
        <ele>173</ele>
        <time>2016-09-20T10:15:40Z</time>
      </trkpt>
      <trkpt lat="45.92326" lon="4.75858">
        <ele>173</ele>
        <time>2016-09-20T10:15:41Z</time>
      </trkpt>
      <trkpt lat="45.92321" lon="4.75855">
        <ele>173</ele>
        <time>2016-09-20T10:15:42Z</time>
      </trkpt>
      <trkpt lat="45.92316" lon="4.75852">
        <ele>173</ele>
        <time>2016-09-20T10:15:43Z</time>
      </trkpt>
      <trkpt lat="45.92311" lon="4.75848">
        <ele>173</ele>
        <time>2016-09-20T10:15:44Z</time>
      </trkpt>
      <trkpt lat="45.92306" lon="4.75845">
        <ele>173</ele>
        <time>2016-09-20T10:15:45Z</time>
      </trkpt>
      <trkpt lat="45.92301" lon="4.75841">
        <ele>173</ele>
        <time>2016-09-20T10:15:46Z</time>
      </trkpt>
      <trkpt lat="45.92295" lon="4.75838">
        <ele>173</ele>
        <time>2016-09-20T10:15:47Z</time>
      </trkpt>
      <trkpt lat="45.9229" lon="4.75835">
        <ele>173</ele>
        <time>2016-09-20T10:15:48Z</time>
      </trkpt>
      <trkpt lat="45.92283" lon="4.75827">
        <ele>174</ele>
        <time>2016-09-20T10:15:49Z</time>
      </trkpt>
      <trkpt lat="45.92279" lon="4.7582">
        <ele>174</ele>
        <time>2016-09-20T10:15:50Z</time>
      </trkpt>
      <trkpt lat="45.92274" lon="4.75815">
        <ele>174</ele>
        <time>2016-09-20T10:15:51Z</time>
      </trkpt>
      <trkpt lat="45.92269" lon="4.75811">
        <ele>174</ele>
        <time>2016-09-20T10:15:52Z</time>
      </trkpt>
      <trkpt lat="45.92264" lon="4.75801">
        <ele>174</ele>
        <time>2016-09-20T10:15:54Z</time>
      </trkpt>
      <trkpt lat="45.92262" lon="4.75795">
        <ele>174</ele>
        <time>2016-09-20T10:15:55Z</time>
      </trkpt>
      <trkpt lat="45.9226" lon="4.75783">
        <ele>174</ele>
        <time>2016-09-20T10:15:57Z</time>
      </trkpt>
      <trkpt lat="45.92259" lon="4.75776">
        <ele>174</ele>
        <time>2016-09-20T10:15:58Z</time>
      </trkpt>
      <trkpt lat="45.92258" lon="4.75768">
        <ele>174</ele>
        <time>2016-09-20T10:15:59Z</time>
      </trkpt>
      <trkpt lat="45.92256" lon="4.7576">
        <ele>174</ele>
        <time>2016-09-20T10:16:00Z</time>
      </trkpt>
      <trkpt lat="45.92255" lon="4.75752">
        <ele>174</ele>
        <time>2016-09-20T10:16:01Z</time>
      </trkpt>
      <trkpt lat="45.92254" lon="4.75743">
        <ele>174</ele>
        <time>2016-09-20T10:16:02Z</time>
      </trkpt>
      <trkpt lat="45.92252" lon="4.75735">
        <ele>174</ele>
        <time>2016-09-20T10:16:03Z</time>
      </trkpt>
      <trkpt lat="45.92249" lon="4.75728">
        <ele>174</ele>
        <time>2016-09-20T10:16:04Z</time>
      </trkpt>
      <trkpt lat="45.92247" lon="4.7572">
        <ele>174</ele>
        <time>2016-09-20T10:16:05Z</time>
      </trkpt>
      <trkpt lat="45.92243" lon="4.75712">
        <ele>174</ele>
        <time>2016-09-20T10:16:06Z</time>
      </trkpt>
      <trkpt lat="45.92238" lon="4.75705">
        <ele>174</ele>
        <time>2016-09-20T10:16:07Z</time>
      </trkpt>
      <trkpt lat="45.92233" lon="4.75699">
        <ele>174</ele>
        <time>2016-09-20T10:16:08Z</time>
      </trkpt>
      <trkpt lat="45.92227" lon="4.75694">
        <ele>174</ele>
        <time>2016-09-20T10:16:09Z</time>
      </trkpt>
      <trkpt lat="45.92221" lon="4.75687">
        <ele>174</ele>
        <time>2016-09-20T10:16:10Z</time>
      </trkpt>
      <trkpt lat="45.92216" lon="4.75681">
        <ele>174</ele>
        <time>2016-09-20T10:16:11Z</time>
      </trkpt>
      <trkpt lat="45.9221" lon="4.75675">
        <ele>174</ele>
        <time>2016-09-20T10:16:12Z</time>
      </trkpt>
      <trkpt lat="45.92205" lon="4.75669">
        <ele>174</ele>
        <time>2016-09-20T10:16:13Z</time>
      </trkpt>
      <trkpt lat="45.922" lon="4.75664">
        <ele>174</ele>
        <time>2016-09-20T10:16:14Z</time>
      </trkpt>
      <trkpt lat="45.92196" lon="4.75658">
        <ele>174</ele>
        <time>2016-09-20T10:16:15Z</time>
      </trkpt>
      <trkpt lat="45.9219" lon="4.75652">
        <ele>174</ele>
        <time>2016-09-20T10:16:16Z</time>
      </trkpt>
      <trkpt lat="45.92185" lon="4.75647">
        <ele>174</ele>
        <time>2016-09-20T10:16:17Z</time>
      </trkpt>
      <trkpt lat="45.9218" lon="4.75642">
        <ele>174</ele>
        <time>2016-09-20T10:16:18Z</time>
      </trkpt>
      <trkpt lat="45.92174" lon="4.75636">
        <ele>174</ele>
        <time>2016-09-20T10:16:19Z</time>
      </trkpt>
      <trkpt lat="45.92169" lon="4.75631">
        <ele>174</ele>
        <time>2016-09-20T10:16:20Z</time>
      </trkpt>
      <trkpt lat="45.92163" lon="4.75626">
        <ele>174</ele>
        <time>2016-09-20T10:16:21Z</time>
      </trkpt>
      <trkpt lat="45.92158" lon="4.75621">
        <ele>174</ele>
        <time>2016-09-20T10:16:22Z</time>
      </trkpt>
      <trkpt lat="45.92151" lon="4.75614">
        <ele>174</ele>
        <time>2016-09-20T10:16:23Z</time>
      </trkpt>
      <trkpt lat="45.92146" lon="4.75609">
        <ele>174</ele>
        <time>2016-09-20T10:16:24Z</time>
      </trkpt>
      <trkpt lat="45.92142" lon="4.75604">
        <ele>174</ele>
        <time>2016-09-20T10:16:25Z</time>
      </trkpt>
      <trkpt lat="45.92137" lon="4.75599">
        <ele>174</ele>
        <time>2016-09-20T10:16:26Z</time>
      </trkpt>
      <trkpt lat="45.92132" lon="4.75594">
        <ele>174</ele>
        <time>2016-09-20T10:16:27Z</time>
      </trkpt>
      <trkpt lat="45.92129" lon="4.75589">
        <ele>174</ele>
        <time>2016-09-20T10:16:28Z</time>
      </trkpt>
      <trkpt lat="45.92126" lon="4.75583">
        <ele>174</ele>
        <time>2016-09-20T10:16:29Z</time>
      </trkpt>
      <trkpt lat="45.92123" lon="4.75577">
        <ele>174</ele>
        <time>2016-09-20T10:16:30Z</time>
      </trkpt>
      <trkpt lat="45.92123" lon="4.7557">
        <ele>174</ele>
        <time>2016-09-20T10:16:31Z</time>
      </trkpt>
      <trkpt lat="45.92124" lon="4.75563">
        <ele>174</ele>
        <time>2016-09-20T10:16:32Z</time>
      </trkpt>
      <trkpt lat="45.92125" lon="4.75558">
        <ele>174</ele>
        <time>2016-09-20T10:16:33Z</time>
      </trkpt>
      <trkpt lat="45.92128" lon="4.75552">
        <ele>174</ele>
        <time>2016-09-20T10:16:34Z</time>
      </trkpt>
      <trkpt lat="45.92131" lon="4.75547">
        <ele>174</ele>
        <time>2016-09-20T10:16:35Z</time>
      </trkpt>
      <trkpt lat="45.92134" lon="4.7554">
        <ele>174</ele>
        <time>2016-09-20T10:16:36Z</time>
      </trkpt>
      <trkpt lat="45.92138" lon="4.75534">
        <ele>174</ele>
        <time>2016-09-20T10:16:37Z</time>
      </trkpt>
      <trkpt lat="45.92141" lon="4.75527">
        <ele>174</ele>
        <time>2016-09-20T10:16:38Z</time>
      </trkpt>
      <trkpt lat="45.92144" lon="4.7552">
        <ele>174</ele>
        <time>2016-09-20T10:16:39Z</time>
      </trkpt>
      <trkpt lat="45.92147" lon="4.75514">
        <ele>175</ele>
        <time>2016-09-20T10:16:40Z</time>
      </trkpt>
      <trkpt lat="45.9215" lon="4.75506">
        <ele>175</ele>
        <time>2016-09-20T10:16:41Z</time>
      </trkpt>
      <trkpt lat="45.92154" lon="4.75497">
        <ele>175</ele>
        <time>2016-09-20T10:16:42Z</time>
      </trkpt>
      <trkpt lat="45.92157" lon="4.75489">
        <ele>175</ele>
        <time>2016-09-20T10:16:43Z</time>
      </trkpt>
      <trkpt lat="45.92159" lon="4.75482">
        <ele>176</ele>
        <time>2016-09-20T10:16:44Z</time>
      </trkpt>
      <trkpt lat="45.92162" lon="4.75476">
        <ele>176</ele>
        <time>2016-09-20T10:16:45Z</time>
      </trkpt>
      <trkpt lat="45.92164" lon="4.75469">
        <ele>176</ele>
        <time>2016-09-20T10:16:46Z</time>
      </trkpt>
      <trkpt lat="45.92167" lon="4.75463">
        <ele>176</ele>
        <time>2016-09-20T10:16:47Z</time>
      </trkpt>
      <trkpt lat="45.9217" lon="4.75456">
        <ele>176</ele>
        <time>2016-09-20T10:16:48Z</time>
      </trkpt>
      <trkpt lat="45.92172" lon="4.7545">
        <ele>176</ele>
        <time>2016-09-20T10:16:49Z</time>
      </trkpt>
      <trkpt lat="45.92175" lon="4.75443">
        <ele>176</ele>
        <time>2016-09-20T10:16:50Z</time>
      </trkpt>
      <trkpt lat="45.92178" lon="4.75436">
        <ele>177</ele>
        <time>2016-09-20T10:16:51Z</time>
      </trkpt>
      <trkpt lat="45.9218" lon="4.75429">
        <ele>177</ele>
        <time>2016-09-20T10:16:52Z</time>
      </trkpt>
      <trkpt lat="45.92183" lon="4.75423">
        <ele>177</ele>
        <time>2016-09-20T10:16:53Z</time>
      </trkpt>
      <trkpt lat="45.92185" lon="4.75416">
        <ele>177</ele>
        <time>2016-09-20T10:16:54Z</time>
      </trkpt>
      <trkpt lat="45.92188" lon="4.75409">
        <ele>177</ele>
        <time>2016-09-20T10:16:55Z</time>
      </trkpt>
      <trkpt lat="45.9219" lon="4.75403">
        <ele>177</ele>
        <time>2016-09-20T10:16:56Z</time>
      </trkpt>
      <trkpt lat="45.92193" lon="4.75397">
        <ele>177</ele>
        <time>2016-09-20T10:16:57Z</time>
      </trkpt>
      <trkpt lat="45.92195" lon="4.7539">
        <ele>177</ele>
        <time>2016-09-20T10:16:58Z</time>
      </trkpt>
      <trkpt lat="45.92198" lon="4.75384">
        <ele>177</ele>
        <time>2016-09-20T10:16:59Z</time>
      </trkpt>
      <trkpt lat="45.922" lon="4.75377">
        <ele>177</ele>
        <time>2016-09-20T10:17:00Z</time>
      </trkpt>
      <trkpt lat="45.92203" lon="4.7537">
        <ele>177</ele>
        <time>2016-09-20T10:17:01Z</time>
      </trkpt>
      <trkpt lat="45.92205" lon="4.75364">
        <ele>177</ele>
        <time>2016-09-20T10:17:02Z</time>
      </trkpt>
      <trkpt lat="45.92208" lon="4.75358">
        <ele>177</ele>
        <time>2016-09-20T10:17:03Z</time>
      </trkpt>
      <trkpt lat="45.9221" lon="4.75351">
        <ele>177</ele>
        <time>2016-09-20T10:17:04Z</time>
      </trkpt>
      <trkpt lat="45.92212" lon="4.75344">
        <ele>177</ele>
        <time>2016-09-20T10:17:05Z</time>
      </trkpt>
      <trkpt lat="45.92213" lon="4.75336">
        <ele>177</ele>
        <time>2016-09-20T10:17:06Z</time>
      </trkpt>
      <trkpt lat="45.92214" lon="4.75328">
        <ele>176</ele>
        <time>2016-09-20T10:17:07Z</time>
      </trkpt>
      <trkpt lat="45.92216" lon="4.75319">
        <ele>176</ele>
        <time>2016-09-20T10:17:08Z</time>
      </trkpt>
      <trkpt lat="45.92217" lon="4.75309">
        <ele>176</ele>
        <time>2016-09-20T10:17:09Z</time>
      </trkpt>
      <trkpt lat="45.92218" lon="4.75299">
        <ele>176</ele>
        <time>2016-09-20T10:17:10Z</time>
      </trkpt>
      <trkpt lat="45.92218" lon="4.7529">
        <ele>176</ele>
        <time>2016-09-20T10:17:11Z</time>
      </trkpt>
      <trkpt lat="45.92218" lon="4.75281">
        <ele>176</ele>
        <time>2016-09-20T10:17:12Z</time>
      </trkpt>
      <trkpt lat="45.92218" lon="4.75271">
        <ele>176</ele>
        <time>2016-09-20T10:17:13Z</time>
      </trkpt>
      <trkpt lat="45.92218" lon="4.75261">
        <ele>176</ele>
        <time>2016-09-20T10:17:14Z</time>
      </trkpt>
      <trkpt lat="45.92219" lon="4.75252">
        <ele>175</ele>
        <time>2016-09-20T10:17:15Z</time>
      </trkpt>
      <trkpt lat="45.92219" lon="4.75242">
        <ele>175</ele>
        <time>2016-09-20T10:17:16Z</time>
      </trkpt>
      <trkpt lat="45.9222" lon="4.75233">
        <ele>175</ele>
        <time>2016-09-20T10:17:17Z</time>
      </trkpt>
      <trkpt lat="45.9222" lon="4.75223">
        <ele>175</ele>
        <time>2016-09-20T10:17:18Z</time>
      </trkpt>
      <trkpt lat="45.92221" lon="4.75213">
        <ele>175</ele>
        <time>2016-09-20T10:17:19Z</time>
      </trkpt>
      <trkpt lat="45.92223" lon="4.75204">
        <ele>175</ele>
        <time>2016-09-20T10:17:20Z</time>
      </trkpt>
      <trkpt lat="45.92225" lon="4.75195">
        <ele>175</ele>
        <time>2016-09-20T10:17:21Z</time>
      </trkpt>
      <trkpt lat="45.92228" lon="4.75186">
        <ele>175</ele>
        <time>2016-09-20T10:17:22Z</time>
      </trkpt>
      <trkpt lat="45.92231" lon="4.75177">
        <ele>175</ele>
        <time>2016-09-20T10:17:23Z</time>
      </trkpt>
      <trkpt lat="45.92235" lon="4.75168">
        <ele>175</ele>
        <time>2016-09-20T10:17:24Z</time>
      </trkpt>
      <trkpt lat="45.92238" lon="4.75159">
        <ele>174</ele>
        <time>2016-09-20T10:17:25Z</time>
      </trkpt>
      <trkpt lat="45.92242" lon="4.75152">
        <ele>174</ele>
        <time>2016-09-20T10:17:26Z</time>
      </trkpt>
      <trkpt lat="45.92247" lon="4.75145">
        <ele>174</ele>
        <time>2016-09-20T10:17:27Z</time>
      </trkpt>
      <trkpt lat="45.92252" lon="4.75137">
        <ele>174</ele>
        <time>2016-09-20T10:17:28Z</time>
      </trkpt>
      <trkpt lat="45.92257" lon="4.7513">
        <ele>174</ele>
        <time>2016-09-20T10:17:29Z</time>
      </trkpt>
      <trkpt lat="45.92262" lon="4.75123">
        <ele>174</ele>
        <time>2016-09-20T10:17:30Z</time>
      </trkpt>
      <trkpt lat="45.92267" lon="4.75116">
        <ele>174</ele>
        <time>2016-09-20T10:17:31Z</time>
      </trkpt>
      <trkpt lat="45.92272" lon="4.7511">
        <ele>174</ele>
        <time>2016-09-20T10:17:32Z</time>
      </trkpt>
      <trkpt lat="45.92277" lon="4.75105">
        <ele>174</ele>
        <time>2016-09-20T10:17:33Z</time>
      </trkpt>
      <trkpt lat="45.92282" lon="4.75099">
        <ele>173</ele>
        <time>2016-09-20T10:17:34Z</time>
      </trkpt>
      <trkpt lat="45.92287" lon="4.75094">
        <ele>173</ele>
        <time>2016-09-20T10:17:35Z</time>
      </trkpt>
      <trkpt lat="45.92292" lon="4.75089">
        <ele>173</ele>
        <time>2016-09-20T10:17:36Z</time>
      </trkpt>
      <trkpt lat="45.92297" lon="4.75083">
        <ele>172</ele>
        <time>2016-09-20T10:17:37Z</time>
      </trkpt>
      <trkpt lat="45.92302" lon="4.75078">
        <ele>172</ele>
        <time>2016-09-20T10:17:38Z</time>
      </trkpt>
      <trkpt lat="45.92307" lon="4.75073">
        <ele>172</ele>
        <time>2016-09-20T10:17:39Z</time>
      </trkpt>
      <trkpt lat="45.92311" lon="4.75067">
        <ele>172</ele>
        <time>2016-09-20T10:17:40Z</time>
      </trkpt>
      <trkpt lat="45.92315" lon="4.75062">
        <ele>172</ele>
        <time>2016-09-20T10:17:41Z</time>
      </trkpt>
      <trkpt lat="45.9232" lon="4.75057">
        <ele>172</ele>
        <time>2016-09-20T10:17:42Z</time>
      </trkpt>
      <trkpt lat="45.92325" lon="4.7505">
        <ele>172</ele>
        <time>2016-09-20T10:17:43Z</time>
      </trkpt>
      <trkpt lat="45.92329" lon="4.75043">
        <ele>171</ele>
        <time>2016-09-20T10:17:44Z</time>
      </trkpt>
      <trkpt lat="45.92331" lon="4.75035">
        <ele>171</ele>
        <time>2016-09-20T10:17:45Z</time>
      </trkpt>
      <trkpt lat="45.92335" lon="4.75027">
        <ele>170</ele>
        <time>2016-09-20T10:17:46Z</time>
      </trkpt>
      <trkpt lat="45.92338" lon="4.75021">
        <ele>170</ele>
        <time>2016-09-20T10:17:47Z</time>
      </trkpt>
      <trkpt lat="45.92342" lon="4.75013">
        <ele>170</ele>
        <time>2016-09-20T10:17:48Z</time>
      </trkpt>
      <trkpt lat="45.92345" lon="4.75005">
        <ele>170</ele>
        <time>2016-09-20T10:17:49Z</time>
      </trkpt>
      <trkpt lat="45.92348" lon="4.74998">
        <ele>170</ele>
        <time>2016-09-20T10:17:50Z</time>
      </trkpt>
      <trkpt lat="45.92351" lon="4.74991">
        <ele>170</ele>
        <time>2016-09-20T10:17:51Z</time>
      </trkpt>
      <trkpt lat="45.92354" lon="4.74983">
        <ele>170</ele>
        <time>2016-09-20T10:17:52Z</time>
      </trkpt>
      <trkpt lat="45.92357" lon="4.74976">
        <ele>170</ele>
        <time>2016-09-20T10:17:53Z</time>
      </trkpt>
      <trkpt lat="45.9236" lon="4.74969">
        <ele>170</ele>
        <time>2016-09-20T10:17:54Z</time>
      </trkpt>
      <trkpt lat="45.92363" lon="4.74961">
        <ele>170</ele>
        <time>2016-09-20T10:17:55Z</time>
      </trkpt>
      <trkpt lat="45.92365" lon="4.74954">
        <ele>170</ele>
        <time>2016-09-20T10:17:56Z</time>
      </trkpt>
      <trkpt lat="45.92369" lon="4.74947">
        <ele>170</ele>
        <time>2016-09-20T10:17:57Z</time>
      </trkpt>
      <trkpt lat="45.92372" lon="4.74939">
        <ele>170</ele>
        <time>2016-09-20T10:17:58Z</time>
      </trkpt>
      <trkpt lat="45.92375" lon="4.74932">
        <ele>170</ele>
        <time>2016-09-20T10:17:59Z</time>
      </trkpt>
      <trkpt lat="45.92378" lon="4.74924">
        <ele>170</ele>
        <time>2016-09-20T10:18:00Z</time>
      </trkpt>
      <trkpt lat="45.92381" lon="4.74918">
        <ele>170</ele>
        <time>2016-09-20T10:18:01Z</time>
      </trkpt>
      <trkpt lat="45.92384" lon="4.74911">
        <ele>171</ele>
        <time>2016-09-20T10:18:02Z</time>
      </trkpt>
      <trkpt lat="45.92387" lon="4.74904">
        <ele>171</ele>
        <time>2016-09-20T10:18:03Z</time>
      </trkpt>
      <trkpt lat="45.9239" lon="4.74897">
        <ele>171</ele>
        <time>2016-09-20T10:18:04Z</time>
      </trkpt>
      <trkpt lat="45.92393" lon="4.7489">
        <ele>171</ele>
        <time>2016-09-20T10:18:05Z</time>
      </trkpt>
      <trkpt lat="45.92395" lon="4.74882">
        <ele>171</ele>
        <time>2016-09-20T10:18:06Z</time>
      </trkpt>
      <trkpt lat="45.92398" lon="4.74875">
        <ele>171</ele>
        <time>2016-09-20T10:18:07Z</time>
      </trkpt>
      <trkpt lat="45.92401" lon="4.74867">
        <ele>171</ele>
        <time>2016-09-20T10:18:08Z</time>
      </trkpt>
      <trkpt lat="45.92403" lon="4.74859">
        <ele>171</ele>
        <time>2016-09-20T10:18:09Z</time>
      </trkpt>
      <trkpt lat="45.92406" lon="4.74851">
        <ele>171</ele>
        <time>2016-09-20T10:18:10Z</time>
      </trkpt>
      <trkpt lat="45.92408" lon="4.74843">
        <ele>171</ele>
        <time>2016-09-20T10:18:11Z</time>
      </trkpt>
      <trkpt lat="45.92409" lon="4.74835">
        <ele>171</ele>
        <time>2016-09-20T10:18:12Z</time>
      </trkpt>
      <trkpt lat="45.92411" lon="4.74827">
        <ele>171</ele>
        <time>2016-09-20T10:18:13Z</time>
      </trkpt>
      <trkpt lat="45.92413" lon="4.74818">
        <ele>171</ele>
        <time>2016-09-20T10:18:14Z</time>
      </trkpt>
      <trkpt lat="45.92415" lon="4.74809">
        <ele>171</ele>
        <time>2016-09-20T10:18:15Z</time>
      </trkpt>
      <trkpt lat="45.92417" lon="4.748">
        <ele>171</ele>
        <time>2016-09-20T10:18:16Z</time>
      </trkpt>
      <trkpt lat="45.92419" lon="4.74791">
        <ele>171</ele>
        <time>2016-09-20T10:18:17Z</time>
      </trkpt>
      <trkpt lat="45.92421" lon="4.74783">
        <ele>171</ele>
        <time>2016-09-20T10:18:18Z</time>
      </trkpt>
      <trkpt lat="45.92423" lon="4.74775">
        <ele>171</ele>
        <time>2016-09-20T10:18:19Z</time>
      </trkpt>
      <trkpt lat="45.92425" lon="4.74768">
        <ele>171</ele>
        <time>2016-09-20T10:18:20Z</time>
      </trkpt>
      <trkpt lat="45.92427" lon="4.7476">
        <ele>171</ele>
        <time>2016-09-20T10:18:21Z</time>
      </trkpt>
      <trkpt lat="45.92429" lon="4.74753">
        <ele>171</ele>
        <time>2016-09-20T10:18:22Z</time>
      </trkpt>
      <trkpt lat="45.92431" lon="4.74745">
        <ele>171</ele>
        <time>2016-09-20T10:18:23Z</time>
      </trkpt>
      <trkpt lat="45.92433" lon="4.74738">
        <ele>171</ele>
        <time>2016-09-20T10:18:24Z</time>
      </trkpt>
      <trkpt lat="45.92436" lon="4.74731">
        <ele>171</ele>
        <time>2016-09-20T10:18:25Z</time>
      </trkpt>
      <trkpt lat="45.92438" lon="4.74724">
        <ele>171</ele>
        <time>2016-09-20T10:18:26Z</time>
      </trkpt>
      <trkpt lat="45.92443" lon="4.74714">
        <ele>171</ele>
        <time>2016-09-20T10:18:28Z</time>
      </trkpt>
      <trkpt lat="45.92446" lon="4.74707">
        <ele>171</ele>
        <time>2016-09-20T10:18:29Z</time>
      </trkpt>
      <trkpt lat="45.92449" lon="4.747">
        <ele>171</ele>
        <time>2016-09-20T10:18:30Z</time>
      </trkpt>
      <trkpt lat="45.92451" lon="4.74693">
        <ele>171</ele>
        <time>2016-09-20T10:18:31Z</time>
      </trkpt>
      <trkpt lat="45.92454" lon="4.74686">
        <ele>171</ele>
        <time>2016-09-20T10:18:32Z</time>
      </trkpt>
      <trkpt lat="45.92457" lon="4.7468">
        <ele>171</ele>
        <time>2016-09-20T10:18:33Z</time>
      </trkpt>
      <trkpt lat="45.92461" lon="4.74673">
        <ele>171</ele>
        <time>2016-09-20T10:18:34Z</time>
      </trkpt>
      <trkpt lat="45.92464" lon="4.74666">
        <ele>171</ele>
        <time>2016-09-20T10:18:35Z</time>
      </trkpt>
      <trkpt lat="45.92468" lon="4.74659">
        <ele>171</ele>
        <time>2016-09-20T10:18:36Z</time>
      </trkpt>
      <trkpt lat="45.92472" lon="4.74652">
        <ele>171</ele>
        <time>2016-09-20T10:18:37Z</time>
      </trkpt>
      <trkpt lat="45.92476" lon="4.74645">
        <ele>171</ele>
        <time>2016-09-20T10:18:38Z</time>
      </trkpt>
      <trkpt lat="45.9248" lon="4.74639">
        <ele>171</ele>
        <time>2016-09-20T10:18:39Z</time>
      </trkpt>
      <trkpt lat="45.92484" lon="4.74632">
        <ele>171</ele>
        <time>2016-09-20T10:18:40Z</time>
      </trkpt>
      <trkpt lat="45.92489" lon="4.74627">
        <ele>171</ele>
        <time>2016-09-20T10:18:41Z</time>
      </trkpt>
      <trkpt lat="45.92493" lon="4.74622">
        <ele>171</ele>
        <time>2016-09-20T10:18:42Z</time>
      </trkpt>
      <trkpt lat="45.92497" lon="4.74617">
        <ele>171</ele>
        <time>2016-09-20T10:18:43Z</time>
      </trkpt>
      <trkpt lat="45.92501" lon="4.74612">
        <ele>170</ele>
        <time>2016-09-20T10:18:44Z</time>
      </trkpt>
      <trkpt lat="45.92505" lon="4.74606">
        <ele>171</ele>
        <time>2016-09-20T10:18:45Z</time>
      </trkpt>
      <trkpt lat="45.92509" lon="4.74601">
        <ele>171</ele>
        <time>2016-09-20T10:18:46Z</time>
      </trkpt>
      <trkpt lat="45.92513" lon="4.74596">
        <ele>171</ele>
        <time>2016-09-20T10:18:47Z</time>
      </trkpt>
      <trkpt lat="45.92517" lon="4.74591">
        <ele>171</ele>
        <time>2016-09-20T10:18:48Z</time>
      </trkpt>
      <trkpt lat="45.92521" lon="4.74586">
        <ele>171</ele>
        <time>2016-09-20T10:18:49Z</time>
      </trkpt>
      <trkpt lat="45.92525" lon="4.74581">
        <ele>171</ele>
        <time>2016-09-20T10:18:50Z</time>
      </trkpt>
      <trkpt lat="45.9253" lon="4.74576">
        <ele>171</ele>
        <time>2016-09-20T10:18:51Z</time>
      </trkpt>
      <trkpt lat="45.92534" lon="4.74571">
        <ele>171</ele>
        <time>2016-09-20T10:18:52Z</time>
      </trkpt>
      <trkpt lat="45.92538" lon="4.74566">
        <ele>171</ele>
        <time>2016-09-20T10:18:53Z</time>
      </trkpt>
      <trkpt lat="45.92542" lon="4.7456">
        <ele>171</ele>
        <time>2016-09-20T10:18:54Z</time>
      </trkpt>
      <trkpt lat="45.92546" lon="4.74554">
        <ele>170</ele>
        <time>2016-09-20T10:18:55Z</time>
      </trkpt>
      <trkpt lat="45.9255" lon="4.74548">
        <ele>170</ele>
        <time>2016-09-20T10:18:56Z</time>
      </trkpt>
      <trkpt lat="45.92553" lon="4.74541">
        <ele>170</ele>
        <time>2016-09-20T10:18:57Z</time>
      </trkpt>
      <trkpt lat="45.92557" lon="4.74536">
        <ele>170</ele>
        <time>2016-09-20T10:18:58Z</time>
      </trkpt>
      <trkpt lat="45.92559" lon="4.74529">
        <ele>170</ele>
        <time>2016-09-20T10:18:59Z</time>
      </trkpt>
      <trkpt lat="45.92562" lon="4.74523">
        <ele>170</ele>
        <time>2016-09-20T10:19:00Z</time>
      </trkpt>
      <trkpt lat="45.92565" lon="4.74516">
        <ele>170</ele>
        <time>2016-09-20T10:19:01Z</time>
      </trkpt>
      <trkpt lat="45.92568" lon="4.74511">
        <ele>170</ele>
        <time>2016-09-20T10:19:02Z</time>
      </trkpt>
      <trkpt lat="45.92571" lon="4.74505">
        <ele>170</ele>
        <time>2016-09-20T10:19:03Z</time>
      </trkpt>
      <trkpt lat="45.92575" lon="4.745">
        <ele>170</ele>
        <time>2016-09-20T10:19:04Z</time>
      </trkpt>
      <trkpt lat="45.92578" lon="4.74494">
        <ele>170</ele>
        <time>2016-09-20T10:19:05Z</time>
      </trkpt>
      <trkpt lat="45.92581" lon="4.74488">
        <ele>170</ele>
        <time>2016-09-20T10:19:06Z</time>
      </trkpt>
      <trkpt lat="45.92584" lon="4.74482">
        <ele>170</ele>
        <time>2016-09-20T10:19:07Z</time>
      </trkpt>
      <trkpt lat="45.92588" lon="4.74476">
        <ele>170</ele>
        <time>2016-09-20T10:19:08Z</time>
      </trkpt>
      <trkpt lat="45.92591" lon="4.74469">
        <ele>170</ele>
        <time>2016-09-20T10:19:09Z</time>
      </trkpt>
      <trkpt lat="45.92595" lon="4.74463">
        <ele>170</ele>
        <time>2016-09-20T10:19:10Z</time>
      </trkpt>
      <trkpt lat="45.92599" lon="4.74456">
        <ele>170</ele>
        <time>2016-09-20T10:19:11Z</time>
      </trkpt>
      <trkpt lat="45.92602" lon="4.7445">
        <ele>170</ele>
        <time>2016-09-20T10:19:12Z</time>
      </trkpt>
      <trkpt lat="45.92605" lon="4.74445">
        <ele>170</ele>
        <time>2016-09-20T10:19:13Z</time>
      </trkpt>
      <trkpt lat="45.92608" lon="4.7444">
        <ele>170</ele>
        <time>2016-09-20T10:19:14Z</time>
      </trkpt>
      <trkpt lat="45.92611" lon="4.74434">
        <ele>170</ele>
        <time>2016-09-20T10:19:15Z</time>
      </trkpt>
      <trkpt lat="45.92613" lon="4.74429">
        <ele>170</ele>
        <time>2016-09-20T10:19:16Z</time>
      </trkpt>
      <trkpt lat="45.92616" lon="4.74423">
        <ele>170</ele>
        <time>2016-09-20T10:19:17Z</time>
      </trkpt>
      <trkpt lat="45.92619" lon="4.74417">
        <ele>170</ele>
        <time>2016-09-20T10:19:18Z</time>
      </trkpt>
      <trkpt lat="45.92622" lon="4.74412">
        <ele>170</ele>
        <time>2016-09-20T10:19:19Z</time>
      </trkpt>
      <trkpt lat="45.92625" lon="4.74406">
        <ele>170</ele>
        <time>2016-09-20T10:19:20Z</time>
      </trkpt>
      <trkpt lat="45.92629" lon="4.74401">
        <ele>170</ele>
        <time>2016-09-20T10:19:21Z</time>
      </trkpt>
      <trkpt lat="45.92632" lon="4.74394">
        <ele>170</ele>
        <time>2016-09-20T10:19:22Z</time>
      </trkpt>
      <trkpt lat="45.92636" lon="4.74388">
        <ele>170</ele>
        <time>2016-09-20T10:19:23Z</time>
      </trkpt>
      <trkpt lat="45.92639" lon="4.74382">
        <ele>170</ele>
        <time>2016-09-20T10:19:24Z</time>
      </trkpt>
      <trkpt lat="45.92642" lon="4.74376">
        <ele>170</ele>
        <time>2016-09-20T10:19:25Z</time>
      </trkpt>
      <trkpt lat="45.92646" lon="4.74369">
        <ele>171</ele>
        <time>2016-09-20T10:19:26Z</time>
      </trkpt>
      <trkpt lat="45.92649" lon="4.74363">
        <ele>171</ele>
        <time>2016-09-20T10:19:27Z</time>
      </trkpt>
      <trkpt lat="45.92652" lon="4.74357">
        <ele>171</ele>
        <time>2016-09-20T10:19:28Z</time>
      </trkpt>
      <trkpt lat="45.92656" lon="4.74352">
        <ele>171</ele>
        <time>2016-09-20T10:19:29Z</time>
      </trkpt>
      <trkpt lat="45.92659" lon="4.74346">
        <ele>171</ele>
        <time>2016-09-20T10:19:30Z</time>
      </trkpt>
      <trkpt lat="45.92663" lon="4.7434">
        <ele>171</ele>
        <time>2016-09-20T10:19:31Z</time>
      </trkpt>
      <trkpt lat="45.92666" lon="4.74335">
        <ele>171</ele>
        <time>2016-09-20T10:19:32Z</time>
      </trkpt>
      <trkpt lat="45.9267" lon="4.74329">
        <ele>171</ele>
        <time>2016-09-20T10:19:33Z</time>
      </trkpt>
      <trkpt lat="45.92673" lon="4.74323">
        <ele>171</ele>
        <time>2016-09-20T10:19:34Z</time>
      </trkpt>
      <trkpt lat="45.92676" lon="4.74317">
        <ele>171</ele>
        <time>2016-09-20T10:19:35Z</time>
      </trkpt>
      <trkpt lat="45.92679" lon="4.74311">
        <ele>171</ele>
        <time>2016-09-20T10:19:36Z</time>
      </trkpt>
      <trkpt lat="45.92682" lon="4.74305">
        <ele>171</ele>
        <time>2016-09-20T10:19:37Z</time>
      </trkpt>
      <trkpt lat="45.92685" lon="4.74299">
        <ele>171</ele>
        <time>2016-09-20T10:19:38Z</time>
      </trkpt>
      <trkpt lat="45.92689" lon="4.74293">
        <ele>171</ele>
        <time>2016-09-20T10:19:39Z</time>
      </trkpt>
      <trkpt lat="45.92692" lon="4.74287">
        <ele>171</ele>
        <time>2016-09-20T10:19:40Z</time>
      </trkpt>
      <trkpt lat="45.92696" lon="4.74281">
        <ele>171</ele>
        <time>2016-09-20T10:19:41Z</time>
      </trkpt>
      <trkpt lat="45.92699" lon="4.74275">
        <ele>171</ele>
        <time>2016-09-20T10:19:42Z</time>
      </trkpt>
      <trkpt lat="45.92703" lon="4.74269">
        <ele>171</ele>
        <time>2016-09-20T10:19:43Z</time>
      </trkpt>
      <trkpt lat="45.92707" lon="4.74264">
        <ele>171</ele>
        <time>2016-09-20T10:19:44Z</time>
      </trkpt>
      <trkpt lat="45.9271" lon="4.74258">
        <ele>171</ele>
        <time>2016-09-20T10:19:45Z</time>
      </trkpt>
      <trkpt lat="45.92714" lon="4.74252">
        <ele>171</ele>
        <time>2016-09-20T10:19:46Z</time>
      </trkpt>
      <trkpt lat="45.92718" lon="4.74246">
        <ele>171</ele>
        <time>2016-09-20T10:19:47Z</time>
      </trkpt>
      <trkpt lat="45.92722" lon="4.7424">
        <ele>171</ele>
        <time>2016-09-20T10:19:48Z</time>
      </trkpt>
      <trkpt lat="45.92726" lon="4.74234">
        <ele>171</ele>
        <time>2016-09-20T10:19:49Z</time>
      </trkpt>
      <trkpt lat="45.92729" lon="4.74229">
        <ele>171</ele>
        <time>2016-09-20T10:19:50Z</time>
      </trkpt>
      <trkpt lat="45.92733" lon="4.74224">
        <ele>171</ele>
        <time>2016-09-20T10:19:51Z</time>
      </trkpt>
      <trkpt lat="45.92736" lon="4.74219">
        <ele>171</ele>
        <time>2016-09-20T10:19:52Z</time>
      </trkpt>
      <trkpt lat="45.9274" lon="4.74214">
        <ele>171</ele>
        <time>2016-09-20T10:19:53Z</time>
      </trkpt>
      <trkpt lat="45.92743" lon="4.74208">
        <ele>171</ele>
        <time>2016-09-20T10:19:54Z</time>
      </trkpt>
      <trkpt lat="45.92747" lon="4.74203">
        <ele>171</ele>
        <time>2016-09-20T10:19:55Z</time>
      </trkpt>
      <trkpt lat="45.92752" lon="4.74198">
        <ele>172</ele>
        <time>2016-09-20T10:19:56Z</time>
      </trkpt>
      <trkpt lat="45.92756" lon="4.74193">
        <ele>172</ele>
        <time>2016-09-20T10:19:57Z</time>
      </trkpt>
      <trkpt lat="45.9276" lon="4.74187">
        <ele>172</ele>
        <time>2016-09-20T10:19:58Z</time>
      </trkpt>
      <trkpt lat="45.92764" lon="4.74184">
        <ele>172</ele>
        <time>2016-09-20T10:19:59Z</time>
      </trkpt>
      <trkpt lat="45.92768" lon="4.7418">
        <ele>172</ele>
        <time>2016-09-20T10:20:00Z</time>
      </trkpt>
      <trkpt lat="45.92773" lon="4.74175">
        <ele>172</ele>
        <time>2016-09-20T10:20:01Z</time>
      </trkpt>
      <trkpt lat="45.92777" lon="4.7417">
        <ele>172</ele>
        <time>2016-09-20T10:20:02Z</time>
      </trkpt>
      <trkpt lat="45.92782" lon="4.74165">
        <ele>172</ele>
        <time>2016-09-20T10:20:03Z</time>
      </trkpt>
      <trkpt lat="45.92786" lon="4.74161">
        <ele>172</ele>
        <time>2016-09-20T10:20:04Z</time>
      </trkpt>
      <trkpt lat="45.9279" lon="4.74156">
        <ele>172</ele>
        <time>2016-09-20T10:20:05Z</time>
      </trkpt>
      <trkpt lat="45.92794" lon="4.74152">
        <ele>172</ele>
        <time>2016-09-20T10:20:06Z</time>
      </trkpt>
      <trkpt lat="45.92798" lon="4.74147">
        <ele>172</ele>
        <time>2016-09-20T10:20:07Z</time>
      </trkpt>
      <trkpt lat="45.92802" lon="4.74143">
        <ele>172</ele>
        <time>2016-09-20T10:20:08Z</time>
      </trkpt>
      <trkpt lat="45.92806" lon="4.74139">
        <ele>172</ele>
        <time>2016-09-20T10:20:09Z</time>
      </trkpt>
      <trkpt lat="45.92809" lon="4.74135">
        <ele>172</ele>
        <time>2016-09-20T10:20:10Z</time>
      </trkpt>
      <trkpt lat="45.92813" lon="4.74131">
        <ele>172</ele>
        <time>2016-09-20T10:20:11Z</time>
      </trkpt>
      <trkpt lat="45.9282" lon="4.74122">
        <ele>172</ele>
        <time>2016-09-20T10:20:13Z</time>
      </trkpt>
      <trkpt lat="45.92823" lon="4.74118">
        <ele>172</ele>
        <time>2016-09-20T10:20:14Z</time>
      </trkpt>
      <trkpt lat="45.92827" lon="4.74114">
        <ele>171</ele>
        <time>2016-09-20T10:20:15Z</time>
      </trkpt>
      <trkpt lat="45.92832" lon="4.7411">
        <ele>171</ele>
        <time>2016-09-20T10:20:16Z</time>
      </trkpt>
      <trkpt lat="45.92835" lon="4.74105">
        <ele>171</ele>
        <time>2016-09-20T10:20:17Z</time>
      </trkpt>
      <trkpt lat="45.92839" lon="4.741">
        <ele>171</ele>
        <time>2016-09-20T10:20:18Z</time>
      </trkpt>
      <trkpt lat="45.92842" lon="4.74095">
        <ele>171</ele>
        <time>2016-09-20T10:20:19Z</time>
      </trkpt>
      <trkpt lat="45.92846" lon="4.7409">
        <ele>171</ele>
        <time>2016-09-20T10:20:20Z</time>
      </trkpt>
      <trkpt lat="45.9285" lon="4.74085">
        <ele>171</ele>
        <time>2016-09-20T10:20:21Z</time>
      </trkpt>
      <trkpt lat="45.92854" lon="4.74081">
        <ele>172</ele>
        <time>2016-09-20T10:20:22Z</time>
      </trkpt>
      <trkpt lat="45.92858" lon="4.74076">
        <ele>172</ele>
        <time>2016-09-20T10:20:23Z</time>
      </trkpt>
      <trkpt lat="45.92862" lon="4.74071">
        <ele>172</ele>
        <time>2016-09-20T10:20:24Z</time>
      </trkpt>
      <trkpt lat="45.92865" lon="4.74066">
        <ele>172</ele>
        <time>2016-09-20T10:20:25Z</time>
      </trkpt>
      <trkpt lat="45.92869" lon="4.74062">
        <ele>172</ele>
        <time>2016-09-20T10:20:26Z</time>
      </trkpt>
      <trkpt lat="45.92873" lon="4.74058">
        <ele>172</ele>
        <time>2016-09-20T10:20:27Z</time>
      </trkpt>
      <trkpt lat="45.92877" lon="4.74054">
        <ele>172</ele>
        <time>2016-09-20T10:20:28Z</time>
      </trkpt>
      <trkpt lat="45.92881" lon="4.74052">
        <ele>172</ele>
        <time>2016-09-20T10:20:29Z</time>
      </trkpt>
      <trkpt lat="45.92886" lon="4.74051">
        <ele>172</ele>
        <time>2016-09-20T10:20:30Z</time>
      </trkpt>
      <trkpt lat="45.92894" lon="4.74051">
        <ele>172</ele>
        <time>2016-09-20T10:20:32Z</time>
      </trkpt>
      <trkpt lat="45.92899" lon="4.74051">
        <ele>172</ele>
        <time>2016-09-20T10:20:33Z</time>
      </trkpt>
      <trkpt lat="45.92904" lon="4.74051">
        <ele>172</ele>
        <time>2016-09-20T10:20:34Z</time>
      </trkpt>
      <trkpt lat="45.92908" lon="4.74049">
        <ele>172</ele>
        <time>2016-09-20T10:20:35Z</time>
      </trkpt>
      <trkpt lat="45.92913" lon="4.74046">
        <ele>172</ele>
        <time>2016-09-20T10:20:36Z</time>
      </trkpt>
      <trkpt lat="45.92916" lon="4.74042">
        <ele>172</ele>
        <time>2016-09-20T10:20:37Z</time>
      </trkpt>
      <trkpt lat="45.92919" lon="4.74036">
        <ele>172</ele>
        <time>2016-09-20T10:20:38Z</time>
      </trkpt>
      <trkpt lat="45.92921" lon="4.74029">
        <ele>172</ele>
        <time>2016-09-20T10:20:39Z</time>
      </trkpt>
      <trkpt lat="45.92921" lon="4.74022">
        <ele>172</ele>
        <time>2016-09-20T10:20:40Z</time>
      </trkpt>
      <trkpt lat="45.9292" lon="4.74014">
        <ele>172</ele>
        <time>2016-09-20T10:20:41Z</time>
      </trkpt>
      <trkpt lat="45.92919" lon="4.74007">
        <ele>172</ele>
        <time>2016-09-20T10:20:42Z</time>
      </trkpt>
      <trkpt lat="45.92916" lon="4.74">
        <ele>172</ele>
        <time>2016-09-20T10:20:43Z</time>
      </trkpt>
      <trkpt lat="45.92912" lon="4.73994">
        <ele>172</ele>
        <time>2016-09-20T10:20:44Z</time>
      </trkpt>
      <trkpt lat="45.92908" lon="4.73989">
        <ele>172</ele>
        <time>2016-09-20T10:20:45Z</time>
      </trkpt>
      <trkpt lat="45.92904" lon="4.73985">
        <ele>172</ele>
        <time>2016-09-20T10:20:46Z</time>
      </trkpt>
      <trkpt lat="45.92899" lon="4.73981">
        <ele>172</ele>
        <time>2016-09-20T10:20:47Z</time>
      </trkpt>
      <trkpt lat="45.92895" lon="4.73976">
        <ele>172</ele>
        <time>2016-09-20T10:20:48Z</time>
      </trkpt>
      <trkpt lat="45.92893" lon="4.73969">
        <ele>172</ele>
        <time>2016-09-20T10:20:49Z</time>
      </trkpt>
      <trkpt lat="45.92891" lon="4.73962">
        <ele>172</ele>
        <time>2016-09-20T10:20:50Z</time>
      </trkpt>
      <trkpt lat="45.9289" lon="4.73954">
        <ele>172</ele>
        <time>2016-09-20T10:20:51Z</time>
      </trkpt>
      <trkpt lat="45.9289" lon="4.73946">
        <ele>172</ele>
        <time>2016-09-20T10:20:52Z</time>
      </trkpt>
      <trkpt lat="45.92889" lon="4.73938">
        <ele>172</ele>
        <time>2016-09-20T10:20:53Z</time>
      </trkpt>
      <trkpt lat="45.92889" lon="4.7393">
        <ele>172</ele>
        <time>2016-09-20T10:20:54Z</time>
      </trkpt>
      <trkpt lat="45.92888" lon="4.73922">
        <ele>172</ele>
        <time>2016-09-20T10:20:55Z</time>
      </trkpt>
      <trkpt lat="45.92887" lon="4.73914">
        <ele>173</ele>
        <time>2016-09-20T10:20:56Z</time>
      </trkpt>
      <trkpt lat="45.92886" lon="4.73905">
        <ele>173</ele>
        <time>2016-09-20T10:20:57Z</time>
      </trkpt>
      <trkpt lat="45.92885" lon="4.73897">
        <ele>173</ele>
        <time>2016-09-20T10:20:58Z</time>
      </trkpt>
      <trkpt lat="45.92884" lon="4.73888">
        <ele>173</ele>
        <time>2016-09-20T10:20:59Z</time>
      </trkpt>
      <trkpt lat="45.92882" lon="4.7388">
        <ele>173</ele>
        <time>2016-09-20T10:21:00Z</time>
      </trkpt>
      <trkpt lat="45.9288" lon="4.73872">
        <ele>173</ele>
        <time>2016-09-20T10:21:01Z</time>
      </trkpt>
      <trkpt lat="45.92878" lon="4.73865">
        <ele>173</ele>
        <time>2016-09-20T10:21:02Z</time>
      </trkpt>
      <trkpt lat="45.92876" lon="4.73858">
        <ele>173</ele>
        <time>2016-09-20T10:21:03Z</time>
      </trkpt>
      <trkpt lat="45.92874" lon="4.73852">
        <ele>173</ele>
        <time>2016-09-20T10:21:04Z</time>
      </trkpt>
      <trkpt lat="45.92872" lon="4.73845">
        <ele>173</ele>
        <time>2016-09-20T10:21:05Z</time>
      </trkpt>
      <trkpt lat="45.9287" lon="4.73838">
        <ele>173</ele>
        <time>2016-09-20T10:21:06Z</time>
      </trkpt>
      <trkpt lat="45.92869" lon="4.73831">
        <ele>173</ele>
        <time>2016-09-20T10:21:07Z</time>
      </trkpt>
      <trkpt lat="45.92867" lon="4.73825">
        <ele>173</ele>
        <time>2016-09-20T10:21:08Z</time>
      </trkpt>
      <trkpt lat="45.92864" lon="4.7382">
        <ele>173</ele>
        <time>2016-09-20T10:21:09Z</time>
      </trkpt>
      <trkpt lat="45.92861" lon="4.73809">
        <ele>173</ele>
        <time>2016-09-20T10:21:11Z</time>
      </trkpt>
      <trkpt lat="45.92859" lon="4.73803">
        <ele>173</ele>
        <time>2016-09-20T10:21:12Z</time>
      </trkpt>
      <trkpt lat="45.92857" lon="4.73794">
        <ele>173</ele>
        <time>2016-09-20T10:21:14Z</time>
      </trkpt>
      <trkpt lat="45.92854" lon="4.7379">
        <ele>173</ele>
        <time>2016-09-20T10:21:15Z</time>
      </trkpt>
      <trkpt lat="45.92848" lon="4.73786">
        <ele>173</ele>
        <time>2016-09-20T10:21:17Z</time>
      </trkpt>
      <trkpt lat="45.92844" lon="4.73785">
        <ele>173</ele>
        <time>2016-09-20T10:21:18Z</time>
      </trkpt>
      <trkpt lat="45.92835" lon="4.73782">
        <ele>173</ele>
        <time>2016-09-20T10:21:20Z</time>
      </trkpt>
      <trkpt lat="45.92831" lon="4.73779">
        <ele>173</ele>
        <time>2016-09-20T10:21:21Z</time>
      </trkpt>
      <trkpt lat="45.92827" lon="4.73777">
        <ele>173</ele>
        <time>2016-09-20T10:21:22Z</time>
      </trkpt>
      <trkpt lat="45.92822" lon="4.73775">
        <ele>173</ele>
        <time>2016-09-20T10:21:23Z</time>
      </trkpt>
      <trkpt lat="45.92818" lon="4.73772">
        <ele>173</ele>
        <time>2016-09-20T10:21:24Z</time>
      </trkpt>
      <trkpt lat="45.92814" lon="4.73769">
        <ele>173</ele>
        <time>2016-09-20T10:21:25Z</time>
      </trkpt>
      <trkpt lat="45.9281" lon="4.73766">
        <ele>173</ele>
        <time>2016-09-20T10:21:26Z</time>
      </trkpt>
      <trkpt lat="45.92806" lon="4.73764">
        <ele>173</ele>
        <time>2016-09-20T10:21:27Z</time>
      </trkpt>
      <trkpt lat="45.92801" lon="4.73762">
        <ele>173</ele>
        <time>2016-09-20T10:21:28Z</time>
      </trkpt>
      <trkpt lat="45.92797" lon="4.7376">
        <ele>173</ele>
        <time>2016-09-20T10:21:29Z</time>
      </trkpt>
      <trkpt lat="45.92789" lon="4.73755">
        <ele>173</ele>
        <time>2016-09-20T10:21:31Z</time>
      </trkpt>
      <trkpt lat="45.92786" lon="4.73752">
        <ele>173</ele>
        <time>2016-09-20T10:21:32Z</time>
      </trkpt>
      <trkpt lat="45.9278" lon="4.73744">
        <ele>172</ele>
        <time>2016-09-20T10:21:34Z</time>
      </trkpt>
      <trkpt lat="45.92775" lon="4.73741">
        <ele>172</ele>
        <time>2016-09-20T10:21:35Z</time>
      </trkpt>
      <trkpt lat="45.92769" lon="4.73739">
        <ele>172</ele>
        <time>2016-09-20T10:21:36Z</time>
      </trkpt>
      <trkpt lat="45.92765" lon="4.73736">
        <ele>172</ele>
        <time>2016-09-20T10:21:37Z</time>
      </trkpt>
      <trkpt lat="45.92759" lon="4.73734">
        <ele>172</ele>
        <time>2016-09-20T10:21:38Z</time>
      </trkpt>
      <trkpt lat="45.92755" lon="4.73729">
        <ele>172</ele>
        <time>2016-09-20T10:21:39Z</time>
      </trkpt>
      <trkpt lat="45.92747" lon="4.73725">
        <ele>173</ele>
        <time>2016-09-20T10:21:41Z</time>
      </trkpt>
      <trkpt lat="45.92742" lon="4.73722">
        <ele>173</ele>
        <time>2016-09-20T10:21:42Z</time>
      </trkpt>
      <trkpt lat="45.92736" lon="4.7372">
        <ele>173</ele>
        <time>2016-09-20T10:21:43Z</time>
      </trkpt>
      <trkpt lat="45.9273" lon="4.7372">
        <ele>173</ele>
        <time>2016-09-20T10:21:44Z</time>
      </trkpt>
      <trkpt lat="45.92721" lon="4.73718">
        <ele>173</ele>
        <time>2016-09-20T10:21:46Z</time>
      </trkpt>
      <trkpt lat="45.92716" lon="4.7372">
        <ele>173</ele>
        <time>2016-09-20T10:21:47Z</time>
      </trkpt>
      <trkpt lat="45.9271" lon="4.73719">
        <ele>173</ele>
        <time>2016-09-20T10:21:48Z</time>
      </trkpt>
      <trkpt lat="45.92705" lon="4.73718">
        <ele>173</ele>
        <time>2016-09-20T10:21:49Z</time>
      </trkpt>
      <trkpt lat="45.92701" lon="4.73716">
        <ele>173</ele>
        <time>2016-09-20T10:21:50Z</time>
      </trkpt>
      <trkpt lat="45.92694" lon="4.73715">
        <ele>173</ele>
        <time>2016-09-20T10:21:51Z</time>
      </trkpt>
      <trkpt lat="45.92688" lon="4.73714">
        <ele>173</ele>
        <time>2016-09-20T10:21:52Z</time>
      </trkpt>
      <trkpt lat="45.92683" lon="4.73713">
        <ele>173</ele>
        <time>2016-09-20T10:21:53Z</time>
      </trkpt>
      <trkpt lat="45.92677" lon="4.73708">
        <ele>173</ele>
        <time>2016-09-20T10:21:54Z</time>
      </trkpt>
      <trkpt lat="45.92673" lon="4.73703">
        <ele>174</ele>
        <time>2016-09-20T10:21:55Z</time>
      </trkpt>
      <trkpt lat="45.92668" lon="4.73701">
        <ele>174</ele>
        <time>2016-09-20T10:21:56Z</time>
      </trkpt>
      <trkpt lat="45.92663" lon="4.73697">
        <ele>173</ele>
        <time>2016-09-20T10:21:57Z</time>
      </trkpt>
      <trkpt lat="45.92659" lon="4.73693">
        <ele>173</ele>
        <time>2016-09-20T10:21:58Z</time>
      </trkpt>
      <trkpt lat="45.92653" lon="4.73692">
        <ele>173</ele>
        <time>2016-09-20T10:21:59Z</time>
      </trkpt>
      <trkpt lat="45.92648" lon="4.7369">
        <ele>173</ele>
        <time>2016-09-20T10:22:00Z</time>
      </trkpt>
      <trkpt lat="45.92643" lon="4.73686">
        <ele>173</ele>
        <time>2016-09-20T10:22:01Z</time>
      </trkpt>
      <trkpt lat="45.92639" lon="4.73681">
        <ele>173</ele>
        <time>2016-09-20T10:22:02Z</time>
      </trkpt>
      <trkpt lat="45.92635" lon="4.73675">
        <ele>173</ele>
        <time>2016-09-20T10:22:03Z</time>
      </trkpt>
      <trkpt lat="45.92632" lon="4.73667">
        <ele>173</ele>
        <time>2016-09-20T10:22:04Z</time>
      </trkpt>
      <trkpt lat="45.9263" lon="4.73659">
        <ele>173</ele>
        <time>2016-09-20T10:22:05Z</time>
      </trkpt>
      <trkpt lat="45.92628" lon="4.73653">
        <ele>173</ele>
        <time>2016-09-20T10:22:06Z</time>
      </trkpt>
      <trkpt lat="45.92625" lon="4.73646">
        <ele>173</ele>
        <time>2016-09-20T10:22:07Z</time>
      </trkpt>
      <trkpt lat="45.92622" lon="4.7364">
        <ele>173</ele>
        <time>2016-09-20T10:22:08Z</time>
      </trkpt>
      <trkpt lat="45.9262" lon="4.73636">
        <ele>173</ele>
        <time>2016-09-20T10:22:09Z</time>
      </trkpt>
      <trkpt lat="45.92613" lon="4.7363">
        <ele>173</ele>
        <time>2016-09-20T10:22:11Z</time>
      </trkpt>
      <trkpt lat="45.92609" lon="4.73628">
        <ele>173</ele>
        <time>2016-09-20T10:22:12Z</time>
      </trkpt>
      <trkpt lat="45.92602" lon="4.73626">
        <ele>173</ele>
        <time>2016-09-20T10:22:13Z</time>
      </trkpt>
      <trkpt lat="45.92594" lon="4.73625">
        <ele>173</ele>
        <time>2016-09-20T10:22:14Z</time>
      </trkpt>
      <trkpt lat="45.92588" lon="4.73625">
        <ele>172</ele>
        <time>2016-09-20T10:22:15Z</time>
      </trkpt>
      <trkpt lat="45.92583" lon="4.73626">
        <ele>173</ele>
        <time>2016-09-20T10:22:16Z</time>
      </trkpt>
      <trkpt lat="45.92578" lon="4.73626">
        <ele>173</ele>
        <time>2016-09-20T10:22:17Z</time>
      </trkpt>
      <trkpt lat="45.92572" lon="4.73629">
        <ele>173</ele>
        <time>2016-09-20T10:22:18Z</time>
      </trkpt>
      <trkpt lat="45.92566" lon="4.7363">
        <ele>173</ele>
        <time>2016-09-20T10:22:19Z</time>
      </trkpt>
      <trkpt lat="45.92561" lon="4.73628">
        <ele>173</ele>
        <time>2016-09-20T10:22:20Z</time>
      </trkpt>
      <trkpt lat="45.92556" lon="4.73632">
        <ele>173</ele>
        <time>2016-09-20T10:22:21Z</time>
      </trkpt>
      <trkpt lat="45.92551" lon="4.73635">
        <ele>173</ele>
        <time>2016-09-20T10:22:22Z</time>
      </trkpt>
      <trkpt lat="45.92546" lon="4.73636">
        <ele>173</ele>
        <time>2016-09-20T10:22:23Z</time>
      </trkpt>
      <trkpt lat="45.9254" lon="4.73638">
        <ele>173</ele>
        <time>2016-09-20T10:22:24Z</time>
      </trkpt>
      <trkpt lat="45.92536" lon="4.73638">
        <ele>173</ele>
        <time>2016-09-20T10:22:25Z</time>
      </trkpt>
      <trkpt lat="45.9253" lon="4.73639">
        <ele>173</ele>
        <time>2016-09-20T10:22:26Z</time>
      </trkpt>
      <trkpt lat="45.92525" lon="4.73639">
        <ele>173</ele>
        <time>2016-09-20T10:22:27Z</time>
      </trkpt>
      <trkpt lat="45.92519" lon="4.7364">
        <ele>173</ele>
        <time>2016-09-20T10:22:28Z</time>
      </trkpt>
      <trkpt lat="45.92514" lon="4.7364">
        <ele>174</ele>
        <time>2016-09-20T10:22:29Z</time>
      </trkpt>
      <trkpt lat="45.92509" lon="4.73641">
        <ele>174</ele>
        <time>2016-09-20T10:22:30Z</time>
      </trkpt>
      <trkpt lat="45.925" lon="4.73641">
        <ele>174</ele>
        <time>2016-09-20T10:22:32Z</time>
      </trkpt>
      <trkpt lat="45.92495" lon="4.7364">
        <ele>174</ele>
        <time>2016-09-20T10:22:33Z</time>
      </trkpt>
      <trkpt lat="45.92486" lon="4.73641">
        <ele>174</ele>
        <time>2016-09-20T10:22:35Z</time>
      </trkpt>
      <trkpt lat="45.92482" lon="4.73642">
        <ele>174</ele>
        <time>2016-09-20T10:22:36Z</time>
      </trkpt>
      <trkpt lat="45.92477" lon="4.73643">
        <ele>174</ele>
        <time>2016-09-20T10:22:37Z</time>
      </trkpt>
      <trkpt lat="45.92472" lon="4.73645">
        <ele>174</ele>
        <time>2016-09-20T10:22:38Z</time>
      </trkpt>
      <trkpt lat="45.92466" lon="4.73655">
        <ele>174</ele>
        <time>2016-09-20T10:22:40Z</time>
      </trkpt>
      <trkpt lat="45.92465" lon="4.7366">
        <ele>174</ele>
        <time>2016-09-20T10:22:41Z</time>
      </trkpt>
      <trkpt lat="45.92464" lon="4.73672">
        <ele>174</ele>
        <time>2016-09-20T10:22:44Z</time>
      </trkpt>
      <trkpt lat="45.92463" lon="4.73676">
        <ele>174</ele>
        <time>2016-09-20T10:22:45Z</time>
      </trkpt>
      <trkpt lat="45.92462" lon="4.73686">
        <ele>174</ele>
        <time>2016-09-20T10:22:47Z</time>
      </trkpt>
      <trkpt lat="45.92461" lon="4.73692">
        <ele>174</ele>
        <time>2016-09-20T10:22:48Z</time>
      </trkpt>
      <trkpt lat="45.9246" lon="4.73704">
        <ele>174</ele>
        <time>2016-09-20T10:22:51Z</time>
      </trkpt>
      <trkpt lat="45.9246" lon="4.73705">
        <ele>174</ele>
        <time>2016-09-20T10:22:52Z</time>
      </trkpt>
      <trkpt lat="45.92458" lon="4.73715">
        <ele>174</ele>
        <time>2016-09-20T10:23:26.503Z</time>
      </trkpt>
    </trkseg>
  </trk>
</gpx>